<?xml version='1.0' encoding='UTF-8'?><gpx version="1.1" creator="JPX - https://github.com/jenetics/jpx" xmlns="http://www.topografix.com/GPX/1/1"><trk><trkseg><trkpt lat="43.96458509336319" lon="8.138546900266395"><ele>11.0</ele><time>2026-04-18T08:40:56Z</time></trkpt><trkpt lat="43.96456731288089" lon="8.138447515498937"><ele>11.0</ele><time>2026-04-18T08:40:58Z</time></trkpt><trkpt lat="43.964580856788835" lon="8.13835825586192"><ele>11.0</ele><time>2026-04-18T08:41:00Z</time></trkpt><trkpt lat="43.96459553136451" lon="8.138247964936905"><ele>11.0</ele><time>2026-04-18T08:41:03Z</time></trkpt><trkpt lat="43.96461476220245" lon="8.13809203917181"><ele>11.0</ele><time>2026-04-18T08:41:05Z</time></trkpt><trkpt lat="43.964600875596815" lon="8.137980545648057"><ele>11.0</ele><time>2026-04-18T08:41:06Z</time></trkpt><trkpt lat="43.96458561298047" lon="8.137874126773504"><ele>11.0</ele><time>2026-04-18T08:41:07Z</time></trkpt><trkpt lat="43.96457308291082" lon="8.137768462415934"><ele>11.0</ele><time>2026-04-18T08:41:08Z</time></trkpt><trkpt lat="43.96456345269096" lon="8.137667556542615"><ele>11.0</ele><time>2026-04-18T08:41:09Z</time></trkpt><trkpt lat="43.96455099228583" lon="8.137577863340708"><ele>11.0</ele><time>2026-04-18T08:41:10Z</time></trkpt><trkpt lat="43.96454139356069" lon="8.13748952099536"><ele>11.0</ele><time>2026-04-18T08:41:11Z</time></trkpt><trkpt lat="43.96452152718" lon="8.137341032755149"><ele>11.0</ele><time>2026-04-18T08:41:13Z</time></trkpt><trkpt lat="43.96450424202686" lon="8.137236531745968"><ele>11.0</ele><time>2026-04-18T08:41:15Z</time></trkpt><trkpt lat="43.96448554263185" lon="8.137151130679687"><ele>11.0</ele><time>2026-04-18T08:41:17Z</time></trkpt><trkpt lat="43.96447448538357" lon="8.137053321363423"><ele>11.0</ele><time>2026-04-18T08:41:19Z</time></trkpt><trkpt lat="43.96446796321124" lon="8.136945960425793"><ele>11.0</ele><time>2026-04-18T08:41:22Z</time></trkpt><trkpt lat="43.964452071879705" lon="8.136850957904482"><ele>11.0</ele><time>2026-04-18T08:41:24Z</time></trkpt><trkpt lat="43.96443514907713" lon="8.136724341521415"><ele>11.0</ele><time>2026-04-18T08:41:26Z</time></trkpt><trkpt lat="43.96440426488969" lon="8.136579877790474"><ele>11.4</ele><time>2026-04-18T08:41:28Z</time></trkpt><trkpt lat="43.96438480537609" lon="8.136427214159275"><ele>11.8</ele><time>2026-04-18T08:41:30Z</time></trkpt><trkpt lat="43.96436488304533" lon="8.13627382758792"><ele>12.200000000000001</ele><time>2026-04-18T08:41:32Z</time></trkpt><trkpt lat="43.9643347140073" lon="8.136142937274904"><ele>12.600000000000001</ele><time>2026-04-18T08:41:34Z</time></trkpt><trkpt lat="43.96433091584596" lon="8.136042290468826"><ele>13.0</ele><time>2026-04-18T08:41:36Z</time></trkpt><trkpt lat="43.96434225322824" lon="8.135935130059325"><ele>13.0</ele><time>2026-04-18T08:41:39Z</time></trkpt><trkpt lat="43.964377660971536" lon="8.135854864029612"><ele>13.0</ele><time>2026-04-18T08:41:41Z</time></trkpt><trkpt lat="43.964511213227226" lon="8.135790931426335"><ele>13.0</ele><time>2026-04-18T08:41:43Z</time></trkpt><trkpt lat="43.964593636625644" lon="8.135792859172499"><ele>13.0</ele><time>2026-04-18T08:41:44Z</time></trkpt><trkpt lat="43.96469151960741" lon="8.135776582873282"><ele>13.0</ele><time>2026-04-18T08:41:45Z</time></trkpt><trkpt lat="43.964813269795314" lon="8.135759369629284"><ele>13.0</ele><time>2026-04-18T08:41:46Z</time></trkpt><trkpt lat="43.964936572067806" lon="8.135742632375242"><ele>13.0</ele><time>2026-04-18T08:41:47Z</time></trkpt><trkpt lat="43.96506493893977" lon="8.135725207640583"><ele>13.0</ele><time>2026-04-18T08:41:48Z</time></trkpt><trkpt lat="43.96520304140015" lon="8.135686777225294"><ele>13.0</ele><time>2026-04-18T08:41:49Z</time></trkpt><trkpt lat="43.96533608700956" lon="8.135670228202004"><ele>14.0</ele><time>2026-04-18T08:41:50Z</time></trkpt><trkpt lat="43.965467596322625" lon="8.135671338551713"><ele>15.0</ele><time>2026-04-18T08:41:51Z</time></trkpt><trkpt lat="43.965597676901695" lon="8.1356572650917"><ele>16.0</ele><time>2026-04-18T08:41:52Z</time></trkpt><trkpt lat="43.965730491372994" lon="8.135639951402084"><ele>17.0</ele><time>2026-04-18T08:41:53Z</time></trkpt><trkpt lat="43.96586031389072" lon="8.135620919437129"><ele>17.0</ele><time>2026-04-18T08:41:54Z</time></trkpt><trkpt lat="43.96599200538324" lon="8.13559989555701"><ele>17.0</ele><time>2026-04-18T08:41:55Z</time></trkpt><trkpt lat="43.9661261943777" lon="8.135582419295286"><ele>17.0</ele><time>2026-04-18T08:41:56Z</time></trkpt><trkpt lat="43.96624342732234" lon="8.135568073561156"><ele>17.0</ele><time>2026-04-18T08:41:57Z</time></trkpt><trkpt lat="43.96635369852192" lon="8.135554280050739"><ele>17.0</ele><time>2026-04-18T08:41:58Z</time></trkpt><trkpt lat="43.966457955685435" lon="8.135540448402457"><ele>17.0</ele><time>2026-04-18T08:41:59Z</time></trkpt><trkpt lat="43.966563594341004" lon="8.135510608996189"><ele>17.0</ele><time>2026-04-18T08:42:00Z</time></trkpt><trkpt lat="43.966667449910766" lon="8.1354640245963"><ele>17.0</ele><time>2026-04-18T08:42:01Z</time></trkpt><trkpt lat="43.96677511877613" lon="8.13539875337894"><ele>17.0</ele><time>2026-04-18T08:42:02Z</time></trkpt><trkpt lat="43.966884355915454" lon="8.13532872388294"><ele>17.0</ele><time>2026-04-18T08:42:03Z</time></trkpt><trkpt lat="43.96699377278389" lon="8.135260840620637"><ele>17.0</ele><time>2026-04-18T08:42:04Z</time></trkpt><trkpt lat="43.967096313921665" lon="8.13520076676642"><ele>17.0</ele><time>2026-04-18T08:42:05Z</time></trkpt><trkpt lat="43.96719412392168" lon="8.135140466053686"><ele>17.0</ele><time>2026-04-18T08:42:06Z</time></trkpt><trkpt lat="43.967284829127316" lon="8.135085368760862"><ele>17.0</ele><time>2026-04-18T08:42:07Z</time></trkpt><trkpt lat="43.96737379469788" lon="8.135030855866535"><ele>17.0</ele><time>2026-04-18T08:42:08Z</time></trkpt><trkpt lat="43.96746203639418" lon="8.134985487004496"><ele>17.0</ele><time>2026-04-18T08:42:09Z</time></trkpt><trkpt lat="43.96755378639955" lon="8.13495623735022"><ele>17.0</ele><time>2026-04-18T08:42:10Z</time></trkpt><trkpt lat="43.96764998669479" lon="8.134944886935308"><ele>17.0</ele><time>2026-04-18T08:42:11Z</time></trkpt><trkpt lat="43.96774506185837" lon="8.134960309412042"><ele>17.0</ele><time>2026-04-18T08:42:12Z</time></trkpt><trkpt lat="43.96784108636701" lon="8.134997620262716"><ele>16.8</ele><time>2026-04-18T08:42:13Z</time></trkpt><trkpt lat="43.967942678380986" lon="8.135037323135203"><ele>16.6</ele><time>2026-04-18T08:42:14Z</time></trkpt><trkpt lat="43.9680443959646" lon="8.135084229164944"><ele>16.400000000000002</ele><time>2026-04-18T08:42:15Z</time></trkpt><trkpt lat="43.9681542517088" lon="8.135124234222587"><ele>16.2</ele><time>2026-04-18T08:42:16Z</time></trkpt><trkpt lat="43.96826963459528" lon="8.13514735488854"><ele>16.0</ele><time>2026-04-18T08:42:17Z</time></trkpt><trkpt lat="43.968384975185366" lon="8.135124214100749"><ele>15.5</ele><time>2026-04-18T08:42:18Z</time></trkpt><trkpt lat="43.96850715525128" lon="8.13505719401859"><ele>15.0</ele><time>2026-04-18T08:42:19Z</time></trkpt><trkpt lat="43.96862544970368" lon="8.134967829516993"><ele>14.5</ele><time>2026-04-18T08:42:20Z</time></trkpt><trkpt lat="43.968749158946146" lon="8.134868847901155"><ele>14.0</ele><time>2026-04-18T08:42:21Z</time></trkpt><trkpt lat="43.96887570865583" lon="8.134768655723034"><ele>14.333333333333334</ele><time>2026-04-18T08:42:22Z</time></trkpt><trkpt lat="43.96901129040062" lon="8.134679482928984"><ele>14.666666666666668</ele><time>2026-04-18T08:42:23Z</time></trkpt><trkpt lat="43.969156141331766" lon="8.134584826486057"><ele>15.0</ele><time>2026-04-18T08:42:24Z</time></trkpt><trkpt lat="43.96931133593617" lon="8.13451087245876"><ele>15.0</ele><time>2026-04-18T08:42:25Z</time></trkpt><trkpt lat="43.969470005421854" lon="8.134434766521982"><ele>15.0</ele><time>2026-04-18T08:42:26Z</time></trkpt><trkpt lat="43.9696312350005" lon="8.134357602451615"><ele>15.0</ele><time>2026-04-18T08:42:27Z</time></trkpt><trkpt lat="43.969784191060796" lon="8.134290237039885"><ele>15.0</ele><time>2026-04-18T08:42:28Z</time></trkpt><trkpt lat="43.96993116054778" lon="8.134221824036256"><ele>15.0</ele><time>2026-04-18T08:42:29Z</time></trkpt><trkpt lat="43.970074033426165" lon="8.134159016788525"><ele>15.0</ele><time>2026-04-18T08:42:30Z</time></trkpt><trkpt lat="43.97020621774239" lon="8.134100754068173"><ele>15.0</ele><time>2026-04-18T08:42:31Z</time></trkpt><trkpt lat="43.97033291831792" lon="8.134045212040636"><ele>15.5</ele><time>2026-04-18T08:42:32Z</time></trkpt><trkpt lat="43.97046675317654" lon="8.133981262327952"><ele>16.0</ele><time>2026-04-18T08:42:33Z</time></trkpt><trkpt lat="43.97060861101175" lon="8.13393845581378"><ele>16.5</ele><time>2026-04-18T08:42:34Z</time></trkpt><trkpt lat="43.97074483001" lon="8.13389772141984"><ele>17.0</ele><time>2026-04-18T08:42:35Z</time></trkpt><trkpt lat="43.97091566106425" lon="8.133914270583114"><ele>17.0</ele><time>2026-04-18T08:42:36Z</time></trkpt><trkpt lat="43.97108835308562" lon="8.133946816484302"><ele>17.0</ele><time>2026-04-18T08:42:37Z</time></trkpt><trkpt lat="43.971258047798486" lon="8.133994162691442"><ele>17.0</ele><time>2026-04-18T08:42:38Z</time></trkpt><trkpt lat="43.971406103372445" lon="8.13403157992756"><ele>17.0</ele><time>2026-04-18T08:42:39Z</time></trkpt><trkpt lat="43.971554804266816" lon="8.134065495410903"><ele>17.0</ele><time>2026-04-18T08:42:40Z</time></trkpt><trkpt lat="43.97170479164655" lon="8.134103319244606"><ele>17.0</ele><time>2026-04-18T08:42:41Z</time></trkpt><trkpt lat="43.97185614662186" lon="8.13413936126378"><ele>17.25</ele><time>2026-04-18T08:42:42Z</time></trkpt><trkpt lat="43.972002161641676" lon="8.134175086988416"><ele>17.5</ele><time>2026-04-18T08:42:43Z</time></trkpt><trkpt lat="43.97214610990049" lon="8.134211013755607"><ele>17.75</ele><time>2026-04-18T08:42:44Z</time></trkpt><trkpt lat="43.97229335754416" lon="8.134250339351903"><ele>18.0</ele><time>2026-04-18T08:42:45Z</time></trkpt><trkpt lat="43.9724334885923" lon="8.134282198262877"><ele>17.75</ele><time>2026-04-18T08:42:46Z</time></trkpt><trkpt lat="43.97256595909844" lon="8.134299273314188"><ele>17.5</ele><time>2026-04-18T08:42:47Z</time></trkpt><trkpt lat="43.97269303340153" lon="8.134301107984609"><ele>17.25</ele><time>2026-04-18T08:42:48Z</time></trkpt><trkpt lat="43.97282439820265" lon="8.134287746017572"><ele>17.0</ele><time>2026-04-18T08:42:49Z</time></trkpt><trkpt lat="43.9729603354326" lon="8.134254058748391"><ele>17.0</ele><time>2026-04-18T08:42:50Z</time></trkpt><trkpt lat="43.97309701687499" lon="8.134210653101714"><ele>17.0</ele><time>2026-04-18T08:42:51Z</time></trkpt><trkpt lat="43.97323308140347" lon="8.134148022207295"><ele>17.0</ele><time>2026-04-18T08:42:52Z</time></trkpt><trkpt lat="43.97336925570302" lon="8.134075849045118"><ele>17.0</ele><time>2026-04-18T08:42:53Z</time></trkpt><trkpt lat="43.973504138123765" lon="8.133987912013106"><ele>17.0</ele><time>2026-04-18T08:42:54Z</time></trkpt><trkpt lat="43.97364016494009" lon="8.133894115189875"><ele>17.0</ele><time>2026-04-18T08:42:55Z</time></trkpt><trkpt lat="43.97377975257194" lon="8.133795424388598"><ele>17.0</ele><time>2026-04-18T08:42:56Z</time></trkpt><trkpt lat="43.9739148264225" lon="8.133702820614587"><ele>17.0</ele><time>2026-04-18T08:42:57Z</time></trkpt><trkpt lat="43.97404549946735" lon="8.133618372463491"><ele>17.0</ele><time>2026-04-18T08:42:58Z</time></trkpt><trkpt lat="43.97418021839738" lon="8.133527508181311"><ele>17.0</ele><time>2026-04-18T08:42:59Z</time></trkpt><trkpt lat="43.97431332764431" lon="8.13343262925056"><ele>17.0</ele><time>2026-04-18T08:43:00Z</time></trkpt><trkpt lat="43.97444858983288" lon="8.13333868178569"><ele>17.0</ele><time>2026-04-18T08:43:01Z</time></trkpt><trkpt lat="43.974587287289175" lon="8.133244659496771"><ele>17.0</ele><time>2026-04-18T08:43:02Z</time></trkpt><trkpt lat="43.97472944133122" lon="8.133145973869281"><ele>17.0</ele><time>2026-04-18T08:43:03Z</time></trkpt><trkpt lat="43.97487754681163" lon="8.133041332486693"><ele>18.0</ele><time>2026-04-18T08:43:04Z</time></trkpt><trkpt lat="43.975023817523756" lon="8.132925250503964"><ele>19.0</ele><time>2026-04-18T08:43:05Z</time></trkpt><trkpt lat="43.97517703799612" lon="8.132822750461465"><ele>20.0</ele><time>2026-04-18T08:43:06Z</time></trkpt><trkpt lat="43.97531940125479" lon="8.132728302007715"><ele>20.0</ele><time>2026-04-18T08:43:07Z</time></trkpt><trkpt lat="43.975453728362304" lon="8.132635277716005"><ele>20.0</ele><time>2026-04-18T08:43:08Z</time></trkpt><trkpt lat="43.975582204866434" lon="8.132545310989538"><ele>20.0</ele><time>2026-04-18T08:43:09Z</time></trkpt><trkpt lat="43.97570880536398" lon="8.132460238831563"><ele>20.0</ele><time>2026-04-18T08:43:10Z</time></trkpt><trkpt lat="43.97583792091547" lon="8.132398806482101"><ele>20.5</ele><time>2026-04-18T08:43:11Z</time></trkpt><trkpt lat="43.97593942420395" lon="8.132296787745082"><ele>21.0</ele><time>2026-04-18T08:43:12Z</time></trkpt><trkpt lat="43.97604273615779" lon="8.1322315994872"><ele>21.5</ele><time>2026-04-18T08:43:13Z</time></trkpt><trkpt lat="43.97614623937025" lon="8.13215564871643"><ele>22.0</ele><time>2026-04-18T08:43:14Z</time></trkpt><trkpt lat="43.97626934872963" lon="8.13209069337687"><ele>22.0</ele><time>2026-04-18T08:43:15Z</time></trkpt><trkpt lat="43.976342364812545" lon="8.132033768284744"><ele>22.0</ele><time>2026-04-18T08:43:16Z</time></trkpt><trkpt lat="43.97642249281695" lon="8.13203565355692"><ele>22.0</ele><time>2026-04-18T08:43:17Z</time></trkpt><trkpt lat="43.97649224649508" lon="8.132030541400907"><ele>22.0</ele><time>2026-04-18T08:43:18Z</time></trkpt><trkpt lat="43.97656047276741" lon="8.13202780888234"><ele>22.0</ele><time>2026-04-18T08:43:19Z</time></trkpt><trkpt lat="43.97663167340228" lon="8.1320237164343"><ele>22.0</ele><time>2026-04-18T08:43:20Z</time></trkpt><trkpt lat="43.97670208330806" lon="8.132019669437668"><ele>22.0</ele><time>2026-04-18T08:43:21Z</time></trkpt><trkpt lat="43.97677794017202" lon="8.132015309360174"><ele>22.200000000000003</ele><time>2026-04-18T08:43:22Z</time></trkpt><trkpt lat="43.97685139461768" lon="8.132011087369207"><ele>22.4</ele><time>2026-04-18T08:43:23Z</time></trkpt><trkpt lat="43.976940606975724" lon="8.132005959648497"><ele>22.6</ele><time>2026-04-18T08:43:24Z</time></trkpt><trkpt lat="43.97701976766032" lon="8.132001491267001"><ele>22.799999999999997</ele><time>2026-04-18T08:43:25Z</time></trkpt><trkpt lat="43.97712446877979" lon="8.131981156757464"><ele>23.0</ele><time>2026-04-18T08:43:27Z</time></trkpt><trkpt lat="43.97724127949862" lon="8.131972206552128"><ele>23.0</ele><time>2026-04-18T08:43:29Z</time></trkpt><trkpt lat="43.977321127309075" lon="8.131965816273532"><ele>23.0</ele><time>2026-04-18T08:43:30Z</time></trkpt><trkpt lat="43.97739830004847" lon="8.131965251461782"><ele>23.0</ele><time>2026-04-18T08:43:31Z</time></trkpt><trkpt lat="43.97752426059603" lon="8.131955863101265"><ele>23.0</ele><time>2026-04-18T08:43:32Z</time></trkpt><trkpt lat="43.97765352664704" lon="8.131949355454143"><ele>23.0</ele><time>2026-04-18T08:43:33Z</time></trkpt><trkpt lat="43.97779977073965" lon="8.131944384483228"><ele>23.0</ele><time>2026-04-18T08:43:34Z</time></trkpt><trkpt lat="43.97794039981782" lon="8.131952600047358"><ele>23.0</ele><time>2026-04-18T08:43:35Z</time></trkpt><trkpt lat="43.978091635611655" lon="8.131921440364499"><ele>23.0</ele><time>2026-04-18T08:43:36Z</time></trkpt><trkpt lat="43.97825724932318" lon="8.131924560449702"><ele>22.666666666666668</ele><time>2026-04-18T08:43:37Z</time></trkpt><trkpt lat="43.9784442207848" lon="8.131903362086808"><ele>22.333333333333332</ele><time>2026-04-18T08:43:38Z</time></trkpt><trkpt lat="43.978619010830435" lon="8.131901988485962"><ele>22.0</ele><time>2026-04-18T08:43:39Z</time></trkpt><trkpt lat="43.978793861321016" lon="8.131885623950868"><ele>22.0</ele><time>2026-04-18T08:43:40Z</time></trkpt><trkpt lat="43.97897301343121" lon="8.13187313275476"><ele>22.0</ele><time>2026-04-18T08:43:41Z</time></trkpt><trkpt lat="43.97913644851098" lon="8.131875659023049"><ele>22.0</ele><time>2026-04-18T08:43:42Z</time></trkpt><trkpt lat="43.979314618419345" lon="8.131854998573951"><ele>22.666666666666664</ele><time>2026-04-18T08:43:43Z</time></trkpt><trkpt lat="43.97949000736693" lon="8.131842740083451"><ele>23.333333333333332</ele><time>2026-04-18T08:43:44Z</time></trkpt><trkpt lat="43.97965161807081" lon="8.131830329178966"><ele>24.0</ele><time>2026-04-18T08:43:45Z</time></trkpt><trkpt lat="43.97980878395848" lon="8.131841483161423"><ele>24.0</ele><time>2026-04-18T08:43:46Z</time></trkpt><trkpt lat="43.97995487403383" lon="8.131819114759825"><ele>24.0</ele><time>2026-04-18T08:43:47Z</time></trkpt><trkpt lat="43.98010370913696" lon="8.131847171843141"><ele>24.0</ele><time>2026-04-18T08:43:48Z</time></trkpt><trkpt lat="43.98025490771153" lon="8.131919131076414"><ele>24.25</ele><time>2026-04-18T08:43:49Z</time></trkpt><trkpt lat="43.98040518634705" lon="8.131975829985409"><ele>24.5</ele><time>2026-04-18T08:43:50Z</time></trkpt><trkpt lat="43.98053889103105" lon="8.132002655716049"><ele>24.75</ele><time>2026-04-18T08:43:51Z</time></trkpt><trkpt lat="43.98066417918759" lon="8.132055534880095"><ele>25.0</ele><time>2026-04-18T08:43:52Z</time></trkpt><trkpt lat="43.98077307405132" lon="8.132092977991642"><ele>25.8</ele><time>2026-04-18T08:43:53Z</time></trkpt><trkpt lat="43.980870902259134" lon="8.132129898985102"><ele>26.6</ele><time>2026-04-18T08:43:54Z</time></trkpt><trkpt lat="43.98095843648387" lon="8.132179724955437"><ele>27.4</ele><time>2026-04-18T08:43:55Z</time></trkpt><trkpt lat="43.98104420075674" lon="8.13222617234208"><ele>28.2</ele><time>2026-04-18T08:43:56Z</time></trkpt><trkpt lat="43.98112533128247" lon="8.13226840304382"><ele>29.0</ele><time>2026-04-18T08:43:57Z</time></trkpt><trkpt lat="43.98122617212756" lon="8.132191945990312"><ele>28.999999999999996</ele><time>2026-04-18T08:43:58Z</time></trkpt><trkpt lat="43.981301460217104" lon="8.132126457091063"><ele>29.0</ele><time>2026-04-18T08:43:59Z</time></trkpt><trkpt lat="43.98137175002844" lon="8.132056342743017"><ele>29.0</ele><time>2026-04-18T08:44:00Z</time></trkpt><trkpt lat="43.981430465430485" lon="8.132010332104963"><ele>29.0</ele><time>2026-04-18T08:44:01Z</time></trkpt><trkpt lat="43.98149302187395" lon="8.131972461218083"><ele>28.999999999999996</ele><time>2026-04-18T08:44:02Z</time></trkpt><trkpt lat="43.981558653318494" lon="8.131918976273694"><ele>29.0</ele><time>2026-04-18T08:44:03Z</time></trkpt><trkpt lat="43.981633958491024" lon="8.131855354039656"><ele>29.0</ele><time>2026-04-18T08:44:04Z</time></trkpt><trkpt lat="43.98171080063044" lon="8.131776615763536"><ele>29.0</ele><time>2026-04-18T08:44:05Z</time></trkpt><trkpt lat="43.98177614183247" lon="8.131703274779374"><ele>29.0</ele><time>2026-04-18T08:44:06Z</time></trkpt><trkpt lat="43.98185674443757" lon="8.131630444477368"><ele>29.0</ele><time>2026-04-18T08:44:07Z</time></trkpt><trkpt lat="43.981952781728424" lon="8.1316050897862"><ele>29.0</ele><time>2026-04-18T08:44:08Z</time></trkpt><trkpt lat="43.98202505796474" lon="8.131537801592186"><ele>28.999999999999996</ele><time>2026-04-18T08:44:09Z</time></trkpt><trkpt lat="43.98209549515719" lon="8.131508705942665"><ele>29.0</ele><time>2026-04-18T08:44:10Z</time></trkpt><trkpt lat="43.98215282979794" lon="8.131462983245314"><ele>29.0</ele><time>2026-04-18T08:44:11Z</time></trkpt><trkpt lat="43.98226378684517" lon="8.131369837989407"><ele>29.0</ele><time>2026-04-18T08:44:13Z</time></trkpt><trkpt lat="43.982332616196416" lon="8.131306050321509"><ele>28.999999999999996</ele><time>2026-04-18T08:44:14Z</time></trkpt><trkpt lat="43.98240493912761" lon="8.13122935223446"><ele>29.0</ele><time>2026-04-18T08:44:15Z</time></trkpt><trkpt lat="43.982472478188555" lon="8.131154354703037"><ele>28.799999999999997</ele><time>2026-04-18T08:44:16Z</time></trkpt><trkpt lat="43.98253324783502" lon="8.131079431675172"><ele>28.599999999999998</ele><time>2026-04-18T08:44:17Z</time></trkpt><trkpt lat="43.98258902810384" lon="8.131018954383237"><ele>28.4</ele><time>2026-04-18T08:44:18Z</time></trkpt><trkpt lat="43.98268141388527" lon="8.130933807921497"><ele>28.2</ele><time>2026-04-18T08:44:20Z</time></trkpt><trkpt lat="43.98279494262658" lon="8.130832798426296"><ele>28.0</ele><time>2026-04-18T08:44:22Z</time></trkpt><trkpt lat="43.98286680834278" lon="8.130771157171656"><ele>28.2</ele><time>2026-04-18T08:44:23Z</time></trkpt><trkpt lat="43.98294881214466" lon="8.130699975983136"><ele>28.4</ele><time>2026-04-18T08:44:24Z</time></trkpt><trkpt lat="43.98302751291292" lon="8.130656979475205"><ele>28.599999999999998</ele><time>2026-04-18T08:44:25Z</time></trkpt><trkpt lat="43.983130615994114" lon="8.130582470493419"><ele>28.799999999999997</ele><time>2026-04-18T08:44:26Z</time></trkpt><trkpt lat="43.98321848801873" lon="8.130520222370874"><ele>29.0</ele><time>2026-04-18T08:44:27Z</time></trkpt><trkpt lat="43.98329413844629" lon="8.130468227331038"><ele>29.0</ele><time>2026-04-18T08:44:28Z</time></trkpt><trkpt lat="43.98338202348276" lon="8.130440064506432"><ele>29.0</ele><time>2026-04-18T08:44:29Z</time></trkpt><trkpt lat="43.98346774241751" lon="8.130436371906038"><ele>29.0</ele><time>2026-04-18T08:44:30Z</time></trkpt><trkpt lat="43.98356001251676" lon="8.130433826651561"><ele>29.0</ele><time>2026-04-18T08:44:31Z</time></trkpt><trkpt lat="43.98367671866761" lon="8.130487656277433"><ele>29.0</ele><time>2026-04-18T08:44:32Z</time></trkpt><trkpt lat="43.9838081033797" lon="8.130527875378322"><ele>29.0</ele><time>2026-04-18T08:44:33Z</time></trkpt><trkpt lat="43.98394424421232" lon="8.130566181184818"><ele>29.0</ele><time>2026-04-18T08:44:34Z</time></trkpt><trkpt lat="43.984068285741614" lon="8.130601426460913"><ele>29.0</ele><time>2026-04-18T08:44:35Z</time></trkpt><trkpt lat="43.98419291658678" lon="8.13063955124997"><ele>29.0</ele><time>2026-04-18T08:44:36Z</time></trkpt><trkpt lat="43.984302753018625" lon="8.130674604039735"><ele>29.4</ele><time>2026-04-18T08:44:37Z</time></trkpt><trkpt lat="43.98439385179684" lon="8.130694931114787"><ele>29.799999999999997</ele><time>2026-04-18T08:44:38Z</time></trkpt><trkpt lat="43.98452671851293" lon="8.130770931769149"><ele>30.200000000000003</ele><time>2026-04-18T08:44:40Z</time></trkpt><trkpt lat="43.98456539776653" lon="8.130842658933089"><ele>30.6</ele><time>2026-04-18T08:44:41Z</time></trkpt><trkpt lat="43.9845942296535" lon="8.130945222151961"><ele>31.0</ele><time>2026-04-18T08:44:42Z</time></trkpt><trkpt lat="43.98464749025196" lon="8.131018496080843"><ele>31.000000000000004</ele><time>2026-04-18T08:44:43Z</time></trkpt><trkpt lat="43.984716639316694" lon="8.131034618995303"><ele>31.0</ele><time>2026-04-18T08:44:44Z</time></trkpt><trkpt lat="43.984788249907076" lon="8.131012485665279"><ele>31.0</ele><time>2026-04-18T08:44:45Z</time></trkpt><trkpt lat="43.984844654591825" lon="8.130935250409925"><ele>31.0</ele><time>2026-04-18T08:44:46Z</time></trkpt><trkpt lat="43.98484469139002" lon="8.13079619476854"><ele>31.000000000000004</ele><time>2026-04-18T08:44:47Z</time></trkpt><trkpt lat="43.98485005307078" lon="8.130669133759186"><ele>31.0</ele><time>2026-04-18T08:44:48Z</time></trkpt><trkpt lat="43.98488710764671" lon="8.130532181357134"><ele>31.0</ele><time>2026-04-18T08:44:49Z</time></trkpt><trkpt lat="43.984964976722715" lon="8.130396027858161"><ele>31.0</ele><time>2026-04-18T08:44:50Z</time></trkpt><trkpt lat="43.98505854256228" lon="8.130260039770617"><ele>31.0</ele><time>2026-04-18T08:44:51Z</time></trkpt><trkpt lat="43.98515954999786" lon="8.130104518385606"><ele>31.0</ele><time>2026-04-18T08:44:52Z</time></trkpt><trkpt lat="43.98525623052718" lon="8.129934829524526"><ele>31.0</ele><time>2026-04-18T08:44:53Z</time></trkpt><trkpt lat="43.985353432606935" lon="8.129768335633527"><ele>31.0</ele><time>2026-04-18T08:44:54Z</time></trkpt><trkpt lat="43.98546084170637" lon="8.129597034227295"><ele>31.0</ele><time>2026-04-18T08:44:55Z</time></trkpt><trkpt lat="43.98556181521003" lon="8.12942681067268"><ele>31.0</ele><time>2026-04-18T08:44:56Z</time></trkpt><trkpt lat="43.98566355720672" lon="8.129254206841148"><ele>31.0</ele><time>2026-04-18T08:44:57Z</time></trkpt><trkpt lat="43.98575633539947" lon="8.129077937694737"><ele>31.0</ele><time>2026-04-18T08:44:58Z</time></trkpt><trkpt lat="43.98585426307034" lon="8.128902502713675"><ele>32.66666666666667</ele><time>2026-04-18T08:44:59Z</time></trkpt><trkpt lat="43.98592187658266" lon="8.128701574440486"><ele>34.333333333333336</ele><time>2026-04-18T08:45:00Z</time></trkpt><trkpt lat="43.98595518741146" lon="8.128487391900112"><ele>36.0</ele><time>2026-04-18T08:45:01Z</time></trkpt><trkpt lat="43.985991066156004" lon="8.128267459981897"><ele>35.666666666666664</ele><time>2026-04-18T08:45:02Z</time></trkpt><trkpt lat="43.986025780949326" lon="8.128047172410097"><ele>35.33333333333333</ele><time>2026-04-18T08:45:03Z</time></trkpt><trkpt lat="43.98606272770762" lon="8.127821036400695"><ele>35.0</ele><time>2026-04-18T08:45:04Z</time></trkpt><trkpt lat="43.986104491975254" lon="8.127594447943341"><ele>35.33333333333333</ele><time>2026-04-18T08:45:05Z</time></trkpt><trkpt lat="43.98614712448582" lon="8.12737130101662"><ele>35.666666666666664</ele><time>2026-04-18T08:45:06Z</time></trkpt><trkpt lat="43.98619268290089" lon="8.127144031539848"><ele>36.0</ele><time>2026-04-18T08:45:07Z</time></trkpt><trkpt lat="43.98623800169227" lon="8.126925259758359"><ele>36.0</ele><time>2026-04-18T08:45:08Z</time></trkpt><trkpt lat="43.98627865586936" lon="8.12670107294424"><ele>36.0</ele><time>2026-04-18T08:45:09Z</time></trkpt><trkpt lat="43.986309485222286" lon="8.126474068761137"><ele>36.0</ele><time>2026-04-18T08:45:10Z</time></trkpt><trkpt lat="43.98632880464919" lon="8.1262439160855"><ele>35.666666666666664</ele><time>2026-04-18T08:45:11Z</time></trkpt><trkpt lat="43.98633773895281" lon="8.126016191757156"><ele>35.33333333333333</ele><time>2026-04-18T08:45:12Z</time></trkpt><trkpt lat="43.98634026186098" lon="8.125797965698444"><ele>35.0</ele><time>2026-04-18T08:45:13Z</time></trkpt><trkpt lat="43.98633122220174" lon="8.12558435732076"><ele>35.0</ele><time>2026-04-18T08:45:14Z</time></trkpt><trkpt lat="43.9863245367319" lon="8.125385810888819"><ele>35.0</ele><time>2026-04-18T08:45:15Z</time></trkpt><trkpt lat="43.986342669494505" lon="8.125201381462883"><ele>35.0</ele><time>2026-04-18T08:45:16Z</time></trkpt><trkpt lat="43.98637344504951" lon="8.125013547641915"><ele>35.0</ele><time>2026-04-18T08:45:17Z</time></trkpt><trkpt lat="43.986417208570664" lon="8.124826515154663"><ele>35.33333333333333</ele><time>2026-04-18T08:45:18Z</time></trkpt><trkpt lat="43.98650671955995" lon="8.124655970094643"><ele>35.666666666666664</ele><time>2026-04-18T08:45:19Z</time></trkpt><trkpt lat="43.98663616921174" lon="8.124515780653626"><ele>36.0</ele><time>2026-04-18T08:45:20Z</time></trkpt><trkpt lat="43.98676338892935" lon="8.124330733254503"><ele>36.666666666666664</ele><time>2026-04-18T08:45:21Z</time></trkpt><trkpt lat="43.9869006989336" lon="8.124167559928331"><ele>37.33333333333333</ele><time>2026-04-18T08:45:22Z</time></trkpt><trkpt lat="43.987042510738675" lon="8.123989813763044"><ele>38.0</ele><time>2026-04-18T08:45:23Z</time></trkpt><trkpt lat="43.98718861536289" lon="8.12380235912145"><ele>38.0</ele><time>2026-04-18T08:45:24Z</time></trkpt><trkpt lat="43.98733400934933" lon="8.123622734994573"><ele>38.0</ele><time>2026-04-18T08:45:25Z</time></trkpt><trkpt lat="43.987471441860336" lon="8.123449094062588"><ele>38.0</ele><time>2026-04-18T08:45:26Z</time></trkpt><trkpt lat="43.98760217853359" lon="8.123283967858905"><ele>37.666666666666664</ele><time>2026-04-18T08:45:27Z</time></trkpt><trkpt lat="43.98774672538355" lon="8.123129165875817"><ele>37.333333333333336</ele><time>2026-04-18T08:45:28Z</time></trkpt><trkpt lat="43.98787613816709" lon="8.122994899780572"><ele>37.0</ele><time>2026-04-18T08:45:29Z</time></trkpt><trkpt lat="43.988012738532944" lon="8.122897106165476"><ele>37.0</ele><time>2026-04-18T08:45:30Z</time></trkpt><trkpt lat="43.98816264919872" lon="8.122856059644477"><ele>37.0</ele><time>2026-04-18T08:45:31Z</time></trkpt><trkpt lat="43.98833150249486" lon="8.122843328275632"><ele>37.0</ele><time>2026-04-18T08:45:32Z</time></trkpt><trkpt lat="43.988517613479544" lon="8.122820603964598"><ele>37.0</ele><time>2026-04-18T08:45:33Z</time></trkpt><trkpt lat="43.98870989146856" lon="8.122812102951928"><ele>37.0</ele><time>2026-04-18T08:45:34Z</time></trkpt><trkpt lat="43.98890666833859" lon="8.12279190107754"><ele>37.0</ele><time>2026-04-18T08:45:35Z</time></trkpt><trkpt lat="43.98909413982447" lon="8.12278068470056"><ele>38.333333333333336</ele><time>2026-04-18T08:45:36Z</time></trkpt><trkpt lat="43.9892725136797" lon="8.122762599109086"><ele>39.666666666666664</ele><time>2026-04-18T08:45:37Z</time></trkpt><trkpt lat="43.98945773803774" lon="8.122725610561089"><ele>41.0</ele><time>2026-04-18T08:45:38Z</time></trkpt><trkpt lat="43.98963724494461" lon="8.122659713190348"><ele>41.0</ele><time>2026-04-18T08:45:39Z</time></trkpt><trkpt lat="43.98982428348963" lon="8.122575444991014"><ele>41.0</ele><time>2026-04-18T08:45:40Z</time></trkpt><trkpt lat="43.98999688675073" lon="8.12248730858027"><ele>41.0</ele><time>2026-04-18T08:45:41Z</time></trkpt><trkpt lat="43.990161846677694" lon="8.122401119577793"><ele>40.75</ele><time>2026-04-18T08:45:42Z</time></trkpt><trkpt lat="43.99030965816633" lon="8.122323828685262"><ele>40.5</ele><time>2026-04-18T08:45:43Z</time></trkpt><trkpt lat="43.99044772925542" lon="8.12225617984079"><ele>40.25</ele><time>2026-04-18T08:45:44Z</time></trkpt><trkpt lat="43.990570646552015" lon="8.122198334410458"><ele>40.0</ele><time>2026-04-18T08:45:45Z</time></trkpt><trkpt lat="43.990685099274806" lon="8.12214214874512"><ele>40.0</ele><time>2026-04-18T08:45:46Z</time></trkpt><trkpt lat="43.99079209776303" lon="8.122078763546282"><ele>40.0</ele><time>2026-04-18T08:45:47Z</time></trkpt><trkpt lat="43.990892636970194" lon="8.122014307779915"><ele>40.0</ele><time>2026-04-18T08:45:48Z</time></trkpt><trkpt lat="43.99099035572808" lon="8.121946955129111"><ele>40.0</ele><time>2026-04-18T08:45:49Z</time></trkpt><trkpt lat="43.99107699927894" lon="8.12189473365285"><ele>40.0</ele><time>2026-04-18T08:45:50Z</time></trkpt><trkpt lat="43.99116781905928" lon="8.121836859035595"><ele>40.25</ele><time>2026-04-18T08:45:51Z</time></trkpt><trkpt lat="43.991268259376476" lon="8.121768200279037"><ele>40.5</ele><time>2026-04-18T08:45:52Z</time></trkpt><trkpt lat="43.99137833735946" lon="8.121721548348528"><ele>40.75</ele><time>2026-04-18T08:45:53Z</time></trkpt><trkpt lat="43.99148712320298" lon="8.121649058772814"><ele>41.0</ele><time>2026-04-18T08:45:54Z</time></trkpt><trkpt lat="43.99161154668688" lon="8.121563691054098"><ele>41.75</ele><time>2026-04-18T08:45:55Z</time></trkpt><trkpt lat="43.99172556629946" lon="8.121452346085789"><ele>42.5</ele><time>2026-04-18T08:45:56Z</time></trkpt><trkpt lat="43.99184085194496" lon="8.121344654539033"><ele>43.25</ele><time>2026-04-18T08:45:57Z</time></trkpt><trkpt lat="43.99196640106228" lon="8.121202561535181"><ele>44.0</ele><time>2026-04-18T08:45:58Z</time></trkpt><trkpt lat="43.99208366373465" lon="8.121054875024214"><ele>44.0</ele><time>2026-04-18T08:45:59Z</time></trkpt><trkpt lat="43.992202766181684" lon="8.12090597381846"><ele>44.0</ele><time>2026-04-18T08:46:00Z</time></trkpt><trkpt lat="43.99231258248414" lon="8.120770025387301"><ele>44.0</ele><time>2026-04-18T08:46:01Z</time></trkpt><trkpt lat="43.99241135169388" lon="8.120649800104509"><ele>44.0</ele><time>2026-04-18T08:46:02Z</time></trkpt><trkpt lat="43.992506264790656" lon="8.120536815920342"><ele>45.0</ele><time>2026-04-18T08:46:03Z</time></trkpt><trkpt lat="43.99259951390535" lon="8.12042892713387"><ele>46.0</ele><time>2026-04-18T08:46:04Z</time></trkpt><trkpt lat="43.992694356345396" lon="8.120322137222061"><ele>47.0</ele><time>2026-04-18T08:46:05Z</time></trkpt><trkpt lat="43.99279886057298" lon="8.120207557783475"><ele>48.0</ele><time>2026-04-18T08:46:06Z</time></trkpt><trkpt lat="43.99290471932279" lon="8.120079606367018"><ele>48.0</ele><time>2026-04-18T08:46:07Z</time></trkpt><trkpt lat="43.99300423787773" lon="8.119944123953246"><ele>48.0</ele><time>2026-04-18T08:46:08Z</time></trkpt><trkpt lat="43.99310113823344" lon="8.119792482433237"><ele>48.0</ele><time>2026-04-18T08:46:09Z</time></trkpt><trkpt lat="43.99318623960578" lon="8.119626372960463"><ele>48.0</ele><time>2026-04-18T08:46:10Z</time></trkpt><trkpt lat="43.99325828997835" lon="8.11944285984044"><ele>47.0</ele><time>2026-04-18T08:46:11Z</time></trkpt><trkpt lat="43.993322452536695" lon="8.119251717948474"><ele>46.0</ele><time>2026-04-18T08:46:12Z</time></trkpt><trkpt lat="43.99338778504741" lon="8.119053507525253"><ele>45.0</ele><time>2026-04-18T08:46:13Z</time></trkpt><trkpt lat="43.99345343856378" lon="8.118850033913626"><ele>47.0</ele><time>2026-04-18T08:46:14Z</time></trkpt><trkpt lat="43.99352026614906" lon="8.118643320782782"><ele>49.0</ele><time>2026-04-18T08:46:15Z</time></trkpt><trkpt lat="43.99358785498345" lon="8.118431760015781"><ele>51.0</ele><time>2026-04-18T08:46:16Z</time></trkpt><trkpt lat="43.99365371554134" lon="8.118211540089117"><ele>51.0</ele><time>2026-04-18T08:46:17Z</time></trkpt><trkpt lat="43.993719628154864" lon="8.117983530110177"><ele>51.0</ele><time>2026-04-18T08:46:18Z</time></trkpt><trkpt lat="43.99377697763859" lon="8.11774094415503"><ele>51.0</ele><time>2026-04-18T08:46:19Z</time></trkpt><trkpt lat="43.993828595229566" lon="8.117487506916932"><ele>50.33333333333333</ele><time>2026-04-18T08:46:20Z</time></trkpt><trkpt lat="43.99387737093977" lon="8.117226357104851"><ele>49.666666666666664</ele><time>2026-04-18T08:46:21Z</time></trkpt><trkpt lat="43.99392455581649" lon="8.116957695013495"><ele>49.0</ele><time>2026-04-18T08:46:22Z</time></trkpt><trkpt lat="43.9939706820197" lon="8.116690996991165"><ele>49.0</ele><time>2026-04-18T08:46:23Z</time></trkpt><trkpt lat="43.994015077668166" lon="8.116425488475178"><ele>49.0</ele><time>2026-04-18T08:46:24Z</time></trkpt><trkpt lat="43.99405983928437" lon="8.116179864170402"><ele>49.0</ele><time>2026-04-18T08:46:25Z</time></trkpt><trkpt lat="43.994114275241365" lon="8.115947465950825"><ele>51.0</ele><time>2026-04-18T08:46:26Z</time></trkpt><trkpt lat="43.99418245031271" lon="8.11573532340737"><ele>53.0</ele><time>2026-04-18T08:46:27Z</time></trkpt><trkpt lat="43.99426041127963" lon="8.115535283445949"><ele>55.0</ele><time>2026-04-18T08:46:28Z</time></trkpt><trkpt lat="43.99436709237866" lon="8.11537321397802"><ele>55.0</ele><time>2026-04-18T08:46:29Z</time></trkpt><trkpt lat="43.99450097140682" lon="8.115227690425707"><ele>55.0</ele><time>2026-04-18T08:46:30Z</time></trkpt><trkpt lat="43.994650224004616" lon="8.115094580236685"><ele>55.0</ele><time>2026-04-18T08:46:31Z</time></trkpt><trkpt lat="43.99480232727612" lon="8.11495643634468"><ele>54.33333333333333</ele><time>2026-04-18T08:46:32Z</time></trkpt><trkpt lat="43.994962162705605" lon="8.114811936633103"><ele>53.66666666666667</ele><time>2026-04-18T08:46:33Z</time></trkpt><trkpt lat="43.99511910433031" lon="8.114664702362356"><ele>53.0</ele><time>2026-04-18T08:46:34Z</time></trkpt><trkpt lat="43.99527864887565" lon="8.114516951556588"><ele>53.0</ele><time>2026-04-18T08:46:35Z</time></trkpt><trkpt lat="43.99543243074951" lon="8.114369381554457"><ele>53.0</ele><time>2026-04-18T08:46:36Z</time></trkpt><trkpt lat="43.99559116612224" lon="8.114214789263766"><ele>53.0</ele><time>2026-04-18T08:46:37Z</time></trkpt><trkpt lat="43.995748904199196" lon="8.11405692642595"><ele>54.0</ele><time>2026-04-18T08:46:38Z</time></trkpt><trkpt lat="43.99590479544954" lon="8.113906229946085"><ele>55.0</ele><time>2026-04-18T08:46:39Z</time></trkpt><trkpt lat="43.99605944055883" lon="8.113760198042892"><ele>56.0</ele><time>2026-04-18T08:46:40Z</time></trkpt><trkpt lat="43.996210057774" lon="8.113615359055554"><ele>56.0</ele><time>2026-04-18T08:46:41Z</time></trkpt><trkpt lat="43.99634951556887" lon="8.11345782241791"><ele>56.0</ele><time>2026-04-18T08:46:42Z</time></trkpt><trkpt lat="43.996473525258644" lon="8.113282236249747"><ele>56.0</ele><time>2026-04-18T08:46:43Z</time></trkpt><trkpt lat="43.9965985780935" lon="8.113100487611955"><ele>56.66666666666667</ele><time>2026-04-18T08:46:44Z</time></trkpt><trkpt lat="43.99673739120123" lon="8.112934510726056"><ele>57.33333333333333</ele><time>2026-04-18T08:46:45Z</time></trkpt><trkpt lat="43.99688728383254" lon="8.112785860032968"><ele>58.0</ele><time>2026-04-18T08:46:46Z</time></trkpt><trkpt lat="43.997043018695024" lon="8.112636487509937"><ele>58.0</ele><time>2026-04-18T08:46:47Z</time></trkpt><trkpt lat="43.9971989020891" lon="8.112478830096657"><ele>58.0</ele><time>2026-04-18T08:46:48Z</time></trkpt><trkpt lat="43.997359351141235" lon="8.112314083029787"><ele>58.0</ele><time>2026-04-18T08:46:49Z</time></trkpt><trkpt lat="43.99752100840162" lon="8.112146730289531"><ele>59.666666666666664</ele><time>2026-04-18T08:46:50Z</time></trkpt><trkpt lat="43.997680058038334" lon="8.11197786821651"><ele>61.33333333333333</ele><time>2026-04-18T08:46:51Z</time></trkpt><trkpt lat="43.99784388061644" lon="8.111806526153783"><ele>63.0</ele><time>2026-04-18T08:46:52Z</time></trkpt><trkpt lat="43.99800769331445" lon="8.111639924369173"><ele>62.66666666666667</ele><time>2026-04-18T08:46:53Z</time></trkpt><trkpt lat="43.9981639433467" lon="8.111465130849803"><ele>62.333333333333336</ele><time>2026-04-18T08:46:54Z</time></trkpt><trkpt lat="43.99831322303891" lon="8.11128360897183"><ele>62.0</ele><time>2026-04-18T08:46:55Z</time></trkpt><trkpt lat="43.99846261590595" lon="8.111099536704076"><ele>62.0</ele><time>2026-04-18T08:46:56Z</time></trkpt><trkpt lat="43.9986086611379" lon="8.110913128503345"><ele>62.0</ele><time>2026-04-18T08:46:57Z</time></trkpt><trkpt lat="43.99875580710457" lon="8.110732116652047"><ele>62.0</ele><time>2026-04-18T08:46:58Z</time></trkpt><trkpt lat="43.998897551798606" lon="8.110558302885345"><ele>61.0</ele><time>2026-04-18T08:46:59Z</time></trkpt><trkpt lat="43.999038725819915" lon="8.110390516830801"><ele>60.0</ele><time>2026-04-18T08:47:00Z</time></trkpt><trkpt lat="43.99917528264006" lon="8.110223230539269"><ele>59.0</ele><time>2026-04-18T08:47:01Z</time></trkpt><trkpt lat="43.999306761461526" lon="8.110047273721024"><ele>61.66666666666667</ele><time>2026-04-18T08:47:02Z</time></trkpt><trkpt lat="43.999427124460375" lon="8.10985334727494"><ele>64.33333333333333</ele><time>2026-04-18T08:47:03Z</time></trkpt><trkpt lat="43.99954193209803" lon="8.109640987300818"><ele>67.0</ele><time>2026-04-18T08:47:04Z</time></trkpt><trkpt lat="43.99964750916392" lon="8.109421417036767"><ele>67.0</ele><time>2026-04-18T08:47:05Z</time></trkpt><trkpt lat="43.99975516681646" lon="8.109196160236928"><ele>67.0</ele><time>2026-04-18T08:47:06Z</time></trkpt><trkpt lat="43.99985598504591" lon="8.108987356252717"><ele>67.0</ele><time>2026-04-18T08:47:07Z</time></trkpt><trkpt lat="43.99995756177109" lon="8.108770139595755"><ele>65.0</ele><time>2026-04-18T08:47:08Z</time></trkpt><trkpt lat="44.0000403640161" lon="8.108541535796983"><ele>63.0</ele><time>2026-04-18T08:47:09Z</time></trkpt><trkpt lat="44.000105341256884" lon="8.108298865710635"><ele>61.0</ele><time>2026-04-18T08:47:09.999Z</time></trkpt><trkpt lat="44.00015206763229" lon="8.108049964428067"><ele>61.0</ele><time>2026-04-18T08:47:10.999Z</time></trkpt><trkpt lat="44.00018323693592" lon="8.107800537175178"><ele>61.0</ele><time>2026-04-18T08:47:11.999Z</time></trkpt><trkpt lat="44.000210373007796" lon="8.107563974227022"><ele>61.0</ele><time>2026-04-18T08:47:12.999Z</time></trkpt><trkpt lat="44.00024682377523" lon="8.1073264753146"><ele>60.666666666666664</ele><time>2026-04-18T08:47:13.999Z</time></trkpt><trkpt lat="44.00029656772382" lon="8.10710108217359"><ele>60.33333333333333</ele><time>2026-04-18T08:47:14.999Z</time></trkpt><trkpt lat="44.00036246355002" lon="8.106878134611854"><ele>60.0</ele><time>2026-04-18T08:47:15.999Z</time></trkpt><trkpt lat="44.000446654445504" lon="8.10666820451474"><ele>59.66666666666667</ele><time>2026-04-18T08:47:16.999Z</time></trkpt><trkpt lat="44.00054641697151" lon="8.106471545765256"><ele>59.333333333333336</ele><time>2026-04-18T08:47:17.999Z</time></trkpt><trkpt lat="44.000661054589926" lon="8.106284213167138"><ele>59.0</ele><time>2026-04-18T08:47:18.999Z</time></trkpt><trkpt lat="44.000784425562344" lon="8.106094753193757"><ele>60.333333333333336</ele><time>2026-04-18T08:47:19.999Z</time></trkpt><trkpt lat="44.00091118058597" lon="8.105899519108895"><ele>61.66666666666667</ele><time>2026-04-18T08:47:20.999Z</time></trkpt><trkpt lat="44.00103970948377" lon="8.105701849661758"><ele>63.0</ele><time>2026-04-18T08:47:21.999Z</time></trkpt><trkpt lat="44.00117191396899" lon="8.10549850999105"><ele>63.0</ele><time>2026-04-18T08:47:22.999Z</time></trkpt><trkpt lat="44.0013049120158" lon="8.105290293359431"><ele>63.0</ele><time>2026-04-18T08:47:23.999Z</time></trkpt><trkpt lat="44.001438659731924" lon="8.105077134322212"><ele>63.0</ele><time>2026-04-18T08:47:24.999Z</time></trkpt><trkpt lat="44.00157019068972" lon="8.104868258587336"><ele>64.66666666666667</ele><time>2026-04-18T08:47:25.999Z</time></trkpt><trkpt lat="44.00169787441294" lon="8.104667191971119"><ele>66.33333333333334</ele><time>2026-04-18T08:47:26.999Z</time></trkpt><trkpt lat="44.0018166494478" lon="8.104467621172136"><ele>68.0</ele><time>2026-04-18T08:47:27.999Z</time></trkpt><trkpt lat="44.00192186149544" lon="8.104256228366953"><ele>66.66666666666667</ele><time>2026-04-18T08:47:29Z</time></trkpt><trkpt lat="44.0020038436509" lon="8.104020552707038"><ele>65.33333333333333</ele><time>2026-04-18T08:47:30Z</time></trkpt><trkpt lat="44.0020544461443" lon="8.103784272393186"><ele>64.0</ele><time>2026-04-18T08:47:31Z</time></trkpt><trkpt lat="44.00209006530028" lon="8.103545604914721"><ele>64.0</ele><time>2026-04-18T08:47:32Z</time></trkpt><trkpt lat="44.0021156578937" lon="8.103293440256659"><ele>64.0</ele><time>2026-04-18T08:47:33Z</time></trkpt><trkpt lat="44.0021391276015" lon="8.103035030545255"><ele>64.0</ele><time>2026-04-18T08:47:34Z</time></trkpt><trkpt lat="44.00216326423886" lon="8.102776499169618"><ele>63.666666666666664</ele><time>2026-04-18T08:47:35Z</time></trkpt><trkpt lat="44.00219156110038" lon="8.102511254780831"><ele>63.33333333333333</ele><time>2026-04-18T08:47:36Z</time></trkpt><trkpt lat="44.00221598189527" lon="8.102241100307786"><ele>63.0</ele><time>2026-04-18T08:47:37Z</time></trkpt><trkpt lat="44.00224012194016" lon="8.101975736808855"><ele>63.66666666666667</ele><time>2026-04-18T08:47:38Z</time></trkpt><trkpt lat="44.00226495895712" lon="8.101711991362023"><ele>64.33333333333334</ele><time>2026-04-18T08:47:39Z</time></trkpt><trkpt lat="44.002290579809724" lon="8.101450819963967"><ele>65.0</ele><time>2026-04-18T08:47:40Z</time></trkpt><trkpt lat="44.0023160815143" lon="8.101192606647428"><ele>65.66666666666667</ele><time>2026-04-18T08:47:41Z</time></trkpt><trkpt lat="44.00233867231553" lon="8.100939415446977"><ele>66.33333333333333</ele><time>2026-04-18T08:47:42Z</time></trkpt><trkpt lat="44.0023627836939" lon="8.100695642650802"><ele>67.0</ele><time>2026-04-18T08:47:43Z</time></trkpt><trkpt lat="44.00239217270849" lon="8.100462860050417"><ele>68.33333333333333</ele><time>2026-04-18T08:47:44Z</time></trkpt><trkpt lat="44.00243744831936" lon="8.100234230605752"><ele>69.66666666666667</ele><time>2026-04-18T08:47:45Z</time></trkpt><trkpt lat="44.002500575180925" lon="8.100001791817656"><ele>71.0</ele><time>2026-04-18T08:47:46Z</time></trkpt><trkpt lat="44.00258019300606" lon="8.099771981366423"><ele>71.0</ele><time>2026-04-18T08:47:47Z</time></trkpt><trkpt lat="44.002665060210816" lon="8.099544848623628"><ele>71.0</ele><time>2026-04-18T08:47:48Z</time></trkpt><trkpt lat="44.00275058794708" lon="8.09932296727476"><ele>71.0</ele><time>2026-04-18T08:47:49Z</time></trkpt><trkpt lat="44.00283335792739" lon="8.099114147449331"><ele>71.0</ele><time>2026-04-18T08:47:50Z</time></trkpt><trkpt lat="44.00293875614719" lon="8.098930890330836"><ele>71.0</ele><time>2026-04-18T08:47:51Z</time></trkpt><trkpt lat="44.00304823401448" lon="8.098754254729792"><ele>71.0</ele><time>2026-04-18T08:47:52Z</time></trkpt><trkpt lat="44.00316237749657" lon="8.098583254027671"><ele>71.0</ele><time>2026-04-18T08:47:53Z</time></trkpt><trkpt lat="44.00327701860933" lon="8.098407426028462"><ele>71.0</ele><time>2026-04-18T08:47:54Z</time></trkpt><trkpt lat="44.00336576533881" lon="8.098203715930453"><ele>71.0</ele><time>2026-04-18T08:47:55Z</time></trkpt><trkpt lat="44.003427031036885" lon="8.097959266494168"><ele>72.66666666666667</ele><time>2026-04-18T08:47:56Z</time></trkpt><trkpt lat="44.00346537013883" lon="8.097692011017418"><ele>74.33333333333333</ele><time>2026-04-18T08:47:57Z</time></trkpt><trkpt lat="44.003514862357044" lon="8.097416174822115"><ele>76.0</ele><time>2026-04-18T08:47:58Z</time></trkpt><trkpt lat="44.00354028253431" lon="8.097151622937737"><ele>76.0</ele><time>2026-04-18T08:47:59Z</time></trkpt><trkpt lat="44.00357310141736" lon="8.0968734461574"><ele>76.0</ele><time>2026-04-18T08:48:00Z</time></trkpt><trkpt lat="44.00358924071726" lon="8.096594433865988"><ele>76.0</ele><time>2026-04-18T08:48:01Z</time></trkpt><trkpt lat="44.003594988736914" lon="8.096326964246986"><ele>75.66666666666666</ele><time>2026-04-18T08:48:02Z</time></trkpt><trkpt lat="44.00359213145378" lon="8.09606196432359"><ele>75.33333333333333</ele><time>2026-04-18T08:48:03Z</time></trkpt><trkpt lat="44.00358710096418" lon="8.095798609541552"><ele>75.0</ele><time>2026-04-18T08:48:04Z</time></trkpt><trkpt lat="44.0035850743357" lon="8.095536871762583"><ele>76.66666666666667</ele><time>2026-04-18T08:48:05Z</time></trkpt><trkpt lat="44.00358559285457" lon="8.095283261406168"><ele>78.33333333333334</ele><time>2026-04-18T08:48:06Z</time></trkpt><trkpt lat="44.00358829878683" lon="8.095043237903987"><ele>80.0</ele><time>2026-04-18T08:48:07Z</time></trkpt><trkpt lat="44.00359076828458" lon="8.094811695565461"><ele>80.0</ele><time>2026-04-18T08:48:08Z</time></trkpt><trkpt lat="44.003603012254686" lon="8.094578156094572"><ele>80.0</ele><time>2026-04-18T08:48:09Z</time></trkpt><trkpt lat="44.003634099660175" lon="8.094347414410638"><ele>80.0</ele><time>2026-04-18T08:48:10Z</time></trkpt><trkpt lat="44.003680877058905" lon="8.09412100111467"><ele>79.33333333333334</ele><time>2026-04-18T08:48:11Z</time></trkpt><trkpt lat="44.00373764737193" lon="8.093895678892633"><ele>78.66666666666667</ele><time>2026-04-18T08:48:12Z</time></trkpt><trkpt lat="44.003793792961304" lon="8.093669853131226"><ele>78.0</ele><time>2026-04-18T08:48:13Z</time></trkpt><trkpt lat="44.00385240252785" lon="8.09344802242741"><ele>78.0</ele><time>2026-04-18T08:48:14Z</time></trkpt><trkpt lat="44.00390767070482" lon="8.09323805219463"><ele>78.0</ele><time>2026-04-18T08:48:15Z</time></trkpt><trkpt lat="44.00396314519895" lon="8.093040125291347"><ele>78.0</ele><time>2026-04-18T08:48:16Z</time></trkpt><trkpt lat="44.00400658628386" lon="8.092848396587689"><ele>78.0</ele><time>2026-04-18T08:48:17Z</time></trkpt><trkpt lat="44.004032018749115" lon="8.0926531189009"><ele>78.0</ele><time>2026-04-18T08:48:18Z</time></trkpt><trkpt lat="44.00404251610568" lon="8.092441259180829"><ele>78.0</ele><time>2026-04-18T08:48:19Z</time></trkpt><trkpt lat="44.00402864056439" lon="8.092224479246294"><ele>78.5</ele><time>2026-04-18T08:48:20Z</time></trkpt><trkpt lat="44.00400032518935" lon="8.092027599735916"><ele>79.0</ele><time>2026-04-18T08:48:21Z</time></trkpt><trkpt lat="44.00397989787365" lon="8.091835973717128"><ele>79.5</ele><time>2026-04-18T08:48:22Z</time></trkpt><trkpt lat="44.003972226442734" lon="8.091641187803503"><ele>80.0</ele><time>2026-04-18T08:48:23Z</time></trkpt><trkpt lat="44.00398167789752" lon="8.091441305404217"><ele>80.0</ele><time>2026-04-18T08:48:24Z</time></trkpt><trkpt lat="44.00401173264445" lon="8.091233199273937"><ele>80.0</ele><time>2026-04-18T08:48:25Z</time></trkpt><trkpt lat="44.00405867669546" lon="8.091010381569774"><ele>80.0</ele><time>2026-04-18T08:48:26Z</time></trkpt><trkpt lat="44.00411801215266" lon="8.090767362677882"><ele>82.0</ele><time>2026-04-18T08:48:27Z</time></trkpt><trkpt lat="44.004187545560235" lon="8.090507723500625"><ele>84.0</ele><time>2026-04-18T08:48:28Z</time></trkpt><trkpt lat="44.004255796987756" lon="8.090237421792352"><ele>86.0</ele><time>2026-04-18T08:48:29Z</time></trkpt><trkpt lat="44.00431830473404" lon="8.089975135376287"><ele>86.0</ele><time>2026-04-18T08:48:30Z</time></trkpt><trkpt lat="44.0043770414545" lon="8.089709697409036"><ele>86.0</ele><time>2026-04-18T08:48:31Z</time></trkpt><trkpt lat="44.00443124985819" lon="8.08945846075931"><ele>86.0</ele><time>2026-04-18T08:48:32Z</time></trkpt><trkpt lat="44.00445294713451" lon="8.089218636327892"><ele>88.66666666666667</ele><time>2026-04-18T08:48:33Z</time></trkpt><trkpt lat="44.004446616250725" lon="8.088979839563102"><ele>91.33333333333333</ele><time>2026-04-18T08:48:34Z</time></trkpt><trkpt lat="44.00440713398929" lon="8.088742061226073"><ele>94.0</ele><time>2026-04-18T08:48:35Z</time></trkpt><trkpt lat="44.00434191591523" lon="8.088504884291462"><ele>94.0</ele><time>2026-04-18T08:48:36Z</time></trkpt><trkpt lat="44.00427207868015" lon="8.088267189724052"><ele>94.0</ele><time>2026-04-18T08:48:37Z</time></trkpt><trkpt lat="44.00419782868574" lon="8.088035149123115"><ele>94.0</ele><time>2026-04-18T08:48:38Z</time></trkpt><trkpt lat="44.00412657197966" lon="8.08779428078934"><ele>92.33333333333333</ele><time>2026-04-18T08:48:39Z</time></trkpt><trkpt lat="44.004045397726436" lon="8.087551904451031"><ele>90.66666666666667</ele><time>2026-04-18T08:48:40Z</time></trkpt><trkpt lat="44.003957241246944" lon="8.087318827960882"><ele>89.0</ele><time>2026-04-18T08:48:41Z</time></trkpt><trkpt lat="44.00386688348612" lon="8.087098376879496"><ele>89.0</ele><time>2026-04-18T08:48:42Z</time></trkpt><trkpt lat="44.00377951455358" lon="8.08688538452425"><ele>89.0</ele><time>2026-04-18T08:48:43Z</time></trkpt><trkpt lat="44.003695722387484" lon="8.086684974691003"><ele>89.0</ele><time>2026-04-18T08:48:44Z</time></trkpt><trkpt lat="44.003611046713274" lon="8.086498057725747"><ele>90.5</ele><time>2026-04-18T08:48:45Z</time></trkpt><trkpt lat="44.00353018097188" lon="8.086319127061394"><ele>92.0</ele><time>2026-04-18T08:48:46Z</time></trkpt><trkpt lat="44.00345454010609" lon="8.086149927691663"><ele>93.5</ele><time>2026-04-18T08:48:47Z</time></trkpt><trkpt lat="44.003384012759334" lon="8.085978018097757"><ele>95.0</ele><time>2026-04-18T08:48:48Z</time></trkpt><trkpt lat="44.003330693311284" lon="8.085802925217187"><ele>94.5</ele><time>2026-04-18T08:48:49Z</time></trkpt><trkpt lat="44.00330465692924" lon="8.085609406098683"><ele>94.0</ele><time>2026-04-18T08:48:50Z</time></trkpt><trkpt lat="44.00331313945034" lon="8.085415364976747"><ele>93.5</ele><time>2026-04-18T08:48:51Z</time></trkpt><trkpt lat="44.00335191021479" lon="8.085233590878014"><ele>93.0</ele><time>2026-04-18T08:48:52Z</time></trkpt><trkpt lat="44.00341651303608" lon="8.085052386295262"><ele>93.0</ele><time>2026-04-18T08:48:53Z</time></trkpt><trkpt lat="44.00351744044626" lon="8.084878278993546"><ele>93.0</ele><time>2026-04-18T08:48:54Z</time></trkpt><trkpt lat="44.00363039641096" lon="8.0846996357231"><ele>93.0</ele><time>2026-04-18T08:48:55Z</time></trkpt><trkpt lat="44.00373382501836" lon="8.084503520211731"><ele>93.0</ele><time>2026-04-18T08:48:56Z</time></trkpt><trkpt lat="44.00381174237722" lon="8.084282455864741"><ele>93.0</ele><time>2026-04-18T08:48:57Z</time></trkpt><trkpt lat="44.00387247104514" lon="8.084037408278604"><ele>93.0</ele><time>2026-04-18T08:48:58Z</time></trkpt><trkpt lat="44.00392091616399" lon="8.083791992838595"><ele>93.0</ele><time>2026-04-18T08:48:59Z</time></trkpt><trkpt lat="44.003952686442304" lon="8.083560169257332"><ele>93.0</ele><time>2026-04-18T08:49:00Z</time></trkpt><trkpt lat="44.00396402429699" lon="8.083339034795644"><ele>93.0</ele><time>2026-04-18T08:49:01Z</time></trkpt><trkpt lat="44.00393125840003" lon="8.083117908908939"><ele>93.0</ele><time>2026-04-18T08:49:02Z</time></trkpt><trkpt lat="44.00388954555996" lon="8.082880266043642"><ele>93.0</ele><time>2026-04-18T08:49:03Z</time></trkpt><trkpt lat="44.00382865187183" lon="8.082642672442212"><ele>93.0</ele><time>2026-04-18T08:49:04Z</time></trkpt><trkpt lat="44.00375815864005" lon="8.082414385969411"><ele>93.33333333333333</ele><time>2026-04-18T08:49:05Z</time></trkpt><trkpt lat="44.003675612852355" lon="8.082192001015564"><ele>93.66666666666666</ele><time>2026-04-18T08:49:06Z</time></trkpt><trkpt lat="44.00359132741717" lon="8.08197950407202"><ele>94.0</ele><time>2026-04-18T08:49:07Z</time></trkpt><trkpt lat="44.00350237031892" lon="8.0817720423952"><ele>94.66666666666666</ele><time>2026-04-18T08:49:08Z</time></trkpt><trkpt lat="44.00340917282053" lon="8.081587464577806"><ele>95.33333333333333</ele><time>2026-04-18T08:49:09Z</time></trkpt><trkpt lat="44.00331498913991" lon="8.081423609914106"><ele>96.0</ele><time>2026-04-18T08:49:10Z</time></trkpt><trkpt lat="44.00322460129337" lon="8.081261773790002"><ele>96.0</ele><time>2026-04-18T08:49:11Z</time></trkpt><trkpt lat="44.003130427382075" lon="8.081098521534583"><ele>96.0</ele><time>2026-04-18T08:49:12Z</time></trkpt><trkpt lat="44.00304578366611" lon="8.080907392731463"><ele>96.0</ele><time>2026-04-18T08:49:13Z</time></trkpt><trkpt lat="44.002947741309235" lon="8.080720703728423"><ele>97.0</ele><time>2026-04-18T08:49:14Z</time></trkpt><trkpt lat="44.0028426516459" lon="8.080545960335416"><ele>98.0</ele><time>2026-04-18T08:49:15Z</time></trkpt><trkpt lat="44.002753983029926" lon="8.08035541596722"><ele>99.0</ele><time>2026-04-18T08:49:16Z</time></trkpt><trkpt lat="44.00268246662744" lon="8.080163964557128"><ele>99.0</ele><time>2026-04-18T08:49:17Z</time></trkpt><trkpt lat="44.00261507458829" lon="8.07996024988804"><ele>99.0</ele><time>2026-04-18T08:49:18Z</time></trkpt><trkpt lat="44.002550329902675" lon="8.079747584758307"><ele>99.0</ele><time>2026-04-18T08:49:19Z</time></trkpt><trkpt lat="44.00249096607992" lon="8.079529270482722"><ele>98.66666666666666</ele><time>2026-04-18T08:49:20Z</time></trkpt><trkpt lat="44.00243516133245" lon="8.079298124183493"><ele>98.33333333333333</ele><time>2026-04-18T08:49:21Z</time></trkpt><trkpt lat="44.002384225143814" lon="8.079063219896186"><ele>98.0</ele><time>2026-04-18T08:49:22Z</time></trkpt><trkpt lat="44.00232893669527" lon="8.0788163914656"><ele>98.66666666666666</ele><time>2026-04-18T08:49:23Z</time></trkpt><trkpt lat="44.0022801883399" lon="8.078565821056724"><ele>99.33333333333334</ele><time>2026-04-18T08:49:24Z</time></trkpt><trkpt lat="44.00223395774812" lon="8.078310535408509"><ele>100.0</ele><time>2026-04-18T08:49:25Z</time></trkpt><trkpt lat="44.00219258907983" lon="8.078061273994786"><ele>101.0</ele><time>2026-04-18T08:49:26Z</time></trkpt><trkpt lat="44.00215220985208" lon="8.07782541891717"><ele>102.0</ele><time>2026-04-18T08:49:27Z</time></trkpt><trkpt lat="44.00211493950606" lon="8.077617115028414"><ele>103.0</ele><time>2026-04-18T08:49:28Z</time></trkpt><trkpt lat="44.00207787117192" lon="8.077414908276351"><ele>104.33333333333334</ele><time>2026-04-18T08:49:29Z</time></trkpt><trkpt lat="44.00203891233742" lon="8.077218742654953"><ele>105.66666666666666</ele><time>2026-04-18T08:49:30Z</time></trkpt><trkpt lat="44.00199855452101" lon="8.077004272774097"><ele>107.0</ele><time>2026-04-18T08:49:31Z</time></trkpt><trkpt lat="44.001954796518966" lon="8.076770389764288"><ele>107.33333333333333</ele><time>2026-04-18T08:49:32Z</time></trkpt><trkpt lat="44.00191716318865" lon="8.076534752800269"><ele>107.66666666666666</ele><time>2026-04-18T08:49:33Z</time></trkpt><trkpt lat="44.00188004204638" lon="8.076291722925376"><ele>108.0</ele><time>2026-04-18T08:49:34Z</time></trkpt><trkpt lat="44.001839416746854" lon="8.076056899820049"><ele>108.0</ele><time>2026-04-18T08:49:35Z</time></trkpt><trkpt lat="44.0017943845246" lon="8.07582551351439"><ele>108.0</ele><time>2026-04-18T08:49:36Z</time></trkpt><trkpt lat="44.00173494601287" lon="8.075623170860982"><ele>108.0</ele><time>2026-04-18T08:49:37Z</time></trkpt><trkpt lat="44.00169284154582" lon="8.075379049463423"><ele>108.0</ele><time>2026-04-18T08:49:38Z</time></trkpt><trkpt lat="44.00165160744724" lon="8.075142868818622"><ele>108.0</ele><time>2026-04-18T08:49:39Z</time></trkpt><trkpt lat="44.00162672112051" lon="8.074904664517694"><ele>108.0</ele><time>2026-04-18T08:49:40Z</time></trkpt><trkpt lat="44.00161508621717" lon="8.074643856730775"><ele>107.33333333333334</ele><time>2026-04-18T08:49:41Z</time></trkpt><trkpt lat="44.00161477199358" lon="8.074407683610659"><ele>106.66666666666667</ele><time>2026-04-18T08:49:42Z</time></trkpt><trkpt lat="44.00160914223869" lon="8.074151800664719"><ele>106.0</ele><time>2026-04-18T08:49:43Z</time></trkpt><trkpt lat="44.00160476679044" lon="8.073889872000787"><ele>106.0</ele><time>2026-04-18T08:49:44Z</time></trkpt><trkpt lat="44.00159487612145" lon="8.073614899281878"><ele>106.0</ele><time>2026-04-18T08:49:45Z</time></trkpt><trkpt lat="44.00158731522129" lon="8.073352952436291"><ele>106.0</ele><time>2026-04-18T08:49:46Z</time></trkpt><trkpt lat="44.00157865643771" lon="8.07310111490956"><ele>107.0</ele><time>2026-04-18T08:49:47Z</time></trkpt><trkpt lat="44.00156965903242" lon="8.072850518199372"><ele>108.0</ele><time>2026-04-18T08:49:48Z</time></trkpt><trkpt lat="44.00155843654475" lon="8.072587647194176"><ele>109.0</ele><time>2026-04-18T08:49:49Z</time></trkpt><trkpt lat="44.001547068221385" lon="8.072321387693464"><ele>109.66666666666667</ele><time>2026-04-18T08:49:50Z</time></trkpt><trkpt lat="44.001534931390744" lon="8.07205368120602"><ele>110.33333333333334</ele><time>2026-04-18T08:49:51Z</time></trkpt><trkpt lat="44.001524708070114" lon="8.071795900813708"><ele>111.0</ele><time>2026-04-18T08:49:52Z</time></trkpt><trkpt lat="44.00151823162149" lon="8.071552292320005"><ele>111.0</ele><time>2026-04-18T08:49:53Z</time></trkpt><trkpt lat="44.00150741874926" lon="8.071321034358276"><ele>111.0</ele><time>2026-04-18T08:49:54Z</time></trkpt><trkpt lat="44.00149655750977" lon="8.071088753828866"><ele>111.0</ele><time>2026-04-18T08:49:55Z</time></trkpt><trkpt lat="44.001476793437874" lon="8.070849074509221"><ele>111.66666666666666</ele><time>2026-04-18T08:49:56Z</time></trkpt><trkpt lat="44.001442191529286" lon="8.070602654949601"><ele>112.33333333333333</ele><time>2026-04-18T08:49:57Z</time></trkpt><trkpt lat="44.00139012864671" lon="8.070359933439866"><ele>113.0</ele><time>2026-04-18T08:49:58Z</time></trkpt><trkpt lat="44.00133109466927" lon="8.070120607793609"><ele>114.0</ele><time>2026-04-18T08:49:59Z</time></trkpt><trkpt lat="44.00124571965984" lon="8.0698888217937"><ele>115.0</ele><time>2026-04-18T08:50:00Z</time></trkpt><trkpt lat="44.00116926620689" lon="8.069662257596363"><ele>116.0</ele><time>2026-04-18T08:50:01Z</time></trkpt><trkpt lat="44.00109588445296" lon="8.06945368641391"><ele>116.0</ele><time>2026-04-18T08:50:02Z</time></trkpt><trkpt lat="44.001030217114035" lon="8.069248984763389"><ele>116.0</ele><time>2026-04-18T08:50:03Z</time></trkpt><trkpt lat="44.00097494175955" lon="8.069029685254254"><ele>116.0</ele><time>2026-04-18T08:50:04Z</time></trkpt><trkpt lat="44.000934047526115" lon="8.06879086972795"><ele>117.66666666666666</ele><time>2026-04-18T08:50:05Z</time></trkpt><trkpt lat="44.00091088984739" lon="8.068538925326138"><ele>119.33333333333334</ele><time>2026-04-18T08:50:06Z</time></trkpt><trkpt lat="44.00090039977799" lon="8.068288106019725"><ele>121.0</ele><time>2026-04-18T08:50:07Z</time></trkpt><trkpt lat="44.000896679463416" lon="8.068034459789073"><ele>121.33333333333334</ele><time>2026-04-18T08:50:08Z</time></trkpt><trkpt lat="44.00090415821911" lon="8.067779732176707"><ele>121.66666666666666</ele><time>2026-04-18T08:50:09Z</time></trkpt><trkpt lat="44.00092250164019" lon="8.067534176381269"><ele>122.0</ele><time>2026-04-18T08:50:10Z</time></trkpt><trkpt lat="44.00094270609717" lon="8.067296132890664"><ele>122.0</ele><time>2026-04-18T08:50:11Z</time></trkpt><trkpt lat="44.00095990178358" lon="8.067070264475268"><ele>122.0</ele><time>2026-04-18T08:50:12Z</time></trkpt><trkpt lat="44.00096467887486" lon="8.066857980788654"><ele>122.0</ele><time>2026-04-18T08:50:13Z</time></trkpt><trkpt lat="44.000960430906225" lon="8.066651327429382"><ele>122.75</ele><time>2026-04-18T08:50:14Z</time></trkpt><trkpt lat="44.00094882367799" lon="8.066458270449196"><ele>123.5</ele><time>2026-04-18T08:50:15Z</time></trkpt><trkpt lat="44.00092625046653" lon="8.066282640433197"><ele>124.25</ele><time>2026-04-18T08:50:16Z</time></trkpt><trkpt lat="44.00089953802402" lon="8.066121071860028"><ele>125.0</ele><time>2026-04-18T08:50:17Z</time></trkpt><trkpt lat="44.00087719867029" lon="8.065957066742174"><ele>125.0</ele><time>2026-04-18T08:50:18Z</time></trkpt><trkpt lat="44.00086672070168" lon="8.065789365135622"><ele>125.0</ele><time>2026-04-18T08:50:19Z</time></trkpt><trkpt lat="44.000872543696616" lon="8.065613350574877"><ele>125.0</ele><time>2026-04-18T08:50:20Z</time></trkpt><trkpt lat="44.000890969253746" lon="8.065436518854561"><ele>125.0</ele><time>2026-04-18T08:50:21Z</time></trkpt><trkpt lat="44.00090053163238" lon="8.065250958456524"><ele>126.25</ele><time>2026-04-18T08:50:22Z</time></trkpt><trkpt lat="44.00090965949467" lon="8.065064078104701"><ele>127.5</ele><time>2026-04-18T08:50:23Z</time></trkpt><trkpt lat="44.000913912229564" lon="8.064870297095498"><ele>128.75</ele><time>2026-04-18T08:50:24Z</time></trkpt><trkpt lat="44.00090948878385" lon="8.064674909633702"><ele>130.0</ele><time>2026-04-18T08:50:25Z</time></trkpt><trkpt lat="44.0008906699119" lon="8.064474641038458"><ele>129.5</ele><time>2026-04-18T08:50:26Z</time></trkpt><trkpt lat="44.00085412323972" lon="8.064276417721073"><ele>129.0</ele><time>2026-04-18T08:50:27Z</time></trkpt><trkpt lat="44.000811748996924" lon="8.064076286898736"><ele>128.5</ele><time>2026-04-18T08:50:28Z</time></trkpt><trkpt lat="44.0007775519436" lon="8.063874883232247"><ele>128.0</ele><time>2026-04-18T08:50:29Z</time></trkpt><trkpt lat="44.00075061673745" lon="8.063680928993021"><ele>128.0</ele><time>2026-04-18T08:50:30Z</time></trkpt><trkpt lat="44.00072184098852" lon="8.063500930338156"><ele>128.0</ele><time>2026-04-18T08:50:31Z</time></trkpt><trkpt lat="44.000688903304365" lon="8.063321125057307"><ele>128.0</ele><time>2026-04-18T08:50:32Z</time></trkpt><trkpt lat="44.00065362639606" lon="8.063138264923433"><ele>128.0</ele><time>2026-04-18T08:50:33Z</time></trkpt><trkpt lat="44.00062030732137" lon="8.062960082609655"><ele>128.0</ele><time>2026-04-18T08:50:34Z</time></trkpt><trkpt lat="44.00060545388981" lon="8.06277012749194"><ele>128.0</ele><time>2026-04-18T08:50:35Z</time></trkpt><trkpt lat="44.00057433317869" lon="8.062593235046322"><ele>128.0</ele><time>2026-04-18T08:50:36Z</time></trkpt><trkpt lat="44.00055515458271" lon="8.062407420697776"><ele>128.0</ele><time>2026-04-18T08:50:37Z</time></trkpt><trkpt lat="44.00052835303215" lon="8.06222439249112"><ele>128.75</ele><time>2026-04-18T08:50:38Z</time></trkpt><trkpt lat="44.00049574491642" lon="8.062041996075758"><ele>129.5</ele><time>2026-04-18T08:50:39Z</time></trkpt><trkpt lat="44.00046211235254" lon="8.061859685295637"><ele>130.25</ele><time>2026-04-18T08:50:40Z</time></trkpt><trkpt lat="44.00042877698137" lon="8.061672423056203"><ele>131.0</ele><time>2026-04-18T08:50:41Z</time></trkpt><trkpt lat="44.0004050124138" lon="8.06148214077177"><ele>131.75</ele><time>2026-04-18T08:50:42Z</time></trkpt><trkpt lat="44.0003728955948" lon="8.061303181919435"><ele>132.5</ele><time>2026-04-18T08:50:43Z</time></trkpt><trkpt lat="44.000350501585714" lon="8.061134514172362"><ele>133.25</ele><time>2026-04-18T08:50:44Z</time></trkpt><trkpt lat="44.00031966834615" lon="8.06096314146498"><ele>134.0</ele><time>2026-04-18T08:50:45Z</time></trkpt><trkpt lat="44.00028244354878" lon="8.060795836853409"><ele>134.25</ele><time>2026-04-18T08:50:46Z</time></trkpt><trkpt lat="44.00026134858888" lon="8.060623217704512"><ele>134.5</ele><time>2026-04-18T08:50:47Z</time></trkpt><trkpt lat="44.00023625978097" lon="8.060456849287743"><ele>134.75</ele><time>2026-04-18T08:50:48Z</time></trkpt><trkpt lat="44.00021712340852" lon="8.060286154917591"><ele>135.0</ele><time>2026-04-18T08:50:49Z</time></trkpt><trkpt lat="44.000208096077856" lon="8.060116701889477"><ele>135.5</ele><time>2026-04-18T08:50:50Z</time></trkpt><trkpt lat="44.000201798327176" lon="8.059944441007252"><ele>136.0</ele><time>2026-04-18T08:50:51Z</time></trkpt><trkpt lat="44.00020437502941" lon="8.059772715920033"><ele>136.5</ele><time>2026-04-18T08:50:52Z</time></trkpt><trkpt lat="44.00020240792103" lon="8.059592083201645"><ele>137.0</ele><time>2026-04-18T08:50:53Z</time></trkpt><trkpt lat="44.00020239287496" lon="8.059399395808638"><ele>137.0</ele><time>2026-04-18T08:50:54Z</time></trkpt><trkpt lat="44.000206266776" lon="8.059207554695314"><ele>137.0</ele><time>2026-04-18T08:50:55Z</time></trkpt><trkpt lat="44.00020691270571" lon="8.05901688357426"><ele>137.0</ele><time>2026-04-18T08:50:56Z</time></trkpt><trkpt lat="44.00020150850759" lon="8.058822534918828"><ele>137.0</ele><time>2026-04-18T08:50:57Z</time></trkpt><trkpt lat="44.00020051186857" lon="8.058626653412759"><ele>137.5</ele><time>2026-04-18T08:50:58Z</time></trkpt><trkpt lat="44.00020161551144" lon="8.058445945425506"><ele>138.0</ele><time>2026-04-18T08:50:59Z</time></trkpt><trkpt lat="44.00020113543949" lon="8.058256389603665"><ele>138.5</ele><time>2026-04-18T08:51:00Z</time></trkpt><trkpt lat="44.000196692165865" lon="8.058082201894383"><ele>139.0</ele><time>2026-04-18T08:51:01Z</time></trkpt><trkpt lat="44.000194317234204" lon="8.057911703208198"><ele>139.4</ele><time>2026-04-18T08:51:02Z</time></trkpt><trkpt lat="44.00018737779216" lon="8.05774656915808"><ele>139.8</ele><time>2026-04-18T08:51:03Z</time></trkpt><trkpt lat="44.000185933713404" lon="8.057590906932873"><ele>140.2</ele><time>2026-04-18T08:51:04Z</time></trkpt><trkpt lat="44.00019362824583" lon="8.057447683178651"><ele>140.6</ele><time>2026-04-18T08:51:05Z</time></trkpt><trkpt lat="44.00021181386473" lon="8.057339488125246"><ele>141.0</ele><time>2026-04-18T08:51:06Z</time></trkpt><trkpt lat="44.000225096665936" lon="8.057249843977118"><ele>141.8</ele><time>2026-04-18T08:51:07Z</time></trkpt><trkpt lat="44.0001997967175" lon="8.057122480287926"><ele>142.6</ele><time>2026-04-18T08:51:09Z</time></trkpt><trkpt lat="44.00014560262164" lon="8.05707083611093"><ele>143.4</ele><time>2026-04-18T08:51:10Z</time></trkpt><trkpt lat="44.00007432199733" lon="8.057048529684018"><ele>144.2</ele><time>2026-04-18T08:51:11Z</time></trkpt><trkpt lat="43.9999807821205" lon="8.05697864382118"><ele>145.0</ele><time>2026-04-18T08:51:12Z</time></trkpt><trkpt lat="43.99987942005182" lon="8.056910912233217"><ele>145.0</ele><time>2026-04-18T08:51:13Z</time></trkpt><trkpt lat="43.999777707619614" lon="8.056844877412521"><ele>145.0</ele><time>2026-04-18T08:51:14Z</time></trkpt><trkpt lat="43.99968094369053" lon="8.056779052037234"><ele>145.0</ele><time>2026-04-18T08:51:15Z</time></trkpt><trkpt lat="43.99958492393888" lon="8.056707811112382"><ele>145.0</ele><time>2026-04-18T08:51:16Z</time></trkpt><trkpt lat="43.999505594384466" lon="8.056626644424195"><ele>145.0</ele><time>2026-04-18T08:51:17Z</time></trkpt><trkpt lat="43.999441857389236" lon="8.056526864892653"><ele>145.0</ele><time>2026-04-18T08:51:18Z</time></trkpt><trkpt lat="43.999412835734546" lon="8.056390353788927"><ele>145.0</ele><time>2026-04-18T08:51:19Z</time></trkpt><trkpt lat="43.99940282265822" lon="8.056229771467274"><ele>145.0</ele><time>2026-04-18T08:51:20Z</time></trkpt><trkpt lat="43.99940577592393" lon="8.056064248754701"><ele>145.0</ele><time>2026-04-18T08:51:21Z</time></trkpt><trkpt lat="43.99941973523424" lon="8.055887625863427"><ele>145.25</ele><time>2026-04-18T08:51:22Z</time></trkpt><trkpt lat="43.99940639763936" lon="8.055697981765988"><ele>145.5</ele><time>2026-04-18T08:51:23Z</time></trkpt><trkpt lat="43.99936921481005" lon="8.05549206068894"><ele>145.75</ele><time>2026-04-18T08:51:24Z</time></trkpt><trkpt lat="43.999314812697634" lon="8.055296278442935"><ele>146.0</ele><time>2026-04-18T08:51:25Z</time></trkpt><trkpt lat="43.999275641831204" lon="8.055073622631246"><ele>145.33333333333331</ele><time>2026-04-18T08:51:26Z</time></trkpt><trkpt lat="43.99921200487767" lon="8.054839483567047"><ele>144.66666666666666</ele><time>2026-04-18T08:51:27Z</time></trkpt><trkpt lat="43.999167215894005" lon="8.054590770751755"><ele>144.0</ele><time>2026-04-18T08:51:28Z</time></trkpt><trkpt lat="43.99914007598184" lon="8.05432714959739"><ele>150.0</ele><time>2026-04-18T08:51:29Z</time></trkpt><trkpt lat="43.99911032608201" lon="8.054035680854186"><ele>156.0</ele><time>2026-04-18T08:51:30Z</time></trkpt><trkpt lat="43.99908569676247" lon="8.053727209992402"><ele>162.0</ele><time>2026-04-18T08:51:31Z</time></trkpt><trkpt lat="43.999058292831464" lon="8.053436386198891"><ele>161.33333333333334</ele><time>2026-04-18T08:51:32Z</time></trkpt><trkpt lat="43.99903130136787" lon="8.053152233004452"><ele>160.66666666666669</ele><time>2026-04-18T08:51:33Z</time></trkpt><trkpt lat="43.99900201638157" lon="8.05288396301275"><ele>160.0</ele><time>2026-04-18T08:51:34Z</time></trkpt><trkpt lat="43.9989796660021" lon="8.052640357378392"><ele>160.33333333333334</ele><time>2026-04-18T08:51:35Z</time></trkpt><trkpt lat="43.99895454816129" lon="8.052405183376793"><ele>160.66666666666666</ele><time>2026-04-18T08:51:36Z</time></trkpt><trkpt lat="43.998937696111916" lon="8.052174600458414"><ele>161.0</ele><time>2026-04-18T08:51:37Z</time></trkpt><trkpt lat="43.998921703276174" lon="8.051974119549813"><ele>161.0</ele><time>2026-04-18T08:51:38Z</time></trkpt><trkpt lat="43.99891855023015" lon="8.051780600318331"><ele>161.0</ele><time>2026-04-18T08:51:39Z</time></trkpt><trkpt lat="43.99889896536664" lon="8.051602719120341"><ele>161.0</ele><time>2026-04-18T08:51:40Z</time></trkpt><trkpt lat="43.99886846464414" lon="8.051429447937016"><ele>161.0</ele><time>2026-04-18T08:51:41Z</time></trkpt><trkpt lat="43.998815777968055" lon="8.051257988930862"><ele>161.0</ele><time>2026-04-18T08:51:42Z</time></trkpt><trkpt lat="43.99875170660549" lon="8.051079514647695"><ele>161.0</ele><time>2026-04-18T08:51:43Z</time></trkpt><trkpt lat="43.99867184552983" lon="8.050926433298349"><ele>161.0</ele><time>2026-04-18T08:51:44Z</time></trkpt><trkpt lat="43.998604462344815" lon="8.050788649092473"><ele>161.0</ele><time>2026-04-18T08:51:45Z</time></trkpt><trkpt lat="43.99854274795794" lon="8.05066574611411"><ele>163.16666666666666</ele><time>2026-04-18T08:51:46Z</time></trkpt><trkpt lat="43.99850150602809" lon="8.050545656211181"><ele>165.33333333333331</ele><time>2026-04-18T08:51:47Z</time></trkpt><trkpt lat="43.99849475331301" lon="8.05043513523746"><ele>167.5</ele><time>2026-04-18T08:51:48Z</time></trkpt><trkpt lat="43.99852442619689" lon="8.050333201708646"><ele>169.66666666666666</ele><time>2026-04-18T08:51:49Z</time></trkpt><trkpt lat="43.99859018820422" lon="8.050245730371381"><ele>171.83333333333334</ele><time>2026-04-18T08:51:50Z</time></trkpt><trkpt lat="43.998679378964894" lon="8.050185895938208"><ele>174.0</ele><time>2026-04-18T08:51:51Z</time></trkpt><trkpt lat="43.998775715013544" lon="8.050167117636425"><ele>174.0</ele><time>2026-04-18T08:51:52Z</time></trkpt><trkpt lat="43.99887058199094" lon="8.050140443175382"><ele>174.0</ele><time>2026-04-18T08:51:53Z</time></trkpt><trkpt lat="43.998945456120424" lon="8.050084207666302"><ele>174.0</ele><time>2026-04-18T08:51:54Z</time></trkpt><trkpt lat="43.99900651638647" lon="8.049993369707266"><ele>174.0</ele><time>2026-04-18T08:51:55Z</time></trkpt><trkpt lat="43.99905259511051" lon="8.049863675196397"><ele>174.0</ele><time>2026-04-18T08:51:56Z</time></trkpt><trkpt lat="43.99908592033135" lon="8.04969909106137"><ele>176.0</ele><time>2026-04-18T08:51:57Z</time></trkpt><trkpt lat="43.99911732131869" lon="8.049498089612216"><ele>178.0</ele><time>2026-04-18T08:51:58Z</time></trkpt><trkpt lat="43.99914793983051" lon="8.049266622779111"><ele>180.0</ele><time>2026-04-18T08:51:59Z</time></trkpt><trkpt lat="43.99919066113661" lon="8.049044271607233"><ele>180.0</ele><time>2026-04-18T08:52:00Z</time></trkpt><trkpt lat="43.99926212565451" lon="8.048825686207245"><ele>180.0</ele><time>2026-04-18T08:52:01Z</time></trkpt><trkpt lat="43.99933919347586" lon="8.04859752835458"><ele>180.0</ele><time>2026-04-18T08:52:02Z</time></trkpt><trkpt lat="43.99940691313471" lon="8.048386668208634"><ele>182.75</ele><time>2026-04-18T08:52:03Z</time></trkpt><trkpt lat="43.999463339809616" lon="8.048199344840437"><ele>185.5</ele><time>2026-04-18T08:52:04Z</time></trkpt><trkpt lat="43.999550800255705" lon="8.048065361183962"><ele>188.25</ele><time>2026-04-18T08:52:05Z</time></trkpt><trkpt lat="43.999642312435476" lon="8.047940242281502"><ele>191.0</ele><time>2026-04-18T08:52:06Z</time></trkpt><trkpt lat="43.99973303248476" lon="8.04780994883933"><ele>191.0</ele><time>2026-04-18T08:52:07Z</time></trkpt><trkpt lat="43.99983214018221" lon="8.0476833763331"><ele>191.0</ele><time>2026-04-18T08:52:08Z</time></trkpt><trkpt lat="43.999911080782624" lon="8.047539282512954"><ele>191.0</ele><time>2026-04-18T08:52:09Z</time></trkpt><trkpt lat="43.99998300636773" lon="8.047366470006022"><ele>191.0</ele><time>2026-04-18T08:52:10Z</time></trkpt><trkpt lat="44.000050140351284" lon="8.047192979886066"><ele>193.0</ele><time>2026-04-18T08:52:11Z</time></trkpt><trkpt lat="44.00009732695945" lon="8.04703016430924"><ele>195.0</ele><time>2026-04-18T08:52:12Z</time></trkpt><trkpt lat="44.000137301469735" lon="8.046861463771545"><ele>197.0</ele><time>2026-04-18T08:52:13Z</time></trkpt><trkpt lat="44.000131322947425" lon="8.04669045299213"><ele>199.0</ele><time>2026-04-18T08:52:14Z</time></trkpt><trkpt lat="44.00011875900696" lon="8.046514120201032"><ele>199.0</ele><time>2026-04-18T08:52:15Z</time></trkpt><trkpt lat="44.000074085286435" lon="8.046341187606249"><ele>199.0</ele><time>2026-04-18T08:52:16Z</time></trkpt><trkpt lat="44.00000341532006" lon="8.046165457729053"><ele>199.0</ele><time>2026-04-18T08:52:17Z</time></trkpt><trkpt lat="43.9999106477719" lon="8.045993904987371"><ele>199.0</ele><time>2026-04-18T08:52:18Z</time></trkpt><trkpt lat="43.99982842110691" lon="8.045852734894112"><ele>199.75</ele><time>2026-04-18T08:52:19Z</time></trkpt><trkpt lat="43.999774612628556" lon="8.045712246692396"><ele>200.5</ele><time>2026-04-18T08:52:20Z</time></trkpt><trkpt lat="43.99974911245057" lon="8.045547411013464"><ele>201.25</ele><time>2026-04-18T08:52:21Z</time></trkpt><trkpt lat="43.99976160635404" lon="8.045365207318582"><ele>202.0</ele><time>2026-04-18T08:52:22Z</time></trkpt><trkpt lat="43.99980301696837" lon="8.045170750759398"><ele>202.0</ele><time>2026-04-18T08:52:23Z</time></trkpt><trkpt lat="43.99980282104888" lon="8.044977816436385"><ele>202.0</ele><time>2026-04-18T08:52:24Z</time></trkpt><trkpt lat="43.999811570936735" lon="8.044799607178081"><ele>202.0</ele><time>2026-04-18T08:52:25Z</time></trkpt><trkpt lat="43.9998001962341" lon="8.044644234226947"><ele>202.0</ele><time>2026-04-18T08:52:26Z</time></trkpt><trkpt lat="43.99976299144126" lon="8.044504521291262"><ele>201.8</ele><time>2026-04-18T08:52:27Z</time></trkpt><trkpt lat="43.99969806794734" lon="8.044386660938418"><ele>201.6</ele><time>2026-04-18T08:52:28Z</time></trkpt><trkpt lat="43.999629623656276" lon="8.044288689261574"><ele>201.4</ele><time>2026-04-18T08:52:29Z</time></trkpt><trkpt lat="43.999564405365994" lon="8.04418222983999"><ele>201.20000000000002</ele><time>2026-04-18T08:52:30Z</time></trkpt><trkpt lat="43.99952289544625" lon="8.044058231495349"><ele>201.0</ele><time>2026-04-18T08:52:31Z</time></trkpt><trkpt lat="43.99949567575303" lon="8.043912754068788"><ele>200.5</ele><time>2026-04-18T08:52:32Z</time></trkpt><trkpt lat="43.99947477171753" lon="8.043747237300137"><ele>200.0</ele><time>2026-04-18T08:52:33Z</time></trkpt><trkpt lat="43.99945319605138" lon="8.043574147574901"><ele>199.5</ele><time>2026-04-18T08:52:34Z</time></trkpt><trkpt lat="43.99944948732584" lon="8.043392290342053"><ele>199.0</ele><time>2026-04-18T08:52:35Z</time></trkpt><trkpt lat="43.99948183470782" lon="8.043202627569602"><ele>200.0</ele><time>2026-04-18T08:52:36Z</time></trkpt><trkpt lat="43.99951127164774" lon="8.04301798711822"><ele>201.0</ele><time>2026-04-18T08:52:37Z</time></trkpt><trkpt lat="43.99953763058672" lon="8.04282839185223"><ele>202.0</ele><time>2026-04-18T08:52:38Z</time></trkpt><trkpt lat="43.99956538580451" lon="8.042659179681477"><ele>203.0</ele><time>2026-04-18T08:52:39Z</time></trkpt><trkpt lat="43.999591034045416" lon="8.042503772753296"><ele>203.75</ele><time>2026-04-18T08:52:40Z</time></trkpt><trkpt lat="43.99960087406586" lon="8.042340104520367"><ele>204.5</ele><time>2026-04-18T08:52:41Z</time></trkpt><trkpt lat="43.999580329644466" lon="8.042184315962468"><ele>205.25</ele><time>2026-04-18T08:52:42Z</time></trkpt><trkpt lat="43.99952404812371" lon="8.042037403598988"><ele>206.0</ele><time>2026-04-18T08:52:43Z</time></trkpt><trkpt lat="43.999447249546265" lon="8.041907133133176"><ele>206.0</ele><time>2026-04-18T08:52:44Z</time></trkpt><trkpt lat="43.99936664594889" lon="8.041793156666849"><ele>206.0</ele><time>2026-04-18T08:52:45Z</time></trkpt><trkpt lat="43.99927235413612" lon="8.041688120150743"><ele>206.0</ele><time>2026-04-18T08:52:46Z</time></trkpt><trkpt lat="43.99916268443353" lon="8.04164022057584"><ele>206.0</ele><time>2026-04-18T08:52:47Z</time></trkpt><trkpt lat="43.999064385983985" lon="8.041582521848696"><ele>205.60000000000002</ele><time>2026-04-18T08:52:48Z</time></trkpt><trkpt lat="43.998976828351694" lon="8.04155022587765"><ele>205.2</ele><time>2026-04-18T08:52:49Z</time></trkpt><trkpt lat="43.99890011066357" lon="8.041550531789024"><ele>204.8</ele><time>2026-04-18T08:52:50Z</time></trkpt><trkpt lat="43.99883015779043" lon="8.041650098950074"><ele>204.39999999999998</ele><time>2026-04-18T08:52:51Z</time></trkpt><trkpt lat="43.99877612769054" lon="8.041769492817059"><ele>204.0</ele><time>2026-04-18T08:52:52Z</time></trkpt><trkpt lat="43.99873108459964" lon="8.04188953500717"><ele>204.0</ele><time>2026-04-18T08:52:53Z</time></trkpt><trkpt lat="43.99868038630178" lon="8.041971300775055"><ele>204.0</ele><time>2026-04-18T08:52:54Z</time></trkpt><trkpt lat="43.99861146228435" lon="8.042004648187499"><ele>204.0</ele><time>2026-04-18T08:52:55Z</time></trkpt><trkpt lat="43.998526881963535" lon="8.041983427509622"><ele>204.0</ele><time>2026-04-18T08:52:56Z</time></trkpt><trkpt lat="43.998451061117116" lon="8.041911988899447"><ele>204.0</ele><time>2026-04-18T08:52:57Z</time></trkpt><trkpt lat="43.99839820858985" lon="8.041799455033699"><ele>204.0</ele><time>2026-04-18T08:52:58Z</time></trkpt><trkpt lat="43.99836405648038" lon="8.041630019498657"><ele>210.33333333333331</ele><time>2026-04-18T08:52:59Z</time></trkpt><trkpt lat="43.998333205738035" lon="8.04142530584394"><ele>216.66666666666666</ele><time>2026-04-18T08:53:00Z</time></trkpt><trkpt lat="43.99830073070424" lon="8.04121668310147"><ele>223.0</ele><time>2026-04-18T08:53:01Z</time></trkpt><trkpt lat="43.998262240123836" lon="8.040993296319044"><ele>222.66666666666666</ele><time>2026-04-18T08:53:02Z</time></trkpt><trkpt lat="43.99822104939703" lon="8.040789391592677"><ele>222.33333333333331</ele><time>2026-04-18T08:53:03Z</time></trkpt><trkpt lat="43.9981851442663" lon="8.040572499341897"><ele>222.0</ele><time>2026-04-18T08:53:04Z</time></trkpt><trkpt lat="43.998149681464014" lon="8.04033819866171"><ele>222.0</ele><time>2026-04-18T08:53:05Z</time></trkpt><trkpt lat="43.99812513227093" lon="8.040086029057266"><ele>222.0</ele><time>2026-04-18T08:53:06Z</time></trkpt><trkpt lat="43.99812040537344" lon="8.039837697215335"><ele>222.0</ele><time>2026-04-18T08:53:07Z</time></trkpt><trkpt lat="43.99811676163605" lon="8.039579873829174"><ele>221.5</ele><time>2026-04-18T08:53:08Z</time></trkpt><trkpt lat="43.998113395606346" lon="8.039352209028285"><ele>221.0</ele><time>2026-04-18T08:53:09Z</time></trkpt><trkpt lat="43.99811364162268" lon="8.039152017364435"><ele>220.5</ele><time>2026-04-18T08:53:10Z</time></trkpt><trkpt lat="43.99810862643425" lon="8.038967976953327"><ele>220.0</ele><time>2026-04-18T08:53:11Z</time></trkpt><trkpt lat="43.998081036323114" lon="8.038808653197794"><ele>220.0</ele><time>2026-04-18T08:53:12Z</time></trkpt><trkpt lat="43.99802295527682" lon="8.038667166081082"><ele>220.0</ele><time>2026-04-18T08:53:13Z</time></trkpt><trkpt lat="43.99793540129848" lon="8.038530745759344"><ele>220.0</ele><time>2026-04-18T08:53:14Z</time></trkpt><trkpt lat="43.997853695844825" lon="8.038404777999435"><ele>220.0</ele><time>2026-04-18T08:53:15Z</time></trkpt><trkpt lat="43.99781366955153" lon="8.038262818227935"><ele>219.0</ele><time>2026-04-18T08:53:16Z</time></trkpt><trkpt lat="43.997794989474336" lon="8.03808244595511"><ele>218.0</ele><time>2026-04-18T08:53:17Z</time></trkpt><trkpt lat="43.997760121870485" lon="8.037883885599465"><ele>217.0</ele><time>2026-04-18T08:53:18Z</time></trkpt><trkpt lat="43.997729508618946" lon="8.037673663664087"><ele>216.0</ele><time>2026-04-18T08:53:19Z</time></trkpt><trkpt lat="43.997704423978945" lon="8.037453729125616"><ele>215.5</ele><time>2026-04-18T08:53:20Z</time></trkpt><trkpt lat="43.99767495836664" lon="8.037243506558225"><ele>215.0</ele><time>2026-04-18T08:53:21Z</time></trkpt><trkpt lat="43.99764897393149" lon="8.037038478578287"><ele>214.5</ele><time>2026-04-18T08:53:22Z</time></trkpt><trkpt lat="43.99762797043069" lon="8.036854111070452"><ele>214.0</ele><time>2026-04-18T08:53:23Z</time></trkpt><trkpt lat="43.99760867185965" lon="8.036681440107925"><ele>214.5</ele><time>2026-04-18T08:53:24Z</time></trkpt><trkpt lat="43.997586723636175" lon="8.036516484727725"><ele>215.0</ele><time>2026-04-18T08:53:25Z</time></trkpt><trkpt lat="43.997542485041436" lon="8.036374089408367"><ele>215.5</ele><time>2026-04-18T08:53:26Z</time></trkpt><trkpt lat="43.997459401115734" lon="8.036251279817083"><ele>216.0</ele><time>2026-04-18T08:53:27Z</time></trkpt><trkpt lat="43.99735812932736" lon="8.03615322326008"><ele>219.60000000000002</ele><time>2026-04-18T08:53:28Z</time></trkpt><trkpt lat="43.99727395583264" lon="8.036054180736475"><ele>223.20000000000002</ele><time>2026-04-18T08:53:29Z</time></trkpt><trkpt lat="43.997193703040814" lon="8.035992980565853"><ele>226.79999999999998</ele><time>2026-04-18T08:53:30Z</time></trkpt><trkpt lat="43.997093041673544" lon="8.035984645320408"><ele>230.39999999999998</ele><time>2026-04-18T08:53:31Z</time></trkpt><trkpt lat="43.99698001456871" lon="8.036004919493067"><ele>234.0</ele><time>2026-04-18T08:53:32Z</time></trkpt><trkpt lat="43.996847570152724" lon="8.036018840652453"><ele>234.0</ele><time>2026-04-18T08:53:33Z</time></trkpt><trkpt lat="43.9967257625438" lon="8.035990107078213"><ele>234.0</ele><time>2026-04-18T08:53:34Z</time></trkpt><trkpt lat="43.996613337691784" lon="8.035896387524868"><ele>234.0</ele><time>2026-04-18T08:53:35Z</time></trkpt><trkpt lat="43.996507390454745" lon="8.035814756838466"><ele>234.0</ele><time>2026-04-18T08:53:36Z</time></trkpt><trkpt lat="43.99638945977361" lon="8.03578671241026"><ele>237.79999999999998</ele><time>2026-04-18T08:53:37Z</time></trkpt><trkpt lat="43.99628866871048" lon="8.03579604614551"><ele>241.59999999999997</ele><time>2026-04-18T08:53:38Z</time></trkpt><trkpt lat="43.996212556564316" lon="8.03579070230285"><ele>245.4</ele><time>2026-04-18T08:53:39Z</time></trkpt><trkpt lat="43.996142449694794" lon="8.03566728555754"><ele>249.2</ele><time>2026-04-18T08:53:41Z</time></trkpt><trkpt lat="43.996153208815656" lon="8.035558815979428"><ele>253.0</ele><time>2026-04-18T08:53:42Z</time></trkpt><trkpt lat="43.99620311452109" lon="8.035468127013587"><ele>253.0</ele><time>2026-04-18T08:53:43Z</time></trkpt><trkpt lat="43.9963012227027" lon="8.035412915931335"><ele>253.0</ele><time>2026-04-18T08:53:44Z</time></trkpt><trkpt lat="43.99641457222392" lon="8.035312384043495"><ele>253.0</ele><time>2026-04-18T08:53:45Z</time></trkpt><trkpt lat="43.99655536582371" lon="8.035229306485787"><ele>253.0</ele><time>2026-04-18T08:53:46Z</time></trkpt><trkpt lat="43.99668448708269" lon="8.035142278354341"><ele>252.0</ele><time>2026-04-18T08:53:47Z</time></trkpt><trkpt lat="43.99680432343893" lon="8.035054474485708"><ele>251.0</ele><time>2026-04-18T08:53:48Z</time></trkpt><trkpt lat="43.99691955718491" lon="8.03497216766344"><ele>250.0</ele><time>2026-04-18T08:53:49Z</time></trkpt><trkpt lat="43.997019082010596" lon="8.034892352374257"><ele>249.0</ele><time>2026-04-18T08:53:50Z</time></trkpt><trkpt lat="43.99710661212684" lon="8.034820360064275"><ele>249.0</ele><time>2026-04-18T08:53:51Z</time></trkpt><trkpt lat="43.997171555852745" lon="8.034732783168343"><ele>248.99999999999997</ele><time>2026-04-18T08:53:52Z</time></trkpt><trkpt lat="43.997210335975446" lon="8.034618791598904"><ele>248.99999999999997</ele><time>2026-04-18T08:53:53Z</time></trkpt><trkpt lat="43.9972106544535" lon="8.034491540834265"><ele>249.0</ele><time>2026-04-18T08:53:54Z</time></trkpt><trkpt lat="43.9971905787357" lon="8.034346036228243"><ele>249.0</ele><time>2026-04-18T08:53:55Z</time></trkpt><trkpt lat="43.9971460789809" lon="8.034196614462326"><ele>250.5</ele><time>2026-04-18T08:53:56Z</time></trkpt><trkpt lat="43.99708910208508" lon="8.034056256569462"><ele>252.0</ele><time>2026-04-18T08:53:57Z</time></trkpt><trkpt lat="43.997075777976946" lon="8.033921159150346"><ele>253.5</ele><time>2026-04-18T08:53:58Z</time></trkpt><trkpt lat="43.99706670612868" lon="8.033812779408779"><ele>255.0</ele><time>2026-04-18T08:53:59Z</time></trkpt><trkpt lat="43.99709422598775" lon="8.033714023715643"><ele>256.5</ele><time>2026-04-18T08:54:00Z</time></trkpt><trkpt lat="43.99716060171913" lon="8.033661555655616"><ele>258.0</ele><time>2026-04-18T08:54:01Z</time></trkpt><trkpt lat="43.99723654831807" lon="8.033634075678474"><ele>258.0</ele><time>2026-04-18T08:54:02Z</time></trkpt><trkpt lat="43.99732157103306" lon="8.033573292520405"><ele>258.0</ele><time>2026-04-18T08:54:03Z</time></trkpt><trkpt lat="43.99740122074697" lon="8.033502466262796"><ele>258.0</ele><time>2026-04-18T08:54:04Z</time></trkpt><trkpt lat="43.99745800859807" lon="8.03340745325362"><ele>258.0</ele><time>2026-04-18T08:54:05Z</time></trkpt><trkpt lat="43.99750701515932" lon="8.033282667119453"><ele>258.0</ele><time>2026-04-18T08:54:06Z</time></trkpt><trkpt lat="43.99755556477699" lon="8.033128778137522"><ele>253.2</ele><time>2026-04-18T08:54:07Z</time></trkpt><trkpt lat="43.99760451664886" lon="8.032989531585105"><ele>248.4</ele><time>2026-04-18T08:54:08Z</time></trkpt><trkpt lat="43.99764147887006" lon="8.032866238891266"><ele>243.59999999999997</ele><time>2026-04-18T08:54:09Z</time></trkpt><trkpt lat="43.99765317530076" lon="8.03274347949038"><ele>238.79999999999998</ele><time>2026-04-18T08:54:10Z</time></trkpt><trkpt lat="43.99763934322788" lon="8.032630786893368"><ele>234.0</ele><time>2026-04-18T08:54:11Z</time></trkpt><trkpt lat="43.997594494640474" lon="8.032531531197408"><ele>234.2</ele><time>2026-04-18T08:54:12Z</time></trkpt><trkpt lat="43.99750697831203" lon="8.032449112599293"><ele>234.39999999999998</ele><time>2026-04-18T08:54:13Z</time></trkpt><trkpt lat="43.997420928858595" lon="8.032354944139847"><ele>234.6</ele><time>2026-04-18T08:54:14Z</time></trkpt><trkpt lat="43.99737008158651" lon="8.032238150337689"><ele>234.8</ele><time>2026-04-18T08:54:15Z</time></trkpt><trkpt lat="43.99732135894892" lon="8.032141843773172"><ele>235.0</ele><time>2026-04-18T08:54:16Z</time></trkpt><trkpt lat="43.997350749158244" lon="8.032030718736824"><ele>235.0</ele><time>2026-04-18T08:54:17Z</time></trkpt><trkpt lat="43.99740909495233" lon="8.031955309597501"><ele>235.0</ele><time>2026-04-18T08:54:18Z</time></trkpt><trkpt lat="43.99745796473091" lon="8.03183369678997"><ele>235.0</ele><time>2026-04-18T08:54:19Z</time></trkpt><trkpt lat="43.99750740757325" lon="8.031718777499778"><ele>235.0</ele><time>2026-04-18T08:54:20Z</time></trkpt><trkpt lat="43.997506016937955" lon="8.031570586852448"><ele>235.0</ele><time>2026-04-18T08:54:21Z</time></trkpt><trkpt lat="43.99747567545588" lon="8.031395185717088"><ele>241.5</ele><time>2026-04-18T08:54:22Z</time></trkpt><trkpt lat="43.997436542951824" lon="8.031225560516292"><ele>248.0</ele><time>2026-04-18T08:54:23Z</time></trkpt><trkpt lat="43.9974085326992" lon="8.031049571906685"><ele>254.5</ele><time>2026-04-18T08:54:24Z</time></trkpt><trkpt lat="43.99734416706001" lon="8.030839490005004"><ele>261.0</ele><time>2026-04-18T08:54:25Z</time></trkpt><trkpt lat="43.997315659002155" lon="8.030634462433946"><ele>261.2</ele><time>2026-04-18T08:54:26Z</time></trkpt><trkpt lat="43.99726571158291" lon="8.030453550613952"><ele>261.40000000000003</ele><time>2026-04-18T08:54:27Z</time></trkpt><trkpt lat="43.997247236960796" lon="8.03029737705555"><ele>261.6</ele><time>2026-04-18T08:54:28Z</time></trkpt><trkpt lat="43.99721113737471" lon="8.03017666961499"><ele>261.8</ele><time>2026-04-18T08:54:29Z</time></trkpt><trkpt lat="43.997186796499285" lon="8.030064535084694"><ele>262.0</ele><time>2026-04-18T08:54:30Z</time></trkpt><trkpt lat="43.997170242263806" lon="8.029955649535864"><ele>261.2</ele><time>2026-04-18T08:54:31Z</time></trkpt><trkpt lat="43.99720692171834" lon="8.02985924075586"><ele>260.4</ele><time>2026-04-18T08:54:32Z</time></trkpt><trkpt lat="43.99725371559646" lon="8.029758351675218"><ele>259.6</ele><time>2026-04-18T08:54:33Z</time></trkpt><trkpt lat="43.99733742714391" lon="8.029687501461655"><ele>258.8</ele><time>2026-04-18T08:54:34Z</time></trkpt><trkpt lat="43.997443800061376" lon="8.029598223690668"><ele>258.0</ele><time>2026-04-18T08:54:35Z</time></trkpt><trkpt lat="43.99755169918792" lon="8.029479976472858"><ele>258.0</ele><time>2026-04-18T08:54:36Z</time></trkpt><trkpt lat="43.997661415463895" lon="8.029379358714309"><ele>258.0</ele><time>2026-04-18T08:54:37Z</time></trkpt><trkpt lat="43.99776271334088" lon="8.029269373552268"><ele>258.0</ele><time>2026-04-18T08:54:38Z</time></trkpt><trkpt lat="43.99784988708638" lon="8.029136154256712"><ele>258.0</ele><time>2026-04-18T08:54:39Z</time></trkpt><trkpt lat="43.99792012526012" lon="8.028980200097923"><ele>260.6666666666667</ele><time>2026-04-18T08:54:40Z</time></trkpt><trkpt lat="43.997997864741656" lon="8.028808925259447"><ele>263.33333333333337</ele><time>2026-04-18T08:54:41Z</time></trkpt><trkpt lat="43.998075835696724" lon="8.028620822313494"><ele>266.0</ele><time>2026-04-18T08:54:42Z</time></trkpt><trkpt lat="43.99815638212674" lon="8.02844740338202"><ele>268.25</ele><time>2026-04-18T08:54:43Z</time></trkpt><trkpt lat="43.99823418082464" lon="8.028292591711113"><ele>270.5</ele><time>2026-04-18T08:54:44Z</time></trkpt><trkpt lat="43.998312401161634" lon="8.028145025544786"><ele>272.75</ele><time>2026-04-18T08:54:45Z</time></trkpt><trkpt lat="43.99836797271162" lon="8.028014241401232"><ele>275.0</ele><time>2026-04-18T08:54:46Z</time></trkpt><trkpt lat="43.99840422363093" lon="8.02788828402562"><ele>275.0</ele><time>2026-04-18T08:54:47Z</time></trkpt><trkpt lat="43.99842913260786" lon="8.027789527184492"><ele>275.0</ele><time>2026-04-18T08:54:48Z</time></trkpt><trkpt lat="43.998484507624326" lon="8.027728667055264"><ele>275.0</ele><time>2026-04-18T08:54:49Z</time></trkpt><trkpt lat="43.9985516435695" lon="8.027683735377163"><ele>275.0</ele><time>2026-04-18T08:54:50Z</time></trkpt><trkpt lat="43.99864410462471" lon="8.027724951859067"><ele>275.0</ele><time>2026-04-18T08:54:51Z</time></trkpt><trkpt lat="43.998753424433026" lon="8.027742428130452"><ele>275.0</ele><time>2026-04-18T08:54:52Z</time></trkpt><trkpt lat="43.998878902348224" lon="8.027743480166432"><ele>275.0</ele><time>2026-04-18T08:54:53Z</time></trkpt><trkpt lat="43.99899920443984" lon="8.027787638817141"><ele>275.0</ele><time>2026-04-18T08:54:54Z</time></trkpt><trkpt lat="43.99910783831658" lon="8.027809194763309"><ele>275.0</ele><time>2026-04-18T08:54:55Z</time></trkpt><trkpt lat="43.99920937579837" lon="8.027833041262102"><ele>275.0</ele><time>2026-04-18T08:54:56Z</time></trkpt><trkpt lat="43.99930014249016" lon="8.027857848205871"><ele>275.0</ele><time>2026-04-18T08:54:57Z</time></trkpt><trkpt lat="43.999365564076285" lon="8.027936131591394"><ele>279.0</ele><time>2026-04-18T08:54:58Z</time></trkpt><trkpt lat="43.9993848417946" lon="8.028059171511465"><ele>283.0</ele><time>2026-04-18T08:54:59Z</time></trkpt><trkpt lat="43.99941517564067" lon="8.02820338814925"><ele>287.0</ele><time>2026-04-18T08:55:00Z</time></trkpt><trkpt lat="43.99944912819266" lon="8.028369363678037"><ele>291.0</ele><time>2026-04-18T08:55:01Z</time></trkpt><trkpt lat="43.99946256214458" lon="8.028540757152015"><ele>295.0</ele><time>2026-04-18T08:55:02Z</time></trkpt><trkpt lat="43.999469990062245" lon="8.028703208482428"><ele>295.0</ele><time>2026-04-18T08:55:03Z</time></trkpt><trkpt lat="43.99947064275609" lon="8.028855578557142"><ele>295.0</ele><time>2026-04-18T08:55:04Z</time></trkpt><trkpt lat="43.99945244579666" lon="8.029001264382671"><ele>295.0</ele><time>2026-04-18T08:55:05Z</time></trkpt><trkpt lat="43.99940551316251" lon="8.029139203622183"><ele>295.0</ele><time>2026-04-18T08:55:06Z</time></trkpt><trkpt lat="43.999364940550805" lon="8.029283019684543"><ele>295.0</ele><time>2026-04-18T08:55:07Z</time></trkpt><trkpt lat="43.99934276686736" lon="8.029417407610048"><ele>293.0</ele><time>2026-04-18T08:55:08Z</time></trkpt><trkpt lat="43.99932834531562" lon="8.029548013551727"><ele>291.0</ele><time>2026-04-18T08:55:09Z</time></trkpt><trkpt lat="43.99929946801901" lon="8.029653567927308"><ele>289.0</ele><time>2026-04-18T08:55:10Z</time></trkpt><trkpt lat="43.99931021001642" lon="8.029762603542709"><ele>287.0</ele><time>2026-04-18T08:55:11Z</time></trkpt><trkpt lat="43.99933419098194" lon="8.029856293752545"><ele>285.0</ele><time>2026-04-18T08:55:12Z</time></trkpt><trkpt lat="43.99936872445468" lon="8.02994663121062"><ele>283.0</ele><time>2026-04-18T08:55:13Z</time></trkpt><trkpt lat="43.99943837028111" lon="8.029983915746728"><ele>283.0</ele><time>2026-04-18T08:55:14Z</time></trkpt><trkpt lat="43.99952240813898" lon="8.029980582890532"><ele>283.0</ele><time>2026-04-18T08:55:15Z</time></trkpt><trkpt lat="43.999620806092175" lon="8.029911488714498"><ele>283.0</ele><time>2026-04-18T08:55:16Z</time></trkpt><trkpt lat="43.999719351733496" lon="8.029879087564929"><ele>283.0</ele><time>2026-04-18T08:55:17Z</time></trkpt><trkpt lat="43.999778923862344" lon="8.029847057806155"><ele>283.0</ele><time>2026-04-18T08:55:18Z</time></trkpt><trkpt lat="43.99988890878798" lon="8.029853887720021"><ele>283.0</ele><time>2026-04-18T08:55:20Z</time></trkpt><trkpt lat="43.99992922460378" lon="8.02994920697245"><ele>283.0</ele><time>2026-04-18T08:55:21Z</time></trkpt><trkpt lat="43.99993577097494" lon="8.030066539800181"><ele>283.0</ele><time>2026-04-18T08:55:22Z</time></trkpt><trkpt lat="43.99997609265378" lon="8.030211403550847"><ele>283.0</ele><time>2026-04-18T08:55:23.001Z</time></trkpt><trkpt lat="44.00000956443879" lon="8.030379757574647"><ele>283.0</ele><time>2026-04-18T08:55:24.001Z</time></trkpt><trkpt lat="44.00005143410799" lon="8.03053999719261"><ele>280.8</ele><time>2026-04-18T08:55:25.001Z</time></trkpt><trkpt lat="44.00009663569468" lon="8.030696867571336"><ele>278.6</ele><time>2026-04-18T08:55:26.001Z</time></trkpt><trkpt lat="44.00015570653708" lon="8.030823269965337"><ele>276.4</ele><time>2026-04-18T08:55:27.001Z</time></trkpt><trkpt lat="44.00020001259353" lon="8.030932815557598"><ele>274.2</ele><time>2026-04-18T08:55:28.001Z</time></trkpt><trkpt lat="44.00022612477987" lon="8.031036369116105"><ele>272.0</ele><time>2026-04-18T08:55:29.001Z</time></trkpt><trkpt lat="44.00019102250648" lon="8.03115413828911"><ele>270.8</ele><time>2026-04-18T08:55:30.001Z</time></trkpt><trkpt lat="44.0001453322273" lon="8.031268572866688"><ele>269.6</ele><time>2026-04-18T08:55:31.001Z</time></trkpt><trkpt lat="44.00012544683747" lon="8.031410817999584"><ele>268.40000000000003</ele><time>2026-04-18T08:55:32.001Z</time></trkpt><trkpt lat="44.00012458839749" lon="8.031534774529726"><ele>267.2</ele><time>2026-04-18T08:55:33.001Z</time></trkpt><trkpt lat="44.00016498450997" lon="8.031679055946016"><ele>266.0</ele><time>2026-04-18T08:55:34Z</time></trkpt><trkpt lat="44.00021362120838" lon="8.031821385540402"><ele>265.5</ele><time>2026-04-18T08:55:35Z</time></trkpt><trkpt lat="44.00027035064376" lon="8.031990939872617"><ele>265.0</ele><time>2026-04-18T08:55:36Z</time></trkpt><trkpt lat="44.000326314440294" lon="8.03215431573271"><ele>264.5</ele><time>2026-04-18T08:55:37Z</time></trkpt><trkpt lat="44.00039731879221" lon="8.032318562465848"><ele>264.0</ele><time>2026-04-18T08:55:38Z</time></trkpt><trkpt lat="44.00048984812028" lon="8.032482278267592"><ele>262.5</ele><time>2026-04-18T08:55:39Z</time></trkpt><trkpt lat="44.00057216865302" lon="8.032648747473306"><ele>261.0</ele><time>2026-04-18T08:55:40Z</time></trkpt><trkpt lat="44.00065744305431" lon="8.032800312237102"><ele>259.5</ele><time>2026-04-18T08:55:41Z</time></trkpt><trkpt lat="44.00072942067953" lon="8.032960559894606"><ele>258.0</ele><time>2026-04-18T08:55:42Z</time></trkpt><trkpt lat="44.000793767638406" lon="8.033135749111759"><ele>264.0</ele><time>2026-04-18T08:55:43Z</time></trkpt><trkpt lat="44.000853481967" lon="8.033315734481143"><ele>270.0</ele><time>2026-04-18T08:55:44Z</time></trkpt><trkpt lat="44.000925815023045" lon="8.033494569013754"><ele>276.0</ele><time>2026-04-18T08:55:45Z</time></trkpt><trkpt lat="44.001028879568786" lon="8.033656446677838"><ele>282.0</ele><time>2026-04-18T08:55:46Z</time></trkpt><trkpt lat="44.001110349927295" lon="8.033826617994515"><ele>282.0</ele><time>2026-04-18T08:55:47Z</time></trkpt><trkpt lat="44.00118152542595" lon="8.033984488036635"><ele>282.0</ele><time>2026-04-18T08:55:48Z</time></trkpt><trkpt lat="44.00122792904308" lon="8.034155905689467"><ele>282.0</ele><time>2026-04-18T08:55:49Z</time></trkpt><trkpt lat="44.00126468864278" lon="8.034321562784818"><ele>282.0</ele><time>2026-04-18T08:55:50Z</time></trkpt><trkpt lat="44.00131018431993" lon="8.034459400769748"><ele>280.0</ele><time>2026-04-18T08:55:51Z</time></trkpt><trkpt lat="44.00133718226557" lon="8.034607403785927"><ele>278.0</ele><time>2026-04-18T08:55:52Z</time></trkpt><trkpt lat="44.001384205202484" lon="8.03473993119172"><ele>276.0</ele><time>2026-04-18T08:55:53Z</time></trkpt><trkpt lat="44.00145092555887" lon="8.034877219965969"><ele>274.0</ele><time>2026-04-18T08:55:54Z</time></trkpt><trkpt lat="44.001538342182315" lon="8.035001911980137"><ele>273.5</ele><time>2026-04-18T08:55:55Z</time></trkpt><trkpt lat="44.00162415993852" lon="8.03515853289931"><ele>273.0</ele><time>2026-04-18T08:55:56Z</time></trkpt><trkpt lat="44.0017234768558" lon="8.035300892744576"><ele>272.5</ele><time>2026-04-18T08:55:57Z</time></trkpt><trkpt lat="44.00182502454973" lon="8.035444712042825"><ele>272.0</ele><time>2026-04-18T08:55:58Z</time></trkpt><trkpt lat="44.001926620850114" lon="8.035592202251346"><ele>275.0</ele><time>2026-04-18T08:55:59Z</time></trkpt><trkpt lat="44.002024993731524" lon="8.035734496493548"><ele>278.0</ele><time>2026-04-18T08:56:00Z</time></trkpt><trkpt lat="44.002118491088176" lon="8.035866721281868"><ele>281.0</ele><time>2026-04-18T08:56:01Z</time></trkpt><trkpt lat="44.002197261746964" lon="8.0359781195255"><ele>284.0</ele><time>2026-04-18T08:56:02Z</time></trkpt><trkpt lat="44.00225778881021" lon="8.036068029663793"><ele>284.0</ele><time>2026-04-18T08:56:03Z</time></trkpt><trkpt lat="44.002304033692305" lon="8.036145330492143"><ele>284.0</ele><time>2026-04-18T08:56:04Z</time></trkpt><trkpt lat="44.002339369724965" lon="8.03629602871516"><ele>284.0</ele><time>2026-04-18T08:56:06Z</time></trkpt><trkpt lat="44.002298736608886" lon="8.036390634568498"><ele>284.0</ele><time>2026-04-18T08:56:07Z</time></trkpt><trkpt lat="44.00223667051568" lon="8.036473465420475"><ele>284.0</ele><time>2026-04-18T08:56:08Z</time></trkpt><trkpt lat="44.002184421458686" lon="8.036572889713772"><ele>284.0</ele><time>2026-04-18T08:56:09Z</time></trkpt><trkpt lat="44.00217007357635" lon="8.036688264291987"><ele>283.4</ele><time>2026-04-18T08:56:10Z</time></trkpt><trkpt lat="44.0021684054436" lon="8.03680327476849"><ele>282.79999999999995</ele><time>2026-04-18T08:56:11Z</time></trkpt><trkpt lat="44.0022436907782" lon="8.036905981507848"><ele>282.20000000000005</ele><time>2026-04-18T08:56:12Z</time></trkpt><trkpt lat="44.00230828508589" lon="8.037019461411402"><ele>281.6</ele><time>2026-04-18T08:56:13Z</time></trkpt><trkpt lat="44.00241083760323" lon="8.037057119115467"><ele>281.0</ele><time>2026-04-18T08:56:14Z</time></trkpt><trkpt lat="44.0025088274049" lon="8.037089994219356"><ele>285.8</ele><time>2026-04-18T08:56:15Z</time></trkpt><trkpt lat="44.00261408863388" lon="8.03707972805815"><ele>290.6</ele><time>2026-04-18T08:56:16Z</time></trkpt><trkpt lat="44.00272332187371" lon="8.037105070813956"><ele>295.4</ele><time>2026-04-18T08:56:17Z</time></trkpt><trkpt lat="44.0028154167043" lon="8.037126399512301"><ele>300.2</ele><time>2026-04-18T08:56:18Z</time></trkpt><trkpt lat="44.00288131556179" lon="8.037177430425393"><ele>305.0</ele><time>2026-04-18T08:56:19Z</time></trkpt><trkpt lat="44.00291520745573" lon="8.037273501459682"><ele>305.0</ele><time>2026-04-18T08:56:20Z</time></trkpt><trkpt lat="44.00292848755647" lon="8.037386641015003"><ele>305.0</ele><time>2026-04-18T08:56:21Z</time></trkpt><trkpt lat="44.00289964120258" lon="8.03749120822441"><ele>305.0</ele><time>2026-04-18T08:56:22Z</time></trkpt><trkpt lat="44.002892341516166" lon="8.037609681811405"><ele>305.0</ele><time>2026-04-18T08:56:23Z</time></trkpt><trkpt lat="44.0028961377667" lon="8.037702217385648"><ele>305.0</ele><time>2026-04-18T08:56:24Z</time></trkpt><trkpt lat="44.00295274291037" lon="8.037803084466944"><ele>305.0</ele><time>2026-04-18T08:56:25Z</time></trkpt><trkpt lat="44.00306899971637" lon="8.037845046050291"><ele>304.75</ele><time>2026-04-18T08:56:26Z</time></trkpt><trkpt lat="44.00315807745711" lon="8.037933294331896"><ele>304.5</ele><time>2026-04-18T08:56:27Z</time></trkpt><trkpt lat="44.003258258017866" lon="8.038005850501897"><ele>304.25</ele><time>2026-04-18T08:56:28Z</time></trkpt><trkpt lat="44.00336648110625" lon="8.038085422609774"><ele>304.0</ele><time>2026-04-18T08:56:29Z</time></trkpt><trkpt lat="44.0034791093329" lon="8.038172901616536"><ele>306.0</ele><time>2026-04-18T08:56:30Z</time></trkpt><trkpt lat="44.00358732818761" lon="8.03826015449006"><ele>308.0</ele><time>2026-04-18T08:56:31Z</time></trkpt><trkpt lat="44.00368830181813" lon="8.038351698226483"><ele>310.0</ele><time>2026-04-18T08:56:32Z</time></trkpt><trkpt lat="44.00377409484033" lon="8.038453832197499"><ele>312.0</ele><time>2026-04-18T08:56:33Z</time></trkpt><trkpt lat="44.00385915664998" lon="8.038581313642185"><ele>312.0</ele><time>2026-04-18T08:56:34Z</time></trkpt><trkpt lat="44.0039294885889" lon="8.038692441209102"><ele>312.0</ele><time>2026-04-18T08:56:35Z</time></trkpt><trkpt lat="44.003980894734106" lon="8.038836120327773"><ele>312.0</ele><time>2026-04-18T08:56:36Z</time></trkpt><trkpt lat="44.0040204755164" lon="8.038989481079614"><ele>312.0</ele><time>2026-04-18T08:56:37Z</time></trkpt><trkpt lat="44.004040492227816" lon="8.039162445093352"><ele>309.4</ele><time>2026-04-18T08:56:38Z</time></trkpt><trkpt lat="44.0040748490949" lon="8.03933508081708"><ele>306.79999999999995</ele><time>2026-04-18T08:56:39Z</time></trkpt><trkpt lat="44.00410659533899" lon="8.039488029181515"><ele>304.2</ele><time>2026-04-18T08:56:40Z</time></trkpt><trkpt lat="44.004146891197365" lon="8.039624292887986"><ele>301.59999999999997</ele><time>2026-04-18T08:56:41Z</time></trkpt><trkpt lat="44.004154091583565" lon="8.039757877400737"><ele>299.0</ele><time>2026-04-18T08:56:42Z</time></trkpt><trkpt lat="44.00413175471685" lon="8.03987793912986"><ele>299.0</ele><time>2026-04-18T08:56:43Z</time></trkpt><trkpt lat="44.00409785305031" lon="8.03999573087633"><ele>299.0</ele><time>2026-04-18T08:56:44Z</time></trkpt><trkpt lat="44.004093003767125" lon="8.040143174535316"><ele>299.0</ele><time>2026-04-18T08:56:46Z</time></trkpt><trkpt lat="44.00414245527886" lon="8.040202729792146"><ele>299.0</ele><time>2026-04-18T08:56:47Z</time></trkpt><trkpt lat="44.00422555477451" lon="8.040212825208375"><ele>299.0</ele><time>2026-04-18T08:56:48Z</time></trkpt><trkpt lat="44.00429999849447" lon="8.04009320275651"><ele>306.5</ele><time>2026-04-18T08:56:49Z</time></trkpt><trkpt lat="44.00430906813276" lon="8.03994847784581"><ele>314.0</ele><time>2026-04-18T08:56:50Z</time></trkpt><trkpt lat="44.00432701031262" lon="8.039798339709224"><ele>321.5</ele><time>2026-04-18T08:56:51Z</time></trkpt><trkpt lat="44.00434422242026" lon="8.039607701741188"><ele>329.0</ele><time>2026-04-18T08:56:52Z</time></trkpt><trkpt lat="44.00434900570592" lon="8.03939425281875"><ele>329.0</ele><time>2026-04-18T08:56:53Z</time></trkpt><trkpt lat="44.00433701799578" lon="8.039191200637742"><ele>329.0</ele><time>2026-04-18T08:56:54Z</time></trkpt><trkpt lat="44.004326397999414" lon="8.038984960993977"><ele>329.0</ele><time>2026-04-18T08:56:55Z</time></trkpt><trkpt lat="44.00430374571332" lon="8.03879726966436"><ele>329.0</ele><time>2026-04-18T08:56:56Z</time></trkpt><trkpt lat="44.004282358393155" lon="8.038628375578472"><ele>330.0</ele><time>2026-04-18T08:56:57Z</time></trkpt><trkpt lat="44.00425133943617" lon="8.038473842332841"><ele>331.0</ele><time>2026-04-18T08:56:58Z</time></trkpt><trkpt lat="44.00422113702237" lon="8.038331956946202"><ele>332.0</ele><time>2026-04-18T08:56:59Z</time></trkpt><trkpt lat="44.004194529786" lon="8.03819369687295"><ele>333.0</ele><time>2026-04-18T08:57:00Z</time></trkpt><trkpt lat="44.004179567102156" lon="8.03804288630584"><ele>334.0</ele><time>2026-04-18T08:57:01Z</time></trkpt><trkpt lat="44.004181166034115" lon="8.037884992684187"><ele>335.0</ele><time>2026-04-18T08:57:02Z</time></trkpt><trkpt lat="44.00419377919471" lon="8.037727190003586"><ele>336.0</ele><time>2026-04-18T08:57:03Z</time></trkpt><trkpt lat="44.0042072198141" lon="8.037568355411297"><ele>337.0</ele><time>2026-04-18T08:57:04Z</time></trkpt><trkpt lat="44.00424683218522" lon="8.037419228557546"><ele>338.0</ele><time>2026-04-18T08:57:05Z</time></trkpt><trkpt lat="44.00428269753042" lon="8.037270157562196"><ele>338.5</ele><time>2026-04-18T08:57:06Z</time></trkpt><trkpt lat="44.00431902544462" lon="8.037126980165988"><ele>339.0</ele><time>2026-04-18T08:57:07Z</time></trkpt><trkpt lat="44.004327701536205" lon="8.036972297307198"><ele>339.5</ele><time>2026-04-18T08:57:08Z</time></trkpt><trkpt lat="44.004339460275226" lon="8.036816670354401"><ele>340.0</ele><time>2026-04-18T08:57:09Z</time></trkpt><trkpt lat="44.00434553721173" lon="8.03663986192942"><ele>341.75</ele><time>2026-04-18T08:57:10Z</time></trkpt><trkpt lat="44.00433730959815" lon="8.036459506549251"><ele>343.5</ele><time>2026-04-18T08:57:11Z</time></trkpt><trkpt lat="44.00432650030727" lon="8.036280025083318"><ele>345.25</ele><time>2026-04-18T08:57:12Z</time></trkpt><trkpt lat="44.004289652165475" lon="8.036103363455231"><ele>347.0</ele><time>2026-04-18T08:57:13Z</time></trkpt><trkpt lat="44.004265813316344" lon="8.03593050461679"><ele>345.25</ele><time>2026-04-18T08:57:14Z</time></trkpt><trkpt lat="44.00423078117832" lon="8.035765353059773"><ele>343.5</ele><time>2026-04-18T08:57:15Z</time></trkpt><trkpt lat="44.00418671553718" lon="8.03560469423438"><ele>341.75</ele><time>2026-04-18T08:57:16Z</time></trkpt><trkpt lat="44.00414460612018" lon="8.035453976356017"><ele>340.0</ele><time>2026-04-18T08:57:17Z</time></trkpt><trkpt lat="44.00408949124354" lon="8.035321084234432"><ele>340.0</ele><time>2026-04-18T08:57:18Z</time></trkpt><trkpt lat="44.004016281529864" lon="8.03520235960184"><ele>340.0</ele><time>2026-04-18T08:57:19Z</time></trkpt><trkpt lat="44.00393532544606" lon="8.03509019657287"><ele>340.0</ele><time>2026-04-18T08:57:20Z</time></trkpt><trkpt lat="44.003849361575945" lon="8.03499289398892"><ele>340.0</ele><time>2026-04-18T08:57:21Z</time></trkpt><trkpt lat="44.00376023400653" lon="8.034906366848091"><ele>340.0</ele><time>2026-04-18T08:57:22Z</time></trkpt><trkpt lat="44.00367749927979" lon="8.034813194579469"><ele>342.6</ele><time>2026-04-18T08:57:23Z</time></trkpt><trkpt lat="44.00361832226372" lon="8.034708454784866"><ele>345.2</ele><time>2026-04-18T08:57:24.001Z</time></trkpt><trkpt lat="44.003583774872034" lon="8.034577417576541"><ele>347.79999999999995</ele><time>2026-04-18T08:57:25.001Z</time></trkpt><trkpt lat="44.003570260765045" lon="8.034436058716581"><ele>350.4</ele><time>2026-04-18T08:57:26.001Z</time></trkpt><trkpt lat="44.00357106174249" lon="8.034290413544143"><ele>353.0</ele><time>2026-04-18T08:57:27.001Z</time></trkpt><trkpt lat="44.0035846975513" lon="8.03413809584842"><ele>355.0</ele><time>2026-04-18T08:57:28.001Z</time></trkpt><trkpt lat="44.003574946804946" lon="8.03397940781812"><ele>357.0</ele><time>2026-04-18T08:57:29.001Z</time></trkpt><trkpt lat="44.0035563208106" lon="8.03382003279731"><ele>359.0</ele><time>2026-04-18T08:57:30.001Z</time></trkpt><trkpt lat="44.00351612485095" lon="8.03365452845792"><ele>361.0</ele><time>2026-04-18T08:57:31.001Z</time></trkpt><trkpt lat="44.003479498651515" lon="8.033475689925298"><ele>362.75</ele><time>2026-04-18T08:57:32.001Z</time></trkpt><trkpt lat="44.003430690398304" lon="8.03329218352004"><ele>364.5</ele><time>2026-04-18T08:57:33.001Z</time></trkpt><trkpt lat="44.00337503106328" lon="8.033099295375735"><ele>366.25</ele><time>2026-04-18T08:57:34.001Z</time></trkpt><trkpt lat="44.00332304101172" lon="8.032906499084154"><ele>368.0</ele><time>2026-04-18T08:57:35.001Z</time></trkpt><trkpt lat="44.00327357325669" lon="8.032713206056401"><ele>365.25</ele><time>2026-04-18T08:57:36.001Z</time></trkpt><trkpt lat="44.003231405252535" lon="8.032527863698618"><ele>362.5</ele><time>2026-04-18T08:57:37.001Z</time></trkpt><trkpt lat="44.00318218130174" lon="8.03235519378312"><ele>359.75</ele><time>2026-04-18T08:57:38.001Z</time></trkpt><trkpt lat="44.003117386430645" lon="8.03220195599426"><ele>357.0</ele><time>2026-04-18T08:57:39.001Z</time></trkpt><trkpt lat="44.00303309529215" lon="8.032073606545715"><ele>357.0</ele><time>2026-04-18T08:57:40Z</time></trkpt><trkpt lat="44.00294774403583" lon="8.03196308133506"><ele>357.0</ele><time>2026-04-18T08:57:41Z</time></trkpt><trkpt lat="44.0028723613501" lon="8.03186578794632"><ele>357.0</ele><time>2026-04-18T08:57:42Z</time></trkpt><trkpt lat="44.002814258948106" lon="8.031767599432564"><ele>357.0</ele><time>2026-04-18T08:57:43Z</time></trkpt><trkpt lat="44.00277944610925" lon="8.031656756512922"><ele>357.0</ele><time>2026-04-18T08:57:44Z</time></trkpt><trkpt lat="44.00276908945386" lon="8.031532131482436"><ele>358.5</ele><time>2026-04-18T08:57:45Z</time></trkpt><trkpt lat="44.002809462634865" lon="8.031402752516684"><ele>360.0</ele><time>2026-04-18T08:57:46Z</time></trkpt><trkpt lat="44.00283072415678" lon="8.031243653755475"><ele>361.5</ele><time>2026-04-18T08:57:47Z</time></trkpt><trkpt lat="44.00287822242366" lon="8.031088731136215"><ele>363.0</ele><time>2026-04-18T08:57:48Z</time></trkpt><trkpt lat="44.00290288094631" lon="8.030937071484223"><ele>364.59999999999997</ele><time>2026-04-18T08:57:49Z</time></trkpt><trkpt lat="44.00288715238661" lon="8.030795634839642"><ele>366.2</ele><time>2026-04-18T08:57:50Z</time></trkpt><trkpt lat="44.00283505874115" lon="8.030661990545937"><ele>367.8</ele><time>2026-04-18T08:57:51Z</time></trkpt><trkpt lat="44.00275657438176" lon="8.03054506322913"><ele>369.4</ele><time>2026-04-18T08:57:52Z</time></trkpt><trkpt lat="44.00268540075712" lon="8.030423978552708"><ele>371.0</ele><time>2026-04-18T08:57:53Z</time></trkpt><trkpt lat="44.0026373085215" lon="8.030287743538164"><ele>371.0</ele><time>2026-04-18T08:57:54Z</time></trkpt><trkpt lat="44.00260406819024" lon="8.030158159793677"><ele>371.0</ele><time>2026-04-18T08:57:55Z</time></trkpt><trkpt lat="44.00258895427636" lon="8.030038653828992"><ele>371.0</ele><time>2026-04-18T08:57:56Z</time></trkpt><trkpt lat="44.00259532779275" lon="8.029932749198032"><ele>371.0</ele><time>2026-04-18T08:57:57Z</time></trkpt><trkpt lat="44.00262907355942" lon="8.029833492044078"><ele>371.0</ele><time>2026-04-18T08:57:58Z</time></trkpt><trkpt lat="44.0026933354956" lon="8.029746096665372"><ele>371.0</ele><time>2026-04-18T08:57:59Z</time></trkpt><trkpt lat="44.00278169916543" lon="8.029672332883896"><ele>371.0</ele><time>2026-04-18T08:58:00Z</time></trkpt><trkpt lat="44.002867041506114" lon="8.029562493678203"><ele>371.0</ele><time>2026-04-18T08:58:01Z</time></trkpt><trkpt lat="44.002927838043696" lon="8.029426839965845"><ele>371.0</ele><time>2026-04-18T08:58:02Z</time></trkpt><trkpt lat="44.00296204653215" lon="8.029273889477507"><ele>371.0</ele><time>2026-04-18T08:58:03Z</time></trkpt><trkpt lat="44.002975684148886" lon="8.0290927180404"><ele>371.25</ele><time>2026-04-18T08:58:04Z</time></trkpt><trkpt lat="44.00296864572517" lon="8.02891642026334"><ele>371.5</ele><time>2026-04-18T08:58:05Z</time></trkpt><trkpt lat="44.00297833515115" lon="8.028731479084072"><ele>371.75</ele><time>2026-04-18T08:58:06Z</time></trkpt><trkpt lat="44.00296993757399" lon="8.02854579943398"><ele>372.0</ele><time>2026-04-18T08:58:07Z</time></trkpt><trkpt lat="44.002959724712944" lon="8.028358021971856"><ele>373.5</ele><time>2026-04-18T08:58:08Z</time></trkpt><trkpt lat="44.00294818167604" lon="8.028169690703194"><ele>375.0</ele><time>2026-04-18T08:58:09Z</time></trkpt><trkpt lat="44.00293233098359" lon="8.027973506814144"><ele>376.5</ele><time>2026-04-18T08:58:10Z</time></trkpt><trkpt lat="44.00291398227784" lon="8.027786380392252"><ele>378.0</ele><time>2026-04-18T08:58:11Z</time></trkpt><trkpt lat="44.0028929115934" lon="8.027608819308057"><ele>378.75</ele><time>2026-04-18T08:58:12Z</time></trkpt><trkpt lat="44.00287383444888" lon="8.027425613322398"><ele>379.5</ele><time>2026-04-18T08:58:13Z</time></trkpt><trkpt lat="44.00286640940772" lon="8.027225143471581"><ele>380.25</ele><time>2026-04-18T08:58:14Z</time></trkpt><trkpt lat="44.0028764981384" lon="8.027016800160927"><ele>381.0</ele><time>2026-04-18T08:58:15Z</time></trkpt><trkpt lat="44.00289124185731" lon="8.026808808899899"><ele>383.5</ele><time>2026-04-18T08:58:16Z</time></trkpt><trkpt lat="44.002906032335844" lon="8.026617682181824"><ele>386.0</ele><time>2026-04-18T08:58:17Z</time></trkpt><trkpt lat="44.0029271762094" lon="8.026453861785615"><ele>388.5</ele><time>2026-04-18T08:58:18Z</time></trkpt><trkpt lat="44.00294963836125" lon="8.026295281643504"><ele>391.0</ele><time>2026-04-18T08:58:19Z</time></trkpt><trkpt lat="44.002957437369574" lon="8.026144671817953"><ele>391.0</ele><time>2026-04-18T08:58:20Z</time></trkpt><trkpt lat="44.002927255817816" lon="8.025999627745543"><ele>391.0</ele><time>2026-04-18T08:58:21Z</time></trkpt><trkpt lat="44.00284558284524" lon="8.025860911256284"><ele>391.0</ele><time>2026-04-18T08:58:22Z</time></trkpt><trkpt lat="44.00277358599211" lon="8.02572157900944"><ele>391.0</ele><time>2026-04-18T08:58:23Z</time></trkpt><trkpt lat="44.00270619494631" lon="8.025555438737282"><ele>391.0</ele><time>2026-04-18T08:58:24Z</time></trkpt><trkpt lat="44.002617320916464" lon="8.025414786041681"><ele>391.0</ele><time>2026-04-18T08:58:25Z</time></trkpt><trkpt lat="44.00254632830959" lon="8.025244653078374"><ele>391.0</ele><time>2026-04-18T08:58:26Z</time></trkpt><trkpt lat="44.00247399051976" lon="8.025065195261401"><ele>391.0</ele><time>2026-04-18T08:58:27Z</time></trkpt><trkpt lat="44.00240499520083" lon="8.024893646743342"><ele>391.0</ele><time>2026-04-18T08:58:28Z</time></trkpt><trkpt lat="44.0023501023201" lon="8.024724032039844"><ele>391.0</ele><time>2026-04-18T08:58:29Z</time></trkpt><trkpt lat="44.002261731669634" lon="8.024606954438434"><ele>391.0</ele><time>2026-04-18T08:58:30Z</time></trkpt><trkpt lat="44.00219047062911" lon="8.024510998486267"><ele>391.0</ele><time>2026-04-18T08:58:31Z</time></trkpt><trkpt lat="44.00213130104016" lon="8.024425798823435"><ele>391.0</ele><time>2026-04-18T08:58:32Z</time></trkpt><trkpt lat="44.00210488552444" lon="8.024341030044964"><ele>391.0</ele><time>2026-04-18T08:58:33Z</time></trkpt><trkpt lat="44.002112565266884" lon="8.024244342510878"><ele>391.0</ele><time>2026-04-18T08:58:34Z</time></trkpt><trkpt lat="44.00217249593759" lon="8.024146389813893"><ele>391.0</ele><time>2026-04-18T08:58:35Z</time></trkpt><trkpt lat="44.002236739833066" lon="8.024043877694027"><ele>391.0</ele><time>2026-04-18T08:58:36Z</time></trkpt><trkpt lat="44.00231681052846" lon="8.023922303320926"><ele>391.0</ele><time>2026-04-18T08:58:37Z</time></trkpt><trkpt lat="44.00240047497478" lon="8.023793184026092"><ele>392.83333333333337</ele><time>2026-04-18T08:58:38Z</time></trkpt><trkpt lat="44.002474599559434" lon="8.023673158301794"><ele>394.6666666666667</ele><time>2026-04-18T08:58:39Z</time></trkpt><trkpt lat="44.0025416016028" lon="8.023566515269989"><ele>396.5</ele><time>2026-04-18T08:58:40Z</time></trkpt><trkpt lat="44.00259767112232" lon="8.023467534930928"><ele>398.33333333333337</ele><time>2026-04-18T08:58:41Z</time></trkpt><trkpt lat="44.00262822997122" lon="8.02337346625264"><ele>400.1666666666667</ele><time>2026-04-18T08:58:42Z</time></trkpt><trkpt lat="44.00261891882631" lon="8.02328441889751"><ele>402.0</ele><time>2026-04-18T08:58:43Z</time></trkpt><trkpt lat="44.00258190751801" lon="8.023201794531307"><ele>405.0</ele><time>2026-04-18T08:58:44Z</time></trkpt><trkpt lat="44.00249293418883" lon="8.023142858600172"><ele>408.0</ele><time>2026-04-18T08:58:45Z</time></trkpt><trkpt lat="44.002399251061114" lon="8.023123432145107"><ele>411.0</ele><time>2026-04-18T08:58:46Z</time></trkpt><trkpt lat="44.00228678701424" lon="8.02309277287396"><ele>414.0</ele><time>2026-04-18T08:58:47Z</time></trkpt><trkpt lat="44.002170590183496" lon="8.023058391594391"><ele>417.0</ele><time>2026-04-18T08:58:48Z</time></trkpt><trkpt lat="44.002050603013025" lon="8.02301734887916"><ele>417.0</ele><time>2026-04-18T08:58:49Z</time></trkpt><trkpt lat="44.001939360628995" lon="8.022986374230848"><ele>417.0</ele><time>2026-04-18T08:58:50Z</time></trkpt><trkpt lat="44.00185896408058" lon="8.022918725058844"><ele>417.0</ele><time>2026-04-18T08:58:51Z</time></trkpt><trkpt lat="44.0017827871152" lon="8.022883194010236"><ele>417.0</ele><time>2026-04-18T08:58:52Z</time></trkpt><trkpt lat="44.00172582029779" lon="8.022802282589991"><ele>417.0</ele><time>2026-04-18T08:58:53Z</time></trkpt><trkpt lat="44.00171525498758" lon="8.022690948341662"><ele>417.0</ele><time>2026-04-18T08:58:54Z</time></trkpt><trkpt lat="44.00172322862291" lon="8.022567965298308"><ele>417.0</ele><time>2026-04-18T08:58:55Z</time></trkpt><trkpt lat="44.00173263012756" lon="8.022439097629462"><ele>417.0</ele><time>2026-04-18T08:58:56Z</time></trkpt><trkpt lat="44.001712294160015" lon="8.022343579846826"><ele>417.0</ele><time>2026-04-18T08:58:57Z</time></trkpt><trkpt lat="44.00162743018497" lon="8.02219496482044"><ele>417.0</ele><time>2026-04-18T08:58:59Z</time></trkpt><trkpt lat="44.001535516994586" lon="8.022140448511022"><ele>419.0</ele><time>2026-04-18T08:59:00Z</time></trkpt><trkpt lat="44.00145874517763" lon="8.022072964219465"><ele>421.0</ele><time>2026-04-18T08:59:01Z</time></trkpt><trkpt lat="44.00140565990718" lon="8.021969643401151"><ele>423.00000000000006</ele><time>2026-04-18T08:59:02Z</time></trkpt><trkpt lat="44.001382700076924" lon="8.021827648074165"><ele>425.0</ele><time>2026-04-18T08:59:03Z</time></trkpt><trkpt lat="44.00136249737358" lon="8.021708193167647"><ele>427.0</ele><time>2026-04-18T08:59:04Z</time></trkpt><trkpt lat="44.001305471951675" lon="8.021631494278353"><ele>428.8</ele><time>2026-04-18T08:59:05Z</time></trkpt><trkpt lat="44.001199427675076" lon="8.021604346034204"><ele>430.6</ele><time>2026-04-18T08:59:06Z</time></trkpt><trkpt lat="44.001095909988805" lon="8.02160819469865"><ele>432.40000000000003</ele><time>2026-04-18T08:59:07Z</time></trkpt><trkpt lat="44.00098167798067" lon="8.021594700162131"><ele>434.20000000000005</ele><time>2026-04-18T08:59:08Z</time></trkpt><trkpt lat="44.00088493612013" lon="8.021612646821898"><ele>436.0</ele><time>2026-04-18T08:59:09Z</time></trkpt><trkpt lat="44.00080769574651" lon="8.021605469014295"><ele>436.0</ele><time>2026-04-18T08:59:10Z</time></trkpt><trkpt lat="44.00070562951717" lon="8.02155623274917"><ele>436.0</ele><time>2026-04-18T08:59:12Z</time></trkpt><trkpt lat="44.00070856564168" lon="8.021410456696875"><ele>436.0</ele><time>2026-04-18T08:59:14Z</time></trkpt><trkpt lat="44.000767247002564" lon="8.021366556303171"><ele>436.0</ele><time>2026-04-18T08:59:15Z</time></trkpt><trkpt lat="44.0008598073581" lon="8.021400289278214"><ele>436.0</ele><time>2026-04-18T08:59:16.001Z</time></trkpt><trkpt lat="44.000961683373944" lon="8.021389584600303"><ele>439.5</ele><time>2026-04-18T08:59:17.001Z</time></trkpt><trkpt lat="44.00107355717385" lon="8.021399267721065"><ele>443.0</ele><time>2026-04-18T08:59:18.001Z</time></trkpt><trkpt lat="44.00119081478654" lon="8.021406938824304"><ele>446.5</ele><time>2026-04-18T08:59:19.001Z</time></trkpt><trkpt lat="44.00130088483712" lon="8.021455645537161"><ele>450.0</ele><time>2026-04-18T08:59:20.001Z</time></trkpt><trkpt lat="44.00139383312627" lon="8.021529599973379"><ele>450.0</ele><time>2026-04-18T08:59:21.001Z</time></trkpt><trkpt lat="44.00150876592798" lon="8.021644657360957"><ele>450.0</ele><time>2026-04-18T08:59:22.001Z</time></trkpt><trkpt lat="44.00163245568573" lon="8.021728042082168"><ele>450.0</ele><time>2026-04-18T08:59:23.001Z</time></trkpt><trkpt lat="44.001763067977706" lon="8.021834003912785"><ele>450.0</ele><time>2026-04-18T08:59:24.001Z</time></trkpt><trkpt lat="44.00189734479916" lon="8.02193521317143"><ele>446.75</ele><time>2026-04-18T08:59:25.001Z</time></trkpt><trkpt lat="44.00203076979687" lon="8.022019915251832"><ele>443.5</ele><time>2026-04-18T08:59:26.001Z</time></trkpt><trkpt lat="44.00215356087002" lon="8.02210092151767"><ele>440.25</ele><time>2026-04-18T08:59:27.001Z</time></trkpt><trkpt lat="44.00226208065797" lon="8.022179604746965"><ele>437.0</ele><time>2026-04-18T08:59:28.001Z</time></trkpt><trkpt lat="44.0023566158031" lon="8.022257780193032"><ele>437.0</ele><time>2026-04-18T08:59:29.001Z</time></trkpt><trkpt lat="44.00244933944695" lon="8.02234388524404"><ele>437.00000000000006</ele><time>2026-04-18T08:59:30.001Z</time></trkpt><trkpt lat="44.00253115955967" lon="8.022412223447361"><ele>437.00000000000006</ele><time>2026-04-18T08:59:31.001Z</time></trkpt><trkpt lat="44.00261034144587" lon="8.022455104046847"><ele>437.0</ele><time>2026-04-18T08:59:32.001Z</time></trkpt><trkpt lat="44.002691461434345" lon="8.022453784891104"><ele>437.0</ele><time>2026-04-18T08:59:33.001Z</time></trkpt><trkpt lat="44.00277541596929" lon="8.022414311903475"><ele>436.6</ele><time>2026-04-18T08:59:34.001Z</time></trkpt><trkpt lat="44.00285265228249" lon="8.022345175662515"><ele>436.20000000000005</ele><time>2026-04-18T08:59:35.001Z</time></trkpt><trkpt lat="44.00291901328725" lon="8.02230475884224"><ele>435.8</ele><time>2026-04-18T08:59:36.001Z</time></trkpt><trkpt lat="44.00303967010264" lon="8.02232875827733"><ele>435.4</ele><time>2026-04-18T08:59:38.001Z</time></trkpt><trkpt lat="44.00310296772557" lon="8.022458287086904"><ele>435.0</ele><time>2026-04-18T08:59:39.001Z</time></trkpt><trkpt lat="44.003164776245804" lon="8.022566207058274"><ele>435.0</ele><time>2026-04-18T08:59:40.001Z</time></trkpt><trkpt lat="44.0032349465125" lon="8.022686069769781"><ele>435.0</ele><time>2026-04-18T08:59:41.001Z</time></trkpt><trkpt lat="44.003305451098385" lon="8.022798050469639"><ele>435.0</ele><time>2026-04-18T08:59:42.001Z</time></trkpt><trkpt lat="44.00337119463701" lon="8.022893401495724"><ele>435.0</ele><time>2026-04-18T08:59:43.001Z</time></trkpt><trkpt lat="44.00342181618744" lon="8.022990412104157"><ele>435.0</ele><time>2026-04-18T08:59:44.001Z</time></trkpt><trkpt lat="44.00345157331643" lon="8.02311070749876"><ele>436.6</ele><time>2026-04-18T08:59:45.001Z</time></trkpt><trkpt lat="44.003493198136866" lon="8.023247862331063"><ele>438.2</ele><time>2026-04-18T08:59:46Z</time></trkpt><trkpt lat="44.0035072096953" lon="8.023397168899788"><ele>439.79999999999995</ele><time>2026-04-18T08:59:47Z</time></trkpt><trkpt lat="44.00351690726687" lon="8.023542412113937"><ele>441.4</ele><time>2026-04-18T08:59:48Z</time></trkpt><trkpt lat="44.00349466522714" lon="8.023687537283946"><ele>443.0</ele><time>2026-04-18T08:59:49Z</time></trkpt><trkpt lat="44.00346558060504" lon="8.02381664149697"><ele>443.0</ele><time>2026-04-18T08:59:50Z</time></trkpt><trkpt lat="44.00343559068263" lon="8.023927167371228"><ele>442.99999999999994</ele><time>2026-04-18T08:59:51Z</time></trkpt><trkpt lat="44.003425425361854" lon="8.024038876326868"><ele>442.99999999999994</ele><time>2026-04-18T08:59:52Z</time></trkpt><trkpt lat="44.00345104745354" lon="8.024157651127378"><ele>443.0</ele><time>2026-04-18T08:59:53Z</time></trkpt><trkpt lat="44.003511907980254" lon="8.024275690482723"><ele>443.0</ele><time>2026-04-18T08:59:54Z</time></trkpt><trkpt lat="44.00359887405298" lon="8.024392490844058"><ele>442.4</ele><time>2026-04-18T08:59:55Z</time></trkpt><trkpt lat="44.003681489346334" lon="8.02450145280837"><ele>441.79999999999995</ele><time>2026-04-18T08:59:56Z</time></trkpt><trkpt lat="44.00375515932628" lon="8.024577285587219"><ele>441.2</ele><time>2026-04-18T08:59:57Z</time></trkpt><trkpt lat="44.00383011236502" lon="8.024610115994998"><ele>440.6</ele><time>2026-04-18T08:59:58Z</time></trkpt><trkpt lat="44.00391916248662" lon="8.024603675592852"><ele>440.0</ele><time>2026-04-18T08:59:59Z</time></trkpt><trkpt lat="44.00401251145325" lon="8.024562675975666"><ele>440.0</ele><time>2026-04-18T09:00:00Z</time></trkpt><trkpt lat="44.00410500816058" lon="8.024538335140267"><ele>440.0</ele><time>2026-04-18T09:00:01Z</time></trkpt><trkpt lat="44.00417441488073" lon="8.024532352712416"><ele>440.0</ele><time>2026-04-18T09:00:02Z</time></trkpt><trkpt lat="44.0042950486229" lon="8.024611560124423"><ele>440.0</ele><time>2026-04-18T09:00:04Z</time></trkpt><trkpt lat="44.00435784395476" lon="8.024684277063184"><ele>440.0</ele><time>2026-04-18T09:00:05Z</time></trkpt><trkpt lat="44.004379827012954" lon="8.024811887296309"><ele>442.66666666666663</ele><time>2026-04-18T09:00:06Z</time></trkpt><trkpt lat="44.004410083933465" lon="8.02491842076431"><ele>445.3333333333333</ele><time>2026-04-18T09:00:07Z</time></trkpt><trkpt lat="44.0044004888883" lon="8.02502271180161"><ele>448.0</ele><time>2026-04-18T09:00:08Z</time></trkpt><trkpt lat="44.004360271152045" lon="8.025103217162112"><ele>450.66666666666663</ele><time>2026-04-18T09:00:09Z</time></trkpt><trkpt lat="44.004296425326224" lon="8.02516873544264"><ele>453.3333333333333</ele><time>2026-04-18T09:00:10Z</time></trkpt><trkpt lat="44.00424043982476" lon="8.025245318861922"><ele>456.0</ele><time>2026-04-18T09:00:11Z</time></trkpt><trkpt lat="44.00420898035754" lon="8.025347700855605"><ele>456.0</ele><time>2026-04-18T09:00:12Z</time></trkpt><trkpt lat="44.00420337215219" lon="8.02547824253317"><ele>456.0</ele><time>2026-04-18T09:00:13Z</time></trkpt><trkpt lat="44.004221389826164" lon="8.025609502673529"><ele>456.0</ele><time>2026-04-18T09:00:14Z</time></trkpt><trkpt lat="44.004253372602534" lon="8.025757712589945"><ele>456.0</ele><time>2026-04-18T09:00:15Z</time></trkpt><trkpt lat="44.00426847615598" lon="8.025906640866264"><ele>456.0</ele><time>2026-04-18T09:00:16Z</time></trkpt><trkpt lat="44.00431730579777" lon="8.026032457516715"><ele>455.0</ele><time>2026-04-18T09:00:17Z</time></trkpt><trkpt lat="44.00439810251347" lon="8.026132917398852"><ele>454.0</ele><time>2026-04-18T09:00:18Z</time></trkpt><trkpt lat="44.00448677075063" lon="8.026224480565254"><ele>453.0</ele><time>2026-04-18T09:00:19Z</time></trkpt><trkpt lat="44.00457961935829" lon="8.026316599972457"><ele>452.0</ele><time>2026-04-18T09:00:20Z</time></trkpt><trkpt lat="44.00466435374375" lon="8.02640385456691"><ele>451.0</ele><time>2026-04-18T09:00:21Z</time></trkpt><trkpt lat="44.004714760876766" lon="8.026485225106443"><ele>451.00000000000006</ele><time>2026-04-18T09:00:22Z</time></trkpt><trkpt lat="44.00473017849923" lon="8.026589917654366"><ele>451.0</ele><time>2026-04-18T09:00:23Z</time></trkpt><trkpt lat="44.00473288527169" lon="8.026709250157026"><ele>451.0</ele><time>2026-04-18T09:00:24Z</time></trkpt><trkpt lat="44.00474795258441" lon="8.026809767869818"><ele>451.0</ele><time>2026-04-18T09:00:25Z</time></trkpt><trkpt lat="44.0048030202119" lon="8.02691104063961"><ele>451.00000000000006</ele><time>2026-04-18T09:00:26Z</time></trkpt><trkpt lat="44.0048802565044" lon="8.02700658591623"><ele>451.0</ele><time>2026-04-18T09:00:27Z</time></trkpt><trkpt lat="44.004955638327864" lon="8.027080536895843"><ele>452.6666666666667</ele><time>2026-04-18T09:00:28Z</time></trkpt><trkpt lat="44.00501190673895" lon="8.027178928216525"><ele>454.33333333333337</ele><time>2026-04-18T09:00:29Z</time></trkpt><trkpt lat="44.00505994208742" lon="8.027283270060817"><ele>456.0</ele><time>2026-04-18T09:00:30Z</time></trkpt><trkpt lat="44.00509594138157" lon="8.02738924992213"><ele>457.66666666666663</ele><time>2026-04-18T09:00:31Z</time></trkpt><trkpt lat="44.005124135637125" lon="8.027486000202"><ele>459.3333333333333</ele><time>2026-04-18T09:00:32Z</time></trkpt><trkpt lat="44.00516760070315" lon="8.027619113868365"><ele>461.0</ele><time>2026-04-18T09:00:34Z</time></trkpt><trkpt lat="44.00526471299635" lon="8.02747636522307"><ele>462.3333333333333</ele><time>2026-04-18T09:00:39Z</time></trkpt><trkpt lat="44.00523109811288" lon="8.027371192692232"><ele>463.66666666666663</ele><time>2026-04-18T09:00:40Z</time></trkpt><trkpt lat="44.00521865085027" lon="8.027248842159079"><ele>465.0</ele><time>2026-04-18T09:00:41Z</time></trkpt><trkpt lat="44.005208668227134" lon="8.027136563164216"><ele>466.33333333333337</ele><time>2026-04-18T09:00:42Z</time></trkpt><trkpt lat="44.005198733257885" lon="8.02701962203107"><ele>467.6666666666667</ele><time>2026-04-18T09:00:43Z</time></trkpt><trkpt lat="44.005184884083405" lon="8.026894126856432"><ele>469.0</ele><time>2026-04-18T09:00:44Z</time></trkpt><trkpt lat="44.00517015234425" lon="8.026758397704889"><ele>469.79999999999995</ele><time>2026-04-18T09:00:45Z</time></trkpt><trkpt lat="44.00515669249719" lon="8.026611520246865"><ele>470.59999999999997</ele><time>2026-04-18T09:00:46Z</time></trkpt><trkpt lat="44.00514228347642" lon="8.026458867909149"><ele>471.4</ele><time>2026-04-18T09:00:47Z</time></trkpt><trkpt lat="44.00512952436495" lon="8.026305885143989"><ele>472.2</ele><time>2026-04-18T09:00:48Z</time></trkpt><trkpt lat="44.00512631629726" lon="8.026143798883792"><ele>473.0</ele><time>2026-04-18T09:00:49Z</time></trkpt><trkpt lat="44.005141132708644" lon="8.025960605638332"><ele>473.75</ele><time>2026-04-18T09:00:50Z</time></trkpt><trkpt lat="44.005162292308" lon="8.025768068969588"><ele>474.5</ele><time>2026-04-18T09:00:51Z</time></trkpt><trkpt lat="44.00518523662891" lon="8.025562756384822"><ele>475.25</ele><time>2026-04-18T09:00:52Z</time></trkpt><trkpt lat="44.00520860974334" lon="8.025345968679614"><ele>476.0</ele><time>2026-04-18T09:00:53Z</time></trkpt><trkpt lat="44.00523022390526" lon="8.025111188070609"><ele>476.66666666666663</ele><time>2026-04-18T09:00:54Z</time></trkpt><trkpt lat="44.0052500851105" lon="8.024879123598415"><ele>477.33333333333337</ele><time>2026-04-18T09:00:55Z</time></trkpt><trkpt lat="44.00527046042277" lon="8.024659542577096"><ele>478.0</ele><time>2026-04-18T09:00:56Z</time></trkpt><trkpt lat="44.0052845590541" lon="8.024459236160455"><ele>478.0</ele><time>2026-04-18T09:00:57Z</time></trkpt><trkpt lat="44.00529687095121" lon="8.024275940800308"><ele>477.99999999999994</ele><time>2026-04-18T09:00:58Z</time></trkpt><trkpt lat="44.00530566381301" lon="8.024119082746594"><ele>477.99999999999994</ele><time>2026-04-18T09:00:59Z</time></trkpt><trkpt lat="44.00531120753149" lon="8.024000908761597"><ele>478.0</ele><time>2026-04-18T09:01:00Z</time></trkpt><trkpt lat="44.00535497354495" lon="8.023886514210677"><ele>478.0</ele><time>2026-04-18T09:01:02Z</time></trkpt><trkpt lat="44.005447279393955" lon="8.023930584803933"><ele>478.0</ele><time>2026-04-18T09:01:04Z</time></trkpt><trkpt lat="44.005422118149944" lon="8.024025310049703"><ele>477.99999999999994</ele><time>2026-04-18T09:01:05Z</time></trkpt><trkpt lat="44.0054343825221" lon="8.02414382364857"><ele>477.99999999999994</ele><time>2026-04-18T09:01:06Z</time></trkpt><trkpt lat="44.005448186440546" lon="8.024283186967441"><ele>478.0</ele><time>2026-04-18T09:01:07Z</time></trkpt><trkpt lat="44.005467690332004" lon="8.024464457384164"><ele>478.0</ele><time>2026-04-18T09:01:08Z</time></trkpt><trkpt lat="44.00548932437995" lon="8.024661811979957"><ele>478.0</ele><time>2026-04-18T09:01:09Z</time></trkpt><trkpt lat="44.00551119989554" lon="8.02486136929113"><ele>478.0</ele><time>2026-04-18T09:01:10Z</time></trkpt><trkpt lat="44.00553487757563" lon="8.025077366746036"><ele>478.0</ele><time>2026-04-18T09:01:11Z</time></trkpt><trkpt lat="44.00557420084353" lon="8.02530242331257"><ele>477.33333333333337</ele><time>2026-04-18T09:01:12Z</time></trkpt><trkpt lat="44.00559293336068" lon="8.025529192876228"><ele>476.66666666666663</ele><time>2026-04-18T09:01:13Z</time></trkpt><trkpt lat="44.005612297660754" lon="8.025748503404209"><ele>476.0</ele><time>2026-04-18T09:01:14Z</time></trkpt><trkpt lat="44.00563633944168" lon="8.025945282717183"><ele>475.4</ele><time>2026-04-18T09:01:15Z</time></trkpt><trkpt lat="44.00565767269388" lon="8.026126045213287"><ele>474.8</ele><time>2026-04-18T09:01:16Z</time></trkpt><trkpt lat="44.00567734570945" lon="8.026286976383258"><ele>474.19999999999993</ele><time>2026-04-18T09:01:17Z</time></trkpt><trkpt lat="44.00571840316577" lon="8.026416836290274"><ele>473.59999999999997</ele><time>2026-04-18T09:01:18Z</time></trkpt><trkpt lat="44.00578898786269" lon="8.026509683630275"><ele>473.0</ele><time>2026-04-18T09:01:19Z</time></trkpt><trkpt lat="44.00587817169885" lon="8.02655078484804"><ele>478.79999999999995</ele><time>2026-04-18T09:01:20Z</time></trkpt><trkpt lat="44.00596697287946" lon="8.026532858006693"><ele>484.59999999999997</ele><time>2026-04-18T09:01:21.001Z</time></trkpt><trkpt lat="44.006058958231684" lon="8.026464102485757"><ele>490.40000000000003</ele><time>2026-04-18T09:01:22.001Z</time></trkpt><trkpt lat="44.0061510299381" lon="8.02637110530268"><ele>496.20000000000005</ele><time>2026-04-18T09:01:23.001Z</time></trkpt><trkpt lat="44.006258439460545" lon="8.02626871472179"><ele>502.0</ele><time>2026-04-18T09:01:24.001Z</time></trkpt><trkpt lat="44.006373902035904" lon="8.0261644533722"><ele>502.0</ele><time>2026-04-18T09:01:25.001Z</time></trkpt><trkpt lat="44.006493990893276" lon="8.026054335012303"><ele>502.0</ele><time>2026-04-18T09:01:26.001Z</time></trkpt><trkpt lat="44.006610633709045" lon="8.025940592166764"><ele>502.0</ele><time>2026-04-18T09:01:27.001Z</time></trkpt><trkpt lat="44.006720942703446" lon="8.025839437247855"><ele>502.0</ele><time>2026-04-18T09:01:28.001Z</time></trkpt><trkpt lat="44.006844206694815" lon="8.025813761880416"><ele>506.75</ele><time>2026-04-18T09:01:29.001Z</time></trkpt><trkpt lat="44.00698474385471" lon="8.025787786537235"><ele>511.5</ele><time>2026-04-18T09:01:30.001Z</time></trkpt><trkpt lat="44.007132650593654" lon="8.025741869254412"><ele>516.25</ele><time>2026-04-18T09:01:31.001Z</time></trkpt><trkpt lat="44.007281330805235" lon="8.025698018574113"><ele>521.0</ele><time>2026-04-18T09:01:32.001Z</time></trkpt><trkpt lat="44.00742445569918" lon="8.025634101278087"><ele>524.0</ele><time>2026-04-18T09:01:33.001Z</time></trkpt><trkpt lat="44.00755015141253" lon="8.025560523381968"><ele>527.0</ele><time>2026-04-18T09:01:34.001Z</time></trkpt><trkpt lat="44.00767538160623" lon="8.02546274968021"><ele>530.0</ele><time>2026-04-18T09:01:35.001Z</time></trkpt><trkpt lat="44.00778768032505" lon="8.025340490507048"><ele>533.0</ele><time>2026-04-18T09:01:36.001Z</time></trkpt><trkpt lat="44.007913578103725" lon="8.025248039871"><ele>533.0</ele><time>2026-04-18T09:01:37.001Z</time></trkpt><trkpt lat="44.00804110842335" lon="8.025174140959296"><ele>533.0</ele><time>2026-04-18T09:01:38.001Z</time></trkpt><trkpt lat="44.00817942764437" lon="8.025098261381757"><ele>533.0</ele><time>2026-04-18T09:01:39.001Z</time></trkpt><trkpt lat="44.00831602307133" lon="8.025021816670105"><ele>533.0</ele><time>2026-04-18T09:01:40.001Z</time></trkpt><trkpt lat="44.00845507601219" lon="8.024938655405807"><ele>540.75</ele><time>2026-04-18T09:01:41.001Z</time></trkpt><trkpt lat="44.0085928121053" lon="8.024834200657164"><ele>548.5</ele><time>2026-04-18T09:01:42.001Z</time></trkpt><trkpt lat="44.00873992041865" lon="8.024777275342586"><ele>556.25</ele><time>2026-04-18T09:01:43.001Z</time></trkpt><trkpt lat="44.008870960900474" lon="8.02471829503373"><ele>564.0</ele><time>2026-04-18T09:01:44.001Z</time></trkpt><trkpt lat="44.00899048314034" lon="8.024664709746675"><ele>564.0</ele><time>2026-04-18T09:01:45.001Z</time></trkpt><trkpt lat="44.00909884570528" lon="8.024590545365811"><ele>564.0</ele><time>2026-04-18T09:01:46.001Z</time></trkpt><trkpt lat="44.00919855996003" lon="8.024512053767847"><ele>564.0</ele><time>2026-04-18T09:01:47.001Z</time></trkpt><trkpt lat="44.00929591814641" lon="8.024382491710213"><ele>564.0</ele><time>2026-04-18T09:01:48.001Z</time></trkpt><trkpt lat="44.00937812045513" lon="8.02425238923846"><ele>567.5</ele><time>2026-04-18T09:01:49.001Z</time></trkpt><trkpt lat="44.00946100283013" lon="8.024096097142316"><ele>571.0</ele><time>2026-04-18T09:01:50.001Z</time></trkpt><trkpt lat="44.00953961248261" lon="8.023948310310415"><ele>574.5</ele><time>2026-04-18T09:01:51.001Z</time></trkpt><trkpt lat="44.009631191630774" lon="8.023813038303118"><ele>578.0</ele><time>2026-04-18T09:01:52Z</time></trkpt><trkpt lat="44.0097148415315" lon="8.023688828146177"><ele>578.0</ele><time>2026-04-18T09:01:53Z</time></trkpt><trkpt lat="44.00978951286287" lon="8.023577949499861"><ele>578.0</ele><time>2026-04-18T09:01:54Z</time></trkpt><trkpt lat="44.009854312577744" lon="8.02348336973153"><ele>578.0</ele><time>2026-04-18T09:01:55Z</time></trkpt><trkpt lat="44.009919970208486" lon="8.023410554026983"><ele>578.0</ele><time>2026-04-18T09:01:56Z</time></trkpt><trkpt lat="44.010012756687786" lon="8.023402347611007"><ele>578.0</ele><time>2026-04-18T09:01:57Z</time></trkpt><trkpt lat="44.01011196237188" lon="8.023435528132074"><ele>571.25</ele><time>2026-04-18T09:01:58Z</time></trkpt><trkpt lat="44.01020782769664" lon="8.023455148317804"><ele>564.5</ele><time>2026-04-18T09:01:59Z</time></trkpt><trkpt lat="44.010316416545145" lon="8.023456336308914"><ele>557.75</ele><time>2026-04-18T09:02:00Z</time></trkpt><trkpt lat="44.010434385982364" lon="8.023403125341513"><ele>551.0</ele><time>2026-04-18T09:02:01Z</time></trkpt><trkpt lat="44.01055885897148" lon="8.023342222657156"><ele>555.75</ele><time>2026-04-18T09:02:02Z</time></trkpt><trkpt lat="44.01067514934761" lon="8.023260573802654"><ele>560.5</ele><time>2026-04-18T09:02:03Z</time></trkpt><trkpt lat="44.01077901731096" lon="8.023236545787277"><ele>565.25</ele><time>2026-04-18T09:02:04Z</time></trkpt><trkpt lat="44.01087747910542" lon="8.023215220806946"><ele>570.0</ele><time>2026-04-18T09:02:05Z</time></trkpt><trkpt lat="44.010996036792505" lon="8.023219316566262"><ele>570.0</ele><time>2026-04-18T09:02:06Z</time></trkpt><trkpt lat="44.01111572246716" lon="8.02326683177959"><ele>570.0</ele><time>2026-04-18T09:02:07Z</time></trkpt><trkpt lat="44.01122171369814" lon="8.023291167346226"><ele>570.0</ele><time>2026-04-18T09:02:08Z</time></trkpt><trkpt lat="44.01133469167364" lon="8.023261408216507"><ele>570.0</ele><time>2026-04-18T09:02:09Z</time></trkpt><trkpt lat="44.011444286125815" lon="8.023296415297425"><ele>565.6</ele><time>2026-04-18T09:02:10Z</time></trkpt><trkpt lat="44.01153933095604" lon="8.023370657899598"><ele>561.2</ele><time>2026-04-18T09:02:11Z</time></trkpt><trkpt lat="44.01162344855544" lon="8.023444217122806"><ele>556.8</ele><time>2026-04-18T09:02:12Z</time></trkpt><trkpt lat="44.01171940696693" lon="8.023486353387376"><ele>552.4</ele><time>2026-04-18T09:02:13Z</time></trkpt><trkpt lat="44.011829787678444" lon="8.023496416712767"><ele>548.0</ele><time>2026-04-18T09:02:14Z</time></trkpt><trkpt lat="44.01193136296297" lon="8.023491583910385"><ele>548.0</ele><time>2026-04-18T09:02:15Z</time></trkpt><trkpt lat="44.012010268610105" lon="8.023488156302436"><ele>548.0</ele><time>2026-04-18T09:02:16Z</time></trkpt><trkpt lat="44.01210744541092" lon="8.023420895409034"><ele>548.0</ele><time>2026-04-18T09:02:18Z</time></trkpt><trkpt lat="44.01211127718468" lon="8.023259780180927"><ele>548.0</ele><time>2026-04-18T09:02:20Z</time></trkpt><trkpt lat="44.01206383903029" lon="8.023178012782402"><ele>548.0</ele><time>2026-04-18T09:02:21Z</time></trkpt><trkpt lat="44.01199698414857" lon="8.023098278507232"><ele>550.5</ele><time>2026-04-18T09:02:22Z</time></trkpt><trkpt lat="44.01192749902015" lon="8.022993988472864"><ele>553.0</ele><time>2026-04-18T09:02:23Z</time></trkpt><trkpt lat="44.01184164764246" lon="8.022876662508267"><ele>555.5</ele><time>2026-04-18T09:02:24Z</time></trkpt><trkpt lat="44.01176252496551" lon="8.022758913527758"><ele>558.0</ele><time>2026-04-18T09:02:25Z</time></trkpt><trkpt lat="44.011650696162825" lon="8.022664190825653"><ele>557.75</ele><time>2026-04-18T09:02:26Z</time></trkpt><trkpt lat="44.01151774216809" lon="8.022573362593972"><ele>557.5</ele><time>2026-04-18T09:02:27Z</time></trkpt><trkpt lat="44.01138313884028" lon="8.022483840884906"><ele>557.25</ele><time>2026-04-18T09:02:28Z</time></trkpt><trkpt lat="44.01126677283414" lon="8.02236980077656"><ele>557.0</ele><time>2026-04-18T09:02:29Z</time></trkpt><trkpt lat="44.01115637475209" lon="8.022228768684606"><ele>557.0</ele><time>2026-04-18T09:02:30Z</time></trkpt><trkpt lat="44.011050115147185" lon="8.022093233863167"><ele>557.0</ele><time>2026-04-18T09:02:31Z</time></trkpt><trkpt lat="44.01095384964609" lon="8.021973066055494"><ele>557.0</ele><time>2026-04-18T09:02:32Z</time></trkpt><trkpt lat="44.010871116905534" lon="8.021885643448204"><ele>557.0</ele><time>2026-04-18T09:02:33Z</time></trkpt><trkpt lat="44.01079717987699" lon="8.021830893624328"><ele>556.8000000000001</ele><time>2026-04-18T09:02:34Z</time></trkpt><trkpt lat="44.010711097868096" lon="8.021847317798883"><ele>556.6</ele><time>2026-04-18T09:02:35Z</time></trkpt><trkpt lat="44.0106108232239" lon="8.021897467677801"><ele>556.4000000000001</ele><time>2026-04-18T09:02:36Z</time></trkpt><trkpt lat="44.01049509550994" lon="8.02192849825195"><ele>556.2</ele><time>2026-04-18T09:02:37Z</time></trkpt><trkpt lat="44.01036756923038" lon="8.021994086367418"><ele>556.0</ele><time>2026-04-18T09:02:38Z</time></trkpt><trkpt lat="44.0102376226531" lon="8.022018069945663"><ele>556.0</ele><time>2026-04-18T09:02:39Z</time></trkpt><trkpt lat="44.01012512339402" lon="8.022071017192596"><ele>556.0</ele><time>2026-04-18T09:02:40Z</time></trkpt><trkpt lat="44.010033005715385" lon="8.02216863142107"><ele>556.0</ele><time>2026-04-18T09:02:41Z</time></trkpt><trkpt lat="44.009941760032156" lon="8.022195058743225"><ele>556.0</ele><time>2026-04-18T09:02:42Z</time></trkpt><trkpt lat="44.00985363392177" lon="8.022200782561802"><ele>556.0</ele><time>2026-04-18T09:02:43Z</time></trkpt><trkpt lat="44.009759344049954" lon="8.022174460923525"><ele>560.5</ele><time>2026-04-18T09:02:44Z</time></trkpt><trkpt lat="44.00964049432891" lon="8.022128071922227"><ele>565.0</ele><time>2026-04-18T09:02:45Z</time></trkpt><trkpt lat="44.00951267641599" lon="8.02206663035595"><ele>569.5</ele><time>2026-04-18T09:02:46Z</time></trkpt><trkpt lat="44.00938251106106" lon="8.021981090843063"><ele>574.0</ele><time>2026-04-18T09:02:47Z</time></trkpt><trkpt lat="44.00924802405782" lon="8.021866966192897"><ele>578.3333333333334</ele><time>2026-04-18T09:02:48Z</time></trkpt><trkpt lat="44.00911545842852" lon="8.021753930054876"><ele>582.6666666666666</ele><time>2026-04-18T09:02:49Z</time></trkpt><trkpt lat="44.008978249690664" lon="8.021636711304529"><ele>587.0</ele><time>2026-04-18T09:02:50Z</time></trkpt><trkpt lat="44.00884869976059" lon="8.0215484385675"><ele>587.0</ele><time>2026-04-18T09:02:51Z</time></trkpt><trkpt lat="44.00873371903383" lon="8.021436587233433"><ele>587.0</ele><time>2026-04-18T09:02:52Z</time></trkpt><trkpt lat="44.00863885292488" lon="8.021305955316942"><ele>587.0</ele><time>2026-04-18T09:02:53Z</time></trkpt><trkpt lat="44.008577200046496" lon="8.021141636611905"><ele>587.0</ele><time>2026-04-18T09:02:54Z</time></trkpt><trkpt lat="44.008532482389455" lon="8.0209563701003"><ele>585.0</ele><time>2026-04-18T09:02:55Z</time></trkpt><trkpt lat="44.00848778552218" lon="8.020763556010898"><ele>583.0</ele><time>2026-04-18T09:02:56Z</time></trkpt><trkpt lat="44.00842840882642" lon="8.020582964180763"><ele>581.0</ele><time>2026-04-18T09:02:57Z</time></trkpt><trkpt lat="44.00834868619519" lon="8.02041027138821"><ele>579.0</ele><time>2026-04-18T09:02:58Z</time></trkpt><trkpt lat="44.0082633944212" lon="8.020253120933472"><ele>579.0</ele><time>2026-04-18T09:02:59Z</time></trkpt><trkpt lat="44.00818088842527" lon="8.020100830097954"><ele>579.0</ele><time>2026-04-18T09:03:00Z</time></trkpt><trkpt lat="44.00809812318045" lon="8.019972686181939"><ele>579.0</ele><time>2026-04-18T09:03:01Z</time></trkpt><trkpt lat="44.00800490524338" lon="8.019874388797982"><ele>579.0</ele><time>2026-04-18T09:03:02Z</time></trkpt><trkpt lat="44.0078852371234" lon="8.019799044686957"><ele>576.75</ele><time>2026-04-18T09:03:03Z</time></trkpt><trkpt lat="44.0077614498537" lon="8.019744017160171"><ele>574.5</ele><time>2026-04-18T09:03:04Z</time></trkpt><trkpt lat="44.007642906498575" lon="8.019677736348259"><ele>572.25</ele><time>2026-04-18T09:03:05Z</time></trkpt><trkpt lat="44.00753497389899" lon="8.019638935312491"><ele>570.0</ele><time>2026-04-18T09:03:06Z</time></trkpt><trkpt lat="44.007425986494674" lon="8.019629360197035"><ele>570.0</ele><time>2026-04-18T09:03:07Z</time></trkpt><trkpt lat="44.00731134961874" lon="8.019679016316758"><ele>570.0</ele><time>2026-04-18T09:03:08Z</time></trkpt><trkpt lat="44.00719659746057" lon="8.019740672369556"><ele>570.0</ele><time>2026-04-18T09:03:09Z</time></trkpt><trkpt lat="44.007090422748135" lon="8.019786106661197"><ele>570.0</ele><time>2026-04-18T09:03:10Z</time></trkpt><trkpt lat="44.00699129857236" lon="8.019821418634827"><ele>570.0</ele><time>2026-04-18T09:03:11.001Z</time></trkpt><trkpt lat="44.00689450951102" lon="8.019773359344573"><ele>570.0</ele><time>2026-04-18T09:03:12.001Z</time></trkpt><trkpt lat="44.00679897891219" lon="8.019678232995664"><ele>570.0</ele><time>2026-04-18T09:03:13.001Z</time></trkpt><trkpt lat="44.00671572483613" lon="8.019545740217906"><ele>570.0</ele><time>2026-04-18T09:03:14.001Z</time></trkpt><trkpt lat="44.0066358843161" lon="8.019401787963647"><ele>571.0</ele><time>2026-04-18T09:03:15.001Z</time></trkpt><trkpt lat="44.00655429310728" lon="8.019254415760122"><ele>572.0</ele><time>2026-04-18T09:03:16.001Z</time></trkpt><trkpt lat="44.00646267938679" lon="8.019119831659667"><ele>573.0</ele><time>2026-04-18T09:03:17.001Z</time></trkpt><trkpt lat="44.00636375469057" lon="8.018992827942721"><ele>574.0</ele><time>2026-04-18T09:03:18.001Z</time></trkpt><trkpt lat="44.006255841108924" lon="8.018867672382145"><ele>574.0</ele><time>2026-04-18T09:03:19.001Z</time></trkpt><trkpt lat="44.00616249937172" lon="8.018727873634592"><ele>574.0</ele><time>2026-04-18T09:03:20.001Z</time></trkpt><trkpt lat="44.00608244813932" lon="8.01858857344021"><ele>574.0</ele><time>2026-04-18T09:03:21.001Z</time></trkpt><trkpt lat="44.006010791672324" lon="8.018455162231605"><ele>574.0</ele><time>2026-04-18T09:03:22.001Z</time></trkpt><trkpt lat="44.00593105292277" lon="8.018345540404503"><ele>571.5</ele><time>2026-04-18T09:03:23.001Z</time></trkpt><trkpt lat="44.005819116215555" lon="8.018293198152946"><ele>569.0</ele><time>2026-04-18T09:03:24.001Z</time></trkpt><trkpt lat="44.005699012414865" lon="8.018239664058193"><ele>566.5</ele><time>2026-04-18T09:03:25.001Z</time></trkpt><trkpt lat="44.005569847177384" lon="8.018182091058492"><ele>564.0</ele><time>2026-04-18T09:03:26.001Z</time></trkpt><trkpt lat="44.00543637004343" lon="8.018138286878132"><ele>564.0</ele><time>2026-04-18T09:03:27.001Z</time></trkpt><trkpt lat="44.00531314939803" lon="8.018079080725064"><ele>564.0</ele><time>2026-04-18T09:03:28.001Z</time></trkpt><trkpt lat="44.00519161024628" lon="8.018023927653264"><ele>564.0</ele><time>2026-04-18T09:03:29.001Z</time></trkpt><trkpt lat="44.00507131305872" lon="8.017972501490613"><ele>564.0</ele><time>2026-04-18T09:03:30.001Z</time></trkpt><trkpt lat="44.004957541411216" lon="8.017941582732632"><ele>566.8</ele><time>2026-04-18T09:03:31.001Z</time></trkpt><trkpt lat="44.00485472749923" lon="8.017928772282175"><ele>569.5999999999999</ele><time>2026-04-18T09:03:32.001Z</time></trkpt><trkpt lat="44.004759189149624" lon="8.017900338721049"><ele>572.4</ele><time>2026-04-18T09:03:33.001Z</time></trkpt><trkpt lat="44.00467916547845" lon="8.017827921791651"><ele>575.1999999999999</ele><time>2026-04-18T09:03:34.001Z</time></trkpt><trkpt lat="44.00460846581516" lon="8.01771574406124"><ele>578.0</ele><time>2026-04-18T09:03:35.001Z</time></trkpt><trkpt lat="44.00452938732229" lon="8.017582370560612"><ele>576.25</ele><time>2026-04-18T09:03:36.001Z</time></trkpt><trkpt lat="44.004452130443184" lon="8.0174445949888"><ele>574.5</ele><time>2026-04-18T09:03:37.001Z</time></trkpt><trkpt lat="44.004369069899894" lon="8.017304188249629"><ele>572.75</ele><time>2026-04-18T09:03:38.001Z</time></trkpt><trkpt lat="44.00427428641411" lon="8.017172525838147"><ele>571.0</ele><time>2026-04-18T09:03:39.001Z</time></trkpt><trkpt lat="44.00417341212808" lon="8.017040062698271"><ele>574.75</ele><time>2026-04-18T09:03:40.001Z</time></trkpt><trkpt lat="44.004076802515755" lon="8.016891722577014"><ele>578.5</ele><time>2026-04-18T09:03:41.001Z</time></trkpt><trkpt lat="44.00395758113743" lon="8.016769733589513"><ele>582.25</ele><time>2026-04-18T09:03:42.001Z</time></trkpt><trkpt lat="44.00384627194256" lon="8.016625446217205"><ele>586.0</ele><time>2026-04-18T09:03:43.001Z</time></trkpt><trkpt lat="44.003728519719246" lon="8.016503469638293"><ele>586.0</ele><time>2026-04-18T09:03:44.001Z</time></trkpt><trkpt lat="44.0036113033118" lon="8.016378736102906"><ele>586.0</ele><time>2026-04-18T09:03:45.001Z</time></trkpt><trkpt lat="44.00351100634219" lon="8.016238211340898"><ele>586.0</ele><time>2026-04-18T09:03:46.001Z</time></trkpt><trkpt lat="44.00340761598319" lon="8.016106910262863"><ele>586.0</ele><time>2026-04-18T09:03:47.001Z</time></trkpt><trkpt lat="44.003318178849895" lon="8.015980030187546"><ele>588.25</ele><time>2026-04-18T09:03:48.001Z</time></trkpt><trkpt lat="44.00324435621467" lon="8.01584311176507"><ele>590.5</ele><time>2026-04-18T09:03:49.001Z</time></trkpt><trkpt lat="44.00318509951572" lon="8.015687744493858"><ele>592.75</ele><time>2026-04-18T09:03:50.001Z</time></trkpt><trkpt lat="44.00315007283781" lon="8.015527014004535"><ele>595.0</ele><time>2026-04-18T09:03:51.001Z</time></trkpt><trkpt lat="44.00313737841482" lon="8.015364386150637"><ele>598.25</ele><time>2026-04-18T09:03:52.001Z</time></trkpt><trkpt lat="44.00314113855962" lon="8.01520306950668"><ele>601.5</ele><time>2026-04-18T09:03:53.001Z</time></trkpt><trkpt lat="44.00315649968652" lon="8.015024382849589"><ele>604.75</ele><time>2026-04-18T09:03:54.001Z</time></trkpt><trkpt lat="44.003183977678304" lon="8.014849261591362"><ele>608.0</ele><time>2026-04-18T09:03:55.001Z</time></trkpt><trkpt lat="44.00321427449217" lon="8.014667157694271"><ele>609.5</ele><time>2026-04-18T09:03:56.001Z</time></trkpt><trkpt lat="44.00325568818868" lon="8.014484391866468"><ele>611.0</ele><time>2026-04-18T09:03:57.001Z</time></trkpt><trkpt lat="44.00329659469981" lon="8.014305199479795"><ele>612.5</ele><time>2026-04-18T09:03:58Z</time></trkpt><trkpt lat="44.00331706309331" lon="8.014134622526406"><ele>614.0</ele><time>2026-04-18T09:03:59Z</time></trkpt><trkpt lat="44.003311926576096" lon="8.013973067085127"><ele>614.0</ele><time>2026-04-18T09:04:00Z</time></trkpt><trkpt lat="44.00326339422091" lon="8.013837113288707"><ele>614.0</ele><time>2026-04-18T09:04:01Z</time></trkpt><trkpt lat="44.00318916224983" lon="8.013698863489504"><ele>614.0</ele><time>2026-04-18T09:04:02Z</time></trkpt><trkpt lat="44.003086515971965" lon="8.013587877229645"><ele>614.0</ele><time>2026-04-18T09:04:03Z</time></trkpt><trkpt lat="44.00299736627918" lon="8.013454118307115"><ele>614.0</ele><time>2026-04-18T09:04:04Z</time></trkpt><trkpt lat="44.00290816218543" lon="8.013349380144724"><ele>614.0</ele><time>2026-04-18T09:04:05Z</time></trkpt><trkpt lat="44.002842544160735" lon="8.013202774761734"><ele>614.0</ele><time>2026-04-18T09:04:06Z</time></trkpt><trkpt lat="44.002795040534245" lon="8.013036845120753"><ele>614.0</ele><time>2026-04-18T09:04:07Z</time></trkpt><trkpt lat="44.002783149615254" lon="8.012863141588241"><ele>612.0</ele><time>2026-04-18T09:04:08Z</time></trkpt><trkpt lat="44.00274471942529" lon="8.012705413975972"><ele>610.0</ele><time>2026-04-18T09:04:09Z</time></trkpt><trkpt lat="44.00271396480428" lon="8.012563072426136"><ele>608.0</ele><time>2026-04-18T09:04:10Z</time></trkpt><trkpt lat="44.00266696971943" lon="8.012402697144136"><ele>606.0</ele><time>2026-04-18T09:04:11Z</time></trkpt><trkpt lat="44.00259967018967" lon="8.012253949334873"><ele>605.2</ele><time>2026-04-18T09:04:12Z</time></trkpt><trkpt lat="44.002534871725814" lon="8.012129295550883"><ele>604.4000000000001</ele><time>2026-04-18T09:04:13Z</time></trkpt><trkpt lat="44.002466253182064" lon="8.01199205625565"><ele>603.6</ele><time>2026-04-18T09:04:14Z</time></trkpt><trkpt lat="44.00242263844385" lon="8.011860312466428"><ele>602.8000000000001</ele><time>2026-04-18T09:04:15Z</time></trkpt><trkpt lat="44.002408768403185" lon="8.011719335779482"><ele>602.0</ele><time>2026-04-18T09:04:16Z</time></trkpt><trkpt lat="44.00243469096706" lon="8.011564654033311"><ele>608.5</ele><time>2026-04-18T09:04:17Z</time></trkpt><trkpt lat="44.00245670204702" lon="8.011390754926285"><ele>615.0</ele><time>2026-04-18T09:04:18Z</time></trkpt><trkpt lat="44.00248403186764" lon="8.011217738869489"><ele>621.5</ele><time>2026-04-18T09:04:19Z</time></trkpt><trkpt lat="44.002491579629314" lon="8.011032882196943"><ele>628.0</ele><time>2026-04-18T09:04:20Z</time></trkpt><trkpt lat="44.002484957410864" lon="8.0108541192369"><ele>626.6</ele><time>2026-04-18T09:04:21Z</time></trkpt><trkpt lat="44.00247333421505" lon="8.010691580660895"><ele>625.1999999999999</ele><time>2026-04-18T09:04:22Z</time></trkpt><trkpt lat="44.002456595617616" lon="8.010534106606741"><ele>623.8</ele><time>2026-04-18T09:04:23Z</time></trkpt><trkpt lat="44.00241825676004" lon="8.010413701854338"><ele>622.4</ele><time>2026-04-18T09:04:24Z</time></trkpt><trkpt lat="44.00235979926046" lon="8.010273083932391"><ele>621.0</ele><time>2026-04-18T09:04:25Z</time></trkpt><trkpt lat="44.0022840673984" lon="8.010136616039704"><ele>621.0</ele><time>2026-04-18T09:04:26Z</time></trkpt><trkpt lat="44.002208164288774" lon="8.010000117201603"><ele>621.0</ele><time>2026-04-18T09:04:27Z</time></trkpt><trkpt lat="44.00215068195376" lon="8.009880254754112"><ele>621.0</ele><time>2026-04-18T09:04:28Z</time></trkpt><trkpt lat="44.00210719861502" lon="8.0097620725638"><ele>621.0</ele><time>2026-04-18T09:04:29Z</time></trkpt><trkpt lat="44.00209129727924" lon="8.009635232680672"><ele>621.0</ele><time>2026-04-18T09:04:30Z</time></trkpt><trkpt lat="44.00208582592249" lon="8.00947161960894"><ele>622.0</ele><time>2026-04-18T09:04:31Z</time></trkpt><trkpt lat="44.002130942308526" lon="8.009300625202826"><ele>623.0</ele><time>2026-04-18T09:04:32Z</time></trkpt><trkpt lat="44.002174620282055" lon="8.00912227820102"><ele>624.0</ele><time>2026-04-18T09:04:33Z</time></trkpt><trkpt lat="44.00221920740929" lon="8.008934953273565"><ele>625.0</ele><time>2026-04-18T09:04:34Z</time></trkpt><trkpt lat="44.00227347742298" lon="8.008752787411332"><ele>630.5</ele><time>2026-04-18T09:04:35Z</time></trkpt><trkpt lat="44.002300657463806" lon="8.008566003870717"><ele>636.0</ele><time>2026-04-18T09:04:36Z</time></trkpt><trkpt lat="44.00232481111432" lon="8.008358266445873"><ele>641.5</ele><time>2026-04-18T09:04:37Z</time></trkpt><trkpt lat="44.00234424618279" lon="8.008177100037837"><ele>647.0</ele><time>2026-04-18T09:04:38Z</time></trkpt><trkpt lat="44.002359347296945" lon="8.008007951280034"><ele>651.0</ele><time>2026-04-18T09:04:39Z</time></trkpt><trkpt lat="44.00237911493865" lon="8.0078523002375"><ele>655.0</ele><time>2026-04-18T09:04:40Z</time></trkpt><trkpt lat="44.00240963308212" lon="8.007702135011659"><ele>659.0</ele><time>2026-04-18T09:04:41Z</time></trkpt><trkpt lat="44.00247606433599" lon="8.007568713107235"><ele>663.0</ele><time>2026-04-18T09:04:42Z</time></trkpt><trkpt lat="44.00254018606594" lon="8.00741551335588"><ele>654.75</ele><time>2026-04-18T09:04:43Z</time></trkpt><trkpt lat="44.00263116394121" lon="8.007275127298849"><ele>646.5</ele><time>2026-04-18T09:04:44Z</time></trkpt><trkpt lat="44.002715627392476" lon="8.007147932302521"><ele>638.25</ele><time>2026-04-18T09:04:45Z</time></trkpt><trkpt lat="44.0027837224622" lon="8.007026601716772"><ele>630.0</ele><time>2026-04-18T09:04:46Z</time></trkpt><trkpt lat="44.002837029520904" lon="8.0069098742856"><ele>630.0</ele><time>2026-04-18T09:04:47Z</time></trkpt><trkpt lat="44.00287121036035" lon="8.006792867051084"><ele>630.0</ele><time>2026-04-18T09:04:48Z</time></trkpt><trkpt lat="44.002853901776405" lon="8.00665674911487"><ele>630.0</ele><time>2026-04-18T09:04:49Z</time></trkpt><trkpt lat="44.002830291589795" lon="8.006538139339847"><ele>630.0</ele><time>2026-04-18T09:04:50Z</time></trkpt><trkpt lat="44.00278550049872" lon="8.006428818804261"><ele>630.0</ele><time>2026-04-18T09:04:51Z</time></trkpt><trkpt lat="44.002726397242505" lon="8.006325577552225"><ele>629.5</ele><time>2026-04-18T09:04:52Z</time></trkpt><trkpt lat="44.002658029367126" lon="8.006196786623791"><ele>629.0</ele><time>2026-04-18T09:04:53Z</time></trkpt><trkpt lat="44.00259741813915" lon="8.006047946822926"><ele>628.5</ele><time>2026-04-18T09:04:54Z</time></trkpt><trkpt lat="44.002518503585705" lon="8.005909121085052"><ele>628.0</ele><time>2026-04-18T09:04:55Z</time></trkpt><trkpt lat="44.00245398371871" lon="8.005777992727165"><ele>629.6666666666667</ele><time>2026-04-18T09:04:56Z</time></trkpt><trkpt lat="44.00240853350966" lon="8.00565293776963"><ele>631.3333333333334</ele><time>2026-04-18T09:04:57Z</time></trkpt><trkpt lat="44.00239496408421" lon="8.005527661666383"><ele>633.0</ele><time>2026-04-18T09:04:58Z</time></trkpt><trkpt lat="44.00239404723571" lon="8.005413093479198"><ele>634.6666666666666</ele><time>2026-04-18T09:04:59Z</time></trkpt><trkpt lat="44.0024150053691" lon="8.005314451674591"><ele>636.3333333333333</ele><time>2026-04-18T09:05:00Z</time></trkpt><trkpt lat="44.00245695559937" lon="8.005230398990268"><ele>638.0</ele><time>2026-04-18T09:05:01Z</time></trkpt><trkpt lat="44.002530704740764" lon="8.005158757211953"><ele>638.0</ele><time>2026-04-18T09:05:02Z</time></trkpt><trkpt lat="44.00262434003346" lon="8.0051274428152"><ele>638.0</ele><time>2026-04-18T09:05:03Z</time></trkpt><trkpt lat="44.00273234289619" lon="8.005122655798075"><ele>638.0</ele><time>2026-04-18T09:05:04Z</time></trkpt><trkpt lat="44.00285104489335" lon="8.005120219368095"><ele>638.0</ele><time>2026-04-18T09:05:05Z</time></trkpt><trkpt lat="44.00296356750379" lon="8.005101169725657"><ele>638.0</ele><time>2026-04-18T09:05:06Z</time></trkpt><trkpt lat="44.003073393122" lon="8.005070743941278"><ele>638.0</ele><time>2026-04-18T09:05:07Z</time></trkpt><trkpt lat="44.00316492179853" lon="8.005031749563601"><ele>638.0</ele><time>2026-04-18T09:05:08Z</time></trkpt><trkpt lat="44.0032351276228" lon="8.004979106876856"><ele>638.0</ele><time>2026-04-18T09:05:09Z</time></trkpt><trkpt lat="44.00327492511294" lon="8.004888181449655"><ele>638.0</ele><time>2026-04-18T09:05:10Z</time></trkpt><trkpt lat="44.0032830466416" lon="8.00477839112551"><ele>638.0</ele><time>2026-04-18T09:05:11Z</time></trkpt><trkpt lat="44.00326396149397" lon="8.004656363039604"><ele>638.0</ele><time>2026-04-18T09:05:12Z</time></trkpt><trkpt lat="44.0032673739026" lon="8.00454066379405"><ele>638.5999999999999</ele><time>2026-04-18T09:05:13Z</time></trkpt><trkpt lat="44.003296024785996" lon="8.004421409449108"><ele>639.1999999999999</ele><time>2026-04-18T09:05:14Z</time></trkpt><trkpt lat="44.00336879368572" lon="8.004331196697253"><ele>639.8</ele><time>2026-04-18T09:05:15Z</time></trkpt><trkpt lat="44.00348303427294" lon="8.004302590500735"><ele>640.4</ele><time>2026-04-18T09:05:16Z</time></trkpt><trkpt lat="44.00359296968318" lon="8.004230696414755"><ele>641.0</ele><time>2026-04-18T09:05:17Z</time></trkpt><trkpt lat="44.003711462286944" lon="8.004172601976398"><ele>648.5</ele><time>2026-04-18T09:05:18Z</time></trkpt><trkpt lat="44.00382253357075" lon="8.004102011003583"><ele>656.0</ele><time>2026-04-18T09:05:19Z</time></trkpt><trkpt lat="44.00394188636636" lon="8.004026727138843"><ele>663.5</ele><time>2026-04-18T09:05:20Z</time></trkpt><trkpt lat="44.00404133866916" lon="8.003943959095047"><ele>671.0</ele><time>2026-04-18T09:05:21Z</time></trkpt><trkpt lat="44.004136581243664" lon="8.00384149683618"><ele>665.4</ele><time>2026-04-18T09:05:22.001Z</time></trkpt><trkpt lat="44.004204389363764" lon="8.00373116123545"><ele>659.8</ele><time>2026-04-18T09:05:23.001Z</time></trkpt><trkpt lat="44.004249650916954" lon="8.003602173025763"><ele>654.1999999999999</ele><time>2026-04-18T09:05:24.001Z</time></trkpt><trkpt lat="44.004279241227486" lon="8.003456829588446"><ele>648.5999999999999</ele><time>2026-04-18T09:05:25.001Z</time></trkpt><trkpt lat="44.00429512007107" lon="8.003300760049584"><ele>643.0</ele><time>2026-04-18T09:05:26.001Z</time></trkpt><trkpt lat="44.004315192768594" lon="8.003134359602655"><ele>643.0</ele><time>2026-04-18T09:05:27.001Z</time></trkpt><trkpt lat="44.00432992029742" lon="8.002984920511501"><ele>643.0</ele><time>2026-04-18T09:05:28.001Z</time></trkpt><trkpt lat="44.004334615389546" lon="8.002845443439286"><ele>643.0</ele><time>2026-04-18T09:05:29.001Z</time></trkpt><trkpt lat="44.00433828791981" lon="8.002720409590866"><ele>643.0</ele><time>2026-04-18T09:05:30.001Z</time></trkpt><trkpt lat="44.00435811361224" lon="8.002600781298543"><ele>643.0</ele><time>2026-04-18T09:05:31.001Z</time></trkpt><trkpt lat="44.00440991769596" lon="8.002506690154389"><ele>648.2</ele><time>2026-04-18T09:05:32.001Z</time></trkpt><trkpt lat="44.00448832622596" lon="8.002422795744055"><ele>653.4</ele><time>2026-04-18T09:05:33.001Z</time></trkpt><trkpt lat="44.00457203131098" lon="8.002322891076997"><ele>658.6</ele><time>2026-04-18T09:05:34.001Z</time></trkpt><trkpt lat="44.00464848652343" lon="8.002220482390783"><ele>663.8000000000001</ele><time>2026-04-18T09:05:35.001Z</time></trkpt><trkpt lat="44.00471547316822" lon="8.002130743338718"><ele>669.0</ele><time>2026-04-18T09:05:36.001Z</time></trkpt><trkpt lat="44.004802750080835" lon="8.002096859688068"><ele>669.0</ele><time>2026-04-18T09:05:37.001Z</time></trkpt><trkpt lat="44.00487834345656" lon="8.002096836480316"><ele>669.0</ele><time>2026-04-18T09:05:38.001Z</time></trkpt><trkpt lat="44.00496656033187" lon="8.002115521663672"><ele>669.0</ele><time>2026-04-18T09:05:39.001Z</time></trkpt><trkpt lat="44.00505600789987" lon="8.0020859309963"><ele>669.0</ele><time>2026-04-18T09:05:40.001Z</time></trkpt><trkpt lat="44.005114065410076" lon="8.002036064277453"><ele>669.0</ele><time>2026-04-18T09:05:41.001Z</time></trkpt><trkpt lat="44.00521487029094" lon="8.001926920483731"><ele>671.5</ele><time>2026-04-18T09:05:42.001Z</time></trkpt><trkpt lat="44.00531850924698" lon="8.001824428981589"><ele>674.0</ele><time>2026-04-18T09:05:43.001Z</time></trkpt><trkpt lat="44.00541947299062" lon="8.001725033258005"><ele>676.5</ele><time>2026-04-18T09:05:44.001Z</time></trkpt><trkpt lat="44.00553097985575" lon="8.001677587995719"><ele>679.0</ele><time>2026-04-18T09:05:45.001Z</time></trkpt><trkpt lat="44.00565042418561" lon="8.001633860705896"><ele>679.0</ele><time>2026-04-18T09:05:46.001Z</time></trkpt><trkpt lat="44.00575070048028" lon="8.00163766516592"><ele>679.0</ele><time>2026-04-18T09:05:47.001Z</time></trkpt><trkpt lat="44.005839635037596" lon="8.001680467406663"><ele>679.0</ele><time>2026-04-18T09:05:48.001Z</time></trkpt><trkpt lat="44.0059380566547" lon="8.001758416930974"><ele>679.0</ele><time>2026-04-18T09:05:49.001Z</time></trkpt><trkpt lat="44.00601934338336" lon="8.00186803399006"><ele>679.0</ele><time>2026-04-18T09:05:50.001Z</time></trkpt><trkpt lat="44.00610632577792" lon="8.001942216085686"><ele>670.2</ele><time>2026-04-18T09:05:51.001Z</time></trkpt><trkpt lat="44.00616918268508" lon="8.002013584028502"><ele>661.4000000000001</ele><time>2026-04-18T09:05:52.001Z</time></trkpt><trkpt lat="44.00626313261615" lon="8.002045489796904"><ele>652.6</ele><time>2026-04-18T09:05:53.001Z</time></trkpt><trkpt lat="44.00639720444787" lon="8.001958158924978"><ele>643.8</ele><time>2026-04-18T09:05:54.001Z</time></trkpt><trkpt lat="44.00648437779515" lon="8.001861383238133"><ele>635.0</ele><time>2026-04-18T09:05:55.001Z</time></trkpt><trkpt lat="44.006562921564395" lon="8.001735942614761"><ele>634.25</ele><time>2026-04-18T09:05:56.001Z</time></trkpt><trkpt lat="44.0065980001071" lon="8.001570828931296"><ele>633.5</ele><time>2026-04-18T09:05:57.001Z</time></trkpt><trkpt lat="44.006646928741795" lon="8.001428877836972"><ele>632.75</ele><time>2026-04-18T09:05:58.001Z</time></trkpt><trkpt lat="44.006725766248564" lon="8.001316608137916"><ele>632.0</ele><time>2026-04-18T09:05:59.001Z</time></trkpt><trkpt lat="44.006786675433034" lon="8.001201608324031"><ele>632.0</ele><time>2026-04-18T09:06:00.001Z</time></trkpt><trkpt lat="44.00682198077987" lon="8.001087868106545"><ele>632.0</ele><time>2026-04-18T09:06:01.001Z</time></trkpt><trkpt lat="44.006854263263115" lon="8.001010366313828"><ele>632.0</ele><time>2026-04-18T09:06:02.001Z</time></trkpt><trkpt lat="44.006815485201265" lon="8.000910980072613"><ele>632.0</ele><time>2026-04-18T09:06:03.001Z</time></trkpt><trkpt lat="44.006749086095475" lon="8.000839316045997"><ele>632.0</ele><time>2026-04-18T09:06:04Z</time></trkpt><trkpt lat="44.006657821395144" lon="8.000780132163007"><ele>632.0</ele><time>2026-04-18T09:06:05Z</time></trkpt><trkpt lat="44.006550131046474" lon="8.000719059365274"><ele>636.2</ele><time>2026-04-18T09:06:06Z</time></trkpt><trkpt lat="44.00644746162479" lon="8.000651232342763"><ele>640.4000000000001</ele><time>2026-04-18T09:06:07Z</time></trkpt><trkpt lat="44.00636912673006" lon="8.00055277713309"><ele>644.5999999999999</ele><time>2026-04-18T09:06:08Z</time></trkpt><trkpt lat="44.006314942268475" lon="8.000435904654402"><ele>648.8</ele><time>2026-04-18T09:06:09Z</time></trkpt><trkpt lat="44.00629308350569" lon="8.00028829043893"><ele>653.0</ele><time>2026-04-18T09:06:10Z</time></trkpt><trkpt lat="44.00627299676297" lon="8.00013750279537"><ele>653.0</ele><time>2026-04-18T09:06:11Z</time></trkpt><trkpt lat="44.006227741994145" lon="8.000014358964664"><ele>653.0</ele><time>2026-04-18T09:06:12Z</time></trkpt><trkpt lat="44.006165846118094" lon="7.999925816375571"><ele>653.0</ele><time>2026-04-18T09:06:13Z</time></trkpt><trkpt lat="44.006068290805736" lon="7.999847953420304"><ele>653.0</ele><time>2026-04-18T09:06:14Z</time></trkpt><trkpt lat="44.005961711897086" lon="7.999759543729513"><ele>653.0</ele><time>2026-04-18T09:06:15Z</time></trkpt><trkpt lat="44.00586075098946" lon="7.999641430199106"><ele>662.0</ele><time>2026-04-18T09:06:16Z</time></trkpt><trkpt lat="44.00578204039261" lon="7.999495564674154"><ele>671.0</ele><time>2026-04-18T09:06:17Z</time></trkpt><trkpt lat="44.00574163178875" lon="7.999337831156508"><ele>680.0</ele><time>2026-04-18T09:06:18Z</time></trkpt><trkpt lat="44.005681469390744" lon="7.999195825954098"><ele>689.0</ele><time>2026-04-18T09:06:19Z</time></trkpt><trkpt lat="44.005627442090244" lon="7.9990666204279774"><ele>689.0</ele><time>2026-04-18T09:06:20Z</time></trkpt><trkpt lat="44.00553831105526" lon="7.998949499593737"><ele>689.0</ele><time>2026-04-18T09:06:21Z</time></trkpt><trkpt lat="44.00544003545263" lon="7.998832551721934"><ele>689.0</ele><time>2026-04-18T09:06:22Z</time></trkpt><trkpt lat="44.00537018730693" lon="7.998678299570269"><ele>689.0</ele><time>2026-04-18T09:06:23Z</time></trkpt><trkpt lat="44.00527847012751" lon="7.998532924157451"><ele>689.0</ele><time>2026-04-18T09:06:24Z</time></trkpt><trkpt lat="44.005213135674964" lon="7.998383930311469"><ele>689.0</ele><time>2026-04-18T09:06:25Z</time></trkpt><trkpt lat="44.0051494393629" lon="7.998253039831439"><ele>689.0</ele><time>2026-04-18T09:06:26Z</time></trkpt><trkpt lat="44.00510765137176" lon="7.998142057146054"><ele>689.0</ele><time>2026-04-18T09:06:27Z</time></trkpt><trkpt lat="44.00508281391351" lon="7.9980408993259955"><ele>689.0</ele><time>2026-04-18T09:06:28Z</time></trkpt><trkpt lat="44.00509049585187" lon="7.997927137350188"><ele>686.0</ele><time>2026-04-18T09:06:29Z</time></trkpt><trkpt lat="44.00515202836" lon="7.997816619041021"><ele>683.0</ele><time>2026-04-18T09:06:30Z</time></trkpt><trkpt lat="44.005213500079485" lon="7.997679153169215"><ele>680.0</ele><time>2026-04-18T09:06:31Z</time></trkpt><trkpt lat="44.00528037251867" lon="7.997519435537446"><ele>677.0</ele><time>2026-04-18T09:06:32Z</time></trkpt><trkpt lat="44.00534763821434" lon="7.997355723252064"><ele>677.0</ele><time>2026-04-18T09:06:33Z</time></trkpt><trkpt lat="44.00541184383902" lon="7.997188762352839"><ele>677.0</ele><time>2026-04-18T09:06:34Z</time></trkpt><trkpt lat="44.00547879717854" lon="7.99702525089847"><ele>677.0</ele><time>2026-04-18T09:06:35Z</time></trkpt><trkpt lat="44.00554680040082" lon="7.996870244571729"><ele>677.0</ele><time>2026-04-18T09:06:36Z</time></trkpt><trkpt lat="44.005614418768815" lon="7.996716673414254"><ele>682.75</ele><time>2026-04-18T09:06:37Z</time></trkpt><trkpt lat="44.00568923114151" lon="7.996580042563823"><ele>688.5</ele><time>2026-04-18T09:06:38Z</time></trkpt><trkpt lat="44.00578687841752" lon="7.996451821987903"><ele>694.25</ele><time>2026-04-18T09:06:39Z</time></trkpt><trkpt lat="44.00589122871639" lon="7.996336733846147"><ele>700.0</ele><time>2026-04-18T09:06:40Z</time></trkpt><trkpt lat="44.00599987389549" lon="7.996220338486573"><ele>696.6</ele><time>2026-04-18T09:06:41Z</time></trkpt><trkpt lat="44.00610163759959" lon="7.996119714905439"><ele>693.2</ele><time>2026-04-18T09:06:42Z</time></trkpt><trkpt lat="44.00619486879848" lon="7.9960313099569245"><ele>689.8</ele><time>2026-04-18T09:06:43Z</time></trkpt><trkpt lat="44.006270654182586" lon="7.995955138315646"><ele>686.4</ele><time>2026-04-18T09:06:44Z</time></trkpt><trkpt lat="44.00631344716842" lon="7.995866871166409"><ele>683.0</ele><time>2026-04-18T09:06:45Z</time></trkpt><trkpt lat="44.00633388053444" lon="7.995742100606412"><ele>683.0</ele><time>2026-04-18T09:06:46Z</time></trkpt><trkpt lat="44.006315641227765" lon="7.99560429471575"><ele>683.0</ele><time>2026-04-18T09:06:47Z</time></trkpt><trkpt lat="44.006287187048386" lon="7.995425144398116"><ele>683.0</ele><time>2026-04-18T09:06:48Z</time></trkpt><trkpt lat="44.006270861386334" lon="7.995232781940144"><ele>683.0</ele><time>2026-04-18T09:06:49Z</time></trkpt><trkpt lat="44.00626092296493" lon="7.995040838615687"><ele>688.0</ele><time>2026-04-18T09:06:50Z</time></trkpt><trkpt lat="44.00625389679059" lon="7.994849198334111"><ele>693.0</ele><time>2026-04-18T09:06:51Z</time></trkpt><trkpt lat="44.006250544189946" lon="7.994687139578673"><ele>698.0</ele><time>2026-04-18T09:06:52Z</time></trkpt><trkpt lat="44.00627418517652" lon="7.994536498600209"><ele>703.0</ele><time>2026-04-18T09:06:53Z</time></trkpt><trkpt lat="44.00634601804611" lon="7.994398724930989"><ele>703.0</ele><time>2026-04-18T09:06:54Z</time></trkpt><trkpt lat="44.006388027838874" lon="7.994244579569121"><ele>703.0</ele><time>2026-04-18T09:06:55Z</time></trkpt><trkpt lat="44.00644874436962" lon="7.994113616509986"><ele>703.0</ele><time>2026-04-18T09:06:56Z</time></trkpt><trkpt lat="44.00649855024724" lon="7.993974705776572"><ele>703.0</ele><time>2026-04-18T09:06:57Z</time></trkpt><trkpt lat="44.0065402979559" lon="7.993828975403436"><ele>705.5</ele><time>2026-04-18T09:06:58Z</time></trkpt><trkpt lat="44.00658353757379" lon="7.993666897130453"><ele>708.0</ele><time>2026-04-18T09:06:59Z</time></trkpt><trkpt lat="44.006628535078534" lon="7.993495625072696"><ele>710.5</ele><time>2026-04-18T09:07:00Z</time></trkpt><trkpt lat="44.00667601706634" lon="7.993319851293675"><ele>713.0</ele><time>2026-04-18T09:07:01Z</time></trkpt><trkpt lat="44.00671324806889" lon="7.993145702813919"><ele>706.5</ele><time>2026-04-18T09:07:02Z</time></trkpt><trkpt lat="44.006737837931546" lon="7.992972377168292"><ele>700.0</ele><time>2026-04-18T09:07:03Z</time></trkpt><trkpt lat="44.006742100533536" lon="7.992790625543309"><ele>693.5</ele><time>2026-04-18T09:07:04Z</time></trkpt><trkpt lat="44.00673302645574" lon="7.992606920780354"><ele>687.0</ele><time>2026-04-18T09:07:05Z</time></trkpt><trkpt lat="44.00672338608419" lon="7.9924307103875645"><ele>687.0</ele><time>2026-04-18T09:07:06Z</time></trkpt><trkpt lat="44.006719244203204" lon="7.992260058069217"><ele>687.0</ele><time>2026-04-18T09:07:07Z</time></trkpt><trkpt lat="44.006716240535404" lon="7.99208742934982"><ele>687.0</ele><time>2026-04-18T09:07:08.001Z</time></trkpt><trkpt lat="44.006721961597215" lon="7.9919244575705"><ele>687.0</ele><time>2026-04-18T09:07:09.001Z</time></trkpt><trkpt lat="44.006742653402185" lon="7.991761247494977"><ele>686.0</ele><time>2026-04-18T09:07:10.001Z</time></trkpt><trkpt lat="44.006772967732346" lon="7.991620658314306"><ele>685.0</ele><time>2026-04-18T09:07:11.001Z</time></trkpt><trkpt lat="44.006809206082885" lon="7.991498730971457"><ele>684.0</ele><time>2026-04-18T09:07:12.001Z</time></trkpt><trkpt lat="44.006854668970654" lon="7.9913992851435935"><ele>683.0</ele><time>2026-04-18T09:07:13.001Z</time></trkpt><trkpt lat="44.00690676562154" lon="7.991326772440544"><ele>682.0</ele><time>2026-04-18T09:07:14.001Z</time></trkpt><trkpt lat="44.006955262073085" lon="7.991267595846734"><ele>681.0</ele><time>2026-04-18T09:07:15.001Z</time></trkpt><trkpt lat="44.00703666479684" lon="7.991168159217196"><ele>681.0</ele><time>2026-04-18T09:07:17.001Z</time></trkpt><trkpt lat="44.00709940509447" lon="7.9910929302904075"><ele>681.0</ele><time>2026-04-18T09:07:19.001Z</time></trkpt><trkpt lat="44.00716544207614" lon="7.9910148981773474"><ele>681.0</ele><time>2026-04-18T09:07:21.001Z</time></trkpt><trkpt lat="44.00719236354312" lon="7.990924074788566"><ele>681.0</ele><time>2026-04-18T09:07:23.001Z</time></trkpt><trkpt lat="44.00723792560464" lon="7.9908203744275195"><ele>681.0</ele><time>2026-04-18T09:07:26.001Z</time></trkpt><trkpt lat="44.007271421559615" lon="7.990691394594249"><ele>681.0</ele><time>2026-04-18T09:07:51.001Z</time></trkpt><trkpt lat="44.00733502878708" lon="7.990529062605827"><ele>680.6666666666666</ele><time>2026-04-18T09:07:53.001Z</time></trkpt><trkpt lat="44.00737787577761" lon="7.9904425012619065"><ele>680.3333333333334</ele><time>2026-04-18T09:07:54.001Z</time></trkpt><trkpt lat="44.00743293731048" lon="7.99035268304496"><ele>680.0</ele><time>2026-04-18T09:07:55.001Z</time></trkpt><trkpt lat="44.00749324874416" lon="7.9902703209171095"><ele>679.6666666666667</ele><time>2026-04-18T09:07:56.001Z</time></trkpt><trkpt lat="44.00754375110075" lon="7.990169042002017"><ele>679.3333333333334</ele><time>2026-04-18T09:07:57.001Z</time></trkpt><trkpt lat="44.00759281998909" lon="7.990063989050101"><ele>679.0</ele><time>2026-04-18T09:07:58.001Z</time></trkpt><trkpt lat="44.00764568545961" lon="7.989955537516404"><ele>677.2</ele><time>2026-04-18T09:07:59.001Z</time></trkpt><trkpt lat="44.00770748018035" lon="7.9898517177656725"><ele>675.4000000000001</ele><time>2026-04-18T09:08:00.001Z</time></trkpt><trkpt lat="44.0077936352071" lon="7.989766934315387"><ele>673.6</ele><time>2026-04-18T09:08:01.001Z</time></trkpt><trkpt lat="44.00784582658742" lon="7.989636137208035"><ele>671.8</ele><time>2026-04-18T09:08:02.001Z</time></trkpt><trkpt lat="44.00790148039486" lon="7.989512268180199"><ele>670.0</ele><time>2026-04-18T09:08:03.001Z</time></trkpt><trkpt lat="44.00794981905123" lon="7.989381065960979"><ele>670.0</ele><time>2026-04-18T09:08:04.001Z</time></trkpt><trkpt lat="44.00797938298635" lon="7.9892491339171245"><ele>670.0</ele><time>2026-04-18T09:08:05.001Z</time></trkpt><trkpt lat="44.00797517163641" lon="7.989112900404859"><ele>670.0</ele><time>2026-04-18T09:08:06.001Z</time></trkpt><trkpt lat="44.007951357459575" lon="7.988991750759253"><ele>670.0</ele><time>2026-04-18T09:08:07.001Z</time></trkpt><trkpt lat="44.007955504045796" lon="7.988879098744798"><ele>670.0</ele><time>2026-04-18T09:08:08.001Z</time></trkpt><trkpt lat="44.007958762602264" lon="7.988791678520152"><ele>670.0</ele><time>2026-04-18T09:08:09.001Z</time></trkpt><trkpt lat="44.0080746364295" lon="7.988697228719943"><ele>673.2</ele><time>2026-04-18T09:08:11.001Z</time></trkpt><trkpt lat="44.00815335202038" lon="7.988612113558501"><ele>676.4</ele><time>2026-04-18T09:08:12.001Z</time></trkpt><trkpt lat="44.008240125766385" lon="7.98851561972407"><ele>679.5999999999999</ele><time>2026-04-18T09:08:13.001Z</time></trkpt><trkpt lat="44.008336610862415" lon="7.988434132162134"><ele>682.8</ele><time>2026-04-18T09:08:14.001Z</time></trkpt><trkpt lat="44.008414831209905" lon="7.988365030679772"><ele>686.0</ele><time>2026-04-18T09:08:15.001Z</time></trkpt><trkpt lat="44.008508469007815" lon="7.988356439959458"><ele>680.4</ele><time>2026-04-18T09:08:16.001Z</time></trkpt><trkpt lat="44.00860244761169" lon="7.988320804101507"><ele>674.8</ele><time>2026-04-18T09:08:17.001Z</time></trkpt><trkpt lat="44.008686440016334" lon="7.988246317582709"><ele>669.1999999999999</ele><time>2026-04-18T09:08:18.001Z</time></trkpt><trkpt lat="44.00873602922931" lon="7.988091831706446"><ele>663.5999999999999</ele><time>2026-04-18T09:08:19.001Z</time></trkpt><trkpt lat="44.00881967264159" lon="7.9880053978505"><ele>658.0</ele><time>2026-04-18T09:08:20.001Z</time></trkpt><trkpt lat="44.008877709736105" lon="7.987885709498141"><ele>658.0</ele><time>2026-04-18T09:08:21Z</time></trkpt><trkpt lat="44.008915423646165" lon="7.987747803525715"><ele>658.0</ele><time>2026-04-18T09:08:22Z</time></trkpt><trkpt lat="44.00894122466501" lon="7.987606917092103"><ele>658.0</ele><time>2026-04-18T09:08:23Z</time></trkpt><trkpt lat="44.00896553949409" lon="7.987481599970187"><ele>658.0</ele><time>2026-04-18T09:08:24Z</time></trkpt><trkpt lat="44.00898811126024" lon="7.987378581962897"><ele>658.0</ele><time>2026-04-18T09:08:25Z</time></trkpt><trkpt lat="44.00907789292925" lon="7.987274157280981"><ele>658.8</ele><time>2026-04-18T09:08:27Z</time></trkpt><trkpt lat="44.00916481924712" lon="7.98726951373017"><ele>659.5999999999999</ele><time>2026-04-18T09:08:28Z</time></trkpt><trkpt lat="44.00926233994193" lon="7.987192155422578"><ele>660.4000000000001</ele><time>2026-04-18T09:08:29Z</time></trkpt><trkpt lat="44.00935717563106" lon="7.987117388481677"><ele>661.2</ele><time>2026-04-18T09:08:30Z</time></trkpt><trkpt lat="44.00942621742137" lon="7.987007866725621"><ele>662.0</ele><time>2026-04-18T09:08:31Z</time></trkpt><trkpt lat="44.0094693180509" lon="7.9868756789900415"><ele>662.0</ele><time>2026-04-18T09:08:32Z</time></trkpt><trkpt lat="44.009488210865825" lon="7.986710664167993"><ele>662.0</ele><time>2026-04-18T09:08:33Z</time></trkpt><trkpt lat="44.009514743205024" lon="7.986545243765948"><ele>662.0</ele><time>2026-04-18T09:08:34Z</time></trkpt><trkpt lat="44.00949780794597" lon="7.986374970095393"><ele>662.0</ele><time>2026-04-18T09:08:35Z</time></trkpt><trkpt lat="44.00945101858656" lon="7.986236369558384"><ele>658.0</ele><time>2026-04-18T09:08:36Z</time></trkpt><trkpt lat="44.00944806802645" lon="7.9861078078159995"><ele>654.0</ele><time>2026-04-18T09:08:37Z</time></trkpt><trkpt lat="44.009443125590984" lon="7.986003532298763"><ele>650.0</ele><time>2026-04-18T09:08:38Z</time></trkpt><trkpt lat="44.00948936020816" lon="7.985886417940889"><ele>646.0</ele><time>2026-04-18T09:08:39Z</time></trkpt><trkpt lat="44.00950457893163" lon="7.985760594720967"><ele>642.0</ele><time>2026-04-18T09:08:40Z</time></trkpt><trkpt lat="44.00949715898285" lon="7.9856150735708455"><ele>639.5</ele><time>2026-04-18T09:08:41Z</time></trkpt><trkpt lat="44.0094333205931" lon="7.985472974812269"><ele>637.0</ele><time>2026-04-18T09:08:42Z</time></trkpt><trkpt lat="44.00938926707878" lon="7.985361968730312"><ele>634.5</ele><time>2026-04-18T09:08:43Z</time></trkpt><trkpt lat="44.009363706614266" lon="7.985264458022482"><ele>632.0</ele><time>2026-04-18T09:08:44Z</time></trkpt><trkpt lat="44.00935765885271" lon="7.9851633113363825"><ele>629.5</ele><time>2026-04-18T09:08:45Z</time></trkpt><trkpt lat="44.00940609439467" lon="7.985077120652771"><ele>627.0</ele><time>2026-04-18T09:08:46Z</time></trkpt><trkpt lat="44.00945060116125" lon="7.984960852544762"><ele>625.0</ele><time>2026-04-18T09:08:47Z</time></trkpt><trkpt lat="44.00950012723179" lon="7.984837093210988"><ele>623.0</ele><time>2026-04-18T09:08:48Z</time></trkpt><trkpt lat="44.009549399486396" lon="7.984713968034769"><ele>621.0</ele><time>2026-04-18T09:08:49Z</time></trkpt><trkpt lat="44.009589896615175" lon="7.984579279696834"><ele>619.0</ele><time>2026-04-18T09:08:50Z</time></trkpt><trkpt lat="44.00966724406464" lon="7.984483210141523"><ele>617.0</ele><time>2026-04-18T09:08:51Z</time></trkpt><trkpt lat="44.00974822105961" lon="7.984399525889031"><ele>617.0</ele><time>2026-04-18T09:08:52Z</time></trkpt><trkpt lat="44.009818058471716" lon="7.9842846933488545"><ele>617.0</ele><time>2026-04-18T09:08:53Z</time></trkpt><trkpt lat="44.00983754175746" lon="7.984144455152653"><ele>617.0</ele><time>2026-04-18T09:08:54Z</time></trkpt><trkpt lat="44.009878275109294" lon="7.984017713159714"><ele>617.0</ele><time>2026-04-18T09:08:55Z</time></trkpt><trkpt lat="44.00987444814997" lon="7.983873422899016"><ele>617.0</ele><time>2026-04-18T09:08:56Z</time></trkpt><trkpt lat="44.0098663720297" lon="7.98374420442466"><ele>619.4</ele><time>2026-04-18T09:08:57Z</time></trkpt><trkpt lat="44.00987208127106" lon="7.983613926756978"><ele>621.8000000000001</ele><time>2026-04-18T09:08:58Z</time></trkpt><trkpt lat="44.00990515432869" lon="7.983495574624591"><ele>624.2</ele><time>2026-04-18T09:08:59Z</time></trkpt><trkpt lat="44.009954617828775" lon="7.983376286367581"><ele>626.6</ele><time>2026-04-18T09:09:00Z</time></trkpt><trkpt lat="44.01000945280317" lon="7.983260496365885"><ele>629.0</ele><time>2026-04-18T09:09:01Z</time></trkpt><trkpt lat="44.010051489458974" lon="7.983133083468655"><ele>629.0</ele><time>2026-04-18T09:09:02Z</time></trkpt><trkpt lat="44.01006280718693" lon="7.98298141329642"><ele>629.0</ele><time>2026-04-18T09:09:03Z</time></trkpt><trkpt lat="44.01002915091129" lon="7.982827453496246"><ele>629.0</ele><time>2026-04-18T09:09:04Z</time></trkpt><trkpt lat="44.01004031297246" lon="7.982671731946667"><ele>629.0</ele><time>2026-04-18T09:09:05Z</time></trkpt><trkpt lat="44.01004166754624" lon="7.98252442189333"><ele>629.0</ele><time>2026-04-18T09:09:06Z</time></trkpt><trkpt lat="44.010038401671174" lon="7.982376753750999"><ele>628.0</ele><time>2026-04-18T09:09:07Z</time></trkpt><trkpt lat="44.01001157997178" lon="7.9822288158981385"><ele>627.0</ele><time>2026-04-18T09:09:08Z</time></trkpt><trkpt lat="44.00996218063335" lon="7.9820959166758225"><ele>626.0</ele><time>2026-04-18T09:09:09Z</time></trkpt><trkpt lat="44.009917754326224" lon="7.981963963882931"><ele>625.0</ele><time>2026-04-18T09:09:10Z</time></trkpt><trkpt lat="44.00987470770939" lon="7.981836517699411"><ele>624.0</ele><time>2026-04-18T09:09:11Z</time></trkpt><trkpt lat="44.00983167100402" lon="7.98170093759818"><ele>617.4</ele><time>2026-04-18T09:09:12Z</time></trkpt><trkpt lat="44.00978253634486" lon="7.981566851045749"><ele>610.8</ele><time>2026-04-18T09:09:13Z</time></trkpt><trkpt lat="44.009763363678175" lon="7.981415541608262"><ele>604.2</ele><time>2026-04-18T09:09:14Z</time></trkpt><trkpt lat="44.00971765672323" lon="7.981286294271072"><ele>597.6</ele><time>2026-04-18T09:09:15Z</time></trkpt><trkpt lat="44.00971043148396" lon="7.9811631871933155"><ele>591.0</ele><time>2026-04-18T09:09:16Z</time></trkpt><trkpt lat="44.009704586224885" lon="7.981058750759742"><ele>591.0</ele><time>2026-04-18T09:09:17Z</time></trkpt><trkpt lat="44.00975331226967" lon="7.980969348860765"><ele>591.0</ele><time>2026-04-18T09:09:18Z</time></trkpt><trkpt lat="44.009817466317095" lon="7.980836123612757"><ele>591.0</ele><time>2026-04-18T09:09:19Z</time></trkpt><trkpt lat="44.009878999930166" lon="7.98071066689014"><ele>591.0</ele><time>2026-04-18T09:09:20Z</time></trkpt><trkpt lat="44.00994394634745" lon="7.9805787754467055"><ele>591.0</ele><time>2026-04-18T09:09:21Z</time></trkpt><trkpt lat="44.01002175360744" lon="7.980410171482874"><ele>593.0</ele><time>2026-04-18T09:09:22Z</time></trkpt><trkpt lat="44.010074547149586" lon="7.980262369374418"><ele>595.0</ele><time>2026-04-18T09:09:23Z</time></trkpt><trkpt lat="44.01013294717513" lon="7.980129293789089"><ele>597.0</ele><time>2026-04-18T09:09:24Z</time></trkpt><trkpt lat="44.010215426997355" lon="7.980013235227292"><ele>599.0</ele><time>2026-04-18T09:09:25Z</time></trkpt><trkpt lat="44.01027092328999" lon="7.979887162688293"><ele>599.0</ele><time>2026-04-18T09:09:26.001Z</time></trkpt><trkpt lat="44.01032731232564" lon="7.979765607750616"><ele>599.0</ele><time>2026-04-18T09:09:27.001Z</time></trkpt><trkpt lat="44.01030843260131" lon="7.979608725690526"><ele>599.0</ele><time>2026-04-18T09:09:28.001Z</time></trkpt><trkpt lat="44.01034557930021" lon="7.979470069836571"><ele>599.0</ele><time>2026-04-18T09:09:29.001Z</time></trkpt><trkpt lat="44.01036823161084" lon="7.979332810240911"><ele>599.0</ele><time>2026-04-18T09:09:30.001Z</time></trkpt><trkpt lat="44.01036742300033" lon="7.979185725935186"><ele>595.0</ele><time>2026-04-18T09:09:31.001Z</time></trkpt><trkpt lat="44.01032983898993" lon="7.97903535329741"><ele>591.0</ele><time>2026-04-18T09:09:32.001Z</time></trkpt><trkpt lat="44.01030824083446" lon="7.978873759036393"><ele>587.0</ele><time>2026-04-18T09:09:33.001Z</time></trkpt><trkpt lat="44.010299629449165" lon="7.978708238571433"><ele>583.0</ele><time>2026-04-18T09:09:34.001Z</time></trkpt><trkpt lat="44.01029972801424" lon="7.978545688822332"><ele>583.0</ele><time>2026-04-18T09:09:35.001Z</time></trkpt><trkpt lat="44.01030051328887" lon="7.97838603844139"><ele>583.0</ele><time>2026-04-18T09:09:36.001Z</time></trkpt><trkpt lat="44.010283246910646" lon="7.978230144195236"><ele>583.0</ele><time>2026-04-18T09:09:37.001Z</time></trkpt><trkpt lat="44.010234232593824" lon="7.978097831541803"><ele>583.0</ele><time>2026-04-18T09:09:38.001Z</time></trkpt><trkpt lat="44.01020123884445" lon="7.977975796133551"><ele>583.0</ele><time>2026-04-18T09:09:39.001Z</time></trkpt><trkpt lat="44.01016555288699" lon="7.977875887684926"><ele>582.6666666666667</ele><time>2026-04-18T09:09:40.001Z</time></trkpt><trkpt lat="44.01013988987402" lon="7.977783934606171"><ele>582.3333333333334</ele><time>2026-04-18T09:09:41.001Z</time></trkpt><trkpt lat="44.01012789850599" lon="7.977691020489865"><ele>582.0</ele><time>2026-04-18T09:09:42.001Z</time></trkpt><trkpt lat="44.01017305066211" lon="7.9776041250546355"><ele>581.6666666666666</ele><time>2026-04-18T09:09:43.001Z</time></trkpt><trkpt lat="44.0102344731875" lon="7.977523202846392"><ele>581.3333333333333</ele><time>2026-04-18T09:09:44.001Z</time></trkpt><trkpt lat="44.01029228115346" lon="7.977438480221422"><ele>581.0</ele><time>2026-04-18T09:09:45.001Z</time></trkpt><trkpt lat="44.01032449466351" lon="7.977358302762224"><ele>580.6</ele><time>2026-04-18T09:09:46.001Z</time></trkpt><trkpt lat="44.010315248262245" lon="7.977247776470481"><ele>580.2</ele><time>2026-04-18T09:09:47.001Z</time></trkpt><trkpt lat="44.01023708289" lon="7.977136437471633"><ele>579.8</ele><time>2026-04-18T09:09:48.001Z</time></trkpt><trkpt lat="44.01017383054468" lon="7.977020081060271"><ele>579.4</ele><time>2026-04-18T09:09:49.001Z</time></trkpt><trkpt lat="44.010095556783774" lon="7.976898374187181"><ele>579.0</ele><time>2026-04-18T09:09:50.001Z</time></trkpt><trkpt lat="44.009998001919094" lon="7.976813168805336"><ele>572.0</ele><time>2026-04-18T09:09:51.001Z</time></trkpt><trkpt lat="44.009926677034535" lon="7.976709591678621"><ele>565.0</ele><time>2026-04-18T09:09:52.001Z</time></trkpt><trkpt lat="44.00987355349955" lon="7.976588775152077"><ele>558.0</ele><time>2026-04-18T09:09:53.001Z</time></trkpt><trkpt lat="44.009819081078135" lon="7.976449190434096"><ele>551.0</ele><time>2026-04-18T09:09:54.001Z</time></trkpt><trkpt lat="44.00976210581909" lon="7.9763023634123185"><ele>544.0</ele><time>2026-04-18T09:09:55.001Z</time></trkpt><trkpt lat="44.009696558853726" lon="7.976168049589011"><ele>544.0</ele><time>2026-04-18T09:09:56.001Z</time></trkpt><trkpt lat="44.00963276738716" lon="7.976023964846727"><ele>544.0</ele><time>2026-04-18T09:09:57.001Z</time></trkpt><trkpt lat="44.00958048323705" lon="7.975871070042418"><ele>544.0</ele><time>2026-04-18T09:09:58.001Z</time></trkpt><trkpt lat="44.0095521796399" lon="7.975692896194214"><ele>544.0</ele><time>2026-04-18T09:09:59.001Z</time></trkpt><trkpt lat="44.009492375812" lon="7.975537511199459"><ele>546.75</ele><time>2026-04-18T09:10:00.001Z</time></trkpt><trkpt lat="44.00942941470591" lon="7.975393102045953"><ele>549.5</ele><time>2026-04-18T09:10:01.001Z</time></trkpt><trkpt lat="44.009356163501884" lon="7.975258776881455"><ele>552.25</ele><time>2026-04-18T09:10:02.001Z</time></trkpt><trkpt lat="44.00930225521871" lon="7.975114133115363"><ele>555.0</ele><time>2026-04-18T09:10:03.001Z</time></trkpt><trkpt lat="44.00923662356588" lon="7.97500568384335"><ele>556.6</ele><time>2026-04-18T09:10:04.001Z</time></trkpt><trkpt lat="44.00918777957698" lon="7.974923764721681"><ele>558.2</ele><time>2026-04-18T09:10:05.001Z</time></trkpt><trkpt lat="44.0091811915532" lon="7.97479174255031"><ele>559.8</ele><time>2026-04-18T09:10:07.001Z</time></trkpt><trkpt lat="44.00931782340675" lon="7.974752639008381"><ele>561.4</ele><time>2026-04-18T09:10:09.001Z</time></trkpt><trkpt lat="44.00941315612749" lon="7.974791042844135"><ele>563.0</ele><time>2026-04-18T09:10:10.001Z</time></trkpt><trkpt lat="44.00952241543488" lon="7.974851128541384"><ele>563.0</ele><time>2026-04-18T09:10:11.001Z</time></trkpt><trkpt lat="44.00963280758262" lon="7.974912142983602"><ele>563.0</ele><time>2026-04-18T09:10:12.001Z</time></trkpt><trkpt lat="44.00974354186529" lon="7.9749902307024865"><ele>563.0</ele><time>2026-04-18T09:10:13.001Z</time></trkpt><trkpt lat="44.009830315105965" lon="7.9750784907580785"><ele>563.0</ele><time>2026-04-18T09:10:14.001Z</time></trkpt><trkpt lat="44.00989337607388" lon="7.975212237232204"><ele>561.4</ele><time>2026-04-18T09:10:15.001Z</time></trkpt><trkpt lat="44.009952945055645" lon="7.975329802186487"><ele>559.8</ele><time>2026-04-18T09:10:16Z</time></trkpt><trkpt lat="44.01004279236091" lon="7.975415914937672"><ele>558.2</ele><time>2026-04-18T09:10:17Z</time></trkpt><trkpt lat="44.01015204195616" lon="7.975419346069919"><ele>556.6</ele><time>2026-04-18T09:10:18Z</time></trkpt><trkpt lat="44.01026908147771" lon="7.975380774542031"><ele>555.0</ele><time>2026-04-18T09:10:19Z</time></trkpt><trkpt lat="44.01038215876544" lon="7.975327504145589"><ele>561.75</ele><time>2026-04-18T09:10:20Z</time></trkpt><trkpt lat="44.01050043291697" lon="7.975260836164985"><ele>568.5</ele><time>2026-04-18T09:10:21Z</time></trkpt><trkpt lat="44.01061295134828" lon="7.9751905639490905"><ele>575.25</ele><time>2026-04-18T09:10:22Z</time></trkpt><trkpt lat="44.01071940970203" lon="7.975106995635341"><ele>582.0</ele><time>2026-04-18T09:10:23Z</time></trkpt><trkpt lat="44.01083165630193" lon="7.9750499463252185"><ele>578.0</ele><time>2026-04-18T09:10:24Z</time></trkpt><trkpt lat="44.010908894953126" lon="7.97493147130611"><ele>574.0</ele><time>2026-04-18T09:10:25Z</time></trkpt><trkpt lat="44.01100805831449" lon="7.97485975766161"><ele>570.0</ele><time>2026-04-18T09:10:26Z</time></trkpt><trkpt lat="44.01109542356011" lon="7.9747998237388895"><ele>566.0</ele><time>2026-04-18T09:10:27Z</time></trkpt><trkpt lat="44.01118736660241" lon="7.974733110570991"><ele>562.0</ele><time>2026-04-18T09:10:28Z</time></trkpt><trkpt lat="44.01126891330978" lon="7.974689224227875"><ele>562.0</ele><time>2026-04-18T09:10:29Z</time></trkpt><trkpt lat="44.01134134213861" lon="7.974670297482325"><ele>562.0</ele><time>2026-04-18T09:10:30Z</time></trkpt><trkpt lat="44.01141280828679" lon="7.974692205596293"><ele>562.0</ele><time>2026-04-18T09:10:31Z</time></trkpt><trkpt lat="44.01146711837904" lon="7.97474615706712"><ele>562.0</ele><time>2026-04-18T09:10:32Z</time></trkpt><trkpt lat="44.01153413112824" lon="7.974819580682354"><ele>562.0</ele><time>2026-04-18T09:10:33Z</time></trkpt><trkpt lat="44.011619807169424" lon="7.974853666753603"><ele>562.0</ele><time>2026-04-18T09:10:34Z</time></trkpt><trkpt lat="44.0117226130211" lon="7.97482517633235"><ele>564.0</ele><time>2026-04-18T09:10:35Z</time></trkpt><trkpt lat="44.01183836449763" lon="7.9747781140916825"><ele>566.0</ele><time>2026-04-18T09:10:36Z</time></trkpt><trkpt lat="44.01194051894102" lon="7.9747020668491455"><ele>568.0</ele><time>2026-04-18T09:10:37Z</time></trkpt><trkpt lat="44.01201993089783" lon="7.9746180831209665"><ele>570.0</ele><time>2026-04-18T09:10:38Z</time></trkpt><trkpt lat="44.01209307540108" lon="7.974539440174382"><ele>572.0</ele><time>2026-04-18T09:10:39Z</time></trkpt><trkpt lat="44.01218215920026" lon="7.974420614242845"><ele>572.0</ele><time>2026-04-18T09:10:40Z</time></trkpt><trkpt lat="44.01225281402256" lon="7.974304288189445"><ele>572.0</ele><time>2026-04-18T09:10:41Z</time></trkpt><trkpt lat="44.012352863918416" lon="7.974214654123399"><ele>572.0</ele><time>2026-04-18T09:10:42Z</time></trkpt><trkpt lat="44.012444043157934" lon="7.97410902607947"><ele>572.0</ele><time>2026-04-18T09:10:43Z</time></trkpt><trkpt lat="44.01254001489076" lon="7.974015473087503"><ele>567.2</ele><time>2026-04-18T09:10:44Z</time></trkpt><trkpt lat="44.01262987657291" lon="7.973933803018286"><ele>562.4000000000001</ele><time>2026-04-18T09:10:45Z</time></trkpt><trkpt lat="44.01270153357895" lon="7.973851847215399"><ele>557.5999999999999</ele><time>2026-04-18T09:10:46Z</time></trkpt><trkpt lat="44.01275895557574" lon="7.973782318362273"><ele>552.8</ele><time>2026-04-18T09:10:47Z</time></trkpt><trkpt lat="44.012818815281" lon="7.973722867605289"><ele>548.0</ele><time>2026-04-18T09:10:48Z</time></trkpt><trkpt lat="44.012920619858235" lon="7.973744267617745"><ele>548.0</ele><time>2026-04-18T09:10:50Z</time></trkpt><trkpt lat="44.01299496983957" lon="7.973748838221682"><ele>548.0</ele><time>2026-04-18T09:10:53Z</time></trkpt><trkpt lat="44.01302832236752" lon="7.973881331571464"><ele>548.0</ele><time>2026-04-18T09:10:55Z</time></trkpt><trkpt lat="44.01306577797095" lon="7.973973321532913"><ele>548.0</ele><time>2026-04-18T09:10:56Z</time></trkpt><trkpt lat="44.01310130116969" lon="7.974078590955803"><ele>548.0</ele><time>2026-04-18T09:10:57Z</time></trkpt><trkpt lat="44.013139745181256" lon="7.974191629227825"><ele>548.0</ele><time>2026-04-18T09:10:58Z</time></trkpt><trkpt lat="44.01318483348393" lon="7.97432862491663"><ele>551.8</ele><time>2026-04-18T09:10:59Z</time></trkpt><trkpt lat="44.013240639710695" lon="7.974472302356625"><ele>555.5999999999999</ele><time>2026-04-18T09:11:00Z</time></trkpt><trkpt lat="44.01328785769822" lon="7.974611447122829"><ele>559.4000000000001</ele><time>2026-04-18T09:11:01Z</time></trkpt><trkpt lat="44.0133470076806" lon="7.974722472217499"><ele>563.2</ele><time>2026-04-18T09:11:02Z</time></trkpt><trkpt lat="44.01343249751021" lon="7.974790455929496"><ele>567.0</ele><time>2026-04-18T09:11:03Z</time></trkpt><trkpt lat="44.01357322174" lon="7.974849424669816"><ele>567.0</ele><time>2026-04-18T09:11:04Z</time></trkpt><trkpt lat="44.013720331185425" lon="7.974987854550044"><ele>567.0</ele><time>2026-04-18T09:11:05Z</time></trkpt><trkpt lat="44.01385724040352" lon="7.9751328418082315"><ele>567.0</ele><time>2026-04-18T09:11:06Z</time></trkpt><trkpt lat="44.01395484270085" lon="7.975237968745948"><ele>572.25</ele><time>2026-04-18T09:11:07Z</time></trkpt><trkpt lat="44.01406978439171" lon="7.975378844664789"><ele>577.5</ele><time>2026-04-18T09:11:08Z</time></trkpt><trkpt lat="44.01415343368365" lon="7.975453516450423"><ele>582.75</ele><time>2026-04-18T09:11:10Z</time></trkpt><trkpt lat="44.0142455138559" lon="7.975486844779595"><ele>588.0</ele><time>2026-04-18T09:11:11Z</time></trkpt><trkpt lat="44.01438593041163" lon="7.975424059819827"><ele>588.0</ele><time>2026-04-18T09:11:12Z</time></trkpt><trkpt lat="44.01446053923724" lon="7.975201377922643"><ele>588.0</ele><time>2026-04-18T09:11:13Z</time></trkpt><trkpt lat="44.01452208338035" lon="7.975033011606422"><ele>588.0</ele><time>2026-04-18T09:11:14Z</time></trkpt><trkpt lat="44.014586013691186" lon="7.974854470455748"><ele>575.6666666666666</ele><time>2026-04-18T09:11:15Z</time></trkpt><trkpt lat="44.01465825167649" lon="7.97465940477006"><ele>563.3333333333333</ele><time>2026-04-18T09:11:16Z</time></trkpt><trkpt lat="44.01473348389458" lon="7.974455157120082"><ele>551.0</ele><time>2026-04-18T09:11:17Z</time></trkpt><trkpt lat="44.0148018043301" lon="7.974266114189485"><ele>550.25</ele><time>2026-04-18T09:11:18Z</time></trkpt><trkpt lat="44.014865794356346" lon="7.974107144408524"><ele>549.5</ele><time>2026-04-18T09:11:19Z</time></trkpt><trkpt lat="44.01494344866586" lon="7.973994882356589"><ele>548.75</ele><time>2026-04-18T09:11:20Z</time></trkpt><trkpt lat="44.01502985768972" lon="7.973912404353896"><ele>548.0</ele><time>2026-04-18T09:11:21Z</time></trkpt><trkpt lat="44.01513053258266" lon="7.973936404028336"><ele>548.0</ele><time>2026-04-18T09:11:22Z</time></trkpt><trkpt lat="44.01525266763613" lon="7.9739600908310155"><ele>548.0</ele><time>2026-04-18T09:11:23Z</time></trkpt><trkpt lat="44.015402626731614" lon="7.973961131764483"><ele>548.0</ele><time>2026-04-18T09:11:24Z</time></trkpt><trkpt lat="44.015564084463705" lon="7.973955907265308"><ele>548.0</ele><time>2026-04-18T09:11:25Z</time></trkpt><trkpt lat="44.015728797591514" lon="7.9739453477282085"><ele>554.0</ele><time>2026-04-18T09:11:26Z</time></trkpt><trkpt lat="44.01589775400396" lon="7.973917372054093"><ele>560.0</ele><time>2026-04-18T09:11:27Z</time></trkpt><trkpt lat="44.01607281285151" lon="7.973929214281838"><ele>566.0</ele><time>2026-04-18T09:11:28Z</time></trkpt><trkpt lat="44.016225286499356" lon="7.973984539263224"><ele>566.0</ele><time>2026-04-18T09:11:29Z</time></trkpt><trkpt lat="44.01637810870525" lon="7.974012196501135"><ele>566.0</ele><time>2026-04-18T09:11:30Z</time></trkpt><trkpt lat="44.01651016657783" lon="7.974016253566862"><ele>566.0</ele><time>2026-04-18T09:11:31Z</time></trkpt><trkpt lat="44.01661152984983" lon="7.9740389255347575"><ele>566.0</ele><time>2026-04-18T09:11:32Z</time></trkpt><trkpt lat="44.01669963042056" lon="7.974107756801819"><ele>572.8</ele><time>2026-04-18T09:11:33Z</time></trkpt><trkpt lat="44.0167652303441" lon="7.974210286600578"><ele>579.6</ele><time>2026-04-18T09:11:34Z</time></trkpt><trkpt lat="44.01683655637366" lon="7.974306154664097"><ele>586.4</ele><time>2026-04-18T09:11:35Z</time></trkpt><trkpt lat="44.016911522322985" lon="7.974358305137769"><ele>593.2</ele><time>2026-04-18T09:11:36Z</time></trkpt><trkpt lat="44.01698336443866" lon="7.974368320465414"><ele>600.0</ele><time>2026-04-18T09:11:37Z</time></trkpt><trkpt lat="44.017068675497" lon="7.9742986511127825"><ele>590.75</ele><time>2026-04-18T09:11:38Z</time></trkpt><trkpt lat="44.01711860448408" lon="7.974162742004264"><ele>581.5</ele><time>2026-04-18T09:11:39Z</time></trkpt><trkpt lat="44.01716261799124" lon="7.974008211234665"><ele>572.25</ele><time>2026-04-18T09:11:40Z</time></trkpt><trkpt lat="44.01724026369474" lon="7.973878028994017"><ele>563.0</ele><time>2026-04-18T09:11:41Z</time></trkpt><trkpt lat="44.01731288500838" lon="7.973757914657707"><ele>563.0</ele><time>2026-04-18T09:11:42Z</time></trkpt><trkpt lat="44.017379282246345" lon="7.973631611290957"><ele>563.0</ele><time>2026-04-18T09:11:43Z</time></trkpt><trkpt lat="44.017403101315246" lon="7.973501640938516"><ele>563.0</ele><time>2026-04-18T09:11:44Z</time></trkpt><trkpt lat="44.017378589010406" lon="7.973400001898568"><ele>563.0</ele><time>2026-04-18T09:11:45Z</time></trkpt><trkpt lat="44.01731561583322" lon="7.973302172941581"><ele>563.0</ele><time>2026-04-18T09:11:46Z</time></trkpt><trkpt lat="44.017217536709666" lon="7.973219681174547"><ele>557.75</ele><time>2026-04-18T09:11:47Z</time></trkpt><trkpt lat="44.017110351143145" lon="7.973122944988085"><ele>552.5</ele><time>2026-04-18T09:11:48Z</time></trkpt><trkpt lat="44.01702878302549" lon="7.972988247468616"><ele>547.25</ele><time>2026-04-18T09:11:49Z</time></trkpt><trkpt lat="44.01696148469164" lon="7.972811658786332"><ele>542.0</ele><time>2026-04-18T09:11:50Z</time></trkpt><trkpt lat="44.016917674519334" lon="7.972616421261587"><ele>544.25</ele><time>2026-04-18T09:11:51Z</time></trkpt><trkpt lat="44.016870549325795" lon="7.972431370141937"><ele>546.5</ele><time>2026-04-18T09:11:52Z</time></trkpt><trkpt lat="44.01681362453053" lon="7.972240219337249"><ele>548.75</ele><time>2026-04-18T09:11:53Z</time></trkpt><trkpt lat="44.01674023994983" lon="7.972043284714333"><ele>551.0</ele><time>2026-04-18T09:11:54Z</time></trkpt><trkpt lat="44.016649455303416" lon="7.971837058455605"><ele>546.75</ele><time>2026-04-18T09:11:55Z</time></trkpt><trkpt lat="44.01653901260767" lon="7.971677876102445"><ele>542.5</ele><time>2026-04-18T09:11:56Z</time></trkpt><trkpt lat="44.01642716442714" lon="7.9715606664359075"><ele>538.25</ele><time>2026-04-18T09:11:57Z</time></trkpt><trkpt lat="44.01633860413109" lon="7.971443543358198"><ele>534.0</ele><time>2026-04-18T09:11:58Z</time></trkpt><trkpt lat="44.016305829920455" lon="7.971286636660486"><ele>534.0</ele><time>2026-04-18T09:11:59Z</time></trkpt><trkpt lat="44.01624447672078" lon="7.971118771857078"><ele>534.0</ele><time>2026-04-18T09:12:00Z</time></trkpt><trkpt lat="44.016167062676395" lon="7.970947964494451"><ele>534.0</ele><time>2026-04-18T09:12:01Z</time></trkpt><trkpt lat="44.01609573832877" lon="7.970797065421171"><ele>534.0</ele><time>2026-04-18T09:12:02Z</time></trkpt><trkpt lat="44.01605648513862" lon="7.9706464440575004"><ele>537.8</ele><time>2026-04-18T09:12:03Z</time></trkpt><trkpt lat="44.0160497568195" lon="7.970519791165976"><ele>541.5999999999999</ele><time>2026-04-18T09:12:04Z</time></trkpt><trkpt lat="44.01606188205042" lon="7.970396626916729"><ele>545.4</ele><time>2026-04-18T09:12:05Z</time></trkpt><trkpt lat="44.01610320696032" lon="7.970284075313244"><ele>549.1999999999999</ele><time>2026-04-18T09:12:06Z</time></trkpt><trkpt lat="44.01621542624182" lon="7.970247853328685"><ele>553.0</ele><time>2026-04-18T09:12:07Z</time></trkpt><trkpt lat="44.01632267568678" lon="7.970233842360374"><ele>553.0</ele><time>2026-04-18T09:12:08Z</time></trkpt><trkpt lat="44.01644957689633" lon="7.970209239414586"><ele>553.0</ele><time>2026-04-18T09:12:09Z</time></trkpt><trkpt lat="44.016555316749105" lon="7.9701923070411125"><ele>553.0</ele><time>2026-04-18T09:12:10Z</time></trkpt><trkpt lat="44.01664156678792" lon="7.970104416649603"><ele>553.0</ele><time>2026-04-18T09:12:11Z</time></trkpt><trkpt lat="44.016709620822006" lon="7.969962712659612"><ele>557.0</ele><time>2026-04-18T09:12:12Z</time></trkpt><trkpt lat="44.01676583845093" lon="7.969798946982958"><ele>561.0</ele><time>2026-04-18T09:12:13Z</time></trkpt><trkpt lat="44.016851820422126" lon="7.969694974203393"><ele>565.0</ele><time>2026-04-18T09:12:14Z</time></trkpt><trkpt lat="44.016962227524154" lon="7.969605043299115"><ele>569.0</ele><time>2026-04-18T09:12:15Z</time></trkpt><trkpt lat="44.01705199057915" lon="7.9694796910640795"><ele>569.0</ele><time>2026-04-18T09:12:16Z</time></trkpt><trkpt lat="44.01712501330432" lon="7.969339338153711"><ele>569.0</ele><time>2026-04-18T09:12:17Z</time></trkpt><trkpt lat="44.01715331703584" lon="7.969171301419483"><ele>569.0</ele><time>2026-04-18T09:12:18Z</time></trkpt><trkpt lat="44.017152547005715" lon="7.969024743970697"><ele>569.0</ele><time>2026-04-18T09:12:19Z</time></trkpt><trkpt lat="44.017123867775304" lon="7.968897395091764"><ele>566.0</ele><time>2026-04-18T09:12:20Z</time></trkpt><trkpt lat="44.017074346001834" lon="7.96877295506086"><ele>563.0</ele><time>2026-04-18T09:12:21Z</time></trkpt><trkpt lat="44.01697115344932" lon="7.968719017529479"><ele>560.0</ele><time>2026-04-18T09:12:22Z</time></trkpt><trkpt lat="44.016853926414825" lon="7.9686881484739525"><ele>557.0</ele><time>2026-04-18T09:12:23Z</time></trkpt><trkpt lat="44.016737498994246" lon="7.968606867043019"><ele>552.75</ele><time>2026-04-18T09:12:24Z</time></trkpt><trkpt lat="44.01664090134987" lon="7.968487017810862"><ele>548.5</ele><time>2026-04-18T09:12:25Z</time></trkpt><trkpt lat="44.016540316030394" lon="7.968357047843054"><ele>544.25</ele><time>2026-04-18T09:12:26Z</time></trkpt><trkpt lat="44.016469749573766" lon="7.968226544234347"><ele>540.0</ele><time>2026-04-18T09:12:27Z</time></trkpt><trkpt lat="44.01642306971913" lon="7.9680692233308275"><ele>540.0</ele><time>2026-04-18T09:12:28Z</time></trkpt><trkpt lat="44.01641597979875" lon="7.967899559531504"><ele>540.0</ele><time>2026-04-18T09:12:29Z</time></trkpt><trkpt lat="44.01642667970738" lon="7.967735138324634"><ele>540.0</ele><time>2026-04-18T09:12:30Z</time></trkpt><trkpt lat="44.01646378973224" lon="7.967597787878278"><ele>540.0</ele><time>2026-04-18T09:12:31Z</time></trkpt><trkpt lat="44.01654038119546" lon="7.967502093288417"><ele>540.0</ele><time>2026-04-18T09:12:32Z</time></trkpt><trkpt lat="44.01660743845367" lon="7.967365223156575"><ele>550.5</ele><time>2026-04-18T09:12:33Z</time></trkpt><trkpt lat="44.01667083641353" lon="7.967207609385465"><ele>561.0</ele><time>2026-04-18T09:12:34Z</time></trkpt><trkpt lat="44.0167071231271" lon="7.9670329081534375"><ele>571.5</ele><time>2026-04-18T09:12:35Z</time></trkpt><trkpt lat="44.016725765911005" lon="7.966867716824015"><ele>582.0</ele><time>2026-04-18T09:12:36Z</time></trkpt><trkpt lat="44.01670490769682" lon="7.966731779969469"><ele>583.75</ele><time>2026-04-18T09:12:37Z</time></trkpt><trkpt lat="44.01666753214396" lon="7.966617595868609"><ele>585.5</ele><time>2026-04-18T09:12:38Z</time></trkpt><trkpt lat="44.016569162863796" lon="7.966549844285322"><ele>587.25</ele><time>2026-04-18T09:12:39Z</time></trkpt><trkpt lat="44.01641774452148" lon="7.966570985037824"><ele>589.0</ele><time>2026-04-18T09:12:40Z</time></trkpt><trkpt lat="44.01628247156115" lon="7.966549934143883"><ele>583.25</ele><time>2026-04-18T09:12:41Z</time></trkpt><trkpt lat="44.01616582206348" lon="7.96651168886062"><ele>577.5</ele><time>2026-04-18T09:12:42Z</time></trkpt><trkpt lat="44.01605840350055" lon="7.966419523289283"><ele>571.75</ele><time>2026-04-18T09:12:43Z</time></trkpt><trkpt lat="44.015950342974136" lon="7.9662983109053105"><ele>566.0</ele><time>2026-04-18T09:12:44Z</time></trkpt><trkpt lat="44.015854672227704" lon="7.966187650035449"><ele>566.5</ele><time>2026-04-18T09:12:45Z</time></trkpt><trkpt lat="44.015786854629695" lon="7.9660706793661955"><ele>567.0</ele><time>2026-04-18T09:12:46Z</time></trkpt><trkpt lat="44.01574740603411" lon="7.9659100062709305"><ele>567.5</ele><time>2026-04-18T09:12:47Z</time></trkpt><trkpt lat="44.01566751538185" lon="7.965786489427972"><ele>568.0</ele><time>2026-04-18T09:12:48Z</time></trkpt><trkpt lat="44.01556613112003" lon="7.96571070073998"><ele>575.75</ele><time>2026-04-18T09:12:49Z</time></trkpt><trkpt lat="44.015473732973625" lon="7.965653266482299"><ele>583.5</ele><time>2026-04-18T09:12:50Z</time></trkpt><trkpt lat="44.01538158763714" lon="7.965611582109492"><ele>591.25</ele><time>2026-04-18T09:12:51Z</time></trkpt><trkpt lat="44.01526863946998" lon="7.965716366209886"><ele>599.0</ele><time>2026-04-18T09:12:52Z</time></trkpt><trkpt lat="44.01515716566418" lon="7.965827622638477"><ele>591.25</ele><time>2026-04-18T09:12:53Z</time></trkpt><trkpt lat="44.01504597246686" lon="7.965959064612669"><ele>583.5</ele><time>2026-04-18T09:12:54Z</time></trkpt><trkpt lat="44.01493801312355" lon="7.966084236578365"><ele>575.75</ele><time>2026-04-18T09:12:55Z</time></trkpt><trkpt lat="44.014835761225626" lon="7.966220602139784"><ele>568.0</ele><time>2026-04-18T09:12:56Z</time></trkpt><trkpt lat="44.014724828571715" lon="7.966290546180747"><ele>567.25</ele><time>2026-04-18T09:12:57Z</time></trkpt><trkpt lat="44.01462163577262" lon="7.966335810922052"><ele>566.5</ele><time>2026-04-18T09:12:58Z</time></trkpt><trkpt lat="44.0145195719225" lon="7.9662970229234995"><ele>565.75</ele><time>2026-04-18T09:12:59Z</time></trkpt><trkpt lat="44.014403935395485" lon="7.966241520466438"><ele>565.0</ele><time>2026-04-18T09:13:00Z</time></trkpt><trkpt lat="44.014291044554625" lon="7.966164221567631"><ele>565.0</ele><time>2026-04-18T09:13:01Z</time></trkpt><trkpt lat="44.01420501517354" lon="7.966069140638871"><ele>565.0</ele><time>2026-04-18T09:13:02Z</time></trkpt><trkpt lat="44.01412486884236" lon="7.965937307750413"><ele>565.0</ele><time>2026-04-18T09:13:03Z</time></trkpt><trkpt lat="44.01408310388332" lon="7.965796224161434"><ele>565.0</ele><time>2026-04-18T09:13:04Z</time></trkpt><trkpt lat="44.0140754083203" lon="7.965635077332264"><ele>562.6666666666667</ele><time>2026-04-18T09:13:05Z</time></trkpt><trkpt lat="44.01405559879611" lon="7.965429883710767"><ele>560.3333333333334</ele><time>2026-04-18T09:13:06Z</time></trkpt><trkpt lat="44.01401955566605" lon="7.965216564251691"><ele>558.0</ele><time>2026-04-18T09:13:07Z</time></trkpt><trkpt lat="44.01397318276317" lon="7.965009114939062"><ele>558.0</ele><time>2026-04-18T09:13:08Z</time></trkpt><trkpt lat="44.01393882627358" lon="7.964837360830597"><ele>558.0</ele><time>2026-04-18T09:13:09Z</time></trkpt><trkpt lat="44.013931648247734" lon="7.964660933824607"><ele>558.0</ele><time>2026-04-18T09:13:10Z</time></trkpt><trkpt lat="44.013920227997524" lon="7.964453247460183"><ele>558.0</ele><time>2026-04-18T09:13:11Z</time></trkpt><trkpt lat="44.013955144117276" lon="7.964245215386424"><ele>559.6666666666666</ele><time>2026-04-18T09:13:12Z</time></trkpt><trkpt lat="44.0139637695722" lon="7.9640256472680715"><ele>561.3333333333333</ele><time>2026-04-18T09:13:13Z</time></trkpt><trkpt lat="44.013911440634345" lon="7.963796490301054"><ele>563.0</ele><time>2026-04-18T09:13:14Z</time></trkpt><trkpt lat="44.01388997668629" lon="7.9635656700813255"><ele>567.3333333333333</ele><time>2026-04-18T09:13:15Z</time></trkpt><trkpt lat="44.01388925500347" lon="7.9633463800211155"><ele>571.6666666666666</ele><time>2026-04-18T09:13:16Z</time></trkpt><trkpt lat="44.013828869118456" lon="7.9631576509741135"><ele>576.0</ele><time>2026-04-18T09:13:17Z</time></trkpt><trkpt lat="44.013741161953675" lon="7.962979832771091"><ele>576.0</ele><time>2026-04-18T09:13:18Z</time></trkpt><trkpt lat="44.013643225068606" lon="7.9627939002582595"><ele>576.0</ele><time>2026-04-18T09:13:19Z</time></trkpt><trkpt lat="44.01353475568699" lon="7.962615339845059"><ele>576.0</ele><time>2026-04-18T09:13:20Z</time></trkpt><trkpt lat="44.01343600909122" lon="7.962464241002775"><ele>573.25</ele><time>2026-04-18T09:13:21Z</time></trkpt><trkpt lat="44.01334457722206" lon="7.962318340110689"><ele>570.5</ele><time>2026-04-18T09:13:22Z</time></trkpt><trkpt lat="44.01324747579846" lon="7.962220078986101"><ele>567.75</ele><time>2026-04-18T09:13:23Z</time></trkpt><trkpt lat="44.01317912017788" lon="7.962122471273523"><ele>565.0</ele><time>2026-04-18T09:13:24Z</time></trkpt><trkpt lat="44.01312057287469" lon="7.961993572526092"><ele>565.0</ele><time>2026-04-18T09:13:25Z</time></trkpt><trkpt lat="44.01310882601858" lon="7.961824279616777"><ele>565.0</ele><time>2026-04-18T09:13:26Z</time></trkpt><trkpt lat="44.01310659427549" lon="7.961632766768651"><ele>565.0</ele><time>2026-04-18T09:13:27Z</time></trkpt><trkpt lat="44.01311209414222" lon="7.961427708206553"><ele>565.0</ele><time>2026-04-18T09:13:28Z</time></trkpt><trkpt lat="44.01310413183716" lon="7.961199909207538"><ele>567.3333333333334</ele><time>2026-04-18T09:13:29Z</time></trkpt><trkpt lat="44.01309562203522" lon="7.960981520257665"><ele>569.6666666666666</ele><time>2026-04-18T09:13:30Z</time></trkpt><trkpt lat="44.01309353457418" lon="7.960770734938337"><ele>572.0</ele><time>2026-04-18T09:13:31Z</time></trkpt><trkpt lat="44.013073718521234" lon="7.960571304781465"><ele>574.5</ele><time>2026-04-18T09:13:32Z</time></trkpt><trkpt lat="44.01301785527313" lon="7.960407329469764"><ele>577.0</ele><time>2026-04-18T09:13:33Z</time></trkpt><trkpt lat="44.01292435600574" lon="7.96025002336518"><ele>579.5</ele><time>2026-04-18T09:13:34Z</time></trkpt><trkpt lat="44.01281106233574" lon="7.960106291856912"><ele>582.0</ele><time>2026-04-18T09:13:35Z</time></trkpt><trkpt lat="44.01268173381701" lon="7.959968575304107"><ele>582.3333333333334</ele><time>2026-04-18T09:13:36Z</time></trkpt><trkpt lat="44.012564263105666" lon="7.9598075637752315"><ele>582.6666666666667</ele><time>2026-04-18T09:13:37Z</time></trkpt><trkpt lat="44.01243629881948" lon="7.959681494597266"><ele>583.0</ele><time>2026-04-18T09:13:38Z</time></trkpt><trkpt lat="44.01234728025352" lon="7.959523415092809"><ele>583.0</ele><time>2026-04-18T09:13:39Z</time></trkpt><trkpt lat="44.01226259421442" lon="7.959387593635267"><ele>583.0</ele><time>2026-04-18T09:13:40Z</time></trkpt><trkpt lat="44.01216342355919" lon="7.959294778020523"><ele>583.0</ele><time>2026-04-18T09:13:41Z</time></trkpt><trkpt lat="44.01203526471509" lon="7.959256000418249"><ele>583.0</ele><time>2026-04-18T09:13:42Z</time></trkpt><trkpt lat="44.01188987766394" lon="7.959220186480605"><ele>593.3333333333334</ele><time>2026-04-18T09:13:43Z</time></trkpt><trkpt lat="44.01173181902237" lon="7.959195675285345"><ele>603.6666666666666</ele><time>2026-04-18T09:13:44Z</time></trkpt><trkpt lat="44.011564345680675" lon="7.959172479032351"><ele>614.0</ele><time>2026-04-18T09:13:45Z</time></trkpt><trkpt lat="44.0114020400305" lon="7.9591567531620235"><ele>614.0</ele><time>2026-04-18T09:13:46Z</time></trkpt><trkpt lat="44.011248718331316" lon="7.9591546264677175"><ele>614.0</ele><time>2026-04-18T09:13:47Z</time></trkpt><trkpt lat="44.01110559799204" lon="7.959128946940249"><ele>614.0</ele><time>2026-04-18T09:13:48Z</time></trkpt><trkpt lat="44.01096597943314" lon="7.959105531068753"><ele>614.0</ele><time>2026-04-18T09:13:49Z</time></trkpt><trkpt lat="44.01082077621827" lon="7.959164054264072"><ele>608.4</ele><time>2026-04-18T09:13:50Z</time></trkpt><trkpt lat="44.01071361976736" lon="7.959217441744254"><ele>602.8</ele><time>2026-04-18T09:13:51Z</time></trkpt><trkpt lat="44.010605735789554" lon="7.9592571185055805"><ele>597.2</ele><time>2026-04-18T09:13:52Z</time></trkpt><trkpt lat="44.01050507537702" lon="7.959261131077666"><ele>591.6</ele><time>2026-04-18T09:13:53Z</time></trkpt><trkpt lat="44.01042930696296" lon="7.959220590768391"><ele>586.0</ele><time>2026-04-18T09:13:54Z</time></trkpt><trkpt lat="44.01036044826976" lon="7.95909929646703"><ele>586.0</ele><time>2026-04-18T09:13:55Z</time></trkpt><trkpt lat="44.010314057271145" lon="7.9589471206616995"><ele>586.0</ele><time>2026-04-18T09:13:56Z</time></trkpt><trkpt lat="44.010308479491485" lon="7.958781584940199"><ele>586.0</ele><time>2026-04-18T09:13:57Z</time></trkpt><trkpt lat="44.010338133784096" lon="7.95859432086969"><ele>586.0</ele><time>2026-04-18T09:13:58Z</time></trkpt><trkpt lat="44.01037507265396" lon="7.958386787388871"><ele>587.0</ele><time>2026-04-18T09:13:59Z</time></trkpt><trkpt lat="44.010392813224506" lon="7.958152400934697"><ele>588.0</ele><time>2026-04-18T09:14:00Z</time></trkpt><trkpt lat="44.01040968135538" lon="7.957911936777369"><ele>589.0</ele><time>2026-04-18T09:14:01Z</time></trkpt><trkpt lat="44.01043713443047" lon="7.957702037720254"><ele>590.5</ele><time>2026-04-18T09:14:02Z</time></trkpt><trkpt lat="44.01047482745563" lon="7.957528945749204"><ele>592.0</ele><time>2026-04-18T09:14:03Z</time></trkpt><trkpt lat="44.01047070276862" lon="7.9573642193741385"><ele>593.5</ele><time>2026-04-18T09:14:04Z</time></trkpt><trkpt lat="44.010428243249166" lon="7.957187215694046"><ele>595.0</ele><time>2026-04-18T09:14:05Z</time></trkpt><trkpt lat="44.010363492791456" lon="7.9569888501717605"><ele>595.0</ele><time>2026-04-18T09:14:06Z</time></trkpt><trkpt lat="44.0102883897962" lon="7.956802825606805"><ele>595.0</ele><time>2026-04-18T09:14:07Z</time></trkpt><trkpt lat="44.01018935465133" lon="7.956654433622066"><ele>595.0</ele><time>2026-04-18T09:14:08Z</time></trkpt><trkpt lat="44.010116788639834" lon="7.956542249686804"><ele>595.0</ele><time>2026-04-18T09:14:09Z</time></trkpt><trkpt lat="44.01005245197005" lon="7.956440347498186"><ele>596.5</ele><time>2026-04-18T09:14:10Z</time></trkpt><trkpt lat="44.01005004084691" lon="7.956297972249729"><ele>598.0</ele><time>2026-04-18T09:14:11Z</time></trkpt><trkpt lat="44.01007683779997" lon="7.956131642076977"><ele>599.5</ele><time>2026-04-18T09:14:12Z</time></trkpt><trkpt lat="44.01011592381353" lon="7.955969796426876"><ele>601.0</ele><time>2026-04-18T09:14:13Z</time></trkpt><trkpt lat="44.01015819602956" lon="7.955840984680513"><ele>601.0</ele><time>2026-04-18T09:14:14Z</time></trkpt><trkpt lat="44.010232265326025" lon="7.955742413475079"><ele>601.0</ele><time>2026-04-18T09:14:15Z</time></trkpt><trkpt lat="44.010341157610505" lon="7.955670932981529"><ele>601.0</ele><time>2026-04-18T09:14:16Z</time></trkpt><trkpt lat="44.01044273235453" lon="7.955617351288169"><ele>601.0</ele><time>2026-04-18T09:14:17Z</time></trkpt><trkpt lat="44.01052642719828" lon="7.955558457190463"><ele>601.0</ele><time>2026-04-18T09:14:18Z</time></trkpt><trkpt lat="44.01060150193499" lon="7.955475981321772"><ele>601.0</ele><time>2026-04-18T09:14:19Z</time></trkpt><trkpt lat="44.01066680201976" lon="7.955367429718567"><ele>601.0</ele><time>2026-04-18T09:14:20Z</time></trkpt><trkpt lat="44.010707474040764" lon="7.955244763158811"><ele>601.0</ele><time>2026-04-18T09:14:21Z</time></trkpt><trkpt lat="44.010740638823016" lon="7.955119415103046"><ele>601.0</ele><time>2026-04-18T09:14:22Z</time></trkpt><trkpt lat="44.0107676995356" lon="7.95498883456884"><ele>601.0</ele><time>2026-04-18T09:14:23Z</time></trkpt><trkpt lat="44.01078496944966" lon="7.954859890690147"><ele>599.6</ele><time>2026-04-18T09:14:24Z</time></trkpt><trkpt lat="44.010784465754824" lon="7.95472371025353"><ele>598.2</ele><time>2026-04-18T09:14:25Z</time></trkpt><trkpt lat="44.010764479995096" lon="7.954590622235861"><ele>596.8</ele><time>2026-04-18T09:14:26Z</time></trkpt><trkpt lat="44.01072667500128" lon="7.954458341875446"><ele>595.4</ele><time>2026-04-18T09:14:27Z</time></trkpt><trkpt lat="44.01067083799964" lon="7.954328357857927"><ele>594.0</ele><time>2026-04-18T09:14:28Z</time></trkpt><trkpt lat="44.010622236135845" lon="7.954198181393065"><ele>594.0</ele><time>2026-04-18T09:14:29Z</time></trkpt><trkpt lat="44.01057694944165" lon="7.954060176401649"><ele>594.0</ele><time>2026-04-18T09:14:30Z</time></trkpt><trkpt lat="44.01053270397778" lon="7.953920903795655"><ele>594.0</ele><time>2026-04-18T09:14:31Z</time></trkpt><trkpt lat="44.01048821287332" lon="7.953776583728351"><ele>594.0</ele><time>2026-04-18T09:14:32Z</time></trkpt><trkpt lat="44.0104498607732" lon="7.953635012026368"><ele>594.0</ele><time>2026-04-18T09:14:33Z</time></trkpt><trkpt lat="44.0103977014223" lon="7.953490833026951"><ele>597.75</ele><time>2026-04-18T09:14:34Z</time></trkpt><trkpt lat="44.01034465306465" lon="7.95335109153526"><ele>601.5</ele><time>2026-04-18T09:14:35Z</time></trkpt><trkpt lat="44.01029799866151" lon="7.953202980527238"><ele>605.25</ele><time>2026-04-18T09:14:36Z</time></trkpt><trkpt lat="44.01026188562949" lon="7.953049578438697"><ele>609.0</ele><time>2026-04-18T09:14:37Z</time></trkpt><trkpt lat="44.0102355962837" lon="7.9528984533894524"><ele>609.0</ele><time>2026-04-18T09:14:38Z</time></trkpt><trkpt lat="44.010224149214935" lon="7.952757012491137"><ele>609.0</ele><time>2026-04-18T09:14:39Z</time></trkpt><trkpt lat="44.010224072344954" lon="7.95261711551375"><ele>609.0</ele><time>2026-04-18T09:14:40Z</time></trkpt><trkpt lat="44.010224869557334" lon="7.952494505009409"><ele>609.0</ele><time>2026-04-18T09:14:41Z</time></trkpt><trkpt lat="44.010222527020346" lon="7.952388760793099"><ele>609.0</ele><time>2026-04-18T09:14:42Z</time></trkpt><trkpt lat="44.0102141103477" lon="7.952288610554691"><ele>609.0</ele><time>2026-04-18T09:14:43Z</time></trkpt><trkpt lat="44.01020550921791" lon="7.952186395926108"><ele>607.4</ele><time>2026-04-18T09:14:44Z</time></trkpt><trkpt lat="44.01022291360469" lon="7.952069513242571"><ele>605.8</ele><time>2026-04-18T09:14:46Z</time></trkpt><trkpt lat="44.01008983184341" lon="7.952027051925835"><ele>604.2</ele><time>2026-04-18T09:14:47Z</time></trkpt><trkpt lat="44.01000884123096" lon="7.952022454127259"><ele>602.6</ele><time>2026-04-18T09:14:48Z</time></trkpt><trkpt lat="44.009922190239216" lon="7.9520281099039405"><ele>601.0</ele><time>2026-04-18T09:14:49Z</time></trkpt><trkpt lat="44.00982733922346" lon="7.952010550413139"><ele>601.0</ele><time>2026-04-18T09:14:50Z</time></trkpt><trkpt lat="44.0097317727963" lon="7.9519707931457235"><ele>601.0</ele><time>2026-04-18T09:14:51Z</time></trkpt><trkpt lat="44.009641388446646" lon="7.951901528225042"><ele>601.0</ele><time>2026-04-18T09:14:52Z</time></trkpt><trkpt lat="44.00955959960704" lon="7.951806158024153"><ele>601.0</ele><time>2026-04-18T09:14:53Z</time></trkpt><trkpt lat="44.00949324994877" lon="7.95167638408949"><ele>601.0</ele><time>2026-04-18T09:14:54Z</time></trkpt><trkpt lat="44.00943767261331" lon="7.95151867989554"><ele>602.25</ele><time>2026-04-18T09:14:55Z</time></trkpt><trkpt lat="44.00937821598188" lon="7.951359334595849"><ele>603.5</ele><time>2026-04-18T09:14:56Z</time></trkpt><trkpt lat="44.00930081474827" lon="7.951226539802712"><ele>604.75</ele><time>2026-04-18T09:14:57Z</time></trkpt><trkpt lat="44.009199900967396" lon="7.95113313371254"><ele>606.0</ele><time>2026-04-18T09:14:58Z</time></trkpt><trkpt lat="44.00908157326937" lon="7.951088057247235"><ele>606.0</ele><time>2026-04-18T09:14:59Z</time></trkpt><trkpt lat="44.008951840039046" lon="7.951069818130138"><ele>606.0</ele><time>2026-04-18T09:15:00Z</time></trkpt><trkpt lat="44.00882440930349" lon="7.951045185471537"><ele>606.0</ele><time>2026-04-18T09:15:01Z</time></trkpt><trkpt lat="44.00870056672854" lon="7.951015172007873"><ele>606.0</ele><time>2026-04-18T09:15:02Z</time></trkpt><trkpt lat="44.00859417616112" lon="7.950995231892557"><ele>606.0</ele><time>2026-04-18T09:15:03Z</time></trkpt><trkpt lat="44.0085120738857" lon="7.950970777161127"><ele>606.0</ele><time>2026-04-18T09:15:04Z</time></trkpt><trkpt lat="44.00844879335489" lon="7.950905386709678"><ele>606.0</ele><time>2026-04-18T09:15:05Z</time></trkpt><trkpt lat="44.008408167579155" lon="7.950800512509738"><ele>606.0</ele><time>2026-04-18T09:15:06Z</time></trkpt><trkpt lat="44.00840037489876" lon="7.950682156306702"><ele>606.0</ele><time>2026-04-18T09:15:07Z</time></trkpt><trkpt lat="44.00840793600189" lon="7.950542960236086"><ele>606.0</ele><time>2026-04-18T09:15:08Z</time></trkpt><trkpt lat="44.00840682324842" lon="7.950388318657915"><ele>605.75</ele><time>2026-04-18T09:15:09Z</time></trkpt><trkpt lat="44.00838382310227" lon="7.950226826812277"><ele>605.5</ele><time>2026-04-18T09:15:10Z</time></trkpt><trkpt lat="44.00829221030349" lon="7.95010282759329"><ele>605.25</ele><time>2026-04-18T09:15:11Z</time></trkpt><trkpt lat="44.008176810438954" lon="7.950004069209682"><ele>605.0</ele><time>2026-04-18T09:15:12Z</time></trkpt><trkpt lat="44.00803733483595" lon="7.949929650451535"><ele>614.0</ele><time>2026-04-18T09:15:13Z</time></trkpt><trkpt lat="44.00787073631835" lon="7.949836830940635"><ele>623.0</ele><time>2026-04-18T09:15:14Z</time></trkpt><trkpt lat="44.0076809601695" lon="7.949768071335858"><ele>632.0</ele><time>2026-04-18T09:15:15Z</time></trkpt><trkpt lat="44.00746758450594" lon="7.949731264079821"><ele>634.3333333333333</ele><time>2026-04-18T09:15:16Z</time></trkpt><trkpt lat="44.007264148847746" lon="7.94967571419221"><ele>636.6666666666666</ele><time>2026-04-18T09:15:17Z</time></trkpt><trkpt lat="44.00706550618686" lon="7.949618535512722"><ele>639.0</ele><time>2026-04-18T09:15:18Z</time></trkpt><trkpt lat="44.006890534447564" lon="7.94957738093334"><ele>639.0</ele><time>2026-04-18T09:15:19Z</time></trkpt><trkpt lat="44.00674163012769" lon="7.949555218473275"><ele>639.0</ele><time>2026-04-18T09:15:20Z</time></trkpt><trkpt lat="44.00660803854379" lon="7.949562790025631"><ele>639.0</ele><time>2026-04-18T09:15:21Z</time></trkpt><trkpt lat="44.00649707962219" lon="7.9495817686161985"><ele>639.0</ele><time>2026-04-18T09:15:22Z</time></trkpt><trkpt lat="44.00639260449166" lon="7.949561457736914"><ele>641.0</ele><time>2026-04-18T09:15:23Z</time></trkpt><trkpt lat="44.00629299070502" lon="7.94943736836112"><ele>643.0</ele><time>2026-04-18T09:15:24Z</time></trkpt><trkpt lat="44.006169914497605" lon="7.949328334495024"><ele>645.0</ele><time>2026-04-18T09:15:25Z</time></trkpt><trkpt lat="44.006036082870594" lon="7.949205141699903"><ele>647.0</ele><time>2026-04-18T09:15:26Z</time></trkpt><trkpt lat="44.00591871784336" lon="7.949078598312946"><ele>640.75</ele><time>2026-04-18T09:15:27Z</time></trkpt><trkpt lat="44.00582611421364" lon="7.948944976735725"><ele>634.5</ele><time>2026-04-18T09:15:28Z</time></trkpt><trkpt lat="44.00573401420957" lon="7.948797496491428"><ele>628.25</ele><time>2026-04-18T09:15:29Z</time></trkpt><trkpt lat="44.00567240384827" lon="7.948635097148146"><ele>622.0</ele><time>2026-04-18T09:15:30Z</time></trkpt><trkpt lat="44.00559825597696" lon="7.948502082903842"><ele>622.0</ele><time>2026-04-18T09:15:31Z</time></trkpt><trkpt lat="44.00548848673872" lon="7.948402863692148"><ele>622.0</ele><time>2026-04-18T09:15:32Z</time></trkpt><trkpt lat="44.00537772486491" lon="7.948307652585072"><ele>622.0</ele><time>2026-04-18T09:15:33Z</time></trkpt><trkpt lat="44.005323427650886" lon="7.948150830574787"><ele>622.0</ele><time>2026-04-18T09:15:34Z</time></trkpt><trkpt lat="44.00527508373656" lon="7.947991072861834"><ele>625.0</ele><time>2026-04-18T09:15:35Z</time></trkpt><trkpt lat="44.00523741376259" lon="7.947831103878545"><ele>628.0</ele><time>2026-04-18T09:15:36Z</time></trkpt><trkpt lat="44.0051873414696" lon="7.947691037627489"><ele>631.0</ele><time>2026-04-18T09:15:37Z</time></trkpt><trkpt lat="44.005068661590805" lon="7.947586972099307"><ele>634.0</ele><time>2026-04-18T09:15:38Z</time></trkpt><trkpt lat="44.00493200391735" lon="7.947550689926738"><ele>643.3333333333334</ele><time>2026-04-18T09:15:39Z</time></trkpt><trkpt lat="44.00478887133811" lon="7.947504418148106"><ele>652.6666666666666</ele><time>2026-04-18T09:15:40Z</time></trkpt><trkpt lat="44.00465836991154" lon="7.947388313180649"><ele>662.0</ele><time>2026-04-18T09:15:41Z</time></trkpt><trkpt lat="44.00451074476573" lon="7.947271445247564"><ele>662.0</ele><time>2026-04-18T09:15:42Z</time></trkpt><trkpt lat="44.00436034486797" lon="7.947191143708341"><ele>662.0</ele><time>2026-04-18T09:15:43Z</time></trkpt><trkpt lat="44.00421275970206" lon="7.9471065574892314"><ele>662.0</ele><time>2026-04-18T09:15:44Z</time></trkpt><trkpt lat="44.004071585683455" lon="7.947022805168419"><ele>660.6666666666666</ele><time>2026-04-18T09:15:45Z</time></trkpt><trkpt lat="44.003917206896325" lon="7.9470007450732645"><ele>659.3333333333334</ele><time>2026-04-18T09:15:46Z</time></trkpt><trkpt lat="44.00375572741179" lon="7.946962737102567"><ele>658.0</ele><time>2026-04-18T09:15:47Z</time></trkpt><trkpt lat="44.00359644540895" lon="7.946930799117066"><ele>658.0</ele><time>2026-04-18T09:15:48Z</time></trkpt><trkpt lat="44.0034385800315" lon="7.946881823311465"><ele>658.0</ele><time>2026-04-18T09:15:49Z</time></trkpt><trkpt lat="44.003283353906376" lon="7.94685042000371"><ele>658.0</ele><time>2026-04-18T09:15:50Z</time></trkpt><trkpt lat="44.00312918286115" lon="7.946826604108159"><ele>658.0</ele><time>2026-04-18T09:15:51Z</time></trkpt><trkpt lat="44.0029777241475" lon="7.946801701424606"><ele>658.0</ele><time>2026-04-18T09:15:52Z</time></trkpt><trkpt lat="44.002829128679096" lon="7.94677762903284"><ele>658.0</ele><time>2026-04-18T09:15:53Z</time></trkpt><trkpt lat="44.002676452479804" lon="7.946758194457019"><ele>658.0</ele><time>2026-04-18T09:15:54Z</time></trkpt><trkpt lat="44.00252435651359" lon="7.9467396663773044"><ele>658.0</ele><time>2026-04-18T09:15:55Z</time></trkpt><trkpt lat="44.00237526907817" lon="7.9466985012620395"><ele>658.0</ele><time>2026-04-18T09:15:56Z</time></trkpt><trkpt lat="44.00222167978102" lon="7.946666754989082"><ele>667.6666666666667</ele><time>2026-04-18T09:15:57Z</time></trkpt><trkpt lat="44.00206774435503" lon="7.946656751868896"><ele>677.3333333333334</ele><time>2026-04-18T09:15:58Z</time></trkpt><trkpt lat="44.00191910736276" lon="7.946602502612954"><ele>687.0</ele><time>2026-04-18T09:15:59Z</time></trkpt><trkpt lat="44.00177861884847" lon="7.94657289163566"><ele>687.5</ele><time>2026-04-18T09:16:00Z</time></trkpt><trkpt lat="44.00164581469824" lon="7.946567675439825"><ele>688.0</ele><time>2026-04-18T09:16:01Z</time></trkpt><trkpt lat="44.001523432619216" lon="7.946527579616904"><ele>688.5</ele><time>2026-04-18T09:16:02Z</time></trkpt><trkpt lat="44.00140198222754" lon="7.946487232107761"><ele>689.0</ele><time>2026-04-18T09:16:03Z</time></trkpt><trkpt lat="44.00128030227218" lon="7.946429983240338"><ele>689.0</ele><time>2026-04-18T09:16:04Z</time></trkpt><trkpt lat="44.00115856208251" lon="7.946371159187876"><ele>689.0</ele><time>2026-04-18T09:16:05Z</time></trkpt><trkpt lat="44.00102552686133" lon="7.946353409639403"><ele>689.0</ele><time>2026-04-18T09:16:06Z</time></trkpt><trkpt lat="44.00088907621298" lon="7.946388464913784"><ele>689.0</ele><time>2026-04-18T09:16:07Z</time></trkpt><trkpt lat="44.000745392040216" lon="7.9464313324490305"><ele>690.25</ele><time>2026-04-18T09:16:08Z</time></trkpt><trkpt lat="44.000605352512586" lon="7.946474071323138"><ele>691.5</ele><time>2026-04-18T09:16:09Z</time></trkpt><trkpt lat="44.00046577961877" lon="7.946515252436172"><ele>692.75</ele><time>2026-04-18T09:16:10Z</time></trkpt><trkpt lat="44.00033167524907" lon="7.946541609425869"><ele>694.0</ele><time>2026-04-18T09:16:11Z</time></trkpt><trkpt lat="44.000209206348785" lon="7.9465846642095075"><ele>694.0</ele><time>2026-04-18T09:16:12Z</time></trkpt><trkpt lat="44.00010135567827" lon="7.946624374877534"><ele>694.0</ele><time>2026-04-18T09:16:13Z</time></trkpt><trkpt lat="44.000011716585774" lon="7.946661716090422"><ele>694.0</ele><time>2026-04-18T09:16:14Z</time></trkpt><trkpt lat="43.999935104679864" lon="7.946680204863351"><ele>694.0</ele><time>2026-04-18T09:16:15Z</time></trkpt><trkpt lat="43.99985888220245" lon="7.946663699257052"><ele>694.0</ele><time>2026-04-18T09:16:16.001Z</time></trkpt><trkpt lat="43.9997756743913" lon="7.94661111659648"><ele>694.0</ele><time>2026-04-18T09:16:17.001Z</time></trkpt><trkpt lat="43.99969155265016" lon="7.946482369072492"><ele>694.0</ele><time>2026-04-18T09:16:18.001Z</time></trkpt><trkpt lat="43.99958066748532" lon="7.946374954237395"><ele>694.0</ele><time>2026-04-18T09:16:19.001Z</time></trkpt><trkpt lat="43.99946575294431" lon="7.946243476814245"><ele>694.0</ele><time>2026-04-18T09:16:20.001Z</time></trkpt><trkpt lat="43.99935486541261" lon="7.946110585742296"><ele>694.0</ele><time>2026-04-18T09:16:21.001Z</time></trkpt><trkpt lat="43.9992480514747" lon="7.9460056173473985"><ele>694.0</ele><time>2026-04-18T09:16:22.001Z</time></trkpt><trkpt lat="43.99912198256396" lon="7.945939150469324"><ele>694.0</ele><time>2026-04-18T09:16:23.001Z</time></trkpt><trkpt lat="43.99898346695362" lon="7.945918440534086"><ele>694.0</ele><time>2026-04-18T09:16:24.001Z</time></trkpt><trkpt lat="43.99883329561822" lon="7.945937420579853"><ele>690.6666666666667</ele><time>2026-04-18T09:16:25.001Z</time></trkpt><trkpt lat="43.998679019970254" lon="7.945950948943533"><ele>687.3333333333334</ele><time>2026-04-18T09:16:26.001Z</time></trkpt><trkpt lat="43.99852001197248" lon="7.945963837226475"><ele>684.0</ele><time>2026-04-18T09:16:27.001Z</time></trkpt><trkpt lat="43.99836831267107" lon="7.945950570842083"><ele>682.3333333333334</ele><time>2026-04-18T09:16:28.001Z</time></trkpt><trkpt lat="43.998200125775284" lon="7.945910714058462"><ele>680.6666666666667</ele><time>2026-04-18T09:16:29.001Z</time></trkpt><trkpt lat="43.99803212417135" lon="7.945864813720499"><ele>679.0</ele><time>2026-04-18T09:16:30.001Z</time></trkpt><trkpt lat="43.997858388016034" lon="7.945819449287406"><ele>688.0</ele><time>2026-04-18T09:16:31.001Z</time></trkpt><trkpt lat="43.99768468723342" lon="7.945773414271946"><ele>697.0</ele><time>2026-04-18T09:16:32.001Z</time></trkpt><trkpt lat="43.99751779022966" lon="7.9457534877207925"><ele>706.0</ele><time>2026-04-18T09:16:33.001Z</time></trkpt><trkpt lat="43.99735906629223" lon="7.94565878989445"><ele>706.0</ele><time>2026-04-18T09:16:34Z</time></trkpt><trkpt lat="43.99720050211322" lon="7.945555165230875"><ele>706.0</ele><time>2026-04-18T09:16:35Z</time></trkpt><trkpt lat="43.997047212082784" lon="7.945459916543535"><ele>706.0</ele><time>2026-04-18T09:16:36Z</time></trkpt><trkpt lat="43.99690411239724" lon="7.94539092407681"><ele>706.0</ele><time>2026-04-18T09:16:37Z</time></trkpt><trkpt lat="43.99678414020596" lon="7.945340053771941"><ele>706.0</ele><time>2026-04-18T09:16:38Z</time></trkpt><trkpt lat="43.99668312111743" lon="7.945300201377763"><ele>706.0</ele><time>2026-04-18T09:16:39Z</time></trkpt><trkpt lat="43.996617872329956" lon="7.945182816215104"><ele>706.0</ele><time>2026-04-18T09:16:40Z</time></trkpt><trkpt lat="43.99654030656938" lon="7.945040490572887"><ele>710.6666666666667</ele><time>2026-04-18T09:16:41Z</time></trkpt><trkpt lat="43.996436873967944" lon="7.944899878778247"><ele>715.3333333333334</ele><time>2026-04-18T09:16:42Z</time></trkpt><trkpt lat="43.99633335757835" lon="7.944737237695659"><ele>720.0</ele><time>2026-04-18T09:16:43Z</time></trkpt><trkpt lat="43.99623183220792" lon="7.944565315084281"><ele>720.0</ele><time>2026-04-18T09:16:44Z</time></trkpt><trkpt lat="43.99615300389585" lon="7.944385587960877"><ele>720.0</ele><time>2026-04-18T09:16:45Z</time></trkpt><trkpt lat="43.996089552474686" lon="7.944210191036983"><ele>720.0</ele><time>2026-04-18T09:16:46Z</time></trkpt><trkpt lat="43.99601852884202" lon="7.944039128514726"><ele>720.0</ele><time>2026-04-18T09:16:47Z</time></trkpt><trkpt lat="43.99593552940946" lon="7.9438631562779145"><ele>724.0</ele><time>2026-04-18T09:16:48Z</time></trkpt><trkpt lat="43.99584708323875" lon="7.943676799720769"><ele>728.0</ele><time>2026-04-18T09:16:49Z</time></trkpt><trkpt lat="43.99575396275116" lon="7.943481095383007"><ele>732.0</ele><time>2026-04-18T09:16:50Z</time></trkpt><trkpt lat="43.995662751471" lon="7.9432781075405074"><ele>732.0</ele><time>2026-04-18T09:16:51Z</time></trkpt><trkpt lat="43.99557671539282" lon="7.9430719531313505"><ele>732.0</ele><time>2026-04-18T09:16:52Z</time></trkpt><trkpt lat="43.9954983492322" lon="7.942885044321638"><ele>732.0</ele><time>2026-04-18T09:16:53Z</time></trkpt><trkpt lat="43.99542684389793" lon="7.942713434437496"><ele>732.0</ele><time>2026-04-18T09:16:54Z</time></trkpt><trkpt lat="43.9953580568199" lon="7.9425558465083785"><ele>732.0</ele><time>2026-04-18T09:16:55Z</time></trkpt><trkpt lat="43.995291298435916" lon="7.942421218161721"><ele>732.0</ele><time>2026-04-18T09:16:56Z</time></trkpt><trkpt lat="43.995212926253295" lon="7.942304915074522"><ele>732.0</ele><time>2026-04-18T09:16:57Z</time></trkpt><trkpt lat="43.995106866747896" lon="7.9422031283613155"><ele>728.75</ele><time>2026-04-18T09:16:58Z</time></trkpt><trkpt lat="43.99498410557369" lon="7.942125193050875"><ele>725.5</ele><time>2026-04-18T09:16:59Z</time></trkpt><trkpt lat="43.994848925449766" lon="7.942054178214827"><ele>722.25</ele><time>2026-04-18T09:17:00Z</time></trkpt><trkpt lat="43.99471195026816" lon="7.941965823836367"><ele>719.0</ele><time>2026-04-18T09:17:01Z</time></trkpt><trkpt lat="43.99458662472445" lon="7.941860030390536"><ele>719.0</ele><time>2026-04-18T09:17:02Z</time></trkpt><trkpt lat="43.99445935215214" lon="7.941762951671614"><ele>719.0</ele><time>2026-04-18T09:17:03Z</time></trkpt><trkpt lat="43.99431986620244" lon="7.941700723801759"><ele>719.0</ele><time>2026-04-18T09:17:04Z</time></trkpt><trkpt lat="43.99417366064979" lon="7.941674667884531"><ele>719.0</ele><time>2026-04-18T09:17:05Z</time></trkpt><trkpt lat="43.99401707913335" lon="7.941660765820726"><ele>715.25</ele><time>2026-04-18T09:17:06Z</time></trkpt><trkpt lat="43.993870897802765" lon="7.94166262557617"><ele>711.5</ele><time>2026-04-18T09:17:07Z</time></trkpt><trkpt lat="43.993731425770264" lon="7.941649738742404"><ele>707.75</ele><time>2026-04-18T09:17:08Z</time></trkpt><trkpt lat="43.99361256879502" lon="7.941688295608807"><ele>704.0</ele><time>2026-04-18T09:17:09Z</time></trkpt><trkpt lat="43.993491290866835" lon="7.941749062569552"><ele>704.0</ele><time>2026-04-18T09:17:10Z</time></trkpt><trkpt lat="43.99337106039751" lon="7.941825495917096"><ele>704.0</ele><time>2026-04-18T09:17:11Z</time></trkpt><trkpt lat="43.99327391058818" lon="7.94187641190108"><ele>704.0</ele><time>2026-04-18T09:17:12Z</time></trkpt><trkpt lat="43.993186066208516" lon="7.941897253262754"><ele>704.0</ele><time>2026-04-18T09:17:13Z</time></trkpt><trkpt lat="43.99308322439623" lon="7.94186073219865"><ele>704.0</ele><time>2026-04-18T09:17:14Z</time></trkpt><trkpt lat="43.99295221292602" lon="7.941815341413677"><ele>703.8000000000001</ele><time>2026-04-18T09:17:15Z</time></trkpt><trkpt lat="43.9928388266333" lon="7.941776057069001"><ele>703.6</ele><time>2026-04-18T09:17:16Z</time></trkpt><trkpt lat="43.99271388862385" lon="7.941736201954144"><ele>703.4</ele><time>2026-04-18T09:17:17Z</time></trkpt><trkpt lat="43.99260853188046" lon="7.941702095893568"><ele>703.2</ele><time>2026-04-18T09:17:18Z</time></trkpt><trkpt lat="43.99252540332974" lon="7.941674989450081"><ele>703.0</ele><time>2026-04-18T09:17:19Z</time></trkpt><trkpt lat="43.992430175481275" lon="7.941550232905548"><ele>709.25</ele><time>2026-04-18T09:17:21Z</time></trkpt><trkpt lat="43.992420121916425" lon="7.941431341338889"><ele>715.5</ele><time>2026-04-18T09:17:22Z</time></trkpt><trkpt lat="43.9924669445109" lon="7.941290530027436"><ele>721.75</ele><time>2026-04-18T09:17:23Z</time></trkpt><trkpt lat="43.99248305914138" lon="7.941116102610346"><ele>728.0</ele><time>2026-04-18T09:17:24Z</time></trkpt><trkpt lat="43.992520497034306" lon="7.940922385907427"><ele>740.6666666666666</ele><time>2026-04-18T09:17:25Z</time></trkpt><trkpt lat="43.992564635869485" lon="7.9406945023426365"><ele>753.3333333333334</ele><time>2026-04-18T09:17:26Z</time></trkpt><trkpt lat="43.99260950767441" lon="7.940468077859444"><ele>766.0</ele><time>2026-04-18T09:17:27Z</time></trkpt><trkpt lat="43.99264268856068" lon="7.940235191030898"><ele>769.6666666666667</ele><time>2026-04-18T09:17:28Z</time></trkpt><trkpt lat="43.992683693649205" lon="7.939996370369069"><ele>773.3333333333334</ele><time>2026-04-18T09:17:29Z</time></trkpt><trkpt lat="43.992694770930775" lon="7.939782307689917"><ele>777.0</ele><time>2026-04-18T09:17:30Z</time></trkpt><trkpt lat="43.9927118850599" lon="7.939605201443035"><ele>777.0</ele><time>2026-04-18T09:17:31Z</time></trkpt><trkpt lat="43.99274532705801" lon="7.939442931119236"><ele>777.0</ele><time>2026-04-18T09:17:32Z</time></trkpt><trkpt lat="43.99281678517344" lon="7.939291079562776"><ele>777.0</ele><time>2026-04-18T09:17:33Z</time></trkpt><trkpt lat="43.99287220645548" lon="7.939117071554448"><ele>777.0</ele><time>2026-04-18T09:17:34Z</time></trkpt><trkpt lat="43.992925729738424" lon="7.938939715826201"><ele>775.25</ele><time>2026-04-18T09:17:35Z</time></trkpt><trkpt lat="43.99295497873567" lon="7.938752820795893"><ele>773.5</ele><time>2026-04-18T09:17:36Z</time></trkpt><trkpt lat="43.99298693494924" lon="7.938580802241692"><ele>771.75</ele><time>2026-04-18T09:17:37Z</time></trkpt><trkpt lat="43.99304282810287" lon="7.938437290530773"><ele>770.0</ele><time>2026-04-18T09:17:38Z</time></trkpt><trkpt lat="43.99311681306927" lon="7.938311148793347"><ele>767.5</ele><time>2026-04-18T09:17:39Z</time></trkpt><trkpt lat="43.99319170658096" lon="7.938186175577026"><ele>765.0</ele><time>2026-04-18T09:17:40Z</time></trkpt><trkpt lat="43.99324984416645" lon="7.938043950266217"><ele>762.5</ele><time>2026-04-18T09:17:41Z</time></trkpt><trkpt lat="43.993283655562976" lon="7.9378777585664375"><ele>760.0</ele><time>2026-04-18T09:17:42Z</time></trkpt><trkpt lat="43.99328620179164" lon="7.937689996175234"><ele>758.75</ele><time>2026-04-18T09:17:43Z</time></trkpt><trkpt lat="43.993293059966" lon="7.937488599429285"><ele>757.5</ele><time>2026-04-18T09:17:44Z</time></trkpt><trkpt lat="43.993319472367524" lon="7.937292724655962"><ele>756.25</ele><time>2026-04-18T09:17:45Z</time></trkpt><trkpt lat="43.993360961196935" lon="7.937128010682027"><ele>755.0</ele><time>2026-04-18T09:17:46Z</time></trkpt><trkpt lat="43.99341217450701" lon="7.936962243639149"><ele>763.75</ele><time>2026-04-18T09:17:47Z</time></trkpt><trkpt lat="43.99346141813409" lon="7.936784663913579"><ele>772.5</ele><time>2026-04-18T09:17:48Z</time></trkpt><trkpt lat="43.993499140194636" lon="7.93660027070232"><ele>781.25</ele><time>2026-04-18T09:17:49Z</time></trkpt><trkpt lat="43.993511928732985" lon="7.936405187960914"><ele>790.0</ele><time>2026-04-18T09:17:50Z</time></trkpt><trkpt lat="43.993503417217575" lon="7.936193690179384"><ele>790.0</ele><time>2026-04-18T09:17:51Z</time></trkpt><trkpt lat="43.99347843028492" lon="7.935975052496825"><ele>790.0</ele><time>2026-04-18T09:17:52Z</time></trkpt><trkpt lat="43.99347016717798" lon="7.935765453694465"><ele>790.0</ele><time>2026-04-18T09:17:53Z</time></trkpt><trkpt lat="43.9934884925597" lon="7.935581587177075"><ele>790.0</ele><time>2026-04-18T09:17:54Z</time></trkpt><trkpt lat="43.99348550086514" lon="7.935436815121023"><ele>789.4</ele><time>2026-04-18T09:17:55Z</time></trkpt><trkpt lat="43.99351856340113" lon="7.935307598298974"><ele>788.8</ele><time>2026-04-18T09:17:56Z</time></trkpt><trkpt lat="43.99360286285326" lon="7.9352241970318325"><ele>788.2</ele><time>2026-04-18T09:17:57Z</time></trkpt><trkpt lat="43.99365677299989" lon="7.935085782509052"><ele>787.6</ele><time>2026-04-18T09:17:58Z</time></trkpt><trkpt lat="43.99369672752969" lon="7.934972588853817"><ele>787.0</ele><time>2026-04-18T09:17:59Z</time></trkpt><trkpt lat="43.99369137857142" lon="7.934838119161561"><ele>786.75</ele><time>2026-04-18T09:18:00Z</time></trkpt><trkpt lat="43.99364370050919" lon="7.934697018609308"><ele>786.5</ele><time>2026-04-18T09:18:01Z</time></trkpt><trkpt lat="43.99355747549904" lon="7.9345604762834006"><ele>786.25</ele><time>2026-04-18T09:18:02Z</time></trkpt><trkpt lat="43.99346444048229" lon="7.934447035588199"><ele>786.0</ele><time>2026-04-18T09:18:03Z</time></trkpt><trkpt lat="43.993390137069134" lon="7.934341405961426"><ele>786.0</ele><time>2026-04-18T09:18:04Z</time></trkpt><trkpt lat="43.993362094640815" lon="7.934232660263714"><ele>786.0</ele><time>2026-04-18T09:18:05Z</time></trkpt><trkpt lat="43.993369771331004" lon="7.934104645794035"><ele>786.0</ele><time>2026-04-18T09:18:06Z</time></trkpt><trkpt lat="43.99340328994456" lon="7.933947617852799"><ele>786.0</ele><time>2026-04-18T09:18:07.001Z</time></trkpt><trkpt lat="43.993446182997346" lon="7.933811923671608"><ele>786.0</ele><time>2026-04-18T09:18:08.001Z</time></trkpt><trkpt lat="43.99351085003733" lon="7.93369280157173"><ele>786.4</ele><time>2026-04-18T09:18:09.001Z</time></trkpt><trkpt lat="43.993621961083846" lon="7.933604593325137"><ele>786.8</ele><time>2026-04-18T09:18:10.001Z</time></trkpt><trkpt lat="43.99368740931904" lon="7.933487625526428"><ele>787.1999999999999</ele><time>2026-04-18T09:18:11.001Z</time></trkpt><trkpt lat="43.99373171755397" lon="7.933361787178504"><ele>787.5999999999999</ele><time>2026-04-18T09:18:12.001Z</time></trkpt><trkpt lat="43.99373882758473" lon="7.93322151753386"><ele>788.0</ele><time>2026-04-18T09:18:13.001Z</time></trkpt><trkpt lat="43.993698809934585" lon="7.933058853974421"><ele>786.5</ele><time>2026-04-18T09:18:14.001Z</time></trkpt><trkpt lat="43.99361467419533" lon="7.9329179160632295"><ele>785.0</ele><time>2026-04-18T09:18:15.001Z</time></trkpt><trkpt lat="43.993509976472566" lon="7.932812999689175"><ele>783.5</ele><time>2026-04-18T09:18:16.001Z</time></trkpt><trkpt lat="43.99343417438443" lon="7.932695808277391"><ele>782.0</ele><time>2026-04-18T09:18:17.001Z</time></trkpt><trkpt lat="43.99339142531901" lon="7.9325940715535275"><ele>783.25</ele><time>2026-04-18T09:18:18.001Z</time></trkpt><trkpt lat="43.99337441901944" lon="7.932476191170556"><ele>784.5</ele><time>2026-04-18T09:18:19.001Z</time></trkpt><trkpt lat="43.993402215287084" lon="7.932313367863875"><ele>785.75</ele><time>2026-04-18T09:18:20.001Z</time></trkpt><trkpt lat="43.99342247607647" lon="7.932145707034615"><ele>787.0</ele><time>2026-04-18T09:18:21.001Z</time></trkpt><trkpt lat="43.993443177761264" lon="7.931970202672592"><ele>787.0</ele><time>2026-04-18T09:18:22.001Z</time></trkpt><trkpt lat="43.99345664857105" lon="7.931815780281987"><ele>787.0</ele><time>2026-04-18T09:18:23.001Z</time></trkpt><trkpt lat="43.993472948783065" lon="7.931680891768058"><ele>787.0</ele><time>2026-04-18T09:18:24.001Z</time></trkpt><trkpt lat="43.99350698996486" lon="7.9315499910282306"><ele>787.0</ele><time>2026-04-18T09:18:25.001Z</time></trkpt><trkpt lat="43.99355874851678" lon="7.931426711105921"><ele>787.0</ele><time>2026-04-18T09:18:26.001Z</time></trkpt><trkpt lat="43.99360700262655" lon="7.931308214056605"><ele>787.2</ele><time>2026-04-18T09:18:27.001Z</time></trkpt><trkpt lat="43.993626553371065" lon="7.931192672461363"><ele>787.4000000000001</ele><time>2026-04-18T09:18:28.001Z</time></trkpt><trkpt lat="43.99360128088488" lon="7.931069613652227"><ele>787.5999999999999</ele><time>2026-04-18T09:18:29.001Z</time></trkpt><trkpt lat="43.99353624991983" lon="7.930959240049908"><ele>787.8</ele><time>2026-04-18T09:18:30.001Z</time></trkpt><trkpt lat="43.99344417783514" lon="7.930850198652758"><ele>788.0</ele><time>2026-04-18T09:18:31.001Z</time></trkpt><trkpt lat="43.993360362690424" lon="7.930750153645449"><ele>783.0</ele><time>2026-04-18T09:18:32.001Z</time></trkpt><trkpt lat="43.99327878159942" lon="7.930627106362576"><ele>778.0</ele><time>2026-04-18T09:18:33.001Z</time></trkpt><trkpt lat="43.99320569792893" lon="7.9305079142005255"><ele>773.0</ele><time>2026-04-18T09:18:34.001Z</time></trkpt><trkpt lat="43.99312948680698" lon="7.930391319647263"><ele>768.0</ele><time>2026-04-18T09:18:35.001Z</time></trkpt><trkpt lat="43.993045138152524" lon="7.930271276873739"><ele>768.0</ele><time>2026-04-18T09:18:36.001Z</time></trkpt><trkpt lat="43.9929683455462" lon="7.9301480365991335"><ele>768.0</ele><time>2026-04-18T09:18:37.001Z</time></trkpt><trkpt lat="43.992908688769404" lon="7.930013506249207"><ele>768.0</ele><time>2026-04-18T09:18:38.001Z</time></trkpt><trkpt lat="43.99286004159448" lon="7.9298621649033345"><ele>768.0</ele><time>2026-04-18T09:18:39.001Z</time></trkpt><trkpt lat="43.99282239823213" lon="7.929709383753471"><ele>772.25</ele><time>2026-04-18T09:18:40.001Z</time></trkpt><trkpt lat="43.99279381791366" lon="7.929548528622335"><ele>776.5</ele><time>2026-04-18T09:18:41.001Z</time></trkpt><trkpt lat="43.99277698166387" lon="7.929375405374368"><ele>780.75</ele><time>2026-04-18T09:18:42.001Z</time></trkpt><trkpt lat="43.99276594510321" lon="7.929224448295767"><ele>785.0</ele><time>2026-04-18T09:18:43Z</time></trkpt><trkpt lat="43.99275508127102" lon="7.9290894345668175"><ele>786.0</ele><time>2026-04-18T09:18:44Z</time></trkpt><trkpt lat="43.99275288961642" lon="7.928966352178467"><ele>787.0</ele><time>2026-04-18T09:18:45Z</time></trkpt><trkpt lat="43.99278127134915" lon="7.92885074648853"><ele>788.0</ele><time>2026-04-18T09:18:46Z</time></trkpt><trkpt lat="43.99284275856947" lon="7.928766020965672"><ele>789.0</ele><time>2026-04-18T09:18:47Z</time></trkpt><trkpt lat="43.99293678137613" lon="7.9287249523569425"><ele>790.0</ele><time>2026-04-18T09:18:48Z</time></trkpt><trkpt lat="43.99304457663447" lon="7.928675238159807"><ele>790.0</ele><time>2026-04-18T09:18:49Z</time></trkpt><trkpt lat="43.99316817836677" lon="7.9286421667450195"><ele>790.0</ele><time>2026-04-18T09:18:50Z</time></trkpt><trkpt lat="43.9932926773494" lon="7.928621932042027"><ele>790.0</ele><time>2026-04-18T09:18:51Z</time></trkpt><trkpt lat="43.9934052214641" lon="7.928611814182666"><ele>790.0</ele><time>2026-04-18T09:18:52Z</time></trkpt><trkpt lat="43.99349854981729" lon="7.928594237792757"><ele>791.4</ele><time>2026-04-18T09:18:53Z</time></trkpt><trkpt lat="43.99357867631607" lon="7.928540617826315"><ele>792.8</ele><time>2026-04-18T09:18:54Z</time></trkpt><trkpt lat="43.99363108535583" lon="7.928447894821226"><ele>794.2</ele><time>2026-04-18T09:18:55Z</time></trkpt><trkpt lat="43.993647069905656" lon="7.9283301211206"><ele>795.6</ele><time>2026-04-18T09:18:56Z</time></trkpt><trkpt lat="43.993623214286394" lon="7.928206593570064"><ele>797.0</ele><time>2026-04-18T09:18:57Z</time></trkpt><trkpt lat="43.99356824193917" lon="7.928073418735543"><ele>797.0</ele><time>2026-04-18T09:18:58Z</time></trkpt><trkpt lat="43.99351392562326" lon="7.9279268361340085"><ele>797.0</ele><time>2026-04-18T09:18:59Z</time></trkpt><trkpt lat="43.99348540214795" lon="7.927754474447159"><ele>797.0</ele><time>2026-04-18T09:19:00Z</time></trkpt><trkpt lat="43.99347678972772" lon="7.927551092375276"><ele>797.0</ele><time>2026-04-18T09:19:01Z</time></trkpt><trkpt lat="43.99346412789208" lon="7.927329517910531"><ele>794.6666666666667</ele><time>2026-04-18T09:19:02Z</time></trkpt><trkpt lat="43.99343513986459" lon="7.9271154443657865"><ele>792.3333333333333</ele><time>2026-04-18T09:19:03Z</time></trkpt><trkpt lat="43.993387296862515" lon="7.926897433396683"><ele>790.0</ele><time>2026-04-18T09:19:04Z</time></trkpt><trkpt lat="43.993320961376774" lon="7.926715438989348"><ele>790.0</ele><time>2026-04-18T09:19:05Z</time></trkpt><trkpt lat="43.993236602543575" lon="7.926557739682171"><ele>790.0</ele><time>2026-04-18T09:19:06Z</time></trkpt><trkpt lat="43.99313243780053" lon="7.92640575149949"><ele>790.0</ele><time>2026-04-18T09:19:07Z</time></trkpt><trkpt lat="43.99301781460131" lon="7.926273010107533"><ele>790.0</ele><time>2026-04-18T09:19:08Z</time></trkpt><trkpt lat="43.99292027921417" lon="7.92614212615165"><ele>790.0</ele><time>2026-04-18T09:19:09Z</time></trkpt><trkpt lat="43.99283634047702" lon="7.926014462941512"><ele>790.0</ele><time>2026-04-18T09:19:10Z</time></trkpt><trkpt lat="43.992770593092764" lon="7.925884567216331"><ele>790.0</ele><time>2026-04-18T09:19:11Z</time></trkpt><trkpt lat="43.99273879645884" lon="7.925734814984665"><ele>790.0</ele><time>2026-04-18T09:19:12Z</time></trkpt><trkpt lat="43.99272730017343" lon="7.925558316209572"><ele>794.3333333333333</ele><time>2026-04-18T09:19:13Z</time></trkpt><trkpt lat="43.9927323976028" lon="7.925365000952086"><ele>798.6666666666667</ele><time>2026-04-18T09:19:14Z</time></trkpt><trkpt lat="43.99274276850988" lon="7.925146883117848"><ele>803.0</ele><time>2026-04-18T09:19:15Z</time></trkpt><trkpt lat="43.992746539779304" lon="7.924927971038278"><ele>804.6666666666667</ele><time>2026-04-18T09:19:16Z</time></trkpt><trkpt lat="43.99275253047273" lon="7.924705135144966"><ele>806.3333333333333</ele><time>2026-04-18T09:19:17Z</time></trkpt><trkpt lat="43.99275106059369" lon="7.924471801492802"><ele>808.0</ele><time>2026-04-18T09:19:18Z</time></trkpt><trkpt lat="43.992746200770156" lon="7.924247309052904"><ele>808.0</ele><time>2026-04-18T09:19:19Z</time></trkpt><trkpt lat="43.99273118802387" lon="7.924035344799464"><ele>808.0</ele><time>2026-04-18T09:19:20Z</time></trkpt><trkpt lat="43.992715697282584" lon="7.923861326485495"><ele>808.0</ele><time>2026-04-18T09:19:21Z</time></trkpt><trkpt lat="43.99271639170176" lon="7.923717723117717"><ele>808.0</ele><time>2026-04-18T09:19:22Z</time></trkpt><trkpt lat="43.99274755883916" lon="7.923578548153613"><ele>808.0</ele><time>2026-04-18T09:19:23Z</time></trkpt><trkpt lat="43.99280856010276" lon="7.92344163301032"><ele>808.0</ele><time>2026-04-18T09:19:24Z</time></trkpt><trkpt lat="43.99287961927216" lon="7.923316772051963"><ele>808.0</ele><time>2026-04-18T09:19:25Z</time></trkpt><trkpt lat="43.99296725178203" lon="7.923204693346755"><ele>808.0</ele><time>2026-04-18T09:19:26Z</time></trkpt><trkpt lat="43.99306559318088" lon="7.923114329683334"><ele>807.5</ele><time>2026-04-18T09:19:27Z</time></trkpt><trkpt lat="43.9931793772497" lon="7.923056043268331"><ele>807.0</ele><time>2026-04-18T09:19:28Z</time></trkpt><trkpt lat="43.99328927344888" lon="7.92295516012747"><ele>806.5</ele><time>2026-04-18T09:19:29Z</time></trkpt><trkpt lat="43.99341010253836" lon="7.922848478720125"><ele>806.0</ele><time>2026-04-18T09:19:30Z</time></trkpt><trkpt lat="43.993523957560384" lon="7.922712199740132"><ele>808.0</ele><time>2026-04-18T09:19:31Z</time></trkpt><trkpt lat="43.99363691115764" lon="7.922576573008301"><ele>810.0</ele><time>2026-04-18T09:19:32Z</time></trkpt><trkpt lat="43.99376665195146" lon="7.922460716131745"><ele>812.0</ele><time>2026-04-18T09:19:33Z</time></trkpt><trkpt lat="43.99390900178736" lon="7.922354346925303"><ele>812.0</ele><time>2026-04-18T09:19:34Z</time></trkpt><trkpt lat="43.99404604554117" lon="7.922253495605649"><ele>812.0</ele><time>2026-04-18T09:19:35Z</time></trkpt><trkpt lat="43.99417744398949" lon="7.922149760677333"><ele>812.0</ele><time>2026-04-18T09:19:36Z</time></trkpt><trkpt lat="43.99430255772333" lon="7.922056914820249"><ele>812.0</ele><time>2026-04-18T09:19:37Z</time></trkpt><trkpt lat="43.9944168426657" lon="7.9219665768624035"><ele>810.75</ele><time>2026-04-18T09:19:38Z</time></trkpt><trkpt lat="43.99453602026228" lon="7.92187469447132"><ele>809.5</ele><time>2026-04-18T09:19:39Z</time></trkpt><trkpt lat="43.99465002100041" lon="7.9217880191168035"><ele>808.25</ele><time>2026-04-18T09:19:40Z</time></trkpt><trkpt lat="43.994769858864494" lon="7.921722819512309"><ele>807.0</ele><time>2026-04-18T09:19:41Z</time></trkpt><trkpt lat="43.994884403772" lon="7.9216541102490705"><ele>807.0</ele><time>2026-04-18T09:19:42Z</time></trkpt><trkpt lat="43.994991243039536" lon="7.921581630567207"><ele>807.0</ele><time>2026-04-18T09:19:43Z</time></trkpt><trkpt lat="43.99508623497839" lon="7.921508792941253"><ele>807.0</ele><time>2026-04-18T09:19:44Z</time></trkpt><trkpt lat="43.99517027820141" lon="7.921420193571027"><ele>807.0</ele><time>2026-04-18T09:19:45Z</time></trkpt><trkpt lat="43.99524144289379" lon="7.9213180665550915"><ele>807.0</ele><time>2026-04-18T09:19:46Z</time></trkpt><trkpt lat="43.995293023431664" lon="7.921187457070353"><ele>809.75</ele><time>2026-04-18T09:19:47Z</time></trkpt><trkpt lat="43.99532362769389" lon="7.921044081451179"><ele>812.5</ele><time>2026-04-18T09:19:48Z</time></trkpt><trkpt lat="43.99533379434505" lon="7.920896573646127"><ele>815.25</ele><time>2026-04-18T09:19:49Z</time></trkpt><trkpt lat="43.9953350084978" lon="7.92073336455362"><ele>818.0</ele><time>2026-04-18T09:19:50Z</time></trkpt><trkpt lat="43.995340663144574" lon="7.92056460913238"><ele>818.0</ele><time>2026-04-18T09:19:51Z</time></trkpt><trkpt lat="43.99535078817691" lon="7.920392201481228"><ele>818.0</ele><time>2026-04-18T09:19:52Z</time></trkpt><trkpt lat="43.9953609920214" lon="7.920219992060097"><ele>818.0</ele><time>2026-04-18T09:19:53Z</time></trkpt><trkpt lat="43.99536881163256" lon="7.920052600636735"><ele>818.0</ele><time>2026-04-18T09:19:54Z</time></trkpt><trkpt lat="43.99538464312914" lon="7.919899897444998"><ele>818.25</ele><time>2026-04-18T09:19:55Z</time></trkpt><trkpt lat="43.99542534749245" lon="7.919749229753784"><ele>818.5</ele><time>2026-04-18T09:19:56Z</time></trkpt><trkpt lat="43.99550235525491" lon="7.919614215575828"><ele>818.75</ele><time>2026-04-18T09:19:57Z</time></trkpt><trkpt lat="43.99558475580597" lon="7.919481472621174"><ele>819.0</ele><time>2026-04-18T09:19:58Z</time></trkpt><trkpt lat="43.99563805608148" lon="7.919335996129123"><ele>818.5</ele><time>2026-04-18T09:19:59Z</time></trkpt><trkpt lat="43.99564170590277" lon="7.9191814728955725"><ele>818.0</ele><time>2026-04-18T09:20:00Z</time></trkpt><trkpt lat="43.99564879093907" lon="7.919027596493799"><ele>817.5</ele><time>2026-04-18T09:20:01Z</time></trkpt><trkpt lat="43.995694033809116" lon="7.9188871815744495"><ele>817.0</ele><time>2026-04-18T09:20:02Z</time></trkpt><trkpt lat="43.99578138661964" lon="7.918777029236415"><ele>824.75</ele><time>2026-04-18T09:20:03Z</time></trkpt><trkpt lat="43.995889619181696" lon="7.918705083904395"><ele>832.5</ele><time>2026-04-18T09:20:04Z</time></trkpt><trkpt lat="43.995988280704765" lon="7.918621914098332"><ele>840.25</ele><time>2026-04-18T09:20:05Z</time></trkpt><trkpt lat="43.99605108779672" lon="7.918499320271776"><ele>848.0</ele><time>2026-04-18T09:20:06Z</time></trkpt><trkpt lat="43.99608571188494" lon="7.918338607471054"><ele>848.25</ele><time>2026-04-18T09:20:07Z</time></trkpt><trkpt lat="43.99608402204971" lon="7.918165597724586"><ele>848.5</ele><time>2026-04-18T09:20:08Z</time></trkpt><trkpt lat="43.99605993866686" lon="7.917999529731427"><ele>848.75</ele><time>2026-04-18T09:20:09Z</time></trkpt><trkpt lat="43.99605890144067" lon="7.917848309398489"><ele>849.0</ele><time>2026-04-18T09:20:10Z</time></trkpt><trkpt lat="43.99611356171068" lon="7.917692491250946"><ele>846.0</ele><time>2026-04-18T09:20:11Z</time></trkpt><trkpt lat="43.99619355496648" lon="7.917551004751871"><ele>843.0</ele><time>2026-04-18T09:20:12Z</time></trkpt><trkpt lat="43.99630093240377" lon="7.917421296035085"><ele>840.0</ele><time>2026-04-18T09:20:13.001Z</time></trkpt><trkpt lat="43.996422254144434" lon="7.917285548188548"><ele>837.0</ele><time>2026-04-18T09:20:14.001Z</time></trkpt><trkpt lat="43.99653424820315" lon="7.917152106165875"><ele>837.0</ele><time>2026-04-18T09:20:15.001Z</time></trkpt><trkpt lat="43.9966442076514" lon="7.917027427903542"><ele>837.0</ele><time>2026-04-18T09:20:16.001Z</time></trkpt><trkpt lat="43.99674793625294" lon="7.91691531501331"><ele>837.0</ele><time>2026-04-18T09:20:17.001Z</time></trkpt><trkpt lat="43.996827619016" lon="7.916794267473657"><ele>837.0</ele><time>2026-04-18T09:20:18.001Z</time></trkpt><trkpt lat="43.99688043195814" lon="7.916653451322591"><ele>840.75</ele><time>2026-04-18T09:20:19.001Z</time></trkpt><trkpt lat="43.996902921419995" lon="7.916487135138047"><ele>844.5</ele><time>2026-04-18T09:20:20.001Z</time></trkpt><trkpt lat="43.99690723794528" lon="7.916313783088851"><ele>848.25</ele><time>2026-04-18T09:20:21.001Z</time></trkpt><trkpt lat="43.99691116217026" lon="7.916130651253645"><ele>852.0</ele><time>2026-04-18T09:20:22.001Z</time></trkpt><trkpt lat="43.99692989300738" lon="7.915945189284101"><ele>851.5</ele><time>2026-04-18T09:20:23.001Z</time></trkpt><trkpt lat="43.99696775984214" lon="7.915763986559996"><ele>851.0</ele><time>2026-04-18T09:20:24.001Z</time></trkpt><trkpt lat="43.99701610845187" lon="7.915589405783398"><ele>850.5</ele><time>2026-04-18T09:20:25.001Z</time></trkpt><trkpt lat="43.99705531787204" lon="7.9154186738461245"><ele>850.0</ele><time>2026-04-18T09:20:26.001Z</time></trkpt><trkpt lat="43.99706843702854" lon="7.915245094073105"><ele>850.0</ele><time>2026-04-18T09:20:27.001Z</time></trkpt><trkpt lat="43.997047081373516" lon="7.915076002091867"><ele>850.0</ele><time>2026-04-18T09:20:28.001Z</time></trkpt><trkpt lat="43.99700811066438" lon="7.914928980459739"><ele>850.0</ele><time>2026-04-18T09:20:29.001Z</time></trkpt><trkpt lat="43.996946699312005" lon="7.914792511688295"><ele>850.0</ele><time>2026-04-18T09:20:30.001Z</time></trkpt><trkpt lat="43.99686639622253" lon="7.914657306181208"><ele>849.5</ele><time>2026-04-18T09:20:31.001Z</time></trkpt><trkpt lat="43.9967886631826" lon="7.9145092905830605"><ele>849.0</ele><time>2026-04-18T09:20:32.001Z</time></trkpt><trkpt lat="43.99672315324386" lon="7.9143431086229254"><ele>848.5</ele><time>2026-04-18T09:20:33.001Z</time></trkpt><trkpt lat="43.996671441101256" lon="7.914163257808794"><ele>848.0</ele><time>2026-04-18T09:20:34.001Z</time></trkpt><trkpt lat="43.99661789932049" lon="7.913977082563645"><ele>844.5</ele><time>2026-04-18T09:20:35.001Z</time></trkpt><trkpt lat="43.9965695083153" lon="7.913783488090037"><ele>841.0</ele><time>2026-04-18T09:20:36.001Z</time></trkpt><trkpt lat="43.996523393862475" lon="7.913591630953408"><ele>837.5</ele><time>2026-04-18T09:20:37.001Z</time></trkpt><trkpt lat="43.99648155118135" lon="7.913396445848658"><ele>834.0</ele><time>2026-04-18T09:20:38.001Z</time></trkpt><trkpt lat="43.99645142553276" lon="7.913198233117232"><ele>834.0</ele><time>2026-04-18T09:20:39.001Z</time></trkpt><trkpt lat="43.99643240252357" lon="7.912995962810887"><ele>834.0</ele><time>2026-04-18T09:20:40.001Z</time></trkpt><trkpt lat="43.99641412766853" lon="7.912797604746828"><ele>834.0</ele><time>2026-04-18T09:20:41.001Z</time></trkpt><trkpt lat="43.99638976107593" lon="7.9126033761625525"><ele>834.0</ele><time>2026-04-18T09:20:42.001Z</time></trkpt><trkpt lat="43.99635712601443" lon="7.912412302650795"><ele>835.5</ele><time>2026-04-18T09:20:43.001Z</time></trkpt><trkpt lat="43.99630448526397" lon="7.912231086762031"><ele>837.0</ele><time>2026-04-18T09:20:44.001Z</time></trkpt><trkpt lat="43.9962260983945" lon="7.912050778861975"><ele>838.5</ele><time>2026-04-18T09:20:45.001Z</time></trkpt><trkpt lat="43.99613733847601" lon="7.911877796881177"><ele>840.0</ele><time>2026-04-18T09:20:46Z</time></trkpt><trkpt lat="43.996054153084145" lon="7.911697091760289"><ele>843.75</ele><time>2026-04-18T09:20:47Z</time></trkpt><trkpt lat="43.99597359154738" lon="7.911514235698502"><ele>847.5</ele><time>2026-04-18T09:20:48Z</time></trkpt><trkpt lat="43.99590214993464" lon="7.91133636664116"><ele>851.25</ele><time>2026-04-18T09:20:49Z</time></trkpt><trkpt lat="43.99583634493088" lon="7.911166163700504"><ele>855.0</ele><time>2026-04-18T09:20:50Z</time></trkpt><trkpt lat="43.99578038105073" lon="7.911006623847377"><ele>852.0</ele><time>2026-04-18T09:20:51Z</time></trkpt><trkpt lat="43.99574251480847" lon="7.910859526647886"><ele>849.0</ele><time>2026-04-18T09:20:52Z</time></trkpt><trkpt lat="43.99571531036365" lon="7.910747580801978"><ele>846.0</ele><time>2026-04-18T09:20:53Z</time></trkpt><trkpt lat="43.99568421800072" lon="7.910646714673758"><ele>843.0</ele><time>2026-04-18T09:20:54Z</time></trkpt><trkpt lat="43.99563621002003" lon="7.910547346043876"><ele>840.0</ele><time>2026-04-18T09:20:55Z</time></trkpt><trkpt lat="43.995564099857184" lon="7.910475311688438"><ele>840.0</ele><time>2026-04-18T09:20:56Z</time></trkpt><trkpt lat="43.99547957452109" lon="7.910412676477582"><ele>840.0</ele><time>2026-04-18T09:20:57Z</time></trkpt><trkpt lat="43.99538349655078" lon="7.910353195523705"><ele>840.0</ele><time>2026-04-18T09:20:58Z</time></trkpt><trkpt lat="43.99530083888044" lon="7.910306699993068"><ele>840.0</ele><time>2026-04-18T09:20:59Z</time></trkpt><trkpt lat="43.995219936597735" lon="7.910194173710169"><ele>840.0</ele><time>2026-04-18T09:21:01Z</time></trkpt><trkpt lat="43.99526100013591" lon="7.910045110869095"><ele>842.4</ele><time>2026-04-18T09:21:03Z</time></trkpt><trkpt lat="43.99532895665591" lon="7.909977886619173"><ele>844.8</ele><time>2026-04-18T09:21:04Z</time></trkpt><trkpt lat="43.995411601503896" lon="7.909905711648941"><ele>847.2</ele><time>2026-04-18T09:21:05Z</time></trkpt><trkpt lat="43.995501468344266" lon="7.909810631577444"><ele>849.6</ele><time>2026-04-18T09:21:06Z</time></trkpt><trkpt lat="43.99559381189268" lon="7.9096948576088035"><ele>852.0</ele><time>2026-04-18T09:21:07Z</time></trkpt><trkpt lat="43.995662760449186" lon="7.909558956718278"><ele>852.0</ele><time>2026-04-18T09:21:08Z</time></trkpt><trkpt lat="43.9957073649357" lon="7.909390694996026"><ele>852.0</ele><time>2026-04-18T09:21:09Z</time></trkpt><trkpt lat="43.99574502215161" lon="7.9092177390123455"><ele>852.0</ele><time>2026-04-18T09:21:10Z</time></trkpt><trkpt lat="43.995802579979014" lon="7.909099418600774"><ele>852.0</ele><time>2026-04-18T09:21:11Z</time></trkpt><trkpt lat="43.995840459800036" lon="7.909001731147586"><ele>852.0</ele><time>2026-04-18T09:21:12Z</time></trkpt><trkpt lat="43.9959132010281" lon="7.908947853102176"><ele>854.25</ele><time>2026-04-18T09:21:13Z</time></trkpt><trkpt lat="43.99600600333348" lon="7.908935963613563"><ele>856.5</ele><time>2026-04-18T09:21:14Z</time></trkpt><trkpt lat="43.99611290111005" lon="7.908975842594105"><ele>858.75</ele><time>2026-04-18T09:21:15Z</time></trkpt><trkpt lat="43.9962348919134" lon="7.908976087579975"><ele>861.0</ele><time>2026-04-18T09:21:16Z</time></trkpt><trkpt lat="43.996357307593144" lon="7.908924246295147"><ele>861.0</ele><time>2026-04-18T09:21:17Z</time></trkpt><trkpt lat="43.99646907632131" lon="7.908871058039225"><ele>860.9999999999999</ele><time>2026-04-18T09:21:18Z</time></trkpt><trkpt lat="43.996556587714785" lon="7.9087976990995275"><ele>860.9999999999999</ele><time>2026-04-18T09:21:19Z</time></trkpt><trkpt lat="43.996646389838844" lon="7.9087780994547945"><ele>861.0</ele><time>2026-04-18T09:21:20Z</time></trkpt><trkpt lat="43.996734626650344" lon="7.908769352263097"><ele>861.0</ele><time>2026-04-18T09:21:21Z</time></trkpt><trkpt lat="43.99682905796321" lon="7.9087818268338586"><ele>864.5</ele><time>2026-04-18T09:21:22Z</time></trkpt><trkpt lat="43.99693009996883" lon="7.908823695313286"><ele>868.0</ele><time>2026-04-18T09:21:23Z</time></trkpt><trkpt lat="43.99703942863187" lon="7.908850711039664"><ele>871.5</ele><time>2026-04-18T09:21:24Z</time></trkpt><trkpt lat="43.99715331696189" lon="7.908825836741954"><ele>875.0</ele><time>2026-04-18T09:21:25Z</time></trkpt><trkpt lat="43.99727175058168" lon="7.908768146384147"><ele>875.0</ele><time>2026-04-18T09:21:26Z</time></trkpt><trkpt lat="43.99738366067121" lon="7.9087026052540255"><ele>875.0</ele><time>2026-04-18T09:21:27Z</time></trkpt><trkpt lat="43.997474788459776" lon="7.908647083411181"><ele>875.0</ele><time>2026-04-18T09:21:28Z</time></trkpt><trkpt lat="43.99754826400102" lon="7.908573339946856"><ele>875.0</ele><time>2026-04-18T09:21:29Z</time></trkpt><trkpt lat="43.99759222346504" lon="7.908475201876114"><ele>875.0</ele><time>2026-04-18T09:21:30Z</time></trkpt><trkpt lat="43.99760470669546" lon="7.9083199239539566"><ele>879.5</ele><time>2026-04-18T09:21:31Z</time></trkpt><trkpt lat="43.99758357201972" lon="7.908151707753974"><ele>884.0</ele><time>2026-04-18T09:21:32Z</time></trkpt><trkpt lat="43.99759368625759" lon="7.907972058307635"><ele>888.5</ele><time>2026-04-18T09:21:33Z</time></trkpt><trkpt lat="43.99763187814126" lon="7.907788053981026"><ele>893.0</ele><time>2026-04-18T09:21:34Z</time></trkpt><trkpt lat="43.99764987049094" lon="7.90756044458276"><ele>894.0</ele><time>2026-04-18T09:21:35Z</time></trkpt><trkpt lat="43.997679167464504" lon="7.907351306693099"><ele>895.0</ele><time>2026-04-18T09:21:36Z</time></trkpt><trkpt lat="43.997698812886036" lon="7.9071244456795275"><ele>896.0</ele><time>2026-04-18T09:21:37Z</time></trkpt><trkpt lat="43.99770059360555" lon="7.9069073662998495"><ele>894.1999999999999</ele><time>2026-04-18T09:21:38Z</time></trkpt><trkpt lat="43.99770916496199" lon="7.906730477310091"><ele>892.3999999999999</ele><time>2026-04-18T09:21:39Z</time></trkpt><trkpt lat="43.99774725815669" lon="7.906607653315324"><ele>890.6</ele><time>2026-04-18T09:21:40Z</time></trkpt><trkpt lat="43.99778545517227" lon="7.906478712295871"><ele>888.8</ele><time>2026-04-18T09:21:41Z</time></trkpt><trkpt lat="43.997860413448045" lon="7.906358195593889"><ele>887.0</ele><time>2026-04-18T09:21:42Z</time></trkpt><trkpt lat="43.99794394395197" lon="7.9062178831187095"><ele>887.0</ele><time>2026-04-18T09:21:43Z</time></trkpt><trkpt lat="43.998015501706455" lon="7.906051737298685"><ele>887.0</ele><time>2026-04-18T09:21:44Z</time></trkpt><trkpt lat="43.998104246733426" lon="7.905890091469673"><ele>887.0</ele><time>2026-04-18T09:21:45Z</time></trkpt><trkpt lat="43.998163456649245" lon="7.90572603495348"><ele>887.0</ele><time>2026-04-18T09:21:46Z</time></trkpt><trkpt lat="43.99820744397494" lon="7.905573777601458"><ele>883.0</ele><time>2026-04-18T09:21:47Z</time></trkpt><trkpt lat="43.998217992301555" lon="7.905422850297446"><ele>879.0</ele><time>2026-04-18T09:21:48Z</time></trkpt><trkpt lat="43.99820074149798" lon="7.905265544001393"><ele>875.0</ele><time>2026-04-18T09:21:49Z</time></trkpt><trkpt lat="43.99814610985439" lon="7.9051183757889785"><ele>871.0</ele><time>2026-04-18T09:21:50Z</time></trkpt><trkpt lat="43.998079090638655" lon="7.904980059230535"><ele>871.0</ele><time>2026-04-18T09:21:51Z</time></trkpt><trkpt lat="43.99800952599948" lon="7.904833501974558"><ele>871.0</ele><time>2026-04-18T09:21:52Z</time></trkpt><trkpt lat="43.99794844278886" lon="7.904674171113615"><ele>871.0</ele><time>2026-04-18T09:21:53Z</time></trkpt><trkpt lat="43.99789022466626" lon="7.904497474059699"><ele>871.0</ele><time>2026-04-18T09:21:54Z</time></trkpt><trkpt lat="43.99783767950391" lon="7.9043182853230585"><ele>872.75</ele><time>2026-04-18T09:21:55Z</time></trkpt><trkpt lat="43.997808339054764" lon="7.904134615061207"><ele>874.5</ele><time>2026-04-18T09:21:56Z</time></trkpt><trkpt lat="43.99777919075585" lon="7.903966199352562"><ele>876.25</ele><time>2026-04-18T09:21:57Z</time></trkpt><trkpt lat="43.997760913999365" lon="7.90381677860724"><ele>878.0</ele><time>2026-04-18T09:21:58Z</time></trkpt><trkpt lat="43.99775307519942" lon="7.903690173976392"><ele>878.0000000000001</ele><time>2026-04-18T09:21:59Z</time></trkpt><trkpt lat="43.99777779986194" lon="7.903572383887101"><ele>878.0</ele><time>2026-04-18T09:22:00Z</time></trkpt><trkpt lat="43.99782044818061" lon="7.903468292242645"><ele>878.0</ele><time>2026-04-18T09:22:01Z</time></trkpt><trkpt lat="43.99788652833485" lon="7.9033936492275885"><ele>878.0</ele><time>2026-04-18T09:22:02Z</time></trkpt><trkpt lat="43.997959772731285" lon="7.903353082623366"><ele>878.0000000000001</ele><time>2026-04-18T09:22:03Z</time></trkpt><trkpt lat="43.99804386154648" lon="7.903382850547138"><ele>878.0</ele><time>2026-04-18T09:22:04Z</time></trkpt><trkpt lat="43.99814024270804" lon="7.903377805282597"><ele>873.75</ele><time>2026-04-18T09:22:05Z</time></trkpt><trkpt lat="43.998241724528874" lon="7.903379139248029"><ele>869.5</ele><time>2026-04-18T09:22:06Z</time></trkpt><trkpt lat="43.99836166463288" lon="7.903354459978644"><ele>865.25</ele><time>2026-04-18T09:22:07Z</time></trkpt><trkpt lat="43.99849232116178" lon="7.903304161503187"><ele>861.0</ele><time>2026-04-18T09:22:08Z</time></trkpt><trkpt lat="43.99861839858482" lon="7.903253558983206"><ele>871.0</ele><time>2026-04-18T09:22:09Z</time></trkpt><trkpt lat="43.998736786575094" lon="7.9031911005821796"><ele>881.0</ele><time>2026-04-18T09:22:10Z</time></trkpt><trkpt lat="43.99884971226876" lon="7.903094157660467"><ele>891.0</ele><time>2026-04-18T09:22:11Z</time></trkpt><trkpt lat="43.99893873392702" lon="7.902956563406456"><ele>901.0</ele><time>2026-04-18T09:22:12Z</time></trkpt><trkpt lat="43.999014800816326" lon="7.902816806477304"><ele>901.0</ele><time>2026-04-18T09:22:13Z</time></trkpt><trkpt lat="43.99910059295965" lon="7.902720405772633"><ele>900.9999999999999</ele><time>2026-04-18T09:22:14Z</time></trkpt><trkpt lat="43.99917009005745" lon="7.90264626366348"><ele>900.9999999999999</ele><time>2026-04-18T09:22:15Z</time></trkpt><trkpt lat="43.99925569209273" lon="7.902605358882356"><ele>901.0</ele><time>2026-04-18T09:22:16Z</time></trkpt><trkpt lat="43.99936187591842" lon="7.902614506773311"><ele>901.0</ele><time>2026-04-18T09:22:17Z</time></trkpt><trkpt lat="43.999478405089434" lon="7.902657391779759"><ele>908.75</ele><time>2026-04-18T09:22:18Z</time></trkpt><trkpt lat="43.99960535899072" lon="7.902688365255835"><ele>916.5</ele><time>2026-04-18T09:22:19Z</time></trkpt><trkpt lat="43.99973193170352" lon="7.902689865664563"><ele>924.25</ele><time>2026-04-18T09:22:20Z</time></trkpt><trkpt lat="43.99985229946068" lon="7.902671218986586"><ele>932.0</ele><time>2026-04-18T09:22:21Z</time></trkpt><trkpt lat="43.99996589639019" lon="7.902633205813901"><ele>932.0</ele><time>2026-04-18T09:22:22Z</time></trkpt><trkpt lat="44.00006439142049" lon="7.902584303562364"><ele>932.0</ele><time>2026-04-18T09:22:23Z</time></trkpt><trkpt lat="44.000145482408016" lon="7.902511212579225"><ele>932.0</ele><time>2026-04-18T09:22:24Z</time></trkpt><trkpt lat="44.000205592046086" lon="7.902408138383474"><ele>932.0</ele><time>2026-04-18T09:22:25Z</time></trkpt><trkpt lat="44.00024283082844" lon="7.902263100772072"><ele>932.0</ele><time>2026-04-18T09:22:26Z</time></trkpt><trkpt lat="44.00029256428662" lon="7.902148589958291"><ele>922.6</ele><time>2026-04-18T09:22:27Z</time></trkpt><trkpt lat="44.000327130236215" lon="7.90206757997154"><ele>913.2</ele><time>2026-04-18T09:22:28Z</time></trkpt><trkpt lat="44.000451213796865" lon="7.901992742146183"><ele>903.8</ele><time>2026-04-18T09:22:30Z</time></trkpt><trkpt lat="44.00055875588269" lon="7.901966781852156"><ele>894.4</ele><time>2026-04-18T09:22:31Z</time></trkpt><trkpt lat="44.00066855495951" lon="7.9018969747825265"><ele>885.0</ele><time>2026-04-18T09:22:32Z</time></trkpt><trkpt lat="44.00077206703323" lon="7.901846062038525"><ele>886.25</ele><time>2026-04-18T09:22:33Z</time></trkpt><trkpt lat="44.0008453376758" lon="7.901760909648158"><ele>887.5</ele><time>2026-04-18T09:22:34Z</time></trkpt><trkpt lat="44.000896012001384" lon="7.901617530796985"><ele>888.75</ele><time>2026-04-18T09:22:35Z</time></trkpt><trkpt lat="44.000913456458235" lon="7.901435332520655"><ele>890.0</ele><time>2026-04-18T09:22:36Z</time></trkpt><trkpt lat="44.00093542814519" lon="7.901260765634146"><ele>890.0</ele><time>2026-04-18T09:22:37Z</time></trkpt><trkpt lat="44.00098756518769" lon="7.9011201369866315"><ele>890.0</ele><time>2026-04-18T09:22:38Z</time></trkpt><trkpt lat="44.00103997228475" lon="7.900998502077258"><ele>890.0</ele><time>2026-04-18T09:22:39Z</time></trkpt><trkpt lat="44.001106035211215" lon="7.900906682626134"><ele>890.0</ele><time>2026-04-18T09:22:40Z</time></trkpt><trkpt lat="44.00116461790605" lon="7.9007899715618946"><ele>890.0</ele><time>2026-04-18T09:22:41Z</time></trkpt><trkpt lat="44.0012213263115" lon="7.900689561508976"><ele>885.75</ele><time>2026-04-18T09:22:42Z</time></trkpt><trkpt lat="44.00121234933563" lon="7.9005197882224545"><ele>881.5</ele><time>2026-04-18T09:22:43Z</time></trkpt><trkpt lat="44.001183828421276" lon="7.900340886007513"><ele>877.25</ele><time>2026-04-18T09:22:44Z</time></trkpt><trkpt lat="44.00112248947128" lon="7.900172088122712"><ele>873.0</ele><time>2026-04-18T09:22:45Z</time></trkpt><trkpt lat="44.00105379915597" lon="7.899999634369626"><ele>873.0</ele><time>2026-04-18T09:22:46Z</time></trkpt><trkpt lat="44.00102519486999" lon="7.899811449169388"><ele>873.0</ele><time>2026-04-18T09:22:47Z</time></trkpt><trkpt lat="44.00099853256551" lon="7.899629372355221"><ele>873.0</ele><time>2026-04-18T09:22:48Z</time></trkpt><trkpt lat="44.000991362996025" lon="7.899432308073428"><ele>873.0</ele><time>2026-04-18T09:22:49Z</time></trkpt><trkpt lat="44.00100147800409" lon="7.899212876361911"><ele>875.6666666666667</ele><time>2026-04-18T09:22:50Z</time></trkpt><trkpt lat="44.0010015630173" lon="7.8989963903811535"><ele>878.3333333333334</ele><time>2026-04-18T09:22:51Z</time></trkpt><trkpt lat="44.00101091557159" lon="7.898783640541602"><ele>881.0</ele><time>2026-04-18T09:22:52Z</time></trkpt><trkpt lat="44.001016715802" lon="7.898579771774426"><ele>880.4</ele><time>2026-04-18T09:22:53Z</time></trkpt><trkpt lat="44.00101946078103" lon="7.898412274346838"><ele>879.8</ele><time>2026-04-18T09:22:54Z</time></trkpt><trkpt lat="44.00102632953116" lon="7.898282601761627"><ele>879.1999999999999</ele><time>2026-04-18T09:22:55Z</time></trkpt><trkpt lat="44.001048663831185" lon="7.898173264755404"><ele>878.5999999999999</ele><time>2026-04-18T09:22:56Z</time></trkpt><trkpt lat="44.00110091905057" lon="7.898082359083775"><ele>878.0</ele><time>2026-04-18T09:22:57Z</time></trkpt><trkpt lat="44.001181960037755" lon="7.898007792925645"><ele>878.0</ele><time>2026-04-18T09:22:58Z</time></trkpt><trkpt lat="44.001288405593876" lon="7.897996713654448"><ele>878.0</ele><time>2026-04-18T09:22:59Z</time></trkpt><trkpt lat="44.001410360207565" lon="7.897975276427092"><ele>878.0</ele><time>2026-04-18T09:23:00Z</time></trkpt><trkpt lat="44.00153234165895" lon="7.897941687541042"><ele>878.0</ele><time>2026-04-18T09:23:01Z</time></trkpt><trkpt lat="44.001645299350905" lon="7.897913618997707"><ele>881.8</ele><time>2026-04-18T09:23:02Z</time></trkpt><trkpt lat="44.001732793742306" lon="7.89783698386303"><ele>885.5999999999999</ele><time>2026-04-18T09:23:03Z</time></trkpt><trkpt lat="44.00177368357942" lon="7.897721950815659"><ele>889.4000000000001</ele><time>2026-04-18T09:23:04Z</time></trkpt><trkpt lat="44.00179911408152" lon="7.897546728948911"><ele>893.2</ele><time>2026-04-18T09:23:05Z</time></trkpt><trkpt lat="44.00180662449285" lon="7.897380421166156"><ele>897.0</ele><time>2026-04-18T09:23:06Z</time></trkpt><trkpt lat="44.00186948505659" lon="7.8972500963461"><ele>897.0</ele><time>2026-04-18T09:23:07Z</time></trkpt><trkpt lat="44.001915569357195" lon="7.897104625559552"><ele>897.0</ele><time>2026-04-18T09:23:08Z</time></trkpt><trkpt lat="44.00195851994055" lon="7.896965381658834"><ele>897.0</ele><time>2026-04-18T09:23:09Z</time></trkpt><trkpt lat="44.001947537743305" lon="7.896813346430492"><ele>897.0</ele><time>2026-04-18T09:23:10Z</time></trkpt><trkpt lat="44.00190365665665" lon="7.896660948710523"><ele>894.8</ele><time>2026-04-18T09:23:11Z</time></trkpt><trkpt lat="44.00184933567486" lon="7.896529286837551"><ele>892.6</ele><time>2026-04-18T09:23:12Z</time></trkpt><trkpt lat="44.001848624707115" lon="7.896389897924386"><ele>890.3999999999999</ele><time>2026-04-18T09:23:13Z</time></trkpt><trkpt lat="44.00187201758601" lon="7.896267367107218"><ele>888.1999999999999</ele><time>2026-04-18T09:23:14Z</time></trkpt><trkpt lat="44.00194253378139" lon="7.896146221192432"><ele>886.0</ele><time>2026-04-18T09:23:15Z</time></trkpt><trkpt lat="44.00200346380836" lon="7.895988429973056"><ele>883.5</ele><time>2026-04-18T09:23:16Z</time></trkpt><trkpt lat="44.0020829544144" lon="7.89583393034604"><ele>881.0</ele><time>2026-04-18T09:23:17Z</time></trkpt><trkpt lat="44.00214089597752" lon="7.895666907140951"><ele>878.5</ele><time>2026-04-18T09:23:18Z</time></trkpt><trkpt lat="44.002185516377686" lon="7.895510960265757"><ele>876.0</ele><time>2026-04-18T09:23:19Z</time></trkpt><trkpt lat="44.00226500134544" lon="7.895385788491951"><ele>876.0</ele><time>2026-04-18T09:23:20Z</time></trkpt><trkpt lat="44.0023601578528" lon="7.895267262053852"><ele>876.0</ele><time>2026-04-18T09:23:21Z</time></trkpt><trkpt lat="44.002456094194855" lon="7.895131729396401"><ele>876.0</ele><time>2026-04-18T09:23:22Z</time></trkpt><trkpt lat="44.00255490457053" lon="7.895028387118789"><ele>876.0</ele><time>2026-04-18T09:23:23Z</time></trkpt><trkpt lat="44.002621049195994" lon="7.894930445603591"><ele>882.4</ele><time>2026-04-18T09:23:24Z</time></trkpt><trkpt lat="44.00263885733161" lon="7.894807455130005"><ele>888.8</ele><time>2026-04-18T09:23:25Z</time></trkpt><trkpt lat="44.00262404367686" lon="7.894649275514063"><ele>895.1999999999999</ele><time>2026-04-18T09:23:26Z</time></trkpt><trkpt lat="44.002590092033294" lon="7.894499638138666"><ele>901.5999999999999</ele><time>2026-04-18T09:23:27Z</time></trkpt><trkpt lat="44.002583557605774" lon="7.894341932563028"><ele>908.0</ele><time>2026-04-18T09:23:28Z</time></trkpt><trkpt lat="44.00261399254016" lon="7.894184731061904"><ele>908.0</ele><time>2026-04-18T09:23:29Z</time></trkpt><trkpt lat="44.00265222295991" lon="7.894042691708521"><ele>908.0</ele><time>2026-04-18T09:23:30Z</time></trkpt><trkpt lat="44.00265043629269" lon="7.893902106361526"><ele>908.0</ele><time>2026-04-18T09:23:31Z</time></trkpt><trkpt lat="44.00259742371824" lon="7.8937526728892236"><ele>908.0</ele><time>2026-04-18T09:23:32Z</time></trkpt><trkpt lat="44.00251161265185" lon="7.893628308275173"><ele>901.0</ele><time>2026-04-18T09:23:33Z</time></trkpt><trkpt lat="44.00241021675615" lon="7.893507635860271"><ele>894.0</ele><time>2026-04-18T09:23:34Z</time></trkpt><trkpt lat="44.00234532416565" lon="7.893357640307115"><ele>887.0</ele><time>2026-04-18T09:23:35Z</time></trkpt><trkpt lat="44.00226892722115" lon="7.89321189686941"><ele>880.0</ele><time>2026-04-18T09:23:36Z</time></trkpt><trkpt lat="44.00223827917275" lon="7.893056721031782"><ele>880.0</ele><time>2026-04-18T09:23:37Z</time></trkpt><trkpt lat="44.00223078939073" lon="7.8929072446271"><ele>880.0</ele><time>2026-04-18T09:23:38Z</time></trkpt><trkpt lat="44.002260261484196" lon="7.89275053463379"><ele>880.0</ele><time>2026-04-18T09:23:39Z</time></trkpt><trkpt lat="44.00230546946732" lon="7.892609878248155"><ele>880.0</ele><time>2026-04-18T09:23:40Z</time></trkpt><trkpt lat="44.00231785207355" lon="7.8924756350674805"><ele>880.0</ele><time>2026-04-18T09:23:41Z</time></trkpt><trkpt lat="44.00227820280403" lon="7.892336761061737"><ele>881.75</ele><time>2026-04-18T09:23:42Z</time></trkpt><trkpt lat="44.00220638480472" lon="7.892217154355594"><ele>883.5</ele><time>2026-04-18T09:23:43Z</time></trkpt><trkpt lat="44.00212916383251" lon="7.892107672435429"><ele>885.25</ele><time>2026-04-18T09:23:44Z</time></trkpt><trkpt lat="44.00207724492751" lon="7.891962726625465"><ele>887.0</ele><time>2026-04-18T09:23:45Z</time></trkpt><trkpt lat="44.002034582010474" lon="7.891795268864751"><ele>890.5</ele><time>2026-04-18T09:23:46Z</time></trkpt><trkpt lat="44.001993455384714" lon="7.891623698412921"><ele>894.0</ele><time>2026-04-18T09:23:47Z</time></trkpt><trkpt lat="44.00196947320984" lon="7.891438797302258"><ele>897.5</ele><time>2026-04-18T09:23:48Z</time></trkpt><trkpt lat="44.00196725253985" lon="7.891247439759635"><ele>901.0</ele><time>2026-04-18T09:23:49Z</time></trkpt><trkpt lat="44.00194757259061" lon="7.891054652824137"><ele>904.6666666666666</ele><time>2026-04-18T09:23:50Z</time></trkpt><trkpt lat="44.0018958412463" lon="7.890863415851904"><ele>908.3333333333333</ele><time>2026-04-18T09:23:51Z</time></trkpt><trkpt lat="44.00184655842716" lon="7.890662334125954"><ele>912.0</ele><time>2026-04-18T09:23:52Z</time></trkpt><trkpt lat="44.001803541385705" lon="7.890441623655603"><ele>912.0</ele><time>2026-04-18T09:23:53Z</time></trkpt><trkpt lat="44.00174951141609" lon="7.8902027018687795"><ele>912.0</ele><time>2026-04-18T09:23:54Z</time></trkpt><trkpt lat="44.00168868461419" lon="7.8899819689338075"><ele>912.0</ele><time>2026-04-18T09:23:55Z</time></trkpt><trkpt lat="44.001622727321504" lon="7.889788294159378"><ele>911.75</ele><time>2026-04-18T09:23:56Z</time></trkpt><trkpt lat="44.00154901021662" lon="7.889622496108862"><ele>911.5</ele><time>2026-04-18T09:23:57Z</time></trkpt><trkpt lat="44.00142915985535" lon="7.8895104529476665"><ele>911.25</ele><time>2026-04-18T09:23:58Z</time></trkpt><trkpt lat="44.001344067164936" lon="7.889385499608579"><ele>911.0</ele><time>2026-04-18T09:23:59Z</time></trkpt><trkpt lat="44.001289630147866" lon="7.889228665504363"><ele>911.0</ele><time>2026-04-18T09:24:00Z</time></trkpt><trkpt lat="44.001248721952784" lon="7.8890454761526145"><ele>911.0</ele><time>2026-04-18T09:24:01Z</time></trkpt><trkpt lat="44.00118952529828" lon="7.888849332092928"><ele>911.0</ele><time>2026-04-18T09:24:02Z</time></trkpt><trkpt lat="44.00109184093336" lon="7.8886644667590975"><ele>911.0</ele><time>2026-04-18T09:24:03Z</time></trkpt><trkpt lat="44.00099022695925" lon="7.888495009148181"><ele>911.0</ele><time>2026-04-18T09:24:04Z</time></trkpt><trkpt lat="44.00091996663108" lon="7.888293977094314"><ele>911.0</ele><time>2026-04-18T09:24:05Z</time></trkpt><trkpt lat="44.000871054040864" lon="7.888089704584648"><ele>910.25</ele><time>2026-04-18T09:24:06Z</time></trkpt><trkpt lat="44.000821215404216" lon="7.887888163796459"><ele>909.5</ele><time>2026-04-18T09:24:07Z</time></trkpt><trkpt lat="44.00075431102928" lon="7.887713406756356"><ele>908.75</ele><time>2026-04-18T09:24:08Z</time></trkpt><trkpt lat="44.000680425938334" lon="7.887567336605988"><ele>908.0</ele><time>2026-04-18T09:24:09Z</time></trkpt><trkpt lat="44.00060820044063" lon="7.8874480630044035"><ele>909.3333333333334</ele><time>2026-04-18T09:24:10Z</time></trkpt><trkpt lat="44.00053873278279" lon="7.887346369809008"><ele>910.6666666666667</ele><time>2026-04-18T09:24:11Z</time></trkpt><trkpt lat="44.000483879280836" lon="7.8872556682665875"><ele>912.0</ele><time>2026-04-18T09:24:12Z</time></trkpt><trkpt lat="44.00044727483912" lon="7.887152862159376"><ele>913.3333333333333</ele><time>2026-04-18T09:24:13Z</time></trkpt><trkpt lat="44.000438308455266" lon="7.887035534898718"><ele>914.6666666666666</ele><time>2026-04-18T09:24:14Z</time></trkpt><trkpt lat="44.00045755657697" lon="7.886915208192759"><ele>916.0</ele><time>2026-04-18T09:24:15Z</time></trkpt><trkpt lat="44.00049332142225" lon="7.886787326558878"><ele>913.75</ele><time>2026-04-18T09:24:16Z</time></trkpt><trkpt lat="44.00053129687045" lon="7.886649398348868"><ele>911.5</ele><time>2026-04-18T09:24:17Z</time></trkpt><trkpt lat="44.000563066360534" lon="7.886494237158734"><ele>909.25</ele><time>2026-04-18T09:24:18Z</time></trkpt><trkpt lat="44.00057754518966" lon="7.886327084709844"><ele>907.0</ele><time>2026-04-18T09:24:19Z</time></trkpt><trkpt lat="44.00056751809991" lon="7.8861659740758565"><ele>907.0</ele><time>2026-04-18T09:24:20Z</time></trkpt><trkpt lat="44.00055522404375" lon="7.8860156190112916"><ele>907.0</ele><time>2026-04-18T09:24:21Z</time></trkpt><trkpt lat="44.00056781666856" lon="7.885866782582251"><ele>907.0</ele><time>2026-04-18T09:24:22Z</time></trkpt><trkpt lat="44.000611798090645" lon="7.885725232379864"><ele>907.0</ele><time>2026-04-18T09:24:23Z</time></trkpt><trkpt lat="44.00068485145616" lon="7.885602639936203"><ele>907.0</ele><time>2026-04-18T09:24:24Z</time></trkpt><trkpt lat="44.00077126548341" lon="7.885493308187594"><ele>915.75</ele><time>2026-04-18T09:24:25Z</time></trkpt><trkpt lat="44.000847274954694" lon="7.88537324820169"><ele>924.5</ele><time>2026-04-18T09:24:26Z</time></trkpt><trkpt lat="44.00090050960263" lon="7.885226555419886"><ele>933.25</ele><time>2026-04-18T09:24:27Z</time></trkpt><trkpt lat="44.00092630547079" lon="7.885051644275451"><ele>942.0</ele><time>2026-04-18T09:24:28Z</time></trkpt><trkpt lat="44.00094463580389" lon="7.884873598074072"><ele>942.0</ele><time>2026-04-18T09:24:29Z</time></trkpt><trkpt lat="44.0009678526821" lon="7.8846954085567855"><ele>942.0</ele><time>2026-04-18T09:24:30Z</time></trkpt><trkpt lat="44.00099931283391" lon="7.884520680769906"><ele>942.0</ele><time>2026-04-18T09:24:31Z</time></trkpt><trkpt lat="44.001032419482556" lon="7.8843447757292"><ele>942.0</ele><time>2026-04-18T09:24:32Z</time></trkpt><trkpt lat="44.00104626697794" lon="7.884179107850299"><ele>942.0</ele><time>2026-04-18T09:24:33Z</time></trkpt><trkpt lat="44.00103325011384" lon="7.884025021900602"><ele>942.0</ele><time>2026-04-18T09:24:34Z</time></trkpt><trkpt lat="44.000992028134796" lon="7.883882807637398"><ele>942.0</ele><time>2026-04-18T09:24:35Z</time></trkpt><trkpt lat="44.000924345166645" lon="7.883755467246176"><ele>942.0</ele><time>2026-04-18T09:24:36Z</time></trkpt><trkpt lat="44.000854608907474" lon="7.883647334056749"><ele>942.0</ele><time>2026-04-18T09:24:37Z</time></trkpt><trkpt lat="44.00079267762746" lon="7.883546088592168"><ele>938.6666666666666</ele><time>2026-04-18T09:24:38Z</time></trkpt><trkpt lat="44.000737622093624" lon="7.883445439137892"><ele>935.3333333333333</ele><time>2026-04-18T09:24:39Z</time></trkpt><trkpt lat="44.00068683075174" lon="7.883356704895809"><ele>932.0</ele><time>2026-04-18T09:24:40Z</time></trkpt><trkpt lat="44.00063989151208" lon="7.883277913558664"><ele>928.6666666666666</ele><time>2026-04-18T09:24:41Z</time></trkpt><trkpt lat="44.000595182306405" lon="7.883205449776481"><ele>925.3333333333333</ele><time>2026-04-18T09:24:42Z</time></trkpt><trkpt lat="44.00055665630826" lon="7.883133374453558"><ele>922.0</ele><time>2026-04-18T09:24:43Z</time></trkpt><trkpt lat="44.000492921313636" lon="7.8830236571614405"><ele>921.9999999999999</ele><time>2026-04-18T09:24:45Z</time></trkpt><trkpt lat="44.00044576421574" lon="7.882943809236662"><ele>922.0</ele><time>2026-04-18T09:24:47Z</time></trkpt><trkpt lat="44.00040457111015" lon="7.882864071208273"><ele>922.0</ele><time>2026-04-18T09:25:17Z</time></trkpt><trkpt lat="44.000339575023645" lon="7.882751855267004"><ele>922.0</ele><time>2026-04-18T09:25:19Z</time></trkpt><trkpt lat="44.00029297548141" lon="7.8826924328298205"><ele>921.9999999999999</ele><time>2026-04-18T09:25:20Z</time></trkpt><trkpt lat="44.00022684481211" lon="7.882599024803262"><ele>922.0</ele><time>2026-04-18T09:25:22Z</time></trkpt><trkpt lat="44.00015587655304" lon="7.882483473749844"><ele>925.4999999999999</ele><time>2026-04-18T09:25:24Z</time></trkpt><trkpt lat="44.00010791750865" lon="7.882408915901252"><ele>929.0</ele><time>2026-04-18T09:25:25Z</time></trkpt><trkpt lat="44.000057215629575" lon="7.8823243579933004"><ele>932.5</ele><time>2026-04-18T09:25:26Z</time></trkpt><trkpt lat="44.00001934706359" lon="7.882245196316079"><ele>936.0</ele><time>2026-04-18T09:25:27Z</time></trkpt><trkpt lat="43.99998054465362" lon="7.882163392997923"><ele>939.4999999999999</ele><time>2026-04-18T09:25:28Z</time></trkpt><trkpt lat="43.999934729081886" lon="7.8820711903766965"><ele>943.0</ele><time>2026-04-18T09:25:29Z</time></trkpt><trkpt lat="43.999896259635825" lon="7.881973138338965"><ele>943.0</ele><time>2026-04-18T09:25:30Z</time></trkpt><trkpt lat="43.999894307552346" lon="7.881857785551524"><ele>943.0</ele><time>2026-04-18T09:25:31Z</time></trkpt><trkpt lat="43.99992279380872" lon="7.88173566313851"><ele>943.0</ele><time>2026-04-18T09:25:32Z</time></trkpt><trkpt lat="43.999978132585404" lon="7.881627269254746"><ele>943.0</ele><time>2026-04-18T09:25:33Z</time></trkpt><trkpt lat="44.000067789110126" lon="7.88154011951844"><ele>943.0</ele><time>2026-04-18T09:25:34Z</time></trkpt><trkpt lat="44.00015736748293" lon="7.881450764557279"><ele>941.5999999999999</ele><time>2026-04-18T09:25:35Z</time></trkpt><trkpt lat="44.00024826647479" lon="7.881349109813461"><ele>940.1999999999999</ele><time>2026-04-18T09:25:36Z</time></trkpt><trkpt lat="44.000339182092006" lon="7.881253956658905"><ele>938.8</ele><time>2026-04-18T09:25:37Z</time></trkpt><trkpt lat="44.00042466309973" lon="7.8811526017377105"><ele>937.4</ele><time>2026-04-18T09:25:38Z</time></trkpt><trkpt lat="44.000486559403186" lon="7.881033921127187"><ele>936.0</ele><time>2026-04-18T09:25:39Z</time></trkpt><trkpt lat="44.000511649232116" lon="7.880891493910455"><ele>936.0</ele><time>2026-04-18T09:25:40Z</time></trkpt><trkpt lat="44.00053128657179" lon="7.880758151486114"><ele>935.9999999999999</ele><time>2026-04-18T09:25:41Z</time></trkpt><trkpt lat="44.00057416095868" lon="7.880654330399021"><ele>935.9999999999999</ele><time>2026-04-18T09:25:42Z</time></trkpt><trkpt lat="44.00065165744839" lon="7.880566617299907"><ele>936.0</ele><time>2026-04-18T09:25:43Z</time></trkpt><trkpt lat="44.00074725223146" lon="7.880484977311853"><ele>936.0</ele><time>2026-04-18T09:25:44Z</time></trkpt><trkpt lat="44.000822320829904" lon="7.8803833199195354"><ele>933.5999999999999</ele><time>2026-04-18T09:25:45Z</time></trkpt><trkpt lat="44.00086669022028" lon="7.880247413792915"><ele>931.1999999999999</ele><time>2026-04-18T09:25:46Z</time></trkpt><trkpt lat="44.0008829776777" lon="7.8800892170189085"><ele>928.8000000000001</ele><time>2026-04-18T09:25:47Z</time></trkpt><trkpt lat="44.00088134768903" lon="7.879952677269672"><ele>926.4000000000001</ele><time>2026-04-18T09:25:48Z</time></trkpt><trkpt lat="44.000849617975504" lon="7.879824795350589"><ele>924.0</ele><time>2026-04-18T09:25:49Z</time></trkpt><trkpt lat="44.000796782095044" lon="7.879686884915271"><ele>924.0</ele><time>2026-04-18T09:25:50Z</time></trkpt><trkpt lat="44.00074237143678" lon="7.87954386238269"><ele>924.0000000000001</ele><time>2026-04-18T09:25:51Z</time></trkpt><trkpt lat="44.00070763368689" lon="7.879389056479954"><ele>924.0000000000001</ele><time>2026-04-18T09:25:52Z</time></trkpt><trkpt lat="44.00070229485122" lon="7.879235169526999"><ele>924.0</ele><time>2026-04-18T09:25:53Z</time></trkpt><trkpt lat="44.000714955563275" lon="7.879096835408096"><ele>924.0</ele><time>2026-04-18T09:25:54Z</time></trkpt><trkpt lat="44.00074428212479" lon="7.878968111865157"><ele>923.4000000000001</ele><time>2026-04-18T09:25:55Z</time></trkpt><trkpt lat="44.000809583497336" lon="7.87885272777188"><ele>922.8000000000001</ele><time>2026-04-18T09:25:56Z</time></trkpt><trkpt lat="44.00087636246511" lon="7.87873137859386"><ele>922.1999999999999</ele><time>2026-04-18T09:25:57Z</time></trkpt><trkpt lat="44.000909039892626" lon="7.878600382467096"><ele>921.5999999999999</ele><time>2026-04-18T09:25:58Z</time></trkpt><trkpt lat="44.00090298826577" lon="7.878453422371669"><ele>921.0</ele><time>2026-04-18T09:25:59Z</time></trkpt><trkpt lat="44.00087568227992" lon="7.878291317095929"><ele>929.1999999999999</ele><time>2026-04-18T09:26:00Z</time></trkpt><trkpt lat="44.00086238531997" lon="7.878134163367056"><ele>937.3999999999999</ele><time>2026-04-18T09:26:01Z</time></trkpt><trkpt lat="44.000886291861256" lon="7.877985415559613"><ele>945.6</ele><time>2026-04-18T09:26:02Z</time></trkpt><trkpt lat="44.000926687184844" lon="7.877858258268352"><ele>953.8</ele><time>2026-04-18T09:26:03Z</time></trkpt><trkpt lat="44.000960153115884" lon="7.8777384490332665"><ele>962.0</ele><time>2026-04-18T09:26:04Z</time></trkpt><trkpt lat="44.00096579285561" lon="7.877604426501321"><ele>963.8</ele><time>2026-04-18T09:26:05Z</time></trkpt><trkpt lat="44.00092378978085" lon="7.877469678146834"><ele>965.6</ele><time>2026-04-18T09:26:06Z</time></trkpt><trkpt lat="44.00087673458045" lon="7.877324998937254"><ele>967.3999999999999</ele><time>2026-04-18T09:26:07Z</time></trkpt><trkpt lat="44.00082262786541" lon="7.877203096111375"><ele>969.1999999999999</ele><time>2026-04-18T09:26:08Z</time></trkpt><trkpt lat="44.000785125933106" lon="7.8770820372052786"><ele>971.0</ele><time>2026-04-18T09:26:09Z</time></trkpt><trkpt lat="44.00076488552373" lon="7.8769597883914875"><ele>972.5999999999999</ele><time>2026-04-18T09:26:10Z</time></trkpt><trkpt lat="44.00076599705566" lon="7.876830668170119"><ele>974.1999999999999</ele><time>2026-04-18T09:26:11Z</time></trkpt><trkpt lat="44.000790385204446" lon="7.876695289150873"><ele>975.8000000000001</ele><time>2026-04-18T09:26:12Z</time></trkpt><trkpt lat="44.000838590542614" lon="7.876560179832623"><ele>977.4000000000001</ele><time>2026-04-18T09:26:13Z</time></trkpt><trkpt lat="44.00089828250531" lon="7.876428512394979"><ele>979.0</ele><time>2026-04-18T09:26:14Z</time></trkpt><trkpt lat="44.00094498238038" lon="7.876299279239244"><ele>979.0</ele><time>2026-04-18T09:26:15Z</time></trkpt><trkpt lat="44.000950150502895" lon="7.876163597661018"><ele>979.0000000000001</ele><time>2026-04-18T09:26:16Z</time></trkpt><trkpt lat="44.00091679374634" lon="7.876028815297037"><ele>979.0000000000001</ele><time>2026-04-18T09:26:17Z</time></trkpt><trkpt lat="44.00084937764131" lon="7.875903865627367"><ele>979.0</ele><time>2026-04-18T09:26:18Z</time></trkpt><trkpt lat="44.000774154321604" lon="7.875781409998828"><ele>979.0</ele><time>2026-04-18T09:26:19Z</time></trkpt><trkpt lat="44.000709469069946" lon="7.875649367804182"><ele>975.4000000000001</ele><time>2026-04-18T09:26:20Z</time></trkpt><trkpt lat="44.00066252141033" lon="7.87552010563027"><ele>971.8000000000001</ele><time>2026-04-18T09:26:21Z</time></trkpt><trkpt lat="44.000623440358076" lon="7.875379219047803"><ele>968.1999999999999</ele><time>2026-04-18T09:26:22Z</time></trkpt><trkpt lat="44.0005808194956" lon="7.8752389916334335"><ele>964.5999999999999</ele><time>2026-04-18T09:26:23Z</time></trkpt><trkpt lat="44.00052328886637" lon="7.875125320561789"><ele>961.0</ele><time>2026-04-18T09:26:24Z</time></trkpt><trkpt lat="44.000463448350075" lon="7.875031185013691"><ele>961.0</ele><time>2026-04-18T09:26:25Z</time></trkpt><trkpt lat="44.00041480710918" lon="7.874943480038975"><ele>960.9999999999999</ele><time>2026-04-18T09:26:26Z</time></trkpt><trkpt lat="44.00038975210295" lon="7.874841772926374"><ele>960.9999999999999</ele><time>2026-04-18T09:26:27Z</time></trkpt><trkpt lat="44.000384997892986" lon="7.8746974908135"><ele>961.0</ele><time>2026-04-18T09:26:28Z</time></trkpt><trkpt lat="44.000397971520485" lon="7.8745406874940205"><ele>961.0</ele><time>2026-04-18T09:26:29Z</time></trkpt><trkpt lat="44.00042978633673" lon="7.874378662904703"><ele>963.0</ele><time>2026-04-18T09:26:30Z</time></trkpt><trkpt lat="44.0004537954759" lon="7.874208132845963"><ele>965.0</ele><time>2026-04-18T09:26:31Z</time></trkpt><trkpt lat="44.00046259052624" lon="7.874051945400165"><ele>967.0</ele><time>2026-04-18T09:26:32Z</time></trkpt><trkpt lat="44.00044986418973" lon="7.873893549637564"><ele>969.0</ele><time>2026-04-18T09:26:33Z</time></trkpt><trkpt lat="44.000406354585536" lon="7.873744677804403"><ele>969.0</ele><time>2026-04-18T09:26:34Z</time></trkpt><trkpt lat="44.00034171671242" lon="7.873611430236179"><ele>969.0</ele><time>2026-04-18T09:26:35Z</time></trkpt><trkpt lat="44.000262120765505" lon="7.873481065787176"><ele>969.0</ele><time>2026-04-18T09:26:36Z</time></trkpt><trkpt lat="44.00018143638443" lon="7.873352992366634"><ele>969.0</ele><time>2026-04-18T09:26:37Z</time></trkpt><trkpt lat="44.00010646556602" lon="7.873225319740215"><ele>971.8000000000001</ele><time>2026-04-18T09:26:38Z</time></trkpt><trkpt lat="44.00003359415108" lon="7.873103295657749"><ele>974.6000000000001</ele><time>2026-04-18T09:26:39Z</time></trkpt><trkpt lat="43.999962880124585" lon="7.872984400501087"><ele>977.4</ele><time>2026-04-18T09:26:40Z</time></trkpt><trkpt lat="43.99989286402353" lon="7.872871698658418"><ele>980.2</ele><time>2026-04-18T09:26:41Z</time></trkpt><trkpt lat="43.99981586719056" lon="7.872775692571675"><ele>983.0</ele><time>2026-04-18T09:26:42Z</time></trkpt><trkpt lat="43.999744543084745" lon="7.872692165591208"><ele>983.0</ele><time>2026-04-18T09:26:43Z</time></trkpt><trkpt lat="43.999673665379056" lon="7.872613119044439"><ele>983.0</ele><time>2026-04-18T09:26:44Z</time></trkpt><trkpt lat="43.999600455099" lon="7.872542374622864"><ele>983.0</ele><time>2026-04-18T09:26:45Z</time></trkpt><trkpt lat="43.99951243954183" lon="7.872468538244112"><ele>983.0</ele><time>2026-04-18T09:26:46Z</time></trkpt><trkpt lat="43.999431954226196" lon="7.872406361668275"><ele>983.0</ele><time>2026-04-18T09:26:47Z</time></trkpt><trkpt lat="43.999341956563974" lon="7.8723423402110315"><ele>982.8</ele><time>2026-04-18T09:26:48Z</time></trkpt><trkpt lat="43.99925157093963" lon="7.8722830160749675"><ele>982.5999999999999</ele><time>2026-04-18T09:26:49Z</time></trkpt><trkpt lat="43.99916132977618" lon="7.872219148786796"><ele>982.4000000000001</ele><time>2026-04-18T09:26:50Z</time></trkpt><trkpt lat="43.99907033317928" lon="7.872162490193029"><ele>982.2</ele><time>2026-04-18T09:26:51Z</time></trkpt><trkpt lat="43.99897598964043" lon="7.872104505866636"><ele>982.0</ele><time>2026-04-18T09:26:52Z</time></trkpt><trkpt lat="43.99889048226667" lon="7.872035001631388"><ele>982.4000000000001</ele><time>2026-04-18T09:26:53Z</time></trkpt><trkpt lat="43.99880148440717" lon="7.871963276002297"><ele>982.8000000000001</ele><time>2026-04-18T09:26:54Z</time></trkpt><trkpt lat="43.998718064025304" lon="7.871890095424783"><ele>983.2</ele><time>2026-04-18T09:26:55Z</time></trkpt><trkpt lat="43.998634209938295" lon="7.871814747132977"><ele>983.6</ele><time>2026-04-18T09:26:56Z</time></trkpt><trkpt lat="43.998548481042164" lon="7.871736940681631"><ele>984.0</ele><time>2026-04-18T09:26:57Z</time></trkpt><trkpt lat="43.99846008604515" lon="7.87166772571105"><ele>984.0</ele><time>2026-04-18T09:26:58Z</time></trkpt><trkpt lat="43.998374481998425" lon="7.871599156189218"><ele>984.0000000000001</ele><time>2026-04-18T09:26:59Z</time></trkpt><trkpt lat="43.99827973681379" lon="7.871533594400239"><ele>984.0000000000001</ele><time>2026-04-18T09:27:00Z</time></trkpt><trkpt lat="43.998193605646264" lon="7.871429504546763"><ele>984.0</ele><time>2026-04-18T09:27:01Z</time></trkpt><trkpt lat="43.99810605835844" lon="7.8713513191395545"><ele>984.0</ele><time>2026-04-18T09:27:02Z</time></trkpt><trkpt lat="43.998016943662634" lon="7.8712831332231294"><ele>984.0</ele><time>2026-04-18T09:27:03Z</time></trkpt><trkpt lat="43.997930126937646" lon="7.871208209458088"><ele>984.0000000000001</ele><time>2026-04-18T09:27:04Z</time></trkpt><trkpt lat="43.997844873372216" lon="7.871132533324283"><ele>984.0000000000001</ele><time>2026-04-18T09:27:05Z</time></trkpt><trkpt lat="43.997746397156796" lon="7.871086820918741"><ele>984.0</ele><time>2026-04-18T09:27:06Z</time></trkpt><trkpt lat="43.99763899437513" lon="7.871076820742695"><ele>984.0</ele><time>2026-04-18T09:27:07Z</time></trkpt><trkpt lat="43.99752872710507" lon="7.871097238477339"><ele>983.5</ele><time>2026-04-18T09:27:08Z</time></trkpt><trkpt lat="43.997409059232275" lon="7.871131553807179"><ele>983.0</ele><time>2026-04-18T09:27:09Z</time></trkpt><trkpt lat="43.99728006859176" lon="7.871168102353612"><ele>982.5</ele><time>2026-04-18T09:27:10Z</time></trkpt><trkpt lat="43.99715302163034" lon="7.8712341413023985"><ele>982.0</ele><time>2026-04-18T09:27:11Z</time></trkpt><trkpt lat="43.99702626657026" lon="7.8712732428365015"><ele>982.0</ele><time>2026-04-18T09:27:12Z</time></trkpt><trkpt lat="43.99690065133186" lon="7.871320298289623"><ele>982.0</ele><time>2026-04-18T09:27:13Z</time></trkpt><trkpt lat="43.99678113548145" lon="7.871356799722708"><ele>982.0</ele><time>2026-04-18T09:27:14Z</time></trkpt><trkpt lat="43.99666472831708" lon="7.871391089154985"><ele>982.0</ele><time>2026-04-18T09:27:15Z</time></trkpt><trkpt lat="43.996556985754545" lon="7.871405246646361"><ele>984.25</ele><time>2026-04-18T09:27:16Z</time></trkpt><trkpt lat="43.99645505791875" lon="7.871389148957439"><ele>986.5</ele><time>2026-04-18T09:27:17Z</time></trkpt><trkpt lat="43.996346908341216" lon="7.8713530648531025"><ele>988.75</ele><time>2026-04-18T09:27:18Z</time></trkpt><trkpt lat="43.99624207986965" lon="7.871280635554911"><ele>991.0</ele><time>2026-04-18T09:27:19Z</time></trkpt><trkpt lat="43.99613454270907" lon="7.871188782347074"><ele>991.0</ele><time>2026-04-18T09:27:20Z</time></trkpt><trkpt lat="43.99602006585809" lon="7.871085699796191"><ele>991.0</ele><time>2026-04-18T09:27:21Z</time></trkpt><trkpt lat="43.99589635320557" lon="7.870974913034444"><ele>991.0</ele><time>2026-04-18T09:27:22Z</time></trkpt><trkpt lat="43.99577323248803" lon="7.870865399609557"><ele>991.0</ele><time>2026-04-18T09:27:23Z</time></trkpt><trkpt lat="43.99566133073986" lon="7.870757613142832"><ele>997.5</ele><time>2026-04-18T09:27:24Z</time></trkpt><trkpt lat="43.9955406977033" lon="7.870661990433762"><ele>1004.0</ele><time>2026-04-18T09:27:25Z</time></trkpt><trkpt lat="43.99542197063292" lon="7.87060406277924"><ele>1010.5</ele><time>2026-04-18T09:27:26Z</time></trkpt><trkpt lat="43.99529259792461" lon="7.87059645220658"><ele>1017.0</ele><time>2026-04-18T09:27:27Z</time></trkpt><trkpt lat="43.995157150698766" lon="7.870623045973415"><ele>1017.0</ele><time>2026-04-18T09:27:28Z</time></trkpt><trkpt lat="43.99503299454425" lon="7.870632452097963"><ele>1017.0</ele><time>2026-04-18T09:27:29Z</time></trkpt><trkpt lat="43.99491798980129" lon="7.870590991659438"><ele>1017.0</ele><time>2026-04-18T09:27:30Z</time></trkpt><trkpt lat="43.99480615465452" lon="7.870500984007193"><ele>1017.0</ele><time>2026-04-18T09:27:31Z</time></trkpt><trkpt lat="43.994681772741544" lon="7.870412542203608"><ele>1015.0</ele><time>2026-04-18T09:27:32Z</time></trkpt><trkpt lat="43.99454406002566" lon="7.870355302427587"><ele>1013.0</ele><time>2026-04-18T09:27:33Z</time></trkpt><trkpt lat="43.99441216715471" lon="7.8703392588392775"><ele>1011.0</ele><time>2026-04-18T09:27:34Z</time></trkpt><trkpt lat="43.994287492287405" lon="7.870299563866037"><ele>1009.0</ele><time>2026-04-18T09:27:35Z</time></trkpt><trkpt lat="43.9941805076427" lon="7.87019924028008"><ele>1015.25</ele><time>2026-04-18T09:27:36Z</time></trkpt><trkpt lat="43.99407754803366" lon="7.87007111812047"><ele>1021.5</ele><time>2026-04-18T09:27:37Z</time></trkpt><trkpt lat="43.99395764262283" lon="7.869942115873258"><ele>1027.75</ele><time>2026-04-18T09:27:38Z</time></trkpt><trkpt lat="43.99382067520395" lon="7.869828423199444"><ele>1034.0</ele><time>2026-04-18T09:27:39Z</time></trkpt><trkpt lat="43.99367416425864" lon="7.869720537660646"><ele>1034.0</ele><time>2026-04-18T09:27:40Z</time></trkpt><trkpt lat="43.99353501116017" lon="7.869642831077593"><ele>1034.0</ele><time>2026-04-18T09:27:41Z</time></trkpt><trkpt lat="43.99339463953231" lon="7.8696162197605535"><ele>1034.0</ele><time>2026-04-18T09:27:42Z</time></trkpt><trkpt lat="43.99325735892185" lon="7.869608326202498"><ele>1034.0</ele><time>2026-04-18T09:27:43Z</time></trkpt><trkpt lat="43.99313492622878" lon="7.869579898530705"><ele>1031.75</ele><time>2026-04-18T09:27:44Z</time></trkpt><trkpt lat="43.993020896428334" lon="7.8695942759283035"><ele>1029.5</ele><time>2026-04-18T09:27:45Z</time></trkpt><trkpt lat="43.99290696171501" lon="7.86966118658996"><ele>1027.25</ele><time>2026-04-18T09:27:46Z</time></trkpt><trkpt lat="43.99279505468721" lon="7.869738204469214"><ele>1025.0</ele><time>2026-04-18T09:27:47Z</time></trkpt><trkpt lat="43.99268533798589" lon="7.869791020588817"><ele>1025.0</ele><time>2026-04-18T09:27:48Z</time></trkpt><trkpt lat="43.9925681157512" lon="7.869807254462319"><ele>1025.0</ele><time>2026-04-18T09:27:49Z</time></trkpt><trkpt lat="43.99244169899282" lon="7.869766929325513"><ele>1025.0</ele><time>2026-04-18T09:27:50Z</time></trkpt><trkpt lat="43.99231585784816" lon="7.86969724285261"><ele>1025.0</ele><time>2026-04-18T09:27:51Z</time></trkpt><trkpt lat="43.99220616257307" lon="7.869590625264076"><ele>1026.75</ele><time>2026-04-18T09:27:52Z</time></trkpt><trkpt lat="43.992139466017946" lon="7.869454057118016"><ele>1028.5</ele><time>2026-04-18T09:27:53Z</time></trkpt><trkpt lat="43.992070133719636" lon="7.869309732564273"><ele>1030.25</ele><time>2026-04-18T09:27:54Z</time></trkpt><trkpt lat="43.99198836025734" lon="7.869200638432178"><ele>1032.0</ele><time>2026-04-18T09:27:55Z</time></trkpt><trkpt lat="43.99189502876173" lon="7.869136767412156"><ele>1036.5</ele><time>2026-04-18T09:27:56Z</time></trkpt><trkpt lat="43.99178697795325" lon="7.869103157227591"><ele>1041.0</ele><time>2026-04-18T09:27:57Z</time></trkpt><trkpt lat="43.99167581745342" lon="7.869057701059224"><ele>1045.5</ele><time>2026-04-18T09:27:58Z</time></trkpt><trkpt lat="43.99157579194984" lon="7.868976575763356"><ele>1050.0</ele><time>2026-04-18T09:27:59Z</time></trkpt><trkpt lat="43.99148082011672" lon="7.868867904656101"><ele>1050.0</ele><time>2026-04-18T09:28:00Z</time></trkpt><trkpt lat="43.9914066608323" lon="7.868759231454649"><ele>1050.0</ele><time>2026-04-18T09:28:01Z</time></trkpt><trkpt lat="43.99133496755253" lon="7.868668696488528"><ele>1050.0</ele><time>2026-04-18T09:28:02Z</time></trkpt><trkpt lat="43.991258702855" lon="7.868622170851683"><ele>1050.0</ele><time>2026-04-18T09:28:03Z</time></trkpt><trkpt lat="43.99117414702721" lon="7.868633208647113"><ele>1050.0</ele><time>2026-04-18T09:28:04Z</time></trkpt><trkpt lat="43.991086719214486" lon="7.868707485391166"><ele>1050.0</ele><time>2026-04-18T09:28:05Z</time></trkpt><trkpt lat="43.99099804465781" lon="7.868791671246475"><ele>1050.0</ele><time>2026-04-18T09:28:06Z</time></trkpt><trkpt lat="43.99090359085954" lon="7.868879463253772"><ele>1050.0</ele><time>2026-04-18T09:28:07Z</time></trkpt><trkpt lat="43.990805989583784" lon="7.868967207190965"><ele>1050.0</ele><time>2026-04-18T09:28:08Z</time></trkpt><trkpt lat="43.99072917422863" lon="7.869072335303185"><ele>1050.0</ele><time>2026-04-18T09:28:09Z</time></trkpt><trkpt lat="43.9906636671122" lon="7.869213898182807"><ele>1046.75</ele><time>2026-04-18T09:28:10Z</time></trkpt><trkpt lat="43.990611782858586" lon="7.869370026070134"><ele>1043.5</ele><time>2026-04-18T09:28:11Z</time></trkpt><trkpt lat="43.990558552898065" lon="7.869517531704629"><ele>1040.25</ele><time>2026-04-18T09:28:12Z</time></trkpt><trkpt lat="43.990491237806566" lon="7.869646072038106"><ele>1037.0</ele><time>2026-04-18T09:28:13Z</time></trkpt><trkpt lat="43.99042321154033" lon="7.869763874850443"><ele>1037.0</ele><time>2026-04-18T09:28:14Z</time></trkpt><trkpt lat="43.990339913665274" lon="7.869855919116472"><ele>1037.0</ele><time>2026-04-18T09:28:15Z</time></trkpt><trkpt lat="43.99023180748858" lon="7.869941331708779"><ele>1037.0</ele><time>2026-04-18T09:28:16Z</time></trkpt><trkpt lat="43.990114287609984" lon="7.870020752845877"><ele>1037.0</ele><time>2026-04-18T09:28:17Z</time></trkpt><trkpt lat="43.99000017787341" lon="7.870110196801873"><ele>1040.6</ele><time>2026-04-18T09:28:18Z</time></trkpt><trkpt lat="43.98989724340643" lon="7.8701873436171335"><ele>1044.2</ele><time>2026-04-18T09:28:19Z</time></trkpt><trkpt lat="43.98980616800849" lon="7.870250103770528"><ele>1047.8</ele><time>2026-04-18T09:28:20Z</time></trkpt><trkpt lat="43.98971117153635" lon="7.870277883409503"><ele>1051.4</ele><time>2026-04-18T09:28:21Z</time></trkpt><trkpt lat="43.989596621886726" lon="7.870225463814147"><ele>1055.0</ele><time>2026-04-18T09:28:22Z</time></trkpt><trkpt lat="43.989484015220334" lon="7.870223853969447"><ele>1055.0</ele><time>2026-04-18T09:28:23Z</time></trkpt><trkpt lat="43.98935721233701" lon="7.870262143028519"><ele>1055.0</ele><time>2026-04-18T09:28:24Z</time></trkpt><trkpt lat="43.98924008873345" lon="7.870321244751094"><ele>1055.0</ele><time>2026-04-18T09:28:25Z</time></trkpt><trkpt lat="43.989131069442514" lon="7.870326197301196"><ele>1055.0</ele><time>2026-04-18T09:28:26Z</time></trkpt><trkpt lat="43.9890503382622" lon="7.870279712496809"><ele>1056.4</ele><time>2026-04-18T09:28:27Z</time></trkpt><trkpt lat="43.98899357209978" lon="7.870184152995717"><ele>1057.8</ele><time>2026-04-18T09:28:28Z</time></trkpt><trkpt lat="43.98895361146447" lon="7.870055965470231"><ele>1059.2</ele><time>2026-04-18T09:28:29Z</time></trkpt><trkpt lat="43.98892227787718" lon="7.869903464407398"><ele>1060.6</ele><time>2026-04-18T09:28:30Z</time></trkpt><trkpt lat="43.98887253511788" lon="7.86974866267578"><ele>1062.0</ele><time>2026-04-18T09:28:31Z</time></trkpt><trkpt lat="43.98880839193563" lon="7.8695829445339385"><ele>1068.25</ele><time>2026-04-18T09:28:32Z</time></trkpt><trkpt lat="43.98874230154688" lon="7.869414778062172"><ele>1074.5</ele><time>2026-04-18T09:28:33Z</time></trkpt><trkpt lat="43.988681434981004" lon="7.869256612715614"><ele>1080.75</ele><time>2026-04-18T09:28:34Z</time></trkpt><trkpt lat="43.98862095813033" lon="7.8691146276886625"><ele>1087.0</ele><time>2026-04-18T09:28:35Z</time></trkpt><trkpt lat="43.988555099584545" lon="7.868987659120959"><ele>1089.0</ele><time>2026-04-18T09:28:36Z</time></trkpt><trkpt lat="43.988484376461436" lon="7.868904568222802"><ele>1091.0</ele><time>2026-04-18T09:28:37Z</time></trkpt><trkpt lat="43.98840858157343" lon="7.868856913242869"><ele>1093.0</ele><time>2026-04-18T09:28:38Z</time></trkpt><trkpt lat="43.98832775200764" lon="7.86887261481675"><ele>1095.0</ele><time>2026-04-18T09:28:39Z</time></trkpt><trkpt lat="43.98824710563412" lon="7.868941207602742"><ele>1097.0</ele><time>2026-04-18T09:28:40Z</time></trkpt><trkpt lat="43.98815167751843" lon="7.86901251071434"><ele>1097.0</ele><time>2026-04-18T09:28:41Z</time></trkpt><trkpt lat="43.9880614362349" lon="7.869122854958858"><ele>1097.0</ele><time>2026-04-18T09:28:42Z</time></trkpt><trkpt lat="43.9879592765303" lon="7.869207486205627"><ele>1097.0</ele><time>2026-04-18T09:28:43Z</time></trkpt><trkpt lat="43.98786750500177" lon="7.869252109616121"><ele>1097.0</ele><time>2026-04-18T09:28:44Z</time></trkpt><trkpt lat="43.98777183283428" lon="7.869260838690205"><ele>1097.0</ele><time>2026-04-18T09:28:45Z</time></trkpt><trkpt lat="43.98767705802272" lon="7.869218524295529"><ele>1097.0</ele><time>2026-04-18T09:28:46Z</time></trkpt><trkpt lat="43.98758470946828" lon="7.869139381622768"><ele>1097.0</ele><time>2026-04-18T09:28:47Z</time></trkpt><trkpt lat="43.987492146458045" lon="7.86902808085919"><ele>1097.0</ele><time>2026-04-18T09:28:48Z</time></trkpt><trkpt lat="43.987401635697196" lon="7.868884265518534"><ele>1097.0</ele><time>2026-04-18T09:28:49Z</time></trkpt><trkpt lat="43.98733438222949" lon="7.868739052210209"><ele>1097.4</ele><time>2026-04-18T09:28:50Z</time></trkpt><trkpt lat="43.98727095059557" lon="7.868601773380209"><ele>1097.8000000000002</ele><time>2026-04-18T09:28:51Z</time></trkpt><trkpt lat="43.98720222682424" lon="7.868472943007221"><ele>1098.2</ele><time>2026-04-18T09:28:52Z</time></trkpt><trkpt lat="43.98713107860138" lon="7.8683762459444955"><ele>1098.6000000000001</ele><time>2026-04-18T09:28:53Z</time></trkpt><trkpt lat="43.98705109768184" lon="7.868322588015419"><ele>1099.0</ele><time>2026-04-18T09:28:54Z</time></trkpt><trkpt lat="43.98695864263767" lon="7.868305051240447"><ele>1099.2</ele><time>2026-04-18T09:28:55Z</time></trkpt><trkpt lat="43.986862641400776" lon="7.86833045966658"><ele>1099.4</ele><time>2026-04-18T09:28:56Z</time></trkpt><trkpt lat="43.98676677484099" lon="7.868408112238842"><ele>1099.6</ele><time>2026-04-18T09:28:57Z</time></trkpt><trkpt lat="43.98666919713583" lon="7.868500864646878"><ele>1099.8</ele><time>2026-04-18T09:28:58Z</time></trkpt><trkpt lat="43.98656503386523" lon="7.868585974336237"><ele>1100.0</ele><time>2026-04-18T09:28:59Z</time></trkpt><trkpt lat="43.98646668053103" lon="7.868649941949143"><ele>1100.0</ele><time>2026-04-18T09:29:00Z</time></trkpt><trkpt lat="43.98637118984818" lon="7.8687034915589305"><ele>1100.0</ele><time>2026-04-18T09:29:01Z</time></trkpt><trkpt lat="43.98631572137497" lon="7.868826659549914"><ele>1100.0</ele><time>2026-04-18T09:29:02Z</time></trkpt><trkpt lat="43.98626127063976" lon="7.8689636907500615"><ele>1100.0</ele><time>2026-04-18T09:29:03Z</time></trkpt><trkpt lat="43.98620387250833" lon="7.869097379972912"><ele>1100.0</ele><time>2026-04-18T09:29:04Z</time></trkpt><trkpt lat="43.986139891501814" lon="7.869205403939742"><ele>1101.0</ele><time>2026-04-18T09:29:05Z</time></trkpt><trkpt lat="43.98604824225166" lon="7.869304095977347"><ele>1102.0</ele><time>2026-04-18T09:29:06Z</time></trkpt><trkpt lat="43.98593472104348" lon="7.8693834076933395"><ele>1103.0</ele><time>2026-04-18T09:29:07Z</time></trkpt><trkpt lat="43.98581658189984" lon="7.869468378750691"><ele>1104.0</ele><time>2026-04-18T09:29:08Z</time></trkpt><trkpt lat="43.985714961823994" lon="7.869576071674622"><ele>1104.0</ele><time>2026-04-18T09:29:09Z</time></trkpt><trkpt lat="43.98562584106543" lon="7.869698718421618"><ele>1104.0</ele><time>2026-04-18T09:29:10Z</time></trkpt><trkpt lat="43.98553806427175" lon="7.86978539495506"><ele>1104.0</ele><time>2026-04-18T09:29:11Z</time></trkpt><trkpt lat="43.98544075649304" lon="7.869823264516415"><ele>1104.0</ele><time>2026-04-18T09:29:12Z</time></trkpt><trkpt lat="43.985328754206854" lon="7.869821790974192"><ele>1104.0</ele><time>2026-04-18T09:29:13Z</time></trkpt><trkpt lat="43.98521391635259" lon="7.869800286632736"><ele>1104.0</ele><time>2026-04-18T09:29:14Z</time></trkpt><trkpt lat="43.98509031264267" lon="7.869799515528566"><ele>1104.0</ele><time>2026-04-18T09:29:15Z</time></trkpt><trkpt lat="43.98497102717124" lon="7.869846209503834"><ele>1104.0</ele><time>2026-04-18T09:29:16Z</time></trkpt><trkpt lat="43.98485339696034" lon="7.869945397986759"><ele>1104.0</ele><time>2026-04-18T09:29:17Z</time></trkpt><trkpt lat="43.98474254480897" lon="7.870058169003053"><ele>1101.8</ele><time>2026-04-18T09:29:18Z</time></trkpt><trkpt lat="43.9846362150385" lon="7.870167794636416"><ele>1099.6000000000001</ele><time>2026-04-18T09:29:19Z</time></trkpt><trkpt lat="43.984543595102046" lon="7.87025037635845"><ele>1097.4</ele><time>2026-04-18T09:29:20Z</time></trkpt><trkpt lat="43.984467625859814" lon="7.870289639589934"><ele>1095.2</ele><time>2026-04-18T09:29:21Z</time></trkpt><trkpt lat="43.98439268813718" lon="7.870285857894441"><ele>1093.0</ele><time>2026-04-18T09:29:22Z</time></trkpt><trkpt lat="43.98432581441477" lon="7.870214405052689"><ele>1102.5</ele><time>2026-04-18T09:29:23Z</time></trkpt><trkpt lat="43.98427998983981" lon="7.870078958036915"><ele>1112.0</ele><time>2026-04-18T09:29:24Z</time></trkpt><trkpt lat="43.98419776370012" lon="7.869964240383185"><ele>1121.5</ele><time>2026-04-18T09:29:25Z</time></trkpt><trkpt lat="43.984115566394976" lon="7.869822005231186"><ele>1131.0</ele><time>2026-04-18T09:29:26Z</time></trkpt><trkpt lat="43.984017858846656" lon="7.869699463419529"><ele>1133.0</ele><time>2026-04-18T09:29:27Z</time></trkpt><trkpt lat="43.983904621775416" lon="7.869599209643428"><ele>1135.0</ele><time>2026-04-18T09:29:28Z</time></trkpt><trkpt lat="43.983762060664816" lon="7.869542258875899"><ele>1137.0</ele><time>2026-04-18T09:29:29Z</time></trkpt><trkpt lat="43.98362941482427" lon="7.869475864634142"><ele>1139.0</ele><time>2026-04-18T09:29:30Z</time></trkpt><trkpt lat="43.98349258436149" lon="7.869437128651139"><ele>1139.0</ele><time>2026-04-18T09:29:31Z</time></trkpt><trkpt lat="43.98335518942898" lon="7.869417105656008"><ele>1139.0</ele><time>2026-04-18T09:29:32Z</time></trkpt><trkpt lat="43.98321959316851" lon="7.869436405521254"><ele>1139.0</ele><time>2026-04-18T09:29:33Z</time></trkpt><trkpt lat="43.98308870238413" lon="7.869503791458203"><ele>1139.0</ele><time>2026-04-18T09:29:34Z</time></trkpt><trkpt lat="43.98296188437828" lon="7.869592075270805"><ele>1137.8</ele><time>2026-04-18T09:29:35Z</time></trkpt><trkpt lat="43.982830732499885" lon="7.869634540541317"><ele>1136.6000000000001</ele><time>2026-04-18T09:29:36Z</time></trkpt><trkpt lat="43.982726654969476" lon="7.869684065419935"><ele>1135.4</ele><time>2026-04-18T09:29:37Z</time></trkpt><trkpt lat="43.98264736326228" lon="7.869740594786358"><ele>1134.2</ele><time>2026-04-18T09:29:38Z</time></trkpt><trkpt lat="43.98257549023251" lon="7.869767285368397"><ele>1133.0</ele><time>2026-04-18T09:29:39Z</time></trkpt><trkpt lat="43.98251242080289" lon="7.869779593158669"><ele>1136.0</ele><time>2026-04-18T09:29:40Z</time></trkpt><trkpt lat="43.98241123569279" lon="7.86971950895827"><ele>1139.0</ele><time>2026-04-18T09:29:42Z</time></trkpt><trkpt lat="43.98237705293267" lon="7.869627835496197"><ele>1142.0</ele><time>2026-04-18T09:29:43Z</time></trkpt><trkpt lat="43.98234345456806" lon="7.8695052277686335"><ele>1145.0</ele><time>2026-04-18T09:29:44Z</time></trkpt><trkpt lat="43.982320549265644" lon="7.869393632850979"><ele>1148.0</ele><time>2026-04-18T09:29:45Z</time></trkpt><trkpt lat="43.982302464514014" lon="7.869288439849727"><ele>1151.0</ele><time>2026-04-18T09:29:46Z</time></trkpt><trkpt lat="43.98229418201084" lon="7.869187995833596"><ele>1153.0</ele><time>2026-04-18T09:29:47Z</time></trkpt><trkpt lat="43.982288703759615" lon="7.8690862196416695"><ele>1155.0</ele><time>2026-04-18T09:29:48Z</time></trkpt><trkpt lat="43.98229984272617" lon="7.868984119363259"><ele>1157.0</ele><time>2026-04-18T09:29:49Z</time></trkpt><trkpt lat="43.98231848310386" lon="7.868883805417634"><ele>1159.0</ele><time>2026-04-18T09:29:50Z</time></trkpt><trkpt lat="43.98233836314894" lon="7.868772767792321"><ele>1161.0</ele><time>2026-04-18T09:29:51Z</time></trkpt><trkpt lat="43.98234919708219" lon="7.8686622029050195"><ele>1163.0</ele><time>2026-04-18T09:29:52Z</time></trkpt><trkpt lat="43.98233361497002" lon="7.8685448203140504"><ele>1163.6666666666667</ele><time>2026-04-18T09:29:53Z</time></trkpt><trkpt lat="43.98229754679625" lon="7.868436547747842"><ele>1164.3333333333335</ele><time>2026-04-18T09:29:54Z</time></trkpt><trkpt lat="43.982232803226175" lon="7.868354025613794"><ele>1165.0</ele><time>2026-04-18T09:29:55Z</time></trkpt><trkpt lat="43.98216112557019" lon="7.868280460203731"><ele>1165.6666666666667</ele><time>2026-04-18T09:29:56Z</time></trkpt><trkpt lat="43.9821007828452" lon="7.868205137354251"><ele>1166.3333333333333</ele><time>2026-04-18T09:29:57Z</time></trkpt><trkpt lat="43.98204959000231" lon="7.868130858125014"><ele>1167.0</ele><time>2026-04-18T09:29:58Z</time></trkpt><trkpt lat="43.98200691625319" lon="7.868065939950033"><ele>1167.0</ele><time>2026-04-18T09:29:59Z</time></trkpt><trkpt lat="43.981918671892196" lon="7.867956763519017"><ele>1167.0</ele><time>2026-04-18T09:30:01Z</time></trkpt><trkpt lat="43.98183019070685" lon="7.867870941962755"><ele>1167.0</ele><time>2026-04-18T09:30:03Z</time></trkpt><trkpt lat="43.98175539372098" lon="7.867833615130875"><ele>1167.0</ele><time>2026-04-18T09:30:05Z</time></trkpt><trkpt lat="43.981685599085786" lon="7.867814239600358"><ele>1167.0</ele><time>2026-04-18T09:30:08Z</time></trkpt><trkpt lat="43.981594925098335" lon="7.867763562614318"><ele>1165.8333333333333</ele><time>2026-04-18T09:30:33Z</time></trkpt><trkpt lat="43.981472663787585" lon="7.867703510988152"><ele>1164.6666666666667</ele><time>2026-04-18T09:30:35Z</time></trkpt><trkpt lat="43.981403089680356" lon="7.867656622440516"><ele>1163.5</ele><time>2026-04-18T09:30:36Z</time></trkpt><trkpt lat="43.98133434277798" lon="7.867618246863747"><ele>1162.3333333333335</ele><time>2026-04-18T09:30:37Z</time></trkpt><trkpt lat="43.98126402591207" lon="7.8675725225572855"><ele>1161.1666666666667</ele><time>2026-04-18T09:30:38Z</time></trkpt><trkpt lat="43.98118349190462" lon="7.867527215727509"><ele>1160.0</ele><time>2026-04-18T09:30:39Z</time></trkpt><trkpt lat="43.98110366623578" lon="7.867483378658561"><ele>1160.0</ele><time>2026-04-18T09:30:40Z</time></trkpt><trkpt lat="43.98104120735817" lon="7.867420864948881"><ele>1160.0</ele><time>2026-04-18T09:30:41Z</time></trkpt><trkpt lat="43.98099196843087" lon="7.8673425224185305"><ele>1160.0</ele><time>2026-04-18T09:30:42Z</time></trkpt><trkpt lat="43.98095104396012" lon="7.867233587626835"><ele>1160.0</ele><time>2026-04-18T09:30:43Z</time></trkpt><trkpt lat="43.98092113209966" lon="7.867099678818337"><ele>1160.0</ele><time>2026-04-18T09:30:44Z</time></trkpt><trkpt lat="43.980905306470866" lon="7.8669618687638945"><ele>1160.0</ele><time>2026-04-18T09:30:45Z</time></trkpt><trkpt lat="43.980901224806615" lon="7.8668251221182555"><ele>1163.6</ele><time>2026-04-18T09:30:46Z</time></trkpt><trkpt lat="43.98091172810803" lon="7.866687323243485"><ele>1167.2</ele><time>2026-04-18T09:30:47Z</time></trkpt><trkpt lat="43.98094084339435" lon="7.866557247379505"><ele>1170.8</ele><time>2026-04-18T09:30:48Z</time></trkpt><trkpt lat="43.98098040366561" lon="7.8664330686920305"><ele>1174.4</ele><time>2026-04-18T09:30:49Z</time></trkpt><trkpt lat="43.981013457436816" lon="7.866306143222364"><ele>1178.0</ele><time>2026-04-18T09:30:50Z</time></trkpt><trkpt lat="43.98102605612375" lon="7.866166623827043"><ele>1178.0</ele><time>2026-04-18T09:30:51Z</time></trkpt><trkpt lat="43.98102154078979" lon="7.8660110477379535"><ele>1178.0</ele><time>2026-04-18T09:30:52Z</time></trkpt><trkpt lat="43.981028430250014" lon="7.865850495082192"><ele>1178.0</ele><time>2026-04-18T09:30:53Z</time></trkpt><trkpt lat="43.98101379950671" lon="7.865688686696827"><ele>1178.0</ele><time>2026-04-18T09:30:54Z</time></trkpt><trkpt lat="43.98099341355121" lon="7.865526753467636"><ele>1179.4</ele><time>2026-04-18T09:30:55Z</time></trkpt><trkpt lat="43.9809703599318" lon="7.86538182335625"><ele>1180.8</ele><time>2026-04-18T09:30:56Z</time></trkpt><trkpt lat="43.980949920485045" lon="7.865247974575471"><ele>1182.2</ele><time>2026-04-18T09:30:57Z</time></trkpt><trkpt lat="43.98093149210519" lon="7.865130335116742"><ele>1183.6</ele><time>2026-04-18T09:30:58Z</time></trkpt><trkpt lat="43.98095517576038" lon="7.865011968109741"><ele>1185.0</ele><time>2026-04-18T09:30:59Z</time></trkpt><trkpt lat="43.98100014714946" lon="7.864901163340075"><ele>1181.6</ele><time>2026-04-18T09:31:00Z</time></trkpt><trkpt lat="43.981092276040386" lon="7.864827078318989"><ele>1178.2</ele><time>2026-04-18T09:31:01Z</time></trkpt><trkpt lat="43.981165555476785" lon="7.86471542733818"><ele>1174.8</ele><time>2026-04-18T09:31:02Z</time></trkpt><trkpt lat="43.9812368115811" lon="7.864612666354697"><ele>1171.4</ele><time>2026-04-18T09:31:03Z</time></trkpt><trkpt lat="43.98127991464675" lon="7.864482200501697"><ele>1168.0</ele><time>2026-04-18T09:31:04Z</time></trkpt><trkpt lat="43.98129373326173" lon="7.864332421222876"><ele>1163.0</ele><time>2026-04-18T09:31:05Z</time></trkpt><trkpt lat="43.98128786633825" lon="7.864177487465096"><ele>1158.0</ele><time>2026-04-18T09:31:06Z</time></trkpt><trkpt lat="43.98128671850326" lon="7.864031420273482"><ele>1153.0</ele><time>2026-04-18T09:31:07Z</time></trkpt><trkpt lat="43.981308499342305" lon="7.863898536558648"><ele>1148.0</ele><time>2026-04-18T09:31:08Z</time></trkpt><trkpt lat="43.98135373172758" lon="7.863768299200216"><ele>1143.0</ele><time>2026-04-18T09:31:09Z</time></trkpt><trkpt lat="43.98141095388856" lon="7.863636391655043"><ele>1143.0</ele><time>2026-04-18T09:31:10Z</time></trkpt><trkpt lat="43.981475294146534" lon="7.863495561765288"><ele>1143.0</ele><time>2026-04-18T09:31:11Z</time></trkpt><trkpt lat="43.981532243110706" lon="7.863351115160647"><ele>1143.0</ele><time>2026-04-18T09:31:12Z</time></trkpt><trkpt lat="43.981598012767165" lon="7.863210431229444"><ele>1143.0</ele><time>2026-04-18T09:31:13Z</time></trkpt><trkpt lat="43.981673163733774" lon="7.86308064627394"><ele>1146.0</ele><time>2026-04-18T09:31:14Z</time></trkpt><trkpt lat="43.981760373198874" lon="7.862968430295311"><ele>1149.0</ele><time>2026-04-18T09:31:15Z</time></trkpt><trkpt lat="43.98184062839077" lon="7.86287337331933"><ele>1152.0</ele><time>2026-04-18T09:31:16Z</time></trkpt><trkpt lat="43.9819038977463" lon="7.862778245283833"><ele>1155.0</ele><time>2026-04-18T09:31:17Z</time></trkpt><trkpt lat="43.98193081480783" lon="7.86266267765941"><ele>1158.0</ele><time>2026-04-18T09:31:18Z</time></trkpt><trkpt lat="43.98192236466104" lon="7.862516495057607"><ele>1158.0</ele><time>2026-04-18T09:31:19Z</time></trkpt><trkpt lat="43.98189398881923" lon="7.862343985877294"><ele>1158.0</ele><time>2026-04-18T09:31:20Z</time></trkpt><trkpt lat="43.981864371114284" lon="7.862154386229854"><ele>1158.0</ele><time>2026-04-18T09:31:21Z</time></trkpt><trkpt lat="43.98184095915843" lon="7.861952688130338"><ele>1158.0</ele><time>2026-04-18T09:31:22Z</time></trkpt><trkpt lat="43.98181706598326" lon="7.861740602911712"><ele>1157.3333333333333</ele><time>2026-04-18T09:31:23Z</time></trkpt><trkpt lat="43.98179456107926" lon="7.861532329879789"><ele>1156.6666666666665</ele><time>2026-04-18T09:31:24Z</time></trkpt><trkpt lat="43.9817701399924" lon="7.861323733237193"><ele>1156.0</ele><time>2026-04-18T09:31:25Z</time></trkpt><trkpt lat="43.981742040214456" lon="7.861117470700372"><ele>1152.6666666666665</ele><time>2026-04-18T09:31:26Z</time></trkpt><trkpt lat="43.981713337028545" lon="7.8609114582212705"><ele>1149.3333333333333</ele><time>2026-04-18T09:31:27Z</time></trkpt><trkpt lat="43.981688900718744" lon="7.860703376839024"><ele>1146.0</ele><time>2026-04-18T09:31:28Z</time></trkpt><trkpt lat="43.98166793008413" lon="7.86049900990448"><ele>1135.5</ele><time>2026-04-18T09:31:29Z</time></trkpt><trkpt lat="43.98164008832614" lon="7.860297145308157"><ele>1125.0</ele><time>2026-04-18T09:31:30Z</time></trkpt><trkpt lat="43.981611533793725" lon="7.860098111314254"><ele>1114.5</ele><time>2026-04-18T09:31:31Z</time></trkpt><trkpt lat="43.98157093809837" lon="7.859908135786909"><ele>1104.0</ele><time>2026-04-18T09:31:32Z</time></trkpt><trkpt lat="43.981508025031566" lon="7.859733310967584"><ele>1104.0</ele><time>2026-04-18T09:31:33Z</time></trkpt><trkpt lat="43.98142876198122" lon="7.859571742833804"><ele>1104.0</ele><time>2026-04-18T09:31:34Z</time></trkpt><trkpt lat="43.98134531594444" lon="7.859409732646377"><ele>1104.0</ele><time>2026-04-18T09:31:35Z</time></trkpt><trkpt lat="43.981265687904184" lon="7.859250882871217"><ele>1104.0</ele><time>2026-04-18T09:31:36Z</time></trkpt><trkpt lat="43.98118572826983" lon="7.85909203122102"><ele>1106.75</ele><time>2026-04-18T09:31:37Z</time></trkpt><trkpt lat="43.98110850209031" lon="7.8589303500393255"><ele>1109.5</ele><time>2026-04-18T09:31:38Z</time></trkpt><trkpt lat="43.981028605089236" lon="7.858811511948288"><ele>1112.25</ele><time>2026-04-18T09:31:39Z</time></trkpt><trkpt lat="43.980928776434475" lon="7.8587284489803375"><ele>1115.0</ele><time>2026-04-18T09:31:40Z</time></trkpt><trkpt lat="43.980798814575984" lon="7.858696132780717"><ele>1110.6</ele><time>2026-04-18T09:31:41Z</time></trkpt><trkpt lat="43.98067346901329" lon="7.858674702107345"><ele>1106.2</ele><time>2026-04-18T09:31:42Z</time></trkpt><trkpt lat="43.98055491009037" lon="7.858659799970563"><ele>1101.8</ele><time>2026-04-18T09:31:43Z</time></trkpt><trkpt lat="43.980453122174275" lon="7.858669902035057"><ele>1097.4</ele><time>2026-04-18T09:31:44Z</time></trkpt><trkpt lat="43.980361055173276" lon="7.858713001706076"><ele>1093.0</ele><time>2026-04-18T09:31:45Z</time></trkpt><trkpt lat="43.9802855377027" lon="7.858795207076553"><ele>1093.0</ele><time>2026-04-18T09:31:46Z</time></trkpt><trkpt lat="43.980221655587236" lon="7.858905262712422"><ele>1093.0</ele><time>2026-04-18T09:31:47Z</time></trkpt><trkpt lat="43.980147480031135" lon="7.859010508362428"><ele>1093.0</ele><time>2026-04-18T09:31:48Z</time></trkpt><trkpt lat="43.9800824476009" lon="7.859131332392281"><ele>1093.0</ele><time>2026-04-18T09:31:49Z</time></trkpt><trkpt lat="43.98001945964263" lon="7.859246988094815"><ele>1093.0</ele><time>2026-04-18T09:31:50Z</time></trkpt><trkpt lat="43.97995726015303" lon="7.859367784995347"><ele>1089.2</ele><time>2026-04-18T09:31:51Z</time></trkpt><trkpt lat="43.97988043164766" lon="7.859452771526194"><ele>1085.4</ele><time>2026-04-18T09:31:52Z</time></trkpt><trkpt lat="43.979788435894505" lon="7.859509018710112"><ele>1081.6000000000001</ele><time>2026-04-18T09:31:53Z</time></trkpt><trkpt lat="43.97968990623617" lon="7.859518187146832"><ele>1077.8</ele><time>2026-04-18T09:31:54Z</time></trkpt><trkpt lat="43.979579452336644" lon="7.859518151851345"><ele>1074.0</ele><time>2026-04-18T09:31:55Z</time></trkpt><trkpt lat="43.97946263482461" lon="7.859527793836962"><ele>1074.0</ele><time>2026-04-18T09:31:56Z</time></trkpt><trkpt lat="43.979341973529195" lon="7.859545336490972"><ele>1074.0</ele><time>2026-04-18T09:31:57Z</time></trkpt><trkpt lat="43.979212365631035" lon="7.859551344856153"><ele>1074.0</ele><time>2026-04-18T09:31:58Z</time></trkpt><trkpt lat="43.97907556675686" lon="7.859558375444608"><ele>1074.0</ele><time>2026-04-18T09:31:59Z</time></trkpt><trkpt lat="43.97894048758791" lon="7.859566181159962"><ele>1072.25</ele><time>2026-04-18T09:32:00Z</time></trkpt><trkpt lat="43.97881212267091" lon="7.859577663312005"><ele>1070.5</ele><time>2026-04-18T09:32:01Z</time></trkpt><trkpt lat="43.97868125572152" lon="7.859595896880699"><ele>1068.75</ele><time>2026-04-18T09:32:02Z</time></trkpt><trkpt lat="43.978551473978676" lon="7.85960819819527"><ele>1067.0</ele><time>2026-04-18T09:32:03Z</time></trkpt><trkpt lat="43.97842343509649" lon="7.859619054621204"><ele>1064.25</ele><time>2026-04-18T09:32:04Z</time></trkpt><trkpt lat="43.97829612345922" lon="7.85962625290031"><ele>1061.5</ele><time>2026-04-18T09:32:05Z</time></trkpt><trkpt lat="43.978168143366354" lon="7.859625332843195"><ele>1058.75</ele><time>2026-04-18T09:32:06Z</time></trkpt><trkpt lat="43.97804155778064" lon="7.859615894397458"><ele>1056.0</ele><time>2026-04-18T09:32:07Z</time></trkpt><trkpt lat="43.977913801054356" lon="7.859606967490324"><ele>1056.0</ele><time>2026-04-18T09:32:08Z</time></trkpt><trkpt lat="43.977789529518816" lon="7.859593226120628"><ele>1056.0</ele><time>2026-04-18T09:32:09Z</time></trkpt><trkpt lat="43.97766789512008" lon="7.859578479976054"><ele>1056.0</ele><time>2026-04-18T09:32:10Z</time></trkpt><trkpt lat="43.97755599275843" lon="7.859567137477275"><ele>1056.0</ele><time>2026-04-18T09:32:11Z</time></trkpt><trkpt lat="43.97745830371223" lon="7.859562088792443"><ele>1055.25</ele><time>2026-04-18T09:32:12Z</time></trkpt><trkpt lat="43.97736295047626" lon="7.859581246897853"><ele>1054.5</ele><time>2026-04-18T09:32:13Z</time></trkpt><trkpt lat="43.97726944109801" lon="7.8596639249465845"><ele>1053.75</ele><time>2026-04-18T09:32:14Z</time></trkpt><trkpt lat="43.977165112029965" lon="7.8597720759215886"><ele>1053.0</ele><time>2026-04-18T09:32:15Z</time></trkpt><trkpt lat="43.97707306737389" lon="7.859912462270337"><ele>1053.0</ele><time>2026-04-18T09:32:16Z</time></trkpt><trkpt lat="43.97698746815186" lon="7.860048176036635"><ele>1053.0</ele><time>2026-04-18T09:32:17Z</time></trkpt><trkpt lat="43.97692149513094" lon="7.8601866385192425"><ele>1053.0</ele><time>2026-04-18T09:32:18Z</time></trkpt><trkpt lat="43.97683843155495" lon="7.860294686888259"><ele>1053.0</ele><time>2026-04-18T09:32:19Z</time></trkpt><trkpt lat="43.97674774538527" lon="7.8603916300775"><ele>1051.0</ele><time>2026-04-18T09:32:20Z</time></trkpt><trkpt lat="43.976653263088934" lon="7.860452934288779"><ele>1049.0</ele><time>2026-04-18T09:32:21Z</time></trkpt><trkpt lat="43.97657093660499" lon="7.860485304897757"><ele>1047.0</ele><time>2026-04-18T09:32:22Z</time></trkpt><trkpt lat="43.97651053542015" lon="7.860526248157377"><ele>1045.0</ele><time>2026-04-18T09:32:23Z</time></trkpt><trkpt lat="43.97645071511392" lon="7.860632169435239"><ele>1043.0</ele><time>2026-04-18T09:32:25Z</time></trkpt><trkpt lat="43.9764662896143" lon="7.860724317393005"><ele>1041.0</ele><time>2026-04-18T09:32:26Z</time></trkpt><trkpt lat="43.976519903841115" lon="7.86080289960548"><ele>1041.0</ele><time>2026-04-18T09:32:27Z</time></trkpt><trkpt lat="43.97659597643546" lon="7.860837923030357"><ele>1041.0</ele><time>2026-04-18T09:32:28Z</time></trkpt><trkpt lat="43.97669408251901" lon="7.860819967731559"><ele>1041.0</ele><time>2026-04-18T09:32:29Z</time></trkpt><trkpt lat="43.976794622441446" lon="7.860800250373716"><ele>1041.0</ele><time>2026-04-18T09:32:30Z</time></trkpt><trkpt lat="43.976895589108786" lon="7.860805799494525"><ele>1041.0</ele><time>2026-04-18T09:32:31Z</time></trkpt><trkpt lat="43.97700059170937" lon="7.860812253582367"><ele>1040.2</ele><time>2026-04-18T09:32:32Z</time></trkpt><trkpt lat="43.97710217056708" lon="7.860812931622462"><ele>1039.3999999999999</ele><time>2026-04-18T09:32:33Z</time></trkpt><trkpt lat="43.977196935868804" lon="7.860784199569733"><ele>1038.6</ele><time>2026-04-18T09:32:34Z</time></trkpt><trkpt lat="43.977273996233706" lon="7.8607190635238355"><ele>1037.8</ele><time>2026-04-18T09:32:35Z</time></trkpt><trkpt lat="43.97732511644064" lon="7.860601009446476"><ele>1037.0</ele><time>2026-04-18T09:32:36Z</time></trkpt><trkpt lat="43.97736096225245" lon="7.860481864501505"><ele>1037.0</ele><time>2026-04-18T09:32:37Z</time></trkpt><trkpt lat="43.977410967391855" lon="7.860374940693523"><ele>1037.0</ele><time>2026-04-18T09:32:38Z</time></trkpt><trkpt lat="43.97749021482807" lon="7.860315585750873"><ele>1037.0</ele><time>2026-04-18T09:32:39Z</time></trkpt><trkpt lat="43.977580390135145" lon="7.860271163247324"><ele>1037.0</ele><time>2026-04-18T09:32:40Z</time></trkpt><trkpt lat="43.97768853527831" lon="7.860274662755729"><ele>1037.0</ele><time>2026-04-18T09:32:41Z</time></trkpt><trkpt lat="43.97778871909992" lon="7.860302694601436"><ele>1036.75</ele><time>2026-04-18T09:32:42Z</time></trkpt><trkpt lat="43.97789351560137" lon="7.860355985841609"><ele>1036.5</ele><time>2026-04-18T09:32:43Z</time></trkpt><trkpt lat="43.977999254676995" lon="7.86043083795986"><ele>1036.25</ele><time>2026-04-18T09:32:44Z</time></trkpt><trkpt lat="43.97810152355065" lon="7.860516919151731"><ele>1036.0</ele><time>2026-04-18T09:32:45Z</time></trkpt><trkpt lat="43.97818146618918" lon="7.860642499616982"><ele>1036.0</ele><time>2026-04-18T09:32:46Z</time></trkpt><trkpt lat="43.978257496250784" lon="7.860787972789427"><ele>1036.0</ele><time>2026-04-18T09:32:47Z</time></trkpt><trkpt lat="43.97833144133461" lon="7.860948502416164"><ele>1036.0</ele><time>2026-04-18T09:32:48Z</time></trkpt><trkpt lat="43.97841220508674" lon="7.861106441281984"><ele>1036.0</ele><time>2026-04-18T09:32:49Z</time></trkpt><trkpt lat="43.978500561113535" lon="7.86126354241266"><ele>1034.25</ele><time>2026-04-18T09:32:50Z</time></trkpt><trkpt lat="43.97859613771052" lon="7.861401793469573"><ele>1032.5</ele><time>2026-04-18T09:32:51Z</time></trkpt><trkpt lat="43.97869435736934" lon="7.861527522395426"><ele>1030.75</ele><time>2026-04-18T09:32:52Z</time></trkpt><trkpt lat="43.97878594702804" lon="7.8616327073522765"><ele>1029.0</ele><time>2026-04-18T09:32:53Z</time></trkpt><trkpt lat="43.978868143239694" lon="7.861725162955062"><ele>1025.6000000000001</ele><time>2026-04-18T09:32:54Z</time></trkpt><trkpt lat="43.97892217850909" lon="7.861836882326917"><ele>1022.2</ele><time>2026-04-18T09:32:55Z</time></trkpt><trkpt lat="43.97895314427779" lon="7.861930033457631"><ele>1018.8000000000001</ele><time>2026-04-18T09:32:56Z</time></trkpt><trkpt lat="43.978938940049005" lon="7.86206963059024"><ele>1015.4000000000001</ele><time>2026-04-18T09:32:58Z</time></trkpt><trkpt lat="43.97886901711539" lon="7.862129556406279"><ele>1012.0</ele><time>2026-04-18T09:32:59Z</time></trkpt><trkpt lat="43.97875687488811" lon="7.862166402329132"><ele>1012.0</ele><time>2026-04-18T09:33:00Z</time></trkpt><trkpt lat="43.97864694587049" lon="7.862151843342874"><ele>1012.0</ele><time>2026-04-18T09:33:01Z</time></trkpt><trkpt lat="43.97855331495028" lon="7.862070293642843"><ele>1012.0</ele><time>2026-04-18T09:33:02Z</time></trkpt><trkpt lat="43.978481338668544" lon="7.861961432277778"><ele>1012.0</ele><time>2026-04-18T09:33:03Z</time></trkpt><trkpt lat="43.97839480895499" lon="7.861828937318815"><ele>1014.0</ele><time>2026-04-18T09:33:04Z</time></trkpt><trkpt lat="43.97832349233588" lon="7.861681788452205"><ele>1016.0</ele><time>2026-04-18T09:33:05Z</time></trkpt><trkpt lat="43.978241672444156" lon="7.861574779182524"><ele>1018.0</ele><time>2026-04-18T09:33:06Z</time></trkpt><trkpt lat="43.97814346025964" lon="7.861527703611558"><ele>1020.0</ele><time>2026-04-18T09:33:07Z</time></trkpt><trkpt lat="43.97803726186862" lon="7.861533677790776"><ele>1020.0</ele><time>2026-04-18T09:33:08Z</time></trkpt><trkpt lat="43.97793533587364" lon="7.861598511125875"><ele>1020.0</ele><time>2026-04-18T09:33:09Z</time></trkpt><trkpt lat="43.977830789933414" lon="7.86169569123796"><ele>1020.0</ele><time>2026-04-18T09:33:10Z</time></trkpt><trkpt lat="43.97771565105132" lon="7.861751943555168"><ele>1020.0</ele><time>2026-04-18T09:33:11Z</time></trkpt><trkpt lat="43.97761578780352" lon="7.861823122535389"><ele>1019.0</ele><time>2026-04-18T09:33:12Z</time></trkpt><trkpt lat="43.977496591196214" lon="7.8618288948484025"><ele>1018.0</ele><time>2026-04-18T09:33:13Z</time></trkpt><trkpt lat="43.977372249020455" lon="7.861774641800398"><ele>1017.0</ele><time>2026-04-18T09:33:14Z</time></trkpt><trkpt lat="43.97722803653688" lon="7.861752111949494"><ele>1016.0</ele><time>2026-04-18T09:33:15Z</time></trkpt><trkpt lat="43.97708503022201" lon="7.861703442447166"><ele>1016.0</ele><time>2026-04-18T09:33:16Z</time></trkpt><trkpt lat="43.97693655482634" lon="7.86167161365009"><ele>1016.0</ele><time>2026-04-18T09:33:17Z</time></trkpt><trkpt lat="43.976779571497715" lon="7.861661502144614"><ele>1016.0</ele><time>2026-04-18T09:33:18Z</time></trkpt><trkpt lat="43.976619192902106" lon="7.861665072703503"><ele>1014.3333333333334</ele><time>2026-04-18T09:33:19Z</time></trkpt><trkpt lat="43.976462085638424" lon="7.861692694207859"><ele>1012.6666666666667</ele><time>2026-04-18T09:33:20Z</time></trkpt><trkpt lat="43.97630561938047" lon="7.861698728670797"><ele>1011.0</ele><time>2026-04-18T09:33:21Z</time></trkpt><trkpt lat="43.976151733237195" lon="7.861748032009807"><ele>1011.0</ele><time>2026-04-18T09:33:22Z</time></trkpt><trkpt lat="43.97600294380517" lon="7.861741155191783"><ele>1011.0</ele><time>2026-04-18T09:33:23Z</time></trkpt><trkpt lat="43.97586473221623" lon="7.861714762481955"><ele>1011.0</ele><time>2026-04-18T09:33:24Z</time></trkpt><trkpt lat="43.97573966557807" lon="7.861699164153583"><ele>1011.0</ele><time>2026-04-18T09:33:25Z</time></trkpt><trkpt lat="43.97560952127431" lon="7.861731505062296"><ele>1009.4</ele><time>2026-04-18T09:33:26Z</time></trkpt><trkpt lat="43.97548678967815" lon="7.861790429533595"><ele>1007.8</ele><time>2026-04-18T09:33:27Z</time></trkpt><trkpt lat="43.97537697018714" lon="7.861834389190677"><ele>1006.1999999999999</ele><time>2026-04-18T09:33:28Z</time></trkpt><trkpt lat="43.97528035531886" lon="7.8618242417845146"><ele>1004.5999999999999</ele><time>2026-04-18T09:33:29Z</time></trkpt><trkpt lat="43.975202227159976" lon="7.86173174950423"><ele>1003.0</ele><time>2026-04-18T09:33:30Z</time></trkpt><trkpt lat="43.97513111578948" lon="7.861627585903163"><ele>1003.0</ele><time>2026-04-18T09:33:31Z</time></trkpt><trkpt lat="43.97504517553046" lon="7.861505658378996"><ele>1003.0</ele><time>2026-04-18T09:33:32Z</time></trkpt><trkpt lat="43.97499965180855" lon="7.861345747793315"><ele>1003.0</ele><time>2026-04-18T09:33:33Z</time></trkpt><trkpt lat="43.97489590055536" lon="7.861249918520052"><ele>1003.0</ele><time>2026-04-18T09:33:34Z</time></trkpt><trkpt lat="43.974787090401186" lon="7.861138050390988"><ele>1007.0</ele><time>2026-04-18T09:33:35Z</time></trkpt><trkpt lat="43.9746600374147" lon="7.861036384521028"><ele>1011.0</ele><time>2026-04-18T09:33:36Z</time></trkpt><trkpt lat="43.974532526494464" lon="7.860943786292511"><ele>1015.0</ele><time>2026-04-18T09:33:37Z</time></trkpt><trkpt lat="43.97438969912577" lon="7.860922490414276"><ele>1019.0</ele><time>2026-04-18T09:33:38Z</time></trkpt><trkpt lat="43.97424905893777" lon="7.860917877712151"><ele>1012.25</ele><time>2026-04-18T09:33:39Z</time></trkpt><trkpt lat="43.97411037452697" lon="7.860895286596413"><ele>1005.5</ele><time>2026-04-18T09:33:40Z</time></trkpt><trkpt lat="43.97397911535767" lon="7.860898021746042"><ele>998.75</ele><time>2026-04-18T09:33:41Z</time></trkpt><trkpt lat="43.973867907836244" lon="7.860903085543659"><ele>992.0</ele><time>2026-04-18T09:33:42Z</time></trkpt><trkpt lat="43.97377694300511" lon="7.86090594728944"><ele>992.0</ele><time>2026-04-18T09:33:43Z</time></trkpt><trkpt lat="43.97371212054705" lon="7.8608693601712964"><ele>992.0</ele><time>2026-04-18T09:33:44Z</time></trkpt><trkpt lat="43.97364685685151" lon="7.860805075882297"><ele>992.0</ele><time>2026-04-18T09:33:45Z</time></trkpt><trkpt lat="43.97363974282588" lon="7.860669036009862"><ele>992.0</ele><time>2026-04-18T09:33:46Z</time></trkpt><trkpt lat="43.973615708317375" lon="7.860502303482558"><ele>992.0</ele><time>2026-04-18T09:33:47Z</time></trkpt><trkpt lat="43.973573987049896" lon="7.860328257252908"><ele>992.0</ele><time>2026-04-18T09:33:48Z</time></trkpt><trkpt lat="43.97350395636794" lon="7.86015069378463"><ele>992.0</ele><time>2026-04-18T09:33:49Z</time></trkpt><trkpt lat="43.973421904836144" lon="7.859994503983023"><ele>992.0</ele><time>2026-04-18T09:33:50Z</time></trkpt><trkpt lat="43.97333150052831" lon="7.859857286988998"><ele>992.0</ele><time>2026-04-18T09:33:51Z</time></trkpt><trkpt lat="43.97323831553851" lon="7.859741269090239"><ele>990.0</ele><time>2026-04-18T09:33:52Z</time></trkpt><trkpt lat="43.973136493307024" lon="7.859676592467456"><ele>988.0</ele><time>2026-04-18T09:33:53Z</time></trkpt><trkpt lat="43.973044656788545" lon="7.859606982235538"><ele>986.0</ele><time>2026-04-18T09:33:54Z</time></trkpt><trkpt lat="43.97293145045869" lon="7.859638457762554"><ele>984.0</ele><time>2026-04-18T09:33:55Z</time></trkpt><trkpt lat="43.97282228102442" lon="7.859692686480495"><ele>982.0</ele><time>2026-04-18T09:33:56Z</time></trkpt><trkpt lat="43.97272123012746" lon="7.85977741210006"><ele>982.0</ele><time>2026-04-18T09:33:57Z</time></trkpt><trkpt lat="43.97263956070573" lon="7.859856662062435"><ele>982.0</ele><time>2026-04-18T09:33:58Z</time></trkpt><trkpt lat="43.97256636597486" lon="7.8598946212212475"><ele>982.0</ele><time>2026-04-18T09:33:59Z</time></trkpt><trkpt lat="43.97250215355176" lon="7.85987422406181"><ele>982.0</ele><time>2026-04-18T09:34:00Z</time></trkpt><trkpt lat="43.972418509290634" lon="7.859794588506963"><ele>982.0</ele><time>2026-04-18T09:34:01Z</time></trkpt><trkpt lat="43.97232066636568" lon="7.85969537508779"><ele>977.8</ele><time>2026-04-18T09:34:02Z</time></trkpt><trkpt lat="43.97222455405924" lon="7.859585370964262"><ele>973.6</ele><time>2026-04-18T09:34:03Z</time></trkpt><trkpt lat="43.97212881319695" lon="7.859494154343376"><ele>969.3999999999999</ele><time>2026-04-18T09:34:04Z</time></trkpt><trkpt lat="43.97203460112892" lon="7.859413412755223"><ele>965.1999999999999</ele><time>2026-04-18T09:34:05Z</time></trkpt><trkpt lat="43.97195232794642" lon="7.859371048266518"><ele>961.0</ele><time>2026-04-18T09:34:06Z</time></trkpt><trkpt lat="43.9718741460295" lon="7.859366157472066"><ele>960.9999999999999</ele><time>2026-04-18T09:34:07Z</time></trkpt><trkpt lat="43.97179374376164" lon="7.859421608091684"><ele>961.0</ele><time>2026-04-18T09:34:08Z</time></trkpt><trkpt lat="43.97175476691028" lon="7.859533519035968"><ele>961.0</ele><time>2026-04-18T09:34:09Z</time></trkpt><trkpt lat="43.971759955154056" lon="7.859626963153823"><ele>961.0</ele><time>2026-04-18T09:34:10Z</time></trkpt><trkpt lat="43.97180267895249" lon="7.859709137004455"><ele>960.9999999999999</ele><time>2026-04-18T09:34:11Z</time></trkpt><trkpt lat="43.97188434081563" lon="7.859760696147943"><ele>961.0</ele><time>2026-04-18T09:34:12Z</time></trkpt><trkpt lat="43.97199546246011" lon="7.859774710474496"><ele>961.0</ele><time>2026-04-18T09:34:13Z</time></trkpt><trkpt lat="43.97208208063995" lon="7.859827197908743"><ele>960.9999999999999</ele><time>2026-04-18T09:34:14Z</time></trkpt><trkpt lat="43.97217444000253" lon="7.859867390345026"><ele>960.9999999999999</ele><time>2026-04-18T09:34:15Z</time></trkpt><trkpt lat="43.97225080485903" lon="7.859984898487455"><ele>961.0</ele><time>2026-04-18T09:34:16Z</time></trkpt><trkpt lat="43.9723163125637" lon="7.860127520662145"><ele>961.0</ele><time>2026-04-18T09:34:17Z</time></trkpt><trkpt lat="43.972380986047426" lon="7.860251093016248"><ele>961.1666666666666</ele><time>2026-04-18T09:34:18Z</time></trkpt><trkpt lat="43.9724441520301" lon="7.860363131224895"><ele>961.3333333333333</ele><time>2026-04-18T09:34:19Z</time></trkpt><trkpt lat="43.97252119647007" lon="7.860424233883551"><ele>961.5</ele><time>2026-04-18T09:34:20Z</time></trkpt><trkpt lat="43.972547366204076" lon="7.860510282983249"><ele>961.6666666666667</ele><time>2026-04-18T09:34:21Z</time></trkpt><trkpt lat="43.972535172108486" lon="7.860599474573744"><ele>961.8333333333334</ele><time>2026-04-18T09:34:22Z</time></trkpt><trkpt lat="43.97248905106243" lon="7.860660409375479"><ele>962.0</ele><time>2026-04-18T09:34:23Z</time></trkpt><trkpt lat="43.97239993663218" lon="7.860640433145143"><ele>957.8</ele><time>2026-04-18T09:34:24Z</time></trkpt><trkpt lat="43.972291278390436" lon="7.860647664011842"><ele>953.6</ele><time>2026-04-18T09:34:25Z</time></trkpt><trkpt lat="43.9722208917438" lon="7.860592068022256"><ele>949.3999999999999</ele><time>2026-04-18T09:34:26Z</time></trkpt><trkpt lat="43.97218508681218" lon="7.860510597614168"><ele>945.1999999999999</ele><time>2026-04-18T09:34:27Z</time></trkpt><trkpt lat="43.97211871036959" lon="7.860391086673686"><ele>941.0</ele><time>2026-04-18T09:34:28Z</time></trkpt><trkpt lat="43.97204423850171" lon="7.860281656503404"><ele>941.0</ele><time>2026-04-18T09:34:29Z</time></trkpt><trkpt lat="43.971948219620366" lon="7.86019821189459"><ele>941.0</ele><time>2026-04-18T09:34:30Z</time></trkpt><trkpt lat="43.971807864759" lon="7.860207398373313"><ele>941.0</ele><time>2026-04-18T09:34:31Z</time></trkpt><trkpt lat="43.971680223407425" lon="7.860152237048952"><ele>941.0</ele><time>2026-04-18T09:34:32Z</time></trkpt><trkpt lat="43.97157144113019" lon="7.86009518788749"><ele>941.0</ele><time>2026-04-18T09:34:33Z</time></trkpt><trkpt lat="43.97148016470109" lon="7.860006696372836"><ele>940.9999999999999</ele><time>2026-04-18T09:34:34Z</time></trkpt><trkpt lat="43.97142219739083" lon="7.859895076204815"><ele>940.9999999999999</ele><time>2026-04-18T09:34:35Z</time></trkpt><trkpt lat="43.97138518076353" lon="7.859756098862434"><ele>941.0</ele><time>2026-04-18T09:34:36Z</time></trkpt><trkpt lat="43.97134716456509" lon="7.859586975723061"><ele>941.0</ele><time>2026-04-18T09:34:37Z</time></trkpt><trkpt lat="43.971299838381825" lon="7.859399371283358"><ele>943.75</ele><time>2026-04-18T09:34:38Z</time></trkpt><trkpt lat="43.97125157856489" lon="7.859203868545352"><ele>946.5</ele><time>2026-04-18T09:34:39Z</time></trkpt><trkpt lat="43.971198581576026" lon="7.859012114867515"><ele>949.25</ele><time>2026-04-18T09:34:40Z</time></trkpt><trkpt lat="43.97115652382143" lon="7.858829980732671"><ele>952.0</ele><time>2026-04-18T09:34:41Z</time></trkpt><trkpt lat="43.9711267035951" lon="7.858676503954379"><ele>951.9999999999999</ele><time>2026-04-18T09:34:42Z</time></trkpt><trkpt lat="43.971107122532075" lon="7.85855701205124"><ele>952.0</ele><time>2026-04-18T09:34:43Z</time></trkpt><trkpt lat="43.9710728782178" lon="7.858465775165331"><ele>952.0</ele><time>2026-04-18T09:34:44Z</time></trkpt><trkpt lat="43.97100702316184" lon="7.858415867894037"><ele>952.0</ele><time>2026-04-18T09:34:45Z</time></trkpt><trkpt lat="43.97092580365409" lon="7.858400448973169"><ele>951.9999999999999</ele><time>2026-04-18T09:34:46Z</time></trkpt><trkpt lat="43.97083044186257" lon="7.858485125704835"><ele>952.0</ele><time>2026-04-18T09:34:47Z</time></trkpt><trkpt lat="43.97078191280509" lon="7.858629720469797"><ele>944.0</ele><time>2026-04-18T09:34:48Z</time></trkpt><trkpt lat="43.97073732634222" lon="7.858780813760259"><ele>936.0</ele><time>2026-04-18T09:34:49Z</time></trkpt><trkpt lat="43.97067434173029" lon="7.8589241540594665"><ele>928.0</ele><time>2026-04-18T09:34:50Z</time></trkpt><trkpt lat="43.97058719329799" lon="7.859035903567268"><ele>920.0</ele><time>2026-04-18T09:34:51Z</time></trkpt><trkpt lat="43.97048400178171" lon="7.859074568214115"><ele>920.0</ele><time>2026-04-18T09:34:52Z</time></trkpt><trkpt lat="43.970410750149014" lon="7.85908796756592"><ele>920.0</ele><time>2026-04-18T09:34:53Z</time></trkpt><trkpt lat="43.97030051350416" lon="7.858977209093321"><ele>920.0</ele><time>2026-04-18T09:34:55Z</time></trkpt><trkpt lat="43.97022133080823" lon="7.858869173524877"><ele>920.0</ele><time>2026-04-18T09:34:56Z</time></trkpt><trkpt lat="43.97013297310894" lon="7.858792204464714"><ele>920.0</ele><time>2026-04-18T09:34:57Z</time></trkpt><trkpt lat="43.97002145748267" lon="7.858809764827901"><ele>917.8</ele><time>2026-04-18T09:34:58Z</time></trkpt><trkpt lat="43.96993140749316" lon="7.858926252093621"><ele>915.6</ele><time>2026-04-18T09:34:59Z</time></trkpt><trkpt lat="43.969902363897354" lon="7.859093496335379"><ele>913.4000000000001</ele><time>2026-04-18T09:35:00Z</time></trkpt><trkpt lat="43.96985736471311" lon="7.859242597941853"><ele>911.2</ele><time>2026-04-18T09:35:01Z</time></trkpt><trkpt lat="43.96980286929008" lon="7.859325640484791"><ele>909.0</ele><time>2026-04-18T09:35:02Z</time></trkpt><trkpt lat="43.969726311958965" lon="7.859380188418173"><ele>905.2</ele><time>2026-04-18T09:35:03Z</time></trkpt><trkpt lat="43.96963494076885" lon="7.859396555373217"><ele>901.4000000000001</ele><time>2026-04-18T09:35:04Z</time></trkpt><trkpt lat="43.969535650371164" lon="7.85938313572567"><ele>897.6</ele><time>2026-04-18T09:35:05Z</time></trkpt><trkpt lat="43.96942397978894" lon="7.859362504828879"><ele>893.8</ele><time>2026-04-18T09:35:06Z</time></trkpt><trkpt lat="43.96931308108014" lon="7.859383958917871"><ele>890.0</ele><time>2026-04-18T09:35:07Z</time></trkpt><trkpt lat="43.96921298988322" lon="7.8594620765229415"><ele>891.25</ele><time>2026-04-18T09:35:08Z</time></trkpt><trkpt lat="43.96914493927095" lon="7.859619864212386"><ele>892.5</ele><time>2026-04-18T09:35:09Z</time></trkpt><trkpt lat="43.9690787598506" lon="7.859760099470942"><ele>893.75</ele><time>2026-04-18T09:35:10Z</time></trkpt><trkpt lat="43.96900965548671" lon="7.859893743040022"><ele>895.0</ele><time>2026-04-18T09:35:11Z</time></trkpt><trkpt lat="43.968935508858166" lon="7.86000440738453"><ele>895.0</ele><time>2026-04-18T09:35:12Z</time></trkpt><trkpt lat="43.968844410418775" lon="7.860072445606038"><ele>895.0</ele><time>2026-04-18T09:35:13Z</time></trkpt><trkpt lat="43.968719276708306" lon="7.860136369224785"><ele>895.0</ele><time>2026-04-18T09:35:14Z</time></trkpt><trkpt lat="43.96858677514132" lon="7.860205228047969"><ele>895.0</ele><time>2026-04-18T09:35:15Z</time></trkpt><trkpt lat="43.96845595776138" lon="7.860272747850079"><ele>890.5</ele><time>2026-04-18T09:35:16Z</time></trkpt><trkpt lat="43.96832780394391" lon="7.860339249053856"><ele>886.0</ele><time>2026-04-18T09:35:17Z</time></trkpt><trkpt lat="43.9681981302628" lon="7.860409459560739"><ele>881.5</ele><time>2026-04-18T09:35:18Z</time></trkpt><trkpt lat="43.96807373529909" lon="7.8605103844263535"><ele>877.0</ele><time>2026-04-18T09:35:19Z</time></trkpt><trkpt lat="43.9679662647191" lon="7.860651690235179"><ele>877.0</ele><time>2026-04-18T09:35:20Z</time></trkpt><trkpt lat="43.967865483263424" lon="7.860792878994699"><ele>877.0</ele><time>2026-04-18T09:35:21Z</time></trkpt><trkpt lat="43.96776921972475" lon="7.860930459820266"><ele>877.0</ele><time>2026-04-18T09:35:22Z</time></trkpt><trkpt lat="43.967667870869086" lon="7.861049762698284"><ele>877.0</ele><time>2026-04-18T09:35:23Z</time></trkpt><trkpt lat="43.967554177230895" lon="7.8611250369771675"><ele>875.0</ele><time>2026-04-18T09:35:24Z</time></trkpt><trkpt lat="43.96743577982921" lon="7.8611662305794745"><ele>873.0</ele><time>2026-04-18T09:35:25Z</time></trkpt><trkpt lat="43.96732332596766" lon="7.8612338582581005"><ele>871.0</ele><time>2026-04-18T09:35:26Z</time></trkpt><trkpt lat="43.96721935095591" lon="7.861354071252535"><ele>869.0</ele><time>2026-04-18T09:35:27Z</time></trkpt><trkpt lat="43.96712996291223" lon="7.8615204610610006"><ele>869.0</ele><time>2026-04-18T09:35:28Z</time></trkpt><trkpt lat="43.96704761350319" lon="7.861698166680503"><ele>869.0</ele><time>2026-04-18T09:35:29Z</time></trkpt><trkpt lat="43.966967637630894" lon="7.861840432396877"><ele>869.0</ele><time>2026-04-18T09:35:30Z</time></trkpt><trkpt lat="43.966876413483824" lon="7.861975687449026"><ele>869.0</ele><time>2026-04-18T09:35:31Z</time></trkpt><trkpt lat="43.96678515224704" lon="7.862087440645736"><ele>867.0</ele><time>2026-04-18T09:35:32Z</time></trkpt><trkpt lat="43.96668752738014" lon="7.862181547704578"><ele>865.0000000000001</ele><time>2026-04-18T09:35:33Z</time></trkpt><trkpt lat="43.96658428320242" lon="7.862243420474041"><ele>863.0000000000001</ele><time>2026-04-18T09:35:34Z</time></trkpt><trkpt lat="43.9664786359354" lon="7.862269192048011"><ele>861.0</ele><time>2026-04-18T09:35:35Z</time></trkpt><trkpt lat="43.96637787436147" lon="7.862241403400588"><ele>859.0</ele><time>2026-04-18T09:35:36Z</time></trkpt><trkpt lat="43.96625747425889" lon="7.8622039701638045"><ele>859.0</ele><time>2026-04-18T09:35:37Z</time></trkpt><trkpt lat="43.966138596546585" lon="7.862123212502518"><ele>859.0</ele><time>2026-04-18T09:35:38Z</time></trkpt><trkpt lat="43.96601861072179" lon="7.862068480242165"><ele>859.0</ele><time>2026-04-18T09:35:39Z</time></trkpt><trkpt lat="43.96589698880175" lon="7.8620870260117535"><ele>859.0</ele><time>2026-04-18T09:35:40Z</time></trkpt><trkpt lat="43.96578985347592" lon="7.862098728893954"><ele>856.25</ele><time>2026-04-18T09:35:41Z</time></trkpt><trkpt lat="43.965686688055" lon="7.862097294141648"><ele>853.5</ele><time>2026-04-18T09:35:42Z</time></trkpt><trkpt lat="43.96560120284867" lon="7.862021350526758"><ele>850.75</ele><time>2026-04-18T09:35:43Z</time></trkpt><trkpt lat="43.965514816936924" lon="7.861911148669688"><ele>848.0</ele><time>2026-04-18T09:35:44Z</time></trkpt><trkpt lat="43.96544279199818" lon="7.861755288871932"><ele>856.0</ele><time>2026-04-18T09:35:45Z</time></trkpt><trkpt lat="43.9653514484763" lon="7.861575733623597"><ele>864.0</ele><time>2026-04-18T09:35:46Z</time></trkpt><trkpt lat="43.96525250731969" lon="7.861412989482514"><ele>872.0</ele><time>2026-04-18T09:35:47Z</time></trkpt><trkpt lat="43.96515319107885" lon="7.861254415650167"><ele>872.0</ele><time>2026-04-18T09:35:48Z</time></trkpt><trkpt lat="43.96505648202391" lon="7.861104151801475"><ele>872.0</ele><time>2026-04-18T09:35:49Z</time></trkpt><trkpt lat="43.96495339710882" lon="7.860977537774491"><ele>872.0</ele><time>2026-04-18T09:35:50Z</time></trkpt><trkpt lat="43.96483909656924" lon="7.860889569466352"><ele>872.0</ele><time>2026-04-18T09:35:51Z</time></trkpt><trkpt lat="43.96472477924318" lon="7.860814894837138"><ele>870.25</ele><time>2026-04-18T09:35:52Z</time></trkpt><trkpt lat="43.96463191581442" lon="7.8606949148662"><ele>868.5</ele><time>2026-04-18T09:35:53Z</time></trkpt><trkpt lat="43.96453880208275" lon="7.860544699440583"><ele>866.75</ele><time>2026-04-18T09:35:54Z</time></trkpt><trkpt lat="43.96444340935073" lon="7.860390913679238"><ele>865.0</ele><time>2026-04-18T09:35:55Z</time></trkpt><trkpt lat="43.964350704020156" lon="7.860239841536177"><ele>860.5</ele><time>2026-04-18T09:35:56Z</time></trkpt><trkpt lat="43.96426143465861" lon="7.86009808236033"><ele>856.0</ele><time>2026-04-18T09:35:57Z</time></trkpt><trkpt lat="43.96417757545484" lon="7.859971334957605"><ele>851.5</ele><time>2026-04-18T09:35:58Z</time></trkpt><trkpt lat="43.96409705115733" lon="7.859884280228512"><ele>847.0</ele><time>2026-04-18T09:35:59Z</time></trkpt><trkpt lat="43.964011793555215" lon="7.859852644898726"><ele>847.0</ele><time>2026-04-18T09:36:00Z</time></trkpt><trkpt lat="43.96390962559276" lon="7.859864893920785"><ele>847.0</ele><time>2026-04-18T09:36:01Z</time></trkpt><trkpt lat="43.96380232995873" lon="7.8599713336424415"><ele>847.0</ele><time>2026-04-18T09:36:02Z</time></trkpt><trkpt lat="43.96368730506189" lon="7.86005559726706"><ele>847.0</ele><time>2026-04-18T09:36:03Z</time></trkpt><trkpt lat="43.963584865488876" lon="7.860124794856856"><ele>843.25</ele><time>2026-04-18T09:36:04Z</time></trkpt><trkpt lat="43.96348076532367" lon="7.860210537989289"><ele>839.5</ele><time>2026-04-18T09:36:05Z</time></trkpt><trkpt lat="43.96342683374858" lon="7.860384512894391"><ele>835.75</ele><time>2026-04-18T09:36:06Z</time></trkpt><trkpt lat="43.96338632462756" lon="7.860540848455122"><ele>832.0</ele><time>2026-04-18T09:36:07Z</time></trkpt><trkpt lat="43.96330623294906" lon="7.860656989594108"><ele>828.25</ele><time>2026-04-18T09:36:08Z</time></trkpt><trkpt lat="43.96319720293915" lon="7.860735988103949"><ele>824.5</ele><time>2026-04-18T09:36:09Z</time></trkpt><trkpt lat="43.96310702494532" lon="7.860849433053179"><ele>820.75</ele><time>2026-04-18T09:36:10Z</time></trkpt><trkpt lat="43.96300931503752" lon="7.860987076914725"><ele>817.0</ele><time>2026-04-18T09:36:11Z</time></trkpt><trkpt lat="43.96290447126953" lon="7.861128740038823"><ele>818.5</ele><time>2026-04-18T09:36:12Z</time></trkpt><trkpt lat="43.96280014579719" lon="7.861265986451626"><ele>820.0</ele><time>2026-04-18T09:36:13Z</time></trkpt><trkpt lat="43.96270435417804" lon="7.86142092656877"><ele>821.5</ele><time>2026-04-18T09:36:14Z</time></trkpt><trkpt lat="43.96259951248182" lon="7.861573649826335"><ele>823.0</ele><time>2026-04-18T09:36:15Z</time></trkpt><trkpt lat="43.9625211619985" lon="7.861755727482815"><ele>818.75</ele><time>2026-04-18T09:36:16Z</time></trkpt><trkpt lat="43.96245737708661" lon="7.861938354571943"><ele>814.5</ele><time>2026-04-18T09:36:17Z</time></trkpt><trkpt lat="43.96239037781398" lon="7.862125420665889"><ele>810.25</ele><time>2026-04-18T09:36:18Z</time></trkpt><trkpt lat="43.962345159361774" lon="7.862314885648049"><ele>806.0</ele><time>2026-04-18T09:36:19Z</time></trkpt><trkpt lat="43.962320433369996" lon="7.862509892606156"><ele>802.0</ele><time>2026-04-18T09:36:20Z</time></trkpt><trkpt lat="43.9623144451317" lon="7.862705835517449"><ele>798.0</ele><time>2026-04-18T09:36:21Z</time></trkpt><trkpt lat="43.962299087242414" lon="7.862903211344143"><ele>794.0</ele><time>2026-04-18T09:36:22Z</time></trkpt><trkpt lat="43.96228447234864" lon="7.863098917258262"><ele>790.0</ele><time>2026-04-18T09:36:23Z</time></trkpt><trkpt lat="43.96226096225359" lon="7.863291797879765"><ele>786.6</ele><time>2026-04-18T09:36:24Z</time></trkpt><trkpt lat="43.962235246132515" lon="7.863474631729775"><ele>783.2</ele><time>2026-04-18T09:36:25Z</time></trkpt><trkpt lat="43.962204677751465" lon="7.863628060611774"><ele>779.8</ele><time>2026-04-18T09:36:26Z</time></trkpt><trkpt lat="43.96216957286423" lon="7.863757356818141"><ele>776.4</ele><time>2026-04-18T09:36:27Z</time></trkpt><trkpt lat="43.96212613602808" lon="7.863859542742113"><ele>773.0</ele><time>2026-04-18T09:36:28Z</time></trkpt><trkpt lat="43.96206284567351" lon="7.863939600682039"><ele>773.0</ele><time>2026-04-18T09:36:29Z</time></trkpt><trkpt lat="43.961974935233606" lon="7.863961232828642"><ele>773.0</ele><time>2026-04-18T09:36:30Z</time></trkpt><trkpt lat="43.96186021249989" lon="7.8639497500279525"><ele>773.0</ele><time>2026-04-18T09:36:31Z</time></trkpt><trkpt lat="43.96174428818951" lon="7.863898409009085"><ele>773.0</ele><time>2026-04-18T09:36:32Z</time></trkpt><trkpt lat="43.961630981067096" lon="7.863857435369899"><ele>773.0</ele><time>2026-04-18T09:36:33Z</time></trkpt><trkpt lat="43.96152337337693" lon="7.863804409954174"><ele>776.0</ele><time>2026-04-18T09:36:34Z</time></trkpt><trkpt lat="43.96142479382995" lon="7.863731465065663"><ele>779.0</ele><time>2026-04-18T09:36:35Z</time></trkpt><trkpt lat="43.96133922337256" lon="7.863612695262619"><ele>782.0</ele><time>2026-04-18T09:36:36Z</time></trkpt><trkpt lat="43.96125364571024" lon="7.863483964520903"><ele>785.0</ele><time>2026-04-18T09:36:37Z</time></trkpt><trkpt lat="43.961147862583836" lon="7.863376399868198"><ele>785.5</ele><time>2026-04-18T09:36:38Z</time></trkpt><trkpt lat="43.96103009986818" lon="7.863301319146239"><ele>786.0</ele><time>2026-04-18T09:36:39Z</time></trkpt><trkpt lat="43.96091022712991" lon="7.863268719910632"><ele>786.5</ele><time>2026-04-18T09:36:40Z</time></trkpt><trkpt lat="43.96079425818819" lon="7.863278350599026"><ele>787.0</ele><time>2026-04-18T09:36:41Z</time></trkpt><trkpt lat="43.96068767382451" lon="7.863281532650669"><ele>787.0</ele><time>2026-04-18T09:36:42Z</time></trkpt><trkpt lat="43.96059331144412" lon="7.863272833924415"><ele>787.0</ele><time>2026-04-18T09:36:43Z</time></trkpt><trkpt lat="43.96050032848944" lon="7.8632283802177545"><ele>787.0</ele><time>2026-04-18T09:36:44Z</time></trkpt><trkpt lat="43.96039617644446" lon="7.863138682793057"><ele>787.0</ele><time>2026-04-18T09:36:45Z</time></trkpt><trkpt lat="43.96029799124069" lon="7.863040837979443"><ele>787.0</ele><time>2026-04-18T09:36:46Z</time></trkpt><trkpt lat="43.960227340044504" lon="7.86291397244608"><ele>787.0</ele><time>2026-04-18T09:36:47Z</time></trkpt><trkpt lat="43.960171264355125" lon="7.862757447768605"><ele>787.0</ele><time>2026-04-18T09:36:48Z</time></trkpt><trkpt lat="43.96012600634567" lon="7.862595409339386"><ele>787.0</ele><time>2026-04-18T09:36:49Z</time></trkpt><trkpt lat="43.960078258242035" lon="7.86246484168511"><ele>787.0</ele><time>2026-04-18T09:36:50Z</time></trkpt><trkpt lat="43.96000896273232" lon="7.862402335763293"><ele>787.0</ele><time>2026-04-18T09:36:51Z</time></trkpt><trkpt lat="43.959924389172215" lon="7.862401520871741"><ele>787.8</ele><time>2026-04-18T09:36:52Z</time></trkpt><trkpt lat="43.95985450790229" lon="7.862463535645831"><ele>788.6</ele><time>2026-04-18T09:36:53Z</time></trkpt><trkpt lat="43.95981367676238" lon="7.8625615452479"><ele>789.4</ele><time>2026-04-18T09:36:54Z</time></trkpt><trkpt lat="43.959777149660724" lon="7.862690084955743"><ele>790.1999999999999</ele><time>2026-04-18T09:36:55Z</time></trkpt><trkpt lat="43.959807497854555" lon="7.862858663936843"><ele>791.0</ele><time>2026-04-18T09:36:56Z</time></trkpt><trkpt lat="43.9598147281291" lon="7.863020990243658"><ele>787.1999999999999</ele><time>2026-04-18T09:36:57Z</time></trkpt><trkpt lat="43.95982202605475" lon="7.8631685674395495"><ele>783.4</ele><time>2026-04-18T09:36:58Z</time></trkpt><trkpt lat="43.95980415874499" lon="7.863314444558254"><ele>779.6</ele><time>2026-04-18T09:36:59Z</time></trkpt><trkpt lat="43.95976932493763" lon="7.863452383390313"><ele>775.8</ele><time>2026-04-18T09:37:00Z</time></trkpt><trkpt lat="43.959728381334635" lon="7.863584366264356"><ele>772.0</ele><time>2026-04-18T09:37:01Z</time></trkpt><trkpt lat="43.959690246292695" lon="7.863691944146933"><ele>770.4000000000001</ele><time>2026-04-18T09:37:02Z</time></trkpt><trkpt lat="43.959614097967034" lon="7.86373882746331"><ele>768.8000000000001</ele><time>2026-04-18T09:37:03Z</time></trkpt><trkpt lat="43.959510141509654" lon="7.863747325079009"><ele>767.2</ele><time>2026-04-18T09:37:04Z</time></trkpt><trkpt lat="43.9593905297942" lon="7.863725273463653"><ele>765.6</ele><time>2026-04-18T09:37:05Z</time></trkpt><trkpt lat="43.959263797301716" lon="7.8637389897809955"><ele>764.0</ele><time>2026-04-18T09:37:06Z</time></trkpt><trkpt lat="43.959136581989455" lon="7.863805078734199"><ele>764.0</ele><time>2026-04-18T09:37:07Z</time></trkpt><trkpt lat="43.95902294206736" lon="7.863908284380301"><ele>764.0</ele><time>2026-04-18T09:37:08Z</time></trkpt><trkpt lat="43.958915446808234" lon="7.8640196436962455"><ele>764.0</ele><time>2026-04-18T09:37:09Z</time></trkpt><trkpt lat="43.95883274915701" lon="7.86417625594766"><ele>764.0</ele><time>2026-04-18T09:37:10Z</time></trkpt><trkpt lat="43.95874857126591" lon="7.864326162295056"><ele>761.75</ele><time>2026-04-18T09:37:11Z</time></trkpt><trkpt lat="43.958653443058104" lon="7.8644673783312475"><ele>759.5</ele><time>2026-04-18T09:37:12Z</time></trkpt><trkpt lat="43.95856272155442" lon="7.864612736285322"><ele>757.25</ele><time>2026-04-18T09:37:13Z</time></trkpt><trkpt lat="43.95846384993873" lon="7.864740001409357"><ele>755.0</ele><time>2026-04-18T09:37:14Z</time></trkpt><trkpt lat="43.95835607566727" lon="7.864854287015376"><ele>755.0</ele><time>2026-04-18T09:37:15Z</time></trkpt><trkpt lat="43.95826594756078" lon="7.864970267423979"><ele>755.0</ele><time>2026-04-18T09:37:16Z</time></trkpt><trkpt lat="43.958180318801915" lon="7.865078748873381"><ele>755.0</ele><time>2026-04-18T09:37:17Z</time></trkpt><trkpt lat="43.958101597624704" lon="7.865156655643042"><ele>755.0</ele><time>2026-04-18T09:37:18Z</time></trkpt><trkpt lat="43.95801283293435" lon="7.865209801109567"><ele>755.0</ele><time>2026-04-18T09:37:19Z</time></trkpt><trkpt lat="43.957913501907285" lon="7.865165431080843"><ele>755.0</ele><time>2026-04-18T09:37:20Z</time></trkpt><trkpt lat="43.95780659993877" lon="7.865104594208214"><ele>755.0</ele><time>2026-04-18T09:37:21Z</time></trkpt><trkpt lat="43.95769374693224" lon="7.865044473345767"><ele>755.0</ele><time>2026-04-18T09:37:22Z</time></trkpt><trkpt lat="43.95756293998773" lon="7.864987763491017"><ele>755.0</ele><time>2026-04-18T09:37:23Z</time></trkpt><trkpt lat="43.95742799990542" lon="7.864962215975774"><ele>756.25</ele><time>2026-04-18T09:37:24Z</time></trkpt><trkpt lat="43.95729456445989" lon="7.864966445780687"><ele>757.5</ele><time>2026-04-18T09:37:25Z</time></trkpt><trkpt lat="43.957170100279285" lon="7.864993054527911"><ele>758.75</ele><time>2026-04-18T09:37:26Z</time></trkpt><trkpt lat="43.95704707552094" lon="7.865089069082098"><ele>760.0</ele><time>2026-04-18T09:37:27Z</time></trkpt><trkpt lat="43.95694694017082" lon="7.865246215246283"><ele>752.5</ele><time>2026-04-18T09:37:28Z</time></trkpt><trkpt lat="43.95686608740601" lon="7.8653813791970455"><ele>745.0</ele><time>2026-04-18T09:37:29Z</time></trkpt><trkpt lat="43.95679181520092" lon="7.865459581279029"><ele>737.5</ele><time>2026-04-18T09:37:30Z</time></trkpt><trkpt lat="43.95668384926852" lon="7.865548045085967"><ele>730.0</ele><time>2026-04-18T09:37:31Z</time></trkpt><trkpt lat="43.95656342272756" lon="7.865625497737124"><ele>730.0</ele><time>2026-04-18T09:37:32Z</time></trkpt><trkpt lat="43.95644512718074" lon="7.865688502839901"><ele>730.0</ele><time>2026-04-18T09:37:33Z</time></trkpt><trkpt lat="43.95633836388677" lon="7.865744515154338"><ele>730.0</ele><time>2026-04-18T09:37:34Z</time></trkpt><trkpt lat="43.95625245633298" lon="7.865811828485524"><ele>730.0</ele><time>2026-04-18T09:37:35Z</time></trkpt><trkpt lat="43.956166853367115" lon="7.865856543266141"><ele>730.0</ele><time>2026-04-18T09:37:36Z</time></trkpt><trkpt lat="43.956092630953975" lon="7.865906573530937"><ele>721.75</ele><time>2026-04-18T09:37:37Z</time></trkpt><trkpt lat="43.95604355032032" lon="7.8660341593465954"><ele>713.5</ele><time>2026-04-18T09:37:39Z</time></trkpt><trkpt lat="43.95617396385298" lon="7.866144196197709"><ele>705.25</ele><time>2026-04-18T09:37:41Z</time></trkpt><trkpt lat="43.95627061544524" lon="7.866139515314598"><ele>697.0</ele><time>2026-04-18T09:37:42Z</time></trkpt><trkpt lat="43.95636990037365" lon="7.8660769517702205"><ele>697.0</ele><time>2026-04-18T09:37:43Z</time></trkpt><trkpt lat="43.95649631113701" lon="7.8660286445386145"><ele>697.0</ele><time>2026-04-18T09:37:44Z</time></trkpt><trkpt lat="43.9566184218369" lon="7.865954473759129"><ele>697.0</ele><time>2026-04-18T09:37:45Z</time></trkpt><trkpt lat="43.956738986454155" lon="7.865894767491249"><ele>697.0</ele><time>2026-04-18T09:37:46Z</time></trkpt><trkpt lat="43.95685232119672" lon="7.865817878008932"><ele>702.0</ele><time>2026-04-18T09:37:47Z</time></trkpt><trkpt lat="43.95695237226725" lon="7.865726409241213"><ele>707.0</ele><time>2026-04-18T09:37:48Z</time></trkpt><trkpt lat="43.95705039645113" lon="7.865633086459305"><ele>712.0</ele><time>2026-04-18T09:37:49Z</time></trkpt><trkpt lat="43.95714535497624" lon="7.865588167020467"><ele>717.0</ele><time>2026-04-18T09:37:50Z</time></trkpt><trkpt lat="43.95724592352291" lon="7.865547072629658"><ele>722.0</ele><time>2026-04-18T09:37:51Z</time></trkpt><trkpt lat="43.95731048188725" lon="7.865569894224276"><ele>722.0</ele><time>2026-04-18T09:37:52Z</time></trkpt><trkpt lat="43.95740797488701" lon="7.865640836960397"><ele>722.0</ele><time>2026-04-18T09:37:53Z</time></trkpt><trkpt lat="43.95749432776681" lon="7.865728452572394"><ele>722.0</ele><time>2026-04-18T09:37:54Z</time></trkpt><trkpt lat="43.957578548330446" lon="7.865818034750725"><ele>722.0</ele><time>2026-04-18T09:37:55Z</time></trkpt><trkpt lat="43.95765727210211" lon="7.865888017851532"><ele>722.0</ele><time>2026-04-18T09:37:56Z</time></trkpt><trkpt lat="43.95772641924504" lon="7.865946872052968"><ele>715.4000000000001</ele><time>2026-04-18T09:37:57Z</time></trkpt><trkpt lat="43.957786961444185" lon="7.8660064560418315"><ele>708.8000000000001</ele><time>2026-04-18T09:37:58Z</time></trkpt><trkpt lat="43.95784574150568" lon="7.866058104735788"><ele>702.2</ele><time>2026-04-18T09:37:59Z</time></trkpt><trkpt lat="43.957963529368165" lon="7.8661178881431475"><ele>695.6</ele><time>2026-04-18T09:38:01Z</time></trkpt><trkpt lat="43.95807152992329" lon="7.866146823547003"><ele>689.0</ele><time>2026-04-18T09:38:03Z</time></trkpt><trkpt lat="43.95818064183202" lon="7.866149546530145"><ele>689.0</ele><time>2026-04-18T09:38:05Z</time></trkpt><trkpt lat="43.95828877453604" lon="7.866110977632361"><ele>689.0</ele><time>2026-04-18T09:38:07Z</time></trkpt><trkpt lat="43.95839234801608" lon="7.8660657260210955"><ele>689.0</ele><time>2026-04-18T09:38:09Z</time></trkpt><trkpt lat="43.95850640156885" lon="7.866017211002805"><ele>689.0</ele><time>2026-04-18T09:38:11Z</time></trkpt><trkpt lat="43.958567701592315" lon="7.865995052296088"><ele>689.0</ele><time>2026-04-18T09:38:12Z</time></trkpt><trkpt lat="43.95863248620965" lon="7.865973440344218"><ele>689.7142857142857</ele><time>2026-04-18T09:38:13Z</time></trkpt><trkpt lat="43.958699261234784" lon="7.865962463854813"><ele>690.4285714285714</ele><time>2026-04-18T09:38:14Z</time></trkpt><trkpt lat="43.95876998680545" lon="7.8659635167543005"><ele>691.1428571428571</ele><time>2026-04-18T09:38:15Z</time></trkpt><trkpt lat="43.95884092148561" lon="7.86597244728841"><ele>691.8571428571429</ele><time>2026-04-18T09:38:16Z</time></trkpt><trkpt lat="43.95891422554959" lon="7.865990528089909"><ele>692.5714285714286</ele><time>2026-04-18T09:38:17Z</time></trkpt><trkpt lat="43.95898099215284" lon="7.866015778519285"><ele>693.2857142857143</ele><time>2026-04-18T09:38:18Z</time></trkpt><trkpt lat="43.95904845590943" lon="7.86604818109036"><ele>694.0</ele><time>2026-04-18T09:38:19Z</time></trkpt><trkpt lat="43.95911415048741" lon="7.866081312478983"><ele>694.0</ele><time>2026-04-18T09:38:20Z</time></trkpt><trkpt lat="43.959180460021734" lon="7.866111356949927"><ele>694.0</ele><time>2026-04-18T09:38:21Z</time></trkpt><trkpt lat="43.9592497125405" lon="7.866144687363967"><ele>694.0</ele><time>2026-04-18T09:38:22Z</time></trkpt><trkpt lat="43.959319727703935" lon="7.8661726003278"><ele>694.0</ele><time>2026-04-18T09:38:23Z</time></trkpt><trkpt lat="43.95939035201858" lon="7.866203234323263"><ele>694.0</ele><time>2026-04-18T09:38:24Z</time></trkpt><trkpt lat="43.95946322916769" lon="7.866236843078771"><ele>694.0</ele><time>2026-04-18T09:38:25Z</time></trkpt><trkpt lat="43.95953241103894" lon="7.866271900800696"><ele>694.0</ele><time>2026-04-18T09:38:26Z</time></trkpt><trkpt lat="43.95959008143995" lon="7.866322423058778"><ele>696.3333333333334</ele><time>2026-04-18T09:38:27Z</time></trkpt><trkpt lat="43.959629012547765" lon="7.866447813631238"><ele>698.6666666666667</ele><time>2026-04-18T09:38:29Z</time></trkpt><trkpt lat="43.9595906895103" lon="7.866538823032912"><ele>701.0</ele><time>2026-04-18T09:38:31Z</time></trkpt><trkpt lat="43.95949748304286" lon="7.8665233049520795"><ele>703.3333333333334</ele><time>2026-04-18T09:38:32Z</time></trkpt><trkpt lat="43.959420359671945" lon="7.866477282208552"><ele>705.6666666666666</ele><time>2026-04-18T09:38:33Z</time></trkpt><trkpt lat="43.95934368924259" lon="7.86644037887142"><ele>708.0</ele><time>2026-04-18T09:38:34Z</time></trkpt><trkpt lat="43.959268833122366" lon="7.866404534017176"><ele>705.6666666666666</ele><time>2026-04-18T09:38:35Z</time></trkpt><trkpt lat="43.959200336410376" lon="7.866363798037691"><ele>703.3333333333334</ele><time>2026-04-18T09:38:36Z</time></trkpt><trkpt lat="43.95912769452229" lon="7.866336867362498"><ele>701.0</ele><time>2026-04-18T09:38:37Z</time></trkpt><trkpt lat="43.95904765652057" lon="7.866314209436283"><ele>698.6666666666667</ele><time>2026-04-18T09:38:38Z</time></trkpt><trkpt lat="43.95897046161666" lon="7.866288881110525"><ele>696.3333333333334</ele><time>2026-04-18T09:38:39Z</time></trkpt><trkpt lat="43.95888884697505" lon="7.866273382777987"><ele>694.0</ele><time>2026-04-18T09:38:40Z</time></trkpt><trkpt lat="43.95880589122314" lon="7.866259217138805"><ele>694.0</ele><time>2026-04-18T09:38:41Z</time></trkpt><trkpt lat="43.958721914536405" lon="7.866243658910842"><ele>694.0</ele><time>2026-04-18T09:38:42Z</time></trkpt><trkpt lat="43.95863724521801" lon="7.866231900004249"><ele>694.0</ele><time>2026-04-18T09:38:43Z</time></trkpt><trkpt lat="43.95855077020682" lon="7.8662290445402"><ele>694.0</ele><time>2026-04-18T09:38:44Z</time></trkpt><trkpt lat="43.958461221262155" lon="7.866245704900097"><ele>694.0</ele><time>2026-04-18T09:38:45Z</time></trkpt><trkpt lat="43.958370807283494" lon="7.866298562049104"><ele>694.0</ele><time>2026-04-18T09:38:46Z</time></trkpt><trkpt lat="43.95828820143057" lon="7.866374463667419"><ele>693.1666666666667</ele><time>2026-04-18T09:38:47Z</time></trkpt><trkpt lat="43.958212728364956" lon="7.86646085283745"><ele>692.3333333333334</ele><time>2026-04-18T09:38:48Z</time></trkpt><trkpt lat="43.958144107827145" lon="7.8665481706418605"><ele>691.5</ele><time>2026-04-18T09:38:49Z</time></trkpt><trkpt lat="43.95806778971278" lon="7.866613718938153"><ele>690.6666666666666</ele><time>2026-04-18T09:38:50Z</time></trkpt><trkpt lat="43.95798877682835" lon="7.866649120917543"><ele>689.8333333333333</ele><time>2026-04-18T09:38:51Z</time></trkpt><trkpt lat="43.95791125204155" lon="7.866638653035387"><ele>689.0</ele><time>2026-04-18T09:38:52Z</time></trkpt><trkpt lat="43.957822489252436" lon="7.8665923897002905"><ele>689.0</ele><time>2026-04-18T09:38:53Z</time></trkpt><trkpt lat="43.957730903130276" lon="7.866524546436294"><ele>689.0</ele><time>2026-04-18T09:38:54Z</time></trkpt><trkpt lat="43.9576344211407" lon="7.866456758587707"><ele>689.0</ele><time>2026-04-18T09:38:55Z</time></trkpt><trkpt lat="43.957541069969466" lon="7.866389807973118"><ele>689.0</ele><time>2026-04-18T09:38:56Z</time></trkpt><trkpt lat="43.9574482317921" lon="7.866324939293676"><ele>689.0</ele><time>2026-04-18T09:38:57Z</time></trkpt><trkpt lat="43.957354735432475" lon="7.866270825821418"><ele>687.25</ele><time>2026-04-18T09:38:58Z</time></trkpt><trkpt lat="43.95725415896797" lon="7.86625600196368"><ele>685.5</ele><time>2026-04-18T09:38:59Z</time></trkpt><trkpt lat="43.957157995867455" lon="7.866300970117496"><ele>683.75</ele><time>2026-04-18T09:39:00Z</time></trkpt><trkpt lat="43.95706639288991" lon="7.866398649723899"><ele>682.0</ele><time>2026-04-18T09:39:01Z</time></trkpt><trkpt lat="43.95697792930826" lon="7.866538915259541"><ele>682.0</ele><time>2026-04-18T09:39:02Z</time></trkpt><trkpt lat="43.956880401826155" lon="7.86668457710145"><ele>682.0</ele><time>2026-04-18T09:39:03Z</time></trkpt><trkpt lat="43.95678097293807" lon="7.86681342876125"><ele>682.0</ele><time>2026-04-18T09:39:04Z</time></trkpt><trkpt lat="43.956673855358325" lon="7.866923375404097"><ele>682.0</ele><time>2026-04-18T09:39:05Z</time></trkpt><trkpt lat="43.95656978135427" lon="7.867008543240405"><ele>678.0</ele><time>2026-04-18T09:39:06Z</time></trkpt><trkpt lat="43.95646943881898" lon="7.867063067428707"><ele>674.0</ele><time>2026-04-18T09:39:07Z</time></trkpt><trkpt lat="43.95636307583737" lon="7.867074201754002"><ele>670.0</ele><time>2026-04-18T09:39:08Z</time></trkpt><trkpt lat="43.95626963678793" lon="7.867043748385111"><ele>666.0</ele><time>2026-04-18T09:39:09Z</time></trkpt><trkpt lat="43.956195158449034" lon="7.867053883086219"><ele>662.0</ele><time>2026-04-18T09:39:10Z</time></trkpt><trkpt lat="43.95614398678549" lon="7.8672068602374114"><ele>662.0</ele><time>2026-04-18T09:39:12Z</time></trkpt><trkpt lat="43.95615870117475" lon="7.867304882862133"><ele>662.0</ele><time>2026-04-18T09:39:13Z</time></trkpt><trkpt lat="43.956230119920065" lon="7.8673725956632"><ele>662.0</ele><time>2026-04-18T09:39:14Z</time></trkpt><trkpt lat="43.9563331230849" lon="7.867328499109923"><ele>662.0</ele><time>2026-04-18T09:39:15Z</time></trkpt><trkpt lat="43.95643373768104" lon="7.867270869504117"><ele>662.0</ele><time>2026-04-18T09:39:16Z</time></trkpt><trkpt lat="43.95653963158241" lon="7.867214916243467"><ele>662.0</ele><time>2026-04-18T09:39:17Z</time></trkpt><trkpt lat="43.95666406352121" lon="7.867154199822808"><ele>662.0</ele><time>2026-04-18T09:39:18Z</time></trkpt><trkpt lat="43.956779739666096" lon="7.867089965092497"><ele>662.0</ele><time>2026-04-18T09:39:19Z</time></trkpt><trkpt lat="43.9568910052949" lon="7.867034573554975"><ele>662.0</ele><time>2026-04-18T09:39:20Z</time></trkpt><trkpt lat="43.95698972629365" lon="7.8669384631526125"><ele>660.4000000000001</ele><time>2026-04-18T09:39:21Z</time></trkpt><trkpt lat="43.95707946268762" lon="7.86684537624012"><ele>658.8000000000001</ele><time>2026-04-18T09:39:22Z</time></trkpt><trkpt lat="43.957162328907906" lon="7.866789428974502"><ele>657.2</ele><time>2026-04-18T09:39:23Z</time></trkpt><trkpt lat="43.95725878121174" lon="7.866779219692046"><ele>655.6</ele><time>2026-04-18T09:39:24Z</time></trkpt><trkpt lat="43.95734995196497" lon="7.866818770368828"><ele>654.0</ele><time>2026-04-18T09:39:25Z</time></trkpt><trkpt lat="43.957424809558105" lon="7.866908522936832"><ele>654.0</ele><time>2026-04-18T09:39:26Z</time></trkpt><trkpt lat="43.95749177982476" lon="7.867024150763509"><ele>654.0</ele><time>2026-04-18T09:39:27Z</time></trkpt><trkpt lat="43.95754380772349" lon="7.867143684527152"><ele>654.0</ele><time>2026-04-18T09:39:28Z</time></trkpt><trkpt lat="43.95757888319082" lon="7.8672764991799635"><ele>654.0</ele><time>2026-04-18T09:39:29Z</time></trkpt><trkpt lat="43.95760263600586" lon="7.86740772545061"><ele>654.0</ele><time>2026-04-18T09:39:30Z</time></trkpt><trkpt lat="43.95762568183695" lon="7.8675160126021835"><ele>654.6666666666666</ele><time>2026-04-18T09:39:31Z</time></trkpt><trkpt lat="43.95767138206655" lon="7.867603556062897"><ele>655.3333333333334</ele><time>2026-04-18T09:39:32Z</time></trkpt><trkpt lat="43.95773566620913" lon="7.867654635236222"><ele>656.0</ele><time>2026-04-18T09:39:33Z</time></trkpt><trkpt lat="43.95781757461645" lon="7.86766842979785"><ele>656.6666666666667</ele><time>2026-04-18T09:39:34Z</time></trkpt><trkpt lat="43.957908774394475" lon="7.867637871542058"><ele>657.3333333333334</ele><time>2026-04-18T09:39:35Z</time></trkpt><trkpt lat="43.957995027975095" lon="7.867595862931944"><ele>658.0</ele><time>2026-04-18T09:39:36Z</time></trkpt><trkpt lat="43.95808257975455" lon="7.8675599802903164"><ele>658.0</ele><time>2026-04-18T09:39:37Z</time></trkpt><trkpt lat="43.958181086852036" lon="7.867532108159563"><ele>658.0</ele><time>2026-04-18T09:39:38Z</time></trkpt><trkpt lat="43.95828348655716" lon="7.867515955028585"><ele>658.0</ele><time>2026-04-18T09:39:39Z</time></trkpt><trkpt lat="43.95838378018721" lon="7.867506128885092"><ele>658.0</ele><time>2026-04-18T09:39:40Z</time></trkpt><trkpt lat="43.95848252869325" lon="7.8675120993488905"><ele>658.0</ele><time>2026-04-18T09:39:41Z</time></trkpt><trkpt lat="43.95858177498707" lon="7.8675251075170936"><ele>660.4</ele><time>2026-04-18T09:39:42Z</time></trkpt><trkpt lat="43.95868202680916" lon="7.8675421047538405"><ele>662.8</ele><time>2026-04-18T09:39:43Z</time></trkpt><trkpt lat="43.95878717071852" lon="7.867564229897042"><ele>665.2</ele><time>2026-04-18T09:39:44Z</time></trkpt><trkpt lat="43.958882163180824" lon="7.86759543545715"><ele>667.6</ele><time>2026-04-18T09:39:45Z</time></trkpt><trkpt lat="43.95897018060656" lon="7.867637841953469"><ele>670.0</ele><time>2026-04-18T09:39:46Z</time></trkpt><trkpt lat="43.9590523654331" lon="7.867702831529218"><ele>667.6</ele><time>2026-04-18T09:39:47Z</time></trkpt><trkpt lat="43.95912515108099" lon="7.867790036403995"><ele>665.2</ele><time>2026-04-18T09:39:48Z</time></trkpt><trkpt lat="43.95918919510794" lon="7.867897708901534"><ele>662.8</ele><time>2026-04-18T09:39:49Z</time></trkpt><trkpt lat="43.95923808743272" lon="7.86801936716949"><ele>660.4</ele><time>2026-04-18T09:39:50Z</time></trkpt><trkpt lat="43.9592878927871" lon="7.868144481798059"><ele>658.0</ele><time>2026-04-18T09:39:51Z</time></trkpt><trkpt lat="43.959362650775624" lon="7.868246244513215"><ele>658.0</ele><time>2026-04-18T09:39:52Z</time></trkpt><trkpt lat="43.959463108908125" lon="7.868333508016946"><ele>658.0</ele><time>2026-04-18T09:39:53Z</time></trkpt><trkpt lat="43.95956721254956" lon="7.868418045503849"><ele>658.0</ele><time>2026-04-18T09:39:54Z</time></trkpt><trkpt lat="43.9596655859138" lon="7.868504995396202"><ele>658.0</ele><time>2026-04-18T09:39:55Z</time></trkpt><trkpt lat="43.95976116246007" lon="7.868597573710003"><ele>649.5</ele><time>2026-04-18T09:39:56Z</time></trkpt><trkpt lat="43.95986346479104" lon="7.86866900151121"><ele>641.0</ele><time>2026-04-18T09:39:57Z</time></trkpt><trkpt lat="43.95997684019126" lon="7.868698594299313"><ele>632.5</ele><time>2026-04-18T09:39:58Z</time></trkpt><trkpt lat="43.96009369187247" lon="7.868701298802941"><ele>624.0</ele><time>2026-04-18T09:39:59Z</time></trkpt><trkpt lat="43.96020306656431" lon="7.86872118376714"><ele>623.2</ele><time>2026-04-18T09:40:00Z</time></trkpt><trkpt lat="43.960304028678195" lon="7.86877912444818"><ele>622.4</ele><time>2026-04-18T09:40:01Z</time></trkpt><trkpt lat="43.96039345323481" lon="7.868849306201952"><ele>621.6</ele><time>2026-04-18T09:40:02Z</time></trkpt><trkpt lat="43.96048233191574" lon="7.868888669238275"><ele>620.8</ele><time>2026-04-18T09:40:03Z</time></trkpt><trkpt lat="43.96056670512409" lon="7.868864265991822"><ele>620.0</ele><time>2026-04-18T09:40:04Z</time></trkpt><trkpt lat="43.96064538860215" lon="7.868835582373186"><ele>620.0</ele><time>2026-04-18T09:40:05Z</time></trkpt><trkpt lat="43.960710769647406" lon="7.868807689628979"><ele>620.0</ele><time>2026-04-18T09:40:06Z</time></trkpt><trkpt lat="43.96080211715441" lon="7.868854012873277"><ele>620.0</ele><time>2026-04-18T09:40:08Z</time></trkpt><trkpt lat="43.96081839782446" lon="7.868953069192581"><ele>620.0</ele><time>2026-04-18T09:40:09Z</time></trkpt><trkpt lat="43.96079347355334" lon="7.869055546563665"><ele>620.0</ele><time>2026-04-18T09:40:10Z</time></trkpt><trkpt lat="43.96073531001137" lon="7.869109643456593"><ele>620.0</ele><time>2026-04-18T09:40:11Z</time></trkpt><trkpt lat="43.960657135116236" lon="7.869114088325891"><ele>620.0</ele><time>2026-04-18T09:40:12Z</time></trkpt><trkpt lat="43.96056346691508" lon="7.869100914803921"><ele>620.0</ele><time>2026-04-18T09:40:13Z</time></trkpt><trkpt lat="43.960454360212026" lon="7.869077994917941"><ele>620.0</ele><time>2026-04-18T09:40:14Z</time></trkpt><trkpt lat="43.96035385807087" lon="7.869007618608957"><ele>620.0</ele><time>2026-04-18T09:40:15Z</time></trkpt><trkpt lat="43.96023957386134" lon="7.8689676287947155"><ele>620.0</ele><time>2026-04-18T09:40:16Z</time></trkpt><trkpt lat="43.96011785600021" lon="7.868943231997462"><ele>621.0</ele><time>2026-04-18T09:40:17Z</time></trkpt><trkpt lat="43.95998275079201" lon="7.868965191056352"><ele>622.0</ele><time>2026-04-18T09:40:18Z</time></trkpt><trkpt lat="43.959851895530214" lon="7.868969681498176"><ele>623.0</ele><time>2026-04-18T09:40:19Z</time></trkpt><trkpt lat="43.95973155845477" lon="7.869007795899954"><ele>624.0</ele><time>2026-04-18T09:40:20Z</time></trkpt><trkpt lat="43.95960880460432" lon="7.869002526832158"><ele>624.0</ele><time>2026-04-18T09:40:21Z</time></trkpt><trkpt lat="43.95948992817212" lon="7.868963174578388"><ele>624.0</ele><time>2026-04-18T09:40:22Z</time></trkpt><trkpt lat="43.95937316513371" lon="7.868930600723369"><ele>624.0</ele><time>2026-04-18T09:40:23Z</time></trkpt><trkpt lat="43.95925866185957" lon="7.868959559091018"><ele>624.0</ele><time>2026-04-18T09:40:24Z</time></trkpt><trkpt lat="43.95914561428074" lon="7.869001746137882"><ele>622.0</ele><time>2026-04-18T09:40:25Z</time></trkpt><trkpt lat="43.9590506992345" lon="7.869084487464654"><ele>620.0</ele><time>2026-04-18T09:40:26Z</time></trkpt><trkpt lat="43.95894336691596" lon="7.869134653900292"><ele>618.0</ele><time>2026-04-18T09:40:27Z</time></trkpt><trkpt lat="43.95882988253691" lon="7.869119852376323"><ele>616.0</ele><time>2026-04-18T09:40:28Z</time></trkpt><trkpt lat="43.95870947243387" lon="7.869076824996949"><ele>616.0</ele><time>2026-04-18T09:40:29Z</time></trkpt><trkpt lat="43.95857478933025" lon="7.869028785214541"><ele>616.0</ele><time>2026-04-18T09:40:30Z</time></trkpt><trkpt lat="43.95843399464644" lon="7.868994058247867"><ele>616.0</ele><time>2026-04-18T09:40:31Z</time></trkpt><trkpt lat="43.958293354949866" lon="7.8689412406246975"><ele>616.0</ele><time>2026-04-18T09:40:32Z</time></trkpt><trkpt lat="43.958156708351225" lon="7.868891139044331"><ele>614.25</ele><time>2026-04-18T09:40:33Z</time></trkpt><trkpt lat="43.95801774793587" lon="7.86884296198621"><ele>612.5</ele><time>2026-04-18T09:40:34Z</time></trkpt><trkpt lat="43.95787988330398" lon="7.868820609422316"><ele>610.75</ele><time>2026-04-18T09:40:35Z</time></trkpt><trkpt lat="43.95774272022063" lon="7.868843484045635"><ele>609.0</ele><time>2026-04-18T09:40:36Z</time></trkpt><trkpt lat="43.95761688431063" lon="7.868867108996225"><ele>605.75</ele><time>2026-04-18T09:40:37Z</time></trkpt><trkpt lat="43.957495679462276" lon="7.868872399224835"><ele>602.5</ele><time>2026-04-18T09:40:38Z</time></trkpt><trkpt lat="43.95738718833346" lon="7.868821279683328"><ele>599.25</ele><time>2026-04-18T09:40:39Z</time></trkpt><trkpt lat="43.95728392257722" lon="7.868753386272676"><ele>596.0</ele><time>2026-04-18T09:40:40Z</time></trkpt><trkpt lat="43.95717660916549" lon="7.868692204660103"><ele>596.0</ele><time>2026-04-18T09:40:41Z</time></trkpt><trkpt lat="43.95709091532673" lon="7.868617650982084"><ele>596.0</ele><time>2026-04-18T09:40:42Z</time></trkpt><trkpt lat="43.957006766180584" lon="7.868572374910253"><ele>596.0</ele><time>2026-04-18T09:40:43Z</time></trkpt><trkpt lat="43.95692237129538" lon="7.868552552315587"><ele>596.0</ele><time>2026-04-18T09:40:44Z</time></trkpt><trkpt lat="43.95685072044799" lon="7.868643319213427"><ele>596.0</ele><time>2026-04-18T09:40:45Z</time></trkpt><trkpt lat="43.95678698212992" lon="7.868723413787937"><ele>596.0</ele><time>2026-04-18T09:40:46Z</time></trkpt><trkpt lat="43.95670340864116" lon="7.86873481137059"><ele>596.0</ele><time>2026-04-18T09:40:47Z</time></trkpt><trkpt lat="43.95660547873799" lon="7.86871717272068"><ele>596.0</ele><time>2026-04-18T09:40:48Z</time></trkpt><trkpt lat="43.95648969289792" lon="7.868718049825346"><ele>596.0</ele><time>2026-04-18T09:40:49Z</time></trkpt><trkpt lat="43.95636375471061" lon="7.8686883583617915"><ele>596.0</ele><time>2026-04-18T09:40:50Z</time></trkpt><trkpt lat="43.95623191995769" lon="7.868671963548977"><ele>594.75</ele><time>2026-04-18T09:40:51Z</time></trkpt><trkpt lat="43.956100474272816" lon="7.8686863246135115"><ele>593.5</ele><time>2026-04-18T09:40:52Z</time></trkpt><trkpt lat="43.95597597768764" lon="7.868694159241712"><ele>592.25</ele><time>2026-04-18T09:40:53Z</time></trkpt><trkpt lat="43.95586913087518" lon="7.868732825752781"><ele>591.0</ele><time>2026-04-18T09:40:54Z</time></trkpt><trkpt lat="43.955775428557914" lon="7.8687598852940015"><ele>589.2</ele><time>2026-04-18T09:40:55Z</time></trkpt><trkpt lat="43.955691212027396" lon="7.8687661029483404"><ele>587.4000000000001</ele><time>2026-04-18T09:40:56Z</time></trkpt><trkpt lat="43.95562263747753" lon="7.868704460852362"><ele>585.6</ele><time>2026-04-18T09:40:57Z</time></trkpt><trkpt lat="43.95555041694763" lon="7.868600243064981"><ele>583.8000000000001</ele><time>2026-04-18T09:40:58Z</time></trkpt><trkpt lat="43.95546315739557" lon="7.868489995009366"><ele>582.0</ele><time>2026-04-18T09:40:59Z</time></trkpt><trkpt lat="43.955353172389955" lon="7.868402653763039"><ele>583.0</ele><time>2026-04-18T09:41:00Z</time></trkpt><trkpt lat="43.955228570334114" lon="7.868352181555154"><ele>584.0</ele><time>2026-04-18T09:41:01Z</time></trkpt><trkpt lat="43.955109147389855" lon="7.868320078332187"><ele>585.0</ele><time>2026-04-18T09:41:02Z</time></trkpt><trkpt lat="43.954998633988886" lon="7.8682696074506175"><ele>586.0</ele><time>2026-04-18T09:41:03Z</time></trkpt><trkpt lat="43.95490250247963" lon="7.868175937754688"><ele>586.0</ele><time>2026-04-18T09:41:04Z</time></trkpt><trkpt lat="43.95482008321472" lon="7.868055027629339"><ele>586.0</ele><time>2026-04-18T09:41:05Z</time></trkpt><trkpt lat="43.9547663313136" lon="7.867894148837223"><ele>586.0</ele><time>2026-04-18T09:41:06Z</time></trkpt><trkpt lat="43.95469754009833" lon="7.867724512270702"><ele>586.0</ele><time>2026-04-18T09:41:07Z</time></trkpt><trkpt lat="43.95461862307949" lon="7.867564856679232"><ele>592.5</ele><time>2026-04-18T09:41:08Z</time></trkpt><trkpt lat="43.95453415096494" lon="7.8674162388167925"><ele>599.0</ele><time>2026-04-18T09:41:09Z</time></trkpt><trkpt lat="43.95447374185233" lon="7.867251579080159"><ele>605.5</ele><time>2026-04-18T09:41:10Z</time></trkpt><trkpt lat="43.95443212733099" lon="7.867071790770639"><ele>612.0</ele><time>2026-04-18T09:41:11Z</time></trkpt><trkpt lat="43.954400115722315" lon="7.866884807972267"><ele>615.25</ele><time>2026-04-18T09:41:12Z</time></trkpt><trkpt lat="43.95436573097972" lon="7.866701853591257"><ele>618.5</ele><time>2026-04-18T09:41:13Z</time></trkpt><trkpt lat="43.954327664163735" lon="7.8665247884888325"><ele>621.75</ele><time>2026-04-18T09:41:14Z</time></trkpt><trkpt lat="43.95429275137942" lon="7.866357662035599"><ele>625.0</ele><time>2026-04-18T09:41:15Z</time></trkpt><trkpt lat="43.954249063304374" lon="7.866217320982233"><ele>616.75</ele><time>2026-04-18T09:41:16Z</time></trkpt><trkpt lat="43.954171719975" lon="7.866099928735955"><ele>608.5</ele><time>2026-04-18T09:41:17Z</time></trkpt><trkpt lat="43.95406748582493" lon="7.866021275424511"><ele>600.25</ele><time>2026-04-18T09:41:18Z</time></trkpt><trkpt lat="43.953941355652404" lon="7.865967548571308"><ele>592.0</ele><time>2026-04-18T09:41:19Z</time></trkpt><trkpt lat="43.95381629517032" lon="7.865926764058317"><ele>592.0</ele><time>2026-04-18T09:41:20Z</time></trkpt><trkpt lat="43.9536959377209" lon="7.8658911076363935"><ele>592.0</ele><time>2026-04-18T09:41:21Z</time></trkpt><trkpt lat="43.95358841825524" lon="7.865876437185374"><ele>592.0</ele><time>2026-04-18T09:41:22Z</time></trkpt><trkpt lat="43.953492562089075" lon="7.865902184708841"><ele>592.0</ele><time>2026-04-18T09:41:23Z</time></trkpt><trkpt lat="43.9534103367141" lon="7.865985247486261"><ele>592.0</ele><time>2026-04-18T09:41:24Z</time></trkpt><trkpt lat="43.953345093326774" lon="7.866097676280881"><ele>585.5</ele><time>2026-04-18T09:41:25Z</time></trkpt><trkpt lat="43.95326661524026" lon="7.866189382272078"><ele>579.0</ele><time>2026-04-18T09:41:26Z</time></trkpt><trkpt lat="43.953203882690055" lon="7.8662518968591835"><ele>572.5</ele><time>2026-04-18T09:41:27Z</time></trkpt><trkpt lat="43.95313303008347" lon="7.866277278366798"><ele>566.0</ele><time>2026-04-18T09:41:28Z</time></trkpt><trkpt lat="43.953066708173736" lon="7.866223905997384"><ele>559.5</ele><time>2026-04-18T09:41:29Z</time></trkpt><trkpt lat="43.95301348314139" lon="7.866128867992213"><ele>553.0</ele><time>2026-04-18T09:41:30Z</time></trkpt><trkpt lat="43.95294688566161" lon="7.8660150733374765"><ele>556.0</ele><time>2026-04-18T09:41:31Z</time></trkpt><trkpt lat="43.952851015599116" lon="7.865912342283211"><ele>559.0</ele><time>2026-04-18T09:41:32Z</time></trkpt><trkpt lat="43.95272723408558" lon="7.86585583765234"><ele>562.0</ele><time>2026-04-18T09:41:33Z</time></trkpt><trkpt lat="43.95259711760262" lon="7.865813410772898"><ele>565.0</ele><time>2026-04-18T09:41:34Z</time></trkpt><trkpt lat="43.95244855373148" lon="7.865813402350682"><ele>565.0</ele><time>2026-04-18T09:41:35Z</time></trkpt><trkpt lat="43.952314917259464" lon="7.8657902717256265"><ele>565.0</ele><time>2026-04-18T09:41:36Z</time></trkpt><trkpt lat="43.95218227411599" lon="7.8657477137545575"><ele>565.0</ele><time>2026-04-18T09:41:37Z</time></trkpt><trkpt lat="43.95205553536129" lon="7.8656835943869785"><ele>565.0</ele><time>2026-04-18T09:41:38Z</time></trkpt><trkpt lat="43.95193876696125" lon="7.865594262230463"><ele>565.0</ele><time>2026-04-18T09:41:39Z</time></trkpt><trkpt lat="43.95182828819075" lon="7.865484424066185"><ele>565.0</ele><time>2026-04-18T09:41:40Z</time></trkpt><trkpt lat="43.95170529469999" lon="7.865394411006522"><ele>565.0</ele><time>2026-04-18T09:41:41Z</time></trkpt><trkpt lat="43.951574541964064" lon="7.8653430995994045"><ele>565.0</ele><time>2026-04-18T09:41:42Z</time></trkpt><trkpt lat="43.95143369091983" lon="7.865310970528159"><ele>558.25</ele><time>2026-04-18T09:41:43Z</time></trkpt><trkpt lat="43.95129751047991" lon="7.865280979827525"><ele>551.5</ele><time>2026-04-18T09:41:44Z</time></trkpt><trkpt lat="43.95116427871126" lon="7.865245379250272"><ele>544.75</ele><time>2026-04-18T09:41:45Z</time></trkpt><trkpt lat="43.951036244001365" lon="7.865205997456983"><ele>538.0</ele><time>2026-04-18T09:41:46Z</time></trkpt><trkpt lat="43.950923618816134" lon="7.865162097152792"><ele>537.8</ele><time>2026-04-18T09:41:47Z</time></trkpt><trkpt lat="43.95083105005613" lon="7.865112596104097"><ele>537.5999999999999</ele><time>2026-04-18T09:41:48Z</time></trkpt><trkpt lat="43.95075870226086" lon="7.865060148627055"><ele>537.4000000000001</ele><time>2026-04-18T09:41:49Z</time></trkpt><trkpt lat="43.95070565916663" lon="7.8649322820825684"><ele>537.2</ele><time>2026-04-18T09:41:50Z</time></trkpt><trkpt lat="43.95065712983563" lon="7.864797370510338"><ele>537.0</ele><time>2026-04-18T09:41:51Z</time></trkpt><trkpt lat="43.95062848030556" lon="7.8646371874869"><ele>537.0</ele><time>2026-04-18T09:41:52Z</time></trkpt><trkpt lat="43.95062551144606" lon="7.864460546794194"><ele>537.0</ele><time>2026-04-18T09:41:53Z</time></trkpt><trkpt lat="43.950645828228815" lon="7.864254992692927"><ele>537.0</ele><time>2026-04-18T09:41:54Z</time></trkpt><trkpt lat="43.95067701951441" lon="7.864061426808625"><ele>537.0</ele><time>2026-04-18T09:41:55Z</time></trkpt><trkpt lat="43.95069588401556" lon="7.863896865434104"><ele>539.4</ele><time>2026-04-18T09:41:56Z</time></trkpt><trkpt lat="43.950688771918905" lon="7.863766647265554"><ele>541.8000000000001</ele><time>2026-04-18T09:41:57Z</time></trkpt><trkpt lat="43.950637616831" lon="7.863659503661734"><ele>544.2</ele><time>2026-04-18T09:41:58Z</time></trkpt><trkpt lat="43.95055240910588" lon="7.863606833576482"><ele>546.6</ele><time>2026-04-18T09:41:59Z</time></trkpt><trkpt lat="43.95045410076876" lon="7.863579532028639"><ele>549.0</ele><time>2026-04-18T09:42:00Z</time></trkpt><trkpt lat="43.95034694678814" lon="7.863677618259601"><ele>549.0</ele><time>2026-04-18T09:42:01Z</time></trkpt><trkpt lat="43.95023195384449" lon="7.863776306511087"><ele>549.0</ele><time>2026-04-18T09:42:02Z</time></trkpt><trkpt lat="43.95009451899414" lon="7.86386996215308"><ele>549.0</ele><time>2026-04-18T09:42:03Z</time></trkpt><trkpt lat="43.94996820388702" lon="7.863976456270761"><ele>549.0</ele><time>2026-04-18T09:42:04Z</time></trkpt><trkpt lat="43.949850255123984" lon="7.8640745570169965"><ele>544.4</ele><time>2026-04-18T09:42:05Z</time></trkpt><trkpt lat="43.94976611682645" lon="7.8641610364878565"><ele>539.8</ele><time>2026-04-18T09:42:06Z</time></trkpt><trkpt lat="43.94966155267347" lon="7.864174790435371"><ele>535.2</ele><time>2026-04-18T09:42:07Z</time></trkpt><trkpt lat="43.94955573504295" lon="7.864136894500276"><ele>530.6</ele><time>2026-04-18T09:42:08Z</time></trkpt><trkpt lat="43.94943898592015" lon="7.864057658516948"><ele>526.0</ele><time>2026-04-18T09:42:09Z</time></trkpt><trkpt lat="43.94930878933147" lon="7.863960093205344"><ele>520.3333333333334</ele><time>2026-04-18T09:42:10Z</time></trkpt><trkpt lat="43.94916939978603" lon="7.863842934080615"><ele>514.6666666666666</ele><time>2026-04-18T09:42:11Z</time></trkpt><trkpt lat="43.94903153433826" lon="7.863705067648874"><ele>509.0</ele><time>2026-04-18T09:42:12Z</time></trkpt><trkpt lat="43.948896734172635" lon="7.8635786579254"><ele>509.0</ele><time>2026-04-18T09:42:13Z</time></trkpt><trkpt lat="43.9487568604315" lon="7.86348192569675"><ele>509.0</ele><time>2026-04-18T09:42:14Z</time></trkpt><trkpt lat="43.948625283797156" lon="7.86339202035874"><ele>509.0</ele><time>2026-04-18T09:42:15Z</time></trkpt><trkpt lat="43.948501118155974" lon="7.8633446702982015"><ele>509.0</ele><time>2026-04-18T09:42:16Z</time></trkpt><trkpt lat="43.948405116812296" lon="7.863237180790981"><ele>507.66666666666663</ele><time>2026-04-18T09:42:17Z</time></trkpt><trkpt lat="43.94833299333619" lon="7.8630761208950934"><ele>506.33333333333337</ele><time>2026-04-18T09:42:18Z</time></trkpt><trkpt lat="43.94826529845742" lon="7.862876547172576"><ele>505.0</ele><time>2026-04-18T09:42:19Z</time></trkpt><trkpt lat="43.9481809224964" lon="7.862666741255038"><ele>511.33333333333337</ele><time>2026-04-18T09:42:20Z</time></trkpt><trkpt lat="43.94808389818968" lon="7.862483373215249"><ele>517.6666666666666</ele><time>2026-04-18T09:42:21Z</time></trkpt><trkpt lat="43.947987943998235" lon="7.862324754681612"><ele>524.0</ele><time>2026-04-18T09:42:22Z</time></trkpt><trkpt lat="43.94791718205465" lon="7.862157171228529"><ele>524.0</ele><time>2026-04-18T09:42:23Z</time></trkpt><trkpt lat="43.94788377817805" lon="7.861960131063253"><ele>524.0</ele><time>2026-04-18T09:42:24Z</time></trkpt><trkpt lat="43.947872189836" lon="7.861744325445826"><ele>524.0</ele><time>2026-04-18T09:42:25Z</time></trkpt><trkpt lat="43.94788603504306" lon="7.861527687779189"><ele>528.0</ele><time>2026-04-18T09:42:26Z</time></trkpt><trkpt lat="43.947922881968466" lon="7.861303084038101"><ele>532.0</ele><time>2026-04-18T09:42:27Z</time></trkpt><trkpt lat="43.947945736892876" lon="7.861084283158915"><ele>536.0</ele><time>2026-04-18T09:42:28Z</time></trkpt><trkpt lat="43.94792803154095" lon="7.8608713165084065"><ele>537.0</ele><time>2026-04-18T09:42:29Z</time></trkpt><trkpt lat="43.94788241961307" lon="7.860656617463158"><ele>538.0</ele><time>2026-04-18T09:42:30Z</time></trkpt><trkpt lat="43.9478319058766" lon="7.860441705624164"><ele>539.0</ele><time>2026-04-18T09:42:31Z</time></trkpt><trkpt lat="43.94778294496004" lon="7.8602399491877994"><ele>540.75</ele><time>2026-04-18T09:42:32Z</time></trkpt><trkpt lat="43.94773723578485" lon="7.860055720438856"><ele>542.5</ele><time>2026-04-18T09:42:33Z</time></trkpt><trkpt lat="43.94767740595472" lon="7.859882453310917"><ele>544.25</ele><time>2026-04-18T09:42:34Z</time></trkpt><trkpt lat="43.94759372267242" lon="7.859721630943189"><ele>546.0</ele><time>2026-04-18T09:42:35Z</time></trkpt><trkpt lat="43.94748616870063" lon="7.859564771369901"><ele>538.0</ele><time>2026-04-18T09:42:36Z</time></trkpt><trkpt lat="43.94738527344252" lon="7.85941947205998"><ele>530.0</ele><time>2026-04-18T09:42:37Z</time></trkpt><trkpt lat="43.94729662242424" lon="7.859297111566582"><ele>522.0</ele><time>2026-04-18T09:42:38Z</time></trkpt><trkpt lat="43.947219262548536" lon="7.859196262848102"><ele>514.0</ele><time>2026-04-18T09:42:39Z</time></trkpt><trkpt lat="43.94713719004734" lon="7.859121948020652"><ele>514.0</ele><time>2026-04-18T09:42:40Z</time></trkpt><trkpt lat="43.947041743610605" lon="7.859090054468408"><ele>514.0</ele><time>2026-04-18T09:42:41Z</time></trkpt><trkpt lat="43.94692530817898" lon="7.85910485301325"><ele>514.0</ele><time>2026-04-18T09:42:42Z</time></trkpt><trkpt lat="43.94681544154413" lon="7.859106627313921"><ele>514.0</ele><time>2026-04-18T09:42:43Z</time></trkpt><trkpt lat="43.94671657073119" lon="7.859106674930421"><ele>514.0</ele><time>2026-04-18T09:42:44Z</time></trkpt><trkpt lat="43.94661139533924" lon="7.859069609894501"><ele>508.2</ele><time>2026-04-18T09:42:45Z</time></trkpt><trkpt lat="43.94650670627117" lon="7.859030643574162"><ele>502.4</ele><time>2026-04-18T09:42:46Z</time></trkpt><trkpt lat="43.94640950995584" lon="7.858996988352244"><ele>496.6</ele><time>2026-04-18T09:42:47Z</time></trkpt><trkpt lat="43.94634940227825" lon="7.858905714200282"><ele>490.8</ele><time>2026-04-18T09:42:48Z</time></trkpt><trkpt lat="43.946348887590105" lon="7.858768547408846"><ele>485.0</ele><time>2026-04-18T09:42:49Z</time></trkpt><trkpt lat="43.946334995461136" lon="7.858625764874178"><ele>485.0</ele><time>2026-04-18T09:42:50Z</time></trkpt><trkpt lat="43.946322639188445" lon="7.858481284989199"><ele>485.0</ele><time>2026-04-18T09:42:51Z</time></trkpt><trkpt lat="43.946276446858725" lon="7.858338554201461"><ele>485.0</ele><time>2026-04-18T09:42:52Z</time></trkpt><trkpt lat="43.94620740384537" lon="7.8582096230869745"><ele>485.0</ele><time>2026-04-18T09:42:53Z</time></trkpt><trkpt lat="43.94613096515399" lon="7.858082502856948"><ele>486.0</ele><time>2026-04-18T09:42:54Z</time></trkpt><trkpt lat="43.94604670466713" lon="7.857946792104077"><ele>487.0</ele><time>2026-04-18T09:42:55Z</time></trkpt><trkpt lat="43.945954845778544" lon="7.857814425403607"><ele>488.0</ele><time>2026-04-18T09:42:56Z</time></trkpt><trkpt lat="43.945846926963156" lon="7.857698355489692"><ele>489.0</ele><time>2026-04-18T09:42:57Z</time></trkpt><trkpt lat="43.94572440945267" lon="7.857609825754853"><ele>489.0</ele><time>2026-04-18T09:42:58Z</time></trkpt><trkpt lat="43.94560457847063" lon="7.85754638867156"><ele>489.0</ele><time>2026-04-18T09:42:59Z</time></trkpt><trkpt lat="43.94550353865149" lon="7.8575015644428445"><ele>489.0</ele><time>2026-04-18T09:43:00Z</time></trkpt><trkpt lat="43.94542046030051" lon="7.857453951710562"><ele>489.0</ele><time>2026-04-18T09:43:01Z</time></trkpt><trkpt lat="43.945361133736135" lon="7.857382828081073"><ele>489.0</ele><time>2026-04-18T09:43:02Z</time></trkpt><trkpt lat="43.94532509039538" lon="7.857280112647336"><ele>489.0</ele><time>2026-04-18T09:43:03Z</time></trkpt><trkpt lat="43.94532337302195" lon="7.857156101416237"><ele>489.0</ele><time>2026-04-18T09:43:04Z</time></trkpt><trkpt lat="43.945376324029" lon="7.857047684847492"><ele>489.0</ele><time>2026-04-18T09:43:05Z</time></trkpt><trkpt lat="43.9454500816512" lon="7.856946479445986"><ele>489.0</ele><time>2026-04-18T09:43:06Z</time></trkpt><trkpt lat="43.94548514957114" lon="7.856840595384897"><ele>489.0</ele><time>2026-04-18T09:43:07Z</time></trkpt><trkpt lat="43.94545859418613" lon="7.8567289367512"><ele>491.2</ele><time>2026-04-18T09:43:08Z</time></trkpt><trkpt lat="43.945395165364374" lon="7.856640085049645"><ele>493.4</ele><time>2026-04-18T09:43:09Z</time></trkpt><trkpt lat="43.945310466642574" lon="7.856593848012279"><ele>495.6</ele><time>2026-04-18T09:43:10Z</time></trkpt><trkpt lat="43.94520473290248" lon="7.856603138162148"><ele>497.8</ele><time>2026-04-18T09:43:11Z</time></trkpt><trkpt lat="43.94508679436646" lon="7.856647539463235"><ele>500.0</ele><time>2026-04-18T09:43:12Z</time></trkpt><trkpt lat="43.94498441771225" lon="7.8567020196187105"><ele>494.99999999999994</ele><time>2026-04-18T09:43:13Z</time></trkpt><trkpt lat="43.94489221269248" lon="7.8567334313631845"><ele>490.0</ele><time>2026-04-18T09:43:14Z</time></trkpt><trkpt lat="43.94480672098935" lon="7.85675548447482"><ele>485.0</ele><time>2026-04-18T09:43:15Z</time></trkpt><trkpt lat="43.944730681856825" lon="7.856736082793749"><ele>480.0</ele><time>2026-04-18T09:43:16Z</time></trkpt><trkpt lat="43.9446683500965" lon="7.856675139308345"><ele>474.99999999999994</ele><time>2026-04-18T09:43:17Z</time></trkpt><trkpt lat="43.94463394291699" lon="7.8565848523654305"><ele>470.0</ele><time>2026-04-18T09:43:18Z</time></trkpt><trkpt lat="43.944602712152715" lon="7.856472060118278"><ele>470.0</ele><time>2026-04-18T09:43:19Z</time></trkpt><trkpt lat="43.94455072128633" lon="7.856352322560229"><ele>470.0</ele><time>2026-04-18T09:43:20Z</time></trkpt><trkpt lat="43.94446966710759" lon="7.856258760222754"><ele>470.0</ele><time>2026-04-18T09:43:21Z</time></trkpt><trkpt lat="43.9443465309403" lon="7.856199086167899"><ele>470.0</ele><time>2026-04-18T09:43:22Z</time></trkpt><trkpt lat="43.94420532282497" lon="7.856157945015095"><ele>461.5</ele><time>2026-04-18T09:43:23Z</time></trkpt><trkpt lat="43.94406136776029" lon="7.856101219238176"><ele>453.0</ele><time>2026-04-18T09:43:24Z</time></trkpt><trkpt lat="43.9439237745561" lon="7.856078477704907"><ele>444.5</ele><time>2026-04-18T09:43:25Z</time></trkpt><trkpt lat="43.94381021016734" lon="7.856075782202198"><ele>436.0</ele><time>2026-04-18T09:43:26Z</time></trkpt><trkpt lat="43.943707793162034" lon="7.85607319607634"><ele>436.00000000000006</ele><time>2026-04-18T09:43:27Z</time></trkpt><trkpt lat="43.94362253120965" lon="7.856054162042544"><ele>436.0</ele><time>2026-04-18T09:43:28Z</time></trkpt><trkpt lat="43.94354494646177" lon="7.856004428153896"><ele>436.0</ele><time>2026-04-18T09:43:29Z</time></trkpt><trkpt lat="43.94348667676956" lon="7.855911161006756"><ele>436.0</ele><time>2026-04-18T09:43:30Z</time></trkpt><trkpt lat="43.94344219237917" lon="7.855795135685159"><ele>436.00000000000006</ele><time>2026-04-18T09:43:31Z</time></trkpt><trkpt lat="43.94340153959936" lon="7.855697553823622"><ele>436.0</ele><time>2026-04-18T09:43:32Z</time></trkpt><trkpt lat="43.94333927355785" lon="7.855638664155535"><ele>433.83333333333337</ele><time>2026-04-18T09:43:33Z</time></trkpt><trkpt lat="43.94326274081138" lon="7.855633262963304"><ele>431.6666666666667</ele><time>2026-04-18T09:43:34Z</time></trkpt><trkpt lat="43.94319026921869" lon="7.855661717971265"><ele>429.5</ele><time>2026-04-18T09:43:35Z</time></trkpt><trkpt lat="43.943121311305546" lon="7.85575924723702"><ele>427.33333333333337</ele><time>2026-04-18T09:43:36Z</time></trkpt><trkpt lat="43.943055974583906" lon="7.855868223028684"><ele>425.1666666666667</ele><time>2026-04-18T09:43:37Z</time></trkpt><trkpt lat="43.94299745263779" lon="7.855969146575974"><ele>423.0</ele><time>2026-04-18T09:43:38Z</time></trkpt><trkpt lat="43.94294221705317" lon="7.856047359023367"><ele>423.0</ele><time>2026-04-18T09:43:39Z</time></trkpt><trkpt lat="43.942879998613876" lon="7.856080174996553"><ele>423.0</ele><time>2026-04-18T09:43:40Z</time></trkpt><trkpt lat="43.942813338405024" lon="7.856055291485306"><ele>423.0</ele><time>2026-04-18T09:43:41Z</time></trkpt><trkpt lat="43.94275234335378" lon="7.855997684751317"><ele>423.0</ele><time>2026-04-18T09:43:42Z</time></trkpt><trkpt lat="43.94273818862854" lon="7.855861629445191"><ele>423.0</ele><time>2026-04-18T09:43:43Z</time></trkpt><trkpt lat="43.94270639584879" lon="7.8557102048867"><ele>423.0</ele><time>2026-04-18T09:43:44Z</time></trkpt><trkpt lat="43.94268476801017" lon="7.855544448835689"><ele>421.66666666666663</ele><time>2026-04-18T09:43:45Z</time></trkpt><trkpt lat="43.942627263263816" lon="7.855360975752461"><ele>420.3333333333333</ele><time>2026-04-18T09:43:46Z</time></trkpt><trkpt lat="43.94253780075892" lon="7.855163638589199"><ele>419.0</ele><time>2026-04-18T09:43:47Z</time></trkpt><trkpt lat="43.94244238348568" lon="7.854969359002465"><ele>424.0</ele><time>2026-04-18T09:43:48Z</time></trkpt><trkpt lat="43.94235253764859" lon="7.854778090397014"><ele>429.0</ele><time>2026-04-18T09:43:49Z</time></trkpt><trkpt lat="43.94227162860891" lon="7.8546012600663255"><ele>434.0</ele><time>2026-04-18T09:43:50Z</time></trkpt><trkpt lat="43.94219683237901" lon="7.854446905189355"><ele>439.0</ele><time>2026-04-18T09:43:51Z</time></trkpt><trkpt lat="43.94213259418768" lon="7.854307264415422"><ele>445.0</ele><time>2026-04-18T09:43:52Z</time></trkpt><trkpt lat="43.94208923790374" lon="7.854158314636887"><ele>451.0</ele><time>2026-04-18T09:43:53Z</time></trkpt><trkpt lat="43.94207771188226" lon="7.854007242136723"><ele>457.0</ele><time>2026-04-18T09:43:54Z</time></trkpt><trkpt lat="43.94206151832734" lon="7.853880832374181"><ele>463.0</ele><time>2026-04-18T09:43:55Z</time></trkpt><trkpt lat="43.9420045260231" lon="7.8538015373832675"><ele>469.0</ele><time>2026-04-18T09:43:56Z</time></trkpt><trkpt lat="43.94191921375136" lon="7.853797084802275"><ele>469.0</ele><time>2026-04-18T09:43:57Z</time></trkpt><trkpt lat="43.94182601225759" lon="7.853823401162669"><ele>469.0</ele><time>2026-04-18T09:43:58Z</time></trkpt><trkpt lat="43.94171990877391" lon="7.853879572141071"><ele>469.0</ele><time>2026-04-18T09:43:59Z</time></trkpt><trkpt lat="43.941597334833254" lon="7.853912245916103"><ele>469.0</ele><time>2026-04-18T09:44:00Z</time></trkpt><trkpt lat="43.94146772360165" lon="7.8538528888916295"><ele>457.0</ele><time>2026-04-18T09:44:01Z</time></trkpt><trkpt lat="43.94134621561258" lon="7.853840009523636"><ele>445.0</ele><time>2026-04-18T09:44:02Z</time></trkpt><trkpt lat="43.94123697816727" lon="7.853783891418306"><ele>433.0</ele><time>2026-04-18T09:44:03Z</time></trkpt><trkpt lat="43.941153578347105" lon="7.853689642607"><ele>421.0</ele><time>2026-04-18T09:44:04Z</time></trkpt><trkpt lat="43.94108685282208" lon="7.853564597656394"><ele>420.0</ele><time>2026-04-18T09:44:05Z</time></trkpt><trkpt lat="43.941019957759444" lon="7.853438020545145"><ele>419.0</ele><time>2026-04-18T09:44:06Z</time></trkpt><trkpt lat="43.94093538827502" lon="7.853373669378551"><ele>418.0</ele><time>2026-04-18T09:44:07Z</time></trkpt><trkpt lat="43.94084661943019" lon="7.853349147900928"><ele>417.0</ele><time>2026-04-18T09:44:08Z</time></trkpt><trkpt lat="43.940754332261676" lon="7.853436688180207"><ele>416.0</ele><time>2026-04-18T09:44:09Z</time></trkpt><trkpt lat="43.94066774387238" lon="7.853464757948584"><ele>416.0</ele><time>2026-04-18T09:44:10Z</time></trkpt><trkpt lat="43.94058477178255" lon="7.853414027129695"><ele>416.0</ele><time>2026-04-18T09:44:11Z</time></trkpt><trkpt lat="43.94052132703509" lon="7.853304759689491"><ele>416.0</ele><time>2026-04-18T09:44:12Z</time></trkpt><trkpt lat="43.94050492779849" lon="7.853170275293163"><ele>416.0</ele><time>2026-04-18T09:44:13Z</time></trkpt><trkpt lat="43.94051347149376" lon="7.853016410379973"><ele>416.0</ele><time>2026-04-18T09:44:14Z</time></trkpt><trkpt lat="43.940523147874266" lon="7.852843196240277"><ele>416.0</ele><time>2026-04-18T09:44:15Z</time></trkpt><trkpt lat="43.94053462270063" lon="7.852682184624174"><ele>416.0</ele><time>2026-04-18T09:44:16Z</time></trkpt><trkpt lat="43.940542516756544" lon="7.852532786482901"><ele>416.0</ele><time>2026-04-18T09:44:17Z</time></trkpt><trkpt lat="43.94053034811142" lon="7.8524008322263175"><ele>416.0</ele><time>2026-04-18T09:44:18Z</time></trkpt><trkpt lat="43.9404753068049" lon="7.852305186606748"><ele>416.0</ele><time>2026-04-18T09:44:19Z</time></trkpt><trkpt lat="43.94039548348319" lon="7.852272071119436"><ele>419.8</ele><time>2026-04-18T09:44:20Z</time></trkpt><trkpt lat="43.94031948214121" lon="7.852269974089569"><ele>423.6</ele><time>2026-04-18T09:44:21Z</time></trkpt><trkpt lat="43.94024926335147" lon="7.852383632114044"><ele>427.4</ele><time>2026-04-18T09:44:22Z</time></trkpt><trkpt lat="43.94019291112236" lon="7.852500283670811"><ele>431.2</ele><time>2026-04-18T09:44:23Z</time></trkpt><trkpt lat="43.940126649824364" lon="7.852601916371121"><ele>435.0</ele><time>2026-04-18T09:44:24Z</time></trkpt><trkpt lat="43.940031746448476" lon="7.8526838186754855"><ele>423.75</ele><time>2026-04-18T09:44:25Z</time></trkpt><trkpt lat="43.93993705177801" lon="7.852718644615521"><ele>412.5</ele><time>2026-04-18T09:44:26Z</time></trkpt><trkpt lat="43.93980570062832" lon="7.852714690389759"><ele>401.25</ele><time>2026-04-18T09:44:27Z</time></trkpt><trkpt lat="43.93965393402048" lon="7.852709305951685"><ele>390.0</ele><time>2026-04-18T09:44:28Z</time></trkpt><trkpt lat="43.93948680078236" lon="7.852701505350348"><ele>390.0</ele><time>2026-04-18T09:44:29Z</time></trkpt><trkpt lat="43.939322211898066" lon="7.852711861699682"><ele>390.0</ele><time>2026-04-18T09:44:30Z</time></trkpt><trkpt lat="43.93917415098649" lon="7.852708368228847"><ele>390.0</ele><time>2026-04-18T09:44:31Z</time></trkpt><trkpt lat="43.9390315319162" lon="7.852712030687238"><ele>385.75</ele><time>2026-04-18T09:44:32Z</time></trkpt><trkpt lat="43.9388949612093" lon="7.852722685491479"><ele>381.5</ele><time>2026-04-18T09:44:33Z</time></trkpt><trkpt lat="43.93877218191659" lon="7.852716555697206"><ele>377.25</ele><time>2026-04-18T09:44:34Z</time></trkpt><trkpt lat="43.93865415900464" lon="7.8526826446956886"><ele>373.0</ele><time>2026-04-18T09:44:35Z</time></trkpt><trkpt lat="43.938545053980086" lon="7.852611776189741"><ele>376.5</ele><time>2026-04-18T09:44:36Z</time></trkpt><trkpt lat="43.93843844903547" lon="7.852517982184243"><ele>380.0</ele><time>2026-04-18T09:44:37Z</time></trkpt><trkpt lat="43.93835035386787" lon="7.85240078011641"><ele>383.5</ele><time>2026-04-18T09:44:38Z</time></trkpt><trkpt lat="43.93825778355322" lon="7.852254378870984"><ele>387.0</ele><time>2026-04-18T09:44:39Z</time></trkpt><trkpt lat="43.938149296516734" lon="7.852106552791552"><ele>387.0</ele><time>2026-04-18T09:44:40Z</time></trkpt><trkpt lat="43.9380167581232" lon="7.851993192854026"><ele>387.0</ele><time>2026-04-18T09:44:41Z</time></trkpt><trkpt lat="43.937892355234865" lon="7.8518905538932415"><ele>387.0</ele><time>2026-04-18T09:44:42Z</time></trkpt><trkpt lat="43.93778249612686" lon="7.851806709384913"><ele>387.0</ele><time>2026-04-18T09:44:43Z</time></trkpt><trkpt lat="43.93768254643115" lon="7.85173803378171"><ele>383.6</ele><time>2026-04-18T09:44:44Z</time></trkpt><trkpt lat="43.93759703025937" lon="7.851664359836919"><ele>380.20000000000005</ele><time>2026-04-18T09:44:45Z</time></trkpt><trkpt lat="43.93753323200057" lon="7.8515607612567475"><ele>376.8</ele><time>2026-04-18T09:44:46Z</time></trkpt><trkpt lat="43.93749791752056" lon="7.851430552610119"><ele>373.4</ele><time>2026-04-18T09:44:47Z</time></trkpt><trkpt lat="43.93748011524846" lon="7.85127867325032"><ele>370.0</ele><time>2026-04-18T09:44:48Z</time></trkpt><trkpt lat="43.93748151496423" lon="7.851125418795977"><ele>370.0</ele><time>2026-04-18T09:44:49Z</time></trkpt><trkpt lat="43.93749541694268" lon="7.850986594210582"><ele>370.0</ele><time>2026-04-18T09:44:50Z</time></trkpt><trkpt lat="43.93750637268577" lon="7.850863561273552"><ele>370.0</ele><time>2026-04-18T09:44:51Z</time></trkpt><trkpt lat="43.9374941864862" lon="7.85075109148983"><ele>370.0</ele><time>2026-04-18T09:44:52Z</time></trkpt><trkpt lat="43.93744890358065" lon="7.850647942791737"><ele>370.0</ele><time>2026-04-18T09:44:53Z</time></trkpt><trkpt lat="43.93737956519343" lon="7.850578250015561"><ele>370.0</ele><time>2026-04-18T09:44:54Z</time></trkpt><trkpt lat="43.93730063582579" lon="7.85049972157996"><ele>374.5</ele><time>2026-04-18T09:44:55Z</time></trkpt><trkpt lat="43.93722653441919" lon="7.850393257454471"><ele>379.0</ele><time>2026-04-18T09:44:56Z</time></trkpt><trkpt lat="43.93716141216878" lon="7.850262418324096"><ele>383.5</ele><time>2026-04-18T09:44:57Z</time></trkpt><trkpt lat="43.9371007704404" lon="7.850115984515123"><ele>388.0</ele><time>2026-04-18T09:44:58Z</time></trkpt><trkpt lat="43.937026920275976" lon="7.849982670951472"><ele>392.5</ele><time>2026-04-18T09:44:59Z</time></trkpt><trkpt lat="43.936929194738326" lon="7.849869039666356"><ele>397.0</ele><time>2026-04-18T09:45:00Z</time></trkpt><trkpt lat="43.93681795264339" lon="7.849780976100338"><ele>401.5</ele><time>2026-04-18T09:45:01Z</time></trkpt><trkpt lat="43.93671460396951" lon="7.849680323652216"><ele>406.0</ele><time>2026-04-18T09:45:02Z</time></trkpt><trkpt lat="43.93662787111753" lon="7.849585838649308"><ele>397.20000000000005</ele><time>2026-04-18T09:45:03Z</time></trkpt><trkpt lat="43.9365320604048" lon="7.849528835315398"><ele>388.40000000000003</ele><time>2026-04-18T09:45:04Z</time></trkpt><trkpt lat="43.93642629689194" lon="7.849505633929217"><ele>379.6</ele><time>2026-04-18T09:45:05Z</time></trkpt><trkpt lat="43.93631750093908" lon="7.84948220973336"><ele>370.8</ele><time>2026-04-18T09:45:06Z</time></trkpt><trkpt lat="43.93619700188562" lon="7.849465121034089"><ele>362.0</ele><time>2026-04-18T09:45:07Z</time></trkpt><trkpt lat="43.93608317035494" lon="7.849431895960238"><ele>362.0</ele><time>2026-04-18T09:45:08Z</time></trkpt><trkpt lat="43.93597634643479" lon="7.8494353121709315"><ele>362.0</ele><time>2026-04-18T09:45:09Z</time></trkpt><trkpt lat="43.93589060737376" lon="7.849400473466345"><ele>362.0</ele><time>2026-04-18T09:45:10Z</time></trkpt><trkpt lat="43.93583530918106" lon="7.849330852191944"><ele>362.0</ele><time>2026-04-18T09:45:11Z</time></trkpt><trkpt lat="43.93580796615582" lon="7.849226722881824"><ele>362.0</ele><time>2026-04-18T09:45:12Z</time></trkpt><trkpt lat="43.93579776855012" lon="7.849079750108269"><ele>361.40000000000003</ele><time>2026-04-18T09:45:13Z</time></trkpt><trkpt lat="43.93578636618184" lon="7.848913593051263"><ele>360.8</ele><time>2026-04-18T09:45:14Z</time></trkpt><trkpt lat="43.9357709013587" lon="7.8487621881224765"><ele>360.2</ele><time>2026-04-18T09:45:15Z</time></trkpt><trkpt lat="43.93573467021335" lon="7.848648448219742"><ele>359.6</ele><time>2026-04-18T09:45:16Z</time></trkpt><trkpt lat="43.935656627050044" lon="7.848581185791654"><ele>359.0</ele><time>2026-04-18T09:45:17Z</time></trkpt><trkpt lat="43.93554447628576" lon="7.848531957134059"><ele>367.5</ele><time>2026-04-18T09:45:18Z</time></trkpt><trkpt lat="43.93542208756828" lon="7.848451541316547"><ele>376.0</ele><time>2026-04-18T09:45:19Z</time></trkpt><trkpt lat="43.93530236255694" lon="7.848320010987957"><ele>384.5</ele><time>2026-04-18T09:45:20Z</time></trkpt><trkpt lat="43.935200910354105" lon="7.848185398257175"><ele>393.0</ele><time>2026-04-18T09:45:21Z</time></trkpt><trkpt lat="43.935099707322586" lon="7.848071128898484"><ele>382.75</ele><time>2026-04-18T09:45:22Z</time></trkpt><trkpt lat="43.9349843789471" lon="7.848005261483893"><ele>372.5</ele><time>2026-04-18T09:45:23Z</time></trkpt><trkpt lat="43.93485153434305" lon="7.848005165812637"><ele>362.25</ele><time>2026-04-18T09:45:24Z</time></trkpt><trkpt lat="43.934720103089944" lon="7.847996761474228"><ele>352.0</ele><time>2026-04-18T09:45:25Z</time></trkpt><trkpt lat="43.93458825437128" lon="7.847948085937543"><ele>352.0</ele><time>2026-04-18T09:45:26Z</time></trkpt><trkpt lat="43.93445010692144" lon="7.847909939954302"><ele>352.0</ele><time>2026-04-18T09:45:27Z</time></trkpt><trkpt lat="43.93429010966437" lon="7.847902423333673"><ele>352.0</ele><time>2026-04-18T09:45:28Z</time></trkpt><trkpt lat="43.934134492631806" lon="7.847910935874819"><ele>346.75</ele><time>2026-04-18T09:45:29Z</time></trkpt><trkpt lat="43.933994271120035" lon="7.847925320603226"><ele>341.5</ele><time>2026-04-18T09:45:30Z</time></trkpt><trkpt lat="43.93387819145976" lon="7.847926128824731"><ele>336.25</ele><time>2026-04-18T09:45:31Z</time></trkpt><trkpt lat="43.93377189975426" lon="7.8479466836791865"><ele>331.0</ele><time>2026-04-18T09:45:32Z</time></trkpt><trkpt lat="43.93367563081523" lon="7.847957180244755"><ele>331.0</ele><time>2026-04-18T09:45:33Z</time></trkpt><trkpt lat="43.93358557209986" lon="7.847886021287473"><ele>331.0</ele><time>2026-04-18T09:45:34Z</time></trkpt><trkpt lat="43.93350065865881" lon="7.847772697223767"><ele>331.0</ele><time>2026-04-18T09:45:35Z</time></trkpt><trkpt lat="43.93340334174897" lon="7.8476763004168735"><ele>331.0</ele><time>2026-04-18T09:45:36Z</time></trkpt><trkpt lat="43.93329706369464" lon="7.847639006366889"><ele>336.20000000000005</ele><time>2026-04-18T09:45:37Z</time></trkpt><trkpt lat="43.93320104614636" lon="7.847621319895058"><ele>341.40000000000003</ele><time>2026-04-18T09:45:38Z</time></trkpt><trkpt lat="43.933128199373144" lon="7.8475673224312255"><ele>346.6</ele><time>2026-04-18T09:45:39Z</time></trkpt><trkpt lat="43.93308945225742" lon="7.84746360753514"><ele>351.8</ele><time>2026-04-18T09:45:40Z</time></trkpt><trkpt lat="43.93305938157743" lon="7.847334917492372"><ele>357.0</ele><time>2026-04-18T09:45:41Z</time></trkpt><trkpt lat="43.93300236869384" lon="7.847194858324921"><ele>357.0</ele><time>2026-04-18T09:45:42Z</time></trkpt><trkpt lat="43.932908352409505" lon="7.847061293512009"><ele>357.0</ele><time>2026-04-18T09:45:43Z</time></trkpt><trkpt lat="43.93280421744216" lon="7.846918642638449"><ele>357.0</ele><time>2026-04-18T09:45:44Z</time></trkpt><trkpt lat="43.932702970178354" lon="7.846790000925834"><ele>357.0</ele><time>2026-04-18T09:45:45Z</time></trkpt><trkpt lat="43.93260204196261" lon="7.846676608189084"><ele>356.0</ele><time>2026-04-18T09:45:46Z</time></trkpt><trkpt lat="43.93249569371972" lon="7.846584453075984"><ele>355.0</ele><time>2026-04-18T09:45:47Z</time></trkpt><trkpt lat="43.93238543600327" lon="7.846512456846293"><ele>354.0</ele><time>2026-04-18T09:45:48Z</time></trkpt><trkpt lat="43.93227545140256" lon="7.846461291693208"><ele>353.0</ele><time>2026-04-18T09:45:49Z</time></trkpt><trkpt lat="43.93216291714773" lon="7.8464366708573525"><ele>353.0</ele><time>2026-04-18T09:45:50Z</time></trkpt><trkpt lat="43.93205371930158" lon="7.846450664702547"><ele>353.0</ele><time>2026-04-18T09:45:51Z</time></trkpt><trkpt lat="43.931940965438336" lon="7.846490112495971"><ele>353.0</ele><time>2026-04-18T09:45:52Z</time></trkpt><trkpt lat="43.93181932245052" lon="7.846512668433065"><ele>353.0</ele><time>2026-04-18T09:45:53Z</time></trkpt><trkpt lat="43.931686293492746" lon="7.846492913910889"><ele>347.5</ele><time>2026-04-18T09:45:54Z</time></trkpt><trkpt lat="43.93154423009802" lon="7.846464547281398"><ele>342.0</ele><time>2026-04-18T09:45:55Z</time></trkpt><trkpt lat="43.93140142827772" lon="7.846450314080787"><ele>336.5</ele><time>2026-04-18T09:45:56Z</time></trkpt><trkpt lat="43.93126955621373" lon="7.846457518876729"><ele>331.0</ele><time>2026-04-18T09:45:57Z</time></trkpt><trkpt lat="43.931146572342655" lon="7.8464779543854775"><ele>331.0</ele><time>2026-04-18T09:45:58Z</time></trkpt><trkpt lat="43.93103520661068" lon="7.846489434220567"><ele>331.0</ele><time>2026-04-18T09:45:59Z</time></trkpt><trkpt lat="43.930927564730474" lon="7.846497696677107"><ele>331.0</ele><time>2026-04-18T09:46:00Z</time></trkpt><trkpt lat="43.93083017136494" lon="7.846483788785942"><ele>331.0</ele><time>2026-04-18T09:46:01Z</time></trkpt><trkpt lat="43.93075482455996" lon="7.846414406354751"><ele>331.0</ele><time>2026-04-18T09:46:02Z</time></trkpt><trkpt lat="43.930696477963075" lon="7.84630125551372"><ele>326.6</ele><time>2026-04-18T09:46:03Z</time></trkpt><trkpt lat="43.930653806572764" lon="7.846163047272415"><ele>322.20000000000005</ele><time>2026-04-18T09:46:04Z</time></trkpt><trkpt lat="43.93060621098903" lon="7.846045891799253"><ele>317.79999999999995</ele><time>2026-04-18T09:46:05Z</time></trkpt><trkpt lat="43.93052698385982" lon="7.845961488754355"><ele>313.4</ele><time>2026-04-18T09:46:06Z</time></trkpt><trkpt lat="43.93042337826474" lon="7.845909485647383"><ele>309.0</ele><time>2026-04-18T09:46:07Z</time></trkpt><trkpt lat="43.930305260712586" lon="7.845866031866671"><ele>309.0</ele><time>2026-04-18T09:46:08Z</time></trkpt><trkpt lat="43.93019052648036" lon="7.845814304513312"><ele>309.0</ele><time>2026-04-18T09:46:09Z</time></trkpt><trkpt lat="43.93007810209907" lon="7.845765785069435"><ele>309.0</ele><time>2026-04-18T09:46:10Z</time></trkpt><trkpt lat="43.92996918190789" lon="7.8457153292947615"><ele>309.0</ele><time>2026-04-18T09:46:11Z</time></trkpt><trkpt lat="43.92986376334032" lon="7.84566151392651"><ele>310.0</ele><time>2026-04-18T09:46:12Z</time></trkpt><trkpt lat="43.92976877930977" lon="7.845616117271753"><ele>311.0</ele><time>2026-04-18T09:46:13Z</time></trkpt><trkpt lat="43.92968686357428" lon="7.845569563553224"><ele>312.0</ele><time>2026-04-18T09:46:14Z</time></trkpt><trkpt lat="43.92961286272699" lon="7.845528895185538"><ele>313.0</ele><time>2026-04-18T09:46:15Z</time></trkpt><trkpt lat="43.92954290793692" lon="7.845496902821855"><ele>314.0</ele><time>2026-04-18T09:46:16Z</time></trkpt><trkpt lat="43.92947524132946" lon="7.845466573526937"><ele>315.0</ele><time>2026-04-18T09:46:17Z</time></trkpt><trkpt lat="43.929421536167894" lon="7.84541074642179"><ele>315.0</ele><time>2026-04-18T09:46:18Z</time></trkpt><trkpt lat="43.929323724786045" lon="7.845312993069653"><ele>315.0</ele><time>2026-04-18T09:46:20Z</time></trkpt><trkpt lat="43.92927726118481" lon="7.845158144795786"><ele>315.0</ele><time>2026-04-18T09:46:22Z</time></trkpt><trkpt lat="43.92924108011686" lon="7.844998720376853"><ele>315.0</ele><time>2026-04-18T09:46:24Z</time></trkpt><trkpt lat="43.92921360153359" lon="7.844912206631838"><ele>315.0</ele><time>2026-04-18T09:46:25Z</time></trkpt><trkpt lat="43.92917108229741" lon="7.8448303008160165"><ele>313.8333333333333</ele><time>2026-04-18T09:46:26Z</time></trkpt><trkpt lat="43.92911832159204" lon="7.8447520831889035"><ele>312.6666666666667</ele><time>2026-04-18T09:46:27Z</time></trkpt><trkpt lat="43.929062120267055" lon="7.844668184604907"><ele>311.5</ele><time>2026-04-18T09:46:28Z</time></trkpt><trkpt lat="43.92900634733321" lon="7.844580768075374"><ele>310.33333333333337</ele><time>2026-04-18T09:46:29Z</time></trkpt><trkpt lat="43.92894890778425" lon="7.8444904649788985"><ele>309.1666666666667</ele><time>2026-04-18T09:46:30Z</time></trkpt><trkpt lat="43.92888900298644" lon="7.8444017978605185"><ele>308.0</ele><time>2026-04-18T09:46:31Z</time></trkpt><trkpt lat="43.928838262503035" lon="7.84431575918892"><ele>304.6666666666667</ele><time>2026-04-18T09:46:32Z</time></trkpt><trkpt lat="43.92879575194589" lon="7.844228971136546"><ele>301.33333333333337</ele><time>2026-04-18T09:46:33Z</time></trkpt><trkpt lat="43.92876011438958" lon="7.844143355448682"><ele>298.0</ele><time>2026-04-18T09:46:34Z</time></trkpt><trkpt lat="43.928729969605605" lon="7.844062913238963"><ele>294.6666666666667</ele><time>2026-04-18T09:46:35Z</time></trkpt><trkpt lat="43.92870273859913" lon="7.843982012823583"><ele>291.3333333333333</ele><time>2026-04-18T09:46:36Z</time></trkpt><trkpt lat="43.928652124647726" lon="7.843832837016216"><ele>288.0</ele><time>2026-04-18T09:46:38Z</time></trkpt><trkpt lat="43.928604016634345" lon="7.843688301659566"><ele>288.0</ele><time>2026-04-18T09:46:40Z</time></trkpt><trkpt lat="43.92855155982586" lon="7.843547779791871"><ele>288.0</ele><time>2026-04-18T09:46:42Z</time></trkpt><trkpt lat="43.92850209214638" lon="7.843411877560662"><ele>288.0</ele><time>2026-04-18T09:46:44Z</time></trkpt><trkpt lat="43.9284497076196" lon="7.843276594069674"><ele>288.0</ele><time>2026-04-18T09:46:46Z</time></trkpt><trkpt lat="43.928392047380875" lon="7.843142745193717"><ele>288.0</ele><time>2026-04-18T09:46:48Z</time></trkpt><trkpt lat="43.928306825381085" lon="7.843036922116154"><ele>291.4</ele><time>2026-04-18T09:46:50Z</time></trkpt><trkpt lat="43.92821204705438" lon="7.8430089347226115"><ele>294.8</ele><time>2026-04-18T09:46:52Z</time></trkpt><trkpt lat="43.92811410914092" lon="7.843092928212189"><ele>298.2</ele><time>2026-04-18T09:46:54Z</time></trkpt><trkpt lat="43.92802585828626" lon="7.843203821065264"><ele>301.6</ele><time>2026-04-18T09:46:56Z</time></trkpt><trkpt lat="43.92794250870459" lon="7.843312624117071"><ele>305.0</ele><time>2026-04-18T09:46:58Z</time></trkpt><trkpt lat="43.92786461527511" lon="7.843419009165412"><ele>306.1666666666667</ele><time>2026-04-18T09:47:00Z</time></trkpt><trkpt lat="43.927811785630155" lon="7.84349045758872"><ele>307.33333333333337</ele><time>2026-04-18T09:47:02Z</time></trkpt><trkpt lat="43.92775146607425" lon="7.8435443537067036"><ele>308.5</ele><time>2026-04-18T09:47:04Z</time></trkpt><trkpt lat="43.92766209692256" lon="7.843607210274369"><ele>309.6666666666667</ele><time>2026-04-18T09:47:06Z</time></trkpt><trkpt lat="43.92756358526612" lon="7.843664468802285"><ele>310.8333333333333</ele><time>2026-04-18T09:47:08Z</time></trkpt><trkpt lat="43.927508314286584" lon="7.843707299956958"><ele>312.0</ele><time>2026-04-18T09:47:09Z</time></trkpt><trkpt lat="43.92746440598689" lon="7.8437880589209135"><ele>312.0</ele><time>2026-04-18T09:47:10Z</time></trkpt><trkpt lat="43.92742348733078" lon="7.843858172520384"><ele>312.0</ele><time>2026-04-18T09:47:11Z</time></trkpt><trkpt lat="43.927343950561514" lon="7.843983862689217"><ele>312.0</ele><time>2026-04-18T09:47:13Z</time></trkpt><trkpt lat="43.92729877669586" lon="7.844044845547235"><ele>312.0</ele><time>2026-04-18T09:47:14Z</time></trkpt><trkpt lat="43.927248054532214" lon="7.844103860309781"><ele>312.0</ele><time>2026-04-18T09:47:15Z</time></trkpt><trkpt lat="43.92715187750023" lon="7.844199805560084"><ele>312.0</ele><time>2026-04-18T09:47:17Z</time></trkpt><trkpt lat="43.92706476024491" lon="7.844266256194766"><ele>311.5</ele><time>2026-04-18T09:47:19Z</time></trkpt><trkpt lat="43.92695276125217" lon="7.844331021731135"><ele>311.0</ele><time>2026-04-18T09:47:21Z</time></trkpt><trkpt lat="43.92688880208218" lon="7.8443620885791745"><ele>310.5</ele><time>2026-04-18T09:47:22Z</time></trkpt><trkpt lat="43.926815522883594" lon="7.844403104637428"><ele>310.0</ele><time>2026-04-18T09:47:23Z</time></trkpt><trkpt lat="43.92675091687681" lon="7.844442189592215"><ele>309.5</ele><time>2026-04-18T09:47:24Z</time></trkpt><trkpt lat="43.92668791703056" lon="7.844480302865208"><ele>309.0</ele><time>2026-04-18T09:47:25Z</time></trkpt><trkpt lat="43.92662193162287" lon="7.84452227881301"><ele>303.8</ele><time>2026-04-18T09:47:26Z</time></trkpt><trkpt lat="43.92657200531912" lon="7.844576223709301"><ele>298.59999999999997</ele><time>2026-04-18T09:47:27Z</time></trkpt><trkpt lat="43.92646726164838" lon="7.844657560517817"><ele>293.4</ele><time>2026-04-18T09:47:29Z</time></trkpt><trkpt lat="43.92637462806519" lon="7.844749779313016"><ele>288.2</ele><time>2026-04-18T09:47:31Z</time></trkpt><trkpt lat="43.926281268534105" lon="7.844756498695998"><ele>283.0</ele><time>2026-04-18T09:47:33Z</time></trkpt><trkpt lat="43.92625553984349" lon="7.844621167751617"><ele>283.0</ele><time>2026-04-18T09:47:35Z</time></trkpt><trkpt lat="43.92635234872417" lon="7.844495749349811"><ele>283.0</ele><time>2026-04-18T09:47:37Z</time></trkpt><trkpt lat="43.92642943757654" lon="7.844451716797794"><ele>283.0</ele><time>2026-04-18T09:47:38Z</time></trkpt><trkpt lat="43.92650897404702" lon="7.844398953388421"><ele>283.0</ele><time>2026-04-18T09:47:39Z</time></trkpt><trkpt lat="43.92659036386548" lon="7.84434882795762"><ele>283.0</ele><time>2026-04-18T09:47:40Z</time></trkpt><trkpt lat="43.92667594557786" lon="7.844297625470216"><ele>287.8333333333333</ele><time>2026-04-18T09:47:41Z</time></trkpt><trkpt lat="43.92675633312188" lon="7.844251828201018"><ele>292.66666666666663</ele><time>2026-04-18T09:47:42Z</time></trkpt><trkpt lat="43.92683843425136" lon="7.8442074846366605"><ele>297.5</ele><time>2026-04-18T09:47:43Z</time></trkpt><trkpt lat="43.9269197240577" lon="7.844157883961435"><ele>302.3333333333333</ele><time>2026-04-18T09:47:44Z</time></trkpt><trkpt lat="43.926999015486764" lon="7.844113167207964"><ele>307.1666666666667</ele><time>2026-04-18T09:47:45Z</time></trkpt><trkpt lat="43.92708062655913" lon="7.844071030610349"><ele>312.0</ele><time>2026-04-18T09:47:46Z</time></trkpt><trkpt lat="43.927158860946804" lon="7.844011832523506"><ele>312.0</ele><time>2026-04-18T09:47:47Z</time></trkpt><trkpt lat="43.927228943655" lon="7.843890329248552"><ele>312.0</ele><time>2026-04-18T09:47:48Z</time></trkpt><trkpt lat="43.92728982269378" lon="7.843778071725516"><ele>312.0</ele><time>2026-04-18T09:47:49Z</time></trkpt><trkpt lat="43.92734738965977" lon="7.843655464357857"><ele>312.0</ele><time>2026-04-18T09:47:50Z</time></trkpt><trkpt lat="43.92743198502236" lon="7.84356537603091"><ele>312.0</ele><time>2026-04-18T09:47:51Z</time></trkpt><trkpt lat="43.92753220963274" lon="7.843513757158076"><ele>310.6</ele><time>2026-04-18T09:47:52Z</time></trkpt><trkpt lat="43.927610706203474" lon="7.843423160267959"><ele>309.2</ele><time>2026-04-18T09:47:53Z</time></trkpt><trkpt lat="43.927675285340634" lon="7.843321049514534"><ele>307.8</ele><time>2026-04-18T09:47:54Z</time></trkpt><trkpt lat="43.92773515987033" lon="7.843186985272584"><ele>306.4</ele><time>2026-04-18T09:47:55Z</time></trkpt><trkpt lat="43.927800044426895" lon="7.843049558655467"><ele>305.0</ele><time>2026-04-18T09:47:56Z</time></trkpt><trkpt lat="43.927866996220686" lon="7.842923439035521"><ele>305.0</ele><time>2026-04-18T09:47:57Z</time></trkpt><trkpt lat="43.92793149818932" lon="7.842802441153733"><ele>305.0</ele><time>2026-04-18T09:47:58Z</time></trkpt><trkpt lat="43.92800024858643" lon="7.842689255729775"><ele>305.0</ele><time>2026-04-18T09:47:59Z</time></trkpt><trkpt lat="43.92807954796765" lon="7.842596350021167"><ele>305.0</ele><time>2026-04-18T09:48:00Z</time></trkpt><trkpt lat="43.928168575443706" lon="7.8424981399562235"><ele>305.0</ele><time>2026-04-18T09:48:01Z</time></trkpt><trkpt lat="43.92825450006565" lon="7.84240220842045"><ele>299.0</ele><time>2026-04-18T09:48:02Z</time></trkpt><trkpt lat="43.92835626775035" lon="7.84231454375333"><ele>293.0</ele><time>2026-04-18T09:48:03Z</time></trkpt><trkpt lat="43.92846791631601" lon="7.842244451492082"><ele>287.0</ele><time>2026-04-18T09:48:03.999Z</time></trkpt><trkpt lat="43.928571740907195" lon="7.842186950372665"><ele>281.0</ele><time>2026-04-18T09:48:04.999Z</time></trkpt><trkpt lat="43.928654668905054" lon="7.842165885247236"><ele>275.0</ele><time>2026-04-18T09:48:05.999Z</time></trkpt><trkpt lat="43.92873191384059" lon="7.842183892628918"><ele>272.6</ele><time>2026-04-18T09:48:06.999Z</time></trkpt><trkpt lat="43.92879474834589" lon="7.8422456047015"><ele>270.2</ele><time>2026-04-18T09:48:07.999Z</time></trkpt><trkpt lat="43.92884456354974" lon="7.842362895700495"><ele>267.8</ele><time>2026-04-18T09:48:08.999Z</time></trkpt><trkpt lat="43.9288702378078" lon="7.842520778936684"><ele>265.4</ele><time>2026-04-18T09:48:09.999Z</time></trkpt><trkpt lat="43.92889998306049" lon="7.842701119282923"><ele>263.0</ele><time>2026-04-18T09:48:10.999Z</time></trkpt><trkpt lat="43.92893394774463" lon="7.842885803945085"><ele>263.0</ele><time>2026-04-18T09:48:11.999Z</time></trkpt><trkpt lat="43.92898146130454" lon="7.843056354533492"><ele>263.0</ele><time>2026-04-18T09:48:13Z</time></trkpt><trkpt lat="43.92904289945125" lon="7.843231499886481"><ele>263.0</ele><time>2026-04-18T09:48:14Z</time></trkpt><trkpt lat="43.92911872087617" lon="7.843414598936218"><ele>263.0</ele><time>2026-04-18T09:48:15Z</time></trkpt><trkpt lat="43.92920356185152" lon="7.843610892644463"><ele>255.33333333333334</ele><time>2026-04-18T09:48:16Z</time></trkpt><trkpt lat="43.92928348522749" lon="7.843803874351035"><ele>247.66666666666669</ele><time>2026-04-18T09:48:17Z</time></trkpt><trkpt lat="43.92936393266618" lon="7.843990434238788"><ele>240.0</ele><time>2026-04-18T09:48:18Z</time></trkpt><trkpt lat="43.92945329953967" lon="7.844158395605981"><ele>240.0</ele><time>2026-04-18T09:48:19Z</time></trkpt><trkpt lat="43.929562431243404" lon="7.844295280804454"><ele>240.0</ele><time>2026-04-18T09:48:20Z</time></trkpt><trkpt lat="43.92967168037929" lon="7.844423714894722"><ele>240.0</ele><time>2026-04-18T09:48:21Z</time></trkpt><trkpt lat="43.929793047481375" lon="7.844550062105854"><ele>240.0</ele><time>2026-04-18T09:48:22Z</time></trkpt><trkpt lat="43.929906732498196" lon="7.844663320670226"><ele>245.25</ele><time>2026-04-18T09:48:23Z</time></trkpt><trkpt lat="43.93002158459769" lon="7.844746644162731"><ele>250.5</ele><time>2026-04-18T09:48:24Z</time></trkpt><trkpt lat="43.93014540284824" lon="7.844803046238332"><ele>255.75</ele><time>2026-04-18T09:48:25Z</time></trkpt><trkpt lat="43.930274409083154" lon="7.844837392924936"><ele>261.0</ele><time>2026-04-18T09:48:26Z</time></trkpt><trkpt lat="43.93040181350242" lon="7.844890010941751"><ele>261.0</ele><time>2026-04-18T09:48:27Z</time></trkpt><trkpt lat="43.930528230167596" lon="7.844913872284873"><ele>261.0</ele><time>2026-04-18T09:48:28Z</time></trkpt><trkpt lat="43.93065276430079" lon="7.844887178992197"><ele>261.0</ele><time>2026-04-18T09:48:29Z</time></trkpt><trkpt lat="43.930777913373106" lon="7.8448754368953075"><ele>261.0</ele><time>2026-04-18T09:48:30Z</time></trkpt><trkpt lat="43.93090471311173" lon="7.844833147300877"><ele>268.0</ele><time>2026-04-18T09:48:31Z</time></trkpt><trkpt lat="43.93102643294457" lon="7.84477109204631"><ele>275.0</ele><time>2026-04-18T09:48:32Z</time></trkpt><trkpt lat="43.931129902346626" lon="7.8446676685573395"><ele>282.0</ele><time>2026-04-18T09:48:33Z</time></trkpt><trkpt lat="43.93121878680142" lon="7.844564529865077"><ele>289.0</ele><time>2026-04-18T09:48:34Z</time></trkpt><trkpt lat="43.93129907860614" lon="7.8444323715859605"><ele>282.5</ele><time>2026-04-18T09:48:35Z</time></trkpt><trkpt lat="43.93132397150534" lon="7.844250031249178"><ele>276.0</ele><time>2026-04-18T09:48:36Z</time></trkpt><trkpt lat="43.93134977977249" lon="7.844063892043897"><ele>269.5</ele><time>2026-04-18T09:48:37Z</time></trkpt><trkpt lat="43.93139393189822" lon="7.843866008616865"><ele>263.0</ele><time>2026-04-18T09:48:38Z</time></trkpt><trkpt lat="43.93142253176235" lon="7.8436652145346155"><ele>263.0</ele><time>2026-04-18T09:48:39Z</time></trkpt><trkpt lat="43.93144947264315" lon="7.843474567621828"><ele>263.0</ele><time>2026-04-18T09:48:40Z</time></trkpt><trkpt lat="43.93146023119363" lon="7.843285336775825"><ele>263.0</ele><time>2026-04-18T09:48:41Z</time></trkpt><trkpt lat="43.93148810991882" lon="7.843103799196369"><ele>263.0</ele><time>2026-04-18T09:48:42Z</time></trkpt><trkpt lat="43.93151456072703" lon="7.842939496686805"><ele>261.0</ele><time>2026-04-18T09:48:43Z</time></trkpt><trkpt lat="43.931534547500384" lon="7.8427948778277345"><ele>259.0</ele><time>2026-04-18T09:48:44Z</time></trkpt><trkpt lat="43.93154299130272" lon="7.842656503203199"><ele>257.0</ele><time>2026-04-18T09:48:45Z</time></trkpt><trkpt lat="43.93151902686002" lon="7.842535420894991"><ele>255.0</ele><time>2026-04-18T09:48:46Z</time></trkpt><trkpt lat="43.931474369698705" lon="7.84243364282546"><ele>253.0</ele><time>2026-04-18T09:48:47Z</time></trkpt><trkpt lat="43.93142112446685" lon="7.842364930512053"><ele>251.75</ele><time>2026-04-18T09:48:48Z</time></trkpt><trkpt lat="43.93133055990579" lon="7.842275749750199"><ele>250.5</ele><time>2026-04-18T09:48:50Z</time></trkpt><trkpt lat="43.93135426024626" lon="7.842080862142094"><ele>249.25</ele><time>2026-04-18T09:48:55Z</time></trkpt><trkpt lat="43.93141990018267" lon="7.841912374183334"><ele>248.0</ele><time>2026-04-18T09:48:57Z</time></trkpt><trkpt lat="43.93145775506324" lon="7.841819229250578"><ele>247.60000000000002</ele><time>2026-04-18T09:48:58Z</time></trkpt><trkpt lat="43.931503371602545" lon="7.841719445497143"><ele>247.20000000000002</ele><time>2026-04-18T09:48:59Z</time></trkpt><trkpt lat="43.931547660202185" lon="7.8416005152979045"><ele>246.8</ele><time>2026-04-18T09:49:00Z</time></trkpt><trkpt lat="43.931597476800434" lon="7.841466528262181"><ele>246.4</ele><time>2026-04-18T09:49:01Z</time></trkpt><trkpt lat="43.9316509753594" lon="7.8413387770829335"><ele>246.0</ele><time>2026-04-18T09:49:02Z</time></trkpt><trkpt lat="43.93172178054987" lon="7.841231564402679"><ele>252.0</ele><time>2026-04-18T09:49:03Z</time></trkpt><trkpt lat="43.9318078499198" lon="7.841137697296849"><ele>258.0</ele><time>2026-04-18T09:49:04Z</time></trkpt><trkpt lat="43.93190370480157" lon="7.841054929295441"><ele>264.0</ele><time>2026-04-18T09:49:05Z</time></trkpt><trkpt lat="43.93200078368451" lon="7.841014660281051"><ele>270.0</ele><time>2026-04-18T09:49:06Z</time></trkpt><trkpt lat="43.93212008411489" lon="7.841003212142721"><ele>276.0</ele><time>2026-04-18T09:49:07Z</time></trkpt><trkpt lat="43.93224849512716" lon="7.840988255981301"><ele>272.75</ele><time>2026-04-18T09:49:08Z</time></trkpt><trkpt lat="43.932383952951625" lon="7.84096091662398"><ele>269.5</ele><time>2026-04-18T09:49:09Z</time></trkpt><trkpt lat="43.93252727468137" lon="7.840937468601832"><ele>266.25</ele><time>2026-04-18T09:49:10Z</time></trkpt><trkpt lat="43.93266005179964" lon="7.84091652106772"><ele>263.0</ele><time>2026-04-18T09:49:11Z</time></trkpt><trkpt lat="43.93279549110477" lon="7.840909468130334"><ele>263.0</ele><time>2026-04-18T09:49:12Z</time></trkpt><trkpt lat="43.93292574416913" lon="7.8408843707784435"><ele>263.0</ele><time>2026-04-18T09:49:13Z</time></trkpt><trkpt lat="43.93305320707436" lon="7.840856258315508"><ele>263.0</ele><time>2026-04-18T09:49:14Z</time></trkpt><trkpt lat="43.9331761502908" lon="7.840799624109411"><ele>263.0</ele><time>2026-04-18T09:49:15Z</time></trkpt><trkpt lat="43.933298101522126" lon="7.840736405231112"><ele>267.5</ele><time>2026-04-18T09:49:16Z</time></trkpt><trkpt lat="43.93341538970829" lon="7.840646561420065"><ele>272.0</ele><time>2026-04-18T09:49:17Z</time></trkpt><trkpt lat="43.93352223544017" lon="7.840534535239654"><ele>276.5</ele><time>2026-04-18T09:49:18Z</time></trkpt><trkpt lat="43.933641834843634" lon="7.840449120667391"><ele>281.0</ele><time>2026-04-18T09:49:19Z</time></trkpt><trkpt lat="43.93374452734424" lon="7.840350007900392"><ele>281.0</ele><time>2026-04-18T09:49:20Z</time></trkpt><trkpt lat="43.93384355568723" lon="7.840278370842256"><ele>281.0</ele><time>2026-04-18T09:49:21Z</time></trkpt><trkpt lat="43.933948630212335" lon="7.840239849407264"><ele>281.0</ele><time>2026-04-18T09:49:22Z</time></trkpt><trkpt lat="43.934057937164546" lon="7.840245527498851"><ele>281.0</ele><time>2026-04-18T09:49:23Z</time></trkpt><trkpt lat="43.93417685865615" lon="7.840296037320545"><ele>282.6666666666667</ele><time>2026-04-18T09:49:24Z</time></trkpt><trkpt lat="43.93430476212844" lon="7.840368301995447"><ele>284.3333333333333</ele><time>2026-04-18T09:49:25Z</time></trkpt><trkpt lat="43.93445235371902" lon="7.840426484893523"><ele>286.0</ele><time>2026-04-18T09:49:26Z</time></trkpt><trkpt lat="43.934619996361626" lon="7.840459264187404"><ele>286.0</ele><time>2026-04-18T09:49:27Z</time></trkpt><trkpt lat="43.93479363939138" lon="7.840498782362138"><ele>286.0</ele><time>2026-04-18T09:49:28Z</time></trkpt><trkpt lat="43.93495972789872" lon="7.840559042044549"><ele>286.0</ele><time>2026-04-18T09:49:29Z</time></trkpt><trkpt lat="43.935103899144536" lon="7.8406191075667255"><ele>289.5</ele><time>2026-04-18T09:49:30Z</time></trkpt><trkpt lat="43.93523249935512" lon="7.840640180808194"><ele>293.0</ele><time>2026-04-18T09:49:31Z</time></trkpt><trkpt lat="43.935370078657414" lon="7.840606630330857"><ele>296.5</ele><time>2026-04-18T09:49:32Z</time></trkpt><trkpt lat="43.93551832123585" lon="7.840521067824244"><ele>300.0</ele><time>2026-04-18T09:49:33Z</time></trkpt><trkpt lat="43.93567858307665" lon="7.840427359906457"><ele>300.0</ele><time>2026-04-18T09:49:34Z</time></trkpt><trkpt lat="43.93582773759148" lon="7.840349970877635"><ele>300.0</ele><time>2026-04-18T09:49:35Z</time></trkpt><trkpt lat="43.935961563662914" lon="7.840276358098007"><ele>300.0</ele><time>2026-04-18T09:49:36Z</time></trkpt><trkpt lat="43.93608482720148" lon="7.840174619397842"><ele>300.0</ele><time>2026-04-18T09:49:37Z</time></trkpt><trkpt lat="43.93619667233956" lon="7.840035591402614"><ele>301.0</ele><time>2026-04-18T09:49:38Z</time></trkpt><trkpt lat="43.93630099197868" lon="7.8398883020922865"><ele>302.0</ele><time>2026-04-18T09:49:39Z</time></trkpt><trkpt lat="43.93638898764391" lon="7.839754294159706"><ele>303.0</ele><time>2026-04-18T09:49:40Z</time></trkpt><trkpt lat="43.93644666055869" lon="7.839599631613292"><ele>304.0</ele><time>2026-04-18T09:49:41Z</time></trkpt><trkpt lat="43.93647481321312" lon="7.839413308341651"><ele>301.3333333333333</ele><time>2026-04-18T09:49:42Z</time></trkpt><trkpt lat="43.936490313773525" lon="7.839201349023512"><ele>298.6666666666667</ele><time>2026-04-18T09:49:43Z</time></trkpt><trkpt lat="43.93650432695573" lon="7.83897129526916"><ele>296.0</ele><time>2026-04-18T09:49:44Z</time></trkpt><trkpt lat="43.93652815691743" lon="7.838733357966602"><ele>296.0</ele><time>2026-04-18T09:49:45Z</time></trkpt><trkpt lat="43.936561229288024" lon="7.8384931117809336"><ele>296.0</ele><time>2026-04-18T09:49:46Z</time></trkpt><trkpt lat="43.936590972672526" lon="7.838250277924314"><ele>296.0</ele><time>2026-04-18T09:49:47Z</time></trkpt><trkpt lat="43.93662976506064" lon="7.838028618661386"><ele>294.6666666666667</ele><time>2026-04-18T09:49:48Z</time></trkpt><trkpt lat="43.9366381493803" lon="7.8378085354990175"><ele>293.3333333333333</ele><time>2026-04-18T09:49:49Z</time></trkpt><trkpt lat="43.93662612463705" lon="7.837597283178515"><ele>292.0</ele><time>2026-04-18T09:49:50Z</time></trkpt><trkpt lat="43.93661185167221" lon="7.837405292909966"><ele>290.6</ele><time>2026-04-18T09:49:51Z</time></trkpt><trkpt lat="43.9366043329458" lon="7.837232186751165"><ele>289.2</ele><time>2026-04-18T09:49:52Z</time></trkpt><trkpt lat="43.93661990731076" lon="7.837115268548023"><ele>287.8</ele><time>2026-04-18T09:49:53Z</time></trkpt><trkpt lat="43.93664995885766" lon="7.83698194774679"><ele>286.4</ele><time>2026-04-18T09:49:54Z</time></trkpt><trkpt lat="43.93673586565628" lon="7.836908418503289"><ele>285.0</ele><time>2026-04-18T09:49:55Z</time></trkpt><trkpt lat="43.936823008979985" lon="7.836830862574886"><ele>290.25</ele><time>2026-04-18T09:49:56Z</time></trkpt><trkpt lat="43.936945925149864" lon="7.83676373175233"><ele>295.5</ele><time>2026-04-18T09:49:57Z</time></trkpt><trkpt lat="43.937076466775885" lon="7.83667611885551"><ele>300.75</ele><time>2026-04-18T09:49:58Z</time></trkpt><trkpt lat="43.93722031004683" lon="7.836583411812124"><ele>306.0</ele><time>2026-04-18T09:49:59Z</time></trkpt><trkpt lat="43.93736853193891" lon="7.836480416626516"><ele>306.0</ele><time>2026-04-18T09:50:00Z</time></trkpt><trkpt lat="43.93751388270244" lon="7.8363807171924025"><ele>306.0</ele><time>2026-04-18T09:50:01Z</time></trkpt><trkpt lat="43.9376670764081" lon="7.8362727858616035"><ele>306.0</ele><time>2026-04-18T09:50:02Z</time></trkpt><trkpt lat="43.93781999769226" lon="7.836179706601474"><ele>305.6666666666667</ele><time>2026-04-18T09:50:03Z</time></trkpt><trkpt lat="43.93797066921123" lon="7.836104029833326"><ele>305.33333333333337</ele><time>2026-04-18T09:50:04Z</time></trkpt><trkpt lat="43.93811996340133" lon="7.836009247927325"><ele>305.0</ele><time>2026-04-18T09:50:05Z</time></trkpt><trkpt lat="43.938261142427805" lon="7.8358814008241975"><ele>319.0</ele><time>2026-04-18T09:50:06Z</time></trkpt><trkpt lat="43.938396626660285" lon="7.835732252952838"><ele>333.0</ele><time>2026-04-18T09:50:07Z</time></trkpt><trkpt lat="43.938531755904215" lon="7.83558937765997"><ele>347.0</ele><time>2026-04-18T09:50:08Z</time></trkpt><trkpt lat="43.938654051869435" lon="7.8354578331622475"><ele>347.0</ele><time>2026-04-18T09:50:09Z</time></trkpt><trkpt lat="43.938756653747795" lon="7.835317425881448"><ele>347.0</ele><time>2026-04-18T09:50:09.999Z</time></trkpt><trkpt lat="43.93883291045436" lon="7.835154048499479"><ele>347.0</ele><time>2026-04-18T09:50:10.999Z</time></trkpt><trkpt lat="43.93887745048128" lon="7.834964255418666"><ele>347.0</ele><time>2026-04-18T09:50:11.999Z</time></trkpt><trkpt lat="43.93891556860324" lon="7.8347629406973835"><ele>341.0</ele><time>2026-04-18T09:50:12.999Z</time></trkpt><trkpt lat="43.938982288329655" lon="7.834572887672142"><ele>335.0</ele><time>2026-04-18T09:50:13.999Z</time></trkpt><trkpt lat="43.93907414016575" lon="7.834385095398186"><ele>329.0</ele><time>2026-04-18T09:50:14.999Z</time></trkpt><trkpt lat="43.93917264081377" lon="7.834187865072142"><ele>331.33333333333337</ele><time>2026-04-18T09:50:15.999Z</time></trkpt><trkpt lat="43.93927614608266" lon="7.833979427323404"><ele>333.6666666666667</ele><time>2026-04-18T09:50:16.999Z</time></trkpt><trkpt lat="43.93936711176971" lon="7.83375205445134"><ele>336.0</ele><time>2026-04-18T09:50:17.999Z</time></trkpt><trkpt lat="43.93943469595439" lon="7.833539390764101"><ele>330.5</ele><time>2026-04-18T09:50:18.999Z</time></trkpt><trkpt lat="43.939509491833476" lon="7.83335317206731"><ele>325.0</ele><time>2026-04-18T09:50:19.999Z</time></trkpt><trkpt lat="43.939543341033705" lon="7.833173757869923"><ele>319.5</ele><time>2026-04-18T09:50:20.999Z</time></trkpt><trkpt lat="43.93959993022605" lon="7.8330391392943035"><ele>314.0</ele><time>2026-04-18T09:50:21.999Z</time></trkpt><trkpt lat="43.93966998527958" lon="7.832942439293726"><ele>314.0</ele><time>2026-04-18T09:50:22.999Z</time></trkpt><trkpt lat="43.939761306525654" lon="7.832911081957591"><ele>314.0</ele><time>2026-04-18T09:50:23.999Z</time></trkpt><trkpt lat="43.93985847139883" lon="7.832940278367622"><ele>314.0</ele><time>2026-04-18T09:50:24.999Z</time></trkpt><trkpt lat="43.93993163023045" lon="7.833028489590216"><ele>314.0</ele><time>2026-04-18T09:50:25.999Z</time></trkpt><trkpt lat="43.93997296430217" lon="7.833158558659786"><ele>314.0</ele><time>2026-04-18T09:50:26.999Z</time></trkpt><trkpt lat="43.93998822164341" lon="7.8333320470637"><ele>309.75</ele><time>2026-04-18T09:50:27.999Z</time></trkpt><trkpt lat="43.940019824949935" lon="7.833511824901145"><ele>305.5</ele><time>2026-04-18T09:50:28.999Z</time></trkpt><trkpt lat="43.94004524993878" lon="7.83373267583397"><ele>301.25</ele><time>2026-04-18T09:50:29.999Z</time></trkpt><trkpt lat="43.94008664407825" lon="7.833926136571655"><ele>297.0</ele><time>2026-04-18T09:50:30.999Z</time></trkpt><trkpt lat="43.94012795603051" lon="7.834141433640044"><ele>308.6666666666667</ele><time>2026-04-18T09:50:31.999Z</time></trkpt><trkpt lat="43.94019926858362" lon="7.8343409887522055"><ele>320.33333333333337</ele><time>2026-04-18T09:50:32.999Z</time></trkpt><trkpt lat="43.94030445387112" lon="7.834535496531875"><ele>332.0</ele><time>2026-04-18T09:50:33.999Z</time></trkpt><trkpt lat="43.940417219137295" lon="7.834729708085093"><ele>332.0</ele><time>2026-04-18T09:50:34.999Z</time></trkpt><trkpt lat="43.94051542144147" lon="7.834934114745093"><ele>332.0</ele><time>2026-04-18T09:50:35.999Z</time></trkpt><trkpt lat="43.94060029829563" lon="7.835118058406448"><ele>332.0</ele><time>2026-04-18T09:50:36.999Z</time></trkpt><trkpt lat="43.940696614646235" lon="7.835278998765449"><ele>342.33333333333337</ele><time>2026-04-18T09:50:37.999Z</time></trkpt><trkpt lat="43.94082434731772" lon="7.835405110642319"><ele>352.6666666666667</ele><time>2026-04-18T09:50:38.999Z</time></trkpt><trkpt lat="43.940975672183754" lon="7.835508358117203"><ele>363.0</ele><time>2026-04-18T09:50:39.999Z</time></trkpt><trkpt lat="43.94112712362518" lon="7.835586603906513"><ele>363.0</ele><time>2026-04-18T09:50:40.999Z</time></trkpt><trkpt lat="43.941283420765735" lon="7.835617063434612"><ele>363.0</ele><time>2026-04-18T09:50:41.999Z</time></trkpt><trkpt lat="43.94145424048877" lon="7.835607803095809"><ele>363.0</ele><time>2026-04-18T09:50:42.999Z</time></trkpt><trkpt lat="43.94163496757478" lon="7.8355848203366065"><ele>366.3333333333333</ele><time>2026-04-18T09:50:43.999Z</time></trkpt><trkpt lat="43.941820597604874" lon="7.835563101483535"><ele>369.66666666666663</ele><time>2026-04-18T09:50:44.999Z</time></trkpt><trkpt lat="43.94199039714991" lon="7.835540310163814"><ele>373.0</ele><time>2026-04-18T09:50:45.999Z</time></trkpt><trkpt lat="43.942159623855915" lon="7.835546434458119"><ele>373.0</ele><time>2026-04-18T09:50:46.999Z</time></trkpt><trkpt lat="43.94232288151366" lon="7.835595653100292"><ele>373.0</ele><time>2026-04-18T09:50:47.999Z</time></trkpt><trkpt lat="43.942480922819605" lon="7.835624927968278"><ele>373.0</ele><time>2026-04-18T09:50:48.999Z</time></trkpt><trkpt lat="43.942621402883354" lon="7.835629671271847"><ele>377.79999999999995</ele><time>2026-04-18T09:50:49.999Z</time></trkpt><trkpt lat="43.94274026174215" lon="7.835649876159219"><ele>382.6</ele><time>2026-04-18T09:50:50.999Z</time></trkpt><trkpt lat="43.942841132532955" lon="7.835644333970935"><ele>387.4</ele><time>2026-04-18T09:50:51.999Z</time></trkpt><trkpt lat="43.9429278211051" lon="7.835587511493958"><ele>392.20000000000005</ele><time>2026-04-18T09:50:52.999Z</time></trkpt><trkpt lat="43.94300750129456" lon="7.8354858921342645"><ele>397.0</ele><time>2026-04-18T09:50:53.999Z</time></trkpt><trkpt lat="43.94305303323844" lon="7.835344394330579"><ele>397.0</ele><time>2026-04-18T09:50:54.999Z</time></trkpt><trkpt lat="43.94306492705279" lon="7.835187067041857"><ele>397.0</ele><time>2026-04-18T09:50:55.999Z</time></trkpt><trkpt lat="43.94311364332901" lon="7.835069220703097"><ele>397.0</ele><time>2026-04-18T09:50:56.999Z</time></trkpt><trkpt lat="43.94316972512146" lon="7.834953068769695"><ele>397.0</ele><time>2026-04-18T09:50:57.999Z</time></trkpt><trkpt lat="43.94327019110902" lon="7.83492908536524"><ele>397.0</ele><time>2026-04-18T09:50:58.999Z</time></trkpt><trkpt lat="43.94337991618126" lon="7.834902612496832"><ele>384.75</ele><time>2026-04-18T09:50:59.999Z</time></trkpt><trkpt lat="43.94350985929562" lon="7.8348540801488005"><ele>372.5</ele><time>2026-04-18T09:51:00.999Z</time></trkpt><trkpt lat="43.94362823430128" lon="7.834821072188955"><ele>360.25</ele><time>2026-04-18T09:51:01.999Z</time></trkpt><trkpt lat="43.94374418440115" lon="7.834837541707678"><ele>348.0</ele><time>2026-04-18T09:51:02.999Z</time></trkpt><trkpt lat="43.94384364136509" lon="7.834890470462238"><ele>348.0</ele><time>2026-04-18T09:51:03.999Z</time></trkpt><trkpt lat="43.943931139488356" lon="7.834986571970277"><ele>348.0</ele><time>2026-04-18T09:51:04.999Z</time></trkpt><trkpt lat="43.943965080558485" lon="7.835156719133988"><ele>348.0</ele><time>2026-04-18T09:51:05.999Z</time></trkpt><trkpt lat="43.94405652071537" lon="7.835281041679949"><ele>348.0</ele><time>2026-04-18T09:51:06.999Z</time></trkpt><trkpt lat="43.9441729276166" lon="7.835384110963738"><ele>344.5</ele><time>2026-04-18T09:51:07.999Z</time></trkpt><trkpt lat="43.944305119196365" lon="7.835501021981097"><ele>341.0</ele><time>2026-04-18T09:51:08.999Z</time></trkpt><trkpt lat="43.94442021558383" lon="7.835596076714644"><ele>337.5</ele><time>2026-04-18T09:51:09.999Z</time></trkpt><trkpt lat="43.944524677983" lon="7.83568659873492"><ele>334.0</ele><time>2026-04-18T09:51:10.999Z</time></trkpt><trkpt lat="43.94460586270206" lon="7.835783980331461"><ele>334.0</ele><time>2026-04-18T09:51:11.999Z</time></trkpt><trkpt lat="43.94462223832218" lon="7.835958473720086"><ele>334.0</ele><time>2026-04-18T09:51:12.999Z</time></trkpt><trkpt lat="43.9446712216936" lon="7.836134437319811"><ele>334.0</ele><time>2026-04-18T09:51:13.999Z</time></trkpt><trkpt lat="43.94473593939312" lon="7.83630969210939"><ele>334.0</ele><time>2026-04-18T09:51:14.999Z</time></trkpt><trkpt lat="43.9448141895004" lon="7.836462280768757"><ele>337.0</ele><time>2026-04-18T09:51:15.999Z</time></trkpt><trkpt lat="43.94489234236714" lon="7.836585322438339"><ele>340.0</ele><time>2026-04-18T09:51:16.999Z</time></trkpt><trkpt lat="43.94498312251235" lon="7.836677984896253"><ele>343.0</ele><time>2026-04-18T09:51:17.999Z</time></trkpt><trkpt lat="43.94512063874" lon="7.836717560881129"><ele>346.0</ele><time>2026-04-18T09:51:18.999Z</time></trkpt><trkpt lat="43.9452538112884" lon="7.836780349301277"><ele>357.25</ele><time>2026-04-18T09:51:19.999Z</time></trkpt><trkpt lat="43.945372224880764" lon="7.8368164403411225"><ele>368.5</ele><time>2026-04-18T09:51:20.999Z</time></trkpt><trkpt lat="43.9454664275538" lon="7.8368703213867805"><ele>379.75</ele><time>2026-04-18T09:51:21.999Z</time></trkpt><trkpt lat="43.94554716731606" lon="7.8369878248128"><ele>391.0</ele><time>2026-04-18T09:51:22.999Z</time></trkpt><trkpt lat="43.94563999267775" lon="7.837134045051019"><ele>391.0</ele><time>2026-04-18T09:51:23.999Z</time></trkpt><trkpt lat="43.94573194469671" lon="7.837286058985874"><ele>391.0</ele><time>2026-04-18T09:51:24.999Z</time></trkpt><trkpt lat="43.94581189661546" lon="7.837421078236027"><ele>391.0</ele><time>2026-04-18T09:51:25.999Z</time></trkpt><trkpt lat="43.9458975886609" lon="7.83753716019427"><ele>391.0</ele><time>2026-04-18T09:51:26.999Z</time></trkpt><trkpt lat="43.945991786179235" lon="7.8376093160189"><ele>394.6</ele><time>2026-04-18T09:51:27.999Z</time></trkpt><trkpt lat="43.946091843528336" lon="7.837600952634847"><ele>398.20000000000005</ele><time>2026-04-18T09:51:28.999Z</time></trkpt><trkpt lat="43.94618505642738" lon="7.8375778691976175"><ele>401.79999999999995</ele><time>2026-04-18T09:51:29.999Z</time></trkpt><trkpt lat="43.946260464801746" lon="7.837480612386708"><ele>405.4</ele><time>2026-04-18T09:51:30.999Z</time></trkpt><trkpt lat="43.9463133923918" lon="7.837332295398564"><ele>409.0</ele><time>2026-04-18T09:51:31.999Z</time></trkpt><trkpt lat="43.94633583142433" lon="7.837163286428064"><ele>409.0</ele><time>2026-04-18T09:51:32.999Z</time></trkpt><trkpt lat="43.94634661317867" lon="7.837002379359932"><ele>409.0</ele><time>2026-04-18T09:51:33.999Z</time></trkpt><trkpt lat="43.94640898511069" lon="7.836874575712337"><ele>409.0</ele><time>2026-04-18T09:51:34.999Z</time></trkpt><trkpt lat="43.94648556660736" lon="7.836779025486857"><ele>409.0</ele><time>2026-04-18T09:51:35.999Z</time></trkpt><trkpt lat="43.946596368234765" lon="7.836688944498676"><ele>408.6666666666667</ele><time>2026-04-18T09:51:36.999Z</time></trkpt><trkpt lat="43.94672503998981" lon="7.836663662238118"><ele>408.33333333333337</ele><time>2026-04-18T09:51:37.999Z</time></trkpt><trkpt lat="43.94687239206228" lon="7.836583107637569"><ele>408.0</ele><time>2026-04-18T09:51:38.999Z</time></trkpt><trkpt lat="43.94701520954191" lon="7.836461123607057"><ele>408.0</ele><time>2026-04-18T09:51:40Z</time></trkpt><trkpt lat="43.9471500876113" lon="7.836371075865932"><ele>408.0</ele><time>2026-04-18T09:51:41Z</time></trkpt><trkpt lat="43.94728393999978" lon="7.8363382582649415"><ele>408.0</ele><time>2026-04-18T09:51:42Z</time></trkpt><trkpt lat="43.94742244388796" lon="7.8362856287400255"><ele>408.0</ele><time>2026-04-18T09:51:43Z</time></trkpt><trkpt lat="43.947517137166" lon="7.836137981788754"><ele>407.75</ele><time>2026-04-18T09:51:44Z</time></trkpt><trkpt lat="43.947595061760275" lon="7.835973899300088"><ele>407.5</ele><time>2026-04-18T09:51:45Z</time></trkpt><trkpt lat="43.94767713166285" lon="7.835788695561815"><ele>407.25</ele><time>2026-04-18T09:51:46Z</time></trkpt><trkpt lat="43.94775255796075" lon="7.835626496295222"><ele>407.0</ele><time>2026-04-18T09:51:47Z</time></trkpt><trkpt lat="43.94783576228473" lon="7.835512422327439"><ele>407.0</ele><time>2026-04-18T09:51:48Z</time></trkpt><trkpt lat="43.94793363707526" lon="7.835430765805873"><ele>407.0</ele><time>2026-04-18T09:51:49Z</time></trkpt><trkpt lat="43.94805646917889" lon="7.83537973314238"><ele>407.0</ele><time>2026-04-18T09:51:50Z</time></trkpt><trkpt lat="43.948164849568634" lon="7.835315859281213"><ele>407.0</ele><time>2026-04-18T09:51:51Z</time></trkpt><trkpt lat="43.94825269764833" lon="7.83523529460927"><ele>399.75</ele><time>2026-04-18T09:51:52Z</time></trkpt><trkpt lat="43.948302314977326" lon="7.835078127727976"><ele>392.5</ele><time>2026-04-18T09:51:53Z</time></trkpt><trkpt lat="43.94831854011252" lon="7.8349258271149385"><ele>385.25</ele><time>2026-04-18T09:51:54Z</time></trkpt><trkpt lat="43.94830154394656" lon="7.8347515079286305"><ele>378.0</ele><time>2026-04-18T09:51:55Z</time></trkpt><trkpt lat="43.94828327390239" lon="7.8345723925392665"><ele>378.0</ele><time>2026-04-18T09:51:56Z</time></trkpt><trkpt lat="43.94828038258719" lon="7.834403715940907"><ele>378.0</ele><time>2026-04-18T09:51:57Z</time></trkpt><trkpt lat="43.948288902549606" lon="7.834259643578023"><ele>378.0</ele><time>2026-04-18T09:51:58Z</time></trkpt><trkpt lat="43.948323268701216" lon="7.834131953783639"><ele>378.0</ele><time>2026-04-18T09:51:59Z</time></trkpt><trkpt lat="43.94839021154889" lon="7.8340249565842"><ele>378.0</ele><time>2026-04-18T09:52:00Z</time></trkpt><trkpt lat="43.94847883642494" lon="7.833968186098966"><ele>379.4</ele><time>2026-04-18T09:52:01Z</time></trkpt><trkpt lat="43.948577632647" lon="7.833964160760387"><ele>380.79999999999995</ele><time>2026-04-18T09:52:02Z</time></trkpt><trkpt lat="43.948691416066154" lon="7.834008282613466"><ele>382.2</ele><time>2026-04-18T09:52:03Z</time></trkpt><trkpt lat="43.94880934063567" lon="7.834061712740153"><ele>383.6</ele><time>2026-04-18T09:52:04Z</time></trkpt><trkpt lat="43.948913140853826" lon="7.834088010312737"><ele>385.0</ele><time>2026-04-18T09:52:05Z</time></trkpt><trkpt lat="43.94900758583836" lon="7.834049699482587"><ele>385.0</ele><time>2026-04-18T09:52:06Z</time></trkpt><trkpt lat="43.94908606872094" lon="7.833943521269545"><ele>385.0</ele><time>2026-04-18T09:52:07Z</time></trkpt><trkpt lat="43.94913621538397" lon="7.833787604300452"><ele>385.0</ele><time>2026-04-18T09:52:08Z</time></trkpt><trkpt lat="43.94917009126499" lon="7.833632708311715"><ele>385.0</ele><time>2026-04-18T09:52:09Z</time></trkpt><trkpt lat="43.94922948511011" lon="7.833525793227488"><ele>385.0</ele><time>2026-04-18T09:52:10Z</time></trkpt><trkpt lat="43.949315242706376" lon="7.833460537444352"><ele>385.6</ele><time>2026-04-18T09:52:11Z</time></trkpt><trkpt lat="43.94942118941386" lon="7.833440146556867"><ele>386.2</ele><time>2026-04-18T09:52:12Z</time></trkpt><trkpt lat="43.94951425052264" lon="7.833491251927183"><ele>386.79999999999995</ele><time>2026-04-18T09:52:13Z</time></trkpt><trkpt lat="43.94958453293893" lon="7.83358780072428"><ele>387.4</ele><time>2026-04-18T09:52:14Z</time></trkpt><trkpt lat="43.94963425433985" lon="7.83373810669435"><ele>388.0</ele><time>2026-04-18T09:52:15Z</time></trkpt><trkpt lat="43.949660464970094" lon="7.8338882621295705"><ele>388.0</ele><time>2026-04-18T09:52:15.999Z</time></trkpt><trkpt lat="43.9497016641929" lon="7.8340279916740965"><ele>388.0</ele><time>2026-04-18T09:52:16.999Z</time></trkpt><trkpt lat="43.9497747667203" lon="7.834124314953909"><ele>388.0</ele><time>2026-04-18T09:52:17.999Z</time></trkpt><trkpt lat="43.94985734681108" lon="7.834196791337627"><ele>388.0</ele><time>2026-04-18T09:52:18.999Z</time></trkpt><trkpt lat="43.94996570678333" lon="7.83418092442672"><ele>388.0</ele><time>2026-04-18T09:52:19.999Z</time></trkpt><trkpt lat="43.95005980448737" lon="7.834145737408387"><ele>388.79999999999995</ele><time>2026-04-18T09:52:20.999Z</time></trkpt><trkpt lat="43.95015532965839" lon="7.834065038034855"><ele>389.6</ele><time>2026-04-18T09:52:21.999Z</time></trkpt><trkpt lat="43.950240942426575" lon="7.833967585468547"><ele>390.4</ele><time>2026-04-18T09:52:22.999Z</time></trkpt><trkpt lat="43.950327381044765" lon="7.83391128101303"><ele>391.20000000000005</ele><time>2026-04-18T09:52:23.999Z</time></trkpt><trkpt lat="43.950424707879776" lon="7.833904685960247"><ele>392.0</ele><time>2026-04-18T09:52:24.999Z</time></trkpt><trkpt lat="43.95053942452417" lon="7.833950309537288"><ele>392.0</ele><time>2026-04-18T09:52:25.999Z</time></trkpt><trkpt lat="43.95066422909747" lon="7.834020403503267"><ele>392.0</ele><time>2026-04-18T09:52:26.999Z</time></trkpt><trkpt lat="43.950780530298985" lon="7.834133580749266"><ele>392.0</ele><time>2026-04-18T09:52:28Z</time></trkpt><trkpt lat="43.950886055775" lon="7.834263882261893"><ele>392.0</ele><time>2026-04-18T09:52:29Z</time></trkpt><trkpt lat="43.950987088882314" lon="7.834360645096503"><ele>395.6</ele><time>2026-04-18T09:52:30Z</time></trkpt><trkpt lat="43.951079628745624" lon="7.834397524166367"><ele>399.20000000000005</ele><time>2026-04-18T09:52:31Z</time></trkpt><trkpt lat="43.951189309647226" lon="7.834375042143363"><ele>402.8</ele><time>2026-04-18T09:52:32Z</time></trkpt><trkpt lat="43.95128639993428" lon="7.834288001062759"><ele>406.4</ele><time>2026-04-18T09:52:33Z</time></trkpt><trkpt lat="43.95136661777514" lon="7.83416554199561"><ele>410.0</ele><time>2026-04-18T09:52:34Z</time></trkpt><trkpt lat="43.95140705238759" lon="7.834020020137993"><ele>410.0</ele><time>2026-04-18T09:52:35Z</time></trkpt><trkpt lat="43.95141161323612" lon="7.833874305344726"><ele>410.0</ele><time>2026-04-18T09:52:36Z</time></trkpt><trkpt lat="43.95137978209436" lon="7.833726257101112"><ele>410.0</ele><time>2026-04-18T09:52:37Z</time></trkpt><trkpt lat="43.95133588007156" lon="7.83357268859495"><ele>410.0</ele><time>2026-04-18T09:52:38Z</time></trkpt><trkpt lat="43.951288160439574" lon="7.833411075823965"><ele>411.0</ele><time>2026-04-18T09:52:39Z</time></trkpt><trkpt lat="43.95123369383253" lon="7.833254149773201"><ele>412.0</ele><time>2026-04-18T09:52:40Z</time></trkpt><trkpt lat="43.951187267634936" lon="7.833089640567878"><ele>413.0</ele><time>2026-04-18T09:52:41Z</time></trkpt><trkpt lat="43.951163145458885" lon="7.832916746376583"><ele>414.0</ele><time>2026-04-18T09:52:42Z</time></trkpt><trkpt lat="43.951163891028564" lon="7.832764008820455"><ele>411.25</ele><time>2026-04-18T09:52:43Z</time></trkpt><trkpt lat="43.951199676883896" lon="7.832624184470945"><ele>408.5</ele><time>2026-04-18T09:52:44Z</time></trkpt><trkpt lat="43.95126574833262" lon="7.832506341939793"><ele>405.75</ele><time>2026-04-18T09:52:45Z</time></trkpt><trkpt lat="43.95135873337389" lon="7.832417753174469"><ele>403.0</ele><time>2026-04-18T09:52:46Z</time></trkpt><trkpt lat="43.951481199971184" lon="7.8323543338048305"><ele>403.0</ele><time>2026-04-18T09:52:47Z</time></trkpt><trkpt lat="43.95162468226272" lon="7.832313305049082"><ele>403.0</ele><time>2026-04-18T09:52:48Z</time></trkpt><trkpt lat="43.95176019871298" lon="7.83229730090294"><ele>403.0</ele><time>2026-04-18T09:52:49Z</time></trkpt><trkpt lat="43.95188028592858" lon="7.832276639818098"><ele>403.0</ele><time>2026-04-18T09:52:50Z</time></trkpt><trkpt lat="43.951988222974755" lon="7.8322460176465"><ele>404.25</ele><time>2026-04-18T09:52:51Z</time></trkpt><trkpt lat="43.95207335533324" lon="7.832114218192119"><ele>405.5</ele><time>2026-04-18T09:52:52Z</time></trkpt><trkpt lat="43.95216087344845" lon="7.831967336124476"><ele>406.75</ele><time>2026-04-18T09:52:53Z</time></trkpt><trkpt lat="43.95225600575959" lon="7.831817647433806"><ele>408.0</ele><time>2026-04-18T09:52:54Z</time></trkpt><trkpt lat="43.952339110160615" lon="7.831649569374835"><ele>408.0</ele><time>2026-04-18T09:52:55Z</time></trkpt><trkpt lat="43.9524197625592" lon="7.831475795144736"><ele>408.0</ele><time>2026-04-18T09:52:56Z</time></trkpt><trkpt lat="43.95249302285188" lon="7.831297127485882"><ele>408.0</ele><time>2026-04-18T09:52:57Z</time></trkpt><trkpt lat="43.952572286444045" lon="7.831130200184866"><ele>408.0</ele><time>2026-04-18T09:52:58Z</time></trkpt><trkpt lat="43.95263604350998" lon="7.830946965177833"><ele>410.5</ele><time>2026-04-18T09:52:59Z</time></trkpt><trkpt lat="43.952681100757324" lon="7.830753192600521"><ele>413.0</ele><time>2026-04-18T09:53:00Z</time></trkpt><trkpt lat="43.95270807729079" lon="7.830557690540924"><ele>415.5</ele><time>2026-04-18T09:53:01Z</time></trkpt><trkpt lat="43.95271791556759" lon="7.8303771782245475"><ele>418.0</ele><time>2026-04-18T09:53:02Z</time></trkpt><trkpt lat="43.95274417326772" lon="7.830233875194678"><ele>410.4</ele><time>2026-04-18T09:53:03Z</time></trkpt><trkpt lat="43.95274602887957" lon="7.830097669603397"><ele>402.79999999999995</ele><time>2026-04-18T09:53:04Z</time></trkpt><trkpt lat="43.952790982371646" lon="7.829996679748162"><ele>395.2</ele><time>2026-04-18T09:53:05Z</time></trkpt><trkpt lat="43.9528610784357" lon="7.829938043569871"><ele>387.6</ele><time>2026-04-18T09:53:06Z</time></trkpt><trkpt lat="43.95295504910426" lon="7.82990273497346"><ele>380.0</ele><time>2026-04-18T09:53:07Z</time></trkpt><trkpt lat="43.953068662988905" lon="7.829908911837459"><ele>380.0</ele><time>2026-04-18T09:53:08Z</time></trkpt><trkpt lat="43.95319198928788" lon="7.829920531790743"><ele>380.0</ele><time>2026-04-18T09:53:09Z</time></trkpt><trkpt lat="43.95329488944127" lon="7.8299472389122196"><ele>380.0</ele><time>2026-04-18T09:53:10Z</time></trkpt><trkpt lat="43.953383871034966" lon="7.83001272600202"><ele>380.0</ele><time>2026-04-18T09:53:11Z</time></trkpt><trkpt lat="43.95346351635042" lon="7.830118424752743"><ele>380.0</ele><time>2026-04-18T09:53:12Z</time></trkpt><trkpt lat="43.95354930593398" lon="7.830207390433363"><ele>383.5</ele><time>2026-04-18T09:53:13Z</time></trkpt><trkpt lat="43.95364314948427" lon="7.830232647475837"><ele>387.0</ele><time>2026-04-18T09:53:14Z</time></trkpt><trkpt lat="43.953757898895695" lon="7.830195089338253"><ele>390.5</ele><time>2026-04-18T09:53:15Z</time></trkpt><trkpt lat="43.95386410754386" lon="7.8301011349593415"><ele>394.0</ele><time>2026-04-18T09:53:16Z</time></trkpt><trkpt lat="43.953975520018815" lon="7.8300343756206505"><ele>394.0</ele><time>2026-04-18T09:53:17Z</time></trkpt><trkpt lat="43.95408519329993" lon="7.829985907090335"><ele>394.0</ele><time>2026-04-18T09:53:18Z</time></trkpt><trkpt lat="43.95419864249193" lon="7.829954900391918"><ele>394.0</ele><time>2026-04-18T09:53:19Z</time></trkpt><trkpt lat="43.95431200676188" lon="7.829906136677078"><ele>394.0</ele><time>2026-04-18T09:53:20Z</time></trkpt><trkpt lat="43.95441103508422" lon="7.829805361173297"><ele>397.0</ele><time>2026-04-18T09:53:21Z</time></trkpt><trkpt lat="43.9544992788539" lon="7.8296716959621575"><ele>400.0</ele><time>2026-04-18T09:53:22Z</time></trkpt><trkpt lat="43.95458275362923" lon="7.829530128122787"><ele>403.0</ele><time>2026-04-18T09:53:23Z</time></trkpt><trkpt lat="43.95468956489688" lon="7.829438917005383"><ele>406.0</ele><time>2026-04-18T09:53:24Z</time></trkpt><trkpt lat="43.954814314303825" lon="7.829420416846462"><ele>406.0</ele><time>2026-04-18T09:53:25Z</time></trkpt><trkpt lat="43.95492621196351" lon="7.8293605604014935"><ele>406.0</ele><time>2026-04-18T09:53:26Z</time></trkpt><trkpt lat="43.95502973245147" lon="7.829267035118701"><ele>406.0</ele><time>2026-04-18T09:53:27Z</time></trkpt><trkpt lat="43.95513103311724" lon="7.829122107283008"><ele>406.0</ele><time>2026-04-18T09:53:28Z</time></trkpt><trkpt lat="43.955231074654705" lon="7.828955196361334"><ele>406.0</ele><time>2026-04-18T09:53:29Z</time></trkpt><trkpt lat="43.95533798178256" lon="7.828800382284027"><ele>406.0</ele><time>2026-04-18T09:53:30Z</time></trkpt><trkpt lat="43.95544000773035" lon="7.828654906612734"><ele>406.0</ele><time>2026-04-18T09:53:31Z</time></trkpt><trkpt lat="43.95552966795726" lon="7.828506833288107"><ele>406.0</ele><time>2026-04-18T09:53:32Z</time></trkpt><trkpt lat="43.95562012570672" lon="7.8283796183632015"><ele>408.0</ele><time>2026-04-18T09:53:33Z</time></trkpt><trkpt lat="43.95572161426264" lon="7.828281364053864"><ele>410.0</ele><time>2026-04-18T09:53:34Z</time></trkpt><trkpt lat="43.955840749085" lon="7.828216667047209"><ele>412.0</ele><time>2026-04-18T09:53:35Z</time></trkpt><trkpt lat="43.955979259481616" lon="7.8281662196382"><ele>414.0</ele><time>2026-04-18T09:53:36Z</time></trkpt><trkpt lat="43.95612254803639" lon="7.828104917754797"><ele>414.0</ele><time>2026-04-18T09:53:37Z</time></trkpt><trkpt lat="43.956255116676886" lon="7.828014674301655"><ele>414.0</ele><time>2026-04-18T09:53:38Z</time></trkpt><trkpt lat="43.956388122901366" lon="7.827883102963473"><ele>414.0</ele><time>2026-04-18T09:53:39Z</time></trkpt><trkpt lat="43.9565227527308" lon="7.827744130652573"><ele>419.66666666666663</ele><time>2026-04-18T09:53:40Z</time></trkpt><trkpt lat="43.95662751541097" lon="7.8275560798043236"><ele>425.3333333333333</ele><time>2026-04-18T09:53:41Z</time></trkpt><trkpt lat="43.95673793723324" lon="7.8273791208821315"><ele>431.0</ele><time>2026-04-18T09:53:42Z</time></trkpt><trkpt lat="43.956856692594535" lon="7.827222044021096"><ele>431.0</ele><time>2026-04-18T09:53:43Z</time></trkpt><trkpt lat="43.95699778292643" lon="7.827123395936523"><ele>431.0</ele><time>2026-04-18T09:53:44Z</time></trkpt><trkpt lat="43.957113069164315" lon="7.826975052726676"><ele>431.0</ele><time>2026-04-18T09:53:45Z</time></trkpt><trkpt lat="43.95721794325526" lon="7.8267866842020615"><ele>416.66666666666663</ele><time>2026-04-18T09:53:46Z</time></trkpt><trkpt lat="43.957311779515095" lon="7.82657326615947"><ele>402.33333333333337</ele><time>2026-04-18T09:53:47Z</time></trkpt><trkpt lat="43.95740822665316" lon="7.826349669056728"><ele>388.0</ele><time>2026-04-18T09:53:48Z</time></trkpt><trkpt lat="43.957511734100166" lon="7.8261258693607925"><ele>390.33333333333337</ele><time>2026-04-18T09:53:49Z</time></trkpt><trkpt lat="43.957618636326124" lon="7.825917908083798"><ele>392.66666666666663</ele><time>2026-04-18T09:53:50Z</time></trkpt><trkpt lat="43.95771143015579" lon="7.825724644550535"><ele>395.0</ele><time>2026-04-18T09:53:51Z</time></trkpt><trkpt lat="43.95778708843561" lon="7.825549301671612"><ele>395.0</ele><time>2026-04-18T09:53:52Z</time></trkpt><trkpt lat="43.957862756131405" lon="7.8253947905799714"><ele>395.0</ele><time>2026-04-18T09:53:53Z</time></trkpt><trkpt lat="43.95793908150966" lon="7.825283722392107"><ele>395.0</ele><time>2026-04-18T09:53:54Z</time></trkpt><trkpt lat="43.95803228615908" lon="7.825220620964419"><ele>395.0</ele><time>2026-04-18T09:53:55Z</time></trkpt><trkpt lat="43.95814961902084" lon="7.825194904845543"><ele>395.0</ele><time>2026-04-18T09:53:56Z</time></trkpt><trkpt lat="43.95828475571367" lon="7.825193065809017"><ele>395.0</ele><time>2026-04-18T09:53:57Z</time></trkpt><trkpt lat="43.9584120320674" lon="7.825157095295897"><ele>395.0</ele><time>2026-04-18T09:53:58Z</time></trkpt><trkpt lat="43.95852026859755" lon="7.825047893791469"><ele>395.0</ele><time>2026-04-18T09:53:59Z</time></trkpt><trkpt lat="43.95861692799251" lon="7.824879954498435"><ele>387.66666666666663</ele><time>2026-04-18T09:54:00Z</time></trkpt><trkpt lat="43.95871317529276" lon="7.824688577578986"><ele>380.3333333333333</ele><time>2026-04-18T09:54:01Z</time></trkpt><trkpt lat="43.95881407094849" lon="7.824508357635793"><ele>373.0</ele><time>2026-04-18T09:54:02Z</time></trkpt><trkpt lat="43.958906178507235" lon="7.824342695711171"><ele>372.75</ele><time>2026-04-18T09:54:03Z</time></trkpt><trkpt lat="43.95897691560778" lon="7.824189669160373"><ele>372.5</ele><time>2026-04-18T09:54:04Z</time></trkpt><trkpt lat="43.9590156827917" lon="7.824032903218049"><ele>372.25</ele><time>2026-04-18T09:54:05Z</time></trkpt><trkpt lat="43.95901902280156" lon="7.8238642887600305"><ele>372.0</ele><time>2026-04-18T09:54:06Z</time></trkpt><trkpt lat="43.95902073037645" lon="7.823709646809945"><ele>372.0</ele><time>2026-04-18T09:54:07Z</time></trkpt><trkpt lat="43.95904905523736" lon="7.823563138781848"><ele>372.0</ele><time>2026-04-18T09:54:08Z</time></trkpt><trkpt lat="43.95911787092645" lon="7.823412436338143"><ele>372.0</ele><time>2026-04-18T09:54:09Z</time></trkpt><trkpt lat="43.959213426489804" lon="7.823261491746173"><ele>372.0</ele><time>2026-04-18T09:54:10Z</time></trkpt><trkpt lat="43.9593026149143" lon="7.823081054192919"><ele>376.33333333333337</ele><time>2026-04-18T09:54:11Z</time></trkpt><trkpt lat="43.95940419443703" lon="7.822888747512684"><ele>380.6666666666667</ele><time>2026-04-18T09:54:12Z</time></trkpt><trkpt lat="43.959502581806674" lon="7.82270097410746"><ele>385.0</ele><time>2026-04-18T09:54:13Z</time></trkpt><trkpt lat="43.959590935196076" lon="7.82253103747337"><ele>385.0</ele><time>2026-04-18T09:54:14Z</time></trkpt><trkpt lat="43.95967467311544" lon="7.82237793483049"><ele>385.0</ele><time>2026-04-18T09:54:15Z</time></trkpt><trkpt lat="43.95975907180959" lon="7.822254465518973"><ele>385.0</ele><time>2026-04-18T09:54:16Z</time></trkpt><trkpt lat="43.95985796914905" lon="7.822176258766649"><ele>385.0</ele><time>2026-04-18T09:54:17Z</time></trkpt><trkpt lat="43.9599779601411" lon="7.822130939543007"><ele>387.0</ele><time>2026-04-18T09:54:18Z</time></trkpt><trkpt lat="43.96010646399749" lon="7.822112142165343"><ele>389.0</ele><time>2026-04-18T09:54:19Z</time></trkpt><trkpt lat="43.9602477879982" lon="7.822105839616175"><ele>391.0</ele><time>2026-04-18T09:54:20Z</time></trkpt><trkpt lat="43.96039245426546" lon="7.822098324321176"><ele>393.0</ele><time>2026-04-18T09:54:21Z</time></trkpt><trkpt lat="43.96053561269011" lon="7.822084035187831"><ele>393.0</ele><time>2026-04-18T09:54:22Z</time></trkpt><trkpt lat="43.960664157555584" lon="7.8220752718783215"><ele>393.0</ele><time>2026-04-18T09:54:23Z</time></trkpt><trkpt lat="43.96078217142176" lon="7.822080473760344"><ele>393.0</ele><time>2026-04-18T09:54:24Z</time></trkpt><trkpt lat="43.96088755822501" lon="7.822119668469619"><ele>393.0</ele><time>2026-04-18T09:54:25Z</time></trkpt><trkpt lat="43.960977835935594" lon="7.822241138052789"><ele>393.25</ele><time>2026-04-18T09:54:26Z</time></trkpt><trkpt lat="43.96109515434535" lon="7.822329741648076"><ele>393.5</ele><time>2026-04-18T09:54:27Z</time></trkpt><trkpt lat="43.961226779830035" lon="7.822405648254472"><ele>393.75</ele><time>2026-04-18T09:54:28Z</time></trkpt><trkpt lat="43.961372630741" lon="7.822449505499919"><ele>394.0</ele><time>2026-04-18T09:54:29Z</time></trkpt><trkpt lat="43.96152976072788" lon="7.8224409087385895"><ele>394.0</ele><time>2026-04-18T09:54:30Z</time></trkpt><trkpt lat="43.96169137876322" lon="7.822396749952623"><ele>394.0</ele><time>2026-04-18T09:54:31Z</time></trkpt><trkpt lat="43.96185298616966" lon="7.82233725025188"><ele>394.0</ele><time>2026-04-18T09:54:32Z</time></trkpt><trkpt lat="43.96201843517639" lon="7.822269387991083"><ele>398.0</ele><time>2026-04-18T09:54:33Z</time></trkpt><trkpt lat="43.96217179570137" lon="7.8221602080597945"><ele>402.0</ele><time>2026-04-18T09:54:34Z</time></trkpt><trkpt lat="43.96231594316498" lon="7.822063491501845"><ele>406.0</ele><time>2026-04-18T09:54:35Z</time></trkpt><trkpt lat="43.9624459437382" lon="7.821984208360791"><ele>403.0</ele><time>2026-04-18T09:54:36Z</time></trkpt><trkpt lat="43.96256552169063" lon="7.821868765984564"><ele>400.0</ele><time>2026-04-18T09:54:37Z</time></trkpt><trkpt lat="43.96266697778032" lon="7.821729875310874"><ele>397.0</ele><time>2026-04-18T09:54:38Z</time></trkpt><trkpt lat="43.962761250335724" lon="7.821554300032345"><ele>394.0</ele><time>2026-04-18T09:54:39Z</time></trkpt><trkpt lat="43.962853681841224" lon="7.8214011671105155"><ele>394.0</ele><time>2026-04-18T09:54:40Z</time></trkpt><trkpt lat="43.96293956286894" lon="7.8212656699627"><ele>394.0</ele><time>2026-04-18T09:54:41Z</time></trkpt><trkpt lat="43.96302546142478" lon="7.821122674747395"><ele>394.0</ele><time>2026-04-18T09:54:42Z</time></trkpt><trkpt lat="43.963094543198146" lon="7.820959031125191"><ele>394.0</ele><time>2026-04-18T09:54:43Z</time></trkpt><trkpt lat="43.96314333352235" lon="7.8207750953405615"><ele>387.33333333333337</ele><time>2026-04-18T09:54:44Z</time></trkpt><trkpt lat="43.96317798664291" lon="7.820577005004562"><ele>380.6666666666667</ele><time>2026-04-18T09:54:45Z</time></trkpt><trkpt lat="43.9632128673479" lon="7.820359736508505"><ele>374.0</ele><time>2026-04-18T09:54:46Z</time></trkpt><trkpt lat="43.96325324737937" lon="7.820140249550594"><ele>370.6666666666667</ele><time>2026-04-18T09:54:47Z</time></trkpt><trkpt lat="43.96329844648583" lon="7.819928772944731"><ele>367.3333333333333</ele><time>2026-04-18T09:54:48Z</time></trkpt><trkpt lat="43.963346655049804" lon="7.81972650981552"><ele>364.0</ele><time>2026-04-18T09:54:49Z</time></trkpt><trkpt lat="43.96340200329169" lon="7.819519348821935"><ele>369.25</ele><time>2026-04-18T09:54:50Z</time></trkpt><trkpt lat="43.96346017436702" lon="7.819316151503641"><ele>374.5</ele><time>2026-04-18T09:54:51Z</time></trkpt><trkpt lat="43.963528702926546" lon="7.819133718919102"><ele>379.75</ele><time>2026-04-18T09:54:52Z</time></trkpt><trkpt lat="43.96357039346523" lon="7.818977197378104"><ele>385.0</ele><time>2026-04-18T09:54:53Z</time></trkpt><trkpt lat="43.9635983560074" lon="7.8188196540794035"><ele>385.0</ele><time>2026-04-18T09:54:54Z</time></trkpt><trkpt lat="43.96363861635624" lon="7.818689962610945"><ele>385.0</ele><time>2026-04-18T09:54:55Z</time></trkpt><trkpt lat="43.96370076279964" lon="7.8185906276251975"><ele>385.0</ele><time>2026-04-18T09:54:56Z</time></trkpt><trkpt lat="43.963779194466134" lon="7.818502822989019"><ele>385.0</ele><time>2026-04-18T09:54:57Z</time></trkpt><trkpt lat="43.96388281236033" lon="7.8184325024428345"><ele>385.0</ele><time>2026-04-18T09:54:58Z</time></trkpt><trkpt lat="43.96399876845321" lon="7.8184113621875575"><ele>382.25</ele><time>2026-04-18T09:54:59Z</time></trkpt><trkpt lat="43.964137167200704" lon="7.818327818036257"><ele>379.5</ele><time>2026-04-18T09:55:00Z</time></trkpt><trkpt lat="43.96425842488937" lon="7.818228287350808"><ele>376.75</ele><time>2026-04-18T09:55:01Z</time></trkpt><trkpt lat="43.96436075569566" lon="7.818105308250229"><ele>374.0</ele><time>2026-04-18T09:55:02Z</time></trkpt><trkpt lat="43.9644676760704" lon="7.818019253389934"><ele>374.0</ele><time>2026-04-18T09:55:03Z</time></trkpt><trkpt lat="43.96457973500084" lon="7.817972089268488"><ele>374.0</ele><time>2026-04-18T09:55:04Z</time></trkpt><trkpt lat="43.96469755677273" lon="7.817971140298704"><ele>374.0</ele><time>2026-04-18T09:55:05Z</time></trkpt><trkpt lat="43.964826661760334" lon="7.817997330610978"><ele>374.0</ele><time>2026-04-18T09:55:06Z</time></trkpt><trkpt lat="43.96496742450934" lon="7.818044391110249"><ele>376.0</ele><time>2026-04-18T09:55:07Z</time></trkpt><trkpt lat="43.96511407528478" lon="7.818081464743866"><ele>378.0</ele><time>2026-04-18T09:55:08Z</time></trkpt><trkpt lat="43.96526052619699" lon="7.818093174962081"><ele>380.0</ele><time>2026-04-18T09:55:09Z</time></trkpt><trkpt lat="43.96540894073501" lon="7.818075446092455"><ele>382.0</ele><time>2026-04-18T09:55:10Z</time></trkpt><trkpt lat="43.965552038125544" lon="7.818018846317125"><ele>382.0</ele><time>2026-04-18T09:55:11Z</time></trkpt><trkpt lat="43.965683394535475" lon="7.817928814123556"><ele>382.0</ele><time>2026-04-18T09:55:12Z</time></trkpt><trkpt lat="43.96579857158927" lon="7.817824441391491"><ele>382.0</ele><time>2026-04-18T09:55:13Z</time></trkpt><trkpt lat="43.96590868878622" lon="7.817728960399257"><ele>382.0</ele><time>2026-04-18T09:55:14Z</time></trkpt><trkpt lat="43.96603328109019" lon="7.817662226166357"><ele>377.0</ele><time>2026-04-18T09:55:15Z</time></trkpt><trkpt lat="43.966170457319485" lon="7.817622123888775"><ele>372.0</ele><time>2026-04-18T09:55:16Z</time></trkpt><trkpt lat="43.966311577466264" lon="7.817581755242861"><ele>367.0</ele><time>2026-04-18T09:55:17Z</time></trkpt><trkpt lat="43.96644543378987" lon="7.8175271738728815"><ele>362.0</ele><time>2026-04-18T09:55:18Z</time></trkpt><trkpt lat="43.96656986090104" lon="7.817458856033752"><ele>362.0</ele><time>2026-04-18T09:55:19Z</time></trkpt><trkpt lat="43.9666818842425" lon="7.817381753193097"><ele>362.0</ele><time>2026-04-18T09:55:20Z</time></trkpt><trkpt lat="43.96678465464189" lon="7.817296741791675"><ele>362.0</ele><time>2026-04-18T09:55:21Z</time></trkpt><trkpt lat="43.96686936966958" lon="7.817219611517706"><ele>362.0</ele><time>2026-04-18T09:55:22Z</time></trkpt><trkpt lat="43.96694327748868" lon="7.817150870228437"><ele>362.0</ele><time>2026-04-18T09:55:23Z</time></trkpt><trkpt lat="43.96701295885291" lon="7.817066445656856"><ele>361.6666666666667</ele><time>2026-04-18T09:55:24Z</time></trkpt><trkpt lat="43.967073225764835" lon="7.816985947909744"><ele>361.33333333333337</ele><time>2026-04-18T09:55:25Z</time></trkpt><trkpt lat="43.96713128339067" lon="7.816908766017234"><ele>361.0</ele><time>2026-04-18T09:55:26Z</time></trkpt><trkpt lat="43.96719332199905" lon="7.816840635895723"><ele>360.6666666666667</ele><time>2026-04-18T09:55:27Z</time></trkpt><trkpt lat="43.96725203314472" lon="7.816770664356199"><ele>360.3333333333333</ele><time>2026-04-18T09:55:28Z</time></trkpt><trkpt lat="43.967309904210886" lon="7.816708414375962"><ele>360.0</ele><time>2026-04-18T09:55:29Z</time></trkpt><trkpt lat="43.96739271630267" lon="7.816623230571129"><ele>360.0</ele><time>2026-04-18T09:55:31Z</time></trkpt><trkpt lat="43.9674629030632" lon="7.816541341690744"><ele>360.0</ele><time>2026-04-18T09:55:33Z</time></trkpt><trkpt lat="43.96755017236106" lon="7.816443837629902"><ele>360.0</ele><time>2026-04-18T09:55:35Z</time></trkpt><trkpt lat="43.9676445891916" lon="7.8163410513049305"><ele>360.0</ele><time>2026-04-18T09:55:37Z</time></trkpt><trkpt lat="43.96770085181474" lon="7.816294950156896"><ele>360.0</ele><time>2026-04-18T09:55:38Z</time></trkpt><trkpt lat="43.96776100981968" lon="7.816255772591077"><ele>362.1428571428571</ele><time>2026-04-18T09:55:39Z</time></trkpt><trkpt lat="43.96782505053061" lon="7.816219589424803"><ele>364.28571428571433</ele><time>2026-04-18T09:55:40Z</time></trkpt><trkpt lat="43.967892717300145" lon="7.816193063988717"><ele>366.42857142857144</ele><time>2026-04-18T09:55:41Z</time></trkpt><trkpt lat="43.96796302356066" lon="7.816180666116808"><ele>368.57142857142856</ele><time>2026-04-18T09:55:42Z</time></trkpt><trkpt lat="43.968039241144055" lon="7.816183081221925"><ele>370.71428571428567</ele><time>2026-04-18T09:55:43Z</time></trkpt><trkpt lat="43.96811231115159" lon="7.81618923541372"><ele>372.8571428571429</ele><time>2026-04-18T09:55:44Z</time></trkpt><trkpt lat="43.96818743815541" lon="7.81619520577631"><ele>375.0</ele><time>2026-04-18T09:55:45Z</time></trkpt><trkpt lat="43.96826426806043" lon="7.816195000232293"><ele>375.0</ele><time>2026-04-18T09:55:46Z</time></trkpt><trkpt lat="43.96834093748143" lon="7.816192637572087"><ele>375.0</ele><time>2026-04-18T09:55:47Z</time></trkpt><trkpt lat="43.96841876078922" lon="7.816195018825343"><ele>375.0</ele><time>2026-04-18T09:55:48Z</time></trkpt><trkpt lat="43.96850093765336" lon="7.816197083593139"><ele>375.0</ele><time>2026-04-18T09:55:49Z</time></trkpt><trkpt lat="43.968581965481036" lon="7.816200968656269"><ele>375.0</ele><time>2026-04-18T09:55:50Z</time></trkpt><trkpt lat="43.96866307042938" lon="7.816204240084518"><ele>375.0</ele><time>2026-04-18T09:55:51Z</time></trkpt><trkpt lat="43.96874738362062" lon="7.816239295197795"><ele>376.5</ele><time>2026-04-18T09:55:52Z</time></trkpt><trkpt lat="43.96882736704088" lon="7.816268006143612"><ele>378.0</ele><time>2026-04-18T09:55:53Z</time></trkpt><trkpt lat="43.96890726679034" lon="7.816287172433434"><ele>379.5</ele><time>2026-04-18T09:55:54Z</time></trkpt><trkpt lat="43.968985804929915" lon="7.816302687067752"><ele>381.0</ele><time>2026-04-18T09:55:55Z</time></trkpt><trkpt lat="43.969061337242195" lon="7.81631773673001"><ele>382.5</ele><time>2026-04-18T09:55:56Z</time></trkpt><trkpt lat="43.969135694984175" lon="7.816340797665928"><ele>384.0</ele><time>2026-04-18T09:55:57Z</time></trkpt><trkpt lat="43.96920260742256" lon="7.81636995179923"><ele>384.0</ele><time>2026-04-18T09:55:58Z</time></trkpt><trkpt lat="43.969278872850644" lon="7.816401242827967"><ele>384.0</ele><time>2026-04-18T09:55:59Z</time></trkpt><trkpt lat="43.96936001459604" lon="7.816426412334877"><ele>384.0</ele><time>2026-04-18T09:56:00Z</time></trkpt><trkpt lat="43.969448148674125" lon="7.816448249919726"><ele>384.0</ele><time>2026-04-18T09:56:01Z</time></trkpt><trkpt lat="43.9695422984869" lon="7.816465079464336"><ele>384.0</ele><time>2026-04-18T09:56:02Z</time></trkpt><trkpt lat="43.96963698301843" lon="7.816478540951318"><ele>384.0</ele><time>2026-04-18T09:56:03Z</time></trkpt><trkpt lat="43.96973696264435" lon="7.816479564247187"><ele>384.0</ele><time>2026-04-18T09:56:04Z</time></trkpt><trkpt lat="43.96983780039407" lon="7.816470679187927"><ele>384.0</ele><time>2026-04-18T09:56:05Z</time></trkpt><trkpt lat="43.96993368869059" lon="7.816457862922772"><ele>384.0</ele><time>2026-04-18T09:56:06Z</time></trkpt><trkpt lat="43.97003090555575" lon="7.816430994428453"><ele>384.0</ele><time>2026-04-18T09:56:07Z</time></trkpt><trkpt lat="43.97012692742676" lon="7.816404164253554"><ele>384.0</ele><time>2026-04-18T09:56:08Z</time></trkpt><trkpt lat="43.97022239347737" lon="7.816371136908471"><ele>386.0</ele><time>2026-04-18T09:56:09Z</time></trkpt><trkpt lat="43.97032102595348" lon="7.816352660152151"><ele>388.0</ele><time>2026-04-18T09:56:10Z</time></trkpt><trkpt lat="43.970416036441875" lon="7.816312199257101"><ele>390.0</ele><time>2026-04-18T09:56:11Z</time></trkpt><trkpt lat="43.9705080684255" lon="7.816269243832529"><ele>392.0</ele><time>2026-04-18T09:56:12Z</time></trkpt><trkpt lat="43.970594249678676" lon="7.816228073476302"><ele>394.0</ele><time>2026-04-18T09:56:13Z</time></trkpt><trkpt lat="43.97067611951925" lon="7.816187096702212"><ele>394.00000000000006</ele><time>2026-04-18T09:56:14Z</time></trkpt><trkpt lat="43.97075566562761" lon="7.816142758324529"><ele>394.0</ele><time>2026-04-18T09:56:15Z</time></trkpt><trkpt lat="43.97083238625688" lon="7.816102453063116"><ele>394.0</ele><time>2026-04-18T09:56:16Z</time></trkpt><trkpt lat="43.970907338521954" lon="7.81606743985079"><ele>394.0</ele><time>2026-04-18T09:56:17Z</time></trkpt><trkpt lat="43.970974585385484" lon="7.816034733310897"><ele>394.00000000000006</ele><time>2026-04-18T09:56:18Z</time></trkpt><trkpt lat="43.971036701722745" lon="7.81600388202877"><ele>394.0</ele><time>2026-04-18T09:56:19Z</time></trkpt><trkpt lat="43.97113489181148" lon="7.815955404791449"><ele>392.0</ele><time>2026-04-18T09:56:21Z</time></trkpt><trkpt lat="43.971252953891835" lon="7.815883067167536"><ele>390.0</ele><time>2026-04-18T09:56:23Z</time></trkpt><trkpt lat="43.97131711436922" lon="7.815829998497083"><ele>388.0</ele><time>2026-04-18T09:56:24Z</time></trkpt><trkpt lat="43.971374289074454" lon="7.815753177784972"><ele>386.0</ele><time>2026-04-18T09:56:25Z</time></trkpt><trkpt lat="43.97141643709604" lon="7.815655554601563"><ele>384.0</ele><time>2026-04-18T09:56:26Z</time></trkpt><trkpt lat="43.9714442219087" lon="7.815538942165335"><ele>384.0</ele><time>2026-04-18T09:56:27Z</time></trkpt><trkpt lat="43.971453317299485" lon="7.815405845901281"><ele>384.0</ele><time>2026-04-18T09:56:28Z</time></trkpt><trkpt lat="43.97146446294412" lon="7.815278607216236"><ele>384.0</ele><time>2026-04-18T09:56:29Z</time></trkpt><trkpt lat="43.971482638884254" lon="7.8151589900709455"><ele>384.0</ele><time>2026-04-18T09:56:30Z</time></trkpt><trkpt lat="43.97152126706743" lon="7.815044751965233"><ele>384.0</ele><time>2026-04-18T09:56:31Z</time></trkpt><trkpt lat="43.97156191662026" lon="7.814923637260317"><ele>382.79999999999995</ele><time>2026-04-18T09:56:32Z</time></trkpt><trkpt lat="43.97161651198409" lon="7.814798200465629"><ele>381.59999999999997</ele><time>2026-04-18T09:56:33Z</time></trkpt><trkpt lat="43.97166112731385" lon="7.814670772897832"><ele>380.4</ele><time>2026-04-18T09:56:34Z</time></trkpt><trkpt lat="43.97171512983339" lon="7.814536502561833"><ele>379.2</ele><time>2026-04-18T09:56:35Z</time></trkpt><trkpt lat="43.97177283147761" lon="7.814403673656662"><ele>378.0</ele><time>2026-04-18T09:56:36Z</time></trkpt><trkpt lat="43.971836258075406" lon="7.814276055806043"><ele>385.5</ele><time>2026-04-18T09:56:37Z</time></trkpt><trkpt lat="43.9719070162226" lon="7.814147572555894"><ele>393.0</ele><time>2026-04-18T09:56:38Z</time></trkpt><trkpt lat="43.97198610074429" lon="7.814016788971042"><ele>400.5</ele><time>2026-04-18T09:56:39Z</time></trkpt><trkpt lat="43.97207377807751" lon="7.8138850853912105"><ele>408.0</ele><time>2026-04-18T09:56:40Z</time></trkpt><trkpt lat="43.972176851684026" lon="7.813737844681469"><ele>408.0</ele><time>2026-04-18T09:56:41Z</time></trkpt><trkpt lat="43.97228856481451" lon="7.813577810491385"><ele>408.0</ele><time>2026-04-18T09:56:42Z</time></trkpt><trkpt lat="43.972399253411346" lon="7.81341219968184"><ele>408.0</ele><time>2026-04-18T09:56:43Z</time></trkpt><trkpt lat="43.97251233521709" lon="7.813238195277451"><ele>416.33333333333337</ele><time>2026-04-18T09:56:44Z</time></trkpt><trkpt lat="43.97262316917038" lon="7.813064977541247"><ele>424.6666666666667</ele><time>2026-04-18T09:56:45Z</time></trkpt><trkpt lat="43.97274428170362" lon="7.812894079966525"><ele>433.0</ele><time>2026-04-18T09:56:46Z</time></trkpt><trkpt lat="43.97287256160111" lon="7.812732200687982"><ele>421.0</ele><time>2026-04-18T09:56:47Z</time></trkpt><trkpt lat="43.97301079486841" lon="7.812578071139545"><ele>409.0</ele><time>2026-04-18T09:56:48Z</time></trkpt><trkpt lat="43.97314714736453" lon="7.812430317050673"><ele>397.0</ele><time>2026-04-18T09:56:49Z</time></trkpt><trkpt lat="43.97327534124042" lon="7.812281802740525"><ele>407.33333333333337</ele><time>2026-04-18T09:56:50Z</time></trkpt><trkpt lat="43.973399970274706" lon="7.81212212644304"><ele>417.66666666666663</ele><time>2026-04-18T09:56:51Z</time></trkpt><trkpt lat="43.97350310732333" lon="7.811967859767946"><ele>428.0</ele><time>2026-04-18T09:56:52Z</time></trkpt><trkpt lat="43.97361168777659" lon="7.811831523449895"><ele>417.0</ele><time>2026-04-18T09:56:53Z</time></trkpt><trkpt lat="43.97371847158943" lon="7.811683881061727"><ele>406.0</ele><time>2026-04-18T09:56:54Z</time></trkpt><trkpt lat="43.973808141636376" lon="7.811514400754954"><ele>395.0</ele><time>2026-04-18T09:56:55Z</time></trkpt><trkpt lat="43.97387606353479" lon="7.811311181445114"><ele>395.0</ele><time>2026-04-18T09:56:56Z</time></trkpt><trkpt lat="43.97393286677828" lon="7.811100304251751"><ele>395.0</ele><time>2026-04-18T09:56:57Z</time></trkpt><trkpt lat="43.973989060317066" lon="7.810913613930253"><ele>395.0</ele><time>2026-04-18T09:56:58Z</time></trkpt><trkpt lat="43.97404767549256" lon="7.8107388678991425"><ele>395.0</ele><time>2026-04-18T09:56:59Z</time></trkpt><trkpt lat="43.97411073654714" lon="7.810579126274923"><ele>393.5</ele><time>2026-04-18T09:57:00Z</time></trkpt><trkpt lat="43.974172885224334" lon="7.810431389513251"><ele>392.0</ele><time>2026-04-18T09:57:01Z</time></trkpt><trkpt lat="43.97423188192244" lon="7.810275703140965"><ele>390.5</ele><time>2026-04-18T09:57:02Z</time></trkpt><trkpt lat="43.974288987914676" lon="7.8101063853026345"><ele>389.0</ele><time>2026-04-18T09:57:03Z</time></trkpt><trkpt lat="43.974348696772566" lon="7.809926508149131"><ele>392.0</ele><time>2026-04-18T09:57:04Z</time></trkpt><trkpt lat="43.974413181949444" lon="7.809745989353942"><ele>395.0</ele><time>2026-04-18T09:57:05Z</time></trkpt><trkpt lat="43.974479773708026" lon="7.809566863054276"><ele>398.0</ele><time>2026-04-18T09:57:06Z</time></trkpt><trkpt lat="43.97454310539887" lon="7.809380022775376"><ele>401.0</ele><time>2026-04-18T09:57:07Z</time></trkpt><trkpt lat="43.97460013864961" lon="7.809182678917614"><ele>401.0</ele><time>2026-04-18T09:57:08Z</time></trkpt><trkpt lat="43.97465804581542" lon="7.808983901528268"><ele>401.0</ele><time>2026-04-18T09:57:09Z</time></trkpt><trkpt lat="43.974705938376225" lon="7.808777019181472"><ele>401.0</ele><time>2026-04-18T09:57:10Z</time></trkpt><trkpt lat="43.97475491703664" lon="7.808571194096082"><ele>399.5</ele><time>2026-04-18T09:57:11Z</time></trkpt><trkpt lat="43.9748145093802" lon="7.808375198735126"><ele>398.0</ele><time>2026-04-18T09:57:12Z</time></trkpt><trkpt lat="43.974880075499925" lon="7.808184931426982"><ele>396.5</ele><time>2026-04-18T09:57:13Z</time></trkpt><trkpt lat="43.9749268255277" lon="7.8079987085814295"><ele>395.0</ele><time>2026-04-18T09:57:14Z</time></trkpt><trkpt lat="43.97494114644246" lon="7.807805206120832"><ele>392.3333333333333</ele><time>2026-04-18T09:57:15Z</time></trkpt><trkpt lat="43.97493378629752" lon="7.807587228157769"><ele>389.66666666666663</ele><time>2026-04-18T09:57:16Z</time></trkpt><trkpt lat="43.9749344796192" lon="7.807366772971897"><ele>387.0</ele><time>2026-04-18T09:57:17Z</time></trkpt><trkpt lat="43.974938302809456" lon="7.807146962131359"><ele>387.0</ele><time>2026-04-18T09:57:18Z</time></trkpt><trkpt lat="43.97493521932709" lon="7.8069226984095925"><ele>387.0</ele><time>2026-04-18T09:57:19Z</time></trkpt><trkpt lat="43.974924592283614" lon="7.806696540955489"><ele>387.0</ele><time>2026-04-18T09:57:20Z</time></trkpt><trkpt lat="43.97491314872804" lon="7.806468934087736"><ele>387.0</ele><time>2026-04-18T09:57:21Z</time></trkpt><trkpt lat="43.974894557622534" lon="7.806246237130886"><ele>387.0</ele><time>2026-04-18T09:57:22Z</time></trkpt><trkpt lat="43.974855491063124" lon="7.8060236156085026"><ele>387.0</ele><time>2026-04-18T09:57:23Z</time></trkpt><trkpt lat="43.97480951137107" lon="7.805801229748634"><ele>387.33333333333337</ele><time>2026-04-18T09:57:24Z</time></trkpt><trkpt lat="43.97476403609741" lon="7.805579580474114"><ele>387.6666666666667</ele><time>2026-04-18T09:57:25Z</time></trkpt><trkpt lat="43.97472235954611" lon="7.805358370364162"><ele>388.0</ele><time>2026-04-18T09:57:26Z</time></trkpt><trkpt lat="43.97469042955869" lon="7.805131898922722"><ele>391.6666666666667</ele><time>2026-04-18T09:57:27Z</time></trkpt><trkpt lat="43.9746673627363" lon="7.804897152226824"><ele>395.33333333333337</ele><time>2026-04-18T09:57:28Z</time></trkpt><trkpt lat="43.974653764909" lon="7.804658437073943"><ele>399.0</ele><time>2026-04-18T09:57:29Z</time></trkpt><trkpt lat="43.9746475217063" lon="7.8044377723574145"><ele>400.25</ele><time>2026-04-18T09:57:30Z</time></trkpt><trkpt lat="43.9746463014987" lon="7.8042287589483"><ele>401.5</ele><time>2026-04-18T09:57:31Z</time></trkpt><trkpt lat="43.97465670733773" lon="7.804038811067171"><ele>402.75</ele><time>2026-04-18T09:57:32Z</time></trkpt><trkpt lat="43.974695456255084" lon="7.803854553276311"><ele>404.0</ele><time>2026-04-18T09:57:33Z</time></trkpt><trkpt lat="43.97475866084106" lon="7.8036847069222235"><ele>404.0</ele><time>2026-04-18T09:57:34Z</time></trkpt><trkpt lat="43.974839079601566" lon="7.80351753773826"><ele>404.0</ele><time>2026-04-18T09:57:35Z</time></trkpt><trkpt lat="43.97493120573789" lon="7.80335729294087"><ele>404.0</ele><time>2026-04-18T09:57:36Z</time></trkpt><trkpt lat="43.97502802567492" lon="7.803205422085677"><ele>404.0</ele><time>2026-04-18T09:57:37Z</time></trkpt><trkpt lat="43.975137917999355" lon="7.80306853071685"><ele>402.0</ele><time>2026-04-18T09:57:38Z</time></trkpt><trkpt lat="43.97526005053384" lon="7.802930267889834"><ele>400.0</ele><time>2026-04-18T09:57:39Z</time></trkpt><trkpt lat="43.97538199799437" lon="7.802782395973067"><ele>398.0</ele><time>2026-04-18T09:57:40Z</time></trkpt><trkpt lat="43.97550535599159" lon="7.802649245471358"><ele>398.0</ele><time>2026-04-18T09:57:41Z</time></trkpt><trkpt lat="43.975635545038415" lon="7.802532257542808"><ele>398.0</ele><time>2026-04-18T09:57:42Z</time></trkpt><trkpt lat="43.97576383634377" lon="7.802428244389229"><ele>398.0</ele><time>2026-04-18T09:57:43Z</time></trkpt><trkpt lat="43.97589225783982" lon="7.802353410717077"><ele>398.0</ele><time>2026-04-18T09:57:44Z</time></trkpt><trkpt lat="43.976035329122126" lon="7.802303920449559"><ele>407.3333333333333</ele><time>2026-04-18T09:57:45Z</time></trkpt><trkpt lat="43.97618363348296" lon="7.802263583469769"><ele>416.66666666666663</ele><time>2026-04-18T09:57:46Z</time></trkpt><trkpt lat="43.976332638748424" lon="7.802223787303029"><ele>426.0</ele><time>2026-04-18T09:57:47Z</time></trkpt><trkpt lat="43.97648355416454" lon="7.802197359807752"><ele>426.0</ele><time>2026-04-18T09:57:48Z</time></trkpt><trkpt lat="43.97663616910352" lon="7.8021810682214205"><ele>426.0</ele><time>2026-04-18T09:57:49Z</time></trkpt><trkpt lat="43.976767421407196" lon="7.802082639440334"><ele>426.0</ele><time>2026-04-18T09:57:50Z</time></trkpt><trkpt lat="43.97690320395646" lon="7.801973993378543"><ele>421.0</ele><time>2026-04-18T09:57:51Z</time></trkpt><trkpt lat="43.97703224564415" lon="7.801858474140907"><ele>416.0</ele><time>2026-04-18T09:57:52Z</time></trkpt><trkpt lat="43.97715867319915" lon="7.801728752878593"><ele>411.0</ele><time>2026-04-18T09:57:53Z</time></trkpt><trkpt lat="43.977288925325354" lon="7.801601264164966"><ele>411.0</ele><time>2026-04-18T09:57:54Z</time></trkpt><trkpt lat="43.97741760289928" lon="7.801468748918748"><ele>411.0</ele><time>2026-04-18T09:57:55Z</time></trkpt><trkpt lat="43.97755336591993" lon="7.801351505539124"><ele>411.0</ele><time>2026-04-18T09:57:56Z</time></trkpt><trkpt lat="43.977683730364745" lon="7.801230445856384"><ele>413.33333333333337</ele><time>2026-04-18T09:57:57Z</time></trkpt><trkpt lat="43.97780139283887" lon="7.801074970701228"><ele>415.6666666666667</ele><time>2026-04-18T09:57:58Z</time></trkpt><trkpt lat="43.977913375475026" lon="7.8009070578196695"><ele>418.0</ele><time>2026-04-18T09:57:59Z</time></trkpt><trkpt lat="43.97802378482154" lon="7.800736480468567"><ele>418.0</ele><time>2026-04-18T09:58:00Z</time></trkpt><trkpt lat="43.97815596720878" lon="7.800591018754696"><ele>418.0</ele><time>2026-04-18T09:58:01Z</time></trkpt><trkpt lat="43.978267356705366" lon="7.800412825979759"><ele>418.0</ele><time>2026-04-18T09:58:02Z</time></trkpt><trkpt lat="43.97838648089785" lon="7.800253045911628"><ele>422.0</ele><time>2026-04-18T09:58:03Z</time></trkpt><trkpt lat="43.97850281355263" lon="7.800090805191826"><ele>426.0</ele><time>2026-04-18T09:58:04Z</time></trkpt><trkpt lat="43.978611660027276" lon="7.799916349039482"><ele>430.0</ele><time>2026-04-18T09:58:05Z</time></trkpt><trkpt lat="43.97871126339474" lon="7.799745806993598"><ele>430.0</ele><time>2026-04-18T09:58:06Z</time></trkpt><trkpt lat="43.97880079227312" lon="7.799552553585208"><ele>430.0</ele><time>2026-04-18T09:58:07Z</time></trkpt><trkpt lat="43.97889152795922" lon="7.79935935823828"><ele>430.0</ele><time>2026-04-18T09:58:08Z</time></trkpt><trkpt lat="43.978982007817216" lon="7.799167518025894"><ele>425.33333333333337</ele><time>2026-04-18T09:58:09Z</time></trkpt><trkpt lat="43.979071154067704" lon="7.798976941373599"><ele>420.66666666666663</ele><time>2026-04-18T09:58:10Z</time></trkpt><trkpt lat="43.97915166126659" lon="7.798777262480649"><ele>416.0</ele><time>2026-04-18T09:58:11Z</time></trkpt><trkpt lat="43.979222473529425" lon="7.798569614266895"><ele>430.66666666666663</ele><time>2026-04-18T09:58:12Z</time></trkpt><trkpt lat="43.97927911517667" lon="7.798348870440718"><ele>445.33333333333337</ele><time>2026-04-18T09:58:13Z</time></trkpt><trkpt lat="43.97932924253267" lon="7.798124724123204"><ele>460.0</ele><time>2026-04-18T09:58:14Z</time></trkpt><trkpt lat="43.97938250904238" lon="7.797904258027466"><ele>460.0</ele><time>2026-04-18T09:58:15Z</time></trkpt><trkpt lat="43.9794320002188" lon="7.797700846782784"><ele>460.0</ele><time>2026-04-18T09:58:16Z</time></trkpt><trkpt lat="43.9794767438868" lon="7.7974985690885115"><ele>460.0</ele><time>2026-04-18T09:58:17Z</time></trkpt><trkpt lat="43.979505458731225" lon="7.7972890878131516"><ele>452.33333333333337</ele><time>2026-04-18T09:58:18Z</time></trkpt><trkpt lat="43.979526211139884" lon="7.797076673220668"><ele>444.66666666666663</ele><time>2026-04-18T09:58:19Z</time></trkpt><trkpt lat="43.979551569415825" lon="7.796868829622455"><ele>437.0</ele><time>2026-04-18T09:58:20Z</time></trkpt><trkpt lat="43.9795855124347" lon="7.796663401941965"><ele>433.66666666666663</ele><time>2026-04-18T09:58:21Z</time></trkpt><trkpt lat="43.97962276152716" lon="7.796455191138914"><ele>430.33333333333337</ele><time>2026-04-18T09:58:22Z</time></trkpt><trkpt lat="43.97966474585404" lon="7.796248161420259"><ele>427.0</ele><time>2026-04-18T09:58:23Z</time></trkpt><trkpt lat="43.979706278995316" lon="7.79604195510385"><ele>426.0</ele><time>2026-04-18T09:58:24Z</time></trkpt><trkpt lat="43.97975445243709" lon="7.795835830110184"><ele>425.0</ele><time>2026-04-18T09:58:25Z</time></trkpt><trkpt lat="43.97982694528874" lon="7.795640947261852"><ele>424.0</ele><time>2026-04-18T09:58:26Z</time></trkpt><trkpt lat="43.97991624162441" lon="7.795465067067116"><ele>423.0</ele><time>2026-04-18T09:58:27Z</time></trkpt><trkpt lat="43.980022546675514" lon="7.795303768328839"><ele>422.0</ele><time>2026-04-18T09:58:28Z</time></trkpt><trkpt lat="43.98013830129156" lon="7.795143082078343"><ele>421.0</ele><time>2026-04-18T09:58:29Z</time></trkpt><trkpt lat="43.98025503477622" lon="7.794978520299188"><ele>421.0</ele><time>2026-04-18T09:58:30Z</time></trkpt><trkpt lat="43.98036458064157" lon="7.79481812606797"><ele>421.0</ele><time>2026-04-18T09:58:31Z</time></trkpt><trkpt lat="43.98047521131762" lon="7.794669162289309"><ele>421.0</ele><time>2026-04-18T09:58:32Z</time></trkpt><trkpt lat="43.98057387676485" lon="7.794521939696557"><ele>421.0</ele><time>2026-04-18T09:58:33Z</time></trkpt><trkpt lat="43.98067130185719" lon="7.794390841827666"><ele>421.0</ele><time>2026-04-18T09:58:34Z</time></trkpt><trkpt lat="43.98077403494264" lon="7.794283812831119"><ele>421.0</ele><time>2026-04-18T09:58:35Z</time></trkpt><trkpt lat="43.980884606325226" lon="7.794208009379834"><ele>421.0</ele><time>2026-04-18T09:58:36Z</time></trkpt><trkpt lat="43.98101607809789" lon="7.794146165858818"><ele>422.5</ele><time>2026-04-18T09:58:37Z</time></trkpt><trkpt lat="43.98115713353085" lon="7.794088219610785"><ele>424.0</ele><time>2026-04-18T09:58:38Z</time></trkpt><trkpt lat="43.98129550920721" lon="7.794029579697086"><ele>425.5</ele><time>2026-04-18T09:58:39Z</time></trkpt><trkpt lat="43.98143440073852" lon="7.793995115223213"><ele>427.0</ele><time>2026-04-18T09:58:40Z</time></trkpt><trkpt lat="43.98158610445017" lon="7.794011845441948"><ele>428.33333333333337</ele><time>2026-04-18T09:58:41Z</time></trkpt><trkpt lat="43.98174564202673" lon="7.794047287209372"><ele>429.66666666666663</ele><time>2026-04-18T09:58:42Z</time></trkpt><trkpt lat="43.98190455193783" lon="7.7940657571487995"><ele>431.0</ele><time>2026-04-18T09:58:43Z</time></trkpt><trkpt lat="43.982057464447195" lon="7.794059976912726"><ele>431.0</ele><time>2026-04-18T09:58:44Z</time></trkpt><trkpt lat="43.982200548791575" lon="7.794043596083268"><ele>431.0</ele><time>2026-04-18T09:58:45Z</time></trkpt><trkpt lat="43.98234464961538" lon="7.794010525967103"><ele>431.0</ele><time>2026-04-18T09:58:46Z</time></trkpt><trkpt lat="43.98249829789223" lon="7.79394108765485"><ele>440.0</ele><time>2026-04-18T09:58:47Z</time></trkpt><trkpt lat="43.9826511543657" lon="7.793854472400745"><ele>449.0</ele><time>2026-04-18T09:58:48Z</time></trkpt><trkpt lat="43.9828050814272" lon="7.793766033104799"><ele>458.0</ele><time>2026-04-18T09:58:49Z</time></trkpt><trkpt lat="43.98295791013478" lon="7.793678759284954"><ele>458.0</ele><time>2026-04-18T09:58:50Z</time></trkpt><trkpt lat="43.98309774862952" lon="7.793594549351646"><ele>458.0</ele><time>2026-04-18T09:58:51Z</time></trkpt><trkpt lat="43.98322521291921" lon="7.793500106837898"><ele>458.0</ele><time>2026-04-18T09:58:52Z</time></trkpt><trkpt lat="43.98334175787395" lon="7.7933928212514365"><ele>458.0</ele><time>2026-04-18T09:58:53Z</time></trkpt><trkpt lat="43.983454770284055" lon="7.793269213365573"><ele>462.0</ele><time>2026-04-18T09:58:54Z</time></trkpt><trkpt lat="43.98355843112751" lon="7.7931343378076425"><ele>466.0</ele><time>2026-04-18T09:58:55Z</time></trkpt><trkpt lat="43.983652238700756" lon="7.7929863495715725"><ele>470.0</ele><time>2026-04-18T09:58:56Z</time></trkpt><trkpt lat="43.983728996800835" lon="7.792843811450078"><ele>474.0</ele><time>2026-04-18T09:58:57Z</time></trkpt><trkpt lat="43.983781275045416" lon="7.792700389514325"><ele>467.75</ele><time>2026-04-18T09:58:58Z</time></trkpt><trkpt lat="43.9838081164357" lon="7.792531387375378"><ele>461.5</ele><time>2026-04-18T09:58:59Z</time></trkpt><trkpt lat="43.98381563247981" lon="7.792346747036334"><ele>455.25</ele><time>2026-04-18T09:59:00Z</time></trkpt><trkpt lat="43.983827807951286" lon="7.792150529565298"><ele>449.0</ele><time>2026-04-18T09:59:01Z</time></trkpt><trkpt lat="43.983827730452035" lon="7.791946214502327"><ele>449.66666666666663</ele><time>2026-04-18T09:59:02Z</time></trkpt><trkpt lat="43.983817859031156" lon="7.791744803497728"><ele>450.33333333333337</ele><time>2026-04-18T09:59:03Z</time></trkpt><trkpt lat="43.98378970233533" lon="7.79153392725622"><ele>451.0</ele><time>2026-04-18T09:59:04Z</time></trkpt><trkpt lat="43.983744243604484" lon="7.791317517153285"><ele>451.0</ele><time>2026-04-18T09:59:05Z</time></trkpt><trkpt lat="43.98367986016852" lon="7.791110956335459"><ele>451.0</ele><time>2026-04-18T09:59:06Z</time></trkpt><trkpt lat="43.983616567063166" lon="7.790906761487694"><ele>451.0</ele><time>2026-04-18T09:59:07Z</time></trkpt><trkpt lat="43.98355707526595" lon="7.7907072607234324"><ele>453.0</ele><time>2026-04-18T09:59:08Z</time></trkpt><trkpt lat="43.98349849539467" lon="7.790521628059993"><ele>455.0</ele><time>2026-04-18T09:59:09Z</time></trkpt><trkpt lat="43.983425299455384" lon="7.7903654800203554"><ele>457.0</ele><time>2026-04-18T09:59:10Z</time></trkpt><trkpt lat="43.983354065688985" lon="7.790238177987969"><ele>459.0</ele><time>2026-04-18T09:59:11Z</time></trkpt><trkpt lat="43.98330122690156" lon="7.790104066216029"><ele>452.5</ele><time>2026-04-18T09:59:12Z</time></trkpt><trkpt lat="43.98327285662029" lon="7.789946546411829"><ele>446.0</ele><time>2026-04-18T09:59:13Z</time></trkpt><trkpt lat="43.98326018004136" lon="7.789768934208049"><ele>439.5</ele><time>2026-04-18T09:59:14Z</time></trkpt><trkpt lat="43.983268076758826" lon="7.7895792717757075"><ele>433.0</ele><time>2026-04-18T09:59:15Z</time></trkpt><trkpt lat="43.98329126793318" lon="7.789389930241393"><ele>433.0</ele><time>2026-04-18T09:59:16Z</time></trkpt><trkpt lat="43.98331799485188" lon="7.789225319045456"><ele>433.0</ele><time>2026-04-18T09:59:17Z</time></trkpt><trkpt lat="43.98335919298062" lon="7.789083976771823"><ele>433.0</ele><time>2026-04-18T09:59:18Z</time></trkpt><trkpt lat="43.98343121797624" lon="7.7889768824316485"><ele>433.0</ele><time>2026-04-18T09:59:19Z</time></trkpt><trkpt lat="43.98352955858763" lon="7.788881457990598"><ele>435.5</ele><time>2026-04-18T09:59:20Z</time></trkpt><trkpt lat="43.983644004644596" lon="7.788790575720172"><ele>438.0</ele><time>2026-04-18T09:59:21Z</time></trkpt><trkpt lat="43.98375508150504" lon="7.78868022111089"><ele>440.5</ele><time>2026-04-18T09:59:22Z</time></trkpt><trkpt lat="43.98387025107569" lon="7.788560267903927"><ele>443.0</ele><time>2026-04-18T09:59:23Z</time></trkpt><trkpt lat="43.98397923915537" lon="7.788434026378125"><ele>443.0</ele><time>2026-04-18T09:59:24Z</time></trkpt><trkpt lat="43.98408938857755" lon="7.78828845659334"><ele>443.0</ele><time>2026-04-18T09:59:25Z</time></trkpt><trkpt lat="43.98419998242919" lon="7.788136675048719"><ele>443.0</ele><time>2026-04-18T09:59:26Z</time></trkpt><trkpt lat="43.98431627844984" lon="7.787989138523748"><ele>447.66666666666663</ele><time>2026-04-18T09:59:27Z</time></trkpt><trkpt lat="43.98443665959952" lon="7.787848626799978"><ele>452.33333333333337</ele><time>2026-04-18T09:59:28Z</time></trkpt><trkpt lat="43.98455309459907" lon="7.787708627618091"><ele>457.0</ele><time>2026-04-18T09:59:29Z</time></trkpt><trkpt lat="43.98465727018604" lon="7.787580002357843"><ele>457.0</ele><time>2026-04-18T09:59:30Z</time></trkpt><trkpt lat="43.98473350251858" lon="7.787455590131649"><ele>457.0</ele><time>2026-04-18T09:59:31Z</time></trkpt><trkpt lat="43.984783083723975" lon="7.787306520933174"><ele>457.0</ele><time>2026-04-18T09:59:32Z</time></trkpt><trkpt lat="43.98481007325177" lon="7.787121769981915"><ele>457.0</ele><time>2026-04-18T09:59:33Z</time></trkpt><trkpt lat="43.98482930091819" lon="7.786925464129471"><ele>454.6666666666667</ele><time>2026-04-18T09:59:34Z</time></trkpt><trkpt lat="43.98485026201987" lon="7.786716536421003"><ele>452.33333333333337</ele><time>2026-04-18T09:59:35Z</time></trkpt><trkpt lat="43.984873800965744" lon="7.786496803901468"><ele>450.0</ele><time>2026-04-18T09:59:36Z</time></trkpt><trkpt lat="43.984904500053815" lon="7.786269298457526"><ele>450.0</ele><time>2026-04-18T09:59:37Z</time></trkpt><trkpt lat="43.98491700834461" lon="7.78603446122183"><ele>450.0</ele><time>2026-04-18T09:59:38Z</time></trkpt><trkpt lat="43.984945148721465" lon="7.785797857339565"><ele>450.0</ele><time>2026-04-18T09:59:39Z</time></trkpt><trkpt lat="43.98491692598768" lon="7.785559477861998"><ele>447.33333333333337</ele><time>2026-04-18T09:59:40Z</time></trkpt><trkpt lat="43.984886474056125" lon="7.785316448681627"><ele>444.6666666666667</ele><time>2026-04-18T09:59:41Z</time></trkpt><trkpt lat="43.98485045853458" lon="7.785064211381098"><ele>442.0</ele><time>2026-04-18T09:59:42Z</time></trkpt><trkpt lat="43.984822411159634" lon="7.784815340618927"><ele>447.6666666666667</ele><time>2026-04-18T09:59:43Z</time></trkpt><trkpt lat="43.98479597013278" lon="7.784561886139096"><ele>453.33333333333337</ele><time>2026-04-18T09:59:44Z</time></trkpt><trkpt lat="43.984764777513014" lon="7.784310761902933"><ele>459.0</ele><time>2026-04-18T09:59:45Z</time></trkpt><trkpt lat="43.984731456525274" lon="7.784069758549044"><ele>462.33333333333337</ele><time>2026-04-18T09:59:46Z</time></trkpt><trkpt lat="43.984690981258005" lon="7.783842049962375"><ele>465.6666666666667</ele><time>2026-04-18T09:59:47Z</time></trkpt><trkpt lat="43.98464826534666" lon="7.78363778894772"><ele>469.0</ele><time>2026-04-18T09:59:48Z</time></trkpt><trkpt lat="43.984608935674686" lon="7.783447666861686"><ele>470.5</ele><time>2026-04-18T09:59:49Z</time></trkpt><trkpt lat="43.9845950290227" lon="7.783261251558036"><ele>472.0</ele><time>2026-04-18T09:59:50Z</time></trkpt><trkpt lat="43.98461154645035" lon="7.78307419050032"><ele>473.5</ele><time>2026-04-18T09:59:51Z</time></trkpt><trkpt lat="43.984656070936744" lon="7.78288655053557"><ele>475.0</ele><time>2026-04-18T09:59:52Z</time></trkpt><trkpt lat="43.9847202135948" lon="7.782694257740342"><ele>469.6666666666667</ele><time>2026-04-18T09:59:53Z</time></trkpt><trkpt lat="43.98480199311728" lon="7.7825074703139645"><ele>464.33333333333337</ele><time>2026-04-18T09:59:54Z</time></trkpt><trkpt lat="43.9849040527731" lon="7.782324872774871"><ele>459.0</ele><time>2026-04-18T09:59:55Z</time></trkpt><trkpt lat="43.985015906056056" lon="7.782152272762907"><ele>467.0</ele><time>2026-04-18T09:59:56Z</time></trkpt><trkpt lat="43.98514319881247" lon="7.781990987476859"><ele>475.0</ele><time>2026-04-18T09:59:57Z</time></trkpt><trkpt lat="43.985278824877675" lon="7.781837959097471"><ele>483.0</ele><time>2026-04-18T09:59:58Z</time></trkpt><trkpt lat="43.985404309896325" lon="7.781694327854459"><ele>483.0</ele><time>2026-04-18T09:59:59Z</time></trkpt><trkpt lat="43.9855189629048" lon="7.781567868401604"><ele>483.0</ele><time>2026-04-18T10:00:00Z</time></trkpt><trkpt lat="43.985613581150446" lon="7.781446192224505"><ele>483.0</ele><time>2026-04-18T10:00:01Z</time></trkpt><trkpt lat="43.98568464762831" lon="7.781310185064109"><ele>483.0</ele><time>2026-04-18T10:00:02Z</time></trkpt><trkpt lat="43.98573476216931" lon="7.781143952301015"><ele>475.66666666666663</ele><time>2026-04-18T10:00:03Z</time></trkpt><trkpt lat="43.985759919764114" lon="7.780946429455507"><ele>468.3333333333333</ele><time>2026-04-18T10:00:04Z</time></trkpt><trkpt lat="43.98576526346755" lon="7.780735006739927"><ele>461.0</ele><time>2026-04-18T10:00:05Z</time></trkpt><trkpt lat="43.985777452088456" lon="7.780512872198079"><ele>461.0</ele><time>2026-04-18T10:00:06Z</time></trkpt><trkpt lat="43.98578277889726" lon="7.780276919218008"><ele>461.0</ele><time>2026-04-18T10:00:07Z</time></trkpt><trkpt lat="43.9857747619188" lon="7.780040815649575"><ele>461.0</ele><time>2026-04-18T10:00:08Z</time></trkpt><trkpt lat="43.98578678736422" lon="7.7798053652146955"><ele>460.0</ele><time>2026-04-18T10:00:09Z</time></trkpt><trkpt lat="43.985795931340625" lon="7.779585626174128"><ele>459.0</ele><time>2026-04-18T10:00:10Z</time></trkpt><trkpt lat="43.98582416038542" lon="7.779383193612956"><ele>458.0</ele><time>2026-04-18T10:00:11Z</time></trkpt><trkpt lat="43.98583265513672" lon="7.779192896884189"><ele>457.0</ele><time>2026-04-18T10:00:12Z</time></trkpt><trkpt lat="43.985892509839395" lon="7.779011596715534"><ele>462.33333333333337</ele><time>2026-04-18T10:00:13Z</time></trkpt><trkpt lat="43.98597869351218" lon="7.778839377626744"><ele>467.66666666666663</ele><time>2026-04-18T10:00:14Z</time></trkpt><trkpt lat="43.98606428780897" lon="7.778647774000372"><ele>473.0</ele><time>2026-04-18T10:00:15Z</time></trkpt><trkpt lat="43.98613566559386" lon="7.7784565328316635"><ele>473.0</ele><time>2026-04-18T10:00:16Z</time></trkpt><trkpt lat="43.9862193903762" lon="7.778292190872018"><ele>473.0</ele><time>2026-04-18T10:00:17Z</time></trkpt><trkpt lat="43.98631708245892" lon="7.7781511127863965"><ele>473.0</ele><time>2026-04-18T10:00:18Z</time></trkpt><trkpt lat="43.98643453662195" lon="7.778021664477639"><ele>473.0</ele><time>2026-04-18T10:00:19Z</time></trkpt><trkpt lat="43.98656235698134" lon="7.777895069612897"><ele>473.5</ele><time>2026-04-18T10:00:20Z</time></trkpt><trkpt lat="43.98669075907599" lon="7.777777288858172"><ele>474.0</ele><time>2026-04-18T10:00:21Z</time></trkpt><trkpt lat="43.986812621261706" lon="7.777662997791652"><ele>474.5</ele><time>2026-04-18T10:00:22Z</time></trkpt><trkpt lat="43.98693282577707" lon="7.77755489367474"><ele>475.0</ele><time>2026-04-18T10:00:23Z</time></trkpt><trkpt lat="43.987046130392514" lon="7.777457049795726"><ele>475.0</ele><time>2026-04-18T10:00:24Z</time></trkpt><trkpt lat="43.98714050103944" lon="7.77737152432204"><ele>475.0</ele><time>2026-04-18T10:00:25Z</time></trkpt><trkpt lat="43.9872270489991" lon="7.777298386452594"><ele>475.0</ele><time>2026-04-18T10:00:26Z</time></trkpt><trkpt lat="43.98730211817314" lon="7.777230783028712"><ele>475.0</ele><time>2026-04-18T10:00:27Z</time></trkpt><trkpt lat="43.98737284345085" lon="7.777169933846155"><ele>475.0</ele><time>2026-04-18T10:00:28Z</time></trkpt><trkpt lat="43.987437510228666" lon="7.777125168181333"><ele>475.00000000000006</ele><time>2026-04-18T10:00:29Z</time></trkpt><trkpt lat="43.987507478831844" lon="7.77707670505095"><ele>475.0</ele><time>2026-04-18T10:00:30Z</time></trkpt><trkpt lat="43.987585248631696" lon="7.777031624113836"><ele>475.0</ele><time>2026-04-18T10:00:31Z</time></trkpt><trkpt lat="43.98766237462194" lon="7.776982569502549"><ele>475.0</ele><time>2026-04-18T10:00:32Z</time></trkpt><trkpt lat="43.98771807204414" lon="7.7769384842023435"><ele>475.00000000000006</ele><time>2026-04-18T10:00:33Z</time></trkpt><trkpt lat="43.987803343576545" lon="7.776870549635836"><ele>475.0</ele><time>2026-04-18T10:00:35Z</time></trkpt><trkpt lat="43.98790893782357" lon="7.776795962699653"><ele>473.1666666666667</ele><time>2026-04-18T10:00:37Z</time></trkpt><trkpt lat="43.98798349280922" lon="7.776767581659326"><ele>471.33333333333337</ele><time>2026-04-18T10:00:38Z</time></trkpt><trkpt lat="43.98805605135164" lon="7.776711244755618"><ele>469.5</ele><time>2026-04-18T10:00:39Z</time></trkpt><trkpt lat="43.9881403380251" lon="7.7766744383616535"><ele>467.66666666666663</ele><time>2026-04-18T10:00:39.999Z</time></trkpt><trkpt lat="43.9882240160557" lon="7.7766449000845235"><ele>465.8333333333333</ele><time>2026-04-18T10:00:40.999Z</time></trkpt><trkpt lat="43.98831050368563" lon="7.776623787042599"><ele>464.0</ele><time>2026-04-18T10:00:41.999Z</time></trkpt><trkpt lat="43.98839812970873" lon="7.776591432718421"><ele>471.4</ele><time>2026-04-18T10:00:42.999Z</time></trkpt><trkpt lat="43.9884861434464" lon="7.776539832594471"><ele>478.79999999999995</ele><time>2026-04-18T10:00:43.999Z</time></trkpt><trkpt lat="43.9885785796286" lon="7.7764785559896445"><ele>486.20000000000005</ele><time>2026-04-18T10:00:44.999Z</time></trkpt><trkpt lat="43.98866434647009" lon="7.776415056258121"><ele>493.6</ele><time>2026-04-18T10:00:45.999Z</time></trkpt><trkpt lat="43.98875411757427" lon="7.776360498377459"><ele>501.0</ele><time>2026-04-18T10:00:46.999Z</time></trkpt><trkpt lat="43.98883763515342" lon="7.776292990687601"><ele>501.0</ele><time>2026-04-18T10:00:47.999Z</time></trkpt><trkpt lat="43.98891088803323" lon="7.776197618817128"><ele>501.0</ele><time>2026-04-18T10:00:48.999Z</time></trkpt><trkpt lat="43.98898192487079" lon="7.776092935526584"><ele>501.0</ele><time>2026-04-18T10:00:49.999Z</time></trkpt><trkpt lat="43.989050301603214" lon="7.775998240268375"><ele>501.0</ele><time>2026-04-18T10:00:50.999Z</time></trkpt><trkpt lat="43.98911530120667" lon="7.775908003520534"><ele>501.0</ele><time>2026-04-18T10:00:51.999Z</time></trkpt><trkpt lat="43.98917615695776" lon="7.775820156637079"><ele>500.8333333333333</ele><time>2026-04-18T10:00:52.999Z</time></trkpt><trkpt lat="43.98923095267829" lon="7.775727281699821"><ele>500.66666666666663</ele><time>2026-04-18T10:00:53.999Z</time></trkpt><trkpt lat="43.98927710632937" lon="7.775637288367025"><ele>500.5</ele><time>2026-04-18T10:00:54.999Z</time></trkpt><trkpt lat="43.98931471966784" lon="7.77555081964727"><ele>500.3333333333333</ele><time>2026-04-18T10:00:55.999Z</time></trkpt><trkpt lat="43.98934738111338" lon="7.7754633114717135"><ele>500.16666666666663</ele><time>2026-04-18T10:00:56.999Z</time></trkpt><trkpt lat="43.98942387981601" lon="7.775328500684768"><ele>500.0</ele><time>2026-04-18T10:00:58.999Z</time></trkpt><trkpt lat="43.989462222456844" lon="7.775257437883234"><ele>495.8333333333333</ele><time>2026-04-18T10:00:59.999Z</time></trkpt><trkpt lat="43.98949428727873" lon="7.775168641465229"><ele>491.66666666666663</ele><time>2026-04-18T10:01:00.999Z</time></trkpt><trkpt lat="43.98950790821958" lon="7.775060902561557"><ele>487.5</ele><time>2026-04-18T10:01:01.999Z</time></trkpt><trkpt lat="43.98950982708592" lon="7.774950210397606"><ele>483.33333333333337</ele><time>2026-04-18T10:01:02.999Z</time></trkpt><trkpt lat="43.989509728770855" lon="7.774850425854391"><ele>479.1666666666667</ele><time>2026-04-18T10:01:04Z</time></trkpt><trkpt lat="43.98952087375803" lon="7.774760367660941"><ele>475.0</ele><time>2026-04-18T10:01:05Z</time></trkpt><trkpt lat="43.98959099502588" lon="7.774640849729316"><ele>475.0</ele><time>2026-04-18T10:01:07Z</time></trkpt><trkpt lat="43.98966554787975" lon="7.774612792573364"><ele>475.0</ele><time>2026-04-18T10:01:08Z</time></trkpt><trkpt lat="43.98977729415255" lon="7.7746623589291195"><ele>475.0</ele><time>2026-04-18T10:01:10Z</time></trkpt><trkpt lat="43.989840491001544" lon="7.774680385881502"><ele>475.0</ele><time>2026-04-18T10:01:11Z</time></trkpt><trkpt lat="43.98996221241995" lon="7.774644788371769"><ele>475.0</ele><time>2026-04-18T10:01:13Z</time></trkpt><trkpt lat="43.99007027354426" lon="7.7745685844048715"><ele>476.6</ele><time>2026-04-18T10:01:15Z</time></trkpt><trkpt lat="43.990122478521684" lon="7.77451689565191"><ele>478.2</ele><time>2026-04-18T10:01:16Z</time></trkpt><trkpt lat="43.99023732058402" lon="7.774514715286684"><ele>479.79999999999995</ele><time>2026-04-18T10:01:18Z</time></trkpt><trkpt lat="43.99030420386134" lon="7.774651808357956"><ele>481.4</ele><time>2026-04-18T10:01:20Z</time></trkpt><trkpt lat="43.99036946245063" lon="7.774809216240684"><ele>483.0</ele><time>2026-04-18T10:01:22Z</time></trkpt><trkpt lat="43.990394224908606" lon="7.774897438210738"><ele>483.0</ele><time>2026-04-18T10:01:23Z</time></trkpt><trkpt lat="43.990424920286095" lon="7.774984076703969"><ele>483.0</ele><time>2026-04-18T10:01:24Z</time></trkpt><trkpt lat="43.990440464974434" lon="7.7750853176085934"><ele>483.0</ele><time>2026-04-18T10:01:25Z</time></trkpt><trkpt lat="43.99047366971957" lon="7.775178304998148"><ele>483.0</ele><time>2026-04-18T10:01:26Z</time></trkpt><trkpt lat="43.99051284469427" lon="7.775269813707727"><ele>483.0</ele><time>2026-04-18T10:01:27Z</time></trkpt><trkpt lat="43.990553140133784" lon="7.77536298149826"><ele>483.0</ele><time>2026-04-18T10:01:28Z</time></trkpt><trkpt lat="43.990595770304814" lon="7.775455303942477"><ele>483.2857142857143</ele><time>2026-04-18T10:01:29Z</time></trkpt><trkpt lat="43.99065233743482" lon="7.775532051748332"><ele>483.57142857142856</ele><time>2026-04-18T10:01:30Z</time></trkpt><trkpt lat="43.99069836898612" lon="7.775628063697119"><ele>483.8571428571429</ele><time>2026-04-18T10:01:31Z</time></trkpt><trkpt lat="43.9907347573517" lon="7.775726791381471"><ele>484.14285714285717</ele><time>2026-04-18T10:01:32Z</time></trkpt><trkpt lat="43.99078307331214" lon="7.775795654382866"><ele>484.42857142857144</ele><time>2026-04-18T10:01:33Z</time></trkpt><trkpt lat="43.99084766230482" lon="7.775828489023249"><ele>484.7142857142858</ele><time>2026-04-18T10:01:34Z</time></trkpt><trkpt lat="43.99091357656456" lon="7.775838432138858"><ele>485.00000000000006</ele><time>2026-04-18T10:01:35Z</time></trkpt><trkpt lat="43.99098568954016" lon="7.77583686507367"><ele>484.1428571428572</ele><time>2026-04-18T10:01:36Z</time></trkpt><trkpt lat="43.99105478296709" lon="7.775835701690577"><ele>483.28571428571433</ele><time>2026-04-18T10:01:37Z</time></trkpt><trkpt lat="43.99112372832883" lon="7.775835834149867"><ele>482.42857142857144</ele><time>2026-04-18T10:01:38Z</time></trkpt><trkpt lat="43.99119233419694" lon="7.775845665503339"><ele>481.5714285714286</ele><time>2026-04-18T10:01:39Z</time></trkpt><trkpt lat="43.9912623801939" lon="7.77585245468779"><ele>480.7142857142858</ele><time>2026-04-18T10:01:40Z</time></trkpt><trkpt lat="43.99133420160176" lon="7.775855004835065"><ele>479.85714285714283</ele><time>2026-04-18T10:01:41Z</time></trkpt><trkpt lat="43.99140570448872" lon="7.775858782765023"><ele>479.0</ele><time>2026-04-18T10:01:42Z</time></trkpt><trkpt lat="43.991476110153535" lon="7.7758603156250805"><ele>479.0</ele><time>2026-04-18T10:01:43Z</time></trkpt><trkpt lat="43.99154177573233" lon="7.775848433048911"><ele>479.0</ele><time>2026-04-18T10:01:44Z</time></trkpt><trkpt lat="43.99161296873714" lon="7.775833781239885"><ele>479.0</ele><time>2026-04-18T10:01:45Z</time></trkpt><trkpt lat="43.99168246430674" lon="7.775809725350515"><ele>479.0</ele><time>2026-04-18T10:01:46Z</time></trkpt><trkpt lat="43.99175356094212" lon="7.775778505241272"><ele>479.0</ele><time>2026-04-18T10:01:47Z</time></trkpt><trkpt lat="43.9918161459879" lon="7.775745820859182"><ele>479.0</ele><time>2026-04-18T10:01:48Z</time></trkpt><trkpt lat="43.99187967919448" lon="7.775702151349069"><ele>479.0</ele><time>2026-04-18T10:01:49Z</time></trkpt><trkpt lat="43.9919367071275" lon="7.775637254629126"><ele>478.66666666666663</ele><time>2026-04-18T10:01:50Z</time></trkpt><trkpt lat="43.99198623140629" lon="7.775562531897664"><ele>478.3333333333333</ele><time>2026-04-18T10:01:51Z</time></trkpt><trkpt lat="43.99203255832851" lon="7.775480021774805"><ele>478.0</ele><time>2026-04-18T10:01:52Z</time></trkpt><trkpt lat="43.992072956770826" lon="7.775384396843671"><ele>477.66666666666663</ele><time>2026-04-18T10:01:53Z</time></trkpt><trkpt lat="43.99211526238069" lon="7.775287690474732"><ele>477.3333333333333</ele><time>2026-04-18T10:01:54Z</time></trkpt><trkpt lat="43.99216384655929" lon="7.775190466358192"><ele>477.0</ele><time>2026-04-18T10:01:55Z</time></trkpt><trkpt lat="43.99222211749063" lon="7.775092874321969"><ele>480.0</ele><time>2026-04-18T10:01:56Z</time></trkpt><trkpt lat="43.992286199234684" lon="7.774990570368129"><ele>483.00000000000006</ele><time>2026-04-18T10:01:57Z</time></trkpt><trkpt lat="43.992344476658715" lon="7.774899628474347"><ele>486.00000000000006</ele><time>2026-04-18T10:01:58Z</time></trkpt><trkpt lat="43.99239616140326" lon="7.774782912824519"><ele>489.0</ele><time>2026-04-18T10:01:59Z</time></trkpt><trkpt lat="43.992438556635555" lon="7.774664716376606"><ele>492.0</ele><time>2026-04-18T10:02:00Z</time></trkpt><trkpt lat="43.99249007846651" lon="7.774516668550549"><ele>495.0</ele><time>2026-04-18T10:02:02Z</time></trkpt><trkpt lat="43.99258717455386" lon="7.774476044932038"><ele>498.00000000000006</ele><time>2026-04-18T10:02:04Z</time></trkpt><trkpt lat="43.992662183228994" lon="7.774553282824336"><ele>501.00000000000006</ele><time>2026-04-18T10:02:05Z</time></trkpt><trkpt lat="43.99274687872531" lon="7.774571128341446"><ele>504.0</ele><time>2026-04-18T10:02:06Z</time></trkpt><trkpt lat="43.99283302521403" lon="7.774616771203694"><ele>507.0</ele><time>2026-04-18T10:02:07Z</time></trkpt><trkpt lat="43.99293795872107" lon="7.77458577023533"><ele>507.0</ele><time>2026-04-18T10:02:08Z</time></trkpt><trkpt lat="43.99303326001634" lon="7.774540859445832"><ele>507.00000000000006</ele><time>2026-04-18T10:02:09Z</time></trkpt><trkpt lat="43.99314027925209" lon="7.774493675970262"><ele>507.00000000000006</ele><time>2026-04-18T10:02:10Z</time></trkpt><trkpt lat="43.993240950281205" lon="7.774426104434874"><ele>507.0</ele><time>2026-04-18T10:02:11Z</time></trkpt><trkpt lat="43.993336736350834" lon="7.774339540533979"><ele>507.0</ele><time>2026-04-18T10:02:12Z</time></trkpt><trkpt lat="43.99344586753355" lon="7.774275537949729"><ele>513.5</ele><time>2026-04-18T10:02:13Z</time></trkpt><trkpt lat="43.99354894882871" lon="7.774206118295739"><ele>520.0</ele><time>2026-04-18T10:02:14Z</time></trkpt><trkpt lat="43.993645430934905" lon="7.774121549327232"><ele>526.5</ele><time>2026-04-18T10:02:15Z</time></trkpt><trkpt lat="43.99373635492012" lon="7.774016039751314"><ele>533.0</ele><time>2026-04-18T10:02:16Z</time></trkpt><trkpt lat="43.99381913245677" lon="7.77389539898002"><ele>533.0</ele><time>2026-04-18T10:02:17Z</time></trkpt><trkpt lat="43.99388704028386" lon="7.7737580033223574"><ele>533.0</ele><time>2026-04-18T10:02:18Z</time></trkpt><trkpt lat="43.993940503734585" lon="7.773605302402809"><ele>533.0</ele><time>2026-04-18T10:02:19Z</time></trkpt><trkpt lat="43.993997382652054" lon="7.773444569090652"><ele>533.0</ele><time>2026-04-18T10:02:20Z</time></trkpt><trkpt lat="43.99408779672143" lon="7.773309206188184"><ele>537.75</ele><time>2026-04-18T10:02:21Z</time></trkpt><trkpt lat="43.994175137028805" lon="7.773156231895804"><ele>542.5</ele><time>2026-04-18T10:02:22Z</time></trkpt><trkpt lat="43.994257145061965" lon="7.772996804534143"><ele>547.25</ele><time>2026-04-18T10:02:23Z</time></trkpt><trkpt lat="43.99434971939404" lon="7.772866725460514"><ele>552.0</ele><time>2026-04-18T10:02:24Z</time></trkpt><trkpt lat="43.99444235783359" lon="7.77276614147679"><ele>552.0</ele><time>2026-04-18T10:02:25Z</time></trkpt><trkpt lat="43.99454888219631" lon="7.772702114425673"><ele>552.0</ele><time>2026-04-18T10:02:26Z</time></trkpt><trkpt lat="43.994676368363194" lon="7.772666382757055"><ele>552.0</ele><time>2026-04-18T10:02:27Z</time></trkpt><trkpt lat="43.99480824664043" lon="7.772627882089741"><ele>552.0</ele><time>2026-04-18T10:02:28Z</time></trkpt><trkpt lat="43.9949481853835" lon="7.772582157076958"><ele>547.25</ele><time>2026-04-18T10:02:29Z</time></trkpt><trkpt lat="43.99509327248295" lon="7.772531950059768"><ele>542.5</ele><time>2026-04-18T10:02:30Z</time></trkpt><trkpt lat="43.99523952054025" lon="7.772479515112719"><ele>537.75</ele><time>2026-04-18T10:02:31Z</time></trkpt><trkpt lat="43.995378688291616" lon="7.772435595898518"><ele>533.0</ele><time>2026-04-18T10:02:32Z</time></trkpt><trkpt lat="43.99550739336803" lon="7.772396697501525"><ele>533.0</ele><time>2026-04-18T10:02:33Z</time></trkpt><trkpt lat="43.99562270930499" lon="7.77234840255597"><ele>533.0</ele><time>2026-04-18T10:02:34Z</time></trkpt><trkpt lat="43.99573469333383" lon="7.772285318906537"><ele>533.0</ele><time>2026-04-18T10:02:35Z</time></trkpt><trkpt lat="43.99582852379442" lon="7.7721433236473985"><ele>533.0</ele><time>2026-04-18T10:02:36Z</time></trkpt><trkpt lat="43.995913910573144" lon="7.7720083564767455"><ele>535.5</ele><time>2026-04-18T10:02:37Z</time></trkpt><trkpt lat="43.996020090489644" lon="7.771887545880087"><ele>538.0</ele><time>2026-04-18T10:02:38Z</time></trkpt><trkpt lat="43.99613922593838" lon="7.771775104433585"><ele>540.5</ele><time>2026-04-18T10:02:39Z</time></trkpt><trkpt lat="43.99626098279677" lon="7.7716608198771455"><ele>543.0</ele><time>2026-04-18T10:02:40Z</time></trkpt><trkpt lat="43.99637774202763" lon="7.771545702730374"><ele>543.0</ele><time>2026-04-18T10:02:41Z</time></trkpt><trkpt lat="43.99648083632916" lon="7.771408322797722"><ele>543.0</ele><time>2026-04-18T10:02:42Z</time></trkpt><trkpt lat="43.99655060384587" lon="7.771250278421921"><ele>543.0</ele><time>2026-04-18T10:02:43Z</time></trkpt><trkpt lat="43.996612118880385" lon="7.77112444067482"><ele>543.0</ele><time>2026-04-18T10:02:44Z</time></trkpt><trkpt lat="43.996686275282336" lon="7.771059480704563"><ele>544.4</ele><time>2026-04-18T10:02:45Z</time></trkpt><trkpt lat="43.99678016540941" lon="7.771017727441069"><ele>545.8</ele><time>2026-04-18T10:02:45.999Z</time></trkpt><trkpt lat="43.996876867466646" lon="7.770925489754979"><ele>547.2</ele><time>2026-04-18T10:02:46.999Z</time></trkpt><trkpt lat="43.99696443299357" lon="7.770812693187"><ele>548.6</ele><time>2026-04-18T10:02:47.999Z</time></trkpt><trkpt lat="43.997036055285946" lon="7.770692230067563"><ele>550.0</ele><time>2026-04-18T10:02:48.999Z</time></trkpt><trkpt lat="43.997130275916575" lon="7.770609705293785"><ele>550.0</ele><time>2026-04-18T10:02:49.999Z</time></trkpt><trkpt lat="43.99723505185237" lon="7.7705603578948566"><ele>550.0</ele><time>2026-04-18T10:02:50.999Z</time></trkpt><trkpt lat="43.99736238307312" lon="7.770573016889178"><ele>550.0</ele><time>2026-04-18T10:02:51.999Z</time></trkpt><trkpt lat="43.997487043684046" lon="7.770533756318603"><ele>550.0</ele><time>2026-04-18T10:02:52.999Z</time></trkpt><trkpt lat="43.99760432739562" lon="7.770493336327565"><ele>547.75</ele><time>2026-04-18T10:02:53.999Z</time></trkpt><trkpt lat="43.99772834301714" lon="7.770426897547858"><ele>545.5</ele><time>2026-04-18T10:02:54.999Z</time></trkpt><trkpt lat="43.997832260982655" lon="7.770301650233296"><ele>543.25</ele><time>2026-04-18T10:02:55.999Z</time></trkpt><trkpt lat="43.99794791408476" lon="7.770232883503371"><ele>541.0</ele><time>2026-04-18T10:02:56.999Z</time></trkpt><trkpt lat="43.99805729505522" lon="7.770182608661296"><ele>541.0</ele><time>2026-04-18T10:02:57.999Z</time></trkpt><trkpt lat="43.99818938315958" lon="7.770139476503951"><ele>541.0</ele><time>2026-04-18T10:02:58.999Z</time></trkpt><trkpt lat="43.998327368586935" lon="7.770123253555625"><ele>541.0</ele><time>2026-04-18T10:02:59.999Z</time></trkpt><trkpt lat="43.998480726204676" lon="7.770124806039823"><ele>541.0</ele><time>2026-04-18T10:03:00.999Z</time></trkpt><trkpt lat="43.998644159478296" lon="7.770126195349862"><ele>543.0</ele><time>2026-04-18T10:03:01.999Z</time></trkpt><trkpt lat="43.998816799896176" lon="7.770115618270655"><ele>545.0</ele><time>2026-04-18T10:03:02.999Z</time></trkpt><trkpt lat="43.998987439370026" lon="7.770105208314397"><ele>547.0</ele><time>2026-04-18T10:03:03.999Z</time></trkpt><trkpt lat="43.999165562073856" lon="7.770100458080916"><ele>547.3333333333334</ele><time>2026-04-18T10:03:04.999Z</time></trkpt><trkpt lat="43.999337571745215" lon="7.770101952734817"><ele>547.6666666666666</ele><time>2026-04-18T10:03:05.999Z</time></trkpt><trkpt lat="43.99950241505883" lon="7.770106487281748"><ele>548.0</ele><time>2026-04-18T10:03:06.999Z</time></trkpt><trkpt lat="43.99966341007572" lon="7.770125089335881"><ele>548.0</ele><time>2026-04-18T10:03:07.999Z</time></trkpt><trkpt lat="43.99981647551141" lon="7.770146115509065"><ele>548.0</ele><time>2026-04-18T10:03:08.999Z</time></trkpt><trkpt lat="43.999956140908544" lon="7.7701745913282565"><ele>548.0</ele><time>2026-04-18T10:03:09.999Z</time></trkpt><trkpt lat="44.00008530932859" lon="7.770180199756442"><ele>548.0</ele><time>2026-04-18T10:03:10.999Z</time></trkpt><trkpt lat="44.000210920505644" lon="7.770123188066399"><ele>548.0</ele><time>2026-04-18T10:03:11.999Z</time></trkpt><trkpt lat="44.00034409711978" lon="7.770019875409192"><ele>548.0</ele><time>2026-04-18T10:03:12.999Z</time></trkpt><trkpt lat="44.00048101308064" lon="7.769928500954038"><ele>548.0</ele><time>2026-04-18T10:03:14Z</time></trkpt><trkpt lat="44.000597728899095" lon="7.769820144244519"><ele>548.0</ele><time>2026-04-18T10:03:15Z</time></trkpt><trkpt lat="44.00071040744092" lon="7.769743699300615"><ele>548.0</ele><time>2026-04-18T10:03:16Z</time></trkpt><trkpt lat="44.00081922464286" lon="7.769702432698053"><ele>548.0</ele><time>2026-04-18T10:03:17Z</time></trkpt><trkpt lat="44.00093222627987" lon="7.769703995807913"><ele>548.0</ele><time>2026-04-18T10:03:18Z</time></trkpt><trkpt lat="44.00104744500242" lon="7.769705910913613"><ele>548.0</ele><time>2026-04-18T10:03:19Z</time></trkpt><trkpt lat="44.00115216296727" lon="7.769652468154189"><ele>546.5</ele><time>2026-04-18T10:03:20Z</time></trkpt><trkpt lat="44.001246116045635" lon="7.7695314915525024"><ele>545.0</ele><time>2026-04-18T10:03:21Z</time></trkpt><trkpt lat="44.00132239730591" lon="7.769374688702431"><ele>543.5</ele><time>2026-04-18T10:03:22Z</time></trkpt><trkpt lat="44.00139857019331" lon="7.769203796290803"><ele>542.0</ele><time>2026-04-18T10:03:23Z</time></trkpt><trkpt lat="44.00146395825494" lon="7.769029788295915"><ele>542.0</ele><time>2026-04-18T10:03:24Z</time></trkpt><trkpt lat="44.001535532642976" lon="7.768888104671124"><ele>542.0</ele><time>2026-04-18T10:03:25Z</time></trkpt><trkpt lat="44.00156999397315" lon="7.7687534275650805"><ele>542.0</ele><time>2026-04-18T10:03:26Z</time></trkpt><trkpt lat="44.00164665263295" lon="7.768668483582305"><ele>542.0</ele><time>2026-04-18T10:03:27Z</time></trkpt><trkpt lat="44.00176027892525" lon="7.768642541247574"><ele>542.0</ele><time>2026-04-18T10:03:28Z</time></trkpt><trkpt lat="44.001876493552686" lon="7.768575515298074"><ele>544.25</ele><time>2026-04-18T10:03:29Z</time></trkpt><trkpt lat="44.00200336221125" lon="7.768528492830883"><ele>546.5</ele><time>2026-04-18T10:03:30Z</time></trkpt><trkpt lat="44.00213897885288" lon="7.768477363371154"><ele>548.75</ele><time>2026-04-18T10:03:31Z</time></trkpt><trkpt lat="44.00227792156671" lon="7.768418742004392"><ele>551.0</ele><time>2026-04-18T10:03:32Z</time></trkpt><trkpt lat="44.002428376531704" lon="7.768377639437869"><ele>555.0</ele><time>2026-04-18T10:03:33Z</time></trkpt><trkpt lat="44.00256984016369" lon="7.7683202739546235"><ele>559.0</ele><time>2026-04-18T10:03:34Z</time></trkpt><trkpt lat="44.00271964963034" lon="7.768264113292423"><ele>563.0</ele><time>2026-04-18T10:03:35Z</time></trkpt><trkpt lat="44.00287606227874" lon="7.768225231358614"><ele>563.0</ele><time>2026-04-18T10:03:36Z</time></trkpt><trkpt lat="44.00302245895031" lon="7.768167047349518"><ele>563.0</ele><time>2026-04-18T10:03:37Z</time></trkpt><trkpt lat="44.00315813970828" lon="7.768109543326064"><ele>563.0</ele><time>2026-04-18T10:03:38Z</time></trkpt><trkpt lat="44.00329145424969" lon="7.768041177816124"><ele>563.0</ele><time>2026-04-18T10:03:39Z</time></trkpt><trkpt lat="44.00342259094814" lon="7.767955528036255"><ele>562.75</ele><time>2026-04-18T10:03:40Z</time></trkpt><trkpt lat="44.003547700421386" lon="7.767853505505729"><ele>562.5</ele><time>2026-04-18T10:03:41Z</time></trkpt><trkpt lat="44.00367490155389" lon="7.767757506214518"><ele>562.25</ele><time>2026-04-18T10:03:42Z</time></trkpt><trkpt lat="44.00381158013682" lon="7.7676786232868595"><ele>562.0</ele><time>2026-04-18T10:03:43Z</time></trkpt><trkpt lat="44.003957454325665" lon="7.7676163180961275"><ele>562.0</ele><time>2026-04-18T10:03:44Z</time></trkpt><trkpt lat="44.00410919566588" lon="7.767558262339455"><ele>562.0</ele><time>2026-04-18T10:03:45Z</time></trkpt><trkpt lat="44.004256051890344" lon="7.767485852530548"><ele>562.0</ele><time>2026-04-18T10:03:46Z</time></trkpt><trkpt lat="44.0043919219121" lon="7.767409339683839"><ele>565.2</ele><time>2026-04-18T10:03:47Z</time></trkpt><trkpt lat="44.004512760841074" lon="7.767337070263919"><ele>568.4000000000001</ele><time>2026-04-18T10:03:48Z</time></trkpt><trkpt lat="44.0046172127376" lon="7.76727479321961"><ele>571.5999999999999</ele><time>2026-04-18T10:03:49Z</time></trkpt><trkpt lat="44.004699179968796" lon="7.767221729622956"><ele>574.8</ele><time>2026-04-18T10:03:50Z</time></trkpt><trkpt lat="44.00476357093383" lon="7.767160228811436"><ele>578.0</ele><time>2026-04-18T10:03:51Z</time></trkpt><trkpt lat="44.00479422919078" lon="7.7670636232672265"><ele>578.0</ele><time>2026-04-18T10:03:52Z</time></trkpt><trkpt lat="44.004797206849986" lon="7.766948217120894"><ele>578.0</ele><time>2026-04-18T10:03:53Z</time></trkpt><trkpt lat="44.00476995073157" lon="7.766818380112846"><ele>578.0</ele><time>2026-04-18T10:03:54Z</time></trkpt><trkpt lat="44.00473768230804" lon="7.766675916887431"><ele>578.0</ele><time>2026-04-18T10:03:55Z</time></trkpt><trkpt lat="44.00470203748981" lon="7.76654259640723"><ele>578.0</ele><time>2026-04-18T10:03:56Z</time></trkpt><trkpt lat="44.004644513581724" lon="7.766442678390682"><ele>578.1999999999999</ele><time>2026-04-18T10:03:57Z</time></trkpt><trkpt lat="44.00456344318215" lon="7.766385999853736"><ele>578.4</ele><time>2026-04-18T10:03:58Z</time></trkpt><trkpt lat="44.004464596859876" lon="7.766360234607935"><ele>578.5999999999999</ele><time>2026-04-18T10:03:59Z</time></trkpt><trkpt lat="44.00437195358032" lon="7.766418503431738"><ele>578.8</ele><time>2026-04-18T10:04:00Z</time></trkpt><trkpt lat="44.004280893270085" lon="7.766520462914241"><ele>579.0</ele><time>2026-04-18T10:04:01Z</time></trkpt><trkpt lat="44.004182043400036" lon="7.766602803169173"><ele>579.2</ele><time>2026-04-18T10:04:02Z</time></trkpt><trkpt lat="44.004094004194634" lon="7.766669269353945"><ele>579.4</ele><time>2026-04-18T10:04:03Z</time></trkpt><trkpt lat="44.00399307485379" lon="7.7666989720732795"><ele>579.6</ele><time>2026-04-18T10:04:04Z</time></trkpt><trkpt lat="44.00389008717824" lon="7.766704853474905"><ele>579.8</ele><time>2026-04-18T10:04:05Z</time></trkpt><trkpt lat="44.00377817848487" lon="7.766675825726815"><ele>580.0</ele><time>2026-04-18T10:04:06Z</time></trkpt><trkpt lat="44.00365134166191" lon="7.766601102279835"><ele>580.0</ele><time>2026-04-18T10:04:07Z</time></trkpt><trkpt lat="44.003508588311135" lon="7.766505438993646"><ele>580.0</ele><time>2026-04-18T10:04:08Z</time></trkpt><trkpt lat="44.00337176178151" lon="7.766425400632471"><ele>580.0</ele><time>2026-04-18T10:04:09Z</time></trkpt><trkpt lat="44.003221905226845" lon="7.766378844702403"><ele>584.0</ele><time>2026-04-18T10:04:10Z</time></trkpt><trkpt lat="44.00305930899084" lon="7.76635977158531"><ele>588.0</ele><time>2026-04-18T10:04:11Z</time></trkpt><trkpt lat="44.002908567512996" lon="7.766342414792564"><ele>592.0</ele><time>2026-04-18T10:04:12Z</time></trkpt><trkpt lat="44.002758328550044" lon="7.766350625233012"><ele>592.0</ele><time>2026-04-18T10:04:13Z</time></trkpt><trkpt lat="44.00260615875457" lon="7.766446004766509"><ele>592.0</ele><time>2026-04-18T10:04:14Z</time></trkpt><trkpt lat="44.002461751574394" lon="7.766568221771174"><ele>592.0</ele><time>2026-04-18T10:04:15Z</time></trkpt><trkpt lat="44.00230993041462" lon="7.766604693914946"><ele>602.0</ele><time>2026-04-18T10:04:16Z</time></trkpt><trkpt lat="44.00214530979241" lon="7.766619841800893"><ele>612.0</ele><time>2026-04-18T10:04:17Z</time></trkpt><trkpt lat="44.001985412108695" lon="7.766711445116591"><ele>622.0</ele><time>2026-04-18T10:04:18Z</time></trkpt><trkpt lat="44.001838374256074" lon="7.7668438748798145"><ele>612.6666666666667</ele><time>2026-04-18T10:04:19Z</time></trkpt><trkpt lat="44.00170287509918" lon="7.766942509793436"><ele>603.3333333333334</ele><time>2026-04-18T10:04:20Z</time></trkpt><trkpt lat="44.00155260366229" lon="7.7670164295231325"><ele>594.0</ele><time>2026-04-18T10:04:21Z</time></trkpt><trkpt lat="44.00139641710468" lon="7.7670785963101"><ele>594.0</ele><time>2026-04-18T10:04:22Z</time></trkpt><trkpt lat="44.00122947572295" lon="7.767128232805616"><ele>594.0</ele><time>2026-04-18T10:04:23Z</time></trkpt><trkpt lat="44.00107002072009" lon="7.76716736475705"><ele>594.0</ele><time>2026-04-18T10:04:24Z</time></trkpt><trkpt lat="44.000908344806966" lon="7.767202465926388"><ele>599.6666666666666</ele><time>2026-04-18T10:04:25Z</time></trkpt><trkpt lat="44.000748894644445" lon="7.767233547723489"><ele>605.3333333333333</ele><time>2026-04-18T10:04:26Z</time></trkpt><trkpt lat="44.00059055514141" lon="7.7672682940728865"><ele>611.0</ele><time>2026-04-18T10:04:27Z</time></trkpt><trkpt lat="44.00042558857882" lon="7.767316341735868"><ele>611.0</ele><time>2026-04-18T10:04:28Z</time></trkpt><trkpt lat="44.00025310617601" lon="7.7674127192247"><ele>611.0</ele><time>2026-04-18T10:04:29Z</time></trkpt><trkpt lat="44.000083056794686" lon="7.767500353156522"><ele>611.0</ele><time>2026-04-18T10:04:30Z</time></trkpt><trkpt lat="43.99989573568044" lon="7.7675642303537185"><ele>611.0</ele><time>2026-04-18T10:04:31Z</time></trkpt><trkpt lat="43.99972583160074" lon="7.7676177654831875"><ele>611.0</ele><time>2026-04-18T10:04:32Z</time></trkpt><trkpt lat="43.99959439091033" lon="7.7676402607000465"><ele>611.0</ele><time>2026-04-18T10:04:33Z</time></trkpt><trkpt lat="43.9994743849326" lon="7.767622734586854"><ele>611.0</ele><time>2026-04-18T10:04:34Z</time></trkpt><trkpt lat="43.99937774775146" lon="7.767577412763815"><ele>611.0</ele><time>2026-04-18T10:04:35Z</time></trkpt><trkpt lat="43.999342103746926" lon="7.767458992600325"><ele>611.0</ele><time>2026-04-18T10:04:37Z</time></trkpt><trkpt lat="43.999446355610694" lon="7.767392954237138"><ele>611.0</ele><time>2026-04-18T10:04:39Z</time></trkpt><trkpt lat="43.99951622877755" lon="7.767457088599124"><ele>611.0</ele><time>2026-04-18T10:04:40Z</time></trkpt><trkpt lat="43.999579438772955" lon="7.767554398555611"><ele>611.0</ele><time>2026-04-18T10:04:41Z</time></trkpt><trkpt lat="43.999669165957066" lon="7.767566379584018"><ele>611.0</ele><time>2026-04-18T10:04:42Z</time></trkpt><trkpt lat="43.99976525047288" lon="7.767559115637246"><ele>611.0</ele><time>2026-04-18T10:04:43Z</time></trkpt><trkpt lat="43.99987676031736" lon="7.767481404070335"><ele>611.0</ele><time>2026-04-18T10:04:44Z</time></trkpt><trkpt lat="44.000004718464716" lon="7.767368092988813"><ele>611.0</ele><time>2026-04-18T10:04:45Z</time></trkpt><trkpt lat="44.000131326792676" lon="7.767271041278399"><ele>611.0</ele><time>2026-04-18T10:04:46Z</time></trkpt><trkpt lat="44.00027499841511" lon="7.767162948573893"><ele>611.0</ele><time>2026-04-18T10:04:47Z</time></trkpt><trkpt lat="44.00040838746879" lon="7.76706699045976"><ele>611.0</ele><time>2026-04-18T10:04:48Z</time></trkpt><trkpt lat="44.00053614210206" lon="7.766994326281328"><ele>611.0</ele><time>2026-04-18T10:04:49Z</time></trkpt><trkpt lat="44.000670438167816" lon="7.766952149258186"><ele>611.0</ele><time>2026-04-18T10:04:50Z</time></trkpt><trkpt lat="44.000808171216406" lon="7.766933443534792"><ele>611.0</ele><time>2026-04-18T10:04:51Z</time></trkpt><trkpt lat="44.00094150191564" lon="7.766922036245131"><ele>611.0</ele><time>2026-04-18T10:04:52Z</time></trkpt><trkpt lat="44.00105760232295" lon="7.76689608640609"><ele>616.4</ele><time>2026-04-18T10:04:53Z</time></trkpt><trkpt lat="44.00115631907239" lon="7.766850297712147"><ele>621.8</ele><time>2026-04-18T10:04:54Z</time></trkpt><trkpt lat="44.00123051653474" lon="7.766793081939265"><ele>627.1999999999999</ele><time>2026-04-18T10:04:55Z</time></trkpt><trkpt lat="44.00128207491177" lon="7.766731193169031"><ele>632.6</ele><time>2026-04-18T10:04:56Z</time></trkpt><trkpt lat="44.0013061579331" lon="7.766587976193468"><ele>638.0</ele><time>2026-04-18T10:04:58Z</time></trkpt><trkpt lat="44.00117637770412" lon="7.766550150580024"><ele>638.0</ele><time>2026-04-18T10:05:00Z</time></trkpt><trkpt lat="44.00111016908038" lon="7.766615217826966"><ele>638.0</ele><time>2026-04-18T10:05:01Z</time></trkpt><trkpt lat="44.00104721525249" lon="7.766714752929343"><ele>638.0</ele><time>2026-04-18T10:05:02Z</time></trkpt><trkpt lat="44.000974268132424" lon="7.766788154008299"><ele>638.0</ele><time>2026-04-18T10:05:03Z</time></trkpt><trkpt lat="44.00087401186139" lon="7.766793146134189"><ele>638.0</ele><time>2026-04-18T10:05:04Z</time></trkpt><trkpt lat="44.00075447994677" lon="7.766788176651822"><ele>640.5</ele><time>2026-04-18T10:05:05Z</time></trkpt><trkpt lat="44.0006133821722" lon="7.7667875795314085"><ele>643.0</ele><time>2026-04-18T10:05:06Z</time></trkpt><trkpt lat="44.00047327366404" lon="7.76678884197518"><ele>645.5</ele><time>2026-04-18T10:05:07Z</time></trkpt><trkpt lat="44.00032481672337" lon="7.766802907081487"><ele>648.0</ele><time>2026-04-18T10:05:08Z</time></trkpt><trkpt lat="44.00019765950302" lon="7.7668462238541585"><ele>638.75</ele><time>2026-04-18T10:05:09Z</time></trkpt><trkpt lat="44.0000922232137" lon="7.76694052733013"><ele>629.5</ele><time>2026-04-18T10:05:10Z</time></trkpt><trkpt lat="43.99997897805211" lon="7.767002485743722"><ele>620.25</ele><time>2026-04-18T10:05:11Z</time></trkpt><trkpt lat="43.999865530378315" lon="7.767024139571883"><ele>611.0</ele><time>2026-04-18T10:05:12Z</time></trkpt><trkpt lat="43.999760078229656" lon="7.766957652059668"><ele>611.0</ele><time>2026-04-18T10:05:13Z</time></trkpt><trkpt lat="43.99963190939856" lon="7.7669063827861535"><ele>611.0</ele><time>2026-04-18T10:05:14Z</time></trkpt><trkpt lat="43.99949021815457" lon="7.7668972151800535"><ele>611.0</ele><time>2026-04-18T10:05:15Z</time></trkpt><trkpt lat="43.999339591422675" lon="7.766876118367185"><ele>611.0</ele><time>2026-04-18T10:05:16Z</time></trkpt><trkpt lat="43.9991854472579" lon="7.766832207666577"><ele>619.25</ele><time>2026-04-18T10:05:17Z</time></trkpt><trkpt lat="43.9990483785498" lon="7.766755280562374"><ele>627.5</ele><time>2026-04-18T10:05:18Z</time></trkpt><trkpt lat="43.99893676539462" lon="7.766628795238925"><ele>635.75</ele><time>2026-04-18T10:05:19Z</time></trkpt><trkpt lat="43.99881969707504" lon="7.766517734729976"><ele>644.0</ele><time>2026-04-18T10:05:20Z</time></trkpt><trkpt lat="43.9987072389101" lon="7.7664073104278515"><ele>644.0</ele><time>2026-04-18T10:05:21Z</time></trkpt><trkpt lat="43.99861369663325" lon="7.7663148254216825"><ele>644.0</ele><time>2026-04-18T10:05:22Z</time></trkpt><trkpt lat="43.998534192370535" lon="7.766241644514346"><ele>644.0</ele><time>2026-04-18T10:05:23Z</time></trkpt><trkpt lat="43.99844407120251" lon="7.766248831324345"><ele>644.0</ele><time>2026-04-18T10:05:24Z</time></trkpt><trkpt lat="43.998365833147574" lon="7.766310746673522"><ele>644.0</ele><time>2026-04-18T10:05:25Z</time></trkpt><trkpt lat="43.99830706286897" lon="7.7664287592284555"><ele>645.5</ele><time>2026-04-18T10:05:26Z</time></trkpt><trkpt lat="43.998254550935584" lon="7.766572355256304"><ele>647.0</ele><time>2026-04-18T10:05:27Z</time></trkpt><trkpt lat="43.998180527467696" lon="7.766722170698103"><ele>648.5</ele><time>2026-04-18T10:05:28Z</time></trkpt><trkpt lat="43.99806175301771" lon="7.766845363184928"><ele>650.0</ele><time>2026-04-18T10:05:29Z</time></trkpt><trkpt lat="43.9979485256904" lon="7.76699853194164"><ele>649.25</ele><time>2026-04-18T10:05:30Z</time></trkpt><trkpt lat="43.99780658421364" lon="7.767092218280574"><ele>648.5</ele><time>2026-04-18T10:05:31Z</time></trkpt><trkpt lat="43.997680225146055" lon="7.767185457902986"><ele>647.75</ele><time>2026-04-18T10:05:32Z</time></trkpt><trkpt lat="43.99758610782371" lon="7.767301166297134"><ele>647.0</ele><time>2026-04-18T10:05:33Z</time></trkpt><trkpt lat="43.997486250830626" lon="7.767375163026891"><ele>647.0</ele><time>2026-04-18T10:05:34Z</time></trkpt><trkpt lat="43.99737244599198" lon="7.767366962829427"><ele>647.0</ele><time>2026-04-18T10:05:35Z</time></trkpt><trkpt lat="43.99724262187102" lon="7.767341023835724"><ele>647.0</ele><time>2026-04-18T10:05:36Z</time></trkpt><trkpt lat="43.99711051141991" lon="7.767325075119652"><ele>647.0</ele><time>2026-04-18T10:05:37Z</time></trkpt><trkpt lat="43.99697892065705" lon="7.76733205878563"><ele>647.0</ele><time>2026-04-18T10:05:38Z</time></trkpt><trkpt lat="43.99685897962969" lon="7.767419101061118"><ele>647.0</ele><time>2026-04-18T10:05:39Z</time></trkpt><trkpt lat="43.996733319340095" lon="7.767512085459954"><ele>647.0</ele><time>2026-04-18T10:05:40Z</time></trkpt><trkpt lat="43.99659715544907" lon="7.767609405059725"><ele>647.0</ele><time>2026-04-18T10:05:41Z</time></trkpt><trkpt lat="43.99644565480767" lon="7.767658853723579"><ele>645.3333333333333</ele><time>2026-04-18T10:05:42Z</time></trkpt><trkpt lat="43.99628612128978" lon="7.767734437003222"><ele>643.6666666666666</ele><time>2026-04-18T10:05:43Z</time></trkpt><trkpt lat="43.99615421909089" lon="7.767871600140836"><ele>642.0</ele><time>2026-04-18T10:05:44Z</time></trkpt><trkpt lat="43.99602775369752" lon="7.7680029243876065"><ele>642.0</ele><time>2026-04-18T10:05:45Z</time></trkpt><trkpt lat="43.995917382977055" lon="7.768123176006313"><ele>642.0</ele><time>2026-04-18T10:05:46Z</time></trkpt><trkpt lat="43.99580320913619" lon="7.768214431263201"><ele>642.0</ele><time>2026-04-18T10:05:47Z</time></trkpt><trkpt lat="43.995668619459146" lon="7.768249631183733"><ele>642.0</ele><time>2026-04-18T10:05:48Z</time></trkpt><trkpt lat="43.995526320019" lon="7.768291567070947"><ele>647.4000000000001</ele><time>2026-04-18T10:05:49Z</time></trkpt><trkpt lat="43.99540192306711" lon="7.76832866710943"><ele>652.8000000000001</ele><time>2026-04-18T10:05:50Z</time></trkpt><trkpt lat="43.995300311278605" lon="7.768345884936089"><ele>658.2</ele><time>2026-04-18T10:05:51Z</time></trkpt><trkpt lat="43.99519795461783" lon="7.768333632049156"><ele>663.6</ele><time>2026-04-18T10:05:52Z</time></trkpt><trkpt lat="43.99510084392728" lon="7.768290089296968"><ele>669.0</ele><time>2026-04-18T10:05:53Z</time></trkpt><trkpt lat="43.9950001655051" lon="7.76821809156055"><ele>669.75</ele><time>2026-04-18T10:05:54Z</time></trkpt><trkpt lat="43.99488941551976" lon="7.768126585900834"><ele>670.5</ele><time>2026-04-18T10:05:55Z</time></trkpt><trkpt lat="43.9947656297919" lon="7.7680415410633525"><ele>671.25</ele><time>2026-04-18T10:05:56Z</time></trkpt><trkpt lat="43.9946260778459" lon="7.768014102286125"><ele>672.0</ele><time>2026-04-18T10:05:57Z</time></trkpt><trkpt lat="43.99449439273071" lon="7.767972172699544"><ele>672.0</ele><time>2026-04-18T10:05:58Z</time></trkpt><trkpt lat="43.99437580278957" lon="7.7679270082347305"><ele>672.0</ele><time>2026-04-18T10:05:59Z</time></trkpt><trkpt lat="43.994266845459755" lon="7.767845766455682"><ele>672.0</ele><time>2026-04-18T10:06:00Z</time></trkpt><trkpt lat="43.99416306124226" lon="7.767754176387403"><ele>672.0</ele><time>2026-04-18T10:06:01Z</time></trkpt><trkpt lat="43.99410144362076" lon="7.767640601250613"><ele>670.0</ele><time>2026-04-18T10:06:02Z</time></trkpt><trkpt lat="43.994008751472286" lon="7.767587017729209"><ele>668.0</ele><time>2026-04-18T10:06:03Z</time></trkpt><trkpt lat="43.99389978121663" lon="7.767642282177869"><ele>666.0</ele><time>2026-04-18T10:06:04Z</time></trkpt><trkpt lat="43.99379530388654" lon="7.767682038464836"><ele>664.0</ele><time>2026-04-18T10:06:05.001Z</time></trkpt><trkpt lat="43.99367322893388" lon="7.767735409897107"><ele>664.0</ele><time>2026-04-18T10:06:06.001Z</time></trkpt><trkpt lat="43.99355557562862" lon="7.767761410954474"><ele>664.0</ele><time>2026-04-18T10:06:07.001Z</time></trkpt><trkpt lat="43.99343339120729" lon="7.7678328007960085"><ele>664.0</ele><time>2026-04-18T10:06:08.001Z</time></trkpt><trkpt lat="43.99332616132706" lon="7.767905089956076"><ele>664.0</ele><time>2026-04-18T10:06:09.001Z</time></trkpt><trkpt lat="43.99326087102212" lon="7.768060916600839"><ele>664.75</ele><time>2026-04-18T10:06:10.001Z</time></trkpt><trkpt lat="43.99318792007319" lon="7.768213061721849"><ele>665.5</ele><time>2026-04-18T10:06:11.001Z</time></trkpt><trkpt lat="43.99310097781446" lon="7.768367168784412"><ele>666.25</ele><time>2026-04-18T10:06:12.001Z</time></trkpt><trkpt lat="43.99301217705005" lon="7.768530232483922"><ele>667.0</ele><time>2026-04-18T10:06:13.001Z</time></trkpt><trkpt lat="43.99291334501969" lon="7.768728840848767"><ele>667.0</ele><time>2026-04-18T10:06:14.001Z</time></trkpt><trkpt lat="43.99282684938719" lon="7.7689378380824685"><ele>667.0</ele><time>2026-04-18T10:06:15.001Z</time></trkpt><trkpt lat="43.99275731428903" lon="7.769124366592621"><ele>667.0</ele><time>2026-04-18T10:06:16.001Z</time></trkpt><trkpt lat="43.99270350290354" lon="7.769284212070517"><ele>662.6</ele><time>2026-04-18T10:06:17.001Z</time></trkpt><trkpt lat="43.99264565768318" lon="7.769427070080582"><ele>658.2</ele><time>2026-04-18T10:06:18.001Z</time></trkpt><trkpt lat="43.99257613205303" lon="7.769541157146632"><ele>653.8</ele><time>2026-04-18T10:06:19.001Z</time></trkpt><trkpt lat="43.992483188523686" lon="7.769652114291548"><ele>649.4</ele><time>2026-04-18T10:06:20.001Z</time></trkpt><trkpt lat="43.992412097985905" lon="7.769729281258532"><ele>645.0</ele><time>2026-04-18T10:06:21.001Z</time></trkpt><trkpt lat="43.99234685495792" lon="7.769786623466925"><ele>652.3333333333334</ele><time>2026-04-18T10:06:22.001Z</time></trkpt><trkpt lat="43.992287054168315" lon="7.769816702390237"><ele>659.6666666666666</ele><time>2026-04-18T10:06:23.001Z</time></trkpt><trkpt lat="43.99221660473439" lon="7.7698086912259585"><ele>667.0</ele><time>2026-04-18T10:06:24.001Z</time></trkpt><trkpt lat="43.99215009566655" lon="7.769730543046778"><ele>674.3333333333333</ele><time>2026-04-18T10:06:25.001Z</time></trkpt><trkpt lat="43.992079078496495" lon="7.7696269911735625"><ele>681.6666666666666</ele><time>2026-04-18T10:06:26.001Z</time></trkpt><trkpt lat="43.992000056682045" lon="7.7694996758685715"><ele>689.0</ele><time>2026-04-18T10:06:27.001Z</time></trkpt><trkpt lat="43.99191625343436" lon="7.769368335062821"><ele>695.25</ele><time>2026-04-18T10:06:28.001Z</time></trkpt><trkpt lat="43.99183708226622" lon="7.769265100648583"><ele>701.5</ele><time>2026-04-18T10:06:29.001Z</time></trkpt><trkpt lat="43.991736429727894" lon="7.769194511075735"><ele>707.75</ele><time>2026-04-18T10:06:30.001Z</time></trkpt><trkpt lat="43.99161909595139" lon="7.7691418028321335"><ele>714.0</ele><time>2026-04-18T10:06:31.001Z</time></trkpt><trkpt lat="43.99149605661879" lon="7.769085408832727"><ele>714.0</ele><time>2026-04-18T10:06:32.001Z</time></trkpt><trkpt lat="43.99137841095617" lon="7.769003615473434"><ele>714.0</ele><time>2026-04-18T10:06:33.001Z</time></trkpt><trkpt lat="43.991284324513465" lon="7.7688926137856384"><ele>714.0</ele><time>2026-04-18T10:06:34.001Z</time></trkpt><trkpt lat="43.991178926816076" lon="7.768851735731151"><ele>714.0</ele><time>2026-04-18T10:06:35.001Z</time></trkpt><trkpt lat="43.99107151398186" lon="7.768838885153564"><ele>714.0</ele><time>2026-04-18T10:06:36.001Z</time></trkpt><trkpt lat="43.99095587233068" lon="7.768844879381723"><ele>714.0</ele><time>2026-04-18T10:06:37.001Z</time></trkpt><trkpt lat="43.99085030859155" lon="7.768850344315794"><ele>714.0</ele><time>2026-04-18T10:06:38.001Z</time></trkpt><trkpt lat="43.99075963580918" lon="7.768840422856001"><ele>714.0</ele><time>2026-04-18T10:06:39.001Z</time></trkpt><trkpt lat="43.99067477363314" lon="7.768840284926378"><ele>714.0</ele><time>2026-04-18T10:06:40.001Z</time></trkpt><trkpt lat="43.99059126712931" lon="7.768843801316127"><ele>712.1666666666666</ele><time>2026-04-18T10:06:41.001Z</time></trkpt><trkpt lat="43.99050831272533" lon="7.7688477031484915"><ele>710.3333333333334</ele><time>2026-04-18T10:06:42.001Z</time></trkpt><trkpt lat="43.99043003799834" lon="7.768844235463223"><ele>708.5</ele><time>2026-04-18T10:06:43.001Z</time></trkpt><trkpt lat="43.99036402412115" lon="7.76882776323133"><ele>706.6666666666667</ele><time>2026-04-18T10:06:44.001Z</time></trkpt><trkpt lat="43.99029970450354" lon="7.768688863457669"><ele>704.8333333333334</ele><time>2026-04-18T10:06:46.001Z</time></trkpt><trkpt lat="43.99030381803768" lon="7.768573764433831"><ele>703.0</ele><time>2026-04-18T10:06:47.001Z</time></trkpt><trkpt lat="43.990336379124216" lon="7.768472587523482"><ele>708.1666666666667</ele><time>2026-04-18T10:06:48.001Z</time></trkpt><trkpt lat="43.99037628389499" lon="7.768360691915682"><ele>713.3333333333334</ele><time>2026-04-18T10:06:49.001Z</time></trkpt><trkpt lat="43.99043100117371" lon="7.768251885375038"><ele>718.5</ele><time>2026-04-18T10:06:50.001Z</time></trkpt><trkpt lat="43.99048321465418" lon="7.7681605197428745"><ele>723.6666666666666</ele><time>2026-04-18T10:06:51.001Z</time></trkpt><trkpt lat="43.99053160406116" lon="7.768058107612234"><ele>728.8333333333333</ele><time>2026-04-18T10:06:52.001Z</time></trkpt><trkpt lat="43.990576006686815" lon="7.767955326624817"><ele>734.0</ele><time>2026-04-18T10:06:53.001Z</time></trkpt><trkpt lat="43.99062339608221" lon="7.767856883502398"><ele>734.0</ele><time>2026-04-18T10:06:54.001Z</time></trkpt><trkpt lat="43.99067542945618" lon="7.767763829999232"><ele>734.0</ele><time>2026-04-18T10:06:55.001Z</time></trkpt><trkpt lat="43.990731697696454" lon="7.767678380818411"><ele>734.0</ele><time>2026-04-18T10:06:56.001Z</time></trkpt><trkpt lat="43.99079356498408" lon="7.767602505726716"><ele>734.0</ele><time>2026-04-18T10:06:57.001Z</time></trkpt><trkpt lat="43.990852422666485" lon="7.767531686709354"><ele>734.0</ele><time>2026-04-18T10:06:58.001Z</time></trkpt><trkpt lat="43.99091574904985" lon="7.767451089298171"><ele>734.0</ele><time>2026-04-18T10:06:59.001Z</time></trkpt><trkpt lat="43.99097874291095" lon="7.7673703447895095"><ele>737.6666666666666</ele><time>2026-04-18T10:07:00.001Z</time></trkpt><trkpt lat="43.991040106824805" lon="7.767287228535421"><ele>741.3333333333333</ele><time>2026-04-18T10:07:01.001Z</time></trkpt><trkpt lat="43.9910994518901" lon="7.7671989102616"><ele>745.0</ele><time>2026-04-18T10:07:02.001Z</time></trkpt><trkpt lat="43.99115196517363" lon="7.767098983250819"><ele>748.6666666666666</ele><time>2026-04-18T10:07:03.001Z</time></trkpt><trkpt lat="43.99119304918501" lon="7.76698823146467"><ele>752.3333333333334</ele><time>2026-04-18T10:07:04.001Z</time></trkpt><trkpt lat="43.99122548789911" lon="7.76687430008695"><ele>756.0</ele><time>2026-04-18T10:07:05.001Z</time></trkpt><trkpt lat="43.991256229249736" lon="7.76675658587166"><ele>756.0</ele><time>2026-04-18T10:07:06.001Z</time></trkpt><trkpt lat="43.99129950599098" lon="7.766645988943636"><ele>756.0</ele><time>2026-04-18T10:07:07.001Z</time></trkpt><trkpt lat="43.99133793715908" lon="7.766531150404018"><ele>756.0</ele><time>2026-04-18T10:07:08.001Z</time></trkpt><trkpt lat="43.99138272492592" lon="7.766419896279149"><ele>756.0</ele><time>2026-04-18T10:07:09.001Z</time></trkpt><trkpt lat="43.99142725223641" lon="7.766310929370882"><ele>756.0</ele><time>2026-04-18T10:07:10.001Z</time></trkpt><trkpt lat="43.9914718356264" lon="7.766200325513567"><ele>756.0</ele><time>2026-04-18T10:07:11.001Z</time></trkpt><trkpt lat="43.991516227075834" lon="7.766088934758115"><ele>756.0</ele><time>2026-04-18T10:07:12.001Z</time></trkpt><trkpt lat="43.99155501415762" lon="7.765982852238072"><ele>756.0</ele><time>2026-04-18T10:07:13.001Z</time></trkpt><trkpt lat="43.99159781933648" lon="7.7658843821465"><ele>756.0</ele><time>2026-04-18T10:07:14.001Z</time></trkpt><trkpt lat="43.991638734843654" lon="7.7657986367006755"><ele>756.0</ele><time>2026-04-18T10:07:15.001Z</time></trkpt><trkpt lat="43.9916847319983" lon="7.765728832883789"><ele>756.0</ele><time>2026-04-18T10:07:16Z</time></trkpt><trkpt lat="43.99173375321343" lon="7.7656622190850335"><ele>759.3333333333334</ele><time>2026-04-18T10:07:17Z</time></trkpt><trkpt lat="43.99179003419907" lon="7.765601386970587"><ele>762.6666666666667</ele><time>2026-04-18T10:07:18Z</time></trkpt><trkpt lat="43.991854397676924" lon="7.765551269822118"><ele>766.0</ele><time>2026-04-18T10:07:19Z</time></trkpt><trkpt lat="43.99191980556607" lon="7.765507258241588"><ele>769.3333333333334</ele><time>2026-04-18T10:07:20Z</time></trkpt><trkpt lat="43.99198961157436" lon="7.7654675763935455"><ele>772.6666666666667</ele><time>2026-04-18T10:07:21Z</time></trkpt><trkpt lat="43.992062846586556" lon="7.7654353423863665"><ele>776.0</ele><time>2026-04-18T10:07:22Z</time></trkpt><trkpt lat="43.992136006215404" lon="7.765388158080296"><ele>776.0</ele><time>2026-04-18T10:07:23Z</time></trkpt><trkpt lat="43.99220863234901" lon="7.76533164486306"><ele>776.0</ele><time>2026-04-18T10:07:24Z</time></trkpt><trkpt lat="43.99228703007592" lon="7.765278302583657"><ele>776.0</ele><time>2026-04-18T10:07:25Z</time></trkpt><trkpt lat="43.992364403017085" lon="7.765221636423357"><ele>776.0</ele><time>2026-04-18T10:07:26Z</time></trkpt><trkpt lat="43.99244935388215" lon="7.76515429154333"><ele>776.0</ele><time>2026-04-18T10:07:27Z</time></trkpt><trkpt lat="43.99253087395904" lon="7.765075673744329"><ele>780.4</ele><time>2026-04-18T10:07:28Z</time></trkpt><trkpt lat="43.99261077224463" lon="7.7649883457804325"><ele>784.8</ele><time>2026-04-18T10:07:29Z</time></trkpt><trkpt lat="43.992692764718335" lon="7.764900495480931"><ele>789.1999999999999</ele><time>2026-04-18T10:07:30.001Z</time></trkpt><trkpt lat="43.9927785090211" lon="7.764805143171206"><ele>793.5999999999999</ele><time>2026-04-18T10:07:31.001Z</time></trkpt><trkpt lat="43.99285402277101" lon="7.7646950801508385"><ele>798.0</ele><time>2026-04-18T10:07:32.001Z</time></trkpt><trkpt lat="43.99292436222064" lon="7.7645576890195285"><ele>798.0</ele><time>2026-04-18T10:07:33.001Z</time></trkpt><trkpt lat="43.99298625212689" lon="7.764413223592999"><ele>798.0</ele><time>2026-04-18T10:07:34.001Z</time></trkpt><trkpt lat="43.99304378348594" lon="7.76425865885499"><ele>798.0</ele><time>2026-04-18T10:07:35.001Z</time></trkpt><trkpt lat="43.993099403282514" lon="7.764111011077665"><ele>798.0</ele><time>2026-04-18T10:07:36.001Z</time></trkpt><trkpt lat="43.99314852845309" lon="7.763958615313411"><ele>792.0</ele><time>2026-04-18T10:07:37.001Z</time></trkpt><trkpt lat="43.993185282424996" lon="7.763807324160774"><ele>786.0</ele><time>2026-04-18T10:07:38.001Z</time></trkpt><trkpt lat="43.993204257764205" lon="7.76364923970824"><ele>780.0</ele><time>2026-04-18T10:07:39.001Z</time></trkpt><trkpt lat="43.993211164662966" lon="7.763490139912756"><ele>774.0</ele><time>2026-04-18T10:07:40.001Z</time></trkpt><trkpt lat="43.99321771208218" lon="7.763329485532123"><ele>773.0</ele><time>2026-04-18T10:07:41.001Z</time></trkpt><trkpt lat="43.99323280623659" lon="7.763160340889824"><ele>772.0</ele><time>2026-04-18T10:07:42.001Z</time></trkpt><trkpt lat="43.99325316857304" lon="7.762992713270341"><ele>771.0</ele><time>2026-04-18T10:07:43.001Z</time></trkpt><trkpt lat="43.99327126725472" lon="7.762820627487395"><ele>770.0</ele><time>2026-04-18T10:07:44.001Z</time></trkpt><trkpt lat="43.9932806363356" lon="7.762649781906033"><ele>770.0</ele><time>2026-04-18T10:07:45.001Z</time></trkpt><trkpt lat="43.99327084713537" lon="7.762485041576569"><ele>770.0</ele><time>2026-04-18T10:07:46.001Z</time></trkpt><trkpt lat="43.99324978789517" lon="7.7623331647319365"><ele>770.0</ele><time>2026-04-18T10:07:47.001Z</time></trkpt><trkpt lat="43.99322570217622" lon="7.7621832561555575"><ele>770.0</ele><time>2026-04-18T10:07:48.001Z</time></trkpt><trkpt lat="43.9932031282255" lon="7.762037981113152"><ele>770.0</ele><time>2026-04-18T10:07:49.001Z</time></trkpt><trkpt lat="43.993193830006504" lon="7.761891316641546"><ele>770.6</ele><time>2026-04-18T10:07:50.001Z</time></trkpt><trkpt lat="43.99320012609066" lon="7.761743556905901"><ele>771.2</ele><time>2026-04-18T10:07:51.001Z</time></trkpt><trkpt lat="43.99321602324019" lon="7.761603010918132"><ele>771.8</ele><time>2026-04-18T10:07:52.001Z</time></trkpt><trkpt lat="43.99322999525859" lon="7.761462818333999"><ele>772.4</ele><time>2026-04-18T10:07:53.001Z</time></trkpt><trkpt lat="43.99324512975122" lon="7.761319736415763"><ele>773.0</ele><time>2026-04-18T10:07:54.001Z</time></trkpt><trkpt lat="43.99325480130159" lon="7.761183154263818"><ele>773.0000000000001</ele><time>2026-04-18T10:07:55.001Z</time></trkpt><trkpt lat="43.993266585618024" lon="7.761049472801199"><ele>773.0</ele><time>2026-04-18T10:07:56.001Z</time></trkpt><trkpt lat="43.99327623681467" lon="7.7609278304315135"><ele>773.0</ele><time>2026-04-18T10:07:57.001Z</time></trkpt><trkpt lat="43.993285852264265" lon="7.760815084066055"><ele>773.0</ele><time>2026-04-18T10:07:58.001Z</time></trkpt><trkpt lat="43.993289366511966" lon="7.760719744883663"><ele>773.0000000000001</ele><time>2026-04-18T10:07:59.001Z</time></trkpt><trkpt lat="43.9933073997077" lon="7.760594687551956"><ele>773.0</ele><time>2026-04-18T10:08:01.001Z</time></trkpt><trkpt lat="43.9934694836817" lon="7.7606682691469615"><ele>775.4285714285714</ele><time>2026-04-18T10:08:06.001Z</time></trkpt><trkpt lat="43.99350347278712" lon="7.760767423953222"><ele>777.8571428571429</ele><time>2026-04-18T10:08:07.001Z</time></trkpt><trkpt lat="43.9935361270556" lon="7.760852859581312"><ele>780.2857142857142</ele><time>2026-04-18T10:08:08.001Z</time></trkpt><trkpt lat="43.9935523174103" lon="7.7609439394458155"><ele>782.7142857142858</ele><time>2026-04-18T10:08:09.001Z</time></trkpt><trkpt lat="43.99358405202187" lon="7.76103214909346"><ele>785.1428571428572</ele><time>2026-04-18T10:08:10.001Z</time></trkpt><trkpt lat="43.99362415516836" lon="7.761125606162893"><ele>787.5714285714286</ele><time>2026-04-18T10:08:11.001Z</time></trkpt><trkpt lat="43.993652952495076" lon="7.7612210527739505"><ele>790.0</ele><time>2026-04-18T10:08:12.001Z</time></trkpt><trkpt lat="43.99368520893668" lon="7.7613178977595005"><ele>790.0</ele><time>2026-04-18T10:08:13.001Z</time></trkpt><trkpt lat="43.99372694803773" lon="7.761405991972651"><ele>790.0</ele><time>2026-04-18T10:08:14.001Z</time></trkpt><trkpt lat="43.99376240692701" lon="7.761502658105571"><ele>790.0</ele><time>2026-04-18T10:08:15.001Z</time></trkpt><trkpt lat="43.99378903743245" lon="7.761590533592775"><ele>790.0</ele><time>2026-04-18T10:08:16.001Z</time></trkpt><trkpt lat="43.99381700715742" lon="7.761680440559638"><ele>790.0</ele><time>2026-04-18T10:08:17.001Z</time></trkpt><trkpt lat="43.99384339161511" lon="7.761772051421718"><ele>790.0</ele><time>2026-04-18T10:08:18.001Z</time></trkpt><trkpt lat="43.993870213563646" lon="7.7618570647163345"><ele>790.0</ele><time>2026-04-18T10:08:19.001Z</time></trkpt><trkpt lat="43.9939254693425" lon="7.762002067159761"><ele>789.4999999999999</ele><time>2026-04-18T10:08:21.001Z</time></trkpt><trkpt lat="43.99396889012368" lon="7.762114203783359"><ele>789.0</ele><time>2026-04-18T10:08:23.001Z</time></trkpt><trkpt lat="43.993997873064096" lon="7.762210933578314"><ele>788.5</ele><time>2026-04-18T10:08:25.001Z</time></trkpt><trkpt lat="43.99401711907114" lon="7.7622986074884635"><ele>788.0</ele><time>2026-04-18T10:08:27.001Z</time></trkpt><trkpt lat="43.994042239837725" lon="7.762400706649617"><ele>787.4999999999999</ele><time>2026-04-18T10:08:29.001Z</time></trkpt><trkpt lat="43.99405131539778" lon="7.762516804991466"><ele>787.0</ele><time>2026-04-18T10:08:31.001Z</time></trkpt><trkpt lat="43.99401755982856" lon="7.762642595147565"><ele>787.8</ele><time>2026-04-18T10:08:33.001Z</time></trkpt><trkpt lat="43.993988646066825" lon="7.762784017426265"><ele>788.6</ele><time>2026-04-18T10:08:35.001Z</time></trkpt><trkpt lat="43.99395092310799" lon="7.762926752040575"><ele>789.4</ele><time>2026-04-18T10:08:37.001Z</time></trkpt><trkpt lat="43.99389749315453" lon="7.7630810772270165"><ele>790.1999999999999</ele><time>2026-04-18T10:08:39.001Z</time></trkpt><trkpt lat="43.99386857431083" lon="7.76316887318232"><ele>791.0</ele><time>2026-04-18T10:08:40.001Z</time></trkpt><trkpt lat="43.99384158746289" lon="7.763255820145647"><ele>791.0</ele><time>2026-04-18T10:08:41.001Z</time></trkpt><trkpt lat="43.99381509284841" lon="7.763350620972191"><ele>791.0</ele><time>2026-04-18T10:08:42.001Z</time></trkpt><trkpt lat="43.99378338105797" lon="7.763433052121055"><ele>791.0</ele><time>2026-04-18T10:08:43.001Z</time></trkpt><trkpt lat="43.993751944643975" lon="7.763523244065962"><ele>791.0</ele><time>2026-04-18T10:08:44.001Z</time></trkpt><trkpt lat="43.99371811935886" lon="7.763612178318095"><ele>791.0</ele><time>2026-04-18T10:08:45.001Z</time></trkpt><trkpt lat="43.99369024346463" lon="7.763706758256677"><ele>791.0</ele><time>2026-04-18T10:08:46.001Z</time></trkpt><trkpt lat="43.99365856330662" lon="7.76380484832956"><ele>791.0</ele><time>2026-04-18T10:08:47.001Z</time></trkpt><trkpt lat="43.99362552565889" lon="7.7638986568747015"><ele>794.6666666666667</ele><time>2026-04-18T10:08:48.001Z</time></trkpt><trkpt lat="43.993590685485586" lon="7.7639960240638235"><ele>798.3333333333334</ele><time>2026-04-18T10:08:49.001Z</time></trkpt><trkpt lat="43.993557190956345" lon="7.764090303177015"><ele>802.0</ele><time>2026-04-18T10:08:50.001Z</time></trkpt><trkpt lat="43.9935238174418" lon="7.76417866514454"><ele>805.6666666666667</ele><time>2026-04-18T10:08:51.001Z</time></trkpt><trkpt lat="43.99348957918056" lon="7.764264211463167"><ele>809.3333333333334</ele><time>2026-04-18T10:08:52.001Z</time></trkpt><trkpt lat="43.993458993890606" lon="7.764341916656949"><ele>813.0</ele><time>2026-04-18T10:08:53.001Z</time></trkpt><trkpt lat="43.993403352584664" lon="7.764492459602502"><ele>815.5</ele><time>2026-04-18T10:08:55.001Z</time></trkpt><trkpt lat="43.99337799998169" lon="7.76457257436581"><ele>818.0</ele><time>2026-04-18T10:08:56.001Z</time></trkpt><trkpt lat="43.99331641988158" lon="7.764715561661761"><ele>820.5</ele><time>2026-04-18T10:08:58.001Z</time></trkpt><trkpt lat="43.993259077876026" lon="7.7648246054882515"><ele>823.0</ele><time>2026-04-18T10:09:00.001Z</time></trkpt><trkpt lat="43.99322131378841" lon="7.764912805631052"><ele>825.5</ele><time>2026-04-18T10:09:02.001Z</time></trkpt><trkpt lat="43.99317698898327" lon="7.765002525944029"><ele>828.0</ele><time>2026-04-18T10:09:05.001Z</time></trkpt><trkpt lat="43.993141575730434" lon="7.765074921754643"><ele>798.0</ele><time>2026-04-18T10:09:07.001Z</time></trkpt><trkpt lat="43.99310876377645" lon="7.765159785653117"><ele>798.0</ele><time>2026-04-18T10:09:10.001Z</time></trkpt><trkpt lat="43.993064636583654" lon="7.765224798287543"><ele>802.0</ele><time>2026-04-18T10:09:13.001Z</time></trkpt><trkpt lat="43.99302322302676" lon="7.765307314555769"><ele>802.0</ele><time>2026-04-18T10:09:16.001Z</time></trkpt></trkseg><trkseg><trkpt lat="43.993060237044936" lon="7.765286830260563"><ele>801.3333333333333</ele><time>2026-04-18T12:06:17.999Z</time></trkpt><trkpt lat="43.99310477089829" lon="7.765185229289244"><ele>800.6666666666666</ele><time>2026-04-18T12:06:19.999Z</time></trkpt><trkpt lat="43.993160776930495" lon="7.7650920594710025"><ele>800.0</ele><time>2026-04-18T12:06:21.999Z</time></trkpt><trkpt lat="43.99320603872249" lon="7.7649917890293985"><ele>799.3333333333333</ele><time>2026-04-18T12:06:23.999Z</time></trkpt><trkpt lat="43.99325610042528" lon="7.764897253683443"><ele>798.6666666666666</ele><time>2026-04-18T12:06:25.999Z</time></trkpt><trkpt lat="43.99329770980701" lon="7.764800392153108"><ele>798.0</ele><time>2026-04-18T12:06:27.999Z</time></trkpt><trkpt lat="43.99333799311347" lon="7.76471381721461"><ele>800.5</ele><time>2026-04-18T12:06:29.999Z</time></trkpt><trkpt lat="43.99337443455895" lon="7.764622927279993"><ele>803.0</ele><time>2026-04-18T12:06:31.999Z</time></trkpt><trkpt lat="43.99340763153911" lon="7.764527217883099"><ele>805.5</ele><time>2026-04-18T12:06:33.999Z</time></trkpt><trkpt lat="43.99343834128464" lon="7.764443913477246"><ele>808.0</ele><time>2026-04-18T12:06:36.999Z</time></trkpt><trkpt lat="43.99347908020293" lon="7.764356512669442"><ele>810.5</ele><time>2026-04-18T12:06:41Z</time></trkpt><trkpt lat="43.99350886270036" lon="7.764261395896115"><ele>813.0</ele><time>2026-04-18T12:06:44Z</time></trkpt><trkpt lat="43.99355004516956" lon="7.764134224144734"><ele>813.0</ele><time>2026-04-18T12:06:47Z</time></trkpt><trkpt lat="43.993589079501966" lon="7.764014740713429"><ele>813.0</ele><time>2026-04-18T12:06:50Z</time></trkpt><trkpt lat="43.9936204428789" lon="7.7638966136843255"><ele>813.0</ele><time>2026-04-18T12:06:53Z</time></trkpt><trkpt lat="43.99365744708353" lon="7.763821971956735"><ele>813.0</ele><time>2026-04-18T12:06:55Z</time></trkpt><trkpt lat="43.99369382439178" lon="7.763743083273294"><ele>813.0</ele><time>2026-04-18T12:06:57Z</time></trkpt><trkpt lat="43.99373793625447" lon="7.763637859014102"><ele>813.0</ele><time>2026-04-18T12:07:00Z</time></trkpt><trkpt lat="43.99378071778308" lon="7.763556449723988"><ele>808.5999999999999</ele><time>2026-04-18T12:07:04Z</time></trkpt><trkpt lat="43.993803995239375" lon="7.763447561087482"><ele>804.1999999999999</ele><time>2026-04-18T12:09:18Z</time></trkpt><trkpt lat="43.99380661531468" lon="7.763346289533054"><ele>799.8</ele><time>2026-04-18T12:09:20Z</time></trkpt><trkpt lat="43.99386491692723" lon="7.7632162752361005"><ele>795.4</ele><time>2026-04-18T12:09:22Z</time></trkpt><trkpt lat="43.99390823148083" lon="7.763070880375231"><ele>791.0</ele><time>2026-04-18T12:09:24Z</time></trkpt><trkpt lat="43.99394657387926" lon="7.762938179670679"><ele>791.0</ele><time>2026-04-18T12:09:26Z</time></trkpt><trkpt lat="43.9939826477316" lon="7.762801574699159"><ele>791.0</ele><time>2026-04-18T12:09:28Z</time></trkpt><trkpt lat="43.99404911438085" lon="7.762659724720047"><ele>791.0</ele><time>2026-04-18T12:09:30Z</time></trkpt><trkpt lat="43.99407127513958" lon="7.762506865421408"><ele>791.0</ele><time>2026-04-18T12:09:32Z</time></trkpt><trkpt lat="43.99407363471751" lon="7.762345081491653"><ele>790.75</ele><time>2026-04-18T12:09:33.999Z</time></trkpt><trkpt lat="43.99401523961737" lon="7.76219778049558"><ele>790.5</ele><time>2026-04-18T12:09:35.999Z</time></trkpt><trkpt lat="43.99396057819646" lon="7.762041034736693"><ele>790.25</ele><time>2026-04-18T12:09:37.999Z</time></trkpt><trkpt lat="43.993906973468114" lon="7.761880002500472"><ele>790.0</ele><time>2026-04-18T12:09:39.999Z</time></trkpt><trkpt lat="43.993852491683576" lon="7.761724193855092"><ele>789.9999999999999</ele><time>2026-04-18T12:09:41.999Z</time></trkpt><trkpt lat="43.993798896816415" lon="7.761565076606485"><ele>790.0</ele><time>2026-04-18T12:09:43.999Z</time></trkpt><trkpt lat="43.993769781915304" lon="7.76148068145891"><ele>790.0</ele><time>2026-04-18T12:09:44.999Z</time></trkpt><trkpt lat="43.99373445751456" lon="7.7613855916242604"><ele>790.0</ele><time>2026-04-18T12:09:45.999Z</time></trkpt><trkpt lat="43.99369663677007" lon="7.761289610531704"><ele>789.9999999999999</ele><time>2026-04-18T12:09:46.999Z</time></trkpt><trkpt lat="43.99367781421993" lon="7.761189367805991"><ele>790.0</ele><time>2026-04-18T12:09:47.999Z</time></trkpt><trkpt lat="43.993646567619514" lon="7.761102514571545"><ele>790.6666666666666</ele><time>2026-04-18T12:09:48.999Z</time></trkpt><trkpt lat="43.99361742468748" lon="7.761021508789042"><ele>791.3333333333333</ele><time>2026-04-18T12:09:49.999Z</time></trkpt><trkpt lat="43.993579736532716" lon="7.760916750454663"><ele>792.0</ele><time>2026-04-18T12:09:50.999Z</time></trkpt><trkpt lat="43.993537874060614" lon="7.760850610944958"><ele>792.6666666666667</ele><time>2026-04-18T12:09:51.999Z</time></trkpt><trkpt lat="43.99349987908291" lon="7.760690645558021"><ele>793.3333333333334</ele><time>2026-04-18T12:09:53.999Z</time></trkpt><trkpt lat="43.99346106108841" lon="7.760582921308705"><ele>794.0</ele><time>2026-04-18T12:09:55.999Z</time></trkpt><trkpt lat="43.993433482262944" lon="7.760502502817852"><ele>794.0</ele><time>2026-04-18T12:09:57.999Z</time></trkpt><trkpt lat="43.99339116799725" lon="7.760434770677989"><ele>794.0</ele><time>2026-04-18T12:09:59.999Z</time></trkpt><trkpt lat="43.99325881189205" lon="7.760636754721196"><ele>794.0</ele><time>2026-04-18T12:10:02.999Z</time></trkpt><trkpt lat="43.993253678824715" lon="7.76073658932561"><ele>794.0</ele><time>2026-04-18T12:10:03.999Z</time></trkpt><trkpt lat="43.993255452426844" lon="7.760840185734123"><ele>794.0</ele><time>2026-04-18T12:10:04.999Z</time></trkpt><trkpt lat="43.99324670577519" lon="7.761012201785772"><ele>791.0</ele><time>2026-04-18T12:10:06.999Z</time></trkpt><trkpt lat="43.993234911849505" lon="7.761108937945303"><ele>788.0</ele><time>2026-04-18T12:10:07.999Z</time></trkpt><trkpt lat="43.993224843699096" lon="7.761210651583646"><ele>785.0</ele><time>2026-04-18T12:10:08.999Z</time></trkpt><trkpt lat="43.993221048662804" lon="7.761316981705082"><ele>782.0</ele><time>2026-04-18T12:10:09.999Z</time></trkpt><trkpt lat="43.99321783310698" lon="7.76141837075933"><ele>779.0</ele><time>2026-04-18T12:10:10.999Z</time></trkpt><trkpt lat="43.993206238056366" lon="7.761522269611999"><ele>776.0</ele><time>2026-04-18T12:10:11.999Z</time></trkpt><trkpt lat="43.99320520535836" lon="7.761615816793892"><ele>773.0</ele><time>2026-04-18T12:10:12.999Z</time></trkpt><trkpt lat="43.99319687720379" lon="7.761712807606154"><ele>773.0000000000001</ele><time>2026-04-18T12:10:13.999Z</time></trkpt><trkpt lat="43.99319263310454" lon="7.761804482860407"><ele>773.0</ele><time>2026-04-18T12:10:14.999Z</time></trkpt><trkpt lat="43.99316082203323" lon="7.761896835723055"><ele>773.0</ele><time>2026-04-18T12:10:15.999Z</time></trkpt><trkpt lat="43.99316262470092" lon="7.761996104071072"><ele>773.0</ele><time>2026-04-18T12:10:16.999Z</time></trkpt><trkpt lat="43.993177356492176" lon="7.762104138726874"><ele>773.0000000000001</ele><time>2026-04-18T12:10:17.999Z</time></trkpt><trkpt lat="43.9931942148177" lon="7.762216549736811"><ele>773.0</ele><time>2026-04-18T12:10:18.999Z</time></trkpt><trkpt lat="43.993212864777846" lon="7.76233128861139"><ele>772.5000000000001</ele><time>2026-04-18T12:10:19.999Z</time></trkpt><trkpt lat="43.993232608700296" lon="7.7624390737042805"><ele>772.0</ele><time>2026-04-18T12:10:20.999Z</time></trkpt><trkpt lat="43.993246114528205" lon="7.76254906324413"><ele>771.5</ele><time>2026-04-18T12:10:21.999Z</time></trkpt><trkpt lat="43.993250743572375" lon="7.7626662275327085"><ele>771.0</ele><time>2026-04-18T12:10:22.999Z</time></trkpt><trkpt lat="43.99325017547952" lon="7.762780736817171"><ele>770.5000000000001</ele><time>2026-04-18T12:10:23.999Z</time></trkpt><trkpt lat="43.99323876675572" lon="7.762888327529183"><ele>770.0</ele><time>2026-04-18T12:10:24.999Z</time></trkpt><trkpt lat="43.99322079410189" lon="7.763006038316655"><ele>770.6666666666667</ele><time>2026-04-18T12:10:25.999Z</time></trkpt><trkpt lat="43.99320382195876" lon="7.763126749757809"><ele>771.3333333333334</ele><time>2026-04-18T12:10:26.999Z</time></trkpt><trkpt lat="43.993190582453146" lon="7.763248528013385"><ele>772.0</ele><time>2026-04-18T12:10:27.999Z</time></trkpt><trkpt lat="43.99319899148033" lon="7.763370894893322"><ele>772.6666666666667</ele><time>2026-04-18T12:10:28.999Z</time></trkpt><trkpt lat="43.99319710375935" lon="7.763493995197471"><ele>773.3333333333334</ele><time>2026-04-18T12:10:29.999Z</time></trkpt><trkpt lat="43.993178009253796" lon="7.763622727659776"><ele>774.0</ele><time>2026-04-18T12:10:30.999Z</time></trkpt><trkpt lat="43.993189522105816" lon="7.763751804768692"><ele>774.0</ele><time>2026-04-18T12:10:31.999Z</time></trkpt><trkpt lat="43.99314845269028" lon="7.763873160229758"><ele>774.0</ele><time>2026-04-18T12:10:32.999Z</time></trkpt><trkpt lat="43.99310587209099" lon="7.763994949053195"><ele>774.0</ele><time>2026-04-18T12:10:33.999Z</time></trkpt><trkpt lat="43.993060726156635" lon="7.7641228832560305"><ele>774.0</ele><time>2026-04-18T12:10:34.999Z</time></trkpt><trkpt lat="43.99301265586538" lon="7.764258385950697"><ele>774.0</ele><time>2026-04-18T12:10:35.999Z</time></trkpt><trkpt lat="43.99296417076207" lon="7.764384749347757"><ele>778.0</ele><time>2026-04-18T12:10:36.999Z</time></trkpt><trkpt lat="43.99291519201407" lon="7.764503499146492"><ele>782.0</ele><time>2026-04-18T12:10:37.999Z</time></trkpt><trkpt lat="43.992861815717724" lon="7.764616280986524"><ele>786.0</ele><time>2026-04-18T12:10:38.999Z</time></trkpt><trkpt lat="43.99281193734745" lon="7.76471124140615"><ele>790.0</ele><time>2026-04-18T12:10:39.999Z</time></trkpt><trkpt lat="43.992760309675" lon="7.764793234137791"><ele>794.0</ele><time>2026-04-18T12:10:40.999Z</time></trkpt><trkpt lat="43.99269258391717" lon="7.76486747596151"><ele>798.0</ele><time>2026-04-18T12:10:41.999Z</time></trkpt><trkpt lat="43.99262477675075" lon="7.764931996147444"><ele>798.0</ele><time>2026-04-18T12:10:42.999Z</time></trkpt><trkpt lat="43.99255313019094" lon="7.764999927817217"><ele>798.0</ele><time>2026-04-18T12:10:43.999Z</time></trkpt><trkpt lat="43.99247963432553" lon="7.765074455512335"><ele>798.0</ele><time>2026-04-18T12:10:44.999Z</time></trkpt><trkpt lat="43.99240254947813" lon="7.765147787705423"><ele>798.0</ele><time>2026-04-18T12:10:45.999Z</time></trkpt><trkpt lat="43.992322051557785" lon="7.765216966318171"><ele>798.0</ele><time>2026-04-18T12:10:46.999Z</time></trkpt><trkpt lat="43.992243185325705" lon="7.765270291520123"><ele>794.3333333333334</ele><time>2026-04-18T12:10:47.999Z</time></trkpt><trkpt lat="43.992160321880995" lon="7.765323258883924"><ele>790.6666666666667</ele><time>2026-04-18T12:10:48.999Z</time></trkpt><trkpt lat="43.99207507348444" lon="7.7653772916722925"><ele>787.0</ele><time>2026-04-18T12:10:49.999Z</time></trkpt><trkpt lat="43.99199936368457" lon="7.765424756211126"><ele>783.3333333333334</ele><time>2026-04-18T12:10:50.999Z</time></trkpt><trkpt lat="43.99192023430769" lon="7.765472376766953"><ele>779.6666666666667</ele><time>2026-04-18T12:10:51.999Z</time></trkpt><trkpt lat="43.99184835601003" lon="7.765531983980069"><ele>776.0</ele><time>2026-04-18T12:10:52.999Z</time></trkpt><trkpt lat="43.991770869236696" lon="7.765596581414173"><ele>776.0000000000001</ele><time>2026-04-18T12:10:54Z</time></trkpt><trkpt lat="43.99170367488798" lon="7.765659375764574"><ele>776.0</ele><time>2026-04-18T12:10:55Z</time></trkpt><trkpt lat="43.991658918724596" lon="7.765740736730845"><ele>776.0</ele><time>2026-04-18T12:10:56Z</time></trkpt><trkpt lat="43.99159155547313" lon="7.765826959031066"><ele>776.0</ele><time>2026-04-18T12:10:57Z</time></trkpt><trkpt lat="43.991558537746805" lon="7.7659428641346615"><ele>776.0000000000001</ele><time>2026-04-18T12:10:58Z</time></trkpt><trkpt lat="43.9915028345962" lon="7.766036726108628"><ele>776.0</ele><time>2026-04-18T12:10:59Z</time></trkpt><trkpt lat="43.99146531144903" lon="7.766135067958143"><ele>772.6666666666667</ele><time>2026-04-18T12:11:00Z</time></trkpt><trkpt lat="43.99142936981604" lon="7.766228840331046"><ele>769.3333333333334</ele><time>2026-04-18T12:11:01Z</time></trkpt><trkpt lat="43.99139080109407" lon="7.766329466801885"><ele>766.0</ele><time>2026-04-18T12:11:02Z</time></trkpt><trkpt lat="43.99135262014126" lon="7.766429081583372"><ele>762.6666666666667</ele><time>2026-04-18T12:11:03Z</time></trkpt><trkpt lat="43.99132207278367" lon="7.766536709259151"><ele>759.3333333333334</ele><time>2026-04-18T12:11:04Z</time></trkpt><trkpt lat="43.99128447961736" lon="7.76664071261783"><ele>756.0</ele><time>2026-04-18T12:11:05Z</time></trkpt><trkpt lat="43.99124297090557" lon="7.766764215165114"><ele>759.1999999999999</ele><time>2026-04-18T12:11:06Z</time></trkpt><trkpt lat="43.99119647427554" lon="7.766881757449391"><ele>762.4</ele><time>2026-04-18T12:11:07Z</time></trkpt><trkpt lat="43.99115496487042" lon="7.767002845233871"><ele>765.6</ele><time>2026-04-18T12:11:08Z</time></trkpt><trkpt lat="43.991118147160456" lon="7.76712752942286"><ele>768.8</ele><time>2026-04-18T12:11:09Z</time></trkpt><trkpt lat="43.99106035033585" lon="7.7672332932020405"><ele>772.0</ele><time>2026-04-18T12:11:10Z</time></trkpt><trkpt lat="43.99097959597117" lon="7.767316791781091"><ele>772.0</ele><time>2026-04-18T12:11:11Z</time></trkpt><trkpt lat="43.99091249031082" lon="7.767428078045733"><ele>772.0</ele><time>2026-04-18T12:11:12Z</time></trkpt><trkpt lat="43.99083968060378" lon="7.767529614700409"><ele>772.0</ele><time>2026-04-18T12:11:13Z</time></trkpt><trkpt lat="43.99076700101354" lon="7.7676253501704275"><ele>772.0</ele><time>2026-04-18T12:11:14Z</time></trkpt><trkpt lat="43.99067527168265" lon="7.767720515390889"><ele>772.0</ele><time>2026-04-18T12:11:15Z</time></trkpt><trkpt lat="43.99060949691574" lon="7.767834505401598"><ele>764.4000000000001</ele><time>2026-04-18T12:11:16Z</time></trkpt><trkpt lat="43.99054698782574" lon="7.7679501443762975"><ele>756.8000000000001</ele><time>2026-04-18T12:11:17Z</time></trkpt><trkpt lat="43.99049254721209" lon="7.768061150992187"><ele>749.2</ele><time>2026-04-18T12:11:18Z</time></trkpt><trkpt lat="43.990437159600205" lon="7.768177693251553"><ele>741.6</ele><time>2026-04-18T12:11:19Z</time></trkpt><trkpt lat="43.99038372769192" lon="7.76828855428769"><ele>734.0</ele><time>2026-04-18T12:11:20Z</time></trkpt><trkpt lat="43.99033610581264" lon="7.7683999600375895"><ele>734.0</ele><time>2026-04-18T12:11:21Z</time></trkpt><trkpt lat="43.99029676530671" lon="7.768514121969369"><ele>734.0</ele><time>2026-04-18T12:11:22Z</time></trkpt><trkpt lat="43.99026901706725" lon="7.768630292024946"><ele>734.0</ele><time>2026-04-18T12:11:23Z</time></trkpt><trkpt lat="43.99025111374123" lon="7.768737418941862"><ele>734.0</ele><time>2026-04-18T12:11:24Z</time></trkpt><trkpt lat="43.9902867112146" lon="7.768836430013178"><ele>734.0</ele><time>2026-04-18T12:11:25Z</time></trkpt><trkpt lat="43.990360052563794" lon="7.768881115577741"><ele>734.0</ele><time>2026-04-18T12:11:26Z</time></trkpt><trkpt lat="43.99043483837598" lon="7.76890262676769"><ele>730.0</ele><time>2026-04-18T12:11:27Z</time></trkpt><trkpt lat="43.99053354878524" lon="7.768880019203738"><ele>726.0</ele><time>2026-04-18T12:11:28Z</time></trkpt><trkpt lat="43.990632238077865" lon="7.76885860002993"><ele>722.0</ele><time>2026-04-18T12:11:29Z</time></trkpt><trkpt lat="43.990730855202614" lon="7.768874478423745"><ele>718.0</ele><time>2026-04-18T12:11:30Z</time></trkpt><trkpt lat="43.99082841177018" lon="7.76885926323084"><ele>714.0</ele><time>2026-04-18T12:11:31Z</time></trkpt><trkpt lat="43.990931754194385" lon="7.768854409917582"><ele>714.0</ele><time>2026-04-18T12:11:32Z</time></trkpt><trkpt lat="43.99103216342367" lon="7.768861399560243"><ele>714.0</ele><time>2026-04-18T12:11:33Z</time></trkpt><trkpt lat="43.991128675450824" lon="7.768858359484047"><ele>714.0</ele><time>2026-04-18T12:11:33.999Z</time></trkpt><trkpt lat="43.99121440027355" lon="7.768893129853498"><ele>714.0</ele><time>2026-04-18T12:11:34.999Z</time></trkpt><trkpt lat="43.991291749420135" lon="7.7689552877623225"><ele>714.0</ele><time>2026-04-18T12:11:35.999Z</time></trkpt><trkpt lat="43.99137485371571" lon="7.769038969025371"><ele>714.0</ele><time>2026-04-18T12:11:36.999Z</time></trkpt><trkpt lat="43.99145920169782" lon="7.769115416442042"><ele>714.0</ele><time>2026-04-18T12:11:37.999Z</time></trkpt><trkpt lat="43.99155643397227" lon="7.769165358152312"><ele>714.0</ele><time>2026-04-18T12:11:38.999Z</time></trkpt><trkpt lat="43.99165616105692" lon="7.7691922714251715"><ele>714.0</ele><time>2026-04-18T12:11:39.999Z</time></trkpt><trkpt lat="43.99175036990197" lon="7.7692267531881205"><ele>714.0</ele><time>2026-04-18T12:11:40.999Z</time></trkpt><trkpt lat="43.99183037074261" lon="7.769300440360175"><ele>709.0</ele><time>2026-04-18T12:11:41.999Z</time></trkpt><trkpt lat="43.99189879243354" lon="7.769402651960549"><ele>704.0</ele><time>2026-04-18T12:11:42.999Z</time></trkpt><trkpt lat="43.99195884428207" lon="7.76951796029964"><ele>699.0</ele><time>2026-04-18T12:11:43.999Z</time></trkpt><trkpt lat="43.992019985312155" lon="7.769626907690567"><ele>694.0</ele><time>2026-04-18T12:11:44.999Z</time></trkpt><trkpt lat="43.992079978835996" lon="7.769730818384452"><ele>689.0</ele><time>2026-04-18T12:11:45.999Z</time></trkpt><trkpt lat="43.99213299695931" lon="7.769814265160628"><ele>689.0</ele><time>2026-04-18T12:11:46.999Z</time></trkpt><trkpt lat="43.992193198817944" lon="7.769870504653934"><ele>689.0</ele><time>2026-04-18T12:11:47.999Z</time></trkpt><trkpt lat="43.99232979877764" lon="7.76984551498459"><ele>689.0</ele><time>2026-04-18T12:11:49.999Z</time></trkpt><trkpt lat="43.99240576564045" lon="7.769767233490178"><ele>689.0</ele><time>2026-04-18T12:11:50.999Z</time></trkpt><trkpt lat="43.992492312003186" lon="7.769701892732882"><ele>689.0</ele><time>2026-04-18T12:11:51.999Z</time></trkpt><trkpt lat="43.992572126501564" lon="7.769607382102998"><ele>683.5</ele><time>2026-04-18T12:11:52.999Z</time></trkpt><trkpt lat="43.992647227407616" lon="7.769503307063002"><ele>678.0</ele><time>2026-04-18T12:11:53.999Z</time></trkpt><trkpt lat="43.99270792216225" lon="7.76937266380719"><ele>672.5</ele><time>2026-04-18T12:11:54.999Z</time></trkpt><trkpt lat="43.99275988908584" lon="7.769226702570665"><ele>667.0</ele><time>2026-04-18T12:11:55.999Z</time></trkpt><trkpt lat="43.99281072918384" lon="7.769078621177082"><ele>667.0</ele><time>2026-04-18T12:11:56.999Z</time></trkpt><trkpt lat="43.992863773225615" lon="7.7689408063072065"><ele>667.0</ele><time>2026-04-18T12:11:57.999Z</time></trkpt><trkpt lat="43.992916104505966" lon="7.768794985682361"><ele>667.0</ele><time>2026-04-18T12:11:58.999Z</time></trkpt><trkpt lat="43.992985251308" lon="7.768656355938865"><ele>667.0</ele><time>2026-04-18T12:11:59.999Z</time></trkpt><trkpt lat="43.993046040350045" lon="7.768515247865748"><ele>673.0</ele><time>2026-04-18T12:12:00.999Z</time></trkpt><trkpt lat="43.99312448689388" lon="7.768400379330762"><ele>679.0</ele><time>2026-04-18T12:12:01.999Z</time></trkpt><trkpt lat="43.993199772809916" lon="7.768275479077063"><ele>685.0</ele><time>2026-04-18T12:12:02.999Z</time></trkpt><trkpt lat="43.99325102013249" lon="7.768155236061536"><ele>691.0</ele><time>2026-04-18T12:12:03.999Z</time></trkpt><trkpt lat="43.9932962689219" lon="7.76804079105319"><ele>697.0</ele><time>2026-04-18T12:12:04.999Z</time></trkpt><trkpt lat="43.99333736392113" lon="7.767944959227727"><ele>690.4000000000001</ele><time>2026-04-18T12:12:05.999Z</time></trkpt><trkpt lat="43.99341842385172" lon="7.767868274957486"><ele>683.8000000000001</ele><time>2026-04-18T12:12:06.999Z</time></trkpt><trkpt lat="43.99351040954103" lon="7.767801819244385"><ele>677.2</ele><time>2026-04-18T12:12:07.999Z</time></trkpt><trkpt lat="43.993610877526976" lon="7.767766057006595"><ele>670.6</ele><time>2026-04-18T12:12:08.999Z</time></trkpt><trkpt lat="43.99371979892604" lon="7.767744453441554"><ele>664.0</ele><time>2026-04-18T12:12:09.999Z</time></trkpt><trkpt lat="43.993827955047564" lon="7.767716022135319"><ele>664.0</ele><time>2026-04-18T12:12:10.999Z</time></trkpt><trkpt lat="43.993912481734434" lon="7.767681576140554"><ele>664.0</ele><time>2026-04-18T12:12:11.999Z</time></trkpt><trkpt lat="43.993987865839266" lon="7.76765304606345"><ele>664.0</ele><time>2026-04-18T12:12:12.999Z</time></trkpt><trkpt lat="43.9940605772464" lon="7.767627993566321"><ele>664.0</ele><time>2026-04-18T12:12:13.999Z</time></trkpt><trkpt lat="43.99412880865927" lon="7.7677315756046665"><ele>664.0</ele><time>2026-04-18T12:12:14.999Z</time></trkpt><trkpt lat="43.99420140997666" lon="7.767839496957218"><ele>664.0</ele><time>2026-04-18T12:12:15.999Z</time></trkpt><trkpt lat="43.99430511850788" lon="7.7679200105230635"><ele>666.0</ele><time>2026-04-18T12:12:16.999Z</time></trkpt><trkpt lat="43.994417064321816" lon="7.767977361490877"><ele>668.0</ele><time>2026-04-18T12:12:17.999Z</time></trkpt><trkpt lat="43.99453032777743" lon="7.768011025876037"><ele>670.0</ele><time>2026-04-18T12:12:18.999Z</time></trkpt><trkpt lat="43.99464360146991" lon="7.768033221125668"><ele>672.0</ele><time>2026-04-18T12:12:19.999Z</time></trkpt><trkpt lat="43.99475479681295" lon="7.768074927693534"><ele>672.0</ele><time>2026-04-18T12:12:20.999Z</time></trkpt><trkpt lat="43.99485755828044" lon="7.768146895170945"><ele>672.0</ele><time>2026-04-18T12:12:21.999Z</time></trkpt><trkpt lat="43.994955577807794" lon="7.768226070748499"><ele>672.0</ele><time>2026-04-18T12:12:22.999Z</time></trkpt><trkpt lat="43.995054017385144" lon="7.768302769758355"><ele>672.0</ele><time>2026-04-18T12:12:23.999Z</time></trkpt><trkpt lat="43.99516808398253" lon="7.768353182045571"><ele>671.25</ele><time>2026-04-18T12:12:24.999Z</time></trkpt><trkpt lat="43.9952855741456" lon="7.768375846957827"><ele>670.5</ele><time>2026-04-18T12:12:25.999Z</time></trkpt><trkpt lat="43.99540629682713" lon="7.768370515529528"><ele>669.75</ele><time>2026-04-18T12:12:26.999Z</time></trkpt><trkpt lat="43.99552521519838" lon="7.768335063950076"><ele>669.0</ele><time>2026-04-18T12:12:27.999Z</time></trkpt><trkpt lat="43.99564159192186" lon="7.768288294518325"><ele>669.0</ele><time>2026-04-18T12:12:28.999Z</time></trkpt><trkpt lat="43.99576185337921" lon="7.768239024515422"><ele>669.0</ele><time>2026-04-18T12:12:29.999Z</time></trkpt><trkpt lat="43.995888558585726" lon="7.7681956824988445"><ele>669.0</ele><time>2026-04-18T12:12:30.999Z</time></trkpt><trkpt lat="43.99599506313325" lon="7.768088662306308"><ele>669.0</ele><time>2026-04-18T12:12:31.999Z</time></trkpt><trkpt lat="43.99608619784022" lon="7.767959037098072"><ele>669.75</ele><time>2026-04-18T12:12:32.999Z</time></trkpt><trkpt lat="43.99618697254642" lon="7.767862815217178"><ele>670.5</ele><time>2026-04-18T12:12:33.999Z</time></trkpt><trkpt lat="43.99629665591639" lon="7.767775532294117"><ele>671.25</ele><time>2026-04-18T12:12:34.999Z</time></trkpt><trkpt lat="43.99641613655973" lon="7.76771315783073"><ele>672.0</ele><time>2026-04-18T12:12:35.999Z</time></trkpt><trkpt lat="43.996540792409" lon="7.767659658250457"><ele>672.0</ele><time>2026-04-18T12:12:36.999Z</time></trkpt><trkpt lat="43.996662718534076" lon="7.7675894929983125"><ele>672.0</ele><time>2026-04-18T12:12:37.999Z</time></trkpt><trkpt lat="43.996779611697775" lon="7.767504852556108"><ele>672.0</ele><time>2026-04-18T12:12:38.999Z</time></trkpt><trkpt lat="43.99688710816569" lon="7.76742961254495"><ele>672.0</ele><time>2026-04-18T12:12:39.999Z</time></trkpt><trkpt lat="43.99699671459111" lon="7.767378610190816"><ele>665.75</ele><time>2026-04-18T12:12:40.999Z</time></trkpt><trkpt lat="43.997115481360574" lon="7.7673663253906975"><ele>659.5</ele><time>2026-04-18T12:12:41.999Z</time></trkpt><trkpt lat="43.99723482995453" lon="7.76738522181356"><ele>653.25</ele><time>2026-04-18T12:12:42.999Z</time></trkpt><trkpt lat="43.99735169643138" lon="7.7674102896651585"><ele>647.0</ele><time>2026-04-18T12:12:43.999Z</time></trkpt><trkpt lat="43.997459689066005" lon="7.767405390683959"><ele>641.25</ele><time>2026-04-18T12:12:44.999Z</time></trkpt><trkpt lat="43.997559121236876" lon="7.767352646387753"><ele>635.5</ele><time>2026-04-18T12:12:45.999Z</time></trkpt><trkpt lat="43.99765699930452" lon="7.7672683478284625"><ele>629.75</ele><time>2026-04-18T12:12:46.999Z</time></trkpt><trkpt lat="43.99775682720268" lon="7.767170321959786"><ele>624.0</ele><time>2026-04-18T12:12:47.999Z</time></trkpt><trkpt lat="43.99786682328111" lon="7.767074053509487"><ele>624.0</ele><time>2026-04-18T12:12:48.999Z</time></trkpt><trkpt lat="43.99798155299428" lon="7.766979234164113"><ele>624.0</ele><time>2026-04-18T12:12:49.999Z</time></trkpt><trkpt lat="43.998077619874024" lon="7.766865180263527"><ele>624.0</ele><time>2026-04-18T12:12:50.999Z</time></trkpt><trkpt lat="43.99816485359395" lon="7.766745599836502"><ele>624.0</ele><time>2026-04-18T12:12:51.999Z</time></trkpt><trkpt lat="43.99825719280532" lon="7.7666412361190025"><ele>627.3333333333334</ele><time>2026-04-18T12:12:52.999Z</time></trkpt><trkpt lat="43.99831926794574" lon="7.766514928829391"><ele>630.6666666666666</ele><time>2026-04-18T12:12:53.999Z</time></trkpt><trkpt lat="43.99836658144166" lon="7.766414574334903"><ele>634.0</ele><time>2026-04-18T12:12:54.999Z</time></trkpt><trkpt lat="43.99840854250326" lon="7.766333035284637"><ele>637.3333333333333</ele><time>2026-04-18T12:12:55.999Z</time></trkpt><trkpt lat="43.99845666187158" lon="7.766268304787724"><ele>640.6666666666666</ele><time>2026-04-18T12:12:56.999Z</time></trkpt><trkpt lat="43.998531078652604" lon="7.766272905326543"><ele>644.0</ele><time>2026-04-18T12:12:57.999Z</time></trkpt><trkpt lat="43.99860106615154" lon="7.766359595388313"><ele>644.0</ele><time>2026-04-18T12:12:58.999Z</time></trkpt><trkpt lat="43.998697793964915" lon="7.766434426220022"><ele>644.0</ele><time>2026-04-18T12:12:59.999Z</time></trkpt><trkpt lat="43.99879770021554" lon="7.766550474371918"><ele>644.0</ele><time>2026-04-18T12:13:00.999Z</time></trkpt><trkpt lat="43.998906434129886" lon="7.766658672199506"><ele>644.0</ele><time>2026-04-18T12:13:01.999Z</time></trkpt><trkpt lat="43.9990206523676" lon="7.766767808318892"><ele>644.0</ele><time>2026-04-18T12:13:02.999Z</time></trkpt><trkpt lat="43.99913730008368" lon="7.766844344593515"><ele>644.0</ele><time>2026-04-18T12:13:03.999Z</time></trkpt><trkpt lat="43.99925790043811" lon="7.766882720155002"><ele>644.0</ele><time>2026-04-18T12:13:04.999Z</time></trkpt><trkpt lat="43.99938401763884" lon="7.7668947114417275"><ele>644.0</ele><time>2026-04-18T12:13:05.999Z</time></trkpt><trkpt lat="43.99951671002956" lon="7.766915608798314"><ele>635.75</ele><time>2026-04-18T12:13:07Z</time></trkpt><trkpt lat="43.99963266019768" lon="7.766959461890774"><ele>627.5</ele><time>2026-04-18T12:13:08Z</time></trkpt><trkpt lat="43.99974862776572" lon="7.76701438414617"><ele>619.25</ele><time>2026-04-18T12:13:09Z</time></trkpt><trkpt lat="43.99987245641025" lon="7.767033673155169"><ele>611.0</ele><time>2026-04-18T12:13:10Z</time></trkpt><trkpt lat="43.99998795230743" lon="7.767009579803119"><ele>611.0</ele><time>2026-04-18T12:13:11Z</time></trkpt><trkpt lat="44.00010373726107" lon="7.766965946652743"><ele>611.0</ele><time>2026-04-18T12:13:12Z</time></trkpt><trkpt lat="44.000212931837915" lon="7.766889215009298"><ele>611.0</ele><time>2026-04-18T12:13:13Z</time></trkpt><trkpt lat="44.00033356698559" lon="7.766824207163711"><ele>611.0</ele><time>2026-04-18T12:13:14Z</time></trkpt><trkpt lat="44.00047877475906" lon="7.766834700483892"><ele>617.75</ele><time>2026-04-18T12:13:15Z</time></trkpt><trkpt lat="44.000618775121616" lon="7.7668337727122525"><ele>624.5</ele><time>2026-04-18T12:13:16Z</time></trkpt><trkpt lat="44.00075096370242" lon="7.766817867364629"><ele>631.25</ele><time>2026-04-18T12:13:17Z</time></trkpt><trkpt lat="44.000864090120494" lon="7.766816410123755"><ele>638.0</ele><time>2026-04-18T12:13:18Z</time></trkpt><trkpt lat="44.00096860597841" lon="7.766825544953684"><ele>638.0</ele><time>2026-04-18T12:13:19Z</time></trkpt><trkpt lat="44.00105641407133" lon="7.7667750643957465"><ele>638.0</ele><time>2026-04-18T12:13:20Z</time></trkpt><trkpt lat="44.001117551179824" lon="7.766686292215805"><ele>638.0</ele><time>2026-04-18T12:13:21Z</time></trkpt><trkpt lat="44.00118321263551" lon="7.766570963551041"><ele>638.0</ele><time>2026-04-18T12:13:23Z</time></trkpt><trkpt lat="44.001270158926616" lon="7.766631806437983"><ele>638.0</ele><time>2026-04-18T12:13:25Z</time></trkpt><trkpt lat="44.00123961724396" lon="7.766750251211577"><ele>638.0</ele><time>2026-04-18T12:13:26Z</time></trkpt><trkpt lat="44.001142256059765" lon="7.766806140598199"><ele>638.0</ele><time>2026-04-18T12:13:27Z</time></trkpt><trkpt lat="44.00105253959949" lon="7.766842438076426"><ele>638.0</ele><time>2026-04-18T12:13:28Z</time></trkpt><trkpt lat="44.00094295966002" lon="7.766875261861203"><ele>638.0</ele><time>2026-04-18T12:13:29Z</time></trkpt><trkpt lat="44.00082324558481" lon="7.766891574197754"><ele>638.0</ele><time>2026-04-18T12:13:30Z</time></trkpt><trkpt lat="44.000698642594784" lon="7.76690715563148"><ele>631.25</ele><time>2026-04-18T12:13:31Z</time></trkpt><trkpt lat="44.000568040315386" lon="7.766932971374419"><ele>624.5</ele><time>2026-04-18T12:13:32Z</time></trkpt><trkpt lat="44.00044631906863" lon="7.766985117153845"><ele>617.75</ele><time>2026-04-18T12:13:33Z</time></trkpt><trkpt lat="44.00032935240731" lon="7.767057326402517"><ele>611.0</ele><time>2026-04-18T12:13:34Z</time></trkpt><trkpt lat="44.00022051037718" lon="7.767148037404723"><ele>611.0</ele><time>2026-04-18T12:13:35Z</time></trkpt><trkpt lat="44.000105058613144" lon="7.7672557782640865"><ele>611.0</ele><time>2026-04-18T12:13:36Z</time></trkpt><trkpt lat="44.00000485378339" lon="7.76733809839561"><ele>611.0</ele><time>2026-04-18T12:13:37Z</time></trkpt><trkpt lat="43.99991403117344" lon="7.767407352246326"><ele>611.0</ele><time>2026-04-18T12:13:38Z</time></trkpt><trkpt lat="43.99983155837783" lon="7.7674733470659625"><ele>611.0000000000001</ele><time>2026-04-18T12:13:39Z</time></trkpt><trkpt lat="43.99975543492389" lon="7.7675220822126025"><ele>611.0</ele><time>2026-04-18T12:13:40Z</time></trkpt><trkpt lat="43.99968949830977" lon="7.767549248021512"><ele>611.0</ele><time>2026-04-18T12:13:41Z</time></trkpt><trkpt lat="43.99961994713708" lon="7.767510326308948"><ele>611.0</ele><time>2026-04-18T12:13:41.999Z</time></trkpt><trkpt lat="43.999550923580685" lon="7.76748865026247"><ele>611.0</ele><time>2026-04-18T12:13:42.999Z</time></trkpt><trkpt lat="43.99949973403802" lon="7.767407876567862"><ele>611.0000000000001</ele><time>2026-04-18T12:13:43.999Z</time></trkpt><trkpt lat="43.999447043442586" lon="7.767358155907729"><ele>611.0</ele><time>2026-04-18T12:13:44.999Z</time></trkpt><trkpt lat="43.99933747086394" lon="7.767376225054747"><ele>611.0</ele><time>2026-04-18T12:13:46.999Z</time></trkpt><trkpt lat="43.99931945287648" lon="7.767537401691236"><ele>611.0</ele><time>2026-04-18T12:13:48.999Z</time></trkpt><trkpt lat="43.99942278907953" lon="7.767649315491677"><ele>611.0</ele><time>2026-04-18T12:13:50.999Z</time></trkpt><trkpt lat="43.99951067408247" lon="7.767667708347708"><ele>611.0</ele><time>2026-04-18T12:13:51.999Z</time></trkpt><trkpt lat="43.99960597165772" lon="7.767672388120555"><ele>611.0</ele><time>2026-04-18T12:13:52.999Z</time></trkpt><trkpt lat="43.99972224704655" lon="7.767665926256036"><ele>611.0</ele><time>2026-04-18T12:13:53.999Z</time></trkpt><trkpt lat="43.99982514266287" lon="7.767615243302599"><ele>611.0</ele><time>2026-04-18T12:13:54.999Z</time></trkpt><trkpt lat="43.99994120050625" lon="7.7675865311086"><ele>611.0</ele><time>2026-04-18T12:13:55.999Z</time></trkpt><trkpt lat="44.00005961414206" lon="7.7675464612074165"><ele>611.0</ele><time>2026-04-18T12:13:56.999Z</time></trkpt><trkpt lat="44.00017649268923" lon="7.767495331742573"><ele>611.0</ele><time>2026-04-18T12:13:57.999Z</time></trkpt><trkpt lat="44.00029271087898" lon="7.767429006960239"><ele>611.0</ele><time>2026-04-18T12:13:58.999Z</time></trkpt><trkpt lat="44.000406379660994" lon="7.767367204857066"><ele>611.0</ele><time>2026-04-18T12:13:59.999Z</time></trkpt><trkpt lat="44.0005285261814" lon="7.767321609900297"><ele>611.0</ele><time>2026-04-18T12:14:00.999Z</time></trkpt><trkpt lat="44.00064647955331" lon="7.7672916920100015"><ele>611.0</ele><time>2026-04-18T12:14:01.999Z</time></trkpt><trkpt lat="44.00076822709301" lon="7.767272723902781"><ele>611.0</ele><time>2026-04-18T12:14:02.999Z</time></trkpt><trkpt lat="44.00088719796023" lon="7.767247420573479"><ele>611.0</ele><time>2026-04-18T12:14:03.999Z</time></trkpt><trkpt lat="44.00100537286722" lon="7.767222605790371"><ele>611.0</ele><time>2026-04-18T12:14:04.999Z</time></trkpt><trkpt lat="44.001126371272164" lon="7.767194606209188"><ele>606.75</ele><time>2026-04-18T12:14:05.999Z</time></trkpt><trkpt lat="44.001248608906195" lon="7.767160434271473"><ele>602.5</ele><time>2026-04-18T12:14:06.999Z</time></trkpt><trkpt lat="44.001368935546594" lon="7.767117542464491"><ele>598.25</ele><time>2026-04-18T12:14:07.999Z</time></trkpt><trkpt lat="44.00148830890601" lon="7.767092798759471"><ele>594.0</ele><time>2026-04-18T12:14:08.999Z</time></trkpt><trkpt lat="44.00160028632079" lon="7.76703561119495"><ele>590.6</ele><time>2026-04-18T12:14:09.999Z</time></trkpt><trkpt lat="44.00170787284243" lon="7.766979183611882"><ele>587.2</ele><time>2026-04-18T12:14:10.999Z</time></trkpt><trkpt lat="44.00180836447629" lon="7.766910301418536"><ele>583.8000000000001</ele><time>2026-04-18T12:14:11.999Z</time></trkpt><trkpt lat="44.001899852801564" lon="7.766823787333858"><ele>580.4</ele><time>2026-04-18T12:14:12.999Z</time></trkpt><trkpt lat="44.00199369284835" lon="7.7667549543215735"><ele>577.0</ele><time>2026-04-18T12:14:13.999Z</time></trkpt><trkpt lat="44.00209852896426" lon="7.76670697752534"><ele>580.0</ele><time>2026-04-18T12:14:14.999Z</time></trkpt><trkpt lat="44.00221112068012" lon="7.766673648186415"><ele>583.0</ele><time>2026-04-18T12:14:15.999Z</time></trkpt><trkpt lat="44.002324212942874" lon="7.7666516273575015"><ele>586.0</ele><time>2026-04-18T12:14:16.999Z</time></trkpt><trkpt lat="44.002429927207984" lon="7.766622586183349"><ele>589.0</ele><time>2026-04-18T12:14:17.999Z</time></trkpt><trkpt lat="44.00253062614833" lon="7.766557659810867"><ele>592.0</ele><time>2026-04-18T12:14:18.999Z</time></trkpt><trkpt lat="44.00262053234236" lon="7.766489481817115"><ele>592.0</ele><time>2026-04-18T12:14:19.999Z</time></trkpt><trkpt lat="44.002717708580185" lon="7.766436579512931"><ele>592.0</ele><time>2026-04-18T12:14:20.999Z</time></trkpt><trkpt lat="44.0028293621404" lon="7.766404155198534"><ele>592.0</ele><time>2026-04-18T12:14:21.999Z</time></trkpt><trkpt lat="44.00295109053514" lon="7.766390762033841"><ele>592.0</ele><time>2026-04-18T12:14:22.999Z</time></trkpt><trkpt lat="44.00306359210326" lon="7.766399269003925"><ele>592.0</ele><time>2026-04-18T12:14:23.999Z</time></trkpt><trkpt lat="44.00317066474286" lon="7.766413428690747"><ele>592.0</ele><time>2026-04-18T12:14:24.999Z</time></trkpt><trkpt lat="44.00327611805615" lon="7.766425693017307"><ele>592.0</ele><time>2026-04-18T12:14:25.999Z</time></trkpt><trkpt lat="44.003380683108745" lon="7.766459475612239"><ele>592.0</ele><time>2026-04-18T12:14:26.999Z</time></trkpt><trkpt lat="44.00348197637242" lon="7.7665196700610215"><ele>592.0</ele><time>2026-04-18T12:14:27.999Z</time></trkpt><trkpt lat="44.00357943399172" lon="7.766591603201448"><ele>589.6</ele><time>2026-04-18T12:14:28.999Z</time></trkpt><trkpt lat="44.00367570559794" lon="7.766673436741411"><ele>587.2</ele><time>2026-04-18T12:14:29.999Z</time></trkpt><trkpt lat="44.00378246296193" lon="7.766734181461166"><ele>584.8</ele><time>2026-04-18T12:14:30.999Z</time></trkpt><trkpt lat="44.00389070120602" lon="7.766757131617924"><ele>582.4</ele><time>2026-04-18T12:14:31.999Z</time></trkpt><trkpt lat="44.00399539826091" lon="7.766750517253147"><ele>580.0</ele><time>2026-04-18T12:14:32.999Z</time></trkpt><trkpt lat="44.004097618748915" lon="7.766696759824732"><ele>579.8</ele><time>2026-04-18T12:14:33.999Z</time></trkpt><trkpt lat="44.00418299158127" lon="7.766616074228864"><ele>579.6</ele><time>2026-04-18T12:14:34.999Z</time></trkpt><trkpt lat="44.00427449021521" lon="7.766556477795631"><ele>579.4</ele><time>2026-04-18T12:14:35.999Z</time></trkpt><trkpt lat="44.0043517153346" lon="7.766489263683578"><ele>579.2</ele><time>2026-04-18T12:14:36.999Z</time></trkpt><trkpt lat="44.0044233294524" lon="7.766432712289875"><ele>579.0</ele><time>2026-04-18T12:14:37.999Z</time></trkpt><trkpt lat="44.00449400269738" lon="7.766399813744985"><ele>579.0</ele><time>2026-04-18T12:14:38.999Z</time></trkpt><trkpt lat="44.00456838868104" lon="7.766432201604419"><ele>579.0</ele><time>2026-04-18T12:14:39.999Z</time></trkpt><trkpt lat="44.0046289657281" lon="7.766504528190856"><ele>579.0</ele><time>2026-04-18T12:14:40.999Z</time></trkpt><trkpt lat="44.00467650895466" lon="7.766611958908133"><ele>579.0</ele><time>2026-04-18T12:14:41.999Z</time></trkpt><trkpt lat="44.00471203195549" lon="7.766744908858168"><ele>579.0</ele><time>2026-04-18T12:14:42.999Z</time></trkpt><trkpt lat="44.00473322619373" lon="7.766869230421719"><ele>579.0</ele><time>2026-04-18T12:14:43.999Z</time></trkpt><trkpt lat="44.00474556043194" lon="7.766976348344177"><ele>578.8</ele><time>2026-04-18T12:14:44.999Z</time></trkpt><trkpt lat="44.004741206709795" lon="7.767071822324714"><ele>578.5999999999999</ele><time>2026-04-18T12:14:45.999Z</time></trkpt><trkpt lat="44.00464239293174" lon="7.767204740465806"><ele>578.4</ele><time>2026-04-18T12:14:47.999Z</time></trkpt><trkpt lat="44.004540463716964" lon="7.767249447732352"><ele>578.1999999999999</ele><time>2026-04-18T12:14:48.999Z</time></trkpt><trkpt lat="44.00442849427504" lon="7.767322471150138"><ele>578.0</ele><time>2026-04-18T12:14:49.999Z</time></trkpt><trkpt lat="44.00432030992684" lon="7.767407884170375"><ele>578.0</ele><time>2026-04-18T12:14:50.999Z</time></trkpt><trkpt lat="44.00419815154349" lon="7.767492263306944"><ele>578.0</ele><time>2026-04-18T12:14:51.999Z</time></trkpt><trkpt lat="44.004058163830734" lon="7.767550612463424"><ele>578.0</ele><time>2026-04-18T12:14:52.999Z</time></trkpt><trkpt lat="44.00390916157206" lon="7.767610514518578"><ele>578.0</ele><time>2026-04-18T12:14:53.999Z</time></trkpt><trkpt lat="44.00376505254718" lon="7.767675452111464"><ele>579.6666666666666</ele><time>2026-04-18T12:14:54.999Z</time></trkpt><trkpt lat="44.00362133873673" lon="7.767761940967028"><ele>581.3333333333334</ele><time>2026-04-18T12:14:55.999Z</time></trkpt><trkpt lat="44.00348369168254" lon="7.767858604080232"><ele>583.0</ele><time>2026-04-18T12:14:56.999Z</time></trkpt><trkpt lat="44.00335472057521" lon="7.767955675122621"><ele>578.0</ele><time>2026-04-18T12:14:57.999Z</time></trkpt><trkpt lat="44.003225476215825" lon="7.76803978752371"><ele>573.0</ele><time>2026-04-18T12:14:58.999Z</time></trkpt><trkpt lat="44.00309386832722" lon="7.768109083933272"><ele>568.0</ele><time>2026-04-18T12:14:59.999Z</time></trkpt><trkpt lat="44.00295261424821" lon="7.768161150130318"><ele>563.0</ele><time>2026-04-18T12:15:00.999Z</time></trkpt><trkpt lat="44.00281267431235" lon="7.768210109506954"><ele>563.0</ele><time>2026-04-18T12:15:02Z</time></trkpt><trkpt lat="44.00267282455249" lon="7.768264494566499"><ele>563.0</ele><time>2026-04-18T12:15:03Z</time></trkpt><trkpt lat="44.002534339820464" lon="7.768296590792052"><ele>563.0</ele><time>2026-04-18T12:15:04Z</time></trkpt><trkpt lat="44.002403293680516" lon="7.768345857835603"><ele>563.0</ele><time>2026-04-18T12:15:05Z</time></trkpt><trkpt lat="44.00227219153479" lon="7.768395145958243"><ele>563.0</ele><time>2026-04-18T12:15:06Z</time></trkpt><trkpt lat="44.002144640880886" lon="7.768443773787044"><ele>563.0</ele><time>2026-04-18T12:15:07Z</time></trkpt><trkpt lat="44.00201735809563" lon="7.768492624646738"><ele>563.0</ele><time>2026-04-18T12:15:08Z</time></trkpt><trkpt lat="44.00189680645481" lon="7.768540264176813"><ele>563.0</ele><time>2026-04-18T12:15:09Z</time></trkpt><trkpt lat="44.00178058249845" lon="7.768586193516313"><ele>563.0</ele><time>2026-04-18T12:15:10Z</time></trkpt><trkpt lat="44.00168371827287" lon="7.768655921999189"><ele>563.0</ele><time>2026-04-18T12:15:11Z</time></trkpt><trkpt lat="44.001592259059514" lon="7.7686850796866755"><ele>563.0</ele><time>2026-04-18T12:15:12Z</time></trkpt><trkpt lat="44.00153911858788" lon="7.768793530066275"><ele>563.0</ele><time>2026-04-18T12:15:13Z</time></trkpt><trkpt lat="44.0014991386835" lon="7.768909410539845"><ele>563.0</ele><time>2026-04-18T12:15:14Z</time></trkpt><trkpt lat="44.00144436616378" lon="7.769029555067174"><ele>563.4</ele><time>2026-04-18T12:15:15Z</time></trkpt><trkpt lat="44.00139072095816" lon="7.769164261526462"><ele>563.8</ele><time>2026-04-18T12:15:16Z</time></trkpt><trkpt lat="44.00133279756692" lon="7.769296495769627"><ele>564.2</ele><time>2026-04-18T12:15:17Z</time></trkpt><trkpt lat="44.00127166095908" lon="7.76941702201895"><ele>564.6</ele><time>2026-04-18T12:15:18Z</time></trkpt><trkpt lat="44.00121409894496" lon="7.769521497325081"><ele>565.0</ele><time>2026-04-18T12:15:19Z</time></trkpt><trkpt lat="44.00115419354543" lon="7.769607321765449"><ele>565.0</ele><time>2026-04-18T12:15:20Z</time></trkpt><trkpt lat="44.001081295260995" lon="7.769669750982682"><ele>565.0</ele><time>2026-04-18T12:15:21Z</time></trkpt><trkpt lat="44.000997986204204" lon="7.769698928425201"><ele>565.0</ele><time>2026-04-18T12:15:22Z</time></trkpt><trkpt lat="44.000914676489224" lon="7.7696594360208655"><ele>565.0</ele><time>2026-04-18T12:15:23Z</time></trkpt><trkpt lat="44.000818516689606" lon="7.769663421396558"><ele>565.0</ele><time>2026-04-18T12:15:24Z</time></trkpt><trkpt lat="44.000722603455245" lon="7.769691949596949"><ele>561.6</ele><time>2026-04-18T12:15:25Z</time></trkpt><trkpt lat="44.000626095057726" lon="7.769767305861859"><ele>558.2</ele><time>2026-04-18T12:15:26Z</time></trkpt><trkpt lat="44.00053014749145" lon="7.7698385759368165"><ele>554.8</ele><time>2026-04-18T12:15:27Z</time></trkpt><trkpt lat="44.000430635340635" lon="7.769914328781842"><ele>551.4</ele><time>2026-04-18T12:15:28Z</time></trkpt><trkpt lat="44.0003339307145" lon="7.769989142753585"><ele>548.0</ele><time>2026-04-18T12:15:29Z</time></trkpt><trkpt lat="44.00024120604752" lon="7.7700608777096685"><ele>548.0</ele><time>2026-04-18T12:15:30Z</time></trkpt><trkpt lat="44.00015441159558" lon="7.770132801869187"><ele>548.0</ele><time>2026-04-18T12:15:31Z</time></trkpt><trkpt lat="44.00005005243435" lon="7.770140636298404"><ele>548.0</ele><time>2026-04-18T12:15:32Z</time></trkpt><trkpt lat="43.999945176029506" lon="7.770132187209404"><ele>548.0</ele><time>2026-04-18T12:15:33Z</time></trkpt><trkpt lat="43.9998274743317" lon="7.770108062365512"><ele>548.0</ele><time>2026-04-18T12:15:34Z</time></trkpt><trkpt lat="43.999701193752294" lon="7.770078708594464"><ele>548.0</ele><time>2026-04-18T12:15:35Z</time></trkpt><trkpt lat="43.99956800379221" lon="7.770059540408229"><ele>548.0</ele><time>2026-04-18T12:15:36Z</time></trkpt><trkpt lat="43.999434273634805" lon="7.770053836009601"><ele>548.0</ele><time>2026-04-18T12:15:37Z</time></trkpt><trkpt lat="43.999295508045115" lon="7.770073406721623"><ele>548.0</ele><time>2026-04-18T12:15:38Z</time></trkpt><trkpt lat="43.9991534041336" lon="7.770077224192221"><ele>547.6666666666666</ele><time>2026-04-18T12:15:39Z</time></trkpt><trkpt lat="43.99899928453329" lon="7.770082590797878"><ele>547.3333333333334</ele><time>2026-04-18T12:15:40Z</time></trkpt><trkpt lat="43.998844698244646" lon="7.770088514059049"><ele>547.0</ele><time>2026-04-18T12:15:41Z</time></trkpt><trkpt lat="43.99869963156988" lon="7.7700943683656885"><ele>547.0</ele><time>2026-04-18T12:15:42Z</time></trkpt><trkpt lat="43.99855485608299" lon="7.770097282381507"><ele>547.0</ele><time>2026-04-18T12:15:43Z</time></trkpt><trkpt lat="43.99842160067395" lon="7.770108789208928"><ele>547.0</ele><time>2026-04-18T12:15:44Z</time></trkpt><trkpt lat="43.99828391108382" lon="7.770095284371114"><ele>547.0</ele><time>2026-04-18T12:15:45Z</time></trkpt><trkpt lat="43.99816185585577" lon="7.770134935241423"><ele>545.5</ele><time>2026-04-18T12:15:46Z</time></trkpt><trkpt lat="43.99804309010177" lon="7.77013838142976"><ele>544.0</ele><time>2026-04-18T12:15:47Z</time></trkpt><trkpt lat="43.99792845673831" lon="7.770191955228051"><ele>542.5</ele><time>2026-04-18T12:15:48Z</time></trkpt><trkpt lat="43.99781979069229" lon="7.770298454782971"><ele>541.0</ele><time>2026-04-18T12:15:49Z</time></trkpt><trkpt lat="43.99771697281768" lon="7.770400194178875"><ele>543.25</ele><time>2026-04-18T12:15:50Z</time></trkpt><trkpt lat="43.99760173987617" lon="7.770465240354301"><ele>545.5</ele><time>2026-04-18T12:15:51Z</time></trkpt><trkpt lat="43.99748636757079" lon="7.770497141910278"><ele>547.75</ele><time>2026-04-18T12:15:52Z</time></trkpt><trkpt lat="43.99738322550814" lon="7.770522912346625"><ele>550.0</ele><time>2026-04-18T12:15:53Z</time></trkpt><trkpt lat="43.99727259690661" lon="7.770534792194494"><ele>550.0</ele><time>2026-04-18T12:15:54Z</time></trkpt><trkpt lat="43.99716562933261" lon="7.770560824657897"><ele>550.0</ele><time>2026-04-18T12:15:55Z</time></trkpt><trkpt lat="43.99706415820737" lon="7.770623979345241"><ele>550.0</ele><time>2026-04-18T12:15:56Z</time></trkpt><trkpt lat="43.9969792669753" lon="7.770730486869083"><ele>550.0</ele><time>2026-04-18T12:15:57Z</time></trkpt><trkpt lat="43.99690043182984" lon="7.770832272345853"><ele>550.0</ele><time>2026-04-18T12:15:58Z</time></trkpt><trkpt lat="43.996825610202535" lon="7.770927215629655"><ele>550.0</ele><time>2026-04-18T12:15:59Z</time></trkpt><trkpt lat="43.9967520803563" lon="7.770985413153834"><ele>550.0</ele><time>2026-04-18T12:16:00Z</time></trkpt><trkpt lat="43.9966752150598" lon="7.7710296438803885"><ele>550.0</ele><time>2026-04-18T12:16:01Z</time></trkpt><trkpt lat="43.996601951124205" lon="7.7710790261482705"><ele>550.0</ele><time>2026-04-18T12:16:02Z</time></trkpt><trkpt lat="43.99653527407433" lon="7.771195191191425"><ele>550.0</ele><time>2026-04-18T12:16:03Z</time></trkpt><trkpt lat="43.9964843702051" lon="7.771324758370965"><ele>548.25</ele><time>2026-04-18T12:16:04Z</time></trkpt><trkpt lat="43.99641177055051" lon="7.771444693356929"><ele>546.5</ele><time>2026-04-18T12:16:05Z</time></trkpt><trkpt lat="43.996323034586254" lon="7.771547236509391"><ele>544.75</ele><time>2026-04-18T12:16:06Z</time></trkpt><trkpt lat="43.99622160415723" lon="7.771641920295314"><ele>543.0</ele><time>2026-04-18T12:16:07Z</time></trkpt><trkpt lat="43.99611567642445" lon="7.771741521086473"><ele>543.0</ele><time>2026-04-18T12:16:08Z</time></trkpt><trkpt lat="43.99601548049725" lon="7.771834067460117"><ele>543.0</ele><time>2026-04-18T12:16:09Z</time></trkpt><trkpt lat="43.99592029343469" lon="7.771939573442183"><ele>543.0</ele><time>2026-04-18T12:16:10Z</time></trkpt><trkpt lat="43.99583592903955" lon="7.772048601231168"><ele>543.0</ele><time>2026-04-18T12:16:11Z</time></trkpt><trkpt lat="43.99577840490325" lon="7.7721894083426335"><ele>540.5</ele><time>2026-04-18T12:16:12Z</time></trkpt><trkpt lat="43.99569162328673" lon="7.772292324071969"><ele>538.0</ele><time>2026-04-18T12:16:13Z</time></trkpt><trkpt lat="43.99558124511352" lon="7.772334725048994"><ele>535.5</ele><time>2026-04-18T12:16:14Z</time></trkpt><trkpt lat="43.995465393271374" lon="7.772362862956384"><ele>533.0</ele><time>2026-04-18T12:16:15Z</time></trkpt><trkpt lat="43.99533983414887" lon="7.772401101984458"><ele>533.0</ele><time>2026-04-18T12:16:16Z</time></trkpt><trkpt lat="43.9952091674644" lon="7.772450240994281"><ele>533.0</ele><time>2026-04-18T12:16:17Z</time></trkpt><trkpt lat="43.995074534780144" lon="7.77250093775363"><ele>533.0</ele><time>2026-04-18T12:16:17.999Z</time></trkpt><trkpt lat="43.99493833089548" lon="7.772552319380666"><ele>533.0</ele><time>2026-04-18T12:16:18.999Z</time></trkpt><trkpt lat="43.99480832959943" lon="7.772594696666881"><ele>528.5</ele><time>2026-04-18T12:16:19.999Z</time></trkpt><trkpt lat="43.99468378127703" lon="7.7726297288944775"><ele>524.0</ele><time>2026-04-18T12:16:20.999Z</time></trkpt><trkpt lat="43.99455842374625" lon="7.7726639912911635"><ele>519.5</ele><time>2026-04-18T12:16:21.999Z</time></trkpt><trkpt lat="43.994440536966316" lon="7.772716376297518"><ele>515.0</ele><time>2026-04-18T12:16:22.999Z</time></trkpt><trkpt lat="43.99433679222342" lon="7.772818476975384"><ele>514.0</ele><time>2026-04-18T12:16:23.999Z</time></trkpt><trkpt lat="43.99424233020981" lon="7.772950771647079"><ele>513.0</ele><time>2026-04-18T12:16:24.999Z</time></trkpt><trkpt lat="43.99415055444677" lon="7.773101371518131"><ele>512.0</ele><time>2026-04-18T12:16:25.999Z</time></trkpt><trkpt lat="43.99406317528337" lon="7.773266164533531"><ele>511.0</ele><time>2026-04-18T12:16:26.999Z</time></trkpt><trkpt lat="43.99398128483377" lon="7.773439749691454"><ele>516.5</ele><time>2026-04-18T12:16:27.999Z</time></trkpt><trkpt lat="43.993915196367254" lon="7.7736108076949435"><ele>522.0</ele><time>2026-04-18T12:16:28.999Z</time></trkpt><trkpt lat="43.99385168788834" lon="7.773775674195032"><ele>527.5</ele><time>2026-04-18T12:16:29.999Z</time></trkpt><trkpt lat="43.9937713209688" lon="7.773922170490729"><ele>533.0</ele><time>2026-04-18T12:16:30.999Z</time></trkpt><trkpt lat="43.99367702525726" lon="7.774048535100207"><ele>533.0</ele><time>2026-04-18T12:16:31.999Z</time></trkpt><trkpt lat="43.99358062240601" lon="7.774144623449958"><ele>533.0</ele><time>2026-04-18T12:16:32.999Z</time></trkpt><trkpt lat="43.993480848038374" lon="7.774221129679502"><ele>533.0</ele><time>2026-04-18T12:16:33.999Z</time></trkpt><trkpt lat="43.993373926917755" lon="7.774289465877615"><ele>533.0</ele><time>2026-04-18T12:16:34.999Z</time></trkpt><trkpt lat="43.99327107312864" lon="7.774357846923212"><ele>527.8</ele><time>2026-04-18T12:16:35.999Z</time></trkpt><trkpt lat="43.99317545948649" lon="7.7744258166067866"><ele>522.5999999999999</ele><time>2026-04-18T12:16:36.999Z</time></trkpt><trkpt lat="43.993080309474486" lon="7.774499895897548"><ele>517.4000000000001</ele><time>2026-04-18T12:16:37.999Z</time></trkpt><trkpt lat="43.99298108680198" lon="7.774556873055751"><ele>512.2</ele><time>2026-04-18T12:16:38.999Z</time></trkpt><trkpt lat="43.99287744354809" lon="7.774590844793067"><ele>507.0</ele><time>2026-04-18T12:16:39.999Z</time></trkpt><trkpt lat="43.992780942932896" lon="7.774565215910771"><ele>507.0</ele><time>2026-04-18T12:16:40.999Z</time></trkpt><trkpt lat="43.99269292734682" lon="7.774520842787535"><ele>507.00000000000006</ele><time>2026-04-18T12:16:41.999Z</time></trkpt><trkpt lat="43.99261533849767" lon="7.7744809274540625"><ele>507.00000000000006</ele><time>2026-04-18T12:16:42.999Z</time></trkpt><trkpt lat="43.992548039979795" lon="7.774450371668722"><ele>507.0</ele><time>2026-04-18T12:16:43.999Z</time></trkpt><trkpt lat="43.9924823067506" lon="7.774448152015157"><ele>507.0</ele><time>2026-04-18T12:16:44.999Z</time></trkpt><trkpt lat="43.9923978455165" lon="7.774660139322172"><ele>504.0</ele><time>2026-04-18T12:16:46.999Z</time></trkpt><trkpt lat="43.992355928503876" lon="7.774786503567396"><ele>501.00000000000006</ele><time>2026-04-18T12:16:47.999Z</time></trkpt><trkpt lat="43.9923055278159" lon="7.774900019480352"><ele>498.00000000000006</ele><time>2026-04-18T12:16:48.999Z</time></trkpt><trkpt lat="43.99224443650099" lon="7.775013519388928"><ele>495.0</ele><time>2026-04-18T12:16:49.999Z</time></trkpt><trkpt lat="43.99217974069365" lon="7.775120238716521"><ele>492.0</ele><time>2026-04-18T12:16:50.999Z</time></trkpt><trkpt lat="43.99212098350877" lon="7.775217413613033"><ele>489.5</ele><time>2026-04-18T12:16:51.999Z</time></trkpt><trkpt lat="43.99208162741882" lon="7.775303439381084"><ele>487.0</ele><time>2026-04-18T12:16:52.999Z</time></trkpt><trkpt lat="43.992055492616366" lon="7.775393229803687"><ele>484.5</ele><time>2026-04-18T12:16:53.999Z</time></trkpt><trkpt lat="43.992001754344045" lon="7.77546651531998"><ele>482.0</ele><time>2026-04-18T12:16:54.999Z</time></trkpt><trkpt lat="43.99197290933099" lon="7.775553798437676"><ele>479.5</ele><time>2026-04-18T12:16:55.999Z</time></trkpt><trkpt lat="43.99192879049822" lon="7.775619998290155"><ele>477.0</ele><time>2026-04-18T12:16:56.999Z</time></trkpt><trkpt lat="43.99182586133625" lon="7.775712084393222"><ele>477.0</ele><time>2026-04-18T12:16:58.999Z</time></trkpt><trkpt lat="43.99175700732378" lon="7.775724438951698"><ele>477.0</ele><time>2026-04-18T12:16:59.999Z</time></trkpt><trkpt lat="43.99163808575631" lon="7.775776979077607"><ele>477.0</ele><time>2026-04-18T12:17:01.999Z</time></trkpt><trkpt lat="43.99157000581243" lon="7.775802027312093"><ele>477.0</ele><time>2026-04-18T12:17:02.999Z</time></trkpt><trkpt lat="43.99149613150853" lon="7.77582772923683"><ele>477.0</ele><time>2026-04-18T12:17:03.999Z</time></trkpt><trkpt lat="43.991420793449755" lon="7.775826083559209"><ele>477.0</ele><time>2026-04-18T12:17:04.999Z</time></trkpt><trkpt lat="43.99133781006253" lon="7.77582262038125"><ele>477.3333333333333</ele><time>2026-04-18T12:17:05.999Z</time></trkpt><trkpt lat="43.99124849020746" lon="7.77581521471022"><ele>477.66666666666663</ele><time>2026-04-18T12:17:06.999Z</time></trkpt><trkpt lat="43.99115660183554" lon="7.77580848196417"><ele>478.0</ele><time>2026-04-18T12:17:08Z</time></trkpt><trkpt lat="43.9910717107541" lon="7.775804090944483"><ele>478.3333333333333</ele><time>2026-04-18T12:17:09Z</time></trkpt><trkpt lat="43.99098604179604" lon="7.7757978890569746"><ele>478.66666666666663</ele><time>2026-04-18T12:17:10Z</time></trkpt><trkpt lat="43.99091195026688" lon="7.775789905460027"><ele>479.0</ele><time>2026-04-18T12:17:11Z</time></trkpt><trkpt lat="43.990845582833416" lon="7.775778597076755"><ele>480.2</ele><time>2026-04-18T12:17:12Z</time></trkpt><trkpt lat="43.990756727828" lon="7.775692942058944"><ele>481.4</ele><time>2026-04-18T12:17:14Z</time></trkpt><trkpt lat="43.990687098961835" lon="7.775562352569418"><ele>482.6</ele><time>2026-04-18T12:17:16Z</time></trkpt><trkpt lat="43.99064060518406" lon="7.775495058827863"><ele>483.8</ele><time>2026-04-18T12:17:17Z</time></trkpt><trkpt lat="43.99058538469119" lon="7.775347082904818"><ele>485.0</ele><time>2026-04-18T12:17:19Z</time></trkpt><trkpt lat="43.99053692824345" lon="7.775235684784765"><ele>484.6</ele><time>2026-04-18T12:17:21Z</time></trkpt><trkpt lat="43.99048850617035" lon="7.775121853424297"><ele>484.2</ele><time>2026-04-18T12:17:23Z</time></trkpt><trkpt lat="43.99044729023031" lon="7.774989858446554"><ele>483.79999999999995</ele><time>2026-04-18T12:17:25Z</time></trkpt><trkpt lat="43.990407210178155" lon="7.774852907136274"><ele>483.4</ele><time>2026-04-18T12:17:27Z</time></trkpt><trkpt lat="43.99036842981438" lon="7.7747303707579105"><ele>483.0</ele><time>2026-04-18T12:17:29Z</time></trkpt><trkpt lat="43.99032627374207" lon="7.774610819746491"><ele>483.0</ele><time>2026-04-18T12:17:31Z</time></trkpt><trkpt lat="43.990260800679685" lon="7.774478716174352"><ele>482.99999999999994</ele><time>2026-04-18T12:17:33Z</time></trkpt><trkpt lat="43.99013015083962" lon="7.774450730397713"><ele>482.99999999999994</ele><time>2026-04-18T12:17:35Z</time></trkpt><trkpt lat="43.99007368524502" lon="7.774508526668358"><ele>483.0</ele><time>2026-04-18T12:17:36Z</time></trkpt><trkpt lat="43.98998699595467" lon="7.7745759453519865"><ele>483.0</ele><time>2026-04-18T12:17:38Z</time></trkpt><trkpt lat="43.989914398126615" lon="7.774616154736527"><ele>481.6666666666667</ele><time>2026-04-18T12:17:40Z</time></trkpt><trkpt lat="43.989837832252924" lon="7.774643013942742"><ele>480.33333333333337</ele><time>2026-04-18T12:17:42Z</time></trkpt><trkpt lat="43.989754104293894" lon="7.774621483198504"><ele>479.0</ele><time>2026-04-18T12:17:44Z</time></trkpt><trkpt lat="43.9896631885637" lon="7.774587852931946"><ele>477.6666666666667</ele><time>2026-04-18T12:17:46Z</time></trkpt><trkpt lat="43.98958218125639" lon="7.77459626033549"><ele>476.33333333333337</ele><time>2026-04-18T12:17:48Z</time></trkpt><trkpt lat="43.989508140308516" lon="7.774679892726257"><ele>475.0</ele><time>2026-04-18T12:17:50Z</time></trkpt><trkpt lat="43.98948574854305" lon="7.774789227517954"><ele>475.0</ele><time>2026-04-18T12:17:51Z</time></trkpt><trkpt lat="43.98948047209506" lon="7.774882159591935"><ele>475.0</ele><time>2026-04-18T12:17:52Z</time></trkpt><trkpt lat="43.989482251354865" lon="7.775060826445404"><ele>475.0</ele><time>2026-04-18T12:17:54Z</time></trkpt><trkpt lat="43.98946010761176" lon="7.775190742248764"><ele>475.0</ele><time>2026-04-18T12:17:56Z</time></trkpt><trkpt lat="43.989399445936606" lon="7.775312532409442"><ele>475.0</ele><time>2026-04-18T12:17:58Z</time></trkpt><trkpt lat="43.98933049375735" lon="7.7754550179497794"><ele>474.00000000000006</ele><time>2026-04-18T12:18:00Z</time></trkpt><trkpt lat="43.9892937611342" lon="7.7755309549252"><ele>473.0</ele><time>2026-04-18T12:18:01Z</time></trkpt><trkpt lat="43.989237525375316" lon="7.775688664697325"><ele>472.0</ele><time>2026-04-18T12:18:03Z</time></trkpt><trkpt lat="43.9891920867815" lon="7.775752252029328"><ele>471.0</ele><time>2026-04-18T12:18:04Z</time></trkpt><trkpt lat="43.98914352589336" lon="7.7758204240060715"><ele>470.00000000000006</ele><time>2026-04-18T12:18:05Z</time></trkpt><trkpt lat="43.98908969761982" lon="7.77588565094629"><ele>469.0</ele><time>2026-04-18T12:18:06Z</time></trkpt><trkpt lat="43.98905242286939" lon="7.775966598286846"><ele>474.33333333333337</ele><time>2026-04-18T12:18:07Z</time></trkpt><trkpt lat="43.98899992300746" lon="7.7760378211907115"><ele>479.6666666666667</ele><time>2026-04-18T12:18:08Z</time></trkpt><trkpt lat="43.98895441287677" lon="7.776112442440492"><ele>485.0</ele><time>2026-04-18T12:18:09Z</time></trkpt><trkpt lat="43.988894129911664" lon="7.776186443924851"><ele>490.33333333333337</ele><time>2026-04-18T12:18:10Z</time></trkpt><trkpt lat="43.988829442936115" lon="7.776265221508862"><ele>495.6666666666667</ele><time>2026-04-18T12:18:11Z</time></trkpt><trkpt lat="43.988759616131894" lon="7.776329383733829"><ele>501.0</ele><time>2026-04-18T12:18:12Z</time></trkpt><trkpt lat="43.98868088259075" lon="7.776382451663839"><ele>501.0</ele><time>2026-04-18T12:18:13Z</time></trkpt><trkpt lat="43.98860102515209" lon="7.776434419933437"><ele>501.0</ele><time>2026-04-18T12:18:14Z</time></trkpt><trkpt lat="43.98853351352616" lon="7.776494832364656"><ele>501.0</ele><time>2026-04-18T12:18:15Z</time></trkpt><trkpt lat="43.98844950238427" lon="7.776524360852021"><ele>501.0</ele><time>2026-04-18T12:18:16Z</time></trkpt><trkpt lat="43.98837493111576" lon="7.77656318318601"><ele>501.0</ele><time>2026-04-18T12:18:17Z</time></trkpt><trkpt lat="43.98829908155522" lon="7.776592835726466"><ele>501.0</ele><time>2026-04-18T12:18:18Z</time></trkpt><trkpt lat="43.98822955719818" lon="7.77660908116656"><ele>494.8333333333333</ele><time>2026-04-18T12:18:19Z</time></trkpt><trkpt lat="43.9881599079829" lon="7.776627985926836"><ele>488.66666666666663</ele><time>2026-04-18T12:18:20Z</time></trkpt><trkpt lat="43.988087587064754" lon="7.776653502928078"><ele>482.5</ele><time>2026-04-18T12:18:21Z</time></trkpt><trkpt lat="43.988017889026665" lon="7.776689141750439"><ele>476.3333333333333</ele><time>2026-04-18T12:18:22Z</time></trkpt><trkpt lat="43.98794333988636" lon="7.776737610112888"><ele>470.16666666666663</ele><time>2026-04-18T12:18:23Z</time></trkpt><trkpt lat="43.98787321689926" lon="7.776809642423943"><ele>464.0</ele><time>2026-04-18T12:18:24Z</time></trkpt><trkpt lat="43.98780163495063" lon="7.7768399222369355"><ele>465.8333333333333</ele><time>2026-04-18T12:18:25Z</time></trkpt><trkpt lat="43.987703769490246" lon="7.776916044977272"><ele>467.66666666666663</ele><time>2026-04-18T12:18:27Z</time></trkpt><trkpt lat="43.98763547868904" lon="7.776972440033348"><ele>469.5</ele><time>2026-04-18T12:18:30Z</time></trkpt><trkpt lat="43.987560357441566" lon="7.777001242591818"><ele>471.33333333333337</ele><time>2026-04-18T12:18:36Z</time></trkpt><trkpt lat="43.98748478005029" lon="7.777021691087753"><ele>473.1666666666667</ele><time>2026-04-18T12:19:02.999Z</time></trkpt><trkpt lat="43.98743746832927" lon="7.777087439120232"><ele>475.0</ele><time>2026-04-18T12:19:08.999Z</time></trkpt><trkpt lat="43.987465256073975" lon="7.777225957527303"><ele>475.0</ele><time>2026-04-18T12:19:24Z</time></trkpt><trkpt lat="43.98744065611187" lon="7.777069984468632"><ele>475.0</ele><time>2026-04-18T12:19:36Z</time></trkpt><trkpt lat="43.98748468228549" lon="7.7772362142756055"><ele>475.0</ele><time>2026-04-18T12:19:41Z</time></trkpt><trkpt lat="43.987460013299746" lon="7.7770592207731815"><ele>475.0</ele><time>2026-04-18T12:20:23Z</time></trkpt><trkpt lat="43.98740432392898" lon="7.7771127746507585"><ele>475.0</ele><time>2026-04-18T12:20:25Z</time></trkpt><trkpt lat="43.987313250879765" lon="7.777206679924853"><ele>475.00000000000006</ele><time>2026-04-18T12:20:27Z</time></trkpt><trkpt lat="43.987253396455266" lon="7.77724388334214"><ele>475.0</ele><time>2026-04-18T12:20:28Z</time></trkpt><trkpt lat="43.987158490320624" lon="7.777320460090326"><ele>475.0</ele><time>2026-04-18T12:20:30Z</time></trkpt><trkpt lat="43.987070107343925" lon="7.777413938171589"><ele>475.0</ele><time>2026-04-18T12:20:32Z</time></trkpt><trkpt lat="43.98701239496606" lon="7.7774686108118285"><ele>475.00000000000006</ele><time>2026-04-18T12:20:33Z</time></trkpt><trkpt lat="43.986949333877014" lon="7.777526193591102"><ele>475.0</ele><time>2026-04-18T12:20:34Z</time></trkpt><trkpt lat="43.986881455299105" lon="7.7775916473499604"><ele>475.0</ele><time>2026-04-18T12:20:35Z</time></trkpt><trkpt lat="43.98680437435364" lon="7.777660741754406"><ele>475.0</ele><time>2026-04-18T12:20:36Z</time></trkpt><trkpt lat="43.98672544574117" lon="7.777720798966973"><ele>475.0</ele><time>2026-04-18T12:20:37Z</time></trkpt><trkpt lat="43.98664701365617" lon="7.77778389632796"><ele>475.0</ele><time>2026-04-18T12:20:38Z</time></trkpt><trkpt lat="43.98657649626793" lon="7.777858778395777"><ele>475.0</ele><time>2026-04-18T12:20:39Z</time></trkpt><trkpt lat="43.98649610655491" lon="7.777935644232689"><ele>474.6</ele><time>2026-04-18T12:20:40Z</time></trkpt><trkpt lat="43.98641744794234" lon="7.778013519908338"><ele>474.2</ele><time>2026-04-18T12:20:41Z</time></trkpt><trkpt lat="43.98634485730476" lon="7.778096518487294"><ele>473.79999999999995</ele><time>2026-04-18T12:20:42Z</time></trkpt><trkpt lat="43.98627135113895" lon="7.778185031098891"><ele>473.4</ele><time>2026-04-18T12:20:43Z</time></trkpt><trkpt lat="43.98620501152168" lon="7.778282976551605"><ele>473.0</ele><time>2026-04-18T12:20:44Z</time></trkpt><trkpt lat="43.986142172434484" lon="7.778392656734144"><ele>473.0</ele><time>2026-04-18T12:20:45Z</time></trkpt><trkpt lat="43.98609215512331" lon="7.77850493150711"><ele>472.99999999999994</ele><time>2026-04-18T12:20:46Z</time></trkpt><trkpt lat="43.98603210188143" lon="7.778625275591796"><ele>472.99999999999994</ele><time>2026-04-18T12:20:47Z</time></trkpt><trkpt lat="43.98598222486138" lon="7.778745964042698"><ele>473.0</ele><time>2026-04-18T12:20:48Z</time></trkpt><trkpt lat="43.985926949677406" lon="7.778863118180717"><ele>473.0</ele><time>2026-04-18T12:20:49Z</time></trkpt><trkpt lat="43.98587191148059" lon="7.778987424679067"><ele>469.0</ele><time>2026-04-18T12:20:50Z</time></trkpt><trkpt lat="43.985822870076404" lon="7.779125094095081"><ele>465.0</ele><time>2026-04-18T12:20:51Z</time></trkpt><trkpt lat="43.98578760306335" lon="7.779283757191175"><ele>461.0</ele><time>2026-04-18T12:20:52Z</time></trkpt><trkpt lat="43.98577431817103" lon="7.779452788547542"><ele>457.0</ele><time>2026-04-18T12:20:53Z</time></trkpt><trkpt lat="43.985774563269345" lon="7.779624431561458"><ele>457.0</ele><time>2026-04-18T12:20:54Z</time></trkpt><trkpt lat="43.98576914400385" lon="7.779803648893485"><ele>457.0</ele><time>2026-04-18T12:20:54.999Z</time></trkpt><trkpt lat="43.985763861354776" lon="7.779992488916931"><ele>457.0</ele><time>2026-04-18T12:20:55.999Z</time></trkpt><trkpt lat="43.985754870399425" lon="7.780186820984607"><ele>457.0</ele><time>2026-04-18T12:20:56.999Z</time></trkpt><trkpt lat="43.9857524648812" lon="7.780381139225819"><ele>458.0</ele><time>2026-04-18T12:20:57.999Z</time></trkpt><trkpt lat="43.98575241417807" lon="7.780576571609134"><ele>459.0</ele><time>2026-04-18T12:20:58.999Z</time></trkpt><trkpt lat="43.985741573388765" lon="7.780754788563241"><ele>460.0</ele><time>2026-04-18T12:20:59.999Z</time></trkpt><trkpt lat="43.98573617642043" lon="7.780926180768984"><ele>461.0</ele><time>2026-04-18T12:21:00.999Z</time></trkpt><trkpt lat="43.98572246544585" lon="7.781091918370402"><ele>466.5</ele><time>2026-04-18T12:21:01.999Z</time></trkpt><trkpt lat="43.98569020923631" lon="7.7812516585873075"><ele>472.0</ele><time>2026-04-18T12:21:02.999Z</time></trkpt><trkpt lat="43.985622359830906" lon="7.781391473137532"><ele>477.5</ele><time>2026-04-18T12:21:03.999Z</time></trkpt><trkpt lat="43.98553539218487" lon="7.781529164196244"><ele>483.0</ele><time>2026-04-18T12:21:04.999Z</time></trkpt><trkpt lat="43.985427615473" lon="7.781650944543638"><ele>483.0</ele><time>2026-04-18T12:21:05.999Z</time></trkpt><trkpt lat="43.98530556084658" lon="7.781769099381728"><ele>483.0</ele><time>2026-04-18T12:21:06.999Z</time></trkpt><trkpt lat="43.985185442027024" lon="7.781890519051037"><ele>483.0</ele><time>2026-04-18T12:21:07.999Z</time></trkpt><trkpt lat="43.985078147019976" lon="7.782019069026394"><ele>483.0</ele><time>2026-04-18T12:21:08.999Z</time></trkpt><trkpt lat="43.98497100391556" lon="7.782158415490715"><ele>475.0</ele><time>2026-04-18T12:21:09.999Z</time></trkpt><trkpt lat="43.98487156580961" lon="7.782316560255579"><ele>467.0</ele><time>2026-04-18T12:21:10.999Z</time></trkpt><trkpt lat="43.98477981979563" lon="7.7824881305093045"><ele>459.0</ele><time>2026-04-18T12:21:11.999Z</time></trkpt><trkpt lat="43.984694608805455" lon="7.782660479128583"><ele>463.0</ele><time>2026-04-18T12:21:12.999Z</time></trkpt><trkpt lat="43.98462681938636" lon="7.7828294254101165"><ele>467.0</ele><time>2026-04-18T12:21:13.999Z</time></trkpt><trkpt lat="43.98457604848741" lon="7.782996746014845"><ele>471.0</ele><time>2026-04-18T12:21:14.999Z</time></trkpt><trkpt lat="43.9845494201658" lon="7.78316330244832"><ele>475.0</ele><time>2026-04-18T12:21:15.999Z</time></trkpt><trkpt lat="43.98454856352221" lon="7.783336953664621"><ele>473.5</ele><time>2026-04-18T12:21:16.999Z</time></trkpt><trkpt lat="43.98458149828554" lon="7.783529294852759"><ele>472.0</ele><time>2026-04-18T12:21:17.999Z</time></trkpt><trkpt lat="43.98462967389621" lon="7.783723308170584"><ele>470.5</ele><time>2026-04-18T12:21:18.999Z</time></trkpt><trkpt lat="43.98467448964776" lon="7.783914795633616"><ele>469.0</ele><time>2026-04-18T12:21:20Z</time></trkpt><trkpt lat="43.98470576128055" lon="7.784126353332688"><ele>469.0</ele><time>2026-04-18T12:21:21Z</time></trkpt><trkpt lat="43.98472530343035" lon="7.78434480741749"><ele>469.0</ele><time>2026-04-18T12:21:22Z</time></trkpt><trkpt lat="43.98475555360564" lon="7.784559234321601"><ele>469.0</ele><time>2026-04-18T12:21:23Z</time></trkpt><trkpt lat="43.98478166895334" lon="7.784775392165681"><ele>465.6666666666667</ele><time>2026-04-18T12:21:24Z</time></trkpt><trkpt lat="43.984813311484956" lon="7.7849911620452374"><ele>462.33333333333337</ele><time>2026-04-18T12:21:25Z</time></trkpt><trkpt lat="43.98484568516367" lon="7.785205459214866"><ele>459.0</ele><time>2026-04-18T12:21:26Z</time></trkpt><trkpt lat="43.98487626063689" lon="7.785412366199095"><ele>456.0</ele><time>2026-04-18T12:21:27Z</time></trkpt><trkpt lat="43.98490048582711" lon="7.785614869200575"><ele>453.0</ele><time>2026-04-18T12:21:28Z</time></trkpt><trkpt lat="43.98491255330926" lon="7.785820545279856"><ele>450.0</ele><time>2026-04-18T12:21:29Z</time></trkpt><trkpt lat="43.984903689362206" lon="7.7860345842867265"><ele>450.0</ele><time>2026-04-18T12:21:30Z</time></trkpt><trkpt lat="43.984878260076215" lon="7.7862539845146514"><ele>450.0</ele><time>2026-04-18T12:21:31Z</time></trkpt><trkpt lat="43.98484984600105" lon="7.786477167562051"><ele>450.0</ele><time>2026-04-18T12:21:32Z</time></trkpt><trkpt lat="43.98482663243093" lon="7.7866881067616145"><ele>451.75</ele><time>2026-04-18T12:21:33Z</time></trkpt><trkpt lat="43.9848096777744" lon="7.786887277268724"><ele>453.5</ele><time>2026-04-18T12:21:34Z</time></trkpt><trkpt lat="43.98479517798871" lon="7.787073849291047"><ele>455.25</ele><time>2026-04-18T12:21:35Z</time></trkpt><trkpt lat="43.98476348687607" lon="7.787231792534266"><ele>457.0</ele><time>2026-04-18T12:21:36Z</time></trkpt><trkpt lat="43.98473583765796" lon="7.787375471187506"><ele>457.0</ele><time>2026-04-18T12:21:37Z</time></trkpt><trkpt lat="43.98469649324326" lon="7.787502998949982"><ele>457.0</ele><time>2026-04-18T12:21:38Z</time></trkpt><trkpt lat="43.98460740544975" lon="7.787615151408382"><ele>457.0</ele><time>2026-04-18T12:21:39Z</time></trkpt><trkpt lat="43.9845111656029" lon="7.787732586486208"><ele>457.0</ele><time>2026-04-18T12:21:40Z</time></trkpt><trkpt lat="43.98440827163127" lon="7.787864992834802"><ele>453.5</ele><time>2026-04-18T12:21:41Z</time></trkpt><trkpt lat="43.98430248914711" lon="7.787998346397961"><ele>450.0</ele><time>2026-04-18T12:21:42Z</time></trkpt><trkpt lat="43.98419641945841" lon="7.788123524565793"><ele>446.5</ele><time>2026-04-18T12:21:43Z</time></trkpt><trkpt lat="43.98409263067612" lon="7.788236039391702"><ele>443.0</ele><time>2026-04-18T12:21:44Z</time></trkpt><trkpt lat="43.983999659282354" lon="7.7883541831955805"><ele>443.0</ele><time>2026-04-18T12:21:45Z</time></trkpt><trkpt lat="43.983907480593494" lon="7.788473138443042"><ele>443.0</ele><time>2026-04-18T12:21:46Z</time></trkpt><trkpt lat="43.983807689610174" lon="7.788591961113986"><ele>443.0</ele><time>2026-04-18T12:21:47Z</time></trkpt><trkpt lat="43.983697266886544" lon="7.788697170041571"><ele>443.0</ele><time>2026-04-18T12:21:48Z</time></trkpt><trkpt lat="43.98358675301484" lon="7.788786928325272"><ele>441.0</ele><time>2026-04-18T12:21:49Z</time></trkpt><trkpt lat="43.98348709657527" lon="7.788870574278209"><ele>438.99999999999994</ele><time>2026-04-18T12:21:50Z</time></trkpt><trkpt lat="43.98339133529979" lon="7.78895221261809"><ele>436.99999999999994</ele><time>2026-04-18T12:21:51Z</time></trkpt><trkpt lat="43.98332474338073" lon="7.78906460732621"><ele>435.0</ele><time>2026-04-18T12:21:52Z</time></trkpt><trkpt lat="43.983279533249394" lon="7.789202270497673"><ele>433.0</ele><time>2026-04-18T12:21:53Z</time></trkpt><trkpt lat="43.98325382226785" lon="7.789374340791486"><ele>433.0</ele><time>2026-04-18T12:21:54Z</time></trkpt><trkpt lat="43.98324502646915" lon="7.789555061409657"><ele>433.0</ele><time>2026-04-18T12:21:55Z</time></trkpt><trkpt lat="43.98323823700434" lon="7.789736983238325"><ele>433.0</ele><time>2026-04-18T12:21:56Z</time></trkpt><trkpt lat="43.983241311790714" lon="7.789908384748754"><ele>433.0</ele><time>2026-04-18T12:21:57Z</time></trkpt><trkpt lat="43.98325712730031" lon="7.790077643541498"><ele>431.5</ele><time>2026-04-18T12:21:58Z</time></trkpt><trkpt lat="43.98329685851043" lon="7.790225670437861"><ele>430.0</ele><time>2026-04-18T12:21:59Z</time></trkpt><trkpt lat="43.98336643966663" lon="7.790351822530382"><ele>428.5</ele><time>2026-04-18T12:22:00Z</time></trkpt><trkpt lat="43.98344366035614" lon="7.790478549594668"><ele>427.0</ele><time>2026-04-18T12:22:01Z</time></trkpt><trkpt lat="43.983502282917456" lon="7.790641092684438"><ele>433.0</ele><time>2026-04-18T12:22:02Z</time></trkpt><trkpt lat="43.98356280649086" lon="7.790827999299011"><ele>439.0</ele><time>2026-04-18T12:22:03Z</time></trkpt><trkpt lat="43.98360998707375" lon="7.791022312236095"><ele>445.0</ele><time>2026-04-18T12:22:04Z</time></trkpt><trkpt lat="43.983661757971035" lon="7.791202619163401"><ele>451.0</ele><time>2026-04-18T12:22:05Z</time></trkpt><trkpt lat="43.98371154213326" lon="7.791384773469288"><ele>451.0</ele><time>2026-04-18T12:22:06Z</time></trkpt><trkpt lat="43.98376465660312" lon="7.791558932971266"><ele>451.0</ele><time>2026-04-18T12:22:07Z</time></trkpt><trkpt lat="43.983788870841046" lon="7.791733830622794"><ele>451.0</ele><time>2026-04-18T12:22:08Z</time></trkpt><trkpt lat="43.98380837282117" lon="7.791908517926194"><ele>451.0</ele><time>2026-04-18T12:22:09Z</time></trkpt><trkpt lat="43.98380953017799" lon="7.792080919409071"><ele>450.5</ele><time>2026-04-18T12:22:10Z</time></trkpt><trkpt lat="43.98379839096971" lon="7.792259259141451"><ele>450.0</ele><time>2026-04-18T12:22:11Z</time></trkpt><trkpt lat="43.983784804531815" lon="7.792426823057017"><ele>449.5</ele><time>2026-04-18T12:22:12Z</time></trkpt><trkpt lat="43.98377011563407" lon="7.792585951600416"><ele>449.0</ele><time>2026-04-18T12:22:13Z</time></trkpt><trkpt lat="43.98374771428029" lon="7.792731515446187"><ele>455.25</ele><time>2026-04-18T12:22:14Z</time></trkpt><trkpt lat="43.98369699508267" lon="7.792865378539669"><ele>461.5</ele><time>2026-04-18T12:22:15Z</time></trkpt><trkpt lat="43.98362090386566" lon="7.792991723773486"><ele>467.75</ele><time>2026-04-18T12:22:16Z</time></trkpt><trkpt lat="43.9835329773259" lon="7.793124647878937"><ele>474.0</ele><time>2026-04-18T12:22:17Z</time></trkpt><trkpt lat="43.983433609484976" lon="7.793260605430073"><ele>468.66666666666663</ele><time>2026-04-18T12:22:18Z</time></trkpt><trkpt lat="43.98331196392334" lon="7.793387037416632"><ele>463.3333333333333</ele><time>2026-04-18T12:22:19Z</time></trkpt><trkpt lat="43.98318595049769" lon="7.793497853469492"><ele>458.0</ele><time>2026-04-18T12:22:20Z</time></trkpt><trkpt lat="43.98304911967671" lon="7.793596870785438"><ele>458.0</ele><time>2026-04-18T12:22:21Z</time></trkpt><trkpt lat="43.982905552281345" lon="7.793692586779184"><ele>458.0</ele><time>2026-04-18T12:22:22Z</time></trkpt><trkpt lat="43.98275332968113" lon="7.793781074848641"><ele>458.0</ele><time>2026-04-18T12:22:23Z</time></trkpt><trkpt lat="43.98260567945468" lon="7.7938648864868245"><ele>451.25</ele><time>2026-04-18T12:22:24Z</time></trkpt><trkpt lat="43.982464509480614" lon="7.79393870736063"><ele>444.5</ele><time>2026-04-18T12:22:25Z</time></trkpt><trkpt lat="43.982322824142464" lon="7.793997105246069"><ele>437.75</ele><time>2026-04-18T12:22:26Z</time></trkpt><trkpt lat="43.982178361421475" lon="7.794032494284205"><ele>431.0</ele><time>2026-04-18T12:22:27Z</time></trkpt><trkpt lat="43.98202567619418" lon="7.79404147926503"><ele>431.0</ele><time>2026-04-18T12:22:28Z</time></trkpt><trkpt lat="43.98186577709766" lon="7.794032478824259"><ele>431.0</ele><time>2026-04-18T12:22:29Z</time></trkpt><trkpt lat="43.98170696812988" lon="7.794017967647785"><ele>431.0</ele><time>2026-04-18T12:22:30Z</time></trkpt><trkpt lat="43.98155750032273" lon="7.793993369020198"><ele>430.0</ele><time>2026-04-18T12:22:31Z</time></trkpt><trkpt lat="43.98141972782934" lon="7.793973866231888"><ele>429.0</ele><time>2026-04-18T12:22:32Z</time></trkpt><trkpt lat="43.981277503403426" lon="7.7940022825855335"><ele>428.0</ele><time>2026-04-18T12:22:33Z</time></trkpt><trkpt lat="43.981131714340975" lon="7.794059415534602"><ele>427.0</ele><time>2026-04-18T12:22:34Z</time></trkpt><trkpt lat="43.98098696803517" lon="7.794118869961824"><ele>427.0</ele><time>2026-04-18T12:22:35Z</time></trkpt><trkpt lat="43.9808576772089" lon="7.7941858803781505"><ele>427.0</ele><time>2026-04-18T12:22:36Z</time></trkpt><trkpt lat="43.98074433295537" lon="7.794266254201487"><ele>427.0</ele><time>2026-04-18T12:22:37Z</time></trkpt><trkpt lat="43.98062997075907" lon="7.794375245396845"><ele>427.0</ele><time>2026-04-18T12:22:38Z</time></trkpt><trkpt lat="43.98052030525224" lon="7.7945240480999125"><ele>425.0</ele><time>2026-04-18T12:22:39Z</time></trkpt><trkpt lat="43.98041195544436" lon="7.79467905157845"><ele>423.0</ele><time>2026-04-18T12:22:40Z</time></trkpt><trkpt lat="43.98029645649991" lon="7.794845524718122"><ele>421.0</ele><time>2026-04-18T12:22:41Z</time></trkpt><trkpt lat="43.98018482713961" lon="7.795004677579266"><ele>421.0</ele><time>2026-04-18T12:22:42Z</time></trkpt><trkpt lat="43.980073550812165" lon="7.795162418445951"><ele>421.0</ele><time>2026-04-18T12:22:43Z</time></trkpt><trkpt lat="43.97997243151891" lon="7.795342717141925"><ele>421.0</ele><time>2026-04-18T12:22:44Z</time></trkpt><trkpt lat="43.97986668542943" lon="7.795519842284806"><ele>422.0</ele><time>2026-04-18T12:22:45Z</time></trkpt><trkpt lat="43.97978253537428" lon="7.795716327084249"><ele>423.0</ele><time>2026-04-18T12:22:46Z</time></trkpt><trkpt lat="43.97971191301308" lon="7.795928716862893"><ele>424.0</ele><time>2026-04-18T12:22:47Z</time></trkpt><trkpt lat="43.979657251266545" lon="7.796152354135169"><ele>425.0</ele><time>2026-04-18T12:22:48Z</time></trkpt><trkpt lat="43.979608382214685" lon="7.796379575252423"><ele>426.0</ele><time>2026-04-18T12:22:49Z</time></trkpt><trkpt lat="43.97956937786203" lon="7.796627970367029"><ele>427.0</ele><time>2026-04-18T12:22:50Z</time></trkpt><trkpt lat="43.97953481523254" lon="7.7968691718390195"><ele>430.33333333333337</ele><time>2026-04-18T12:22:51Z</time></trkpt><trkpt lat="43.97951144884414" lon="7.797102165772205"><ele>433.66666666666663</ele><time>2026-04-18T12:22:52Z</time></trkpt><trkpt lat="43.979481746514075" lon="7.797339132372282"><ele>437.0</ele><time>2026-04-18T12:22:53Z</time></trkpt><trkpt lat="43.97944417057109" lon="7.797570502661855"><ele>444.66666666666663</ele><time>2026-04-18T12:22:54Z</time></trkpt><trkpt lat="43.9793901733648" lon="7.79779831379761"><ele>452.33333333333337</ele><time>2026-04-18T12:22:55Z</time></trkpt><trkpt lat="43.979336287895585" lon="7.798022536913105"><ele>460.0</ele><time>2026-04-18T12:22:56Z</time></trkpt><trkpt lat="43.979286250220845" lon="7.798239463542178"><ele>460.0</ele><time>2026-04-18T12:22:57Z</time></trkpt><trkpt lat="43.97923288945951" lon="7.798452960033791"><ele>460.0</ele><time>2026-04-18T12:22:58Z</time></trkpt><trkpt lat="43.97915596119965" lon="7.798657702231757"><ele>460.0</ele><time>2026-04-18T12:22:59Z</time></trkpt><trkpt lat="43.97908352679254" lon="7.79886370004802"><ele>450.0</ele><time>2026-04-18T12:23:00Z</time></trkpt><trkpt lat="43.9789989431486" lon="7.799066509843133"><ele>440.0</ele><time>2026-04-18T12:23:01Z</time></trkpt><trkpt lat="43.97890309528543" lon="7.799271558593023"><ele>430.0</ele><time>2026-04-18T12:23:02Z</time></trkpt><trkpt lat="43.978806746422805" lon="7.799473554285929"><ele>430.0</ele><time>2026-04-18T12:23:03Z</time></trkpt><trkpt lat="43.97871749052534" lon="7.7996709987394865"><ele>430.0</ele><time>2026-04-18T12:23:04Z</time></trkpt><trkpt lat="43.97863446611598" lon="7.79986101868197"><ele>430.0</ele><time>2026-04-18T12:23:05Z</time></trkpt><trkpt lat="43.978514006391386" lon="7.800022979946951"><ele>426.0</ele><time>2026-04-18T12:23:06Z</time></trkpt><trkpt lat="43.97838669389879" lon="7.80020731153372"><ele>422.0</ele><time>2026-04-18T12:23:07Z</time></trkpt><trkpt lat="43.97824922001789" lon="7.800403311360417"><ele>418.0</ele><time>2026-04-18T12:23:07.999Z</time></trkpt><trkpt lat="43.97811363555219" lon="7.800582838351051"><ele>418.0</ele><time>2026-04-18T12:23:08.999Z</time></trkpt><trkpt lat="43.97798642676504" lon="7.800756840469699"><ele>418.0</ele><time>2026-04-18T12:23:09.999Z</time></trkpt><trkpt lat="43.97786667500723" lon="7.80093388664126"><ele>418.0</ele><time>2026-04-18T12:23:10.999Z</time></trkpt><trkpt lat="43.97776590472192" lon="7.801120208143296"><ele>415.6666666666667</ele><time>2026-04-18T12:23:11.999Z</time></trkpt><trkpt lat="43.977630463587616" lon="7.801266524886795"><ele>413.33333333333337</ele><time>2026-04-18T12:23:12.999Z</time></trkpt><trkpt lat="43.97747308108692" lon="7.801376042990169"><ele>411.0</ele><time>2026-04-18T12:23:13.999Z</time></trkpt><trkpt lat="43.97731933302691" lon="7.801504697952481"><ele>411.0</ele><time>2026-04-18T12:23:14.999Z</time></trkpt><trkpt lat="43.977186303110486" lon="7.801670895021023"><ele>411.0</ele><time>2026-04-18T12:23:15.999Z</time></trkpt><trkpt lat="43.9770544327421" lon="7.801815056676024"><ele>411.0</ele><time>2026-04-18T12:23:16.999Z</time></trkpt><trkpt lat="43.976909741818154" lon="7.801914708727335"><ele>414.75</ele><time>2026-04-18T12:23:17.999Z</time></trkpt><trkpt lat="43.97678107502836" lon="7.802011047085595"><ele>418.5</ele><time>2026-04-18T12:23:18.999Z</time></trkpt><trkpt lat="43.97666204681579" lon="7.802100138539056"><ele>422.25</ele><time>2026-04-18T12:23:19.999Z</time></trkpt><trkpt lat="43.97654388432166" lon="7.802168809895386"><ele>426.0</ele><time>2026-04-18T12:23:20.999Z</time></trkpt><trkpt lat="43.97641087129577" lon="7.802174149897942"><ele>426.0</ele><time>2026-04-18T12:23:21.999Z</time></trkpt><trkpt lat="43.976263707939324" lon="7.80220912808878"><ele>426.0</ele><time>2026-04-18T12:23:22.999Z</time></trkpt><trkpt lat="43.97611747031403" lon="7.802275063325666"><ele>426.0</ele><time>2026-04-18T12:23:23.999Z</time></trkpt><trkpt lat="43.97596794731193" lon="7.802298974905919"><ele>416.66666666666663</ele><time>2026-04-18T12:23:24.999Z</time></trkpt><trkpt lat="43.97582204304616" lon="7.802352188500511"><ele>407.3333333333333</ele><time>2026-04-18T12:23:26Z</time></trkpt><trkpt lat="43.97568393011771" lon="7.802446187908508"><ele>398.0</ele><time>2026-04-18T12:23:27Z</time></trkpt><trkpt lat="43.97555846896918" lon="7.8025864645177"><ele>409.0</ele><time>2026-04-18T12:23:28Z</time></trkpt><trkpt lat="43.975415785699745" lon="7.80269324466659"><ele>420.0</ele><time>2026-04-18T12:23:29Z</time></trkpt><trkpt lat="43.97528737067" lon="7.802832650773813"><ele>431.0</ele><time>2026-04-18T12:23:30Z</time></trkpt><trkpt lat="43.97516419946214" lon="7.802977101346312"><ele>431.0</ele><time>2026-04-18T12:23:31Z</time></trkpt><trkpt lat="43.975060979339" lon="7.803132454194897"><ele>431.0</ele><time>2026-04-18T12:23:32Z</time></trkpt><trkpt lat="43.97495283647847" lon="7.803274056292069"><ele>431.0</ele><time>2026-04-18T12:23:33Z</time></trkpt><trkpt lat="43.97484482091097" lon="7.803424865659943"><ele>424.25</ele><time>2026-04-18T12:23:34Z</time></trkpt><trkpt lat="43.97478024264699" lon="7.803601280814279"><ele>417.5</ele><time>2026-04-18T12:23:35Z</time></trkpt><trkpt lat="43.97469677218011" lon="7.803748606426863"><ele>410.75</ele><time>2026-04-18T12:23:36Z</time></trkpt><trkpt lat="43.97466538289813" lon="7.8039352543717895"><ele>404.0</ele><time>2026-04-18T12:23:37Z</time></trkpt><trkpt lat="43.97464124345491" lon="7.804123691796564"><ele>402.3333333333333</ele><time>2026-04-18T12:23:38Z</time></trkpt><trkpt lat="43.97464346220505" lon="7.804330837783417"><ele>400.66666666666663</ele><time>2026-04-18T12:23:39Z</time></trkpt><trkpt lat="43.9746340413292" lon="7.804552807869316"><ele>399.0</ele><time>2026-04-18T12:23:40Z</time></trkpt><trkpt lat="43.97464355986079" lon="7.804783888889112"><ele>399.0</ele><time>2026-04-18T12:23:41Z</time></trkpt><trkpt lat="43.97466187756078" lon="7.805024062483386"><ele>399.0</ele><time>2026-04-18T12:23:42Z</time></trkpt><trkpt lat="43.97469367698541" lon="7.80526022538942"><ele>399.0</ele><time>2026-04-18T12:23:43Z</time></trkpt><trkpt lat="43.974722237591635" lon="7.805498148977499"><ele>395.33333333333337</ele><time>2026-04-18T12:23:44Z</time></trkpt><trkpt lat="43.97476854909503" lon="7.805733002018396"><ele>391.6666666666667</ele><time>2026-04-18T12:23:45Z</time></trkpt><trkpt lat="43.97481215107104" lon="7.805963140129751"><ele>388.0</ele><time>2026-04-18T12:23:46Z</time></trkpt><trkpt lat="43.974851829334476" lon="7.8061948770005065"><ele>387.6666666666667</ele><time>2026-04-18T12:23:47Z</time></trkpt><trkpt lat="43.974883115047305" lon="7.806421626074085"><ele>387.33333333333337</ele><time>2026-04-18T12:23:48Z</time></trkpt><trkpt lat="43.97489310238574" lon="7.806656711260209"><ele>387.0</ele><time>2026-04-18T12:23:49Z</time></trkpt><trkpt lat="43.974903079154515" lon="7.806901189353287"><ele>387.0</ele><time>2026-04-18T12:23:50Z</time></trkpt><trkpt lat="43.97491319671495" lon="7.8071457363671595"><ele>387.0</ele><time>2026-04-18T12:23:51Z</time></trkpt><trkpt lat="43.97492919639458" lon="7.807383081997694"><ele>387.0</ele><time>2026-04-18T12:23:52Z</time></trkpt><trkpt lat="43.97491087613418" lon="7.807609911223052"><ele>389.0</ele><time>2026-04-18T12:23:53Z</time></trkpt><trkpt lat="43.974924412839734" lon="7.8078110351486485"><ele>391.0</ele><time>2026-04-18T12:23:54Z</time></trkpt><trkpt lat="43.97490975064598" lon="7.808008135360619"><ele>393.0</ele><time>2026-04-18T12:23:55Z</time></trkpt><trkpt lat="43.974864829664824" lon="7.808190315213907"><ele>395.0</ele><time>2026-04-18T12:23:56Z</time></trkpt><trkpt lat="43.97479599291793" lon="7.808372668257066"><ele>397.0</ele><time>2026-04-18T12:23:57Z</time></trkpt><trkpt lat="43.974730335566484" lon="7.808569380458628"><ele>399.0</ele><time>2026-04-18T12:23:58Z</time></trkpt><trkpt lat="43.97465735782521" lon="7.80877321433613"><ele>401.0</ele><time>2026-04-18T12:23:59Z</time></trkpt><trkpt lat="43.97462721788459" lon="7.809000575864449"><ele>401.0</ele><time>2026-04-18T12:24:00Z</time></trkpt><trkpt lat="43.974576731834865" lon="7.80920477229414"><ele>401.0</ele><time>2026-04-18T12:24:01Z</time></trkpt><trkpt lat="43.974522497539205" lon="7.809382517368866"><ele>401.0</ele><time>2026-04-18T12:24:02Z</time></trkpt><trkpt lat="43.97446199090716" lon="7.809550715363638"><ele>401.0</ele><time>2026-04-18T12:24:03Z</time></trkpt><trkpt lat="43.974408022704" lon="7.809719358359026"><ele>403.5</ele><time>2026-04-18T12:24:04Z</time></trkpt><trkpt lat="43.97435041371298" lon="7.809890585531097"><ele>406.0</ele><time>2026-04-18T12:24:05Z</time></trkpt><trkpt lat="43.97428506818289" lon="7.810060854526615"><ele>408.5</ele><time>2026-04-18T12:24:06Z</time></trkpt><trkpt lat="43.97421498362336" lon="7.8102273661744634"><ele>411.0</ele><time>2026-04-18T12:24:07Z</time></trkpt><trkpt lat="43.97415163936531" lon="7.810401808618842"><ele>407.0</ele><time>2026-04-18T12:24:08Z</time></trkpt><trkpt lat="43.97408848870245" lon="7.810575886352704"><ele>403.0</ele><time>2026-04-18T12:24:09Z</time></trkpt><trkpt lat="43.974022708937134" lon="7.810751460846375"><ele>399.0</ele><time>2026-04-18T12:24:10Z</time></trkpt><trkpt lat="43.973964029899946" lon="7.8109327842957645"><ele>395.0</ele><time>2026-04-18T12:24:11Z</time></trkpt><trkpt lat="43.97391224940961" lon="7.811115196057976"><ele>395.0</ele><time>2026-04-18T12:24:12Z</time></trkpt><trkpt lat="43.973859640836956" lon="7.811285757764493"><ele>395.0</ele><time>2026-04-18T12:24:13Z</time></trkpt><trkpt lat="43.9738037553282" lon="7.811446929893651"><ele>395.0</ele><time>2026-04-18T12:24:14Z</time></trkpt><trkpt lat="43.97373475898731" lon="7.8115964067237025"><ele>395.0</ele><time>2026-04-18T12:24:15Z</time></trkpt><trkpt lat="43.973652378975885" lon="7.811737042901795"><ele>395.5</ele><time>2026-04-18T12:24:16Z</time></trkpt><trkpt lat="43.97355329636954" lon="7.811878553631229"><ele>396.0</ele><time>2026-04-18T12:24:17Z</time></trkpt><trkpt lat="43.973450706016" lon="7.812015857277521"><ele>396.5</ele><time>2026-04-18T12:24:18Z</time></trkpt><trkpt lat="43.973346391316085" lon="7.812159871152781"><ele>397.0</ele><time>2026-04-18T12:24:19Z</time></trkpt><trkpt lat="43.97323793216267" lon="7.812301166508818"><ele>397.0</ele><time>2026-04-18T12:24:20Z</time></trkpt><trkpt lat="43.97312504050771" lon="7.812425984523261"><ele>397.0</ele><time>2026-04-18T12:24:21Z</time></trkpt><trkpt lat="43.972995958720034" lon="7.812548578565073"><ele>397.0</ele><time>2026-04-18T12:24:22Z</time></trkpt><trkpt lat="43.972887796151966" lon="7.812674172359378"><ele>397.0</ele><time>2026-04-18T12:24:23Z</time></trkpt><trkpt lat="43.972786781510045" lon="7.8128098467597225"><ele>394.5</ele><time>2026-04-18T12:24:24Z</time></trkpt><trkpt lat="43.97267964288939" lon="7.812961581343094"><ele>392.0</ele><time>2026-04-18T12:24:25Z</time></trkpt><trkpt lat="43.972576707978035" lon="7.813108833597087"><ele>389.5</ele><time>2026-04-18T12:24:26Z</time></trkpt><trkpt lat="43.97246982703705" lon="7.813251419467084"><ele>387.0</ele><time>2026-04-18T12:24:27Z</time></trkpt><trkpt lat="43.972368307624286" lon="7.81340402883859"><ele>392.25</ele><time>2026-04-18T12:24:28Z</time></trkpt><trkpt lat="43.97226648125031" lon="7.8135532036573485"><ele>397.5</ele><time>2026-04-18T12:24:29Z</time></trkpt><trkpt lat="43.972164325419264" lon="7.813700760736729"><ele>402.75</ele><time>2026-04-18T12:24:30Z</time></trkpt><trkpt lat="43.97206386963725" lon="7.813849764490652"><ele>408.0</ele><time>2026-04-18T12:24:31Z</time></trkpt><trkpt lat="43.97196848759893" lon="7.813986583591765"><ele>408.0</ele><time>2026-04-18T12:24:32Z</time></trkpt><trkpt lat="43.97187707368511" lon="7.814122568575643"><ele>408.0</ele><time>2026-04-18T12:24:33Z</time></trkpt><trkpt lat="43.97180348294008" lon="7.814272166308718"><ele>408.0</ele><time>2026-04-18T12:24:34Z</time></trkpt><trkpt lat="43.97173103169188" lon="7.8144255508306815"><ele>408.0</ele><time>2026-04-18T12:24:35Z</time></trkpt><trkpt lat="43.97166785894727" lon="7.814573868614088"><ele>403.2</ele><time>2026-04-18T12:24:36Z</time></trkpt><trkpt lat="43.97160738941169" lon="7.814712757672842"><ele>398.4</ele><time>2026-04-18T12:24:37Z</time></trkpt><trkpt lat="43.971562187564196" lon="7.814844087792408"><ele>393.59999999999997</ele><time>2026-04-18T12:24:38Z</time></trkpt><trkpt lat="43.97151457224592" lon="7.814963478610458"><ele>388.79999999999995</ele><time>2026-04-18T12:24:39Z</time></trkpt><trkpt lat="43.97147387787438" lon="7.815063978542657"><ele>384.0</ele><time>2026-04-18T12:24:40Z</time></trkpt><trkpt lat="43.971451563641686" lon="7.8151609464245215"><ele>384.0</ele><time>2026-04-18T12:24:41Z</time></trkpt><trkpt lat="43.97143453865943" lon="7.815259394934009"><ele>384.0</ele><time>2026-04-18T12:24:42Z</time></trkpt><trkpt lat="43.97141880743863" lon="7.815367127776203"><ele>384.0</ele><time>2026-04-18T12:24:43Z</time></trkpt><trkpt lat="43.97141347407968" lon="7.8154811260486445"><ele>384.0</ele><time>2026-04-18T12:24:44Z</time></trkpt><trkpt lat="43.9713986570508" lon="7.815587000905947"><ele>384.0</ele><time>2026-04-18T12:24:45Z</time></trkpt><trkpt lat="43.97137077374537" lon="7.815684431957783"><ele>384.0</ele><time>2026-04-18T12:24:46Z</time></trkpt><trkpt lat="43.971324661901875" lon="7.815761078755261"><ele>383.99999999999994</ele><time>2026-04-18T12:24:47Z</time></trkpt><trkpt lat="43.97126876321179" lon="7.815821702805486"><ele>384.0</ele><time>2026-04-18T12:24:48Z</time></trkpt><trkpt lat="43.971205972084" lon="7.815871849587285"><ele>384.0</ele><time>2026-04-18T12:24:49Z</time></trkpt><trkpt lat="43.97113410639082" lon="7.815912555765627"><ele>384.0</ele><time>2026-04-18T12:24:50Z</time></trkpt><trkpt lat="43.97106354517419" lon="7.815951912183971"><ele>384.0</ele><time>2026-04-18T12:24:51Z</time></trkpt><trkpt lat="43.97099406158812" lon="7.815984979504814"><ele>383.99999999999994</ele><time>2026-04-18T12:24:52Z</time></trkpt><trkpt lat="43.97092227679284" lon="7.816015605334513"><ele>384.0</ele><time>2026-04-18T12:24:53Z</time></trkpt><trkpt lat="43.970847539414976" lon="7.816052629580561"><ele>385.6666666666667</ele><time>2026-04-18T12:24:54Z</time></trkpt><trkpt lat="43.970769823558776" lon="7.816095053394635"><ele>387.33333333333337</ele><time>2026-04-18T12:24:55Z</time></trkpt><trkpt lat="43.97069586752468" lon="7.816135035654521"><ele>389.0</ele><time>2026-04-18T12:24:56Z</time></trkpt><trkpt lat="43.97061935890354" lon="7.816174557586927"><ele>390.6666666666667</ele><time>2026-04-18T12:24:57Z</time></trkpt><trkpt lat="43.97054225842174" lon="7.816214445719482"><ele>392.33333333333337</ele><time>2026-04-18T12:24:58Z</time></trkpt><trkpt lat="43.970458888147014" lon="7.81624272459656"><ele>394.0</ele><time>2026-04-18T12:24:59Z</time></trkpt><trkpt lat="43.9703780017727" lon="7.816281360152248"><ele>394.0</ele><time>2026-04-18T12:25:00Z</time></trkpt><trkpt lat="43.97029759201215" lon="7.816323740144282"><ele>394.0</ele><time>2026-04-18T12:25:01Z</time></trkpt><trkpt lat="43.970212315436555" lon="7.816359057296138"><ele>394.0</ele><time>2026-04-18T12:25:02Z</time></trkpt><trkpt lat="43.97012725210405" lon="7.816389583569491"><ele>394.0</ele><time>2026-04-18T12:25:03Z</time></trkpt><trkpt lat="43.970033550399194" lon="7.816407413734241"><ele>394.0</ele><time>2026-04-18T12:25:04Z</time></trkpt><trkpt lat="43.96994169276875" lon="7.816430259792073"><ele>392.0</ele><time>2026-04-18T12:25:05Z</time></trkpt><trkpt lat="43.96984881394121" lon="7.816420805614434"><ele>390.0</ele><time>2026-04-18T12:25:06Z</time></trkpt><trkpt lat="43.96975502572178" lon="7.8164277677761405"><ele>388.0</ele><time>2026-04-18T12:25:07Z</time></trkpt><trkpt lat="43.96965998414863" lon="7.816428518127688"><ele>386.0</ele><time>2026-04-18T12:25:08Z</time></trkpt><trkpt lat="43.96956477115807" lon="7.81642335379222"><ele>384.0</ele><time>2026-04-18T12:25:09Z</time></trkpt><trkpt lat="43.969469198643196" lon="7.8164105518490254"><ele>384.0</ele><time>2026-04-18T12:25:10Z</time></trkpt><trkpt lat="43.96938169044924" lon="7.816386510220644"><ele>384.0</ele><time>2026-04-18T12:25:11Z</time></trkpt><trkpt lat="43.969300634411205" lon="7.816356390163132"><ele>384.0</ele><time>2026-04-18T12:25:12Z</time></trkpt><trkpt lat="43.96923085035272" lon="7.816328543490212"><ele>384.0</ele><time>2026-04-18T12:25:13Z</time></trkpt><trkpt lat="43.96916609699484" lon="7.816301277589874"><ele>384.0</ele><time>2026-04-18T12:25:14Z</time></trkpt><trkpt lat="43.9690584615667" lon="7.816264655644238"><ele>384.0</ele><time>2026-04-18T12:25:16Z</time></trkpt><trkpt lat="43.96896208890534" lon="7.816245864077514"><ele>385.0</ele><time>2026-04-18T12:25:17.999Z</time></trkpt><trkpt lat="43.96885509257197" lon="7.816217051880464"><ele>386.0</ele><time>2026-04-18T12:25:19.999Z</time></trkpt><trkpt lat="43.96878998853155" lon="7.8161981355925345"><ele>387.0</ele><time>2026-04-18T12:25:20.999Z</time></trkpt><trkpt lat="43.968718765612635" lon="7.816182040565448"><ele>388.0</ele><time>2026-04-18T12:25:21.999Z</time></trkpt><trkpt lat="43.96864465943044" lon="7.816165089398225"><ele>389.0</ele><time>2026-04-18T12:25:22.999Z</time></trkpt><trkpt lat="43.96856480468835" lon="7.816140891670152"><ele>390.0</ele><time>2026-04-18T12:25:23.999Z</time></trkpt><trkpt lat="43.96848302701723" lon="7.8161385856025225"><ele>390.0</ele><time>2026-04-18T12:25:24.999Z</time></trkpt><trkpt lat="43.96839721623562" lon="7.816147483306747"><ele>390.0</ele><time>2026-04-18T12:25:25.999Z</time></trkpt><trkpt lat="43.96831999853751" lon="7.816149215924354"><ele>390.0</ele><time>2026-04-18T12:25:26.999Z</time></trkpt><trkpt lat="43.96823876684792" lon="7.816154099537462"><ele>390.0</ele><time>2026-04-18T12:25:27.999Z</time></trkpt><trkpt lat="43.968158648596564" lon="7.816149725436745"><ele>390.0</ele><time>2026-04-18T12:25:28.999Z</time></trkpt><trkpt lat="43.96808230076946" lon="7.816147618098027"><ele>390.0</ele><time>2026-04-18T12:25:29.999Z</time></trkpt><trkpt lat="43.968003862948194" lon="7.816147136982809"><ele>387.5</ele><time>2026-04-18T12:25:30.999Z</time></trkpt><trkpt lat="43.967918990789194" lon="7.816145416604729"><ele>385.0</ele><time>2026-04-18T12:25:32Z</time></trkpt><trkpt lat="43.967834132814566" lon="7.8161505600480785"><ele>382.5</ele><time>2026-04-18T12:25:33Z</time></trkpt><trkpt lat="43.96774867726902" lon="7.8161836569515"><ele>380.0</ele><time>2026-04-18T12:25:34Z</time></trkpt><trkpt lat="43.96767045065192" lon="7.816239255154023"><ele>377.5</ele><time>2026-04-18T12:25:35Z</time></trkpt><trkpt lat="43.967600373045954" lon="7.816305239257283"><ele>375.0</ele><time>2026-04-18T12:25:36Z</time></trkpt><trkpt lat="43.967537173653064" lon="7.816381187941334"><ele>372.8571428571429</ele><time>2026-04-18T12:25:37Z</time></trkpt><trkpt lat="43.96747802774878" lon="7.816451651615517"><ele>370.71428571428567</ele><time>2026-04-18T12:25:38Z</time></trkpt><trkpt lat="43.967421904577776" lon="7.81651511049709"><ele>368.57142857142856</ele><time>2026-04-18T12:25:39Z</time></trkpt><trkpt lat="43.96736523656839" lon="7.8165759288945145"><ele>366.42857142857144</ele><time>2026-04-18T12:25:40Z</time></trkpt><trkpt lat="43.9673101163297" lon="7.816633397134532"><ele>364.28571428571433</ele><time>2026-04-18T12:25:41Z</time></trkpt><trkpt lat="43.96725752764954" lon="7.816694364626708"><ele>362.1428571428571</ele><time>2026-04-18T12:25:42Z</time></trkpt><trkpt lat="43.96719913704592" lon="7.816755747652012"><ele>360.0</ele><time>2026-04-18T12:25:43Z</time></trkpt><trkpt lat="43.96713341314683" lon="7.8168190128874455"><ele>364.6</ele><time>2026-04-18T12:25:44Z</time></trkpt><trkpt lat="43.96707224209573" lon="7.816895931035746"><ele>369.2</ele><time>2026-04-18T12:25:45Z</time></trkpt><trkpt lat="43.96700907264238" lon="7.816977318869433"><ele>373.79999999999995</ele><time>2026-04-18T12:25:46Z</time></trkpt><trkpt lat="43.966944847011895" lon="7.817063188110769"><ele>378.4</ele><time>2026-04-18T12:25:47Z</time></trkpt><trkpt lat="43.966872441030624" lon="7.817148713386081"><ele>383.0</ele><time>2026-04-18T12:25:48Z</time></trkpt><trkpt lat="43.9667956692431" lon="7.81723103522423"><ele>383.0</ele><time>2026-04-18T12:25:49Z</time></trkpt><trkpt lat="43.96671305061591" lon="7.817298404524204"><ele>383.0</ele><time>2026-04-18T12:25:50Z</time></trkpt><trkpt lat="43.966624732909" lon="7.817362518258716"><ele>383.0</ele><time>2026-04-18T12:25:51Z</time></trkpt><trkpt lat="43.96653167117442" lon="7.817421544351916"><ele>383.0</ele><time>2026-04-18T12:25:52Z</time></trkpt><trkpt lat="43.966433840763834" lon="7.817481430617544"><ele>383.0</ele><time>2026-04-18T12:25:53Z</time></trkpt><trkpt lat="43.96633210168251" lon="7.817528565923913"><ele>382.79999999999995</ele><time>2026-04-18T12:25:54Z</time></trkpt><trkpt lat="43.96622889617379" lon="7.817567475617752"><ele>382.6</ele><time>2026-04-18T12:25:55Z</time></trkpt><trkpt lat="43.966122546718736" lon="7.817594196308595"><ele>382.4</ele><time>2026-04-18T12:25:56Z</time></trkpt><trkpt lat="43.96601266632717" lon="7.817627304814687"><ele>382.20000000000005</ele><time>2026-04-18T12:25:57Z</time></trkpt><trkpt lat="43.96590743866875" lon="7.8176843062204915"><ele>382.0</ele><time>2026-04-18T12:25:58Z</time></trkpt><trkpt lat="43.96580692197404" lon="7.817782325466856"><ele>382.0</ele><time>2026-04-18T12:25:59Z</time></trkpt><trkpt lat="43.965700784894764" lon="7.817881869859705"><ele>382.0</ele><time>2026-04-18T12:26:00Z</time></trkpt><trkpt lat="43.96557071843695" lon="7.817976953253526"><ele>382.0</ele><time>2026-04-18T12:26:01Z</time></trkpt><trkpt lat="43.96543143295867" lon="7.818038701750298"><ele>382.0</ele><time>2026-04-18T12:26:02Z</time></trkpt><trkpt lat="43.9652821970892" lon="7.818071533135849"><ele>382.0</ele><time>2026-04-18T12:26:03Z</time></trkpt><trkpt lat="43.965133597876296" lon="7.818068232272225"><ele>382.0</ele><time>2026-04-18T12:26:04Z</time></trkpt><trkpt lat="43.96498461759" lon="7.818032520890097"><ele>382.0</ele><time>2026-04-18T12:26:05Z</time></trkpt><trkpt lat="43.964835113833594" lon="7.8179804198757985"><ele>380.0</ele><time>2026-04-18T12:26:06Z</time></trkpt><trkpt lat="43.964692781748" lon="7.8179395612504745"><ele>378.0</ele><time>2026-04-18T12:26:07Z</time></trkpt><trkpt lat="43.964564800080424" lon="7.817942349939065"><ele>376.0</ele><time>2026-04-18T12:26:08Z</time></trkpt><trkpt lat="43.964452793389256" lon="7.817998736318474"><ele>374.0</ele><time>2026-04-18T12:26:09Z</time></trkpt><trkpt lat="43.96433296948474" lon="7.818097516863002"><ele>374.0</ele><time>2026-04-18T12:26:10Z</time></trkpt><trkpt lat="43.96421480702178" lon="7.818224596077554"><ele>374.0</ele><time>2026-04-18T12:26:11Z</time></trkpt><trkpt lat="43.96409616531827" lon="7.818325309874594"><ele>374.0</ele><time>2026-04-18T12:26:12Z</time></trkpt><trkpt lat="43.96396743463858" lon="7.818383879243464"><ele>374.0</ele><time>2026-04-18T12:26:13Z</time></trkpt><trkpt lat="43.963833641872135" lon="7.818421206994197"><ele>376.75</ele><time>2026-04-18T12:26:14Z</time></trkpt><trkpt lat="43.96371623940667" lon="7.818484952218073"><ele>379.5</ele><time>2026-04-18T12:26:15Z</time></trkpt><trkpt lat="43.9636210580973" lon="7.818586227507626"><ele>382.25</ele><time>2026-04-18T12:26:16Z</time></trkpt><trkpt lat="43.963559554673104" lon="7.8187312191298055"><ele>385.0</ele><time>2026-04-18T12:26:17Z</time></trkpt><trkpt lat="43.963515192904396" lon="7.818900643161994"><ele>385.0</ele><time>2026-04-18T12:26:18Z</time></trkpt><trkpt lat="43.96347886829693" lon="7.819089921110505"><ele>385.0</ele><time>2026-04-18T12:26:19Z</time></trkpt><trkpt lat="43.96342593951639" lon="7.819278149551395"><ele>385.0</ele><time>2026-04-18T12:26:20Z</time></trkpt><trkpt lat="43.96336655343993" lon="7.819476088192884"><ele>385.0</ele><time>2026-04-18T12:26:21Z</time></trkpt><trkpt lat="43.96330974925918" lon="7.819684455922739"><ele>381.33333333333337</ele><time>2026-04-18T12:26:22Z</time></trkpt><trkpt lat="43.96326224650451" lon="7.819902218213437"><ele>377.6666666666667</ele><time>2026-04-18T12:26:23Z</time></trkpt><trkpt lat="43.96321649120646" lon="7.8201260745273515"><ele>374.0</ele><time>2026-04-18T12:26:24Z</time></trkpt><trkpt lat="43.963177363514056" lon="7.8203449016136055"><ele>374.0</ele><time>2026-04-18T12:26:25Z</time></trkpt><trkpt lat="43.9631356419664" lon="7.820542038547936"><ele>374.0</ele><time>2026-04-18T12:26:26Z</time></trkpt><trkpt lat="43.96309470774845" lon="7.82073060263898"><ele>374.0</ele><time>2026-04-18T12:26:27Z</time></trkpt><trkpt lat="43.963050128641385" lon="7.820909226883557"><ele>374.0</ele><time>2026-04-18T12:26:28Z</time></trkpt><trkpt lat="43.962978872701235" lon="7.821061338853251"><ele>379.0</ele><time>2026-04-18T12:26:29Z</time></trkpt><trkpt lat="43.96291332877468" lon="7.821207717782352"><ele>384.0</ele><time>2026-04-18T12:26:30Z</time></trkpt><trkpt lat="43.96282953730977" lon="7.8213577058286585"><ele>389.0</ele><time>2026-04-18T12:26:31Z</time></trkpt><trkpt lat="43.96273790002691" lon="7.82150759455861"><ele>394.0</ele><time>2026-04-18T12:26:32Z</time></trkpt><trkpt lat="43.96265528009495" lon="7.8216634319357405"><ele>394.0</ele><time>2026-04-18T12:26:33Z</time></trkpt><trkpt lat="43.96256468996286" lon="7.821808265658977"><ele>394.0</ele><time>2026-04-18T12:26:34Z</time></trkpt><trkpt lat="43.9624747110204" lon="7.821928533389573"><ele>394.0</ele><time>2026-04-18T12:26:35Z</time></trkpt><trkpt lat="43.96235420744893" lon="7.82202218249223"><ele>394.0</ele><time>2026-04-18T12:26:36Z</time></trkpt><trkpt lat="43.962214731962455" lon="7.822080542944971"><ele>394.0</ele><time>2026-04-18T12:26:37Z</time></trkpt><trkpt lat="43.96207630160775" lon="7.822167022255329"><ele>394.0</ele><time>2026-04-18T12:26:38Z</time></trkpt><trkpt lat="43.961937302254135" lon="7.822247799768956"><ele>394.0</ele><time>2026-04-18T12:26:39Z</time></trkpt><trkpt lat="43.961797677916714" lon="7.822299451891345"><ele>394.0</ele><time>2026-04-18T12:26:40Z</time></trkpt><trkpt lat="43.96166366419882" lon="7.822341587562405"><ele>394.0</ele><time>2026-04-18T12:26:41Z</time></trkpt><trkpt lat="43.96153714050775" lon="7.822376824420921"><ele>394.0</ele><time>2026-04-18T12:26:42Z</time></trkpt><trkpt lat="43.96140844280786" lon="7.822384342309354"><ele>394.0</ele><time>2026-04-18T12:26:43Z</time></trkpt><trkpt lat="43.96127770655947" lon="7.822370769206352"><ele>394.0</ele><time>2026-04-18T12:26:44Z</time></trkpt><trkpt lat="43.96115533629866" lon="7.82232021315407"><ele>394.0</ele><time>2026-04-18T12:26:45Z</time></trkpt><trkpt lat="43.96104400357707" lon="7.822242912095971"><ele>394.0</ele><time>2026-04-18T12:26:46Z</time></trkpt><trkpt lat="43.96093874334785" lon="7.822142709819939"><ele>394.0</ele><time>2026-04-18T12:26:47Z</time></trkpt><trkpt lat="43.96082972962911" lon="7.822054936225307"><ele>394.0</ele><time>2026-04-18T12:26:48Z</time></trkpt><trkpt lat="43.96070494052425" lon="7.822050418611847"><ele>393.75</ele><time>2026-04-18T12:26:49Z</time></trkpt><trkpt lat="43.960571925964594" lon="7.822065412778686"><ele>393.5</ele><time>2026-04-18T12:26:50Z</time></trkpt><trkpt lat="43.96042980314178" lon="7.822055462908181"><ele>393.25</ele><time>2026-04-18T12:26:51Z</time></trkpt><trkpt lat="43.96028580178095" lon="7.822064922393942"><ele>393.0</ele><time>2026-04-18T12:26:52Z</time></trkpt><trkpt lat="43.96015263260546" lon="7.822084637643075"><ele>391.0</ele><time>2026-04-18T12:26:53Z</time></trkpt><trkpt lat="43.960022879933106" lon="7.8220960424550405"><ele>389.0</ele><time>2026-04-18T12:26:54Z</time></trkpt><trkpt lat="43.959894853341055" lon="7.822112610170938"><ele>387.0</ele><time>2026-04-18T12:26:55Z</time></trkpt><trkpt lat="43.95977542340522" lon="7.82216986404767"><ele>385.0</ele><time>2026-04-18T12:26:56Z</time></trkpt><trkpt lat="43.9596767127089" lon="7.822263171708443"><ele>385.0</ele><time>2026-04-18T12:26:57Z</time></trkpt><trkpt lat="43.959598677429234" lon="7.822411291289614"><ele>385.0</ele><time>2026-04-18T12:26:58Z</time></trkpt><trkpt lat="43.95952953481651" lon="7.822569396939929"><ele>385.0</ele><time>2026-04-18T12:26:59Z</time></trkpt><trkpt lat="43.95945291769938" lon="7.8227258712648275"><ele>385.0</ele><time>2026-04-18T12:27:00Z</time></trkpt><trkpt lat="43.959370421705366" lon="7.822886668487706"><ele>380.75</ele><time>2026-04-18T12:27:01Z</time></trkpt><trkpt lat="43.95927523021504" lon="7.823036943051191"><ele>376.5</ele><time>2026-04-18T12:27:02Z</time></trkpt><trkpt lat="43.95919405571022" lon="7.823184880835025"><ele>372.25</ele><time>2026-04-18T12:27:03Z</time></trkpt><trkpt lat="43.95911854378695" lon="7.82332466614529"><ele>368.0</ele><time>2026-04-18T12:27:04Z</time></trkpt><trkpt lat="43.959049290556436" lon="7.823447709247468"><ele>368.79999999999995</ele><time>2026-04-18T12:27:05Z</time></trkpt><trkpt lat="43.95899985471173" lon="7.823567266197127"><ele>369.6</ele><time>2026-04-18T12:27:06Z</time></trkpt><trkpt lat="43.958971643076325" lon="7.823697888481439"><ele>370.4</ele><time>2026-04-18T12:27:07Z</time></trkpt><trkpt lat="43.958968133763484" lon="7.8238400918614035"><ele>371.20000000000005</ele><time>2026-04-18T12:27:08Z</time></trkpt><trkpt lat="43.9589846287974" lon="7.823978916159016"><ele>372.0</ele><time>2026-04-18T12:27:09Z</time></trkpt><trkpt lat="43.9589679425148" lon="7.824099142126138"><ele>372.0</ele><time>2026-04-18T12:27:10Z</time></trkpt><trkpt lat="43.95893291627749" lon="7.824225833075244"><ele>372.0</ele><time>2026-04-18T12:27:11Z</time></trkpt><trkpt lat="43.95886301098718" lon="7.8243391684650785"><ele>372.0</ele><time>2026-04-18T12:27:12Z</time></trkpt><trkpt lat="43.95878914089417" lon="7.824473573078824"><ele>372.0</ele><time>2026-04-18T12:27:13Z</time></trkpt><trkpt lat="43.958723050763744" lon="7.824615028970601"><ele>372.0</ele><time>2026-04-18T12:27:14Z</time></trkpt><trkpt lat="43.958634831657854" lon="7.824760869496014"><ele>372.25</ele><time>2026-04-18T12:27:15Z</time></trkpt><trkpt lat="43.958557795533295" lon="7.824899958890751"><ele>372.5</ele><time>2026-04-18T12:27:16Z</time></trkpt><trkpt lat="43.958479424685365" lon="7.825020007334322"><ele>372.75</ele><time>2026-04-18T12:27:17Z</time></trkpt><trkpt lat="43.95840018003778" lon="7.8251161984026485"><ele>373.0</ele><time>2026-04-18T12:27:18Z</time></trkpt><trkpt lat="43.95829924189052" lon="7.825170629672982"><ele>377.4</ele><time>2026-04-18T12:27:19Z</time></trkpt><trkpt lat="43.958195672551014" lon="7.825181044837542"><ele>381.79999999999995</ele><time>2026-04-18T12:27:20Z</time></trkpt><trkpt lat="43.958089754907405" lon="7.825175657633261"><ele>386.2</ele><time>2026-04-18T12:27:21Z</time></trkpt><trkpt lat="43.95798700209912" lon="7.82520043179139"><ele>390.6</ele><time>2026-04-18T12:27:21.999Z</time></trkpt><trkpt lat="43.95788644387472" lon="7.825274130279253"><ele>395.0</ele><time>2026-04-18T12:27:22.999Z</time></trkpt><trkpt lat="43.95780569254217" lon="7.825396323750038"><ele>395.0</ele><time>2026-04-18T12:27:23.999Z</time></trkpt><trkpt lat="43.95773893808283" lon="7.825547379953388"><ele>395.0</ele><time>2026-04-18T12:27:24.999Z</time></trkpt><trkpt lat="43.957668464367366" lon="7.825716464927857"><ele>395.0</ele><time>2026-04-18T12:27:25.999Z</time></trkpt><trkpt lat="43.95758049505555" lon="7.825895109056397"><ele>395.0</ele><time>2026-04-18T12:27:26.999Z</time></trkpt><trkpt lat="43.95749338012815" lon="7.8260756149723685"><ele>392.66666666666663</ele><time>2026-04-18T12:27:27.999Z</time></trkpt><trkpt lat="43.95740681729275" lon="7.826252045172392"><ele>390.33333333333337</ele><time>2026-04-18T12:27:28.999Z</time></trkpt><trkpt lat="43.9573117547429" lon="7.82644744466577"><ele>388.0</ele><time>2026-04-18T12:27:29.999Z</time></trkpt><trkpt lat="43.95722485520562" lon="7.826633873286894"><ele>388.0</ele><time>2026-04-18T12:27:30.999Z</time></trkpt><trkpt lat="43.95714324284873" lon="7.826807152923068"><ele>388.0</ele><time>2026-04-18T12:27:31.999Z</time></trkpt><trkpt lat="43.95706545408838" lon="7.826963669188099"><ele>388.0</ele><time>2026-04-18T12:27:32.999Z</time></trkpt><trkpt lat="43.95697013765701" lon="7.8270913884888484"><ele>388.0</ele><time>2026-04-18T12:27:33.999Z</time></trkpt><trkpt lat="43.956858172784244" lon="7.827194628347331"><ele>383.5</ele><time>2026-04-18T12:27:34.999Z</time></trkpt><trkpt lat="43.95675027707054" lon="7.827319204605617"><ele>379.0</ele><time>2026-04-18T12:27:35.999Z</time></trkpt><trkpt lat="43.95665359482315" lon="7.827478633040876"><ele>374.5</ele><time>2026-04-18T12:27:36.999Z</time></trkpt><trkpt lat="43.95655885849582" lon="7.827646778432409"><ele>370.0</ele><time>2026-04-18T12:27:38Z</time></trkpt><trkpt lat="43.95644292350257" lon="7.827796910261576"><ele>381.0</ele><time>2026-04-18T12:27:39Z</time></trkpt><trkpt lat="43.95632132145961" lon="7.82792261988367"><ele>392.0</ele><time>2026-04-18T12:27:40Z</time></trkpt><trkpt lat="43.95620512046322" lon="7.828030686880225"><ele>403.0</ele><time>2026-04-18T12:27:41Z</time></trkpt><trkpt lat="43.95608255157105" lon="7.828104493448202"><ele>414.0</ele><time>2026-04-18T12:27:42Z</time></trkpt><trkpt lat="43.95595938194744" lon="7.82814706476494"><ele>412.0</ele><time>2026-04-18T12:27:43Z</time></trkpt><trkpt lat="43.95583923872653" lon="7.828185465514604"><ele>410.0</ele><time>2026-04-18T12:27:44Z</time></trkpt><trkpt lat="43.955708868233835" lon="7.828244253359125"><ele>408.0</ele><time>2026-04-18T12:27:45Z</time></trkpt><trkpt lat="43.9555910094904" lon="7.828350334572054"><ele>406.0</ele><time>2026-04-18T12:27:46Z</time></trkpt><trkpt lat="43.955488385362145" lon="7.828488074935111"><ele>406.0</ele><time>2026-04-18T12:27:47Z</time></trkpt><trkpt lat="43.95538883650499" lon="7.828648871799392"><ele>406.0</ele><time>2026-04-18T12:27:48Z</time></trkpt><trkpt lat="43.95529115371473" lon="7.828804612104494"><ele>406.0</ele><time>2026-04-18T12:27:49Z</time></trkpt><trkpt lat="43.955188638314176" lon="7.828957518036976"><ele>406.0</ele><time>2026-04-18T12:27:50Z</time></trkpt><trkpt lat="43.95508988842617" lon="7.829108141267561"><ele>406.0</ele><time>2026-04-18T12:27:51Z</time></trkpt><trkpt lat="43.95500210603497" lon="7.8292376936662516"><ele>406.0</ele><time>2026-04-18T12:27:52Z</time></trkpt><trkpt lat="43.95491873870322" lon="7.829333440909948"><ele>406.0</ele><time>2026-04-18T12:27:53Z</time></trkpt><trkpt lat="43.95481529594943" lon="7.829380589222419"><ele>406.0</ele><time>2026-04-18T12:27:54Z</time></trkpt><trkpt lat="43.95470431498225" lon="7.829405906197688"><ele>406.0</ele><time>2026-04-18T12:27:55Z</time></trkpt><trkpt lat="43.954595151490736" lon="7.829466581811166"><ele>406.0</ele><time>2026-04-18T12:27:56Z</time></trkpt><trkpt lat="43.95450161524392" lon="7.829590545669205"><ele>406.0</ele><time>2026-04-18T12:27:57Z</time></trkpt><trkpt lat="43.95442007179961" lon="7.8297400254056875"><ele>406.0</ele><time>2026-04-18T12:27:58Z</time></trkpt><trkpt lat="43.95433762288576" lon="7.829855529812807"><ele>406.0</ele><time>2026-04-18T12:27:59Z</time></trkpt><trkpt lat="43.954242076461064" lon="7.829927590675401"><ele>406.0</ele><time>2026-04-18T12:28:00Z</time></trkpt><trkpt lat="43.954124589504325" lon="7.829964305515844"><ele>406.0</ele><time>2026-04-18T12:28:01Z</time></trkpt><trkpt lat="43.9539998877417" lon="7.8299851866173595"><ele>403.0</ele><time>2026-04-18T12:28:02Z</time></trkpt><trkpt lat="43.95387928306588" lon="7.830057469256658"><ele>400.0</ele><time>2026-04-18T12:28:03Z</time></trkpt><trkpt lat="43.95377484717615" lon="7.8301452843008015"><ele>397.0</ele><time>2026-04-18T12:28:04Z</time></trkpt><trkpt lat="43.95367046884653" lon="7.830173021102871"><ele>394.0</ele><time>2026-04-18T12:28:05Z</time></trkpt><trkpt lat="43.95357714284942" lon="7.830195714889859"><ele>394.0</ele><time>2026-04-18T12:28:06Z</time></trkpt><trkpt lat="43.953486262685914" lon="7.830137762132458"><ele>394.0</ele><time>2026-04-18T12:28:07Z</time></trkpt><trkpt lat="43.95341872549739" lon="7.83003426258002"><ele>394.0</ele><time>2026-04-18T12:28:08Z</time></trkpt><trkpt lat="43.953333689435745" lon="7.829942384822128"><ele>394.0</ele><time>2026-04-18T12:28:09Z</time></trkpt><trkpt lat="43.95321943539813" lon="7.8299038668926"><ele>394.0</ele><time>2026-04-18T12:28:10Z</time></trkpt><trkpt lat="43.953090709144966" lon="7.829892055127377"><ele>391.2</ele><time>2026-04-18T12:28:11Z</time></trkpt><trkpt lat="43.95297021871069" lon="7.829889772944055"><ele>388.4</ele><time>2026-04-18T12:28:12Z</time></trkpt><trkpt lat="43.95287458633219" lon="7.829896237416965"><ele>385.6</ele><time>2026-04-18T12:28:13Z</time></trkpt><trkpt lat="43.952794772115986" lon="7.829940730157622"><ele>382.8</ele><time>2026-04-18T12:28:14Z</time></trkpt><trkpt lat="43.952739078286115" lon="7.830021079200631"><ele>380.0</ele><time>2026-04-18T12:28:15Z</time></trkpt><trkpt lat="43.95270017413205" lon="7.83014511114873"><ele>389.5</ele><time>2026-04-18T12:28:16Z</time></trkpt><trkpt lat="43.95268319822553" lon="7.830300381338705"><ele>399.0</ele><time>2026-04-18T12:28:17Z</time></trkpt><trkpt lat="43.95268571233057" lon="7.8304834419664955"><ele>408.5</ele><time>2026-04-18T12:28:18Z</time></trkpt><trkpt lat="43.95268109161402" lon="7.830681202737245"><ele>418.0</ele><time>2026-04-18T12:28:19Z</time></trkpt><trkpt lat="43.95264535333019" lon="7.830893438743576"><ele>414.6666666666667</ele><time>2026-04-18T12:28:20Z</time></trkpt><trkpt lat="43.95257894372107" lon="7.83108250289969"><ele>411.33333333333337</ele><time>2026-04-18T12:28:21Z</time></trkpt><trkpt lat="43.95248950827329" lon="7.8312792527672075"><ele>408.0</ele><time>2026-04-18T12:28:22Z</time></trkpt><trkpt lat="43.95239015321184" lon="7.831474132373133"><ele>408.0</ele><time>2026-04-18T12:28:23Z</time></trkpt><trkpt lat="43.95229760255128" lon="7.831653928993466"><ele>408.0</ele><time>2026-04-18T12:28:24Z</time></trkpt><trkpt lat="43.95221184291916" lon="7.831812579485847"><ele>408.0</ele><time>2026-04-18T12:28:25Z</time></trkpt><trkpt lat="43.95213982714119" lon="7.831961351155295"><ele>408.0</ele><time>2026-04-18T12:28:26Z</time></trkpt><trkpt lat="43.95206353634021" lon="7.8320961679804455"><ele>407.0</ele><time>2026-04-18T12:28:27Z</time></trkpt><trkpt lat="43.95197620393211" lon="7.832186937608693"><ele>406.0</ele><time>2026-04-18T12:28:28Z</time></trkpt><trkpt lat="43.95189076969224" lon="7.832255688606837"><ele>405.0</ele><time>2026-04-18T12:28:29Z</time></trkpt><trkpt lat="43.9517870496129" lon="7.8322653118581345"><ele>404.0</ele><time>2026-04-18T12:28:30Z</time></trkpt><trkpt lat="43.95166307393112" lon="7.8322791033935655"><ele>403.0</ele><time>2026-04-18T12:28:31Z</time></trkpt><trkpt lat="43.95152827150475" lon="7.832329176845091"><ele>403.0</ele><time>2026-04-18T12:28:32Z</time></trkpt><trkpt lat="43.95140374596273" lon="7.832360447939723"><ele>403.0</ele><time>2026-04-18T12:28:33Z</time></trkpt><trkpt lat="43.951296479891326" lon="7.832421575888535"><ele>403.0</ele><time>2026-04-18T12:28:34Z</time></trkpt><trkpt lat="43.95120237868181" lon="7.832510645298819"><ele>403.0</ele><time>2026-04-18T12:28:35Z</time></trkpt><trkpt lat="43.95113267713984" lon="7.832641912486786"><ele>405.75</ele><time>2026-04-18T12:28:36Z</time></trkpt><trkpt lat="43.95109837697126" lon="7.832792708432021"><ele>408.5</ele><time>2026-04-18T12:28:37Z</time></trkpt><trkpt lat="43.95110068936849" lon="7.832964761631769"><ele>411.25</ele><time>2026-04-18T12:28:38Z</time></trkpt><trkpt lat="43.95115702163285" lon="7.833145995578233"><ele>414.0</ele><time>2026-04-18T12:28:39Z</time></trkpt><trkpt lat="43.951202380637525" lon="7.833316409136786"><ele>413.0</ele><time>2026-04-18T12:28:40Z</time></trkpt><trkpt lat="43.951261172073444" lon="7.83348412062489"><ele>412.0</ele><time>2026-04-18T12:28:41Z</time></trkpt><trkpt lat="43.95130443518705" lon="7.833653399634863"><ele>411.0</ele><time>2026-04-18T12:28:42Z</time></trkpt><trkpt lat="43.951340358749064" lon="7.833810763962059"><ele>410.0</ele><time>2026-04-18T12:28:43Z</time></trkpt><trkpt lat="43.951349979959986" lon="7.833953561392686"><ele>409.99999999999994</ele><time>2026-04-18T12:28:44Z</time></trkpt><trkpt lat="43.95133375272984" lon="7.8340851734439365"><ele>410.0</ele><time>2026-04-18T12:28:45Z</time></trkpt><trkpt lat="43.95129643791346" lon="7.834196340505674"><ele>410.0</ele><time>2026-04-18T12:28:46Z</time></trkpt><trkpt lat="43.95123939066298" lon="7.834287989841484"><ele>410.0</ele><time>2026-04-18T12:28:47Z</time></trkpt><trkpt lat="43.95116388641872" lon="7.834336995891022"><ele>409.99999999999994</ele><time>2026-04-18T12:28:48Z</time></trkpt><trkpt lat="43.95107218480561" lon="7.834355864141441"><ele>410.0</ele><time>2026-04-18T12:28:49Z</time></trkpt><trkpt lat="43.9509786844242" lon="7.834324666137186"><ele>410.0</ele><time>2026-04-18T12:28:50Z</time></trkpt><trkpt lat="43.95090595206809" lon="7.834231198994417"><ele>410.0</ele><time>2026-04-18T12:28:51Z</time></trkpt><trkpt lat="43.95081690644524" lon="7.834117913673679"><ele>410.0</ele><time>2026-04-18T12:28:52Z</time></trkpt><trkpt lat="43.95070360690964" lon="7.834029067282518"><ele>410.0</ele><time>2026-04-18T12:28:53Z</time></trkpt><trkpt lat="43.95059964679772" lon="7.833952564794371"><ele>406.4</ele><time>2026-04-18T12:28:54Z</time></trkpt><trkpt lat="43.950491399012186" lon="7.833901146608018"><ele>402.8</ele><time>2026-04-18T12:28:55Z</time></trkpt><trkpt lat="43.95037944779547" lon="7.833879021005428"><ele>399.20000000000005</ele><time>2026-04-18T12:28:56Z</time></trkpt><trkpt lat="43.95027444795674" lon="7.8339042032448685"><ele>395.6</ele><time>2026-04-18T12:28:57Z</time></trkpt><trkpt lat="43.95018350586224" lon="7.833979016427918"><ele>392.0</ele><time>2026-04-18T12:28:58Z</time></trkpt><trkpt lat="43.950105258291316" lon="7.8340728753486575"><ele>391.3333333333333</ele><time>2026-04-18T12:28:59Z</time></trkpt><trkpt lat="43.95001864885099" lon="7.834118160029516"><ele>390.66666666666663</ele><time>2026-04-18T12:29:00Z</time></trkpt><trkpt lat="43.94993150289203" lon="7.834143805103743"><ele>390.0</ele><time>2026-04-18T12:29:01Z</time></trkpt><trkpt lat="43.94984452558387" lon="7.83413041607154"><ele>389.33333333333337</ele><time>2026-04-18T12:29:02Z</time></trkpt><trkpt lat="43.949768571380666" lon="7.834111544271609"><ele>388.6666666666667</ele><time>2026-04-18T12:29:03Z</time></trkpt><trkpt lat="43.94972445600322" lon="7.8339984266215525"><ele>388.0</ele><time>2026-04-18T12:29:04Z</time></trkpt><trkpt lat="43.94968528157428" lon="7.8338777663034085"><ele>388.0</ele><time>2026-04-18T12:29:05Z</time></trkpt><trkpt lat="43.949642565040115" lon="7.833745937691256"><ele>388.0</ele><time>2026-04-18T12:29:06Z</time></trkpt><trkpt lat="43.949616721092056" lon="7.833621535688014"><ele>388.0</ele><time>2026-04-18T12:29:07Z</time></trkpt><trkpt lat="43.949566977726505" lon="7.833519078336595"><ele>388.0</ele><time>2026-04-18T12:29:08Z</time></trkpt><trkpt lat="43.94950448857398" lon="7.833445761789685"><ele>388.0</ele><time>2026-04-18T12:29:09Z</time></trkpt><trkpt lat="43.94940658025379" lon="7.8334052248549755"><ele>387.4</ele><time>2026-04-18T12:29:10Z</time></trkpt><trkpt lat="43.949303234711124" lon="7.8334207044146265"><ele>386.79999999999995</ele><time>2026-04-18T12:29:11Z</time></trkpt><trkpt lat="43.949211584851206" lon="7.833467109869086"><ele>386.2</ele><time>2026-04-18T12:29:12Z</time></trkpt><trkpt lat="43.949154269071535" lon="7.83355832107614"><ele>385.6</ele><time>2026-04-18T12:29:13Z</time></trkpt><trkpt lat="43.94912579992245" lon="7.833683667459923"><ele>385.0</ele><time>2026-04-18T12:29:14Z</time></trkpt><trkpt lat="43.949100377434405" lon="7.833820772413193"><ele>385.0</ele><time>2026-04-18T12:29:15Z</time></trkpt><trkpt lat="43.9490538180577" lon="7.833934849930012"><ele>385.0</ele><time>2026-04-18T12:29:16Z</time></trkpt><trkpt lat="43.949016801036656" lon="7.834038622099143"><ele>385.0</ele><time>2026-04-18T12:29:17Z</time></trkpt><trkpt lat="43.94892312552877" lon="7.834060263481055"><ele>385.0</ele><time>2026-04-18T12:29:18Z</time></trkpt><trkpt lat="43.94882676119474" lon="7.8340493052648466"><ele>385.0</ele><time>2026-04-18T12:29:19Z</time></trkpt><trkpt lat="43.948733421168264" lon="7.8339800870398175"><ele>385.0</ele><time>2026-04-18T12:29:20Z</time></trkpt><trkpt lat="43.94861992915414" lon="7.83395164419508"><ele>385.0</ele><time>2026-04-18T12:29:21Z</time></trkpt><trkpt lat="43.948519486821816" lon="7.833934012356501"><ele>385.0</ele><time>2026-04-18T12:29:22Z</time></trkpt><trkpt lat="43.948428041089116" lon="7.833958560309907"><ele>385.0</ele><time>2026-04-18T12:29:23Z</time></trkpt><trkpt lat="43.9483455010104" lon="7.83401403468586"><ele>385.0</ele><time>2026-04-18T12:29:24Z</time></trkpt><trkpt lat="43.94829446169798" lon="7.834105988243178"><ele>383.6</ele><time>2026-04-18T12:29:25Z</time></trkpt><trkpt lat="43.948254629975814" lon="7.83422722334043"><ele>382.2</ele><time>2026-04-18T12:29:26Z</time></trkpt><trkpt lat="43.94824560167605" lon="7.834365685095308"><ele>380.79999999999995</ele><time>2026-04-18T12:29:27Z</time></trkpt><trkpt lat="43.94825667198199" lon="7.834514425452689"><ele>379.4</ele><time>2026-04-18T12:29:28Z</time></trkpt><trkpt lat="43.948273618885906" lon="7.834677555578557"><ele>378.0</ele><time>2026-04-18T12:29:28.999Z</time></trkpt><trkpt lat="43.94827638433574" lon="7.83483342049958"><ele>378.0</ele><time>2026-04-18T12:29:29.999Z</time></trkpt><trkpt lat="43.948274803086285" lon="7.83496318895303"><ele>378.0</ele><time>2026-04-18T12:29:30.999Z</time></trkpt><trkpt lat="43.94825881766452" lon="7.835082100508186"><ele>378.0</ele><time>2026-04-18T12:29:31.999Z</time></trkpt><trkpt lat="43.94821873057145" lon="7.835190543353241"><ele>378.0</ele><time>2026-04-18T12:29:32.999Z</time></trkpt><trkpt lat="43.94815693033195" lon="7.835271708508965"><ele>378.0</ele><time>2026-04-18T12:29:33.999Z</time></trkpt><trkpt lat="43.948067660714656" lon="7.835334875881437"><ele>385.25</ele><time>2026-04-18T12:29:34.999Z</time></trkpt><trkpt lat="43.947972198891534" lon="7.835370416264505"><ele>392.5</ele><time>2026-04-18T12:29:35.999Z</time></trkpt><trkpt lat="43.94786593139393" lon="7.835434579070196"><ele>399.75</ele><time>2026-04-18T12:29:36.999Z</time></trkpt><trkpt lat="43.94776971362592" lon="7.83552728804715"><ele>407.0</ele><time>2026-04-18T12:29:37.999Z</time></trkpt><trkpt lat="43.94768606339259" lon="7.83565938413632"><ele>407.0</ele><time>2026-04-18T12:29:38.999Z</time></trkpt><trkpt lat="43.947629666758715" lon="7.835813296183293"><ele>407.0</ele><time>2026-04-18T12:29:39.999Z</time></trkpt><trkpt lat="43.947573484098164" lon="7.835962030867192"><ele>407.0</ele><time>2026-04-18T12:29:40.999Z</time></trkpt><trkpt lat="43.94751538936912" lon="7.836096399467903"><ele>407.0</ele><time>2026-04-18T12:29:41.999Z</time></trkpt><trkpt lat="43.9474506003609" lon="7.836214696054658"><ele>407.20000000000005</ele><time>2026-04-18T12:29:42.999Z</time></trkpt><trkpt lat="43.94737094740976" lon="7.836298697516064"><ele>407.4</ele><time>2026-04-18T12:29:44Z</time></trkpt><trkpt lat="43.94726160895588" lon="7.83629797581642"><ele>407.6</ele><time>2026-04-18T12:29:45Z</time></trkpt><trkpt lat="43.947151040064355" lon="7.836330189011378"><ele>407.79999999999995</ele><time>2026-04-18T12:29:46Z</time></trkpt><trkpt lat="43.94703378599824" lon="7.836386327946018"><ele>408.0</ele><time>2026-04-18T12:29:47Z</time></trkpt><trkpt lat="43.94692180478403" lon="7.836481104574015"><ele>408.0</ele><time>2026-04-18T12:29:48Z</time></trkpt><trkpt lat="43.94680434417278" lon="7.836573142885536"><ele>408.0</ele><time>2026-04-18T12:29:49Z</time></trkpt><trkpt lat="43.946686452602506" lon="7.83663593346269"><ele>408.0</ele><time>2026-04-18T12:29:50Z</time></trkpt><trkpt lat="43.946576140458404" lon="7.836670988763907"><ele>408.0</ele><time>2026-04-18T12:29:51Z</time></trkpt><trkpt lat="43.946473465081226" lon="7.836732061431882"><ele>408.25</ele><time>2026-04-18T12:29:52Z</time></trkpt><trkpt lat="43.946382857754166" lon="7.8368389467472745"><ele>408.5</ele><time>2026-04-18T12:29:53Z</time></trkpt><trkpt lat="43.946313730055905" lon="7.836979821903633"><ele>408.75</ele><time>2026-04-18T12:29:54Z</time></trkpt><trkpt lat="43.946285767712446" lon="7.8371303679343"><ele>409.0</ele><time>2026-04-18T12:29:55Z</time></trkpt><trkpt lat="43.946275706031585" lon="7.83727565258343"><ele>409.00000000000006</ele><time>2026-04-18T12:29:56Z</time></trkpt><trkpt lat="43.9462452070601" lon="7.837394102100967"><ele>409.0</ele><time>2026-04-18T12:29:57Z</time></trkpt><trkpt lat="43.94620526360415" lon="7.837479459508149"><ele>409.0</ele><time>2026-04-18T12:29:58Z</time></trkpt><trkpt lat="43.94614417909428" lon="7.837557797192199"><ele>409.0</ele><time>2026-04-18T12:29:59Z</time></trkpt><trkpt lat="43.946060119710324" lon="7.837574529373915"><ele>409.00000000000006</ele><time>2026-04-18T12:30:00Z</time></trkpt><trkpt lat="43.94597618164832" lon="7.837552542002138"><ele>409.0</ele><time>2026-04-18T12:30:01Z</time></trkpt><trkpt lat="43.945896839711445" lon="7.837473655508127"><ele>404.5</ele><time>2026-04-18T12:30:02Z</time></trkpt><trkpt lat="43.945819922462796" lon="7.83735681345098"><ele>400.0</ele><time>2026-04-18T12:30:03Z</time></trkpt><trkpt lat="43.9457400525085" lon="7.837229900885286"><ele>395.5</ele><time>2026-04-18T12:30:04Z</time></trkpt><trkpt lat="43.94565581396038" lon="7.837094401889309"><ele>391.0</ele><time>2026-04-18T12:30:05Z</time></trkpt><trkpt lat="43.94557617906306" lon="7.836966777274711"><ele>391.0</ele><time>2026-04-18T12:30:06Z</time></trkpt><trkpt lat="43.94548912165015" lon="7.836854264668146"><ele>391.0</ele><time>2026-04-18T12:30:07Z</time></trkpt><trkpt lat="43.9453862154247" lon="7.836762937571152"><ele>391.0</ele><time>2026-04-18T12:30:08Z</time></trkpt><trkpt lat="43.94525518824847" lon="7.836730339143802"><ele>391.0</ele><time>2026-04-18T12:30:09Z</time></trkpt><trkpt lat="43.94512594325452" lon="7.836692971759574"><ele>386.75</ele><time>2026-04-18T12:30:10Z</time></trkpt><trkpt lat="43.945005881506795" lon="7.836666426504425"><ele>382.5</ele><time>2026-04-18T12:30:11Z</time></trkpt><trkpt lat="43.944918681458404" lon="7.836578896573531"><ele>378.25</ele><time>2026-04-18T12:30:12Z</time></trkpt><trkpt lat="43.944844312655775" lon="7.836461940760398"><ele>374.0</ele><time>2026-04-18T12:30:13Z</time></trkpt><trkpt lat="43.944767651917" lon="7.836330830329956"><ele>374.0</ele><time>2026-04-18T12:30:14Z</time></trkpt><trkpt lat="43.94470617641849" lon="7.8362023267865615"><ele>374.0</ele><time>2026-04-18T12:30:15Z</time></trkpt><trkpt lat="43.94466399721877" lon="7.836057599132803"><ele>374.0</ele><time>2026-04-18T12:30:16Z</time></trkpt><trkpt lat="43.94465015890038" lon="7.835908650991596"><ele>374.0</ele><time>2026-04-18T12:30:17Z</time></trkpt><trkpt lat="43.944632927760765" lon="7.835772969520419"><ele>374.0</ele><time>2026-04-18T12:30:18Z</time></trkpt><trkpt lat="43.94457128118537" lon="7.83565851842124"><ele>380.75</ele><time>2026-04-18T12:30:19Z</time></trkpt><trkpt lat="43.94445167954979" lon="7.835582399855213"><ele>387.5</ele><time>2026-04-18T12:30:20Z</time></trkpt><trkpt lat="43.944321246935125" lon="7.83548232358087"><ele>394.25</ele><time>2026-04-18T12:30:21Z</time></trkpt><trkpt lat="43.94420563778462" lon="7.835365196398504"><ele>401.0</ele><time>2026-04-18T12:30:22Z</time></trkpt><trkpt lat="43.944097216510826" lon="7.835272121680552"><ele>401.0</ele><time>2026-04-18T12:30:23Z</time></trkpt><trkpt lat="43.94400851699169" lon="7.835171609826817"><ele>401.0</ele><time>2026-04-18T12:30:24Z</time></trkpt><trkpt lat="43.94394198319297" lon="7.835051244790247"><ele>401.0</ele><time>2026-04-18T12:30:25Z</time></trkpt><trkpt lat="43.94389098430671" lon="7.834914702986036"><ele>401.0</ele><time>2026-04-18T12:30:26Z</time></trkpt><trkpt lat="43.94382233423551" lon="7.834820769227287"><ele>401.0</ele><time>2026-04-18T12:30:27Z</time></trkpt><trkpt lat="43.9437124272405" lon="7.8347895379968415"><ele>387.75</ele><time>2026-04-18T12:30:28Z</time></trkpt><trkpt lat="43.94358100484481" lon="7.834801600412394"><ele>374.5</ele><time>2026-04-18T12:30:29Z</time></trkpt><trkpt lat="43.943452535822914" lon="7.834838615793444"><ele>361.25</ele><time>2026-04-18T12:30:30Z</time></trkpt><trkpt lat="43.94333894912689" lon="7.834865578669024"><ele>348.0</ele><time>2026-04-18T12:30:31Z</time></trkpt><trkpt lat="43.94323219585346" lon="7.834898108114765"><ele>348.0</ele><time>2026-04-18T12:30:32Z</time></trkpt><trkpt lat="43.94313527566117" lon="7.834950472764031"><ele>348.0</ele><time>2026-04-18T12:30:33Z</time></trkpt><trkpt lat="43.943071393138034" lon="7.835078277565429"><ele>348.0</ele><time>2026-04-18T12:30:34Z</time></trkpt><trkpt lat="43.943033513085005" lon="7.8352077953429085"><ele>348.0</ele><time>2026-04-18T12:30:35Z</time></trkpt><trkpt lat="43.94302320624332" lon="7.835345636679401"><ele>348.0</ele><time>2026-04-18T12:30:36Z</time></trkpt><trkpt lat="43.942988837076875" lon="7.835463549041445"><ele>357.79999999999995</ele><time>2026-04-18T12:30:37Z</time></trkpt><trkpt lat="43.94293410303957" lon="7.835556253615499"><ele>367.6</ele><time>2026-04-18T12:30:38Z</time></trkpt><trkpt lat="43.94286034994835" lon="7.835620892248964"><ele>377.4</ele><time>2026-04-18T12:30:39Z</time></trkpt><trkpt lat="43.94277757495342" lon="7.835645331155204"><ele>387.20000000000005</ele><time>2026-04-18T12:30:40Z</time></trkpt><trkpt lat="43.94268047602714" lon="7.8356127993052205"><ele>397.0</ele><time>2026-04-18T12:30:41Z</time></trkpt><trkpt lat="43.94255707449378" lon="7.835592108822602"><ele>391.0</ele><time>2026-04-18T12:30:42Z</time></trkpt><trkpt lat="43.94242269914874" lon="7.835567454406584"><ele>385.0</ele><time>2026-04-18T12:30:43Z</time></trkpt><trkpt lat="43.942278308538235" lon="7.8355411234792"><ele>379.0</ele><time>2026-04-18T12:30:44Z</time></trkpt><trkpt lat="43.94212186964141" lon="7.835537548015584"><ele>373.0</ele><time>2026-04-18T12:30:45Z</time></trkpt><trkpt lat="43.94196727684902" lon="7.835532784163011"><ele>373.0</ele><time>2026-04-18T12:30:46Z</time></trkpt><trkpt lat="43.94180891108421" lon="7.835556492256221"><ele>373.0</ele><time>2026-04-18T12:30:47Z</time></trkpt><trkpt lat="43.94165475147125" lon="7.835559376505417"><ele>373.0</ele><time>2026-04-18T12:30:48Z</time></trkpt><trkpt lat="43.94151137072341" lon="7.835565827995873"><ele>370.5</ele><time>2026-04-18T12:30:49Z</time></trkpt><trkpt lat="43.94136842398356" lon="7.83557108084657"><ele>368.0</ele><time>2026-04-18T12:30:50Z</time></trkpt><trkpt lat="43.941236440649504" lon="7.835574757948058"><ele>365.5</ele><time>2026-04-18T12:30:51Z</time></trkpt><trkpt lat="43.941105045651064" lon="7.835543670494558"><ele>363.0</ele><time>2026-04-18T12:30:52Z</time></trkpt><trkpt lat="43.94097607353245" lon="7.835461681757297"><ele>369.75</ele><time>2026-04-18T12:30:53Z</time></trkpt><trkpt lat="43.940852474902535" lon="7.835378682545433"><ele>376.5</ele><time>2026-04-18T12:30:54Z</time></trkpt><trkpt lat="43.94074176508442" lon="7.835277098850785"><ele>383.25</ele><time>2026-04-18T12:30:55Z</time></trkpt><trkpt lat="43.94064525532157" lon="7.8351373120688255"><ele>390.0</ele><time>2026-04-18T12:30:56Z</time></trkpt><trkpt lat="43.94056310012029" lon="7.8349609512828895"><ele>370.6666666666667</ele><time>2026-04-18T12:30:57Z</time></trkpt><trkpt lat="43.94047572205133" lon="7.8347690214988255"><ele>351.33333333333337</ele><time>2026-04-18T12:30:58Z</time></trkpt><trkpt lat="43.940387161483386" lon="7.8346019006917045"><ele>332.0</ele><time>2026-04-18T12:30:59Z</time></trkpt><trkpt lat="43.940296777773376" lon="7.834440486500952"><ele>323.25</ele><time>2026-04-18T12:31:00Z</time></trkpt><trkpt lat="43.940214210398466" lon="7.834270164569321"><ele>314.5</ele><time>2026-04-18T12:31:01Z</time></trkpt><trkpt lat="43.940144806468545" lon="7.834095942034252"><ele>305.75</ele><time>2026-04-18T12:31:02Z</time></trkpt><trkpt lat="43.94012023535193" lon="7.833902094647803"><ele>297.0</ele><time>2026-04-18T12:31:03Z</time></trkpt><trkpt lat="43.94009537788579" lon="7.833709959760641"><ele>297.0</ele><time>2026-04-18T12:31:04Z</time></trkpt><trkpt lat="43.940065234844795" lon="7.833523890168464"><ele>297.0</ele><time>2026-04-18T12:31:05Z</time></trkpt><trkpt lat="43.94004085126867" lon="7.833345338663854"><ele>297.0</ele><time>2026-04-18T12:31:06Z</time></trkpt><trkpt lat="43.94002120977282" lon="7.833184938285078"><ele>297.0</ele><time>2026-04-18T12:31:07Z</time></trkpt><trkpt lat="43.93999164122999" lon="7.833051443390196"><ele>300.4</ele><time>2026-04-18T12:31:07.999Z</time></trkpt><trkpt lat="43.93993857118966" lon="7.832952582770133"><ele>303.79999999999995</ele><time>2026-04-18T12:31:08.999Z</time></trkpt><trkpt lat="43.939860380506" lon="7.832887314120236"><ele>307.2</ele><time>2026-04-18T12:31:09.999Z</time></trkpt><trkpt lat="43.93976783163426" lon="7.8328761520407415"><ele>310.59999999999997</ele><time>2026-04-18T12:31:10.999Z</time></trkpt><trkpt lat="43.93967704347933" lon="7.8329049578350105"><ele>314.0</ele><time>2026-04-18T12:31:11.999Z</time></trkpt><trkpt lat="43.93959966984209" lon="7.832986589257665"><ele>314.0</ele><time>2026-04-18T12:31:12.999Z</time></trkpt><trkpt lat="43.93953777715665" lon="7.833115967488304"><ele>314.0</ele><time>2026-04-18T12:31:13.999Z</time></trkpt><trkpt lat="43.93948096679333" lon="7.833282056938099"><ele>314.0</ele><time>2026-04-18T12:31:14.999Z</time></trkpt><trkpt lat="43.93943065196384" lon="7.8334722273724555"><ele>314.0</ele><time>2026-04-18T12:31:15.999Z</time></trkpt><trkpt lat="43.93937251356372" lon="7.833669259687309"><ele>312.33333333333337</ele><time>2026-04-18T12:31:16.999Z</time></trkpt><trkpt lat="43.93929394455097" lon="7.833857253851255"><ele>310.6666666666667</ele><time>2026-04-18T12:31:17.999Z</time></trkpt><trkpt lat="43.93919661454072" lon="7.834055357519556"><ele>309.0</ele><time>2026-04-18T12:31:18.999Z</time></trkpt><trkpt lat="43.93910325669973" lon="7.83425099514321"><ele>315.6666666666667</ele><time>2026-04-18T12:31:19.999Z</time></trkpt><trkpt lat="43.93901853152796" lon="7.834435992559384"><ele>322.33333333333337</ele><time>2026-04-18T12:31:20.999Z</time></trkpt><trkpt lat="43.93894079679289" lon="7.834617475530894"><ele>329.0</ele><time>2026-04-18T12:31:21.999Z</time></trkpt><trkpt lat="43.93888115933514" lon="7.83481313771677"><ele>329.0</ele><time>2026-04-18T12:31:22.999Z</time></trkpt><trkpt lat="43.93885185576611" lon="7.8350008934883695"><ele>329.0</ele><time>2026-04-18T12:31:23.999Z</time></trkpt><trkpt lat="43.938815614992265" lon="7.835172207642115"><ele>329.0</ele><time>2026-04-18T12:31:24.999Z</time></trkpt><trkpt lat="43.938736114007625" lon="7.8353033881899234"><ele>329.0</ele><time>2026-04-18T12:31:25.999Z</time></trkpt><trkpt lat="43.938635094424875" lon="7.835425249175814"><ele>333.5</ele><time>2026-04-18T12:31:26.999Z</time></trkpt><trkpt lat="43.93853185571718" lon="7.835559082893285"><ele>338.0</ele><time>2026-04-18T12:31:27.999Z</time></trkpt><trkpt lat="43.9384082681488" lon="7.83567705345029"><ele>342.5</ele><time>2026-04-18T12:31:28.999Z</time></trkpt><trkpt lat="43.938293216066114" lon="7.835796238445862"><ele>347.0</ele><time>2026-04-18T12:31:29.999Z</time></trkpt><trkpt lat="43.938181186721444" lon="7.835910992105245"><ele>343.25</ele><time>2026-04-18T12:31:30.999Z</time></trkpt><trkpt lat="43.93806292726603" lon="7.836007344187246"><ele>339.5</ele><time>2026-04-18T12:31:31.999Z</time></trkpt><trkpt lat="43.93793095935563" lon="7.836079473683352"><ele>335.75</ele><time>2026-04-18T12:31:32.999Z</time></trkpt><trkpt lat="43.937794186105066" lon="7.836148558127246"><ele>332.0</ele><time>2026-04-18T12:31:33.999Z</time></trkpt><trkpt lat="43.93765687100895" lon="7.836233260440503"><ele>325.5</ele><time>2026-04-18T12:31:34.999Z</time></trkpt><trkpt lat="43.93752321579417" lon="7.836327200512684"><ele>319.0</ele><time>2026-04-18T12:31:35.999Z</time></trkpt><trkpt lat="43.93739457823459" lon="7.836420721662715"><ele>312.5</ele><time>2026-04-18T12:31:36.999Z</time></trkpt><trkpt lat="43.93726314680011" lon="7.836506191377786"><ele>306.0</ele><time>2026-04-18T12:31:37.999Z</time></trkpt><trkpt lat="43.937135793548734" lon="7.836591462436087"><ele>306.0</ele><time>2026-04-18T12:31:38.999Z</time></trkpt><trkpt lat="43.93701073364253" lon="7.836671679529931"><ele>306.0</ele><time>2026-04-18T12:31:39.999Z</time></trkpt><trkpt lat="43.93688827717499" lon="7.836742342611078"><ele>306.0</ele><time>2026-04-18T12:31:40.999Z</time></trkpt><trkpt lat="43.93677415306012" lon="7.836806015961146"><ele>306.0</ele><time>2026-04-18T12:31:41.999Z</time></trkpt><trkpt lat="43.93666905760869" lon="7.83688407453595"><ele>300.75</ele><time>2026-04-18T12:31:42.999Z</time></trkpt><trkpt lat="43.93659540540994" lon="7.8369998482883485"><ele>295.5</ele><time>2026-04-18T12:31:43.999Z</time></trkpt><trkpt lat="43.93655461751862" lon="7.837143235753063"><ele>290.25</ele><time>2026-04-18T12:31:44.999Z</time></trkpt><trkpt lat="43.936546664417286" lon="7.837304567760948"><ele>285.0</ele><time>2026-04-18T12:31:45.999Z</time></trkpt><trkpt lat="43.936571760635225" lon="7.837479990785739"><ele>286.75</ele><time>2026-04-18T12:31:46.999Z</time></trkpt><trkpt lat="43.93659688819359" lon="7.837664438715604"><ele>288.5</ele><time>2026-04-18T12:31:47.999Z</time></trkpt><trkpt lat="43.93659861034726" lon="7.837865688266881"><ele>290.25</ele><time>2026-04-18T12:31:48.999Z</time></trkpt><trkpt lat="43.93658164856953" lon="7.838071978644304"><ele>292.0</ele><time>2026-04-18T12:31:50Z</time></trkpt><trkpt lat="43.936552946214924" lon="7.838281732511649"><ele>293.3333333333333</ele><time>2026-04-18T12:31:51Z</time></trkpt><trkpt lat="43.93652726366208" lon="7.838512320489732"><ele>294.6666666666667</ele><time>2026-04-18T12:31:52Z</time></trkpt><trkpt lat="43.93650309662148" lon="7.8387255777590115"><ele>296.0</ele><time>2026-04-18T12:31:53Z</time></trkpt><trkpt lat="43.93647699479708" lon="7.838936045470651"><ele>296.0</ele><time>2026-04-18T12:31:54Z</time></trkpt><trkpt lat="43.93647206258462" lon="7.839147532300877"><ele>296.0</ele><time>2026-04-18T12:31:55Z</time></trkpt><trkpt lat="43.93645293793383" lon="7.839355362079327"><ele>296.0</ele><time>2026-04-18T12:31:56Z</time></trkpt><trkpt lat="43.93643718318421" lon="7.8395446006454215"><ele>296.0</ele><time>2026-04-18T12:31:57Z</time></trkpt><trkpt lat="43.93639713785621" lon="7.839714942407694"><ele>298.0</ele><time>2026-04-18T12:31:58Z</time></trkpt><trkpt lat="43.93630257876363" lon="7.83984146527825"><ele>300.0</ele><time>2026-04-18T12:31:59Z</time></trkpt><trkpt lat="43.936205674202206" lon="7.839972439367132"><ele>302.0</ele><time>2026-04-18T12:32:00Z</time></trkpt><trkpt lat="43.93611258952761" lon="7.840130777522869"><ele>304.0</ele><time>2026-04-18T12:32:01Z</time></trkpt><trkpt lat="43.93598507337286" lon="7.840248737771672"><ele>302.66666666666663</ele><time>2026-04-18T12:32:02Z</time></trkpt><trkpt lat="43.93583168955663" lon="7.840310758645042"><ele>301.3333333333333</ele><time>2026-04-18T12:32:03Z</time></trkpt><trkpt lat="43.935675648303096" lon="7.84039396175507"><ele>300.0</ele><time>2026-04-18T12:32:04Z</time></trkpt><trkpt lat="43.93552381164084" lon="7.840479461127242"><ele>300.0</ele><time>2026-04-18T12:32:05Z</time></trkpt><trkpt lat="43.935380334160584" lon="7.8405559498347595"><ele>300.0</ele><time>2026-04-18T12:32:06Z</time></trkpt><trkpt lat="43.93525085915791" lon="7.840604814098279"><ele>300.0</ele><time>2026-04-18T12:32:07Z</time></trkpt><trkpt lat="43.93513308620221" lon="7.8405967136914745"><ele>300.0</ele><time>2026-04-18T12:32:08Z</time></trkpt><trkpt lat="43.93500085275188" lon="7.840542070061485"><ele>295.3333333333333</ele><time>2026-04-18T12:32:09Z</time></trkpt><trkpt lat="43.9348478386834" lon="7.840499782560148"><ele>290.66666666666663</ele><time>2026-04-18T12:32:10Z</time></trkpt><trkpt lat="43.93469757733354" lon="7.840462054770592"><ele>286.0</ele><time>2026-04-18T12:32:11Z</time></trkpt><trkpt lat="43.93454234193735" lon="7.840433529378019"><ele>286.0</ele><time>2026-04-18T12:32:12Z</time></trkpt><trkpt lat="43.934399160604" lon="7.840391354340118"><ele>286.0</ele><time>2026-04-18T12:32:13Z</time></trkpt><trkpt lat="43.93427161558075" lon="7.840319290932555"><ele>286.0</ele><time>2026-04-18T12:32:14Z</time></trkpt><trkpt lat="43.93415422417282" lon="7.840243789479784"><ele>286.0</ele><time>2026-04-18T12:32:15Z</time></trkpt><trkpt lat="43.93403413562068" lon="7.840199859705113"><ele>284.75</ele><time>2026-04-18T12:32:16Z</time></trkpt><trkpt lat="43.933909538330326" lon="7.84020917460507"><ele>283.5</ele><time>2026-04-18T12:32:17Z</time></trkpt><trkpt lat="43.93378780986802" lon="7.84025236599569"><ele>282.25</ele><time>2026-04-18T12:32:18Z</time></trkpt><trkpt lat="43.93369623091649" lon="7.84037463168618"><ele>281.0</ele><time>2026-04-18T12:32:19Z</time></trkpt><trkpt lat="43.93359465795657" lon="7.840444364968574"><ele>281.0</ele><time>2026-04-18T12:32:20Z</time></trkpt><trkpt lat="43.933495471882566" lon="7.840528032537528"><ele>281.0</ele><time>2026-04-18T12:32:21Z</time></trkpt><trkpt lat="43.93339802243415" lon="7.8406072177029715"><ele>281.0</ele><time>2026-04-18T12:32:22Z</time></trkpt><trkpt lat="43.93330391849067" lon="7.840691965878488"><ele>281.0</ele><time>2026-04-18T12:32:23Z</time></trkpt><trkpt lat="43.933205888734776" lon="7.840765844302101"><ele>276.5</ele><time>2026-04-18T12:32:24Z</time></trkpt><trkpt lat="43.93309770409648" lon="7.840823824852601"><ele>272.0</ele><time>2026-04-18T12:32:25Z</time></trkpt><trkpt lat="43.93297608408067" lon="7.8408361139080105"><ele>267.5</ele><time>2026-04-18T12:32:26Z</time></trkpt><trkpt lat="43.93284847716822" lon="7.8408824045502525"><ele>263.0</ele><time>2026-04-18T12:32:27Z</time></trkpt><trkpt lat="43.93271588420261" lon="7.840897409013048"><ele>263.0</ele><time>2026-04-18T12:32:28Z</time></trkpt><trkpt lat="43.93257823845247" lon="7.840911288137216"><ele>263.0</ele><time>2026-04-18T12:32:29Z</time></trkpt><trkpt lat="43.932443368771" lon="7.840931429554792"><ele>263.0</ele><time>2026-04-18T12:32:30Z</time></trkpt><trkpt lat="43.93231424704428" lon="7.840950824803715"><ele>263.0</ele><time>2026-04-18T12:32:31Z</time></trkpt><trkpt lat="43.93218441012082" lon="7.8409731242919225"><ele>266.25</ele><time>2026-04-18T12:32:32Z</time></trkpt><trkpt lat="43.93205685910218" lon="7.840991941033546"><ele>269.5</ele><time>2026-04-18T12:32:33Z</time></trkpt><trkpt lat="43.93193508623408" lon="7.841017778499388"><ele>272.75</ele><time>2026-04-18T12:32:34Z</time></trkpt><trkpt lat="43.93182833732988" lon="7.841072459204525"><ele>276.0</ele><time>2026-04-18T12:32:35Z</time></trkpt><trkpt lat="43.93173707000985" lon="7.8411607614928585"><ele>268.5</ele><time>2026-04-18T12:32:36Z</time></trkpt><trkpt lat="43.93165722346295" lon="7.841269379348691"><ele>261.0</ele><time>2026-04-18T12:32:37Z</time></trkpt><trkpt lat="43.931587339055866" lon="7.841412525707462"><ele>253.5</ele><time>2026-04-18T12:32:38Z</time></trkpt><trkpt lat="43.93153061726105" lon="7.841571099968859"><ele>246.0</ele><time>2026-04-18T12:32:39Z</time></trkpt><trkpt lat="43.93147156767635" lon="7.841718781178709"><ele>246.4</ele><time>2026-04-18T12:32:40Z</time></trkpt><trkpt lat="43.931416941990676" lon="7.841846224880133"><ele>246.8</ele><time>2026-04-18T12:32:41Z</time></trkpt><trkpt lat="43.931362552211546" lon="7.841963250334045"><ele>247.20000000000002</ele><time>2026-04-18T12:32:42Z</time></trkpt><trkpt lat="43.93131264239182" lon="7.842069681577396"><ele>247.60000000000002</ele><time>2026-04-18T12:32:43Z</time></trkpt><trkpt lat="43.93126107596524" lon="7.842173252676057"><ele>248.0</ele><time>2026-04-18T12:32:44Z</time></trkpt><trkpt lat="43.9312080560662" lon="7.842274212595828"><ele>248.00000000000003</ele><time>2026-04-18T12:32:45Z</time></trkpt><trkpt lat="43.93115590262299" lon="7.842374496454157"><ele>248.0</ele><time>2026-04-18T12:32:46Z</time></trkpt><trkpt lat="43.93110502052825" lon="7.84247755959235"><ele>248.0</ele><time>2026-04-18T12:32:47Z</time></trkpt><trkpt lat="43.93105144626724" lon="7.842577509750921"><ele>248.0</ele><time>2026-04-18T12:32:48Z</time></trkpt><trkpt lat="43.93099806569546" lon="7.8426772967755625"><ele>248.00000000000003</ele><time>2026-04-18T12:32:49Z</time></trkpt><trkpt lat="43.93094750745407" lon="7.8427824575069875"><ele>248.0</ele><time>2026-04-18T12:32:50Z</time></trkpt><trkpt lat="43.93089870936677" lon="7.84288301082618"><ele>245.33333333333334</ele><time>2026-04-18T12:32:51Z</time></trkpt><trkpt lat="43.93084015333754" lon="7.842964260159418"><ele>242.66666666666669</ele><time>2026-04-18T12:32:52Z</time></trkpt><trkpt lat="43.930777823784396" lon="7.843028346132982"><ele>240.0</ele><time>2026-04-18T12:32:53Z</time></trkpt><trkpt lat="43.93070927037212" lon="7.8430796105617615"><ele>237.33333333333331</ele><time>2026-04-18T12:32:54Z</time></trkpt><trkpt lat="43.93063471683034" lon="7.843133699173017"><ele>234.66666666666666</ele><time>2026-04-18T12:32:55Z</time></trkpt><trkpt lat="43.93055859845054" lon="7.843190355095398"><ele>232.0</ele><time>2026-04-18T12:32:56Z</time></trkpt><trkpt lat="43.930486378474285" lon="7.843246264658824"><ele>231.99999999999997</ele><time>2026-04-18T12:32:57Z</time></trkpt><trkpt lat="43.930418231255814" lon="7.843294715943635"><ele>232.0</ele><time>2026-04-18T12:32:58Z</time></trkpt><trkpt lat="43.930350368097" lon="7.84335331667331"><ele>232.0</ele><time>2026-04-18T12:32:59Z</time></trkpt><trkpt lat="43.930275927333945" lon="7.843396535002601"><ele>232.0</ele><time>2026-04-18T12:33:00Z</time></trkpt><trkpt lat="43.93019666635228" lon="7.843431107315133"><ele>231.99999999999997</ele><time>2026-04-18T12:33:01Z</time></trkpt><trkpt lat="43.93012146734155" lon="7.843462565083066"><ele>232.0</ele><time>2026-04-18T12:33:02Z</time></trkpt><trkpt lat="43.93004760548096" lon="7.843486304164933"><ele>230.83333333333331</ele><time>2026-04-18T12:33:03Z</time></trkpt><trkpt lat="43.92997719042097" lon="7.843497055932823"><ele>229.66666666666666</ele><time>2026-04-18T12:33:04Z</time></trkpt><trkpt lat="43.92990571788879" lon="7.843489717923645"><ele>228.5</ele><time>2026-04-18T12:33:05Z</time></trkpt><trkpt lat="43.929835757308275" lon="7.843465129338618"><ele>227.33333333333331</ele><time>2026-04-18T12:33:06Z</time></trkpt><trkpt lat="43.92976166597255" lon="7.843422738318084"><ele>226.16666666666666</ele><time>2026-04-18T12:33:07Z</time></trkpt><trkpt lat="43.929688081956456" lon="7.8433675434126044"><ele>225.0</ele><time>2026-04-18T12:33:08Z</time></trkpt><trkpt lat="43.92961689853207" lon="7.843293162082464"><ele>225.0</ele><time>2026-04-18T12:33:09Z</time></trkpt><trkpt lat="43.9295658250687" lon="7.843202820835206"><ele>225.0</ele><time>2026-04-18T12:33:10Z</time></trkpt><trkpt lat="43.92955346403911" lon="7.8430907465049"><ele>225.0</ele><time>2026-04-18T12:33:11Z</time></trkpt><trkpt lat="43.92954246526822" lon="7.84295359107006"><ele>225.0</ele><time>2026-04-18T12:33:12Z</time></trkpt><trkpt lat="43.92952232195518" lon="7.842789196430774"><ele>225.0</ele><time>2026-04-18T12:33:13Z</time></trkpt><trkpt lat="43.929511686034715" lon="7.842607405012565"><ele>224.5</ele><time>2026-04-18T12:33:14Z</time></trkpt><trkpt lat="43.92948592322816" lon="7.84242563861469"><ele>224.0</ele><time>2026-04-18T12:33:15Z</time></trkpt><trkpt lat="43.92945147675047" lon="7.8422290999643876"><ele>223.5</ele><time>2026-04-18T12:33:16Z</time></trkpt><trkpt lat="43.92941684199715" lon="7.842036513019512"><ele>223.0</ele><time>2026-04-18T12:33:17Z</time></trkpt><trkpt lat="43.929383855956765" lon="7.8418512889999334"><ele>225.0</ele><time>2026-04-18T12:33:18Z</time></trkpt><trkpt lat="43.92935128355496" lon="7.841670244453104"><ele>227.0</ele><time>2026-04-18T12:33:19Z</time></trkpt><trkpt lat="43.929312492849704" lon="7.841496758713022"><ele>229.0</ele><time>2026-04-18T12:33:20Z</time></trkpt><trkpt lat="43.92925939095427" lon="7.841332581073049"><ele>231.0</ele><time>2026-04-18T12:33:21Z</time></trkpt><trkpt lat="43.92917895020542" lon="7.8411822652763865"><ele>231.25</ele><time>2026-04-18T12:33:22Z</time></trkpt><trkpt lat="43.92907940063173" lon="7.841045905092418"><ele>231.5</ele><time>2026-04-18T12:33:23Z</time></trkpt><trkpt lat="43.92896849164231" lon="7.840929089674631"><ele>231.75</ele><time>2026-04-18T12:33:23.999Z</time></trkpt><trkpt lat="43.928859234449334" lon="7.840847010732995"><ele>232.0</ele><time>2026-04-18T12:33:24.999Z</time></trkpt><trkpt lat="43.92873841975442" lon="7.840808721462247"><ele>232.0</ele><time>2026-04-18T12:33:25.999Z</time></trkpt><trkpt lat="43.92861643364638" lon="7.840781728795623"><ele>232.0</ele><time>2026-04-18T12:33:26.999Z</time></trkpt><trkpt lat="43.92849041112066" lon="7.840857235950183"><ele>232.0</ele><time>2026-04-18T12:33:27.999Z</time></trkpt><trkpt lat="43.92836071186705" lon="7.8409214030223575"><ele>232.0</ele><time>2026-04-18T12:33:28.999Z</time></trkpt><trkpt lat="43.928250433677" lon="7.841038000523096"><ele>232.0</ele><time>2026-04-18T12:33:29.999Z</time></trkpt><trkpt lat="43.92814756565635" lon="7.841169252079842"><ele>232.0</ele><time>2026-04-18T12:33:30.999Z</time></trkpt><trkpt lat="43.928048615116204" lon="7.841299054835245"><ele>232.0</ele><time>2026-04-18T12:33:31.999Z</time></trkpt><trkpt lat="43.927942079194224" lon="7.841425029364124"><ele>232.0</ele><time>2026-04-18T12:33:32.999Z</time></trkpt><trkpt lat="43.92782814361068" lon="7.841546944515483"><ele>232.0</ele><time>2026-04-18T12:33:33.999Z</time></trkpt><trkpt lat="43.92771424403498" lon="7.841667515350031"><ele>232.0</ele><time>2026-04-18T12:33:34.999Z</time></trkpt><trkpt lat="43.9275979909833" lon="7.841788191193551"><ele>232.0</ele><time>2026-04-18T12:33:35.999Z</time></trkpt><trkpt lat="43.92748816343757" lon="7.841924878031028"><ele>232.0</ele><time>2026-04-18T12:33:36.999Z</time></trkpt><trkpt lat="43.927366689729375" lon="7.842042841357994"><ele>234.5</ele><time>2026-04-18T12:33:37.999Z</time></trkpt><trkpt lat="43.92725046453316" lon="7.842168553309938"><ele>237.0</ele><time>2026-04-18T12:33:38.999Z</time></trkpt><trkpt lat="43.92712695453729" lon="7.842277955887028"><ele>239.5</ele><time>2026-04-18T12:33:39.999Z</time></trkpt><trkpt lat="43.92701625707207" lon="7.842415850281049"><ele>242.0</ele><time>2026-04-18T12:33:40.999Z</time></trkpt><trkpt lat="43.926884110071235" lon="7.842523999082542"><ele>242.0</ele><time>2026-04-18T12:33:41.999Z</time></trkpt><trkpt lat="43.926735125558814" lon="7.8426076377062035"><ele>242.0</ele><time>2026-04-18T12:33:42.999Z</time></trkpt><trkpt lat="43.92659809836013" lon="7.842733713384402"><ele>242.0</ele><time>2026-04-18T12:33:43.999Z</time></trkpt><trkpt lat="43.92645003465538" lon="7.842838289137955"><ele>244.0</ele><time>2026-04-18T12:33:44.999Z</time></trkpt><trkpt lat="43.9263087080813" lon="7.842943392678885"><ele>246.0</ele><time>2026-04-18T12:33:45.999Z</time></trkpt><trkpt lat="43.92617367507658" lon="7.843039266499573"><ele>248.0</ele><time>2026-04-18T12:33:46.999Z</time></trkpt><trkpt lat="43.92603982736681" lon="7.84311768944063"><ele>248.0</ele><time>2026-04-18T12:33:47.999Z</time></trkpt><trkpt lat="43.925901190194416" lon="7.843187305012906"><ele>248.0</ele><time>2026-04-18T12:33:48.999Z</time></trkpt><trkpt lat="43.925757098282794" lon="7.843246523993989"><ele>248.0</ele><time>2026-04-18T12:33:49.999Z</time></trkpt><trkpt lat="43.92560719390621" lon="7.843300808837559"><ele>241.5</ele><time>2026-04-18T12:33:50.999Z</time></trkpt><trkpt lat="43.92545920474177" lon="7.8433562069091805"><ele>235.0</ele><time>2026-04-18T12:33:51.999Z</time></trkpt><trkpt lat="43.92531372817939" lon="7.843393020958713"><ele>228.5</ele><time>2026-04-18T12:33:52.999Z</time></trkpt><trkpt lat="43.925168872128786" lon="7.843406189387471"><ele>222.0</ele><time>2026-04-18T12:33:53.999Z</time></trkpt><trkpt lat="43.9250300128276" lon="7.843405855204672"><ele>218.75</ele><time>2026-04-18T12:33:54.999Z</time></trkpt><trkpt lat="43.92489245683044" lon="7.843393140742953"><ele>215.5</ele><time>2026-04-18T12:33:56Z</time></trkpt><trkpt lat="43.924765103865525" lon="7.843376451068941"><ele>212.25</ele><time>2026-04-18T12:33:57Z</time></trkpt><trkpt lat="43.92464466053009" lon="7.8433596206221825"><ele>209.0</ele><time>2026-04-18T12:33:58Z</time></trkpt><trkpt lat="43.92452887018143" lon="7.8433440515036885"><ele>209.0</ele><time>2026-04-18T12:33:59Z</time></trkpt><trkpt lat="43.92441789985477" lon="7.843334819212233"><ele>209.0</ele><time>2026-04-18T12:34:00Z</time></trkpt><trkpt lat="43.92431192343007" lon="7.843328695233824"><ele>209.0</ele><time>2026-04-18T12:34:01Z</time></trkpt><trkpt lat="43.9242105982286" lon="7.843318563468694"><ele>209.0</ele><time>2026-04-18T12:34:02Z</time></trkpt><trkpt lat="43.92411513938886" lon="7.843306324060273"><ele>209.0</ele><time>2026-04-18T12:34:03Z</time></trkpt><trkpt lat="43.924018918115934" lon="7.84329853329834"><ele>207.66666666666669</ele><time>2026-04-18T12:34:04Z</time></trkpt><trkpt lat="43.92393325790618" lon="7.84329028611569"><ele>206.33333333333334</ele><time>2026-04-18T12:34:05Z</time></trkpt><trkpt lat="43.923850725349716" lon="7.8432849270581135"><ele>205.0</ele><time>2026-04-18T12:34:06Z</time></trkpt><trkpt lat="43.923773446486145" lon="7.84327571860925"><ele>203.66666666666669</ele><time>2026-04-18T12:34:07Z</time></trkpt><trkpt lat="43.92369141325878" lon="7.843270922220057"><ele>202.33333333333334</ele><time>2026-04-18T12:34:08Z</time></trkpt><trkpt lat="43.923607116418076" lon="7.843256815102546"><ele>201.0</ele><time>2026-04-18T12:34:09Z</time></trkpt><trkpt lat="43.923516066254194" lon="7.843256576171488"><ele>201.0</ele><time>2026-04-18T12:34:10Z</time></trkpt><trkpt lat="43.923438197969354" lon="7.8432332899792705"><ele>201.0</ele><time>2026-04-18T12:34:11Z</time></trkpt><trkpt lat="43.923370614796795" lon="7.843183697782999"><ele>201.0</ele><time>2026-04-18T12:34:12Z</time></trkpt><trkpt lat="43.92332383526035" lon="7.843095988450253"><ele>201.0</ele><time>2026-04-18T12:34:13Z</time></trkpt><trkpt lat="43.92329311861406" lon="7.842988271430332"><ele>201.0</ele><time>2026-04-18T12:34:14Z</time></trkpt><trkpt lat="43.92324898129121" lon="7.842875299872044"><ele>201.0</ele><time>2026-04-18T12:34:15Z</time></trkpt><trkpt lat="43.923187030527835" lon="7.842772592919463"><ele>201.0</ele><time>2026-04-18T12:34:16Z</time></trkpt><trkpt lat="43.92311473894618" lon="7.84268640010074"><ele>201.0</ele><time>2026-04-18T12:34:17Z</time></trkpt><trkpt lat="43.923036989610445" lon="7.8426148860457"><ele>201.0</ele><time>2026-04-18T12:34:18Z</time></trkpt><trkpt lat="43.922948451214594" lon="7.842557899033458"><ele>201.0</ele><time>2026-04-18T12:34:19Z</time></trkpt><trkpt lat="43.9228606451187" lon="7.842519134653641"><ele>201.0</ele><time>2026-04-18T12:34:20Z</time></trkpt><trkpt lat="43.922776914905135" lon="7.842485649942664"><ele>201.0</ele><time>2026-04-18T12:34:21Z</time></trkpt><trkpt lat="43.92269392195015" lon="7.842451094101118"><ele>201.0</ele><time>2026-04-18T12:34:22Z</time></trkpt><trkpt lat="43.922613642504935" lon="7.8424143063319764"><ele>201.0</ele><time>2026-04-18T12:34:23Z</time></trkpt><trkpt lat="43.9225280861419" lon="7.842381869366777"><ele>201.0</ele><time>2026-04-18T12:34:24Z</time></trkpt><trkpt lat="43.92244492164961" lon="7.842349528899884"><ele>201.0</ele><time>2026-04-18T12:34:25Z</time></trkpt><trkpt lat="43.92236422567401" lon="7.842315657847708"><ele>201.0</ele><time>2026-04-18T12:34:26Z</time></trkpt><trkpt lat="43.922283430196615" lon="7.842282869769615"><ele>202.16666666666666</ele><time>2026-04-18T12:34:27Z</time></trkpt><trkpt lat="43.92220557147246" lon="7.842257842196576"><ele>203.33333333333331</ele><time>2026-04-18T12:34:28Z</time></trkpt><trkpt lat="43.92213127474169" lon="7.8422380840486445"><ele>204.5</ele><time>2026-04-18T12:34:29Z</time></trkpt><trkpt lat="43.92205597151592" lon="7.8422208081513585"><ele>205.66666666666666</ele><time>2026-04-18T12:34:30Z</time></trkpt><trkpt lat="43.9219753083011" lon="7.842208130915156"><ele>206.83333333333331</ele><time>2026-04-18T12:34:31Z</time></trkpt><trkpt lat="43.92188894033641" lon="7.8422023483029735"><ele>208.0</ele><time>2026-04-18T12:34:32Z</time></trkpt><trkpt lat="43.92179484424922" lon="7.842201401618079"><ele>206.60000000000002</ele><time>2026-04-18T12:34:33Z</time></trkpt><trkpt lat="43.92168981416686" lon="7.842206662511995"><ele>205.20000000000002</ele><time>2026-04-18T12:34:34Z</time></trkpt><trkpt lat="43.92158342109088" lon="7.842219372746896"><ele>203.8</ele><time>2026-04-18T12:34:35Z</time></trkpt><trkpt lat="43.92147802739012" lon="7.84224747552003"><ele>202.4</ele><time>2026-04-18T12:34:36Z</time></trkpt><trkpt lat="43.92137616195339" lon="7.842303310404141"><ele>201.0</ele><time>2026-04-18T12:34:37Z</time></trkpt><trkpt lat="43.921283616491436" lon="7.842373226066652"><ele>201.0</ele><time>2026-04-18T12:34:38Z</time></trkpt><trkpt lat="43.92119294063036" lon="7.842436587294452"><ele>201.0</ele><time>2026-04-18T12:34:39Z</time></trkpt><trkpt lat="43.92110198886005" lon="7.842491323632741"><ele>201.0</ele><time>2026-04-18T12:34:40Z</time></trkpt><trkpt lat="43.92101930484898" lon="7.842538121777877"><ele>201.0</ele><time>2026-04-18T12:34:41Z</time></trkpt><trkpt lat="43.92094200972353" lon="7.8425871828572395"><ele>201.0</ele><time>2026-04-18T12:34:42Z</time></trkpt><trkpt lat="43.920867308095936" lon="7.842637003115541"><ele>200.33333333333334</ele><time>2026-04-18T12:34:43Z</time></trkpt><trkpt lat="43.92080070219914" lon="7.842685901841077"><ele>199.66666666666669</ele><time>2026-04-18T12:34:44Z</time></trkpt><trkpt lat="43.92074184720806" lon="7.842734811945144"><ele>199.0</ele><time>2026-04-18T12:34:45Z</time></trkpt><trkpt lat="43.92068189878445" lon="7.842785007414803"><ele>198.33333333333334</ele><time>2026-04-18T12:34:46Z</time></trkpt><trkpt lat="43.920625551829254" lon="7.842832162555721"><ele>197.66666666666669</ele><time>2026-04-18T12:34:47Z</time></trkpt><trkpt lat="43.92052027563871" lon="7.842924236638495"><ele>197.0</ele><time>2026-04-18T12:34:49Z</time></trkpt><trkpt lat="43.92041926361626" lon="7.843019917587748"><ele>197.0</ele><time>2026-04-18T12:34:51Z</time></trkpt><trkpt lat="43.92036558066221" lon="7.843079171756048"><ele>197.0</ele><time>2026-04-18T12:34:52Z</time></trkpt><trkpt lat="43.920320780150696" lon="7.843153923867855"><ele>197.0</ele><time>2026-04-18T12:34:53Z</time></trkpt><trkpt lat="43.92028689208216" lon="7.8432468877582835"><ele>197.0</ele><time>2026-04-18T12:34:54Z</time></trkpt><trkpt lat="43.920258421556525" lon="7.8433474596972665"><ele>197.0</ele><time>2026-04-18T12:34:55Z</time></trkpt><trkpt lat="43.92023645616443" lon="7.843451333458508"><ele>197.0</ele><time>2026-04-18T12:34:56Z</time></trkpt><trkpt lat="43.92021369991647" lon="7.843556647970692"><ele>197.0</ele><time>2026-04-18T12:34:57Z</time></trkpt><trkpt lat="43.920198100004804" lon="7.843661018127302"><ele>197.33333333333334</ele><time>2026-04-18T12:34:58Z</time></trkpt><trkpt lat="43.920187702567134" lon="7.843767368671705"><ele>197.66666666666669</ele><time>2026-04-18T12:34:59Z</time></trkpt><trkpt lat="43.920174642707025" lon="7.843870214783656"><ele>198.0</ele><time>2026-04-18T12:35:00Z</time></trkpt><trkpt lat="43.92015988692681" lon="7.8439746339422705"><ele>198.33333333333331</ele><time>2026-04-18T12:35:01Z</time></trkpt><trkpt lat="43.920142095836745" lon="7.8440765855801615"><ele>198.66666666666666</ele><time>2026-04-18T12:35:02Z</time></trkpt><trkpt lat="43.92012059736626" lon="7.84418119211304"><ele>199.0</ele><time>2026-04-18T12:35:03Z</time></trkpt><trkpt lat="43.92009244094019" lon="7.844286370038741"><ele>198.16666666666666</ele><time>2026-04-18T12:35:04Z</time></trkpt><trkpt lat="43.92005743779711" lon="7.844394129755291"><ele>197.33333333333331</ele><time>2026-04-18T12:35:05Z</time></trkpt><trkpt lat="43.920025975533434" lon="7.844505879017029"><ele>196.5</ele><time>2026-04-18T12:35:06Z</time></trkpt><trkpt lat="43.91999717398655" lon="7.844616625965496"><ele>195.66666666666669</ele><time>2026-04-18T12:35:07Z</time></trkpt><trkpt lat="43.91996956706788" lon="7.84472746955081"><ele>194.83333333333334</ele><time>2026-04-18T12:35:08Z</time></trkpt><trkpt lat="43.91994391267314" lon="7.84482933608376"><ele>194.0</ele><time>2026-04-18T12:35:09Z</time></trkpt><trkpt lat="43.91991596140933" lon="7.844915138620185"><ele>194.0</ele><time>2026-04-18T12:35:10Z</time></trkpt><trkpt lat="43.91983753592655" lon="7.8450344962572425"><ele>194.0</ele><time>2026-04-18T12:35:12Z</time></trkpt><trkpt lat="43.91977223741436" lon="7.845173723193969"><ele>194.0</ele><time>2026-04-18T12:35:14Z</time></trkpt><trkpt lat="43.919731333614266" lon="7.845241064192486"><ele>194.0</ele><time>2026-04-18T12:35:15Z</time></trkpt><trkpt lat="43.919684320947376" lon="7.84532049944387"><ele>194.0</ele><time>2026-04-18T12:35:16Z</time></trkpt><trkpt lat="43.91962427084361" lon="7.8453882223335665"><ele>193.83333333333334</ele><time>2026-04-18T12:35:17Z</time></trkpt><trkpt lat="43.91956820052486" lon="7.845463762127029"><ele>193.66666666666669</ele><time>2026-04-18T12:35:18Z</time></trkpt><trkpt lat="43.91951073714448" lon="7.845534332576175"><ele>193.5</ele><time>2026-04-18T12:35:19Z</time></trkpt><trkpt lat="43.91945224213621" lon="7.845602852616834"><ele>193.33333333333331</ele><time>2026-04-18T12:35:20Z</time></trkpt><trkpt lat="43.91938316245681" lon="7.845671649227075"><ele>193.16666666666666</ele><time>2026-04-18T12:35:21Z</time></trkpt><trkpt lat="43.919309063808946" lon="7.84574207976442"><ele>193.0</ele><time>2026-04-18T12:35:21.999Z</time></trkpt><trkpt lat="43.919231940012175" lon="7.845808239822631"><ele>193.0</ele><time>2026-04-18T12:35:22.999Z</time></trkpt><trkpt lat="43.919147911118095" lon="7.845875832368408"><ele>193.0</ele><time>2026-04-18T12:35:23.999Z</time></trkpt><trkpt lat="43.91907040646236" lon="7.845934673997772"><ele>193.0</ele><time>2026-04-18T12:35:24.999Z</time></trkpt><trkpt lat="43.9189897461872" lon="7.846005639783767"><ele>193.0</ele><time>2026-04-18T12:35:25.999Z</time></trkpt><trkpt lat="43.91889130977132" lon="7.846017146898811"><ele>193.0</ele><time>2026-04-18T12:35:26.999Z</time></trkpt><trkpt lat="43.918796351414684" lon="7.8460084976950535"><ele>193.0</ele><time>2026-04-18T12:35:27.999Z</time></trkpt><trkpt lat="43.91870549265068" lon="7.845962537500212"><ele>193.0</ele><time>2026-04-18T12:35:28.999Z</time></trkpt><trkpt lat="43.91862108535457" lon="7.84589071640908"><ele>193.0</ele><time>2026-04-18T12:35:29.999Z</time></trkpt><trkpt lat="43.91854498375261" lon="7.845801216668771"><ele>193.0</ele><time>2026-04-18T12:35:30.999Z</time></trkpt><trkpt lat="43.918480079904704" lon="7.8457204715096145"><ele>193.0</ele><time>2026-04-18T12:35:31.999Z</time></trkpt><trkpt lat="43.91841190949337" lon="7.845648012367161"><ele>193.33333333333331</ele><time>2026-04-18T12:35:32.999Z</time></trkpt><trkpt lat="43.91834801068741" lon="7.845579684825394"><ele>193.66666666666666</ele><time>2026-04-18T12:35:33.999Z</time></trkpt><trkpt lat="43.91827402403467" lon="7.845552027339027"><ele>194.0</ele><time>2026-04-18T12:35:34.999Z</time></trkpt><trkpt lat="43.918199729943275" lon="7.845545613754032"><ele>194.33333333333331</ele><time>2026-04-18T12:35:35.999Z</time></trkpt><trkpt lat="43.918128174071114" lon="7.845556572818179"><ele>194.66666666666666</ele><time>2026-04-18T12:35:36.999Z</time></trkpt><trkpt lat="43.91805888440888" lon="7.845599165003014"><ele>195.0</ele><time>2026-04-18T12:35:37.999Z</time></trkpt><trkpt lat="43.917993351107725" lon="7.845648861613284"><ele>195.0</ele><time>2026-04-18T12:35:38.999Z</time></trkpt><trkpt lat="43.917944650413375" lon="7.845731674217486"><ele>195.0</ele><time>2026-04-18T12:35:39.999Z</time></trkpt><trkpt lat="43.91788256012059" lon="7.8457859198582245"><ele>195.0</ele><time>2026-04-18T12:35:40.999Z</time></trkpt><trkpt lat="43.91783875234381" lon="7.845865001055394"><ele>195.0</ele><time>2026-04-18T12:35:41.999Z</time></trkpt><trkpt lat="43.91780172886893" lon="7.845947586406364"><ele>195.0</ele><time>2026-04-18T12:35:42.999Z</time></trkpt><trkpt lat="43.91776640873742" lon="7.846029495871202"><ele>195.0</ele><time>2026-04-18T12:35:43.999Z</time></trkpt><trkpt lat="43.917731958577264" lon="7.846103414671487"><ele>195.0</ele><time>2026-04-18T12:35:44.999Z</time></trkpt><trkpt lat="43.917694854024994" lon="7.846179128707908"><ele>193.5</ele><time>2026-04-18T12:35:45.999Z</time></trkpt><trkpt lat="43.917650609314926" lon="7.846253599362927"><ele>192.0</ele><time>2026-04-18T12:35:46.999Z</time></trkpt><trkpt lat="43.917604861278505" lon="7.846327159450525"><ele>190.5</ele><time>2026-04-18T12:35:47.999Z</time></trkpt><trkpt lat="43.917526756299914" lon="7.8463591929073315"><ele>189.0</ele><time>2026-04-18T12:35:48.999Z</time></trkpt><trkpt lat="43.91745159471882" lon="7.846406870531371"><ele>187.5</ele><time>2026-04-18T12:35:49.999Z</time></trkpt><trkpt lat="43.91736971028816" lon="7.846457625778649"><ele>186.0</ele><time>2026-04-18T12:35:50.999Z</time></trkpt><trkpt lat="43.91728062559935" lon="7.846512842871135"><ele>186.0</ele><time>2026-04-18T12:35:51.999Z</time></trkpt><trkpt lat="43.917196374857454" lon="7.846568051354087"><ele>186.0</ele><time>2026-04-18T12:35:52.999Z</time></trkpt><trkpt lat="43.91711912301829" lon="7.846621410306926"><ele>186.0</ele><time>2026-04-18T12:35:53.999Z</time></trkpt><trkpt lat="43.91704625628954" lon="7.846671723057077"><ele>186.0</ele><time>2026-04-18T12:35:54.999Z</time></trkpt><trkpt lat="43.916981817674056" lon="7.846717917725579"><ele>186.0</ele><time>2026-04-18T12:35:55.999Z</time></trkpt><trkpt lat="43.91692477881424" lon="7.846758596586258"><ele>186.0</ele><time>2026-04-18T12:35:56.999Z</time></trkpt><trkpt lat="43.91686644831848" lon="7.846800196662276"><ele>186.16666666666666</ele><time>2026-04-18T12:35:57.999Z</time></trkpt><trkpt lat="43.91681021787119" lon="7.846840756356707"><ele>186.33333333333334</ele><time>2026-04-18T12:35:58.999Z</time></trkpt><trkpt lat="43.916708119715835" lon="7.8469347043364515"><ele>186.5</ele><time>2026-04-18T12:36:00.999Z</time></trkpt><trkpt lat="43.9166735553236" lon="7.847013519844196"><ele>186.66666666666669</ele><time>2026-04-18T12:36:01.999Z</time></trkpt><trkpt lat="43.9166558936586" lon="7.847116408477056"><ele>186.83333333333334</ele><time>2026-04-18T12:36:02.999Z</time></trkpt><trkpt lat="43.91665440044656" lon="7.847223842232821"><ele>187.0</ele><time>2026-04-18T12:36:03.999Z</time></trkpt><trkpt lat="43.91665355040882" lon="7.84732147322107"><ele>187.0</ele><time>2026-04-18T12:36:04.999Z</time></trkpt><trkpt lat="43.91665355040685" lon="7.847418664248232"><ele>187.0</ele><time>2026-04-18T12:36:05.999Z</time></trkpt><trkpt lat="43.9166523288998" lon="7.847506740529171"><ele>187.0</ele><time>2026-04-18T12:36:06.999Z</time></trkpt><trkpt lat="43.916638911098886" lon="7.84765690327929"><ele>187.0</ele><time>2026-04-18T12:36:08.999Z</time></trkpt><trkpt lat="43.916529672598024" lon="7.847690190872767"><ele>187.0</ele><time>2026-04-18T12:36:10.999Z</time></trkpt><trkpt lat="43.91646438268399" lon="7.847714424999813"><ele>187.0</ele><time>2026-04-18T12:36:11.999Z</time></trkpt><trkpt lat="43.91640075869386" lon="7.847738050613478"><ele>186.57142857142856</ele><time>2026-04-18T12:36:12.999Z</time></trkpt><trkpt lat="43.91632442585609" lon="7.847752795869315"><ele>186.14285714285717</ele><time>2026-04-18T12:36:13.999Z</time></trkpt><trkpt lat="43.916254273749395" lon="7.847756166660383"><ele>185.71428571428572</ele><time>2026-04-18T12:36:15Z</time></trkpt><trkpt lat="43.91618123911604" lon="7.847755269845818"><ele>185.28571428571428</ele><time>2026-04-18T12:36:16Z</time></trkpt><trkpt lat="43.91611162115699" lon="7.847747360559746"><ele>184.85714285714283</ele><time>2026-04-18T12:36:17Z</time></trkpt><trkpt lat="43.916045114630016" lon="7.847736927074378"><ele>184.42857142857144</ele><time>2026-04-18T12:36:18Z</time></trkpt><trkpt lat="43.915978856816295" lon="7.847725649425427"><ele>184.0</ele><time>2026-04-18T12:36:19Z</time></trkpt><trkpt lat="43.915872339691845" lon="7.847728039526667"><ele>183.66666666666669</ele><time>2026-04-18T12:36:21Z</time></trkpt><trkpt lat="43.91575906052893" lon="7.8477987314856765"><ele>183.33333333333334</ele><time>2026-04-18T12:36:23Z</time></trkpt><trkpt lat="43.91569986799219" lon="7.847828847614982"><ele>183.0</ele><time>2026-04-18T12:36:24Z</time></trkpt><trkpt lat="43.9156400355228" lon="7.847856209625053"><ele>182.66666666666666</ele><time>2026-04-18T12:36:25Z</time></trkpt><trkpt lat="43.91557608706051" lon="7.847887959871538"><ele>182.33333333333331</ele><time>2026-04-18T12:36:26Z</time></trkpt><trkpt lat="43.91549387572" lon="7.847876604257498"><ele>182.0</ele><time>2026-04-18T12:36:27Z</time></trkpt><trkpt lat="43.91542480722771" lon="7.847900800516369"><ele>182.0</ele><time>2026-04-18T12:36:28Z</time></trkpt><trkpt lat="43.915362975883994" lon="7.847921016723366"><ele>182.0</ele><time>2026-04-18T12:36:29Z</time></trkpt><trkpt lat="43.91524528660941" lon="7.847935815981234"><ele>182.0</ele><time>2026-04-18T12:36:31Z</time></trkpt><trkpt lat="43.91513506221899" lon="7.847948596950815"><ele>182.0</ele><time>2026-04-18T12:36:33Z</time></trkpt><trkpt lat="43.915049245502516" lon="7.847921072137936"><ele>182.0</ele><time>2026-04-18T12:36:35Z</time></trkpt><trkpt lat="43.914944980331796" lon="7.847875932588297"><ele>182.39999999999998</ele><time>2026-04-18T12:36:37Z</time></trkpt><trkpt lat="43.91487653185184" lon="7.8478451920491334"><ele>182.79999999999998</ele><time>2026-04-18T12:36:38Z</time></trkpt><trkpt lat="43.91475608479585" lon="7.847788190648204"><ele>183.2</ele><time>2026-04-18T12:36:40Z</time></trkpt><trkpt lat="43.91470361052995" lon="7.847738647416229"><ele>183.6</ele><time>2026-04-18T12:36:41Z</time></trkpt><trkpt lat="43.91460851780097" lon="7.847652408073438"><ele>184.0</ele><time>2026-04-18T12:36:43Z</time></trkpt><trkpt lat="43.91454061934716" lon="7.847546306138503"><ele>184.16666666666669</ele><time>2026-04-18T12:36:45Z</time></trkpt><trkpt lat="43.914471943354954" lon="7.847438162836106"><ele>184.33333333333334</ele><time>2026-04-18T12:36:47Z</time></trkpt><trkpt lat="43.914434690438306" lon="7.8473549017954305"><ele>184.5</ele><time>2026-04-18T12:36:48Z</time></trkpt><trkpt lat="43.914406626398524" lon="7.847266533277451"><ele>184.66666666666666</ele><time>2026-04-18T12:36:49Z</time></trkpt><trkpt lat="43.914384415992195" lon="7.847181477264642"><ele>184.83333333333331</ele><time>2026-04-18T12:36:50Z</time></trkpt><trkpt lat="43.914361294492" lon="7.84708590855475"><ele>185.0</ele><time>2026-04-18T12:36:51Z</time></trkpt><trkpt lat="43.91435770831163" lon="7.846991731615533"><ele>185.0</ele><time>2026-04-18T12:36:52Z</time></trkpt><trkpt lat="43.91436147473817" lon="7.8468254851224115"><ele>185.0</ele><time>2026-04-18T12:36:54Z</time></trkpt><trkpt lat="43.91437224829702" lon="7.846651501593397"><ele>185.0</ele><time>2026-04-18T12:36:56Z</time></trkpt><trkpt lat="43.9143881988644" lon="7.846552643548307"><ele>185.0</ele><time>2026-04-18T12:36:57Z</time></trkpt><trkpt lat="43.91439533859952" lon="7.846447080994083"><ele>185.0</ele><time>2026-04-18T12:36:58Z</time></trkpt><trkpt lat="43.91439220718972" lon="7.846328169958617"><ele>185.7142857142857</ele><time>2026-04-18T12:36:59Z</time></trkpt><trkpt lat="43.914388640849516" lon="7.846222661043765"><ele>186.42857142857142</ele><time>2026-04-18T12:37:00Z</time></trkpt><trkpt lat="43.91438739976323" lon="7.846127079899473"><ele>187.14285714285714</ele><time>2026-04-18T12:37:01Z</time></trkpt><trkpt lat="43.91438592919108" lon="7.846029554980693"><ele>187.85714285714283</ele><time>2026-04-18T12:37:02Z</time></trkpt><trkpt lat="43.91438370595769" lon="7.8459380110376085"><ele>188.57142857142858</ele><time>2026-04-18T12:37:03Z</time></trkpt><trkpt lat="43.9143801118498" lon="7.845848913145282"><ele>189.28571428571428</ele><time>2026-04-18T12:37:04Z</time></trkpt><trkpt lat="43.9143782954561" lon="7.845759545328091"><ele>190.0</ele><time>2026-04-18T12:37:05Z</time></trkpt><trkpt lat="43.91436800995187" lon="7.845585797738851"><ele>191.0</ele><time>2026-04-18T12:37:07Z</time></trkpt><trkpt lat="43.914360974844385" lon="7.845493393626557"><ele>192.0</ele><time>2026-04-18T12:37:08Z</time></trkpt><trkpt lat="43.91434434301142" lon="7.845400552000568"><ele>193.0</ele><time>2026-04-18T12:37:09Z</time></trkpt><trkpt lat="43.91432134786472" lon="7.845297656776431"><ele>194.0</ele><time>2026-04-18T12:37:10Z</time></trkpt><trkpt lat="43.914283901673166" lon="7.84519268384467"><ele>194.99999999999997</ele><time>2026-04-18T12:37:11Z</time></trkpt><trkpt lat="43.91423535448222" lon="7.8450858156156835"><ele>196.0</ele><time>2026-04-18T12:37:12Z</time></trkpt><trkpt lat="43.91417391806512" lon="7.844986158025752"><ele>196.0</ele><time>2026-04-18T12:37:13Z</time></trkpt><trkpt lat="43.91409396511478" lon="7.844906151434272"><ele>196.0</ele><time>2026-04-18T12:37:14Z</time></trkpt><trkpt lat="43.914010575139635" lon="7.84481904462651"><ele>196.0</ele><time>2026-04-18T12:37:15Z</time></trkpt><trkpt lat="43.91390621984076" lon="7.84479495724985"><ele>196.0</ele><time>2026-04-18T12:37:16Z</time></trkpt><trkpt lat="43.91380306993912" lon="7.844762426918564"><ele>196.0</ele><time>2026-04-18T12:37:17Z</time></trkpt><trkpt lat="43.91370758877856" lon="7.844734379834323"><ele>196.0</ele><time>2026-04-18T12:37:18Z</time></trkpt><trkpt lat="43.913609896179054" lon="7.844691537503393"><ele>196.0</ele><time>2026-04-18T12:37:19Z</time></trkpt><trkpt lat="43.91350702740302" lon="7.844632463784187"><ele>196.0</ele><time>2026-04-18T12:37:20Z</time></trkpt><trkpt lat="43.91341046091316" lon="7.844554783608821"><ele>196.0</ele><time>2026-04-18T12:37:21Z</time></trkpt><trkpt lat="43.91329670559814" lon="7.844510694484828"><ele>196.0</ele><time>2026-04-18T12:37:22Z</time></trkpt><trkpt lat="43.91318238943233" lon="7.8444777425427885"><ele>199.0</ele><time>2026-04-18T12:37:23Z</time></trkpt><trkpt lat="43.91308031375094" lon="7.84442902830694"><ele>202.0</ele><time>2026-04-18T12:37:24Z</time></trkpt><trkpt lat="43.91296926955329" lon="7.844428571119703"><ele>205.0</ele><time>2026-04-18T12:37:25Z</time></trkpt><trkpt lat="43.91286925016483" lon="7.844380048735371"><ele>208.0</ele><time>2026-04-18T12:37:26Z</time></trkpt><trkpt lat="43.91277977791556" lon="7.844296096291017"><ele>211.0</ele><time>2026-04-18T12:37:27Z</time></trkpt><trkpt lat="43.91267438477781" lon="7.844243761631459"><ele>207.0</ele><time>2026-04-18T12:37:28Z</time></trkpt><trkpt lat="43.91255589583871" lon="7.844217128681174"><ele>203.0</ele><time>2026-04-18T12:37:29Z</time></trkpt><trkpt lat="43.91243651827193" lon="7.844216592645277"><ele>199.0</ele><time>2026-04-18T12:37:30Z</time></trkpt><trkpt lat="43.9123195201606" lon="7.844214735517913"><ele>195.0</ele><time>2026-04-18T12:37:31Z</time></trkpt><trkpt lat="43.91219663496173" lon="7.844210815942439"><ele>195.0</ele><time>2026-04-18T12:37:32Z</time></trkpt><trkpt lat="43.91206707450183" lon="7.8442346864676535"><ele>195.0</ele><time>2026-04-18T12:37:33Z</time></trkpt><trkpt lat="43.91191106845823" lon="7.844284532576024"><ele>195.0</ele><time>2026-04-18T12:37:34Z</time></trkpt><trkpt lat="43.91171896575314" lon="7.844354288002854"><ele>187.0</ele><time>2026-04-18T12:37:35Z</time></trkpt><trkpt lat="43.911552823390345" lon="7.844429904690195"><ele>179.0</ele><time>2026-04-18T12:37:36Z</time></trkpt><trkpt lat="43.91140923654176" lon="7.8445007314442"><ele>171.0</ele><time>2026-04-18T12:37:37Z</time></trkpt><trkpt lat="43.911270456209856" lon="7.844556539985235"><ele>171.0</ele><time>2026-04-18T12:37:38Z</time></trkpt><trkpt lat="43.91112551001627" lon="7.844586300082908"><ele>171.0</ele><time>2026-04-18T12:37:39Z</time></trkpt><trkpt lat="43.91096939176717" lon="7.844606053803902"><ele>171.0</ele><time>2026-04-18T12:37:40Z</time></trkpt><trkpt lat="43.910812322767356" lon="7.844642105747141"><ele>170.66666666666666</ele><time>2026-04-18T12:37:41Z</time></trkpt><trkpt lat="43.91065556910721" lon="7.844646019077058"><ele>170.33333333333331</ele><time>2026-04-18T12:37:42Z</time></trkpt><trkpt lat="43.910510157764996" lon="7.844667031928361"><ele>170.0</ele><time>2026-04-18T12:37:43Z</time></trkpt><trkpt lat="43.91036488062806" lon="7.8446990674745605"><ele>170.0</ele><time>2026-04-18T12:37:44Z</time></trkpt><trkpt lat="43.91022485458904" lon="7.84473982494986"><ele>170.0</ele><time>2026-04-18T12:37:45Z</time></trkpt><trkpt lat="43.91008195721142" lon="7.844759768511797"><ele>170.0</ele><time>2026-04-18T12:37:46Z</time></trkpt><trkpt lat="43.90994391858222" lon="7.844749245399778"><ele>170.0</ele><time>2026-04-18T12:37:47Z</time></trkpt><trkpt lat="43.90980866979814" lon="7.844731253729513"><ele>169.75</ele><time>2026-04-18T12:37:48Z</time></trkpt><trkpt lat="43.9096872167706" lon="7.844666670807762"><ele>169.5</ele><time>2026-04-18T12:37:49Z</time></trkpt><trkpt lat="43.909573366348226" lon="7.844573306998237"><ele>169.25</ele><time>2026-04-18T12:37:50Z</time></trkpt><trkpt lat="43.909476068891856" lon="7.844460628686255"><ele>169.0</ele><time>2026-04-18T12:37:51Z</time></trkpt><trkpt lat="43.909391601877296" lon="7.844330473232147"><ele>168.75</ele><time>2026-04-18T12:37:52Z</time></trkpt><trkpt lat="43.90930672883047" lon="7.844181715124508"><ele>168.5</ele><time>2026-04-18T12:37:52.999Z</time></trkpt><trkpt lat="43.90921439973193" lon="7.844029082144494"><ele>168.25</ele><time>2026-04-18T12:37:53.999Z</time></trkpt><trkpt lat="43.90911402043234" lon="7.8438768356141875"><ele>168.0</ele><time>2026-04-18T12:37:54.999Z</time></trkpt><trkpt lat="43.90900479248718" lon="7.843737848633294"><ele>168.0</ele><time>2026-04-18T12:37:55.999Z</time></trkpt><trkpt lat="43.90890289030301" lon="7.843607015009828"><ele>168.0</ele><time>2026-04-18T12:37:56.999Z</time></trkpt><trkpt lat="43.90880138251039" lon="7.843487178942025"><ele>168.0</ele><time>2026-04-18T12:37:57.999Z</time></trkpt><trkpt lat="43.9086795367663" lon="7.843411932670308"><ele>168.0</ele><time>2026-04-18T12:37:58.999Z</time></trkpt><trkpt lat="43.908538642676284" lon="7.843363959883553"><ele>171.0</ele><time>2026-04-18T12:37:59.999Z</time></trkpt><trkpt lat="43.90839315455449" lon="7.843333581813317"><ele>174.0</ele><time>2026-04-18T12:38:00.999Z</time></trkpt><trkpt lat="43.90825427663556" lon="7.843317661400476"><ele>177.0</ele><time>2026-04-18T12:38:01.999Z</time></trkpt><trkpt lat="43.90812220531128" lon="7.843309635604988"><ele>180.0</ele><time>2026-04-18T12:38:02.999Z</time></trkpt><trkpt lat="43.908000303689846" lon="7.843321042079835"><ele>180.0</ele><time>2026-04-18T12:38:03.999Z</time></trkpt><trkpt lat="43.90788366603561" lon="7.843362726641151"><ele>180.0</ele><time>2026-04-18T12:38:04.999Z</time></trkpt><trkpt lat="43.90779178915703" lon="7.843493231434086"><ele>180.0</ele><time>2026-04-18T12:38:05.999Z</time></trkpt><trkpt lat="43.90769481280846" lon="7.843633142813556"><ele>180.0</ele><time>2026-04-18T12:38:06.999Z</time></trkpt><trkpt lat="43.90759217827118" lon="7.843746178832518"><ele>176.0</ele><time>2026-04-18T12:38:08Z</time></trkpt><trkpt lat="43.90750474231993" lon="7.843871692459926"><ele>172.0</ele><time>2026-04-18T12:38:09Z</time></trkpt><trkpt lat="43.907421973365395" lon="7.843994380710869"><ele>168.0</ele><time>2026-04-18T12:38:10Z</time></trkpt><trkpt lat="43.907344101545455" lon="7.8441224657101625"><ele>164.0</ele><time>2026-04-18T12:38:11Z</time></trkpt><trkpt lat="43.90727143400912" lon="7.844250451546688"><ele>164.0</ele><time>2026-04-18T12:38:12Z</time></trkpt><trkpt lat="43.90720441506851" lon="7.8443815193275865"><ele>164.0</ele><time>2026-04-18T12:38:13Z</time></trkpt><trkpt lat="43.90714510894849" lon="7.844509334169497"><ele>164.0</ele><time>2026-04-18T12:38:14Z</time></trkpt><trkpt lat="43.90709135641154" lon="7.8446389596959"><ele>164.0</ele><time>2026-04-18T12:38:15Z</time></trkpt><trkpt lat="43.90705136512579" lon="7.844772150119431"><ele>164.0</ele><time>2026-04-18T12:38:16Z</time></trkpt><trkpt lat="43.90699528742175" lon="7.844888222071101"><ele>164.0</ele><time>2026-04-18T12:38:17Z</time></trkpt><trkpt lat="43.90693245921482" lon="7.844991589245794"><ele>164.0</ele><time>2026-04-18T12:38:18Z</time></trkpt><trkpt lat="43.90686591135358" lon="7.845087613402893"><ele>164.0</ele><time>2026-04-18T12:38:19Z</time></trkpt><trkpt lat="43.90678341009269" lon="7.845181628947661"><ele>164.0</ele><time>2026-04-18T12:38:20Z</time></trkpt><trkpt lat="43.90669842664721" lon="7.845268807173398"><ele>164.0</ele><time>2026-04-18T12:38:21Z</time></trkpt><trkpt lat="43.90660552630811" lon="7.845338951248763"><ele>166.0</ele><time>2026-04-18T12:38:22Z</time></trkpt><trkpt lat="43.90649497193446" lon="7.8453863934565025"><ele>168.0</ele><time>2026-04-18T12:38:23Z</time></trkpt><trkpt lat="43.906375646757034" lon="7.845415790535239"><ele>170.0</ele><time>2026-04-18T12:38:24Z</time></trkpt><trkpt lat="43.90625242708792" lon="7.845432543305906"><ele>172.0</ele><time>2026-04-18T12:38:25Z</time></trkpt><trkpt lat="43.906126308912675" lon="7.845431625386179"><ele>172.0</ele><time>2026-04-18T12:38:26Z</time></trkpt><trkpt lat="43.9059978377416" lon="7.845407093041216"><ele>172.0</ele><time>2026-04-18T12:38:27Z</time></trkpt><trkpt lat="43.90587572648433" lon="7.845356882225935"><ele>172.0</ele><time>2026-04-18T12:38:28Z</time></trkpt><trkpt lat="43.90576411624242" lon="7.845284440160789"><ele>172.0</ele><time>2026-04-18T12:38:29Z</time></trkpt><trkpt lat="43.90565763564177" lon="7.845182688707818"><ele>167.75</ele><time>2026-04-18T12:38:30Z</time></trkpt><trkpt lat="43.90556525764791" lon="7.845046170247152"><ele>163.5</ele><time>2026-04-18T12:38:31Z</time></trkpt><trkpt lat="43.90547697895665" lon="7.8448893431862174"><ele>159.25</ele><time>2026-04-18T12:38:32Z</time></trkpt><trkpt lat="43.90539442075073" lon="7.844718893205957"><ele>155.0</ele><time>2026-04-18T12:38:33Z</time></trkpt><trkpt lat="43.90534007376641" lon="7.844541951555594"><ele>155.0</ele><time>2026-04-18T12:38:34Z</time></trkpt><trkpt lat="43.90531526523525" lon="7.844358312825768"><ele>155.0</ele><time>2026-04-18T12:38:35Z</time></trkpt><trkpt lat="43.90531665387132" lon="7.844164004873137"><ele>155.0</ele><time>2026-04-18T12:38:36Z</time></trkpt><trkpt lat="43.90533398480535" lon="7.843955539486117"><ele>155.0</ele><time>2026-04-18T12:38:37Z</time></trkpt><trkpt lat="43.90535172945801" lon="7.84373286411447"><ele>156.33333333333331</ele><time>2026-04-18T12:38:38Z</time></trkpt><trkpt lat="43.90536588097508" lon="7.84350003024683"><ele>157.66666666666666</ele><time>2026-04-18T12:38:39Z</time></trkpt><trkpt lat="43.9053758962211" lon="7.843255068415894"><ele>159.0</ele><time>2026-04-18T12:38:40Z</time></trkpt><trkpt lat="43.90538895793208" lon="7.843014820903225"><ele>159.33333333333334</ele><time>2026-04-18T12:38:41Z</time></trkpt><trkpt lat="43.905406959883614" lon="7.842775440284543"><ele>159.66666666666669</ele><time>2026-04-18T12:38:42Z</time></trkpt><trkpt lat="43.905436806117066" lon="7.842525176263052"><ele>160.0</ele><time>2026-04-18T12:38:43Z</time></trkpt><trkpt lat="43.90547443797423" lon="7.84227150460706"><ele>159.0</ele><time>2026-04-18T12:38:44Z</time></trkpt><trkpt lat="43.90551591683383" lon="7.842014380010488"><ele>158.0</ele><time>2026-04-18T12:38:45Z</time></trkpt><trkpt lat="43.90554550965311" lon="7.841774832992554"><ele>157.0</ele><time>2026-04-18T12:38:46Z</time></trkpt><trkpt lat="43.9055798545688" lon="7.841532730185051"><ele>157.0</ele><time>2026-04-18T12:38:47Z</time></trkpt><trkpt lat="43.90560437487866" lon="7.841303764002996"><ele>157.0</ele><time>2026-04-18T12:38:48Z</time></trkpt><trkpt lat="43.90562553961683" lon="7.841089966414993"><ele>157.0</ele><time>2026-04-18T12:38:49Z</time></trkpt><trkpt lat="43.90564480302541" lon="7.8408829107332005"><ele>156.75</ele><time>2026-04-18T12:38:50Z</time></trkpt><trkpt lat="43.90565093605763" lon="7.840681803635585"><ele>156.5</ele><time>2026-04-18T12:38:51Z</time></trkpt><trkpt lat="43.905635122592564" lon="7.840481145718148"><ele>156.25</ele><time>2026-04-18T12:38:52Z</time></trkpt><trkpt lat="43.90557911720931" lon="7.84029082799527"><ele>156.0</ele><time>2026-04-18T12:38:53Z</time></trkpt><trkpt lat="43.90549973615259" lon="7.840107876436544"><ele>161.0</ele><time>2026-04-18T12:38:54Z</time></trkpt><trkpt lat="43.90540784114136" lon="7.839934384762861"><ele>166.0</ele><time>2026-04-18T12:38:55Z</time></trkpt><trkpt lat="43.90529523839626" lon="7.839767469505671"><ele>171.0</ele><time>2026-04-18T12:38:56Z</time></trkpt><trkpt lat="43.90516706669328" lon="7.839605594413173"><ele>163.0</ele><time>2026-04-18T12:38:57Z</time></trkpt><trkpt lat="43.905032222687225" lon="7.839453613802439"><ele>155.0</ele><time>2026-04-18T12:38:58Z</time></trkpt><trkpt lat="43.904879786592225" lon="7.839357253239893"><ele>147.0</ele><time>2026-04-18T12:38:59Z</time></trkpt><trkpt lat="43.904721644711486" lon="7.839304287886283"><ele>147.0</ele><time>2026-04-18T12:39:00Z</time></trkpt><trkpt lat="43.90456144982247" lon="7.839299270486714"><ele>147.0</ele><time>2026-04-18T12:39:01Z</time></trkpt><trkpt lat="43.904394263235694" lon="7.839334520751648"><ele>147.0</ele><time>2026-04-18T12:39:02Z</time></trkpt><trkpt lat="43.90422799647319" lon="7.839357014295818"><ele>147.0</ele><time>2026-04-18T12:39:03Z</time></trkpt><trkpt lat="43.90406312360794" lon="7.839371311274657"><ele>147.0</ele><time>2026-04-18T12:39:04Z</time></trkpt><trkpt lat="43.903907835872936" lon="7.8393979387657176"><ele>147.0</ele><time>2026-04-18T12:39:05Z</time></trkpt><trkpt lat="43.90376423936878" lon="7.839510776761373"><ele>147.0</ele><time>2026-04-18T12:39:06Z</time></trkpt><trkpt lat="43.90360540142032" lon="7.8395995544598716"><ele>147.0</ele><time>2026-04-18T12:39:07Z</time></trkpt><trkpt lat="43.9034484150301" lon="7.839708263940685"><ele>147.0</ele><time>2026-04-18T12:39:08Z</time></trkpt><trkpt lat="43.90329931245465" lon="7.839832852116128"><ele>146.33333333333334</ele><time>2026-04-18T12:39:09Z</time></trkpt><trkpt lat="43.9031508099492" lon="7.8399335582971466"><ele>145.66666666666669</ele><time>2026-04-18T12:39:10Z</time></trkpt><trkpt lat="43.903018002111004" lon="7.840052459739136"><ele>145.0</ele><time>2026-04-18T12:39:11Z</time></trkpt><trkpt lat="43.90290771342919" lon="7.840200625585182"><ele>144.0</ele><time>2026-04-18T12:39:12Z</time></trkpt><trkpt lat="43.90280601619297" lon="7.840386575649062"><ele>143.0</ele><time>2026-04-18T12:39:13Z</time></trkpt><trkpt lat="43.902684893841325" lon="7.8405651035618"><ele>142.0</ele><time>2026-04-18T12:39:14Z</time></trkpt><trkpt lat="43.90258919186847" lon="7.840800225147112"><ele>140.66666666666669</ele><time>2026-04-18T12:39:15Z</time></trkpt><trkpt lat="43.90248602679646" lon="7.841030949705211"><ele>139.33333333333334</ele><time>2026-04-18T12:39:16Z</time></trkpt><trkpt lat="43.902377542301494" lon="7.841251359774007"><ele>138.0</ele><time>2026-04-18T12:39:17Z</time></trkpt><trkpt lat="43.90226485153347" lon="7.841444830485912"><ele>138.0</ele><time>2026-04-18T12:39:18Z</time></trkpt><trkpt lat="43.90214043605963" lon="7.841639086364771"><ele>138.0</ele><time>2026-04-18T12:39:19Z</time></trkpt><trkpt lat="43.902013911973455" lon="7.841825021853375"><ele>138.0</ele><time>2026-04-18T12:39:20Z</time></trkpt><trkpt lat="43.90189732106103" lon="7.842007808710842"><ele>138.33333333333334</ele><time>2026-04-18T12:39:21Z</time></trkpt><trkpt lat="43.901785166301345" lon="7.842183694126814"><ele>138.66666666666669</ele><time>2026-04-18T12:39:22Z</time></trkpt><trkpt lat="43.901679772436715" lon="7.842348017553124"><ele>139.0</ele><time>2026-04-18T12:39:23Z</time></trkpt><trkpt lat="43.901571560929916" lon="7.842513008219912"><ele>138.66666666666669</ele><time>2026-04-18T12:39:24Z</time></trkpt><trkpt lat="43.90145935264267" lon="7.842671200496225"><ele>138.33333333333334</ele><time>2026-04-18T12:39:25Z</time></trkpt><trkpt lat="43.90133809055624" lon="7.842815414316888"><ele>138.0</ele><time>2026-04-18T12:39:26Z</time></trkpt><trkpt lat="43.901210682180384" lon="7.842931361723994"><ele>138.0</ele><time>2026-04-18T12:39:27Z</time></trkpt><trkpt lat="43.901081172568226" lon="7.843002808007903"><ele>138.0</ele><time>2026-04-18T12:39:28Z</time></trkpt><trkpt lat="43.90094792638034" lon="7.8430347134252765"><ele>138.0</ele><time>2026-04-18T12:39:29Z</time></trkpt><trkpt lat="43.900802715846034" lon="7.843039406017268"><ele>138.0</ele><time>2026-04-18T12:39:30Z</time></trkpt><trkpt lat="43.900665537488486" lon="7.843041182856485"><ele>138.20000000000002</ele><time>2026-04-18T12:39:31Z</time></trkpt><trkpt lat="43.90054325908517" lon="7.843047889558339"><ele>138.4</ele><time>2026-04-18T12:39:32Z</time></trkpt><trkpt lat="43.900440761020185" lon="7.843015116822904"><ele>138.60000000000002</ele><time>2026-04-18T12:39:33Z</time></trkpt><trkpt lat="43.900353280581285" lon="7.84298672344489"><ele>138.8</ele><time>2026-04-18T12:39:34Z</time></trkpt><trkpt lat="43.90027370788564" lon="7.842890981016444"><ele>139.0</ele><time>2026-04-18T12:39:35Z</time></trkpt><trkpt lat="43.90021566913964" lon="7.8427561372766705"><ele>139.5</ele><time>2026-04-18T12:39:36Z</time></trkpt><trkpt lat="43.90018459967732" lon="7.842586389586915"><ele>140.0</ele><time>2026-04-18T12:39:37Z</time></trkpt><trkpt lat="43.90015860585196" lon="7.842385939683561"><ele>140.5</ele><time>2026-04-18T12:39:38Z</time></trkpt><trkpt lat="43.90012026197713" lon="7.842205167990748"><ele>141.0</ele><time>2026-04-18T12:39:39Z</time></trkpt><trkpt lat="43.90005498588778" lon="7.842048742792844"><ele>141.0</ele><time>2026-04-18T12:39:40Z</time></trkpt><trkpt lat="43.89995635238174" lon="7.841924038014326"><ele>141.0</ele><time>2026-04-18T12:39:41Z</time></trkpt><trkpt lat="43.89986489933796" lon="7.841767932386479"><ele>141.0</ele><time>2026-04-18T12:39:42Z</time></trkpt><trkpt lat="43.89969234198194" lon="7.841742343933792"><ele>141.8</ele><time>2026-04-18T12:39:43Z</time></trkpt><trkpt lat="43.89957342640211" lon="7.841663319432058"><ele>142.6</ele><time>2026-04-18T12:39:44Z</time></trkpt><trkpt lat="43.899473872855246" lon="7.841608003318741"><ele>143.4</ele><time>2026-04-18T12:39:45Z</time></trkpt><trkpt lat="43.89938060445386" lon="7.841607861593336"><ele>144.2</ele><time>2026-04-18T12:39:46Z</time></trkpt><trkpt lat="43.89928725060613" lon="7.841678014387709"><ele>145.0</ele><time>2026-04-18T12:39:47Z</time></trkpt><trkpt lat="43.89918563042581" lon="7.841790385696714"><ele>143.0</ele><time>2026-04-18T12:39:48Z</time></trkpt><trkpt lat="43.89906777611963" lon="7.841901065962346"><ele>141.0</ele><time>2026-04-18T12:39:49Z</time></trkpt><trkpt lat="43.89894154533918" lon="7.842011752818394"><ele>139.0</ele><time>2026-04-18T12:39:50Z</time></trkpt><trkpt lat="43.898827215430394" lon="7.842121984785353"><ele>137.0</ele><time>2026-04-18T12:39:51Z</time></trkpt><trkpt lat="43.89872004455097" lon="7.842229095575228"><ele>137.0</ele><time>2026-04-18T12:39:52Z</time></trkpt><trkpt lat="43.89861011772156" lon="7.842322627854634"><ele>137.0</ele><time>2026-04-18T12:39:53Z</time></trkpt><trkpt lat="43.898498722454235" lon="7.842373913323888"><ele>137.0</ele><time>2026-04-18T12:39:54Z</time></trkpt><trkpt lat="43.898386830665636" lon="7.842369470492998"><ele>137.0</ele><time>2026-04-18T12:39:55Z</time></trkpt><trkpt lat="43.898273205321395" lon="7.842314542408843"><ele>137.25</ele><time>2026-04-18T12:39:56Z</time></trkpt><trkpt lat="43.898152009087234" lon="7.8422451572584855"><ele>137.5</ele><time>2026-04-18T12:39:57Z</time></trkpt><trkpt lat="43.89801502593714" lon="7.842198294334605"><ele>137.75</ele><time>2026-04-18T12:39:58Z</time></trkpt><trkpt lat="43.897869048362715" lon="7.8421728383861335"><ele>138.0</ele><time>2026-04-18T12:39:59Z</time></trkpt><trkpt lat="43.89771587384688" lon="7.842160772276057"><ele>137.33333333333334</ele><time>2026-04-18T12:40:00Z</time></trkpt><trkpt lat="43.89755854456397" lon="7.842169136020833"><ele>136.66666666666669</ele><time>2026-04-18T12:40:01Z</time></trkpt><trkpt lat="43.89739653938863" lon="7.842196483973712"><ele>136.0</ele><time>2026-04-18T12:40:02Z</time></trkpt><trkpt lat="43.897230713266126" lon="7.8422175682683815"><ele>136.0</ele><time>2026-04-18T12:40:03Z</time></trkpt><trkpt lat="43.897066946915416" lon="7.842230605269541"><ele>136.0</ele><time>2026-04-18T12:40:04Z</time></trkpt><trkpt lat="43.89691056567687" lon="7.842245554413913"><ele>136.0</ele><time>2026-04-18T12:40:05Z</time></trkpt><trkpt lat="43.89676546205693" lon="7.842277443319078"><ele>137.25</ele><time>2026-04-18T12:40:06Z</time></trkpt><trkpt lat="43.896631138567294" lon="7.8423274232490385"><ele>138.5</ele><time>2026-04-18T12:40:07Z</time></trkpt><trkpt lat="43.8965094889938" lon="7.842404840513285"><ele>139.75</ele><time>2026-04-18T12:40:08Z</time></trkpt><trkpt lat="43.8964012145725" lon="7.8425202417406314"><ele>141.0</ele><time>2026-04-18T12:40:09Z</time></trkpt><trkpt lat="43.896318878563505" lon="7.8426752667835355"><ele>138.0</ele><time>2026-04-18T12:40:10Z</time></trkpt><trkpt lat="43.896270752822026" lon="7.842852586828569"><ele>135.0</ele><time>2026-04-18T12:40:11Z</time></trkpt><trkpt lat="43.89622616986204" lon="7.843035610537537"><ele>132.0</ele><time>2026-04-18T12:40:12Z</time></trkpt><trkpt lat="43.896154346751" lon="7.8432050047334165"><ele>129.0</ele><time>2026-04-18T12:40:13Z</time></trkpt><trkpt lat="43.89604815125742" lon="7.843364081868518"><ele>129.0</ele><time>2026-04-18T12:40:14Z</time></trkpt><trkpt lat="43.89592865505791" lon="7.843521884926711"><ele>129.0</ele><time>2026-04-18T12:40:15Z</time></trkpt><trkpt lat="43.895803359962265" lon="7.843686398563963"><ele>129.0</ele><time>2026-04-18T12:40:16Z</time></trkpt><trkpt lat="43.89567301821924" lon="7.843849526364266"><ele>129.66666666666666</ele><time>2026-04-18T12:40:17Z</time></trkpt><trkpt lat="43.89554359597318" lon="7.843998748489089"><ele>130.33333333333331</ele><time>2026-04-18T12:40:18Z</time></trkpt><trkpt lat="43.89541011995049" lon="7.844127562573235"><ele>131.0</ele><time>2026-04-18T12:40:19Z</time></trkpt><trkpt lat="43.89527247058753" lon="7.844221489522226"><ele>131.0</ele><time>2026-04-18T12:40:20Z</time></trkpt><trkpt lat="43.89513102044571" lon="7.844281894354136"><ele>131.0</ele><time>2026-04-18T12:40:21Z</time></trkpt><trkpt lat="43.89498977606748" lon="7.844298406079236"><ele>131.0</ele><time>2026-04-18T12:40:22Z</time></trkpt><trkpt lat="43.894849195510254" lon="7.844260633412227"><ele>131.0</ele><time>2026-04-18T12:40:23Z</time></trkpt><trkpt lat="43.89470669926649" lon="7.84418532778541"><ele>134.33333333333331</ele><time>2026-04-18T12:40:24Z</time></trkpt><trkpt lat="43.89456129842694" lon="7.8440956157334885"><ele>137.66666666666666</ele><time>2026-04-18T12:40:25Z</time></trkpt><trkpt lat="43.894421107548496" lon="7.843988054123736"><ele>141.0</ele><time>2026-04-18T12:40:26Z</time></trkpt><trkpt lat="43.89428999300723" lon="7.843870050999942"><ele>144.0</ele><time>2026-04-18T12:40:27Z</time></trkpt><trkpt lat="43.89417258353076" lon="7.843731756215058"><ele>147.0</ele><time>2026-04-18T12:40:28Z</time></trkpt><trkpt lat="43.8940633265343" lon="7.843582124121064"><ele>150.0</ele><time>2026-04-18T12:40:29Z</time></trkpt><trkpt lat="43.893968435237824" lon="7.843434152108505"><ele>150.0</ele><time>2026-04-18T12:40:30Z</time></trkpt><trkpt lat="43.8938873967198" lon="7.8432831231807905"><ele>150.0</ele><time>2026-04-18T12:40:31Z</time></trkpt><trkpt lat="43.893807825018065" lon="7.843159662342725"><ele>150.0</ele><time>2026-04-18T12:40:32Z</time></trkpt><trkpt lat="43.89370937783831" lon="7.843077648742653"><ele>150.0</ele><time>2026-04-18T12:40:33Z</time></trkpt><trkpt lat="43.89358190025375" lon="7.8430361395178885"><ele>150.0</ele><time>2026-04-18T12:40:34Z</time></trkpt><trkpt lat="43.89344362452954" lon="7.8430269306063405"><ele>150.0</ele><time>2026-04-18T12:40:35Z</time></trkpt><trkpt lat="43.893303185893465" lon="7.843046369203262"><ele>150.0</ele><time>2026-04-18T12:40:36Z</time></trkpt><trkpt lat="43.89317431411767" lon="7.843102692729946"><ele>150.0</ele><time>2026-04-18T12:40:37Z</time></trkpt><trkpt lat="43.89305339316914" lon="7.8431985631474594"><ele>145.75</ele><time>2026-04-18T12:40:38Z</time></trkpt><trkpt lat="43.892930891457816" lon="7.843298868213764"><ele>141.5</ele><time>2026-04-18T12:40:39Z</time></trkpt><trkpt lat="43.89280453230997" lon="7.843403056930398"><ele>137.25</ele><time>2026-04-18T12:40:40Z</time></trkpt><trkpt lat="43.8926971079472" lon="7.843518341690505"><ele>133.0</ele><time>2026-04-18T12:40:41Z</time></trkpt><trkpt lat="43.89261323570438" lon="7.843659806588262"><ele>133.25</ele><time>2026-04-18T12:40:42Z</time></trkpt><trkpt lat="43.8925543093529" lon="7.8438323135127455"><ele>133.5</ele><time>2026-04-18T12:40:43Z</time></trkpt><trkpt lat="43.89251457641442" lon="7.844025947092108"><ele>133.75</ele><time>2026-04-18T12:40:44Z</time></trkpt><trkpt lat="43.892466644814526" lon="7.84419282862694"><ele>134.0</ele><time>2026-04-18T12:40:45Z</time></trkpt><trkpt lat="43.89243915398782" lon="7.844357512364423"><ele>134.0</ele><time>2026-04-18T12:40:46Z</time></trkpt><trkpt lat="43.892376973008375" lon="7.844486784364863"><ele>134.0</ele><time>2026-04-18T12:40:47Z</time></trkpt><trkpt lat="43.89229375548751" lon="7.844567335982611"><ele>134.0</ele><time>2026-04-18T12:40:48Z</time></trkpt><trkpt lat="43.892200237168126" lon="7.844579354003927"><ele>134.0</ele><time>2026-04-18T12:40:49Z</time></trkpt><trkpt lat="43.892117335213776" lon="7.844533901285823"><ele>134.0</ele><time>2026-04-18T12:40:50Z</time></trkpt><trkpt lat="43.89205698563537" lon="7.844441255134144"><ele>134.0</ele><time>2026-04-18T12:40:51Z</time></trkpt><trkpt lat="43.892019039629815" lon="7.844303937615978"><ele>134.0</ele><time>2026-04-18T12:40:52Z</time></trkpt><trkpt lat="43.891995071393175" lon="7.844144435578747"><ele>134.0</ele><time>2026-04-18T12:40:53Z</time></trkpt><trkpt lat="43.891971508600335" lon="7.843962211129727"><ele>134.0</ele><time>2026-04-18T12:40:54Z</time></trkpt><trkpt lat="43.891934772862825" lon="7.84378334049102"><ele>133.25</ele><time>2026-04-18T12:40:55Z</time></trkpt><trkpt lat="43.891885442052356" lon="7.843613048459611"><ele>132.5</ele><time>2026-04-18T12:40:56Z</time></trkpt><trkpt lat="43.89182559489064" lon="7.843451769127685"><ele>131.75</ele><time>2026-04-18T12:40:57Z</time></trkpt><trkpt lat="43.89174994058807" lon="7.843306532131119"><ele>131.0</ele><time>2026-04-18T12:40:58Z</time></trkpt><trkpt lat="43.89165715314014" lon="7.843169707890543"><ele>130.75</ele><time>2026-04-18T12:40:59Z</time></trkpt><trkpt lat="43.89155320731272" lon="7.843052033053601"><ele>130.5</ele><time>2026-04-18T12:41:00Z</time></trkpt><trkpt lat="43.89145304861068" lon="7.842949445524623"><ele>130.25</ele><time>2026-04-18T12:41:01Z</time></trkpt><trkpt lat="43.8913458687529" lon="7.842861296799606"><ele>130.0</ele><time>2026-04-18T12:41:02Z</time></trkpt><trkpt lat="43.89122012590749" lon="7.84278881436583"><ele>130.0</ele><time>2026-04-18T12:41:03Z</time></trkpt><trkpt lat="43.89108516521067" lon="7.8427097853640015"><ele>130.0</ele><time>2026-04-18T12:41:04Z</time></trkpt><trkpt lat="43.890941853556804" lon="7.8426397291214345"><ele>130.0</ele><time>2026-04-18T12:41:05Z</time></trkpt><trkpt lat="43.89080565979727" lon="7.8425780823364315"><ele>130.0</ele><time>2026-04-18T12:41:06Z</time></trkpt><trkpt lat="43.89067207500665" lon="7.842518425686387"><ele>131.75</ele><time>2026-04-18T12:41:07Z</time></trkpt><trkpt lat="43.89054164622813" lon="7.842483434068897"><ele>133.5</ele><time>2026-04-18T12:41:08Z</time></trkpt><trkpt lat="43.89040428477502" lon="7.842497884099784"><ele>135.25</ele><time>2026-04-18T12:41:09Z</time></trkpt><trkpt lat="43.89025781255666" lon="7.8425407821474415"><ele>137.0</ele><time>2026-04-18T12:41:10Z</time></trkpt><trkpt lat="43.890105016004355" lon="7.842560164741614"><ele>134.75</ele><time>2026-04-18T12:41:11Z</time></trkpt><trkpt lat="43.88995837387027" lon="7.842586258423525"><ele>132.5</ele><time>2026-04-18T12:41:12Z</time></trkpt><trkpt lat="43.88982002644991" lon="7.842616754840028"><ele>130.25</ele><time>2026-04-18T12:41:13Z</time></trkpt><trkpt lat="43.88969090313871" lon="7.842664441588555"><ele>128.0</ele><time>2026-04-18T12:41:14Z</time></trkpt><trkpt lat="43.88956244807715" lon="7.842669250937212"><ele>123.80000000000001</ele><time>2026-04-18T12:41:15Z</time></trkpt><trkpt lat="43.889438169943546" lon="7.842657640686431"><ele>119.60000000000001</ele><time>2026-04-18T12:41:16Z</time></trkpt><trkpt lat="43.889327894731665" lon="7.8426525901844455"><ele>115.39999999999999</ele><time>2026-04-18T12:41:17Z</time></trkpt><trkpt lat="43.88923812122059" lon="7.842701343520647"><ele>111.19999999999999</ele><time>2026-04-18T12:41:18Z</time></trkpt><trkpt lat="43.88918070213442" lon="7.842785123593689"><ele>107.0</ele><time>2026-04-18T12:41:19Z</time></trkpt><trkpt lat="43.889147320343476" lon="7.8428993553521"><ele>107.0</ele><time>2026-04-18T12:41:20Z</time></trkpt><trkpt lat="43.889106300735115" lon="7.843035457970887"><ele>107.0</ele><time>2026-04-18T12:41:21Z</time></trkpt><trkpt lat="43.889039498515885" lon="7.843182194918528"><ele>107.0</ele><time>2026-04-18T12:41:22Z</time></trkpt><trkpt lat="43.888952692218105" lon="7.8433174158604455"><ele>107.0</ele><time>2026-04-18T12:41:23Z</time></trkpt><trkpt lat="43.88885479261551" lon="7.843443349215483"><ele>101.33333333333333</ele><time>2026-04-18T12:41:24Z</time></trkpt><trkpt lat="43.888752373899734" lon="7.843589097171805"><ele>95.66666666666666</ele><time>2026-04-18T12:41:25Z</time></trkpt><trkpt lat="43.88864688585433" lon="7.843750181469507"><ele>90.0</ele><time>2026-04-18T12:41:26Z</time></trkpt><trkpt lat="43.88853277323647" lon="7.843924523510155"><ele>90.66666666666667</ele><time>2026-04-18T12:41:27Z</time></trkpt><trkpt lat="43.888413562931035" lon="7.844093290332119"><ele>91.33333333333334</ele><time>2026-04-18T12:41:28Z</time></trkpt><trkpt lat="43.88828764465648" lon="7.8442592105663405"><ele>92.0</ele><time>2026-04-18T12:41:29Z</time></trkpt><trkpt lat="43.88816442941038" lon="7.844424624283193"><ele>92.0</ele><time>2026-04-18T12:41:30Z</time></trkpt><trkpt lat="43.88804495642058" lon="7.8445873283203555"><ele>92.0</ele><time>2026-04-18T12:41:31Z</time></trkpt><trkpt lat="43.887931145528825" lon="7.844743290066279"><ele>92.0</ele><time>2026-04-18T12:41:32Z</time></trkpt><trkpt lat="43.88781619930686" lon="7.844893883639468"><ele>92.0</ele><time>2026-04-18T12:41:33Z</time></trkpt><trkpt lat="43.88770681729012" lon="7.845045491540168"><ele>92.0</ele><time>2026-04-18T12:41:34Z</time></trkpt><trkpt lat="43.88758853314033" lon="7.845185321958074"><ele>92.0</ele><time>2026-04-18T12:41:35Z</time></trkpt><trkpt lat="43.887465212872506" lon="7.845304767470135"><ele>91.66666666666667</ele><time>2026-04-18T12:41:36Z</time></trkpt><trkpt lat="43.887325518326534" lon="7.845390911649517"><ele>91.33333333333333</ele><time>2026-04-18T12:41:37Z</time></trkpt><trkpt lat="43.88716915305621" lon="7.845461280129751"><ele>91.0</ele><time>2026-04-18T12:41:38Z</time></trkpt><trkpt lat="43.887006641007915" lon="7.845501905993458"><ele>91.0</ele><time>2026-04-18T12:41:39Z</time></trkpt><trkpt lat="43.88683935343424" lon="7.845504468432446"><ele>91.0</ele><time>2026-04-18T12:41:40Z</time></trkpt><trkpt lat="43.8866726605906" lon="7.8454858073011495"><ele>91.0</ele><time>2026-04-18T12:41:41Z</time></trkpt><trkpt lat="43.88651933508887" lon="7.845437741768265"><ele>91.0</ele><time>2026-04-18T12:41:42Z</time></trkpt><trkpt lat="43.886387087821056" lon="7.845385064530357"><ele>91.0</ele><time>2026-04-18T12:41:43Z</time></trkpt><trkpt lat="43.88624910383696" lon="7.845314881442775"><ele>91.0</ele><time>2026-04-18T12:41:44Z</time></trkpt><trkpt lat="43.886117583686016" lon="7.845188460507814"><ele>91.0</ele><time>2026-04-18T12:41:45Z</time></trkpt><trkpt lat="43.88601037533013" lon="7.845020396601408"><ele>92.0</ele><time>2026-04-18T12:41:46Z</time></trkpt><trkpt lat="43.88589915380787" lon="7.844873823165788"><ele>93.0</ele><time>2026-04-18T12:41:47Z</time></trkpt><trkpt lat="43.88578870854535" lon="7.8447283362571145"><ele>94.0</ele><time>2026-04-18T12:41:48Z</time></trkpt><trkpt lat="43.885712785993704" lon="7.844567602562729"><ele>95.0</ele><time>2026-04-18T12:41:49Z</time></trkpt><trkpt lat="43.88566199725597" lon="7.844392930606285"><ele>97.75</ele><time>2026-04-18T12:41:50Z</time></trkpt><trkpt lat="43.88563438242391" lon="7.84420478770129"><ele>100.5</ele><time>2026-04-18T12:41:51Z</time></trkpt><trkpt lat="43.88561049951958" lon="7.84403144737432"><ele>103.25</ele><time>2026-04-18T12:41:52Z</time></trkpt><trkpt lat="43.88556684063712" lon="7.843896092129369"><ele>106.0</ele><time>2026-04-18T12:41:53Z</time></trkpt><trkpt lat="43.88550288214887" lon="7.843810737139199"><ele>106.00000000000001</ele><time>2026-04-18T12:41:54Z</time></trkpt><trkpt lat="43.88543765051795" lon="7.84377059338412"><ele>106.0</ele><time>2026-04-18T12:41:55Z</time></trkpt><trkpt lat="43.885365056335765" lon="7.843773065574543"><ele>106.0</ele><time>2026-04-18T12:41:56Z</time></trkpt><trkpt lat="43.885277608875384" lon="7.843810254486757"><ele>106.0</ele><time>2026-04-18T12:41:57Z</time></trkpt><trkpt lat="43.885175757338466" lon="7.843849902203106"><ele>106.00000000000001</ele><time>2026-04-18T12:41:58Z</time></trkpt><trkpt lat="43.8850903165988" lon="7.8438338473488995"><ele>106.0</ele><time>2026-04-18T12:41:59Z</time></trkpt><trkpt lat="43.88502389262922" lon="7.843756754572953"><ele>102.5</ele><time>2026-04-18T12:42:00Z</time></trkpt><trkpt lat="43.884987589078385" lon="7.843619687615919"><ele>99.0</ele><time>2026-04-18T12:42:01Z</time></trkpt><trkpt lat="43.88492568215099" lon="7.843471876211737"><ele>95.5</ele><time>2026-04-18T12:42:02Z</time></trkpt><trkpt lat="43.88485957921601" lon="7.843299321848502"><ele>92.0</ele><time>2026-04-18T12:42:03Z</time></trkpt><trkpt lat="43.884785398790015" lon="7.843131504412441"><ele>90.5</ele><time>2026-04-18T12:42:04Z</time></trkpt><trkpt lat="43.88466463632959" lon="7.843037433468088"><ele>89.0</ele><time>2026-04-18T12:42:05Z</time></trkpt><trkpt lat="43.88454667301575" lon="7.842997164511748"><ele>87.5</ele><time>2026-04-18T12:42:06Z</time></trkpt><trkpt lat="43.88442835691981" lon="7.843017869271598"><ele>86.0</ele><time>2026-04-18T12:42:07Z</time></trkpt><trkpt lat="43.88430644987196" lon="7.843085463554931"><ele>84.33333333333334</ele><time>2026-04-18T12:42:08Z</time></trkpt><trkpt lat="43.88419242349785" lon="7.843213801812628"><ele>82.66666666666667</ele><time>2026-04-18T12:42:09Z</time></trkpt><trkpt lat="43.884084306420675" lon="7.843382315287579"><ele>81.0</ele><time>2026-04-18T12:42:10Z</time></trkpt><trkpt lat="43.88396988737074" lon="7.843573600279954"><ele>88.0</ele><time>2026-04-18T12:42:11Z</time></trkpt><trkpt lat="43.883842232773326" lon="7.843793946856706"><ele>95.0</ele><time>2026-04-18T12:42:12Z</time></trkpt><trkpt lat="43.88371616145621" lon="7.844002737292405"><ele>102.0</ele><time>2026-04-18T12:42:13Z</time></trkpt><trkpt lat="43.883596192355114" lon="7.8442008685712725"><ele>94.33333333333333</ele><time>2026-04-18T12:42:14Z</time></trkpt><trkpt lat="43.8834833215012" lon="7.844409916473242"><ele>86.66666666666666</ele><time>2026-04-18T12:42:15Z</time></trkpt><trkpt lat="43.883385499035114" lon="7.84464280612916"><ele>79.0</ele><time>2026-04-18T12:42:16Z</time></trkpt><trkpt lat="43.88332071061514" lon="7.844896658567554"><ele>81.0</ele><time>2026-04-18T12:42:17Z</time></trkpt><trkpt lat="43.883253240901105" lon="7.84515081431268"><ele>83.0</ele><time>2026-04-18T12:42:18Z</time></trkpt><trkpt lat="43.883179880914525" lon="7.845394576228235"><ele>85.0</ele><time>2026-04-18T12:42:19Z</time></trkpt><trkpt lat="43.88311540680301" lon="7.845625229033894"><ele>85.0</ele><time>2026-04-18T12:42:20Z</time></trkpt><trkpt lat="43.8830554337725" lon="7.845852259333117"><ele>85.0</ele><time>2026-04-18T12:42:21Z</time></trkpt><trkpt lat="43.88300553365865" lon="7.846069770088737"><ele>85.0</ele><time>2026-04-18T12:42:22Z</time></trkpt><trkpt lat="43.8829789164833" lon="7.846280191557143"><ele>88.2</ele><time>2026-04-18T12:42:23Z</time></trkpt><trkpt lat="43.88295834316627" lon="7.84646188068313"><ele>91.4</ele><time>2026-04-18T12:42:24Z</time></trkpt><trkpt lat="43.88292685927001" lon="7.846596378651058"><ele>94.6</ele><time>2026-04-18T12:42:25Z</time></trkpt><trkpt lat="43.88286244957259" lon="7.846684457037499"><ele>97.8</ele><time>2026-04-18T12:42:26Z</time></trkpt><trkpt lat="43.882778183511995" lon="7.846720002203851"><ele>101.0</ele><time>2026-04-18T12:42:27Z</time></trkpt><trkpt lat="43.88267251081322" lon="7.8467007179034765"><ele>95.6</ele><time>2026-04-18T12:42:28Z</time></trkpt><trkpt lat="43.882556497515985" lon="7.84666232614416"><ele>90.19999999999999</ele><time>2026-04-18T12:42:29Z</time></trkpt><trkpt lat="43.882451439120345" lon="7.846659642783047"><ele>84.80000000000001</ele><time>2026-04-18T12:42:30Z</time></trkpt><trkpt lat="43.8823666971593" lon="7.84671997671395"><ele>79.4</ele><time>2026-04-18T12:42:31Z</time></trkpt><trkpt lat="43.8822988304942" lon="7.846838948411397"><ele>74.0</ele><time>2026-04-18T12:42:32Z</time></trkpt><trkpt lat="43.88223318746458" lon="7.8469725551960785"><ele>74.0</ele><time>2026-04-18T12:42:33Z</time></trkpt><trkpt lat="43.882158758487925" lon="7.847067752317076"><ele>74.0</ele><time>2026-04-18T12:42:34Z</time></trkpt><trkpt lat="43.88206910617637" lon="7.847134550283018"><ele>74.0</ele><time>2026-04-18T12:42:35Z</time></trkpt><trkpt lat="43.881958503200295" lon="7.847165678598252"><ele>74.0</ele><time>2026-04-18T12:42:36Z</time></trkpt><trkpt lat="43.88182541726095" lon="7.847171280404563"><ele>74.0</ele><time>2026-04-18T12:42:37Z</time></trkpt><trkpt lat="43.881674324718155" lon="7.847162856556659"><ele>70.66666666666667</ele><time>2026-04-18T12:42:38Z</time></trkpt><trkpt lat="43.88152034540389" lon="7.84716027979412"><ele>67.33333333333333</ele><time>2026-04-18T12:42:39Z</time></trkpt><trkpt lat="43.88135843203285" lon="7.84713703528974"><ele>64.0</ele><time>2026-04-18T12:42:40Z</time></trkpt><trkpt lat="43.88118678877456" lon="7.847067325607962"><ele>64.0</ele><time>2026-04-18T12:42:41Z</time></trkpt><trkpt lat="43.880997216417086" lon="7.847031437101924"><ele>64.0</ele><time>2026-04-18T12:42:42Z</time></trkpt><trkpt lat="43.880811106543064" lon="7.846976255558808"><ele>64.0</ele><time>2026-04-18T12:42:43Z</time></trkpt><trkpt lat="43.880637424460346" lon="7.84694318428653"><ele>63.666666666666664</ele><time>2026-04-18T12:42:44Z</time></trkpt><trkpt lat="43.880462031911335" lon="7.84694129871341"><ele>63.33333333333333</ele><time>2026-04-18T12:42:45Z</time></trkpt><trkpt lat="43.8802775840547" lon="7.846970582780094"><ele>63.0</ele><time>2026-04-18T12:42:46Z</time></trkpt><trkpt lat="43.88009362976861" lon="7.847010719790837"><ele>63.0</ele><time>2026-04-18T12:42:47Z</time></trkpt><trkpt lat="43.87991677850199" lon="7.847029927746995"><ele>63.0</ele><time>2026-04-18T12:42:48Z</time></trkpt><trkpt lat="43.8797517677893" lon="7.847125271410714"><ele>63.0</ele><time>2026-04-18T12:42:49Z</time></trkpt><trkpt lat="43.87958085416132" lon="7.847227704226141"><ele>63.0</ele><time>2026-04-18T12:42:50Z</time></trkpt><trkpt lat="43.87940062162487" lon="7.847322343004907"><ele>63.0</ele><time>2026-04-18T12:42:51Z</time></trkpt><trkpt lat="43.87922562183515" lon="7.847420437842258"><ele>63.0</ele><time>2026-04-18T12:42:52Z</time></trkpt><trkpt lat="43.87906544943015" lon="7.847517635347616"><ele>62.33333333333333</ele><time>2026-04-18T12:42:53Z</time></trkpt><trkpt lat="43.878925286999426" lon="7.847634041122718"><ele>61.666666666666664</ele><time>2026-04-18T12:42:54Z</time></trkpt><trkpt lat="43.87880951757655" lon="7.8477811632660615"><ele>61.0</ele><time>2026-04-18T12:42:55Z</time></trkpt><trkpt lat="43.87869337337828" lon="7.847954235624633"><ele>61.0</ele><time>2026-04-18T12:42:56Z</time></trkpt><trkpt lat="43.87856709965158" lon="7.848117163441867"><ele>61.0</ele><time>2026-04-18T12:42:57Z</time></trkpt><trkpt lat="43.878432139720054" lon="7.8482770337066325"><ele>61.0</ele><time>2026-04-18T12:42:58Z</time></trkpt><trkpt lat="43.87829140172948" lon="7.848433720468347"><ele>60.0</ele><time>2026-04-18T12:42:59Z</time></trkpt><trkpt lat="43.87815158943796" lon="7.848590499653732"><ele>59.0</ele><time>2026-04-18T12:43:00Z</time></trkpt><trkpt lat="43.8780160894651" lon="7.848754666464157"><ele>58.0</ele><time>2026-04-18T12:43:01Z</time></trkpt><trkpt lat="43.87788618785606" lon="7.848927022749267"><ele>58.0</ele><time>2026-04-18T12:43:02Z</time></trkpt><trkpt lat="43.877762089637926" lon="7.84911685338411"><ele>58.0</ele><time>2026-04-18T12:43:03Z</time></trkpt><trkpt lat="43.87764464428725" lon="7.849324426839059"><ele>58.0</ele><time>2026-04-18T12:43:04Z</time></trkpt><trkpt lat="43.87752634310156" lon="7.849539489606119"><ele>57.0</ele><time>2026-04-18T12:43:05Z</time></trkpt><trkpt lat="43.877411562308666" lon="7.849739876145251"><ele>56.0</ele><time>2026-04-18T12:43:06Z</time></trkpt><trkpt lat="43.877301003362575" lon="7.84992989705832"><ele>55.0</ele><time>2026-04-18T12:43:07Z</time></trkpt><trkpt lat="43.8772052217442" lon="7.850123526234219"><ele>54.666666666666664</ele><time>2026-04-18T12:43:08Z</time></trkpt><trkpt lat="43.877123215949794" lon="7.8503219378883164"><ele>54.33333333333333</ele><time>2026-04-18T12:43:09Z</time></trkpt><trkpt lat="43.87705026283098" lon="7.850519364487716"><ele>54.0</ele><time>2026-04-18T12:43:10Z</time></trkpt><trkpt lat="43.87697650776493" lon="7.850711056171448"><ele>54.0</ele><time>2026-04-18T12:43:11Z</time></trkpt><trkpt lat="43.876898607370514" lon="7.850889663037872"><ele>54.0</ele><time>2026-04-18T12:43:12Z</time></trkpt><trkpt lat="43.876822231753216" lon="7.851067934495174"><ele>54.0</ele><time>2026-04-18T12:43:13Z</time></trkpt><trkpt lat="43.87673892250076" lon="7.8512626567227555"><ele>53.66666666666667</ele><time>2026-04-18T12:43:14Z</time></trkpt><trkpt lat="43.87664463585181" lon="7.851460136193667"><ele>53.333333333333336</ele><time>2026-04-18T12:43:15Z</time></trkpt><trkpt lat="43.87653889739684" lon="7.85166763401849"><ele>53.0</ele><time>2026-04-18T12:43:16Z</time></trkpt><trkpt lat="43.87642810870669" lon="7.85187101940239"><ele>53.0</ele><time>2026-04-18T12:43:17Z</time></trkpt><trkpt lat="43.876317961298646" lon="7.852075640686161"><ele>53.0</ele><time>2026-04-18T12:43:18Z</time></trkpt><trkpt lat="43.87621403856701" lon="7.852267445808092"><ele>53.0</ele><time>2026-04-18T12:43:19Z</time></trkpt><trkpt lat="43.87610523547533" lon="7.852476414140762"><ele>53.66666666666667</ele><time>2026-04-18T12:43:20Z</time></trkpt><trkpt lat="43.87600105577736" lon="7.852689441175296"><ele>54.33333333333333</ele><time>2026-04-18T12:43:21Z</time></trkpt><trkpt lat="43.87589799086282" lon="7.852899153601061"><ele>55.0</ele><time>2026-04-18T12:43:22Z</time></trkpt><trkpt lat="43.875785816308664" lon="7.853098456522989"><ele>55.0</ele><time>2026-04-18T12:43:23Z</time></trkpt><trkpt lat="43.87566757217732" lon="7.853289939574897"><ele>55.0</ele><time>2026-04-18T12:43:24Z</time></trkpt><trkpt lat="43.875545277845134" lon="7.853472253234952"><ele>55.0</ele><time>2026-04-18T12:43:25Z</time></trkpt><trkpt lat="43.875436499044255" lon="7.853647695255225"><ele>55.5</ele><time>2026-04-18T12:43:26Z</time></trkpt><trkpt lat="43.87532990725433" lon="7.853808637684155"><ele>56.0</ele><time>2026-04-18T12:43:27Z</time></trkpt><trkpt lat="43.875211752294" lon="7.853938578254015"><ele>56.5</ele><time>2026-04-18T12:43:28Z</time></trkpt><trkpt lat="43.87509647195676" lon="7.854037546543521"><ele>57.0</ele><time>2026-04-18T12:43:29Z</time></trkpt><trkpt lat="43.87496574481035" lon="7.8541080937956025"><ele>57.0</ele><time>2026-04-18T12:43:30Z</time></trkpt><trkpt lat="43.87481954488707" lon="7.854171116856459"><ele>57.0</ele><time>2026-04-18T12:43:31Z</time></trkpt><trkpt lat="43.874670756034064" lon="7.854232631886116"><ele>57.0</ele><time>2026-04-18T12:43:32Z</time></trkpt><trkpt lat="43.87451574158612" lon="7.854304037056355"><ele>55.25</ele><time>2026-04-18T12:43:33Z</time></trkpt><trkpt lat="43.87437166773441" lon="7.854393614623196"><ele>53.5</ele><time>2026-04-18T12:43:34Z</time></trkpt><trkpt lat="43.87423821083506" lon="7.854496876745025"><ele>51.75</ele><time>2026-04-18T12:43:35Z</time></trkpt><trkpt lat="43.87413396760574" lon="7.854594048278095"><ele>50.0</ele><time>2026-04-18T12:43:36Z</time></trkpt><trkpt lat="43.874036174135135" lon="7.854683694131936"><ele>49.2</ele><time>2026-04-18T12:43:37Z</time></trkpt><trkpt lat="43.87394464727297" lon="7.854764601269634"><ele>48.4</ele><time>2026-04-18T12:43:38Z</time></trkpt><trkpt lat="43.873846739687956" lon="7.854837586476094"><ele>47.599999999999994</ele><time>2026-04-18T12:43:39Z</time></trkpt><trkpt lat="43.87375723250634" lon="7.854907415206062"><ele>46.8</ele><time>2026-04-18T12:43:40Z</time></trkpt><trkpt lat="43.873676200343056" lon="7.8549810800414"><ele>46.0</ele><time>2026-04-18T12:43:41Z</time></trkpt><trkpt lat="43.873596399018176" lon="7.855050178598638"><ele>46.0</ele><time>2026-04-18T12:43:42Z</time></trkpt><trkpt lat="43.87351300714876" lon="7.855117889024126"><ele>46.0</ele><time>2026-04-18T12:43:43Z</time></trkpt><trkpt lat="43.87342375106506" lon="7.85516883145265"><ele>46.0</ele><time>2026-04-18T12:43:44Z</time></trkpt><trkpt lat="43.87332234596965" lon="7.855208714902849"><ele>46.0</ele><time>2026-04-18T12:43:45Z</time></trkpt><trkpt lat="43.87320953359034" lon="7.855233991859104"><ele>46.0</ele><time>2026-04-18T12:43:46Z</time></trkpt><trkpt lat="43.873099832011256" lon="7.8552543538535184"><ele>46.0</ele><time>2026-04-18T12:43:47Z</time></trkpt><trkpt lat="43.87298925468285" lon="7.855272848552392"><ele>46.0</ele><time>2026-04-18T12:43:48Z</time></trkpt><trkpt lat="43.872883510718346" lon="7.855299193707083"><ele>46.0</ele><time>2026-04-18T12:43:49Z</time></trkpt><trkpt lat="43.872778166768605" lon="7.855336406570795"><ele>46.0</ele><time>2026-04-18T12:43:50Z</time></trkpt><trkpt lat="43.872668651385" lon="7.85538155923926"><ele>46.0</ele><time>2026-04-18T12:43:51Z</time></trkpt><trkpt lat="43.87255902813013" lon="7.855432699830309"><ele>46.0</ele><time>2026-04-18T12:43:52Z</time></trkpt><trkpt lat="43.87245008078819" lon="7.855473676202796"><ele>46.0</ele><time>2026-04-18T12:43:53Z</time></trkpt><trkpt lat="43.87234144216993" lon="7.855497350581087"><ele>46.0</ele><time>2026-04-18T12:43:54Z</time></trkpt><trkpt lat="43.872219406252725" lon="7.855508712843164"><ele>46.0</ele><time>2026-04-18T12:43:55Z</time></trkpt><trkpt lat="43.872093794280275" lon="7.855510374269949"><ele>46.0</ele><time>2026-04-18T12:43:56Z</time></trkpt><trkpt lat="43.871964520155316" lon="7.85550889758028"><ele>46.0</ele><time>2026-04-18T12:43:57Z</time></trkpt><trkpt lat="43.87183282071901" lon="7.855514074861641"><ele>46.0</ele><time>2026-04-18T12:43:58Z</time></trkpt><trkpt lat="43.871708486543426" lon="7.855545948621256"><ele>46.0</ele><time>2026-04-18T12:43:59Z</time></trkpt><trkpt lat="43.871581476223625" lon="7.855585128211235"><ele>46.0</ele><time>2026-04-18T12:44:00Z</time></trkpt><trkpt lat="43.87145748111077" lon="7.855625852200041"><ele>46.0</ele><time>2026-04-18T12:44:01Z</time></trkpt><trkpt lat="43.87134012051248" lon="7.855661424746342"><ele>46.0</ele><time>2026-04-18T12:44:02Z</time></trkpt><trkpt lat="43.87122108718622" lon="7.855680934252839"><ele>46.0</ele><time>2026-04-18T12:44:03Z</time></trkpt><trkpt lat="43.871116493060995" lon="7.855712684730024"><ele>46.0</ele><time>2026-04-18T12:44:04Z</time></trkpt><trkpt lat="43.87101369376645" lon="7.855726882677116"><ele>46.0</ele><time>2026-04-18T12:44:05Z</time></trkpt><trkpt lat="43.87090769556645" lon="7.8557303027532805"><ele>46.0</ele><time>2026-04-18T12:44:06Z</time></trkpt><trkpt lat="43.87080185554713" lon="7.855721225375255"><ele>46.0</ele><time>2026-04-18T12:44:07Z</time></trkpt><trkpt lat="43.8706958525881" lon="7.855703813560148"><ele>46.0</ele><time>2026-04-18T12:44:08Z</time></trkpt><trkpt lat="43.87058846584194" lon="7.8556737207718825"><ele>46.0</ele><time>2026-04-18T12:44:09Z</time></trkpt><trkpt lat="43.870475829153094" lon="7.855639605043602"><ele>46.0</ele><time>2026-04-18T12:44:10Z</time></trkpt><trkpt lat="43.87036748677115" lon="7.8555979213121665"><ele>46.0</ele><time>2026-04-18T12:44:11Z</time></trkpt><trkpt lat="43.870262637031466" lon="7.855572978829414"><ele>46.0</ele><time>2026-04-18T12:44:12Z</time></trkpt><trkpt lat="43.870157484505924" lon="7.855543681992972"><ele>46.0</ele><time>2026-04-18T12:44:13Z</time></trkpt><trkpt lat="43.870055587546034" lon="7.85550833065369"><ele>46.0</ele><time>2026-04-18T12:44:14Z</time></trkpt><trkpt lat="43.86994649897983" lon="7.8554761858228135"><ele>46.0</ele><time>2026-04-18T12:44:15Z</time></trkpt><trkpt lat="43.869840535289036" lon="7.8554409454412"><ele>46.0</ele><time>2026-04-18T12:44:16Z</time></trkpt><trkpt lat="43.86973675815065" lon="7.855398638216477"><ele>46.0</ele><time>2026-04-18T12:44:17Z</time></trkpt><trkpt lat="43.86963257092308" lon="7.855354695632662"><ele>46.0</ele><time>2026-04-18T12:44:18Z</time></trkpt><trkpt lat="43.86952905574232" lon="7.8553094798255065"><ele>46.0</ele><time>2026-04-18T12:44:19Z</time></trkpt><trkpt lat="43.86942428646464" lon="7.855260767319185"><ele>46.0</ele><time>2026-04-18T12:44:20Z</time></trkpt><trkpt lat="43.869323016243165" lon="7.855206781021972"><ele>46.0</ele><time>2026-04-18T12:44:21Z</time></trkpt><trkpt lat="43.86922390974584" lon="7.855146926802632"><ele>46.0</ele><time>2026-04-18T12:44:22Z</time></trkpt><trkpt lat="43.86911768298615" lon="7.8551095123443675"><ele>46.0</ele><time>2026-04-18T12:44:23Z</time></trkpt><trkpt lat="43.86901984352599" lon="7.855061775014393"><ele>47.199999999999996</ele><time>2026-04-18T12:44:24Z</time></trkpt><trkpt lat="43.868918539946414" lon="7.855007527815866"><ele>48.4</ele><time>2026-04-18T12:44:25Z</time></trkpt><trkpt lat="43.86882626295235" lon="7.8549529595599195"><ele>49.6</ele><time>2026-04-18T12:44:26Z</time></trkpt><trkpt lat="43.86873142459393" lon="7.854903503475732"><ele>50.8</ele><time>2026-04-18T12:44:27Z</time></trkpt><trkpt lat="43.86863520537107" lon="7.854859586416506"><ele>52.0</ele><time>2026-04-18T12:44:28Z</time></trkpt><trkpt lat="43.86854380949778" lon="7.854824486750877"><ele>51.99999999999999</ele><time>2026-04-18T12:44:29Z</time></trkpt><trkpt lat="43.86845462390724" lon="7.854799031077965"><ele>52.0</ele><time>2026-04-18T12:44:30Z</time></trkpt><trkpt lat="43.86837824188045" lon="7.854782972904779"><ele>52.0</ele><time>2026-04-18T12:44:31Z</time></trkpt><trkpt lat="43.868300945391994" lon="7.854775160119565"><ele>52.0</ele><time>2026-04-18T12:44:32Z</time></trkpt><trkpt lat="43.86821996830569" lon="7.854765563916253"><ele>51.99999999999999</ele><time>2026-04-18T12:44:33Z</time></trkpt><trkpt lat="43.86812611175844" lon="7.85476280428886"><ele>52.0</ele><time>2026-04-18T12:44:34Z</time></trkpt><trkpt lat="43.86802905312711" lon="7.8547708634112485"><ele>50.2</ele><time>2026-04-18T12:44:35Z</time></trkpt><trkpt lat="43.86794124208177" lon="7.854781566403568"><ele>48.400000000000006</ele><time>2026-04-18T12:44:36Z</time></trkpt><trkpt lat="43.86785213953352" lon="7.854784593619797"><ele>46.599999999999994</ele><time>2026-04-18T12:44:37Z</time></trkpt><trkpt lat="43.867749421770384" lon="7.854788391364218"><ele>44.8</ele><time>2026-04-18T12:44:38Z</time></trkpt><trkpt lat="43.86764945991899" lon="7.8547879990443255"><ele>43.0</ele><time>2026-04-18T12:44:39Z</time></trkpt><trkpt lat="43.86754711561492" lon="7.8547716013446465"><ele>41.8</ele><time>2026-04-18T12:44:40Z</time></trkpt><trkpt lat="43.867444429042465" lon="7.854743705676191"><ele>40.599999999999994</ele><time>2026-04-18T12:44:41Z</time></trkpt><trkpt lat="43.86733323816689" lon="7.854710308617904"><ele>39.400000000000006</ele><time>2026-04-18T12:44:42Z</time></trkpt><trkpt lat="43.86722955691706" lon="7.854675046758522"><ele>38.2</ele><time>2026-04-18T12:44:43Z</time></trkpt><trkpt lat="43.86714849189858" lon="7.854640376239162"><ele>37.0</ele><time>2026-04-18T12:44:44Z</time></trkpt><trkpt lat="43.86702967383375" lon="7.854549405544544"><ele>37.0</ele><time>2026-04-18T12:44:45Z</time></trkpt><trkpt lat="43.866918340030345" lon="7.854501096554624"><ele>37.0</ele><time>2026-04-18T12:44:46Z</time></trkpt><trkpt lat="43.86681985224708" lon="7.854430997337404"><ele>37.0</ele><time>2026-04-18T12:44:47Z</time></trkpt><trkpt lat="43.866713105183656" lon="7.854358428414497"><ele>37.0</ele><time>2026-04-18T12:44:48Z</time></trkpt><trkpt lat="43.86660502490797" lon="7.854294729992244"><ele>37.0</ele><time>2026-04-18T12:44:49Z</time></trkpt><trkpt lat="43.86648708808177" lon="7.854219596241516"><ele>37.0</ele><time>2026-04-18T12:44:50Z</time></trkpt><trkpt lat="43.86637907579039" lon="7.854144797642516"><ele>37.0</ele><time>2026-04-18T12:44:51Z</time></trkpt><trkpt lat="43.866269787743285" lon="7.854067694544688"><ele>37.0</ele><time>2026-04-18T12:44:52Z</time></trkpt><trkpt lat="43.866162276349435" lon="7.853993615328254"><ele>37.0</ele><time>2026-04-18T12:44:53Z</time></trkpt><trkpt lat="43.866051271025796" lon="7.853929982768755"><ele>37.0</ele><time>2026-04-18T12:44:54Z</time></trkpt><trkpt lat="43.86593376113572" lon="7.853855530565704"><ele>37.0</ele><time>2026-04-18T12:44:55Z</time></trkpt><trkpt lat="43.86581887783647" lon="7.853799281090707"><ele>37.0</ele><time>2026-04-18T12:44:56Z</time></trkpt><trkpt lat="43.86569930840499" lon="7.853760425902893"><ele>36.0</ele><time>2026-04-18T12:44:57Z</time></trkpt><trkpt lat="43.8655773664643" lon="7.853714119734366"><ele>35.0</ele><time>2026-04-18T12:44:58Z</time></trkpt><trkpt lat="43.86546245001779" lon="7.853668736864516"><ele>34.0</ele><time>2026-04-18T12:44:59Z</time></trkpt><trkpt lat="43.865350833981125" lon="7.8536243917174176"><ele>33.0</ele><time>2026-04-18T12:45:00Z</time></trkpt><trkpt lat="43.8652410458338" lon="7.8536063012377255"><ele>33.0</ele><time>2026-04-18T12:45:01Z</time></trkpt><trkpt lat="43.865128805671986" lon="7.853627238201113"><ele>33.0</ele><time>2026-04-18T12:45:02Z</time></trkpt><trkpt lat="43.86501891798674" lon="7.8536660135657606"><ele>33.0</ele><time>2026-04-18T12:45:03Z</time></trkpt><trkpt lat="43.86491511682606" lon="7.853699852539305"><ele>33.0</ele><time>2026-04-18T12:45:04Z</time></trkpt><trkpt lat="43.86479930811963" lon="7.85373733065683"><ele>32.4</ele><time>2026-04-18T12:45:05Z</time></trkpt><trkpt lat="43.86468564458928" lon="7.853759512474157"><ele>31.799999999999997</ele><time>2026-04-18T12:45:06Z</time></trkpt><trkpt lat="43.86458471057812" lon="7.853765418775192"><ele>31.2</ele><time>2026-04-18T12:45:07Z</time></trkpt><trkpt lat="43.86448833406329" lon="7.853759787329787"><ele>30.6</ele><time>2026-04-18T12:45:08Z</time></trkpt><trkpt lat="43.8644006686591" lon="7.853741869970679"><ele>30.0</ele><time>2026-04-18T12:45:09Z</time></trkpt><trkpt lat="43.864316293730035" lon="7.853721211291133"><ele>29.833333333333332</ele><time>2026-04-18T12:45:10Z</time></trkpt><trkpt lat="43.864231962978735" lon="7.85369911002849"><ele>29.666666666666664</ele><time>2026-04-18T12:45:11Z</time></trkpt><trkpt lat="43.86415078618564" lon="7.853675841329198"><ele>29.5</ele><time>2026-04-18T12:45:12Z</time></trkpt><trkpt lat="43.86406174041527" lon="7.853652194568278"><ele>29.333333333333332</ele><time>2026-04-18T12:45:13Z</time></trkpt><trkpt lat="43.86398033637473" lon="7.853627473858016"><ele>29.166666666666664</ele><time>2026-04-18T12:45:14Z</time></trkpt><trkpt lat="43.863898771463255" lon="7.853615543053461"><ele>29.0</ele><time>2026-04-18T12:45:15Z</time></trkpt><trkpt lat="43.86382775367858" lon="7.853605989567171"><ele>28.999999999999996</ele><time>2026-04-18T12:45:16Z</time></trkpt><trkpt lat="43.863757853864115" lon="7.853604260254382"><ele>29.0</ele><time>2026-04-18T12:45:17Z</time></trkpt><trkpt lat="43.86368602537853" lon="7.853607261689112"><ele>29.0</ele><time>2026-04-18T12:45:18Z</time></trkpt><trkpt lat="43.863604952044085" lon="7.853606894095489"><ele>29.0</ele><time>2026-04-18T12:45:19Z</time></trkpt><trkpt lat="43.86351751780708" lon="7.853610828411202"><ele>28.999999999999996</ele><time>2026-04-18T12:45:20Z</time></trkpt><trkpt lat="43.86342728799254" lon="7.853621091218113"><ele>29.0</ele><time>2026-04-18T12:45:21Z</time></trkpt><trkpt lat="43.86333798665535" lon="7.853632517668399"><ele>28.999999999999996</ele><time>2026-04-18T12:45:22Z</time></trkpt><trkpt lat="43.86325108806192" lon="7.853656402719978"><ele>29.0</ele><time>2026-04-18T12:45:23Z</time></trkpt><trkpt lat="43.863163549137795" lon="7.853682893773046"><ele>29.0</ele><time>2026-04-18T12:45:24Z</time></trkpt><trkpt lat="43.863076324493" lon="7.853715532282098"><ele>29.0</ele><time>2026-04-18T12:45:25Z</time></trkpt><trkpt lat="43.86299146964096" lon="7.853731467248969"><ele>28.999999999999996</ele><time>2026-04-18T12:45:26Z</time></trkpt><trkpt lat="43.862914730264826" lon="7.853752166883071"><ele>29.0</ele><time>2026-04-18T12:45:27Z</time></trkpt><trkpt lat="43.86283545373168" lon="7.853769887292179"><ele>28.999999999999996</ele><time>2026-04-18T12:45:28Z</time></trkpt><trkpt lat="43.86275743680881" lon="7.853790413381198"><ele>29.0</ele><time>2026-04-18T12:45:29Z</time></trkpt><trkpt lat="43.86269157532154" lon="7.8538081920192715"><ele>29.0</ele><time>2026-04-18T12:45:30Z</time></trkpt><trkpt lat="43.86260807930063" lon="7.853833559607918"><ele>29.0</ele><time>2026-04-18T12:45:31Z</time></trkpt><trkpt lat="43.86252882382674" lon="7.85385707228848"><ele>28.999999999999996</ele><time>2026-04-18T12:45:32Z</time></trkpt><trkpt lat="43.86243954809133" lon="7.85388767859991"><ele>29.0</ele><time>2026-04-18T12:45:33Z</time></trkpt><trkpt lat="43.86235199184976" lon="7.853917535210118"><ele>29.6</ele><time>2026-04-18T12:45:34Z</time></trkpt><trkpt lat="43.8622561068564" lon="7.8539268731231635"><ele>30.2</ele><time>2026-04-18T12:45:35Z</time></trkpt><trkpt lat="43.86216178405155" lon="7.85394388384083"><ele>30.800000000000004</ele><time>2026-04-18T12:45:36Z</time></trkpt><trkpt lat="43.862073443267576" lon="7.853966164378677"><ele>31.400000000000002</ele><time>2026-04-18T12:45:37Z</time></trkpt><trkpt lat="43.861977221338115" lon="7.853969471740902"><ele>32.0</ele><time>2026-04-18T12:45:38Z</time></trkpt><trkpt lat="43.86189965814524" lon="7.853982906224348"><ele>32.0</ele><time>2026-04-18T12:45:39Z</time></trkpt><trkpt lat="43.86181858303531" lon="7.853998764202899"><ele>31.999999999999996</ele><time>2026-04-18T12:45:40Z</time></trkpt><trkpt lat="43.86173990150777" lon="7.854019003356151"><ele>32.0</ele><time>2026-04-18T12:45:41Z</time></trkpt><trkpt lat="43.86167335266742" lon="7.854040318168627"><ele>32.0</ele><time>2026-04-18T12:45:42Z</time></trkpt><trkpt lat="43.861598861629915" lon="7.854057743194251"><ele>31.999999999999996</ele><time>2026-04-18T12:45:43Z</time></trkpt><trkpt lat="43.8615285307038" lon="7.854081021216349"><ele>32.0</ele><time>2026-04-18T12:45:44Z</time></trkpt><trkpt lat="43.861458759211175" lon="7.854101079344182"><ele>32.0</ele><time>2026-04-18T12:45:45Z</time></trkpt><trkpt lat="43.861350246666525" lon="7.854099406992875"><ele>32.2</ele><time>2026-04-18T12:45:47Z</time></trkpt><trkpt lat="43.861269709946434" lon="7.854144311965589"><ele>32.400000000000006</ele><time>2026-04-18T12:45:50Z</time></trkpt><trkpt lat="43.86120747502279" lon="7.854174746412951"><ele>32.599999999999994</ele><time>2026-04-18T12:46:08Z</time></trkpt><trkpt lat="43.86109186681122" lon="7.854196022883597"><ele>32.8</ele><time>2026-04-18T12:46:10Z</time></trkpt><trkpt lat="43.8609592744342" lon="7.854240397653457"><ele>33.0</ele><time>2026-04-18T12:46:12Z</time></trkpt><trkpt lat="43.86089209907832" lon="7.854263222648574"><ele>32.166666666666664</ele><time>2026-04-18T12:46:13Z</time></trkpt><trkpt lat="43.86081111011328" lon="7.8542908132680855"><ele>31.333333333333336</ele><time>2026-04-18T12:46:14Z</time></trkpt><trkpt lat="43.86072268532411" lon="7.854326267568984"><ele>30.5</ele><time>2026-04-18T12:46:15Z</time></trkpt><trkpt lat="43.86063965266257" lon="7.854350339100898"><ele>29.666666666666668</ele><time>2026-04-18T12:46:16Z</time></trkpt><trkpt lat="43.86055580494622" lon="7.854357010237821"><ele>28.833333333333336</ele><time>2026-04-18T12:46:17Z</time></trkpt><trkpt lat="43.86046770593966" lon="7.854370963772674"><ele>28.0</ele><time>2026-04-18T12:46:18Z</time></trkpt><trkpt lat="43.86037116163714" lon="7.854380791342084"><ele>28.0</ele><time>2026-04-18T12:46:19Z</time></trkpt><trkpt lat="43.86027688493159" lon="7.854378492147846"><ele>27.999999999999996</ele><time>2026-04-18T12:46:20Z</time></trkpt><trkpt lat="43.860172551946256" lon="7.854398607651521"><ele>27.999999999999996</ele><time>2026-04-18T12:46:21Z</time></trkpt><trkpt lat="43.860068648958524" lon="7.8544302183971775"><ele>28.0</ele><time>2026-04-18T12:46:22Z</time></trkpt><trkpt lat="43.859970346792345" lon="7.854457064842771"><ele>28.0</ele><time>2026-04-18T12:46:23Z</time></trkpt><trkpt lat="43.85989230292231" lon="7.8545661605906565"><ele>27.4</ele><time>2026-04-18T12:46:24Z</time></trkpt><trkpt lat="43.85981182142973" lon="7.854648296163412"><ele>26.799999999999997</ele><time>2026-04-18T12:46:25Z</time></trkpt><trkpt lat="43.859726757574734" lon="7.85471670775102"><ele>26.2</ele><time>2026-04-18T12:46:26Z</time></trkpt><trkpt lat="43.85964612191324" lon="7.85476714624245"><ele>25.6</ele><time>2026-04-18T12:46:27Z</time></trkpt><trkpt lat="43.859567137380225" lon="7.854799650055644"><ele>25.0</ele><time>2026-04-18T12:46:28Z</time></trkpt><trkpt lat="43.85948366452813" lon="7.854830044354959"><ele>25.0</ele><time>2026-04-18T12:46:29Z</time></trkpt><trkpt lat="43.85939095955123" lon="7.854864759269041"><ele>25.0</ele><time>2026-04-18T12:46:30Z</time></trkpt><trkpt lat="43.85929739169097" lon="7.854906532808675"><ele>25.0</ele><time>2026-04-18T12:46:31Z</time></trkpt><trkpt lat="43.85919855859759" lon="7.854940914627407"><ele>25.0</ele><time>2026-04-18T12:46:32Z</time></trkpt><trkpt lat="43.85910071187235" lon="7.854987974084143"><ele>25.0</ele><time>2026-04-18T12:46:33Z</time></trkpt><trkpt lat="43.85899080750086" lon="7.855015942961924"><ele>25.0</ele><time>2026-04-18T12:46:34Z</time></trkpt><trkpt lat="43.85887876416104" lon="7.855059571667097"><ele>25.0</ele><time>2026-04-18T12:46:35Z</time></trkpt><trkpt lat="43.85876623631094" lon="7.855113828883275"><ele>25.0</ele><time>2026-04-18T12:46:36Z</time></trkpt><trkpt lat="43.85865017519961" lon="7.855162291268713"><ele>25.0</ele><time>2026-04-18T12:46:37Z</time></trkpt><trkpt lat="43.85853175093327" lon="7.855212208122631"><ele>24.75</ele><time>2026-04-18T12:46:38Z</time></trkpt><trkpt lat="43.858414837757714" lon="7.855259501825097"><ele>24.5</ele><time>2026-04-18T12:46:39Z</time></trkpt><trkpt lat="43.8583020870165" lon="7.855298995074264"><ele>24.25</ele><time>2026-04-18T12:46:40Z</time></trkpt><trkpt lat="43.85818142669566" lon="7.855345923127218"><ele>24.0</ele><time>2026-04-18T12:46:41Z</time></trkpt><trkpt lat="43.858056817238186" lon="7.85539447597879"><ele>24.0</ele><time>2026-04-18T12:46:42Z</time></trkpt><trkpt lat="43.85793009638445" lon="7.855442543489543"><ele>24.0</ele><time>2026-04-18T12:46:43Z</time></trkpt><trkpt lat="43.8578044726209" lon="7.855494094635842"><ele>24.0</ele><time>2026-04-18T12:46:44Z</time></trkpt><trkpt lat="43.85768115679424" lon="7.855546598229442"><ele>24.0</ele><time>2026-04-18T12:46:45Z</time></trkpt><trkpt lat="43.857553713207004" lon="7.8556015172273"><ele>23.75</ele><time>2026-04-18T12:46:46Z</time></trkpt><trkpt lat="43.85742655410974" lon="7.855660912738509"><ele>23.5</ele><time>2026-04-18T12:46:47Z</time></trkpt><trkpt lat="43.85729906995245" lon="7.855727295019759"><ele>23.25</ele><time>2026-04-18T12:46:48Z</time></trkpt><trkpt lat="43.85716949002812" lon="7.855803131441585"><ele>23.0</ele><time>2026-04-18T12:46:49Z</time></trkpt><trkpt lat="43.85703716608678" lon="7.8558806091292634"><ele>22.75</ele><time>2026-04-18T12:46:50Z</time></trkpt><trkpt lat="43.85690477120587" lon="7.855961487670358"><ele>22.5</ele><time>2026-04-18T12:46:51Z</time></trkpt><trkpt lat="43.85677062033162" lon="7.8560464196139215"><ele>22.25</ele><time>2026-04-18T12:46:52Z</time></trkpt><trkpt lat="43.85663360202909" lon="7.856133887421642"><ele>22.0</ele><time>2026-04-18T12:46:53Z</time></trkpt><trkpt lat="43.85649367555773" lon="7.856226687558207"><ele>22.0</ele><time>2026-04-18T12:46:54Z</time></trkpt><trkpt lat="43.85634989521095" lon="7.856320134588158"><ele>22.0</ele><time>2026-04-18T12:46:55Z</time></trkpt><trkpt lat="43.85620350254137" lon="7.856412567903737"><ele>22.0</ele><time>2026-04-18T12:46:56Z</time></trkpt><trkpt lat="43.856050906291344" lon="7.856508491941557"><ele>21.666666666666664</ele><time>2026-04-18T12:46:57Z</time></trkpt><trkpt lat="43.855902618013104" lon="7.856604321485357"><ele>21.333333333333332</ele><time>2026-04-18T12:46:58Z</time></trkpt><trkpt lat="43.85575262831527" lon="7.856701396326751"><ele>21.0</ele><time>2026-04-18T12:46:59Z</time></trkpt><trkpt lat="43.85559903935907" lon="7.8567953034721425"><ele>22.0</ele><time>2026-04-18T12:47:00Z</time></trkpt><trkpt lat="43.855443870522514" lon="7.856890786994143"><ele>23.0</ele><time>2026-04-18T12:47:01Z</time></trkpt><trkpt lat="43.85528342938217" lon="7.85698683593807"><ele>24.0</ele><time>2026-04-18T12:47:02Z</time></trkpt><trkpt lat="43.85512115558006" lon="7.857085802117568"><ele>23.0</ele><time>2026-04-18T12:47:03Z</time></trkpt><trkpt lat="43.85495429561329" lon="7.857183477592723"><ele>22.0</ele><time>2026-04-18T12:47:04Z</time></trkpt><trkpt lat="43.85478586816783" lon="7.857273166866278"><ele>21.0</ele><time>2026-04-18T12:47:05Z</time></trkpt><trkpt lat="43.85461468684055" lon="7.857354855934333"><ele>21.0</ele><time>2026-04-18T12:47:06Z</time></trkpt><trkpt lat="43.85444369339647" lon="7.857432313188018"><ele>21.0</ele><time>2026-04-18T12:47:07Z</time></trkpt><trkpt lat="43.85426695086233" lon="7.857505876810154"><ele>21.0</ele><time>2026-04-18T12:47:08Z</time></trkpt><trkpt lat="43.85409238025942" lon="7.857570584290001"><ele>20.333333333333332</ele><time>2026-04-18T12:47:09Z</time></trkpt><trkpt lat="43.85392462847054" lon="7.857623526054043"><ele>19.666666666666664</ele><time>2026-04-18T12:47:10Z</time></trkpt><trkpt lat="43.853760790027" lon="7.8576697074992365"><ele>19.0</ele><time>2026-04-18T12:47:11Z</time></trkpt><trkpt lat="43.85360070277163" lon="7.85770521874452"><ele>18.333333333333332</ele><time>2026-04-18T12:47:12Z</time></trkpt><trkpt lat="43.853442306780806" lon="7.857737401743504"><ele>17.666666666666668</ele><time>2026-04-18T12:47:13Z</time></trkpt><trkpt lat="43.85328506379164" lon="7.857767628467732"><ele>17.0</ele><time>2026-04-18T12:47:14Z</time></trkpt><trkpt lat="43.85313235714682" lon="7.857792525608471"><ele>17.0</ele><time>2026-04-18T12:47:15Z</time></trkpt><trkpt lat="43.85298340199249" lon="7.857814723807307"><ele>17.0</ele><time>2026-04-18T12:47:16Z</time></trkpt><trkpt lat="43.852834949299286" lon="7.857839874858745"><ele>17.0</ele><time>2026-04-18T12:47:17Z</time></trkpt><trkpt lat="43.85268716638003" lon="7.857864403941994"><ele>17.0</ele><time>2026-04-18T12:47:18Z</time></trkpt><trkpt lat="43.85253869785596" lon="7.8578854136195275"><ele>16.75</ele><time>2026-04-18T12:47:19Z</time></trkpt><trkpt lat="43.85239139397567" lon="7.85790408910182"><ele>16.5</ele><time>2026-04-18T12:47:20Z</time></trkpt><trkpt lat="43.85224307681977" lon="7.857922673764815"><ele>16.25</ele><time>2026-04-18T12:47:21Z</time></trkpt><trkpt lat="43.85209564430745" lon="7.857944375351382"><ele>16.0</ele><time>2026-04-18T12:47:22Z</time></trkpt><trkpt lat="43.85194912978427" lon="7.857969904255543"><ele>16.0</ele><time>2026-04-18T12:47:23Z</time></trkpt><trkpt lat="43.85180316959155" lon="7.857993458378723"><ele>16.0</ele><time>2026-04-18T12:47:24Z</time></trkpt><trkpt lat="43.85165498191254" lon="7.85801681299324"><ele>16.0</ele><time>2026-04-18T12:47:25Z</time></trkpt><trkpt lat="43.851505354815664" lon="7.858039581425475"><ele>16.0</ele><time>2026-04-18T12:47:26Z</time></trkpt><trkpt lat="43.851354371520145" lon="7.85806488743709"><ele>16.0</ele><time>2026-04-18T12:47:27Z</time></trkpt><trkpt lat="43.85120145351086" lon="7.85809617058689"><ele>16.0</ele><time>2026-04-18T12:47:28Z</time></trkpt><trkpt lat="43.851045849694586" lon="7.858127825087899"><ele>16.0</ele><time>2026-04-18T12:47:29Z</time></trkpt><trkpt lat="43.85088894097829" lon="7.858158399464697"><ele>15.666666666666666</ele><time>2026-04-18T12:47:30Z</time></trkpt><trkpt lat="43.85072945713052" lon="7.858185851113269"><ele>15.333333333333332</ele><time>2026-04-18T12:47:31Z</time></trkpt><trkpt lat="43.85057120348159" lon="7.858215899288235"><ele>15.0</ele><time>2026-04-18T12:47:32Z</time></trkpt><trkpt lat="43.85041061045131" lon="7.858252109819654"><ele>15.0</ele><time>2026-04-18T12:47:33Z</time></trkpt><trkpt lat="43.85024828564428" lon="7.858292575621085"><ele>15.0</ele><time>2026-04-18T12:47:34Z</time></trkpt><trkpt lat="43.85008370553815" lon="7.858333513402996"><ele>15.0</ele><time>2026-04-18T12:47:35Z</time></trkpt><trkpt lat="43.84991643531544" lon="7.858373438019583"><ele>15.0</ele><time>2026-04-18T12:47:36Z</time></trkpt><trkpt lat="43.84974659266328" lon="7.858411987816092"><ele>15.0</ele><time>2026-04-18T12:47:37Z</time></trkpt><trkpt lat="43.84957599575295" lon="7.858448468862417"><ele>15.0</ele><time>2026-04-18T12:47:38Z</time></trkpt><trkpt lat="43.84940309237316" lon="7.85848316331272"><ele>14.333333333333332</ele><time>2026-04-18T12:47:39Z</time></trkpt><trkpt lat="43.8492329131912" lon="7.85851794104184"><ele>13.666666666666666</ele><time>2026-04-18T12:47:40Z</time></trkpt><trkpt lat="43.849062709842435" lon="7.858551077094306"><ele>13.0</ele><time>2026-04-18T12:47:41Z</time></trkpt><trkpt lat="43.84889891352364" lon="7.85858537745223"><ele>13.0</ele><time>2026-04-18T12:47:42Z</time></trkpt><trkpt lat="43.84873875659105" lon="7.858615814696574"><ele>13.0</ele><time>2026-04-18T12:47:43Z</time></trkpt><trkpt lat="43.848581134848466" lon="7.858644179571266"><ele>13.0</ele><time>2026-04-18T12:47:44Z</time></trkpt><trkpt lat="43.84843013026074" lon="7.85866987053135"><ele>12.666666666666666</ele><time>2026-04-18T12:47:45Z</time></trkpt><trkpt lat="43.848280752958985" lon="7.858694517932658"><ele>12.333333333333332</ele><time>2026-04-18T12:47:46Z</time></trkpt><trkpt lat="43.848130229731126" lon="7.858721156854587"><ele>12.0</ele><time>2026-04-18T12:47:47Z</time></trkpt><trkpt lat="43.84798179301102" lon="7.858747763122749"><ele>12.0</ele><time>2026-04-18T12:47:48Z</time></trkpt><trkpt lat="43.84783548253625" lon="7.858772855934364"><ele>12.0</ele><time>2026-04-18T12:47:49Z</time></trkpt><trkpt lat="43.84768819965806" lon="7.858795719036097"><ele>12.0</ele><time>2026-04-18T12:47:50Z</time></trkpt><trkpt lat="43.84754028853473" lon="7.858821358943619"><ele>12.0</ele><time>2026-04-18T12:47:51Z</time></trkpt><trkpt lat="43.84739302260949" lon="7.858847885912748"><ele>12.666666666666668</ele><time>2026-04-18T12:47:52Z</time></trkpt><trkpt lat="43.8472438934703" lon="7.8588752912636"><ele>13.333333333333334</ele><time>2026-04-18T12:47:53Z</time></trkpt><trkpt lat="43.847095010878604" lon="7.858901891162313"><ele>14.0</ele><time>2026-04-18T12:47:54Z</time></trkpt><trkpt lat="43.8469436552978" lon="7.858931113972745"><ele>14.0</ele><time>2026-04-18T12:47:55Z</time></trkpt><trkpt lat="43.846799614940196" lon="7.858958925820605"><ele>14.0</ele><time>2026-04-18T12:47:56Z</time></trkpt><trkpt lat="43.84666147503008" lon="7.8589836708199305"><ele>14.0</ele><time>2026-04-18T12:47:57Z</time></trkpt><trkpt lat="43.846530467099136" lon="7.85900402676023"><ele>14.0</ele><time>2026-04-18T12:47:58Z</time></trkpt><trkpt lat="43.84640506961021" lon="7.859024578709723"><ele>13.799999999999999</ele><time>2026-04-18T12:47:59Z</time></trkpt><trkpt lat="43.846288032909655" lon="7.859046235895061"><ele>13.599999999999998</ele><time>2026-04-18T12:48:00Z</time></trkpt><trkpt lat="43.84617781938524" lon="7.859069050429582"><ele>13.4</ele><time>2026-04-18T12:48:01Z</time></trkpt><trkpt lat="43.84607221806002" lon="7.859088725044293"><ele>13.2</ele><time>2026-04-18T12:48:02Z</time></trkpt><trkpt lat="43.84596782836855" lon="7.859105552654939"><ele>13.0</ele><time>2026-04-18T12:48:03Z</time></trkpt><trkpt lat="43.84585735396593" lon="7.859123085176716"><ele>13.5</ele><time>2026-04-18T12:48:04Z</time></trkpt><trkpt lat="43.845737762712204" lon="7.859142912130878"><ele>14.0</ele><time>2026-04-18T12:48:05Z</time></trkpt><trkpt lat="43.845613179123" lon="7.85916597914194"><ele>14.5</ele><time>2026-04-18T12:48:06Z</time></trkpt><trkpt lat="43.845485603429765" lon="7.859189344255564"><ele>15.0</ele><time>2026-04-18T12:48:07Z</time></trkpt><trkpt lat="43.84535619323587" lon="7.859208022044183"><ele>15.0</ele><time>2026-04-18T12:48:08Z</time></trkpt><trkpt lat="43.845224468535825" lon="7.859216521365785"><ele>15.0</ele><time>2026-04-18T12:48:09Z</time></trkpt><trkpt lat="43.84508320576877" lon="7.859216411468606"><ele>15.0</ele><time>2026-04-18T12:48:10Z</time></trkpt><trkpt lat="43.84493628554733" lon="7.859210920132092"><ele>15.0</ele><time>2026-04-18T12:48:11Z</time></trkpt><trkpt lat="43.84478126694516" lon="7.859199920539095"><ele>15.0</ele><time>2026-04-18T12:48:12Z</time></trkpt><trkpt lat="43.84462167474605" lon="7.859184249709742"><ele>15.0</ele><time>2026-04-18T12:48:13Z</time></trkpt><trkpt lat="43.84446815452184" lon="7.859161526158931"><ele>15.0</ele><time>2026-04-18T12:48:14Z</time></trkpt><trkpt lat="43.844324427679084" lon="7.859136714471177"><ele>14.2</ele><time>2026-04-18T12:48:15Z</time></trkpt><trkpt lat="43.844196553737085" lon="7.859104966345273"><ele>13.4</ele><time>2026-04-18T12:48:16Z</time></trkpt><trkpt lat="43.84409555915074" lon="7.859054839026304"><ele>12.600000000000001</ele><time>2026-04-18T12:48:17Z</time></trkpt><trkpt lat="43.844018933986085" lon="7.85899124929157"><ele>11.8</ele><time>2026-04-18T12:48:18Z</time></trkpt><trkpt lat="43.8439687800032" lon="7.858910198676515"><ele>11.0</ele><time>2026-04-18T12:48:19Z</time></trkpt><trkpt lat="43.843940340341604" lon="7.858818556328536"><ele>11.0</ele><time>2026-04-18T12:48:20Z</time></trkpt><trkpt lat="43.84393586178323" lon="7.858719816389144"><ele>11.0</ele><time>2026-04-18T12:48:21Z</time></trkpt><trkpt lat="43.843941766941626" lon="7.858615856927502"><ele>11.0</ele><time>2026-04-18T12:48:22Z</time></trkpt><trkpt lat="43.843952779497215" lon="7.858509506318658"><ele>11.0</ele><time>2026-04-18T12:48:23Z</time></trkpt><trkpt lat="43.84395496047341" lon="7.858398197448091"><ele>11.0</ele><time>2026-04-18T12:48:24Z</time></trkpt><trkpt lat="43.8439418362078" lon="7.858284488124348"><ele>11.0</ele><time>2026-04-18T12:48:25Z</time></trkpt><trkpt lat="43.84391047637095" lon="7.858170586766859"><ele>11.4</ele><time>2026-04-18T12:48:26Z</time></trkpt><trkpt lat="43.843857459889485" lon="7.85806729165502"><ele>11.8</ele><time>2026-04-18T12:48:27Z</time></trkpt><trkpt lat="43.843785441746064" lon="7.857983858212137"><ele>12.200000000000001</ele><time>2026-04-18T12:48:28Z</time></trkpt><trkpt lat="43.84369829447531" lon="7.857922978329429"><ele>12.600000000000001</ele><time>2026-04-18T12:48:29Z</time></trkpt><trkpt lat="43.843599538637804" lon="7.857883153062243"><ele>13.0</ele><time>2026-04-18T12:48:30Z</time></trkpt><trkpt lat="43.84349474268366" lon="7.857870473145109"><ele>12.600000000000001</ele><time>2026-04-18T12:48:31Z</time></trkpt><trkpt lat="43.843395303666" lon="7.857893212703593"><ele>12.200000000000001</ele><time>2026-04-18T12:48:32Z</time></trkpt><trkpt lat="43.84330373548251" lon="7.85794873750824"><ele>11.8</ele><time>2026-04-18T12:48:33Z</time></trkpt><trkpt lat="43.84323451804934" lon="7.858042766673719"><ele>11.4</ele><time>2026-04-18T12:48:34Z</time></trkpt><trkpt lat="43.84318044018377" lon="7.858161188389663"><ele>11.0</ele><time>2026-04-18T12:48:35Z</time></trkpt><trkpt lat="43.84314620666005" lon="7.858290551152268"><ele>11.0</ele><time>2026-04-18T12:48:36Z</time></trkpt><trkpt lat="43.84305385308342" lon="7.858384952036023"><ele>11.0</ele><time>2026-04-18T12:48:37Z</time></trkpt><trkpt lat="43.84296296715528" lon="7.858434371788722"><ele>11.0</ele><time>2026-04-18T12:48:38Z</time></trkpt><trkpt lat="43.842864709597364" lon="7.858429859315317"><ele>11.0</ele><time>2026-04-18T12:48:39Z</time></trkpt><trkpt lat="43.842764984512925" lon="7.8583806728547785"><ele>11.0</ele><time>2026-04-18T12:48:40Z</time></trkpt><trkpt lat="43.8426635583245" lon="7.858318032664596"><ele>10.5</ele><time>2026-04-18T12:48:41Z</time></trkpt><trkpt lat="43.84255387596718" lon="7.8582565515350655"><ele>10.0</ele><time>2026-04-18T12:48:42Z</time></trkpt><trkpt lat="43.84243860793877" lon="7.8581929166734374"><ele>9.5</ele><time>2026-04-18T12:48:43Z</time></trkpt><trkpt lat="43.84231656275991" lon="7.858135959349389"><ele>9.0</ele><time>2026-04-18T12:48:44Z</time></trkpt><trkpt lat="43.84219985781852" lon="7.858081885824373"><ele>9.0</ele><time>2026-04-18T12:48:45Z</time></trkpt><trkpt lat="43.842078880439246" lon="7.8580324251341755"><ele>9.0</ele><time>2026-04-18T12:48:46Z</time></trkpt><trkpt lat="43.841952481213795" lon="7.857982112003704"><ele>9.0</ele><time>2026-04-18T12:48:47Z</time></trkpt><trkpt lat="43.841827209981425" lon="7.857931230858191"><ele>9.0</ele><time>2026-04-18T12:48:48Z</time></trkpt><trkpt lat="43.841703905902335" lon="7.8578839006868915"><ele>8.25</ele><time>2026-04-18T12:48:49Z</time></trkpt><trkpt lat="43.841579502108566" lon="7.85784411339415"><ele>7.5</ele><time>2026-04-18T12:48:50Z</time></trkpt><trkpt lat="43.84145405692529" lon="7.8578088335104015"><ele>6.75</ele><time>2026-04-18T12:48:51Z</time></trkpt><trkpt lat="43.841327790350725" lon="7.85777277225745"><ele>6.0</ele><time>2026-04-18T12:48:52Z</time></trkpt><trkpt lat="43.841204080014315" lon="7.857738300191842"><ele>6.0</ele><time>2026-04-18T12:48:53Z</time></trkpt><trkpt lat="43.841078293720464" lon="7.857703538869368"><ele>6.0</ele><time>2026-04-18T12:48:54Z</time></trkpt><trkpt lat="43.84095963207971" lon="7.857674250467476"><ele>6.0</ele><time>2026-04-18T12:48:55Z</time></trkpt><trkpt lat="43.840846468029945" lon="7.857644814901822"><ele>6.0</ele><time>2026-04-18T12:48:56Z</time></trkpt><trkpt lat="43.84074002156343" lon="7.857617542937088"><ele>6.333333333333333</ele><time>2026-04-18T12:48:57Z</time></trkpt><trkpt lat="43.84064052025048" lon="7.857592990212989"><ele>6.666666666666666</ele><time>2026-04-18T12:48:58Z</time></trkpt><trkpt lat="43.840550811830674" lon="7.857572832486653"><ele>7.0</ele><time>2026-04-18T12:48:59Z</time></trkpt><trkpt lat="43.84046965014504" lon="7.8575543049008525"><ele>7.333333333333333</ele><time>2026-04-18T12:49:00Z</time></trkpt><trkpt lat="43.84039435587061" lon="7.857528210460023"><ele>7.666666666666666</ele><time>2026-04-18T12:49:01Z</time></trkpt><trkpt lat="43.840317655576996" lon="7.857498434854167"><ele>8.0</ele><time>2026-04-18T12:49:02Z</time></trkpt><trkpt lat="43.840221435102755" lon="7.857465071595736"><ele>8.0</ele><time>2026-04-18T12:49:03Z</time></trkpt><trkpt lat="43.840131636131844" lon="7.857469232598933"><ele>8.0</ele><time>2026-04-18T12:49:04Z</time></trkpt><trkpt lat="43.840041780477485" lon="7.857493553331738"><ele>8.0</ele><time>2026-04-18T12:49:05Z</time></trkpt><trkpt lat="43.83994650966579" lon="7.85752010186387"><ele>8.0</ele><time>2026-04-18T12:49:06Z</time></trkpt><trkpt lat="43.83984678296128" lon="7.857533517977769"><ele>8.0</ele><time>2026-04-18T12:49:07Z</time></trkpt><trkpt lat="43.839744586607125" lon="7.857517921047787"><ele>8.0</ele><time>2026-04-18T12:49:08Z</time></trkpt><trkpt lat="43.8396346072695" lon="7.857537268882949"><ele>8.0</ele><time>2026-04-18T12:49:09Z</time></trkpt><trkpt lat="43.83952130251496" lon="7.857524003232659"><ele>8.0</ele><time>2026-04-18T12:49:10Z</time></trkpt><trkpt lat="43.83940113686856" lon="7.857516379099648"><ele>8.0</ele><time>2026-04-18T12:49:11Z</time></trkpt><trkpt lat="43.839275865452066" lon="7.857509704057284"><ele>8.0</ele><time>2026-04-18T12:49:12Z</time></trkpt><trkpt lat="43.83914465470684" lon="7.857500318135016"><ele>8.0</ele><time>2026-04-18T12:49:13Z</time></trkpt><trkpt lat="43.83900839216834" lon="7.857501493031183"><ele>8.0</ele><time>2026-04-18T12:49:14Z</time></trkpt><trkpt lat="43.83886755946204" lon="7.8575078131881835"><ele>8.0</ele><time>2026-04-18T12:49:15Z</time></trkpt><trkpt lat="43.8387221792933" lon="7.857524615870873"><ele>8.0</ele><time>2026-04-18T12:49:16Z</time></trkpt><trkpt lat="43.83857712896512" lon="7.857540051163454"><ele>8.0</ele><time>2026-04-18T12:49:17Z</time></trkpt><trkpt lat="43.83843132162094" lon="7.857559778958726"><ele>8.0</ele><time>2026-04-18T12:49:18Z</time></trkpt><trkpt lat="43.838285713271205" lon="7.857593511507966"><ele>8.0</ele><time>2026-04-18T12:49:19Z</time></trkpt><trkpt lat="43.83814086365312" lon="7.857639870771401"><ele>7.25</ele><time>2026-04-18T12:49:20Z</time></trkpt><trkpt lat="43.83800166460014" lon="7.857693005813738"><ele>6.5</ele><time>2026-04-18T12:49:21Z</time></trkpt><trkpt lat="43.837863622163596" lon="7.857752403837814"><ele>5.75</ele><time>2026-04-18T12:49:22Z</time></trkpt><trkpt lat="43.83773182641064" lon="7.857817735263648"><ele>5.0</ele><time>2026-04-18T12:49:23Z</time></trkpt><trkpt lat="43.83760163075305" lon="7.857888404570077"><ele>5.0</ele><time>2026-04-18T12:49:24Z</time></trkpt><trkpt lat="43.837470404959504" lon="7.857964450644483"><ele>5.0</ele><time>2026-04-18T12:49:25Z</time></trkpt><trkpt lat="43.837340993178245" lon="7.858040550048174"><ele>5.0</ele><time>2026-04-18T12:49:26Z</time></trkpt><trkpt lat="43.83721092805995" lon="7.858117116732865"><ele>5.0</ele><time>2026-04-18T12:49:27Z</time></trkpt><trkpt lat="43.83708240768112" lon="7.858187271613321"><ele>5.0</ele><time>2026-04-18T12:49:28Z</time></trkpt><trkpt lat="43.8369552112247" lon="7.85824967281455"><ele>5.0</ele><time>2026-04-18T12:49:29Z</time></trkpt><trkpt lat="43.836830800411974" lon="7.858304074193614"><ele>5.0</ele><time>2026-04-18T12:49:30Z</time></trkpt><trkpt lat="43.83670460027401" lon="7.858353995599566"><ele>5.0</ele><time>2026-04-18T12:49:31Z</time></trkpt><trkpt lat="43.83657902502733" lon="7.858396602934693"><ele>5.0</ele><time>2026-04-18T12:49:32Z</time></trkpt><trkpt lat="43.83645402108108" lon="7.858432368811455"><ele>5.0</ele><time>2026-04-18T12:49:33Z</time></trkpt><trkpt lat="43.83633571950049" lon="7.858460598994522"><ele>5.0</ele><time>2026-04-18T12:49:34Z</time></trkpt><trkpt lat="43.83622010778637" lon="7.85848737881054"><ele>5.0</ele><time>2026-04-18T12:49:35Z</time></trkpt><trkpt lat="43.83610815557367" lon="7.858511949825396"><ele>4.8</ele><time>2026-04-18T12:49:36Z</time></trkpt><trkpt lat="43.83599844730716" lon="7.858540733290952"><ele>4.6</ele><time>2026-04-18T12:49:37Z</time></trkpt><trkpt lat="43.835891790181975" lon="7.858568238631948"><ele>4.4</ele><time>2026-04-18T12:49:38Z</time></trkpt><trkpt lat="43.8357886831836" lon="7.858591871689148"><ele>4.2</ele><time>2026-04-18T12:49:39Z</time></trkpt><trkpt lat="43.83569092429062" lon="7.858614638728656"><ele>4.0</ele><time>2026-04-18T12:49:40Z</time></trkpt><trkpt lat="43.83559364828139" lon="7.858643901435612"><ele>3.9999999999999996</ele><time>2026-04-18T12:49:41Z</time></trkpt><trkpt lat="43.83549805490259" lon="7.858674779493207"><ele>4.0</ele><time>2026-04-18T12:49:42Z</time></trkpt><trkpt lat="43.83540626882235" lon="7.858696056400879"><ele>4.0</ele><time>2026-04-18T12:49:43Z</time></trkpt><trkpt lat="43.8353152807584" lon="7.85869389329192"><ele>4.0</ele><time>2026-04-18T12:49:44Z</time></trkpt><trkpt lat="43.83523554829744" lon="7.858668939541246"><ele>3.9999999999999996</ele><time>2026-04-18T12:49:45Z</time></trkpt><trkpt lat="43.83516864262858" lon="7.858615492318048"><ele>4.0</ele><time>2026-04-18T12:49:46Z</time></trkpt><trkpt lat="43.83511155034663" lon="7.858526568588951"><ele>4.5</ele><time>2026-04-18T12:49:47Z</time></trkpt><trkpt lat="43.8350651490184" lon="7.8584418526338"><ele>5.0</ele><time>2026-04-18T12:49:48Z</time></trkpt><trkpt lat="43.835073057589135" lon="7.858312812493794"><ele>5.5</ele><time>2026-04-18T12:49:49Z</time></trkpt><trkpt lat="43.8350926881758" lon="7.858207449536519"><ele>6.0</ele><time>2026-04-18T12:49:50Z</time></trkpt><trkpt lat="43.8351355980102" lon="7.858110282696759"><ele>6.500000000000001</ele><time>2026-04-18T12:49:51Z</time></trkpt><trkpt lat="43.83519303828674" lon="7.858036265486854"><ele>7.0</ele><time>2026-04-18T12:49:52Z</time></trkpt><trkpt lat="43.83526241348192" lon="7.857973170629349"><ele>7.000000000000001</ele><time>2026-04-18T12:49:53Z</time></trkpt><trkpt lat="43.83533788452649" lon="7.857940567743677"><ele>7.0</ele><time>2026-04-18T12:49:54Z</time></trkpt><trkpt lat="43.83541673587653" lon="7.857944678496358"><ele>7.0</ele><time>2026-04-18T12:49:55Z</time></trkpt><trkpt lat="43.83548628160995" lon="7.857980701128765"><ele>7.0</ele><time>2026-04-18T12:49:56Z</time></trkpt><trkpt lat="43.83555131074484" lon="7.858126498552484"><ele>7.000000000000001</ele><time>2026-04-18T12:49:58Z</time></trkpt><trkpt lat="43.83559135059738" lon="7.858205291496787"><ele>7.0</ele><time>2026-04-18T12:49:59Z</time></trkpt><trkpt lat="43.835585171320155" lon="7.858363785019408"><ele>6.3999999999999995</ele><time>2026-04-18T12:50:00Z</time></trkpt><trkpt lat="43.83561211036618" lon="7.858499056860068"><ele>5.799999999999999</ele><time>2026-04-18T12:50:01Z</time></trkpt><trkpt lat="43.83564010115947" lon="7.85864071305613"><ele>5.2</ele><time>2026-04-18T12:50:02Z</time></trkpt><trkpt lat="43.83566991185167" lon="7.858790245591611"><ele>4.6</ele><time>2026-04-18T12:50:03Z</time></trkpt><trkpt lat="43.835700126717704" lon="7.858951895997791"><ele>4.0</ele><time>2026-04-18T12:50:04Z</time></trkpt><trkpt lat="43.83573032405499" lon="7.8591237148060715"><ele>4.25</ele><time>2026-04-18T12:50:05Z</time></trkpt><trkpt lat="43.83575867446337" lon="7.859294534731224"><ele>4.5</ele><time>2026-04-18T12:50:06Z</time></trkpt><trkpt lat="43.835788295512096" lon="7.859466245039983"><ele>4.75</ele><time>2026-04-18T12:50:07Z</time></trkpt><trkpt lat="43.83581840104484" lon="7.859636445558506"><ele>5.0</ele><time>2026-04-18T12:50:08Z</time></trkpt><trkpt lat="43.83584661336942" lon="7.859799176070884"><ele>5.0</ele><time>2026-04-18T12:50:09Z</time></trkpt><trkpt lat="43.83587608139396" lon="7.85996503264849"><ele>5.0</ele><time>2026-04-18T12:50:10Z</time></trkpt><trkpt lat="43.8359048953842" lon="7.860129265497356"><ele>5.0</ele><time>2026-04-18T12:50:11Z</time></trkpt><trkpt lat="43.835931562171005" lon="7.860290143694093"><ele>5.0</ele><time>2026-04-18T12:50:12Z</time></trkpt><trkpt lat="43.835956289656785" lon="7.860446793158141"><ele>5.0</ele><time>2026-04-18T12:50:13Z</time></trkpt><trkpt lat="43.83598153202065" lon="7.860602857013408"><ele>5.0</ele><time>2026-04-18T12:50:14Z</time></trkpt><trkpt lat="43.836010279331084" lon="7.860760093454871"><ele>5.0</ele><time>2026-04-18T12:50:15Z</time></trkpt><trkpt lat="43.83603777487828" lon="7.860921900568746"><ele>5.0</ele><time>2026-04-18T12:50:16Z</time></trkpt><trkpt lat="43.83606997709936" lon="7.861084959493366"><ele>5.25</ele><time>2026-04-18T12:50:17Z</time></trkpt><trkpt lat="43.83610326944069" lon="7.86125102688931"><ele>5.5</ele><time>2026-04-18T12:50:18Z</time></trkpt><trkpt lat="43.836138501090026" lon="7.861419519011821"><ele>5.75</ele><time>2026-04-18T12:50:19Z</time></trkpt><trkpt lat="43.836169101293315" lon="7.861586203553685"><ele>6.0</ele><time>2026-04-18T12:50:20Z</time></trkpt><trkpt lat="43.83619770515514" lon="7.861750990435473"><ele>6.25</ele><time>2026-04-18T12:50:21Z</time></trkpt><trkpt lat="43.836226166544286" lon="7.861912605039754"><ele>6.5</ele><time>2026-04-18T12:50:22Z</time></trkpt><trkpt lat="43.836254507927926" lon="7.862076044838441"><ele>6.75</ele><time>2026-04-18T12:50:23Z</time></trkpt><trkpt lat="43.836282137196996" lon="7.86224072098792"><ele>7.0</ele><time>2026-04-18T12:50:24Z</time></trkpt><trkpt lat="43.83630824868259" lon="7.862401361623629"><ele>7.0</ele><time>2026-04-18T12:50:25Z</time></trkpt><trkpt lat="43.836331952066786" lon="7.8625516772064055"><ele>6.999999999999999</ele><time>2026-04-18T12:50:26Z</time></trkpt><trkpt lat="43.83635488851651" lon="7.862694935938838"><ele>6.999999999999999</ele><time>2026-04-18T12:50:27Z</time></trkpt><trkpt lat="43.83637554832346" lon="7.862836104493381"><ele>7.0</ele><time>2026-04-18T12:50:28Z</time></trkpt><trkpt lat="43.83639697086162" lon="7.862978733297694"><ele>7.0</ele><time>2026-04-18T12:50:29Z</time></trkpt><trkpt lat="43.836421227266136" lon="7.863113797694568"><ele>6.6</ele><time>2026-04-18T12:50:30Z</time></trkpt><trkpt lat="43.836443644945625" lon="7.8632479337497365"><ele>6.199999999999999</ele><time>2026-04-18T12:50:31Z</time></trkpt><trkpt lat="43.836463885597084" lon="7.863382635003282"><ele>5.8</ele><time>2026-04-18T12:50:32Z</time></trkpt><trkpt lat="43.8364829965532" lon="7.863517479484556"><ele>5.4</ele><time>2026-04-18T12:50:33Z</time></trkpt><trkpt lat="43.8365033395957" lon="7.863655980412555"><ele>5.0</ele><time>2026-04-18T12:50:34Z</time></trkpt><trkpt lat="43.83652305901206" lon="7.863796640107084"><ele>5.0</ele><time>2026-04-18T12:50:35Z</time></trkpt><trkpt lat="43.836545449573826" lon="7.863940788989852"><ele>5.0</ele><time>2026-04-18T12:50:36Z</time></trkpt><trkpt lat="43.836567377538785" lon="7.864092416410077"><ele>5.0</ele><time>2026-04-18T12:50:37Z</time></trkpt><trkpt lat="43.83658984882741" lon="7.864246552896996"><ele>5.0</ele><time>2026-04-18T12:50:38Z</time></trkpt><trkpt lat="43.83661286080085" lon="7.86440400032512"><ele>5.0</ele><time>2026-04-18T12:50:39Z</time></trkpt><trkpt lat="43.83663380889065" lon="7.864564550703603"><ele>5.0</ele><time>2026-04-18T12:50:40Z</time></trkpt><trkpt lat="43.83665087574777" lon="7.864734370779998"><ele>5.0</ele><time>2026-04-18T12:50:41Z</time></trkpt><trkpt lat="43.83666233336917" lon="7.8649061613543205"><ele>5.0</ele><time>2026-04-18T12:50:42Z</time></trkpt><trkpt lat="43.83666129447071" lon="7.865078196693328"><ele>5.0</ele><time>2026-04-18T12:50:43Z</time></trkpt><trkpt lat="43.83664413319791" lon="7.865244484737339"><ele>6.0</ele><time>2026-04-18T12:50:44Z</time></trkpt><trkpt lat="43.83661620020703" lon="7.8654045624447315"><ele>7.0</ele><time>2026-04-18T12:50:45Z</time></trkpt><trkpt lat="43.83658262617204" lon="7.865560025124826"><ele>8.0</ele><time>2026-04-18T12:50:46Z</time></trkpt><trkpt lat="43.83653088144378" lon="7.865710459035621"><ele>9.0</ele><time>2026-04-18T12:50:47Z</time></trkpt><trkpt lat="43.83646951888771" lon="7.865857087576988"><ele>11.5</ele><time>2026-04-18T12:50:48Z</time></trkpt><trkpt lat="43.836401902137716" lon="7.86599507714025"><ele>14.0</ele><time>2026-04-18T12:50:49Z</time></trkpt><trkpt lat="43.836325124587916" lon="7.866123059760128"><ele>16.5</ele><time>2026-04-18T12:50:50Z</time></trkpt><trkpt lat="43.83624292536965" lon="7.866239877097735"><ele>19.0</ele><time>2026-04-18T12:50:51Z</time></trkpt><trkpt lat="43.83615438754963" lon="7.8663486766944"><ele>19.0</ele><time>2026-04-18T12:50:52Z</time></trkpt><trkpt lat="43.836054694300095" lon="7.866451305867826"><ele>19.0</ele><time>2026-04-18T12:50:53Z</time></trkpt><trkpt lat="43.83594081417395" lon="7.86654979486429"><ele>19.0</ele><time>2026-04-18T12:50:54Z</time></trkpt><trkpt lat="43.83581565472375" lon="7.866648888481692"><ele>19.0</ele><time>2026-04-18T12:50:55Z</time></trkpt><trkpt lat="43.83568719014536" lon="7.866753661286111"><ele>17.0</ele><time>2026-04-18T12:50:56Z</time></trkpt><trkpt lat="43.83556691927589" lon="7.866863466226098"><ele>15.0</ele><time>2026-04-18T12:50:57Z</time></trkpt><trkpt lat="43.83545878722872" lon="7.866989519653094"><ele>13.0</ele><time>2026-04-18T12:50:58Z</time></trkpt><trkpt lat="43.83536880986987" lon="7.867142875908533"><ele>11.0</ele><time>2026-04-18T12:50:59Z</time></trkpt><trkpt lat="43.83531769193854" lon="7.867319635815959"><ele>11.0</ele><time>2026-04-18T12:51:00Z</time></trkpt><trkpt lat="43.83530117511268" lon="7.867510383506451"><ele>11.0</ele><time>2026-04-18T12:51:01Z</time></trkpt><trkpt lat="43.83530792320437" lon="7.8677098471125975"><ele>11.0</ele><time>2026-04-18T12:51:02Z</time></trkpt><trkpt lat="43.835340082330134" lon="7.867911217410346"><ele>11.0</ele><time>2026-04-18T12:51:03Z</time></trkpt><trkpt lat="43.83539069826805" lon="7.868099468686246"><ele>11.0</ele><time>2026-04-18T12:51:04Z</time></trkpt><trkpt lat="43.835431538516005" lon="7.868277392425749"><ele>11.0</ele><time>2026-04-18T12:51:05Z</time></trkpt><trkpt lat="43.835472908602526" lon="7.868458404378169"><ele>11.0</ele><time>2026-04-18T12:51:06Z</time></trkpt><trkpt lat="43.835509618064805" lon="7.86865035062003"><ele>11.0</ele><time>2026-04-18T12:51:07Z</time></trkpt><trkpt lat="43.83554997671714" lon="7.868839334476566"><ele>10.75</ele><time>2026-04-18T12:51:08Z</time></trkpt><trkpt lat="43.83559401113936" lon="7.869039266224227"><ele>10.5</ele><time>2026-04-18T12:51:09Z</time></trkpt><trkpt lat="43.83563717956409" lon="7.869217646976065"><ele>10.25</ele><time>2026-04-18T12:51:10Z</time></trkpt><trkpt lat="43.83567970345763" lon="7.869397070268403"><ele>10.0</ele><time>2026-04-18T12:51:11Z</time></trkpt><trkpt lat="43.83571788223184" lon="7.869569581991697"><ele>9.5</ele><time>2026-04-18T12:51:12Z</time></trkpt><trkpt lat="43.83575309804483" lon="7.869739065831538"><ele>9.0</ele><time>2026-04-18T12:51:13Z</time></trkpt><trkpt lat="43.835788368376654" lon="7.8699056923828605"><ele>8.5</ele><time>2026-04-18T12:51:14Z</time></trkpt><trkpt lat="43.835824524094626" lon="7.8700651887916155"><ele>8.0</ele><time>2026-04-18T12:51:15Z</time></trkpt><trkpt lat="43.835856581242155" lon="7.87020773402587"><ele>7.75</ele><time>2026-04-18T12:51:16Z</time></trkpt><trkpt lat="43.835891335036976" lon="7.8703539057882175"><ele>7.5</ele><time>2026-04-18T12:51:17Z</time></trkpt><trkpt lat="43.83592674597404" lon="7.870500734670354"><ele>7.25</ele><time>2026-04-18T12:51:18Z</time></trkpt><trkpt lat="43.83595989168965" lon="7.870648386830893"><ele>7.0</ele><time>2026-04-18T12:51:19Z</time></trkpt><trkpt lat="43.835995304601056" lon="7.870804150352798"><ele>10.25</ele><time>2026-04-18T12:51:20Z</time></trkpt><trkpt lat="43.83602841814446" lon="7.870966026252803"><ele>13.5</ele><time>2026-04-18T12:51:21Z</time></trkpt><trkpt lat="43.83606428882464" lon="7.871130904652104"><ele>16.75</ele><time>2026-04-18T12:51:22Z</time></trkpt><trkpt lat="43.83610271213361" lon="7.8712920440010095"><ele>20.0</ele><time>2026-04-18T12:51:23Z</time></trkpt><trkpt lat="43.83613577689405" lon="7.871437327678806"><ele>20.0</ele><time>2026-04-18T12:51:24Z</time></trkpt><trkpt lat="43.83616247147058" lon="7.8715662370582455"><ele>20.0</ele><time>2026-04-18T12:51:25Z</time></trkpt><trkpt lat="43.836182074040636" lon="7.871662759856837"><ele>20.0</ele><time>2026-04-18T12:51:26Z</time></trkpt><trkpt lat="43.836217000113166" lon="7.871823266832088"><ele>20.0</ele><time>2026-04-18T12:51:28Z</time></trkpt><trkpt lat="43.836242325724854" lon="7.8719199037321586"><ele>20.0</ele><time>2026-04-18T12:51:29Z</time></trkpt><trkpt lat="43.836253843479376" lon="7.872043390793203"><ele>18.75</ele><time>2026-04-18T12:51:30Z</time></trkpt><trkpt lat="43.83628499941691" lon="7.872185992660189"><ele>17.5</ele><time>2026-04-18T12:51:31Z</time></trkpt><trkpt lat="43.83632289594007" lon="7.872350736507726"><ele>16.25</ele><time>2026-04-18T12:51:32Z</time></trkpt><trkpt lat="43.836359863660284" lon="7.872509144495484"><ele>15.0</ele><time>2026-04-18T12:51:33Z</time></trkpt><trkpt lat="43.83639615332897" lon="7.872663221547435"><ele>13.75</ele><time>2026-04-18T12:51:34Z</time></trkpt><trkpt lat="43.836439520152744" lon="7.872809115214527"><ele>12.5</ele><time>2026-04-18T12:51:35Z</time></trkpt><trkpt lat="43.836473078942994" lon="7.872960738688767"><ele>11.25</ele><time>2026-04-18T12:51:36Z</time></trkpt><trkpt lat="43.83650803608168" lon="7.873118625642145"><ele>10.0</ele><time>2026-04-18T12:51:37Z</time></trkpt><trkpt lat="43.83654370543447" lon="7.873263489595874"><ele>10.0</ele><time>2026-04-18T12:51:38Z</time></trkpt><trkpt lat="43.83657533303506" lon="7.873408362869001"><ele>10.0</ele><time>2026-04-18T12:51:39Z</time></trkpt><trkpt lat="43.8366103579885" lon="7.873554277867952"><ele>10.0</ele><time>2026-04-18T12:51:40Z</time></trkpt><trkpt lat="43.83664105556918" lon="7.873705307740481"><ele>10.0</ele><time>2026-04-18T12:51:41Z</time></trkpt><trkpt lat="43.83667213914249" lon="7.873847890116324"><ele>10.0</ele><time>2026-04-18T12:51:42Z</time></trkpt><trkpt lat="43.836708434774195" lon="7.873996532291416"><ele>10.25</ele><time>2026-04-18T12:51:43Z</time></trkpt><trkpt lat="43.83674555930983" lon="7.874164794822613"><ele>10.5</ele><time>2026-04-18T12:51:44Z</time></trkpt><trkpt lat="43.836785773496196" lon="7.874331702570761"><ele>10.75</ele><time>2026-04-18T12:51:45Z</time></trkpt><trkpt lat="43.83682861028545" lon="7.874511111299642"><ele>11.0</ele><time>2026-04-18T12:51:46Z</time></trkpt><trkpt lat="43.83687134230388" lon="7.874687477839089"><ele>12.0</ele><time>2026-04-18T12:51:47Z</time></trkpt><trkpt lat="43.83691623178793" lon="7.874856351533937"><ele>13.0</ele><time>2026-04-18T12:51:48Z</time></trkpt><trkpt lat="43.836958426092444" lon="7.875016907649346"><ele>14.0</ele><time>2026-04-18T12:51:49Z</time></trkpt><trkpt lat="43.8370088429468" lon="7.875172196615146"><ele>15.0</ele><time>2026-04-18T12:51:50Z</time></trkpt><trkpt lat="43.837055443567905" lon="7.87532269575656"><ele>15.0</ele><time>2026-04-18T12:51:51Z</time></trkpt><trkpt lat="43.837119953356044" lon="7.875472438598789"><ele>15.0</ele><time>2026-04-18T12:51:52Z</time></trkpt><trkpt lat="43.83719030921074" lon="7.875622131599455"><ele>15.0</ele><time>2026-04-18T12:51:53Z</time></trkpt><trkpt lat="43.83725916642328" lon="7.875775546099068"><ele>15.0</ele><time>2026-04-18T12:51:54Z</time></trkpt><trkpt lat="43.83733291502563" lon="7.875925476869477"><ele>14.25</ele><time>2026-04-18T12:51:55Z</time></trkpt><trkpt lat="43.83741372846992" lon="7.876072098321284"><ele>13.5</ele><time>2026-04-18T12:51:56Z</time></trkpt><trkpt lat="43.83749669917359" lon="7.876215772702783"><ele>12.75</ele><time>2026-04-18T12:51:57Z</time></trkpt><trkpt lat="43.83757625040811" lon="7.87634693649731"><ele>12.0</ele><time>2026-04-18T12:51:58Z</time></trkpt><trkpt lat="43.837659988648994" lon="7.876467640007412"><ele>12.5</ele><time>2026-04-18T12:51:59Z</time></trkpt><trkpt lat="43.837742618918455" lon="7.876577907667769"><ele>13.0</ele><time>2026-04-18T12:52:00Z</time></trkpt><trkpt lat="43.83782995854429" lon="7.876682402707296"><ele>13.5</ele><time>2026-04-18T12:52:01Z</time></trkpt><trkpt lat="43.83792072651076" lon="7.8767825843794"><ele>14.0</ele><time>2026-04-18T12:52:02Z</time></trkpt><trkpt lat="43.83801384939254" lon="7.876883751760867"><ele>14.0</ele><time>2026-04-18T12:52:03Z</time></trkpt><trkpt lat="43.83809635582149" lon="7.876990870117696"><ele>13.999999999999998</ele><time>2026-04-18T12:52:04Z</time></trkpt><trkpt lat="43.838191662027164" lon="7.877087194762049"><ele>13.999999999999998</ele><time>2026-04-18T12:52:05Z</time></trkpt><trkpt lat="43.838282975127996" lon="7.877168933424012"><ele>14.0</ele><time>2026-04-18T12:52:06Z</time></trkpt><trkpt lat="43.838367716138684" lon="7.877248754541557"><ele>14.0</ele><time>2026-04-18T12:52:07Z</time></trkpt><trkpt lat="43.83845205667786" lon="7.877330749484012"><ele>14.25</ele><time>2026-04-18T12:52:08Z</time></trkpt><trkpt lat="43.838541615128655" lon="7.877422922042937"><ele>14.5</ele><time>2026-04-18T12:52:09Z</time></trkpt><trkpt lat="43.83863375773517" lon="7.877522419606744"><ele>14.75</ele><time>2026-04-18T12:52:10Z</time></trkpt><trkpt lat="43.838719245994035" lon="7.877635119861272"><ele>15.0</ele><time>2026-04-18T12:52:11Z</time></trkpt><trkpt lat="43.838800263898726" lon="7.877745956721728"><ele>14.2</ele><time>2026-04-18T12:52:12Z</time></trkpt><trkpt lat="43.838875936484534" lon="7.877853562180397"><ele>13.4</ele><time>2026-04-18T12:52:13Z</time></trkpt><trkpt lat="43.83894339886529" lon="7.87796066848678"><ele>12.600000000000001</ele><time>2026-04-18T12:52:14Z</time></trkpt><trkpt lat="43.839000462056276" lon="7.878062645355239"><ele>11.8</ele><time>2026-04-18T12:52:15Z</time></trkpt><trkpt lat="43.83905520414461" lon="7.878158992339208"><ele>11.0</ele><time>2026-04-18T12:52:16Z</time></trkpt><trkpt lat="43.839097669659154" lon="7.878253519577568"><ele>11.0</ele><time>2026-04-18T12:52:17Z</time></trkpt><trkpt lat="43.83913582545354" lon="7.878338177576973"><ele>11.0</ele><time>2026-04-18T12:52:18Z</time></trkpt><trkpt lat="43.839195891976075" lon="7.87847704318995"><ele>11.0</ele><time>2026-04-18T12:52:20Z</time></trkpt><trkpt lat="43.83923873743854" lon="7.878593257782326"><ele>11.0</ele><time>2026-04-18T12:52:22Z</time></trkpt><trkpt lat="43.839258366086696" lon="7.878689306277727"><ele>11.0</ele><time>2026-04-18T12:52:24Z</time></trkpt><trkpt lat="43.83930390173924" lon="7.878786154198754"><ele>11.0</ele><time>2026-04-18T12:52:27Z</time></trkpt><trkpt lat="43.83932303525867" lon="7.878869774573884"><ele>12.142857142857142</ele><time>2026-04-18T12:52:49.999Z</time></trkpt><trkpt lat="43.839339577302916" lon="7.878978597687089"><ele>13.285714285714285</ele><time>2026-04-18T12:53:00Z</time></trkpt><trkpt lat="43.83936030389199" lon="7.879094498090819"><ele>14.428571428571427</ele><time>2026-04-18T12:53:02Z</time></trkpt><trkpt lat="43.83936717562124" lon="7.879195727695071"><ele>15.571428571428573</ele><time>2026-04-18T12:53:04Z</time></trkpt><trkpt lat="43.83938920891738" lon="7.879288962811267"><ele>16.714285714285715</ele><time>2026-04-18T12:53:08Z</time></trkpt><trkpt lat="43.83940766055338" lon="7.879380639780823"><ele>17.857142857142858</ele><time>2026-04-18T12:53:10Z</time></trkpt><trkpt lat="43.83942565040472" lon="7.879473230980248"><ele>19.0</ele><time>2026-04-18T12:53:11Z</time></trkpt><trkpt lat="43.83944489156382" lon="7.879583807155316"><ele>19.0</ele><time>2026-04-18T12:53:12Z</time></trkpt><trkpt lat="43.83944004885779" lon="7.879697045918284"><ele>19.0</ele><time>2026-04-18T12:53:13Z</time></trkpt><trkpt lat="43.83945533770888" lon="7.879797728973863"><ele>19.0</ele><time>2026-04-18T12:53:14Z</time></trkpt><trkpt lat="43.83947257603337" lon="7.879911250084149"><ele>19.0</ele><time>2026-04-18T12:53:15Z</time></trkpt><trkpt lat="43.83950541186607" lon="7.880017498564684"><ele>19.0</ele><time>2026-04-18T12:53:16Z</time></trkpt><trkpt lat="43.83951575788207" lon="7.8801484091044"><ele>19.0</ele><time>2026-04-18T12:53:17Z</time></trkpt><trkpt lat="43.839536513772735" lon="7.880272712972995"><ele>19.2</ele><time>2026-04-18T12:53:18Z</time></trkpt><trkpt lat="43.83955298596951" lon="7.88041217006602"><ele>19.4</ele><time>2026-04-18T12:53:19Z</time></trkpt><trkpt lat="43.839566803755034" lon="7.880550548909074"><ele>19.6</ele><time>2026-04-18T12:53:20Z</time></trkpt><trkpt lat="43.8395799324954" lon="7.88069903604192"><ele>19.8</ele><time>2026-04-18T12:53:21Z</time></trkpt><trkpt lat="43.839609122676926" lon="7.880843204027462"><ele>20.0</ele><time>2026-04-18T12:53:22Z</time></trkpt><trkpt lat="43.83962862203113" lon="7.880990042340491"><ele>20.0</ele><time>2026-04-18T12:53:23Z</time></trkpt><trkpt lat="43.83965481311812" lon="7.881137167309305"><ele>20.0</ele><time>2026-04-18T12:53:24Z</time></trkpt><trkpt lat="43.83967484658408" lon="7.881278482046395"><ele>20.0</ele><time>2026-04-18T12:53:25Z</time></trkpt><trkpt lat="43.83970358129701" lon="7.8814201338133385"><ele>20.0</ele><time>2026-04-18T12:53:26Z</time></trkpt><trkpt lat="43.8397136303938" lon="7.881563690760154"><ele>20.0</ele><time>2026-04-18T12:53:27Z</time></trkpt><trkpt lat="43.83973666547318" lon="7.881707022396307"><ele>19.6</ele><time>2026-04-18T12:53:28Z</time></trkpt><trkpt lat="43.83975589781687" lon="7.881851803330867"><ele>19.2</ele><time>2026-04-18T12:53:29Z</time></trkpt><trkpt lat="43.839782145076" lon="7.881995922223417"><ele>18.8</ele><time>2026-04-18T12:53:30Z</time></trkpt><trkpt lat="43.83980274424067" lon="7.88215207878088"><ele>18.4</ele><time>2026-04-18T12:53:31Z</time></trkpt><trkpt lat="43.83984054252104" lon="7.882309724299869"><ele>18.0</ele><time>2026-04-18T12:53:32Z</time></trkpt><trkpt lat="43.83986452435607" lon="7.882477233642638"><ele>18.0</ele><time>2026-04-18T12:53:33Z</time></trkpt><trkpt lat="43.839887844898676" lon="7.88264245095383"><ele>18.0</ele><time>2026-04-18T12:53:34Z</time></trkpt><trkpt lat="43.839914298631854" lon="7.88281461088224"><ele>18.0</ele><time>2026-04-18T12:53:35Z</time></trkpt><trkpt lat="43.83994271385115" lon="7.882991452711587"><ele>18.0</ele><time>2026-04-18T12:53:36Z</time></trkpt><trkpt lat="43.83997021757217" lon="7.883167595591109"><ele>18.0</ele><time>2026-04-18T12:53:37Z</time></trkpt><trkpt lat="43.83999776666277" lon="7.883346225867781"><ele>18.0</ele><time>2026-04-18T12:53:38Z</time></trkpt><trkpt lat="43.84002605380661" lon="7.883531600169164"><ele>18.0</ele><time>2026-04-18T12:53:39Z</time></trkpt><trkpt lat="43.8400523161451" lon="7.883718998162585"><ele>18.0</ele><time>2026-04-18T12:53:40Z</time></trkpt><trkpt lat="43.84009879536253" lon="7.883899465906355"><ele>18.0</ele><time>2026-04-18T12:53:41Z</time></trkpt><trkpt lat="43.840135498725594" lon="7.884090922483492"><ele>18.0</ele><time>2026-04-18T12:53:42Z</time></trkpt><trkpt lat="43.8401633044216" lon="7.884279066356531"><ele>18.0</ele><time>2026-04-18T12:53:43Z</time></trkpt><trkpt lat="43.840163358578366" lon="7.884470207183913"><ele>18.0</ele><time>2026-04-18T12:53:44Z</time></trkpt><trkpt lat="43.840206194135284" lon="7.884643284869039"><ele>18.0</ele><time>2026-04-18T12:53:45Z</time></trkpt><trkpt lat="43.840233313502544" lon="7.884823511508178"><ele>18.0</ele><time>2026-04-18T12:53:46Z</time></trkpt><trkpt lat="43.840242796501016" lon="7.88499822416103"><ele>18.0</ele><time>2026-04-18T12:53:47Z</time></trkpt><trkpt lat="43.8402632791531" lon="7.885174615214873"><ele>18.0</ele><time>2026-04-18T12:53:48Z</time></trkpt><trkpt lat="43.84028411310407" lon="7.885355311751309"><ele>19.0</ele><time>2026-04-18T12:53:49Z</time></trkpt><trkpt lat="43.84027931192812" lon="7.885543204805202"><ele>20.0</ele><time>2026-04-18T12:53:50Z</time></trkpt><trkpt lat="43.84023771537943" lon="7.885722526824464"><ele>21.0</ele><time>2026-04-18T12:53:51Z</time></trkpt><trkpt lat="43.84021301175651" lon="7.885908752925603"><ele>22.0</ele><time>2026-04-18T12:53:52Z</time></trkpt><trkpt lat="43.84015699214674" lon="7.886080155123051"><ele>21.25</ele><time>2026-04-18T12:53:53Z</time></trkpt><trkpt lat="43.84008816955455" lon="7.886244971527212"><ele>20.5</ele><time>2026-04-18T12:53:54Z</time></trkpt><trkpt lat="43.84002490700008" lon="7.886396340487045"><ele>19.75</ele><time>2026-04-18T12:53:55Z</time></trkpt><trkpt lat="43.839962250254345" lon="7.886548600177929"><ele>19.0</ele><time>2026-04-18T12:53:56Z</time></trkpt><trkpt lat="43.83991804499438" lon="7.886705555406252"><ele>19.5</ele><time>2026-04-18T12:53:57Z</time></trkpt><trkpt lat="43.83988428781155" lon="7.886868815388505"><ele>20.0</ele><time>2026-04-18T12:53:58Z</time></trkpt><trkpt lat="43.83986237315747" lon="7.887048203679227"><ele>20.5</ele><time>2026-04-18T12:53:59Z</time></trkpt><trkpt lat="43.8398412000136" lon="7.887233568439078"><ele>21.0</ele><time>2026-04-18T12:54:00Z</time></trkpt><trkpt lat="43.839832203246544" lon="7.8874080291369495"><ele>21.5</ele><time>2026-04-18T12:54:01Z</time></trkpt><trkpt lat="43.83981893931115" lon="7.887597061310978"><ele>22.0</ele><time>2026-04-18T12:54:02Z</time></trkpt><trkpt lat="43.839811048088464" lon="7.887778018431025"><ele>22.5</ele><time>2026-04-18T12:54:03Z</time></trkpt><trkpt lat="43.839811934910976" lon="7.887951402894396"><ele>23.0</ele><time>2026-04-18T12:54:04Z</time></trkpt><trkpt lat="43.83980507685623" lon="7.888122525497321"><ele>23.0</ele><time>2026-04-18T12:54:05Z</time></trkpt><trkpt lat="43.83979843720118" lon="7.888278194338883"><ele>23.0</ele><time>2026-04-18T12:54:06Z</time></trkpt><trkpt lat="43.839792331482094" lon="7.888439009090941"><ele>23.0</ele><time>2026-04-18T12:54:07Z</time></trkpt><trkpt lat="43.83978347691228" lon="7.888599540010292"><ele>23.0</ele><time>2026-04-18T12:54:08Z</time></trkpt><trkpt lat="43.839780305877106" lon="7.8887647480771195"><ele>22.799999999999997</ele><time>2026-04-18T12:54:09Z</time></trkpt><trkpt lat="43.839776370807876" lon="7.888935108259826"><ele>22.6</ele><time>2026-04-18T12:54:10Z</time></trkpt><trkpt lat="43.8397779979164" lon="7.889105238972555"><ele>22.4</ele><time>2026-04-18T12:54:11Z</time></trkpt><trkpt lat="43.8397648122919" lon="7.889255434773016"><ele>22.200000000000003</ele><time>2026-04-18T12:54:12Z</time></trkpt><trkpt lat="43.83975978886427" lon="7.889347600627782"><ele>22.0</ele><time>2026-04-18T12:54:13Z</time></trkpt><trkpt lat="43.83973107793966" lon="7.889445987221451"><ele>22.6</ele><time>2026-04-18T12:54:36Z</time></trkpt><trkpt lat="43.83973180934952" lon="7.889536764868358"><ele>23.200000000000003</ele><time>2026-04-18T12:54:37Z</time></trkpt><trkpt lat="43.83972864118529" lon="7.889656149617325"><ele>23.8</ele><time>2026-04-18T12:54:38Z</time></trkpt><trkpt lat="43.83973299644474" lon="7.889780470091596"><ele>24.4</ele><time>2026-04-18T12:54:39Z</time></trkpt><trkpt lat="43.83973249112166" lon="7.889930110326625"><ele>25.0</ele><time>2026-04-18T12:54:40Z</time></trkpt><trkpt lat="43.83971956858334" lon="7.890115147738098"><ele>25.0</ele><time>2026-04-18T12:54:41Z</time></trkpt><trkpt lat="43.83971675597258" lon="7.890286238115298"><ele>25.0</ele><time>2026-04-18T12:54:42Z</time></trkpt><trkpt lat="43.83970920559263" lon="7.890455770581027"><ele>25.0</ele><time>2026-04-18T12:54:43Z</time></trkpt><trkpt lat="43.83969295260628" lon="7.89063392401999"><ele>25.0</ele><time>2026-04-18T12:54:44Z</time></trkpt><trkpt lat="43.839669397893985" lon="7.890797325379018"><ele>25.4</ele><time>2026-04-18T12:54:45Z</time></trkpt><trkpt lat="43.8396378939376" lon="7.890945871223103"><ele>25.8</ele><time>2026-04-18T12:54:46Z</time></trkpt><trkpt lat="43.83959591164212" lon="7.891070740461036"><ele>26.200000000000003</ele><time>2026-04-18T12:54:47Z</time></trkpt><trkpt lat="43.83954604099852" lon="7.8911915870678095"><ele>26.6</ele><time>2026-04-18T12:54:48Z</time></trkpt><trkpt lat="43.83949006887352" lon="7.891305939482639"><ele>27.0</ele><time>2026-04-18T12:54:49Z</time></trkpt><trkpt lat="43.8394250271866" lon="7.891405474847175"><ele>27.0</ele><time>2026-04-18T12:54:50Z</time></trkpt><trkpt lat="43.83935656228855" lon="7.891496641028916"><ele>27.000000000000004</ele><time>2026-04-18T12:54:51Z</time></trkpt><trkpt lat="43.839281351834764" lon="7.891584857876808"><ele>27.000000000000004</ele><time>2026-04-18T12:54:52Z</time></trkpt><trkpt lat="43.83920607403026" lon="7.891655243873555"><ele>27.0</ele><time>2026-04-18T12:54:53Z</time></trkpt><trkpt lat="43.839131751153246" lon="7.891738371980446"><ele>27.0</ele><time>2026-04-18T12:54:54Z</time></trkpt><trkpt lat="43.839060664980266" lon="7.891831692571985"><ele>26.6</ele><time>2026-04-18T12:54:55Z</time></trkpt><trkpt lat="43.83899600134818" lon="7.891935655305583"><ele>26.200000000000003</ele><time>2026-04-18T12:54:55.999Z</time></trkpt><trkpt lat="43.83893475398179" lon="7.89204465762589"><ele>25.8</ele><time>2026-04-18T12:54:56.999Z</time></trkpt><trkpt lat="43.83888208491046" lon="7.892175554579816"><ele>25.4</ele><time>2026-04-18T12:54:57.999Z</time></trkpt><trkpt lat="43.8388299309599" lon="7.892316846063614"><ele>25.0</ele><time>2026-04-18T12:54:58.999Z</time></trkpt><trkpt lat="43.83878539657909" lon="7.892459744733371"><ele>25.75</ele><time>2026-04-18T12:54:59.999Z</time></trkpt><trkpt lat="43.838752808097965" lon="7.8926158419039165"><ele>26.5</ele><time>2026-04-18T12:55:00.999Z</time></trkpt><trkpt lat="43.8387445736737" lon="7.892785470939425"><ele>27.25</ele><time>2026-04-18T12:55:01.999Z</time></trkpt><trkpt lat="43.83870921870692" lon="7.892957753276653"><ele>28.0</ele><time>2026-04-18T12:55:02.999Z</time></trkpt><trkpt lat="43.83868439037205" lon="7.893161783707628"><ele>28.0</ele><time>2026-04-18T12:55:03.999Z</time></trkpt><trkpt lat="43.838661352432425" lon="7.893355175037839"><ele>28.0</ele><time>2026-04-18T12:55:04.999Z</time></trkpt><trkpt lat="43.83863879708733" lon="7.893557485063111"><ele>28.0</ele><time>2026-04-18T12:55:05.999Z</time></trkpt><trkpt lat="43.838620808799256" lon="7.893731900947161"><ele>28.0</ele><time>2026-04-18T12:55:06.999Z</time></trkpt><trkpt lat="43.83858786842901" lon="7.893899769761259"><ele>28.166666666666668</ele><time>2026-04-18T12:55:07.999Z</time></trkpt><trkpt lat="43.838567463752284" lon="7.894050320998803"><ele>28.333333333333336</ele><time>2026-04-18T12:55:08.999Z</time></trkpt><trkpt lat="43.838546605189045" lon="7.8941760580967015"><ele>28.5</ele><time>2026-04-18T12:55:09.999Z</time></trkpt><trkpt lat="43.83853057699755" lon="7.894284259385743"><ele>28.666666666666664</ele><time>2026-04-18T12:55:10.999Z</time></trkpt><trkpt lat="43.83851256273266" lon="7.894385118441676"><ele>28.833333333333332</ele><time>2026-04-18T12:55:11.999Z</time></trkpt><trkpt lat="43.83849845464392" lon="7.8944846432867655"><ele>29.0</ele><time>2026-04-18T12:55:12.999Z</time></trkpt><trkpt lat="43.83847797337502" lon="7.894642732081454"><ele>26.999999999999996</ele><time>2026-04-18T12:55:15Z</time></trkpt><trkpt lat="43.83844974464908" lon="7.894741262198504"><ele>25.0</ele><time>2026-04-18T12:55:16Z</time></trkpt><trkpt lat="43.83845087307132" lon="7.894836924686657"><ele>23.0</ele><time>2026-04-18T12:55:17Z</time></trkpt><trkpt lat="43.838439769058375" lon="7.894937328174738"><ele>21.0</ele><time>2026-04-18T12:55:18Z</time></trkpt><trkpt lat="43.83843624135143" lon="7.895043511780184"><ele>19.0</ele><time>2026-04-18T12:55:19Z</time></trkpt><trkpt lat="43.838427378937205" lon="7.895168295189446"><ele>17.0</ele><time>2026-04-18T12:55:20Z</time></trkpt><trkpt lat="43.83842321762306" lon="7.895295349776419"><ele>16.833333333333336</ele><time>2026-04-18T12:55:21Z</time></trkpt><trkpt lat="43.83841931989568" lon="7.895408491343285"><ele>16.666666666666668</ele><time>2026-04-18T12:55:22Z</time></trkpt><trkpt lat="43.83842535284741" lon="7.895532581972118"><ele>16.5</ele><time>2026-04-18T12:55:23Z</time></trkpt><trkpt lat="43.8384340017161" lon="7.8956573999947475"><ele>16.333333333333332</ele><time>2026-04-18T12:55:24Z</time></trkpt><trkpt lat="43.83843377112039" lon="7.895789277001614"><ele>16.166666666666664</ele><time>2026-04-18T12:55:25Z</time></trkpt><trkpt lat="43.83844941084651" lon="7.895914855521101"><ele>16.0</ele><time>2026-04-18T12:55:26Z</time></trkpt><trkpt lat="43.83847202358891" lon="7.896047532712721"><ele>20.0</ele><time>2026-04-18T12:55:27Z</time></trkpt><trkpt lat="43.83849209134359" lon="7.896181448132118"><ele>24.0</ele><time>2026-04-18T12:55:28Z</time></trkpt><trkpt lat="43.83851726809953" lon="7.896322058713453"><ele>28.0</ele><time>2026-04-18T12:55:29Z</time></trkpt><trkpt lat="43.8385393953852" lon="7.896457334140384"><ele>32.0</ele><time>2026-04-18T12:55:30Z</time></trkpt><trkpt lat="43.838555319477734" lon="7.896598635088987"><ele>36.0</ele><time>2026-04-18T12:55:31Z</time></trkpt><trkpt lat="43.83857618463947" lon="7.896746628057452"><ele>34.2</ele><time>2026-04-18T12:55:32Z</time></trkpt><trkpt lat="43.83858942715959" lon="7.89689028194713"><ele>32.400000000000006</ele><time>2026-04-18T12:55:33Z</time></trkpt><trkpt lat="43.838605908154314" lon="7.8970371619075435"><ele>30.6</ele><time>2026-04-18T12:55:34Z</time></trkpt><trkpt lat="43.838623380407256" lon="7.897187344015619"><ele>28.8</ele><time>2026-04-18T12:55:35Z</time></trkpt><trkpt lat="43.838631360097395" lon="7.897338184730667"><ele>27.0</ele><time>2026-04-18T12:55:36Z</time></trkpt><trkpt lat="43.83861400449675" lon="7.897492164918461"><ele>26.5</ele><time>2026-04-18T12:55:37Z</time></trkpt><trkpt lat="43.83860150346471" lon="7.897643696928361"><ele>26.0</ele><time>2026-04-18T12:55:38Z</time></trkpt><trkpt lat="43.83857584550832" lon="7.89779924015786"><ele>25.5</ele><time>2026-04-18T12:55:39Z</time></trkpt><trkpt lat="43.8385476380655" lon="7.897956653985274"><ele>25.0</ele><time>2026-04-18T12:55:40Z</time></trkpt><trkpt lat="43.83850848852864" lon="7.898116790948707"><ele>25.0</ele><time>2026-04-18T12:55:41Z</time></trkpt><trkpt lat="43.83846862183308" lon="7.898273541445349"><ele>25.0</ele><time>2026-04-18T12:55:42Z</time></trkpt><trkpt lat="43.8384183338589" lon="7.898428767241745"><ele>25.0</ele><time>2026-04-18T12:55:43Z</time></trkpt><trkpt lat="43.83838550860504" lon="7.898581410158842"><ele>25.0</ele><time>2026-04-18T12:55:44Z</time></trkpt><trkpt lat="43.83834506735563" lon="7.89872849950261"><ele>24.166666666666668</ele><time>2026-04-18T12:55:45Z</time></trkpt><trkpt lat="43.83830729570423" lon="7.898859520322719"><ele>23.333333333333336</ele><time>2026-04-18T12:55:46Z</time></trkpt><trkpt lat="43.83827687339022" lon="7.898970091078984"><ele>22.5</ele><time>2026-04-18T12:55:47Z</time></trkpt><trkpt lat="43.8382525426423" lon="7.899071537321188"><ele>21.666666666666668</ele><time>2026-04-18T12:55:48Z</time></trkpt><trkpt lat="43.83822631716629" lon="7.899157781045251"><ele>20.833333333333336</ele><time>2026-04-18T12:55:49Z</time></trkpt><trkpt lat="43.838198775842706" lon="7.8992442374599685"><ele>20.0</ele><time>2026-04-18T12:55:50Z</time></trkpt><trkpt lat="43.838173688900106" lon="7.8993271795169555"><ele>20.0</ele><time>2026-04-18T12:55:51Z</time></trkpt><trkpt lat="43.83814352844903" lon="7.899415947068705"><ele>20.0</ele><time>2026-04-18T12:55:52Z</time></trkpt><trkpt lat="43.83811291245182" lon="7.899503568946373"><ele>20.0</ele><time>2026-04-18T12:55:53Z</time></trkpt><trkpt lat="43.838081830160284" lon="7.8996069408923155"><ele>20.0</ele><time>2026-04-18T12:55:54Z</time></trkpt><trkpt lat="43.83804781148637" lon="7.899722301824943"><ele>20.0</ele><time>2026-04-18T12:55:55Z</time></trkpt><trkpt lat="43.83801270970589" lon="7.899855471293207"><ele>20.0</ele><time>2026-04-18T12:55:56Z</time></trkpt><trkpt lat="43.83796380011269" lon="7.899994772368143"><ele>22.75</ele><time>2026-04-18T12:55:57Z</time></trkpt><trkpt lat="43.83790884744983" lon="7.900145156196007"><ele>25.5</ele><time>2026-04-18T12:55:58Z</time></trkpt><trkpt lat="43.837852173868775" lon="7.900287286251778"><ele>28.25</ele><time>2026-04-18T12:55:59Z</time></trkpt><trkpt lat="43.83778869297949" lon="7.900432026271846"><ele>31.0</ele><time>2026-04-18T12:56:00Z</time></trkpt><trkpt lat="43.83771385675227" lon="7.9005781473571695"><ele>31.0</ele><time>2026-04-18T12:56:01Z</time></trkpt><trkpt lat="43.837639160200396" lon="7.900733059155298"><ele>31.0</ele><time>2026-04-18T12:56:02Z</time></trkpt><trkpt lat="43.837547689142895" lon="7.900888932102292"><ele>31.0</ele><time>2026-04-18T12:56:03Z</time></trkpt><trkpt lat="43.8374652070073" lon="7.901050482352144"><ele>31.0</ele><time>2026-04-18T12:56:04Z</time></trkpt><trkpt lat="43.83739023358638" lon="7.901216768386839"><ele>29.0</ele><time>2026-04-18T12:56:05Z</time></trkpt><trkpt lat="43.837319726350614" lon="7.901394008308906"><ele>27.0</ele><time>2026-04-18T12:56:06Z</time></trkpt><trkpt lat="43.8372601833217" lon="7.90158310892149"><ele>25.0</ele><time>2026-04-18T12:56:07Z</time></trkpt><trkpt lat="43.837202987208315" lon="7.901771659137063"><ele>23.0</ele><time>2026-04-18T12:56:08Z</time></trkpt><trkpt lat="43.83716268717176" lon="7.9019684756658854"><ele>23.0</ele><time>2026-04-18T12:56:09Z</time></trkpt><trkpt lat="43.83713649359971" lon="7.902162012232128"><ele>23.0</ele><time>2026-04-18T12:56:10Z</time></trkpt><trkpt lat="43.83712491924236" lon="7.902362568399758"><ele>23.0</ele><time>2026-04-18T12:56:11Z</time></trkpt><trkpt lat="43.83712608680407" lon="7.902561096108926"><ele>23.0</ele><time>2026-04-18T12:56:12Z</time></trkpt><trkpt lat="43.83712767686739" lon="7.902755346409634"><ele>23.75</ele><time>2026-04-18T12:56:13Z</time></trkpt><trkpt lat="43.83713437692611" lon="7.902948462911506"><ele>24.5</ele><time>2026-04-18T12:56:14Z</time></trkpt><trkpt lat="43.83713016496627" lon="7.903135963667122"><ele>25.25</ele><time>2026-04-18T12:56:15Z</time></trkpt><trkpt lat="43.837137915972065" lon="7.903317204432399"><ele>26.0</ele><time>2026-04-18T12:56:16Z</time></trkpt><trkpt lat="43.83713999541717" lon="7.903492126112952"><ele>26.25</ele><time>2026-04-18T12:56:17Z</time></trkpt><trkpt lat="43.83715121533058" lon="7.903665704227081"><ele>26.5</ele><time>2026-04-18T12:56:18Z</time></trkpt><trkpt lat="43.83716376235341" lon="7.903841277171316"><ele>26.75</ele><time>2026-04-18T12:56:19Z</time></trkpt><trkpt lat="43.8371810196476" lon="7.904016491523401"><ele>27.0</ele><time>2026-04-18T12:56:20Z</time></trkpt><trkpt lat="43.837212976114344" lon="7.904199860452988"><ele>25.5</ele><time>2026-04-18T12:56:21Z</time></trkpt><trkpt lat="43.837250567174216" lon="7.904393558090417"><ele>24.0</ele><time>2026-04-18T12:56:22Z</time></trkpt><trkpt lat="43.83728929967354" lon="7.9045863983804265"><ele>22.5</ele><time>2026-04-18T12:56:23Z</time></trkpt><trkpt lat="43.83733814202301" lon="7.904782896291457"><ele>21.0</ele><time>2026-04-18T12:56:24Z</time></trkpt><trkpt lat="43.83739030036882" lon="7.904981268222912"><ele>19.5</ele><time>2026-04-18T12:56:25Z</time></trkpt><trkpt lat="43.83744408353742" lon="7.905183911229428"><ele>18.0</ele><time>2026-04-18T12:56:26Z</time></trkpt><trkpt lat="43.83749576243772" lon="7.905376114070221"><ele>16.5</ele><time>2026-04-18T12:56:27Z</time></trkpt><trkpt lat="43.83753196167108" lon="7.905557577845417"><ele>15.0</ele><time>2026-04-18T12:56:28Z</time></trkpt><trkpt lat="43.83757338934981" lon="7.905732533952933"><ele>15.0</ele><time>2026-04-18T12:56:29Z</time></trkpt><trkpt lat="43.83761830546825" lon="7.905900885737966"><ele>15.0</ele><time>2026-04-18T12:56:30Z</time></trkpt><trkpt lat="43.83766247283592" lon="7.906065052349508"><ele>15.0</ele><time>2026-04-18T12:56:31Z</time></trkpt><trkpt lat="43.83771340391959" lon="7.90625002447172"><ele>15.0</ele><time>2026-04-18T12:56:32Z</time></trkpt><trkpt lat="43.83775789045535" lon="7.906421171644326"><ele>16.5</ele><time>2026-04-18T12:56:33Z</time></trkpt><trkpt lat="43.837805045471626" lon="7.906591962359333"><ele>18.0</ele><time>2026-04-18T12:56:34Z</time></trkpt><trkpt lat="43.837862584676984" lon="7.906771962909015"><ele>19.5</ele><time>2026-04-18T12:56:35Z</time></trkpt><trkpt lat="43.83792822089875" lon="7.906941568244144"><ele>21.0</ele><time>2026-04-18T12:56:36Z</time></trkpt><trkpt lat="43.83800002383422" lon="7.907113120736067"><ele>21.0</ele><time>2026-04-18T12:56:37Z</time></trkpt><trkpt lat="43.83808166431518" lon="7.9072815280971005"><ele>21.0</ele><time>2026-04-18T12:56:38Z</time></trkpt><trkpt lat="43.83817343621119" lon="7.907442175269597"><ele>21.0</ele><time>2026-04-18T12:56:39Z</time></trkpt><trkpt lat="43.838284151228514" lon="7.907603547334125"><ele>24.0</ele><time>2026-04-18T12:56:40Z</time></trkpt><trkpt lat="43.83838642795412" lon="7.907756712966075"><ele>27.0</ele><time>2026-04-18T12:56:41Z</time></trkpt><trkpt lat="43.838485582115226" lon="7.9079127172194275"><ele>30.0</ele><time>2026-04-18T12:56:42Z</time></trkpt><trkpt lat="43.838588893920154" lon="7.9080675590776055"><ele>30.0</ele><time>2026-04-18T12:56:43Z</time></trkpt><trkpt lat="43.838689151246435" lon="7.908218724864861"><ele>30.0</ele><time>2026-04-18T12:56:44Z</time></trkpt><trkpt lat="43.83879323506796" lon="7.908376917217319"><ele>30.0</ele><time>2026-04-18T12:56:45Z</time></trkpt><trkpt lat="43.83889249408018" lon="7.908532344106264"><ele>26.0</ele><time>2026-04-18T12:56:46Z</time></trkpt><trkpt lat="43.83897976557072" lon="7.908678621906701"><ele>22.0</ele><time>2026-04-18T12:56:47Z</time></trkpt><trkpt lat="43.83906668159336" lon="7.908838898180219"><ele>18.0</ele><time>2026-04-18T12:56:48Z</time></trkpt><trkpt lat="43.839152944354495" lon="7.909001588001934"><ele>14.0</ele><time>2026-04-18T12:56:49Z</time></trkpt><trkpt lat="43.83924021784862" lon="7.909168241992706"><ele>19.333333333333336</ele><time>2026-04-18T12:56:50Z</time></trkpt><trkpt lat="43.83932750053648" lon="7.909336850794652"><ele>24.666666666666668</ele><time>2026-04-18T12:56:51Z</time></trkpt><trkpt lat="43.839413601350834" lon="7.9095112431011465"><ele>30.0</ele><time>2026-04-18T12:56:52Z</time></trkpt><trkpt lat="43.83950067748016" lon="7.909689022555316"><ele>30.0</ele><time>2026-04-18T12:56:53Z</time></trkpt><trkpt lat="43.83959583886985" lon="7.909870424841964"><ele>30.0</ele><time>2026-04-18T12:56:54Z</time></trkpt><trkpt lat="43.83968658232813" lon="7.910055042601854"><ele>30.0</ele><time>2026-04-18T12:56:55Z</time></trkpt><trkpt lat="43.839775259193644" lon="7.910233457644342"><ele>25.333333333333332</ele><time>2026-04-18T12:56:56Z</time></trkpt><trkpt lat="43.83986645733724" lon="7.910415033134863"><ele>20.666666666666664</ele><time>2026-04-18T12:56:57Z</time></trkpt><trkpt lat="43.83994883668196" lon="7.910604532372344"><ele>16.0</ele><time>2026-04-18T12:56:58Z</time></trkpt><trkpt lat="43.84003824493339" lon="7.910786488964137"><ele>13.333333333333332</ele><time>2026-04-18T12:56:59Z</time></trkpt><trkpt lat="43.840126606964404" lon="7.910964915609752"><ele>10.666666666666666</ele><time>2026-04-18T12:57:00Z</time></trkpt><trkpt lat="43.84021270699007" lon="7.911147400581086"><ele>8.0</ele><time>2026-04-18T12:57:01Z</time></trkpt><trkpt lat="43.84030231051605" lon="7.911322363602491"><ele>10.5</ele><time>2026-04-18T12:57:01.999Z</time></trkpt><trkpt lat="43.84037552827056" lon="7.911500246541576"><ele>13.0</ele><time>2026-04-18T12:57:02.999Z</time></trkpt><trkpt lat="43.8404492647872" lon="7.911672296094278"><ele>15.5</ele><time>2026-04-18T12:57:03.999Z</time></trkpt><trkpt lat="43.84051556735271" lon="7.9118464835893825"><ele>18.0</ele><time>2026-04-18T12:57:04.999Z</time></trkpt><trkpt lat="43.84058227055897" lon="7.912016019952841"><ele>18.0</ele><time>2026-04-18T12:57:05.999Z</time></trkpt><trkpt lat="43.840648441933105" lon="7.912188711881777"><ele>18.0</ele><time>2026-04-18T12:57:06.999Z</time></trkpt><trkpt lat="43.84072046417393" lon="7.912370876078304"><ele>18.0</ele><time>2026-04-18T12:57:07.999Z</time></trkpt><trkpt lat="43.84078517962054" lon="7.912555505374545"><ele>18.0</ele><time>2026-04-18T12:57:08.999Z</time></trkpt><trkpt lat="43.840855716349566" lon="7.912745070767966"><ele>18.666666666666668</ele><time>2026-04-18T12:57:09.999Z</time></trkpt><trkpt lat="43.840931415974374" lon="7.9129362913166075"><ele>19.333333333333336</ele><time>2026-04-18T12:57:10.999Z</time></trkpt><trkpt lat="43.84100825243296" lon="7.91312312149855"><ele>20.0</ele><time>2026-04-18T12:57:11.999Z</time></trkpt><trkpt lat="43.84108903710248" lon="7.9133081772875995"><ele>17.0</ele><time>2026-04-18T12:57:12.999Z</time></trkpt><trkpt lat="43.841184705484864" lon="7.913492207434361"><ele>14.0</ele><time>2026-04-18T12:57:13.999Z</time></trkpt><trkpt lat="43.841293715709725" lon="7.913664137888143"><ele>11.0</ele><time>2026-04-18T12:57:14.999Z</time></trkpt><trkpt lat="43.84140108400609" lon="7.913810304906595"><ele>11.0</ele><time>2026-04-18T12:57:15.999Z</time></trkpt><trkpt lat="43.84151475373862" lon="7.913941056958439"><ele>11.0</ele><time>2026-04-18T12:57:16.999Z</time></trkpt><trkpt lat="43.84163635949011" lon="7.914062812764204"><ele>11.0</ele><time>2026-04-18T12:57:17.999Z</time></trkpt><trkpt lat="43.84174622101089" lon="7.914188157836961"><ele>11.0</ele><time>2026-04-18T12:57:18.999Z</time></trkpt><trkpt lat="43.841850947210496" lon="7.91430693702554"><ele>12.25</ele><time>2026-04-18T12:57:19.999Z</time></trkpt><trkpt lat="43.84195228946694" lon="7.914423283976766"><ele>13.5</ele><time>2026-04-18T12:57:20.999Z</time></trkpt><trkpt lat="43.84204223892235" lon="7.91455338676441"><ele>14.75</ele><time>2026-04-18T12:57:21.999Z</time></trkpt><trkpt lat="43.842142567001744" lon="7.914668894041334"><ele>16.0</ele><time>2026-04-18T12:57:22.999Z</time></trkpt><trkpt lat="43.84224268942111" lon="7.914784164539835"><ele>16.0</ele><time>2026-04-18T12:57:23.999Z</time></trkpt><trkpt lat="43.84234664155577" lon="7.914903949293751"><ele>16.0</ele><time>2026-04-18T12:57:24.999Z</time></trkpt><trkpt lat="43.84245214813231" lon="7.915025965369813"><ele>16.0</ele><time>2026-04-18T12:57:25.999Z</time></trkpt><trkpt lat="43.84256896552872" lon="7.915131712746507"><ele>16.0</ele><time>2026-04-18T12:57:26.999Z</time></trkpt><trkpt lat="43.84267278427759" lon="7.915259782711716"><ele>16.25</ele><time>2026-04-18T12:57:27.999Z</time></trkpt><trkpt lat="43.84277956587884" lon="7.91538115443605"><ele>16.5</ele><time>2026-04-18T12:57:28.999Z</time></trkpt><trkpt lat="43.84287818953309" lon="7.915508579919645"><ele>16.75</ele><time>2026-04-18T12:57:30Z</time></trkpt><trkpt lat="43.84297952053151" lon="7.915624334788104"><ele>17.0</ele><time>2026-04-18T12:57:31Z</time></trkpt><trkpt lat="43.843077849052854" lon="7.915746910225334"><ele>17.0</ele><time>2026-04-18T12:57:32Z</time></trkpt><trkpt lat="43.84317142591467" lon="7.915879275052192"><ele>17.0</ele><time>2026-04-18T12:57:33Z</time></trkpt><trkpt lat="43.84325758441712" lon="7.916026384428316"><ele>17.0</ele><time>2026-04-18T12:57:34Z</time></trkpt><trkpt lat="43.843330385670654" lon="7.916176728239978"><ele>17.0</ele><time>2026-04-18T12:57:35Z</time></trkpt><trkpt lat="43.843390545931015" lon="7.916333918708083"><ele>18.25</ele><time>2026-04-18T12:57:36Z</time></trkpt><trkpt lat="43.843454422224546" lon="7.916492095348287"><ele>19.5</ele><time>2026-04-18T12:57:37Z</time></trkpt><trkpt lat="43.843512757180065" lon="7.916657756422563"><ele>20.75</ele><time>2026-04-18T12:57:38Z</time></trkpt><trkpt lat="43.84356207784315" lon="7.916830049905962"><ele>22.0</ele><time>2026-04-18T12:57:39Z</time></trkpt><trkpt lat="43.8435993057756" lon="7.91700241154249"><ele>22.0</ele><time>2026-04-18T12:57:40Z</time></trkpt><trkpt lat="43.84363912754474" lon="7.917183212720322"><ele>22.0</ele><time>2026-04-18T12:57:41Z</time></trkpt><trkpt lat="43.843677647334765" lon="7.917365032798959"><ele>22.0</ele><time>2026-04-18T12:57:42Z</time></trkpt><trkpt lat="43.843713818221985" lon="7.917553566811801"><ele>22.0</ele><time>2026-04-18T12:57:43Z</time></trkpt><trkpt lat="43.84375076875439" lon="7.917736910140484"><ele>20.5</ele><time>2026-04-18T12:57:44Z</time></trkpt><trkpt lat="43.84378796159756" lon="7.91792361337765"><ele>19.0</ele><time>2026-04-18T12:57:45Z</time></trkpt><trkpt lat="43.843830330103025" lon="7.918116984033745"><ele>17.5</ele><time>2026-04-18T12:57:46Z</time></trkpt><trkpt lat="43.843872748909355" lon="7.91832199331974"><ele>16.0</ele><time>2026-04-18T12:57:47Z</time></trkpt><trkpt lat="43.84391704204662" lon="7.91853061719641"><ele>13.333333333333332</ele><time>2026-04-18T12:57:48Z</time></trkpt><trkpt lat="43.843961726872294" lon="7.9187417167113825"><ele>10.666666666666666</ele><time>2026-04-18T12:57:49Z</time></trkpt><trkpt lat="43.84401656938498" lon="7.918956972822524"><ele>8.0</ele><time>2026-04-18T12:57:50Z</time></trkpt><trkpt lat="43.84407960834697" lon="7.919173635051301"><ele>7.333333333333333</ele><time>2026-04-18T12:57:51Z</time></trkpt><trkpt lat="43.84415252925563" lon="7.919392077584994"><ele>6.666666666666666</ele><time>2026-04-18T12:57:52Z</time></trkpt><trkpt lat="43.84422495678739" lon="7.919613751764737"><ele>6.0</ele><time>2026-04-18T12:57:53Z</time></trkpt><trkpt lat="43.844301526317686" lon="7.919830687133014"><ele>11.333333333333332</ele><time>2026-04-18T12:57:54Z</time></trkpt><trkpt lat="43.8443804775444" lon="7.920052574680646"><ele>16.666666666666664</ele><time>2026-04-18T12:57:55Z</time></trkpt><trkpt lat="43.844448746536294" lon="7.9202814735345095"><ele>22.0</ele><time>2026-04-18T12:57:56Z</time></trkpt><trkpt lat="43.8445157238158" lon="7.920509988918042"><ele>22.0</ele><time>2026-04-18T12:57:57Z</time></trkpt><trkpt lat="43.844572914134105" lon="7.920740544897404"><ele>22.0</ele><time>2026-04-18T12:57:58Z</time></trkpt><trkpt lat="43.844612122348344" lon="7.920989689696812"><ele>22.0</ele><time>2026-04-18T12:57:59Z</time></trkpt><trkpt lat="43.844655467053066" lon="7.921230116803377"><ele>20.666666666666664</ele><time>2026-04-18T12:58:00Z</time></trkpt><trkpt lat="43.8446922446674" lon="7.921485752625562"><ele>19.333333333333332</ele><time>2026-04-18T12:58:01Z</time></trkpt><trkpt lat="43.844713274164086" lon="7.921752138290043"><ele>18.0</ele><time>2026-04-18T12:58:02Z</time></trkpt><trkpt lat="43.844740698507685" lon="7.922036954777961"><ele>18.0</ele><time>2026-04-18T12:58:03Z</time></trkpt><trkpt lat="43.84476531320217" lon="7.922334556225421"><ele>18.0</ele><time>2026-04-18T12:58:04Z</time></trkpt><trkpt lat="43.844783955972325" lon="7.922627131331598"><ele>18.0</ele><time>2026-04-18T12:58:05Z</time></trkpt><trkpt lat="43.844805097964034" lon="7.922915587512049"><ele>18.0</ele><time>2026-04-18T12:58:06Z</time></trkpt><trkpt lat="43.844804642012264" lon="7.923200220841365"><ele>18.0</ele><time>2026-04-18T12:58:07Z</time></trkpt><trkpt lat="43.844783380168884" lon="7.923486945492911"><ele>18.0</ele><time>2026-04-18T12:58:08Z</time></trkpt><trkpt lat="43.844791563184835" lon="7.9237723958515"><ele>18.0</ele><time>2026-04-18T12:58:09Z</time></trkpt><trkpt lat="43.84478019870989" lon="7.924062093182959"><ele>18.0</ele><time>2026-04-18T12:58:10Z</time></trkpt><trkpt lat="43.84476919885495" lon="7.924354331219933"><ele>18.0</ele><time>2026-04-18T12:58:11Z</time></trkpt><trkpt lat="43.844758988895876" lon="7.924650715376457"><ele>18.0</ele><time>2026-04-18T12:58:12Z</time></trkpt><trkpt lat="43.84474693453267" lon="7.924964796356919"><ele>18.0</ele><time>2026-04-18T12:58:13Z</time></trkpt><trkpt lat="43.84474183155451" lon="7.925268268412191"><ele>18.0</ele><time>2026-04-18T12:58:14Z</time></trkpt><trkpt lat="43.84474282251556" lon="7.925576483700339"><ele>19.5</ele><time>2026-04-18T12:58:15Z</time></trkpt><trkpt lat="43.844742776066184" lon="7.925891539461476"><ele>21.0</ele><time>2026-04-18T12:58:16Z</time></trkpt><trkpt lat="43.844769387140765" lon="7.926208666200336"><ele>22.0</ele><time>2026-04-18T12:58:17Z</time></trkpt><trkpt lat="43.84482007418416" lon="7.926519734342278"><ele>23.0</ele><time>2026-04-18T12:58:18Z</time></trkpt><trkpt lat="43.84485621789855" lon="7.926836943675957"><ele>23.5</ele><time>2026-04-18T12:58:19Z</time></trkpt><trkpt lat="43.84487590853172" lon="7.92715230033365"><ele>24.0</ele><time>2026-04-18T12:58:20Z</time></trkpt><trkpt lat="43.84491037168748" lon="7.92746350069204"><ele>23.333333333333332</ele><time>2026-04-18T12:58:21Z</time></trkpt><trkpt lat="43.84494037944302" lon="7.927766714777059"><ele>22.666666666666664</ele><time>2026-04-18T12:58:22Z</time></trkpt><trkpt lat="43.84497964566795" lon="7.928066820092798"><ele>22.0</ele><time>2026-04-18T12:58:23Z</time></trkpt><trkpt lat="43.84498991794357" lon="7.9283714568941"><ele>22.0</ele><time>2026-04-18T12:58:24Z</time></trkpt><trkpt lat="43.84499119401006" lon="7.928677490804412"><ele>22.0</ele><time>2026-04-18T12:58:25Z</time></trkpt><trkpt lat="43.84498233913929" lon="7.928969364430989"><ele>22.0</ele><time>2026-04-18T12:58:26Z</time></trkpt><trkpt lat="43.8449644914353" lon="7.929249164150955"><ele>22.0</ele><time>2026-04-18T12:58:27Z</time></trkpt><trkpt lat="43.844933755369524" lon="7.92952878799357"><ele>22.0</ele><time>2026-04-18T12:58:28Z</time></trkpt><trkpt lat="43.84490365348303" lon="7.929805623161973"><ele>22.0</ele><time>2026-04-18T12:58:29Z</time></trkpt><trkpt lat="43.844882570125975" lon="7.930079418357013"><ele>21.666666666666664</ele><time>2026-04-18T12:58:30Z</time></trkpt><trkpt lat="43.84486255733717" lon="7.930334557368903"><ele>21.333333333333332</ele><time>2026-04-18T12:58:31Z</time></trkpt><trkpt lat="43.844877099188366" lon="7.930640243126644"><ele>21.0</ele><time>2026-04-18T12:58:32Z</time></trkpt><trkpt lat="43.844902794845794" lon="7.9309218118285205"><ele>21.0</ele><time>2026-04-18T12:58:33Z</time></trkpt><trkpt lat="43.844932848419894" lon="7.931197699920027"><ele>21.0</ele><time>2026-04-18T12:58:34Z</time></trkpt><trkpt lat="43.84496666599147" lon="7.931469609404177"><ele>21.0</ele><time>2026-04-18T12:58:35Z</time></trkpt><trkpt lat="43.845003584121514" lon="7.931745858207149"><ele>20.0</ele><time>2026-04-18T12:58:36Z</time></trkpt><trkpt lat="43.84504106386016" lon="7.932021633897042"><ele>19.0</ele><time>2026-04-18T12:58:37Z</time></trkpt><trkpt lat="43.8450791816663" lon="7.932291227492101"><ele>18.0</ele><time>2026-04-18T12:58:38Z</time></trkpt><trkpt lat="43.84511664388916" lon="7.932550433789349"><ele>29.666666666666668</ele><time>2026-04-18T12:58:39Z</time></trkpt><trkpt lat="43.84515361437722" lon="7.932806237961917"><ele>41.333333333333336</ele><time>2026-04-18T12:58:40Z</time></trkpt><trkpt lat="43.84519004565779" lon="7.933067757181124"><ele>53.0</ele><time>2026-04-18T12:58:41Z</time></trkpt><trkpt lat="43.84522564060845" lon="7.933334692248112"><ele>50.333333333333336</ele><time>2026-04-18T12:58:42Z</time></trkpt><trkpt lat="43.8452542223444" lon="7.933595810439207"><ele>47.66666666666667</ele><time>2026-04-18T12:58:43Z</time></trkpt><trkpt lat="43.845269039695786" lon="7.933848961046833"><ele>45.0</ele><time>2026-04-18T12:58:44Z</time></trkpt><trkpt lat="43.845304216105085" lon="7.934089343183322"><ele>44.0</ele><time>2026-04-18T12:58:45Z</time></trkpt><trkpt lat="43.845312407456206" lon="7.9343226148719905"><ele>43.0</ele><time>2026-04-18T12:58:46Z</time></trkpt><trkpt lat="43.84532987131567" lon="7.934545669005356"><ele>42.0</ele><time>2026-04-18T12:58:47Z</time></trkpt><trkpt lat="43.845344499397655" lon="7.934758639280313"><ele>42.0</ele><time>2026-04-18T12:58:48Z</time></trkpt><trkpt lat="43.84536520587723" lon="7.934966240952268"><ele>42.0</ele><time>2026-04-18T12:58:49Z</time></trkpt><trkpt lat="43.84536400401235" lon="7.935185553498838"><ele>42.0</ele><time>2026-04-18T12:58:50Z</time></trkpt><trkpt lat="43.84538465078662" lon="7.935387457685814"><ele>40.75</ele><time>2026-04-18T12:58:51Z</time></trkpt><trkpt lat="43.845405135595605" lon="7.935581339284804"><ele>39.5</ele><time>2026-04-18T12:58:52Z</time></trkpt><trkpt lat="43.845426570382614" lon="7.935774535875636"><ele>38.25</ele><time>2026-04-18T12:58:53Z</time></trkpt><trkpt lat="43.845451798332846" lon="7.935980475886909"><ele>37.0</ele><time>2026-04-18T12:58:54Z</time></trkpt><trkpt lat="43.84548716447457" lon="7.936177319643761"><ele>34.25</ele><time>2026-04-18T12:58:55Z</time></trkpt><trkpt lat="43.84552840900039" lon="7.9363580648449545"><ele>31.5</ele><time>2026-04-18T12:58:56Z</time></trkpt><trkpt lat="43.84556732290774" lon="7.936525027632001"><ele>28.75</ele><time>2026-04-18T12:58:57Z</time></trkpt><trkpt lat="43.845604933395606" lon="7.936682867781001"><ele>26.0</ele><time>2026-04-18T12:58:58Z</time></trkpt><trkpt lat="43.84563986128596" lon="7.936829449893288"><ele>24.8</ele><time>2026-04-18T12:58:59Z</time></trkpt><trkpt lat="43.845672751163086" lon="7.936971484676317"><ele>23.6</ele><time>2026-04-18T12:59:00Z</time></trkpt><trkpt lat="43.845702326967036" lon="7.9371070717927985"><ele>22.4</ele><time>2026-04-18T12:59:01Z</time></trkpt><trkpt lat="43.84573748234112" lon="7.937242301135655"><ele>21.2</ele><time>2026-04-18T12:59:02Z</time></trkpt><trkpt lat="43.84577593611027" lon="7.937388382842082"><ele>20.0</ele><time>2026-04-18T12:59:03Z</time></trkpt><trkpt lat="43.84580114015726" lon="7.937537195844093"><ele>20.0</ele><time>2026-04-18T12:59:04Z</time></trkpt><trkpt lat="43.84580733216093" lon="7.9376917501358415"><ele>20.0</ele><time>2026-04-18T12:59:05Z</time></trkpt><trkpt lat="43.84583897432513" lon="7.9378346986873"><ele>20.0</ele><time>2026-04-18T12:59:06Z</time></trkpt><trkpt lat="43.84585279787262" lon="7.93799307872501"><ele>20.0</ele><time>2026-04-18T12:59:07Z</time></trkpt><trkpt lat="43.845867106016655" lon="7.938161008502091"><ele>20.0</ele><time>2026-04-18T12:59:07.999Z</time></trkpt><trkpt lat="43.84586626655854" lon="7.938324254239724"><ele>20.0</ele><time>2026-04-18T12:59:08.999Z</time></trkpt><trkpt lat="43.84583147823429" lon="7.938478640590045"><ele>20.0</ele><time>2026-04-18T12:59:09.999Z</time></trkpt><trkpt lat="43.84581784549445" lon="7.9386344373606015"><ele>20.0</ele><time>2026-04-18T12:59:10.999Z</time></trkpt><trkpt lat="43.84578168514521" lon="7.938784496515253"><ele>20.5</ele><time>2026-04-18T12:59:11.999Z</time></trkpt><trkpt lat="43.84575990897251" lon="7.9389397030886535"><ele>21.0</ele><time>2026-04-18T12:59:12.999Z</time></trkpt><trkpt lat="43.8457436939982" lon="7.9390993031394945"><ele>21.5</ele><time>2026-04-18T12:59:13.999Z</time></trkpt><trkpt lat="43.84573911227941" lon="7.939259151788938"><ele>22.0</ele><time>2026-04-18T12:59:14.999Z</time></trkpt><trkpt lat="43.84574610908794" lon="7.939415729605611"><ele>22.0</ele><time>2026-04-18T12:59:15.999Z</time></trkpt><trkpt lat="43.845762218140244" lon="7.939575533734157"><ele>22.0</ele><time>2026-04-18T12:59:16.999Z</time></trkpt><trkpt lat="43.84578386977526" lon="7.939737631372767"><ele>22.0</ele><time>2026-04-18T12:59:17.999Z</time></trkpt><trkpt lat="43.845808492649475" lon="7.9398947174839405"><ele>22.0</ele><time>2026-04-18T12:59:18.999Z</time></trkpt><trkpt lat="43.84583656501277" lon="7.940049632224621"><ele>20.75</ele><time>2026-04-18T12:59:19.999Z</time></trkpt><trkpt lat="43.84586859638635" lon="7.940206038724427"><ele>19.5</ele><time>2026-04-18T12:59:20.999Z</time></trkpt><trkpt lat="43.84590708076505" lon="7.9403601289535475"><ele>18.25</ele><time>2026-04-18T12:59:21.999Z</time></trkpt><trkpt lat="43.84596311146621" lon="7.940501216475243"><ele>17.0</ele><time>2026-04-18T12:59:22.999Z</time></trkpt><trkpt lat="43.84601230098852" lon="7.940641709467113"><ele>20.0</ele><time>2026-04-18T12:59:23.999Z</time></trkpt><trkpt lat="43.846072943513505" lon="7.940771375451466"><ele>23.0</ele><time>2026-04-18T12:59:24.999Z</time></trkpt><trkpt lat="43.84614072246598" lon="7.940892205790772"><ele>26.000000000000004</ele><time>2026-04-18T12:59:25.999Z</time></trkpt><trkpt lat="43.84620930990456" lon="7.941006999078904"><ele>29.0</ele><time>2026-04-18T12:59:26.999Z</time></trkpt><trkpt lat="43.84627092499873" lon="7.9411218434853135"><ele>32.0</ele><time>2026-04-18T12:59:27.999Z</time></trkpt><trkpt lat="43.84632941845157" lon="7.941243302135529"><ele>32.0</ele><time>2026-04-18T12:59:28.999Z</time></trkpt><trkpt lat="43.84638670166244" lon="7.941368086608175"><ele>32.0</ele><time>2026-04-18T12:59:29.999Z</time></trkpt><trkpt lat="43.84643501163948" lon="7.941497132957499"><ele>32.0</ele><time>2026-04-18T12:59:31Z</time></trkpt><trkpt lat="43.84649034956689" lon="7.941620315853415"><ele>32.0</ele><time>2026-04-18T12:59:32Z</time></trkpt><trkpt lat="43.846541029359585" lon="7.941752686637243"><ele>32.0</ele><time>2026-04-18T12:59:33Z</time></trkpt><trkpt lat="43.84658782581219" lon="7.9418883012002155"><ele>29.75</ele><time>2026-04-18T12:59:34Z</time></trkpt><trkpt lat="43.84663600819012" lon="7.9420271180958455"><ele>27.5</ele><time>2026-04-18T12:59:35Z</time></trkpt><trkpt lat="43.84667673166306" lon="7.942185839773209"><ele>25.25</ele><time>2026-04-18T12:59:36Z</time></trkpt><trkpt lat="43.8467217731507" lon="7.942352590137975"><ele>23.0</ele><time>2026-04-18T12:59:37Z</time></trkpt><trkpt lat="43.84675698503773" lon="7.942527526556394"><ele>22.0</ele><time>2026-04-18T12:59:38Z</time></trkpt><trkpt lat="43.846788491858916" lon="7.942702517507063"><ele>21.0</ele><time>2026-04-18T12:59:39Z</time></trkpt><trkpt lat="43.84681533662896" lon="7.942881863848155"><ele>20.0</ele><time>2026-04-18T12:59:40Z</time></trkpt><trkpt lat="43.846851602499726" lon="7.943060292323591"><ele>19.0</ele><time>2026-04-18T12:59:41Z</time></trkpt><trkpt lat="43.84687792592317" lon="7.943227865330494"><ele>25.5</ele><time>2026-04-18T12:59:42Z</time></trkpt><trkpt lat="43.84687807976983" lon="7.94339640696767"><ele>32.0</ele><time>2026-04-18T12:59:43Z</time></trkpt><trkpt lat="43.84690778621469" lon="7.943556153060056"><ele>38.5</ele><time>2026-04-18T12:59:44Z</time></trkpt><trkpt lat="43.84691215064767" lon="7.94371464908587"><ele>45.0</ele><time>2026-04-18T12:59:45Z</time></trkpt><trkpt lat="43.84692175115094" lon="7.9438702588121854"><ele>45.0</ele><time>2026-04-18T12:59:46Z</time></trkpt><trkpt lat="43.84692958041142" lon="7.944023955251683"><ele>45.0</ele><time>2026-04-18T12:59:47Z</time></trkpt><trkpt lat="43.84693637500434" lon="7.944179887600831"><ele>45.0</ele><time>2026-04-18T12:59:48Z</time></trkpt><trkpt lat="43.84694072995846" lon="7.944334077924754"><ele>45.0</ele><time>2026-04-18T12:59:49Z</time></trkpt><trkpt lat="43.8469378714839" lon="7.9444828757466075"><ele>45.0</ele><time>2026-04-18T12:59:50Z</time></trkpt><trkpt lat="43.84693831450562" lon="7.944628218112878"><ele>44.4</ele><time>2026-04-18T12:59:51Z</time></trkpt><trkpt lat="43.84693355241262" lon="7.944777364828788"><ele>43.8</ele><time>2026-04-18T12:59:52Z</time></trkpt><trkpt lat="43.84692352772328" lon="7.944930252183045"><ele>43.2</ele><time>2026-04-18T12:59:53Z</time></trkpt><trkpt lat="43.846920867317436" lon="7.945089210757245"><ele>42.6</ele><time>2026-04-18T12:59:54Z</time></trkpt><trkpt lat="43.84691923623473" lon="7.945247119401423"><ele>42.0</ele><time>2026-04-18T12:59:55Z</time></trkpt><trkpt lat="43.846917492037264" lon="7.94540474918514"><ele>40.75</ele><time>2026-04-18T12:59:56Z</time></trkpt><trkpt lat="43.846908932376685" lon="7.945566348093615"><ele>39.5</ele><time>2026-04-18T12:59:57Z</time></trkpt><trkpt lat="43.84690957894523" lon="7.945726615105836"><ele>38.25</ele><time>2026-04-18T12:59:58Z</time></trkpt><trkpt lat="43.846910600076576" lon="7.945884130691964"><ele>37.0</ele><time>2026-04-18T12:59:59Z</time></trkpt><trkpt lat="43.84691631244838" lon="7.946044237928519"><ele>35.5</ele><time>2026-04-18T13:00:00Z</time></trkpt><trkpt lat="43.846937683648676" lon="7.946204019385939"><ele>34.0</ele><time>2026-04-18T13:00:01Z</time></trkpt><trkpt lat="43.84697252593632" lon="7.946372679972936"><ele>32.5</ele><time>2026-04-18T13:00:02Z</time></trkpt><trkpt lat="43.847022967607565" lon="7.94653915572357"><ele>31.0</ele><time>2026-04-18T13:00:03Z</time></trkpt><trkpt lat="43.847073274650114" lon="7.946706605961238"><ele>29.75</ele><time>2026-04-18T13:00:04Z</time></trkpt><trkpt lat="43.84711631666906" lon="7.946858806812983"><ele>28.5</ele><time>2026-04-18T13:00:05Z</time></trkpt><trkpt lat="43.847163533688025" lon="7.947010004318673"><ele>27.25</ele><time>2026-04-18T13:00:06Z</time></trkpt><trkpt lat="43.84721176700656" lon="7.947160784562406"><ele>26.0</ele><time>2026-04-18T13:00:07Z</time></trkpt><trkpt lat="43.84725924973308" lon="7.947314677224331"><ele>26.0</ele><time>2026-04-18T13:00:08Z</time></trkpt><trkpt lat="43.847307290799144" lon="7.947467281142722"><ele>26.0</ele><time>2026-04-18T13:00:09Z</time></trkpt><trkpt lat="43.84735490546789" lon="7.94761681479927"><ele>26.0</ele><time>2026-04-18T13:00:10Z</time></trkpt><trkpt lat="43.84740953657267" lon="7.947757518915669"><ele>26.0</ele><time>2026-04-18T13:00:11Z</time></trkpt><trkpt lat="43.847456100545394" lon="7.947894222343681"><ele>24.8</ele><time>2026-04-18T13:00:12Z</time></trkpt><trkpt lat="43.8475079613664" lon="7.948025219049226"><ele>23.6</ele><time>2026-04-18T13:00:13Z</time></trkpt><trkpt lat="43.84756644253957" lon="7.948150267985587"><ele>22.4</ele><time>2026-04-18T13:00:14Z</time></trkpt><trkpt lat="43.84763031738934" lon="7.9482793697670155"><ele>21.2</ele><time>2026-04-18T13:00:15Z</time></trkpt><trkpt lat="43.84769086958727" lon="7.948407584108389"><ele>20.0</ele><time>2026-04-18T13:00:16Z</time></trkpt><trkpt lat="43.84774172590323" lon="7.948549188653538"><ele>21.2</ele><time>2026-04-18T13:00:17Z</time></trkpt><trkpt lat="43.84776878565834" lon="7.948698317029346"><ele>22.4</ele><time>2026-04-18T13:00:18Z</time></trkpt><trkpt lat="43.84777240116864" lon="7.948852067311966"><ele>23.6</ele><time>2026-04-18T13:00:19Z</time></trkpt><trkpt lat="43.84776491249958" lon="7.949004404662419"><ele>24.8</ele><time>2026-04-18T13:00:20Z</time></trkpt><trkpt lat="43.84775972267281" lon="7.9491555588520715"><ele>26.0</ele><time>2026-04-18T13:00:21Z</time></trkpt><trkpt lat="43.847770390225996" lon="7.949310722961594"><ele>26.0</ele><time>2026-04-18T13:00:22Z</time></trkpt><trkpt lat="43.847793423780004" lon="7.949462445986568"><ele>26.0</ele><time>2026-04-18T13:00:23Z</time></trkpt><trkpt lat="43.84783051582568" lon="7.949608290377833"><ele>26.0</ele><time>2026-04-18T13:00:24Z</time></trkpt><trkpt lat="43.84788174986773" lon="7.949748418297081"><ele>26.0</ele><time>2026-04-18T13:00:25Z</time></trkpt><trkpt lat="43.84794609112104" lon="7.949879282475313"><ele>26.0</ele><time>2026-04-18T13:00:26Z</time></trkpt><trkpt lat="43.84802100804123" lon="7.950004828235433"><ele>26.0</ele><time>2026-04-18T13:00:27Z</time></trkpt><trkpt lat="43.84809742264332" lon="7.950120952433252"><ele>26.0</ele><time>2026-04-18T13:00:28Z</time></trkpt><trkpt lat="43.8481792777781" lon="7.950234747719082"><ele>26.0</ele><time>2026-04-18T13:00:29Z</time></trkpt><trkpt lat="43.84826216333423" lon="7.950335170126967"><ele>25.0</ele><time>2026-04-18T13:00:30Z</time></trkpt><trkpt lat="43.84834111111429" lon="7.95043462127958"><ele>24.0</ele><time>2026-04-18T13:00:31Z</time></trkpt><trkpt lat="43.84841826289926" lon="7.9505317329824505"><ele>23.0</ele><time>2026-04-18T13:00:32Z</time></trkpt><trkpt lat="43.848491019352885" lon="7.950628364715507"><ele>22.0</ele><time>2026-04-18T13:00:33Z</time></trkpt><trkpt lat="43.84855992875534" lon="7.950727290674969"><ele>21.0</ele><time>2026-04-18T13:00:34Z</time></trkpt><trkpt lat="43.848616262140595" lon="7.9508307717837265"><ele>23.200000000000003</ele><time>2026-04-18T13:00:35Z</time></trkpt><trkpt lat="43.84866324111026" lon="7.95095023281155"><ele>25.400000000000002</ele><time>2026-04-18T13:00:36Z</time></trkpt><trkpt lat="43.84870235153487" lon="7.9510803646883605"><ele>27.6</ele><time>2026-04-18T13:00:37Z</time></trkpt><trkpt lat="43.84873615091177" lon="7.951217057598693"><ele>29.8</ele><time>2026-04-18T13:00:38Z</time></trkpt><trkpt lat="43.848769454406685" lon="7.951350885420327"><ele>32.0</ele><time>2026-04-18T13:00:39Z</time></trkpt><trkpt lat="43.84880440249575" lon="7.9514911186708135"><ele>32.0</ele><time>2026-04-18T13:00:40Z</time></trkpt><trkpt lat="43.848839890350575" lon="7.951625047071066"><ele>32.0</ele><time>2026-04-18T13:00:41Z</time></trkpt><trkpt lat="43.848868797145286" lon="7.951756489466305"><ele>32.0</ele><time>2026-04-18T13:00:42Z</time></trkpt><trkpt lat="43.84888532966169" lon="7.951888972616239"><ele>32.0</ele><time>2026-04-18T13:00:43Z</time></trkpt><trkpt lat="43.84888854444851" lon="7.9520228744374535"><ele>32.0</ele><time>2026-04-18T13:00:44Z</time></trkpt><trkpt lat="43.8488896815722" lon="7.9521650671117285"><ele>31.0</ele><time>2026-04-18T13:00:45Z</time></trkpt><trkpt lat="43.84888697987794" lon="7.952319483515743"><ele>30.0</ele><time>2026-04-18T13:00:46Z</time></trkpt><trkpt lat="43.84887032920878" lon="7.952476953980069"><ele>29.0</ele><time>2026-04-18T13:00:47Z</time></trkpt><trkpt lat="43.84885294748937" lon="7.952639788646617"><ele>28.0</ele><time>2026-04-18T13:00:48Z</time></trkpt><trkpt lat="43.84884368194393" lon="7.952807059003137"><ele>27.0</ele><time>2026-04-18T13:00:49Z</time></trkpt><trkpt lat="43.84885181375031" lon="7.952971556929466"><ele>26.0</ele><time>2026-04-18T13:00:50Z</time></trkpt><trkpt lat="43.84888068126363" lon="7.953138654973011"><ele>25.0</ele><time>2026-04-18T13:00:51Z</time></trkpt><trkpt lat="43.84893246408839" lon="7.9533081662817695"><ele>24.0</ele><time>2026-04-18T13:00:52Z</time></trkpt><trkpt lat="43.848992679840386" lon="7.95347267321279"><ele>21.5</ele><time>2026-04-18T13:00:53Z</time></trkpt><trkpt lat="43.849073963401146" lon="7.953633105454415"><ele>19.0</ele><time>2026-04-18T13:00:54Z</time></trkpt><trkpt lat="43.84916191277458" lon="7.953781311779814"><ele>16.5</ele><time>2026-04-18T13:00:55Z</time></trkpt><trkpt lat="43.8492452712609" lon="7.953947408229039"><ele>14.0</ele><time>2026-04-18T13:00:56Z</time></trkpt><trkpt lat="43.84934009874795" lon="7.954100493820595"><ele>17.25</ele><time>2026-04-18T13:00:57Z</time></trkpt><trkpt lat="43.8494510905646" lon="7.9542424688139"><ele>20.5</ele><time>2026-04-18T13:00:58Z</time></trkpt><trkpt lat="43.84954039974293" lon="7.954401304984514"><ele>23.75</ele><time>2026-04-18T13:00:59Z</time></trkpt><trkpt lat="43.84962970970761" lon="7.954560189792435"><ele>27.0</ele><time>2026-04-18T13:01:00Z</time></trkpt><trkpt lat="43.84971639511154" lon="7.954720120478115"><ele>27.0</ele><time>2026-04-18T13:01:01Z</time></trkpt><trkpt lat="43.84978962795043" lon="7.95488792197964"><ele>27.0</ele><time>2026-04-18T13:01:02Z</time></trkpt><trkpt lat="43.849863301795395" lon="7.955055117276918"><ele>27.0</ele><time>2026-04-18T13:01:03Z</time></trkpt><trkpt lat="43.84993789601452" lon="7.955217797875007"><ele>27.0</ele><time>2026-04-18T13:01:04Z</time></trkpt><trkpt lat="43.850016737026934" lon="7.9553757671277845"><ele>23.5</ele><time>2026-04-18T13:01:05Z</time></trkpt><trkpt lat="43.850091986866275" lon="7.955530246284073"><ele>20.0</ele><time>2026-04-18T13:01:06Z</time></trkpt><trkpt lat="43.85016653921587" lon="7.955677810799757"><ele>16.5</ele><time>2026-04-18T13:01:07Z</time></trkpt><trkpt lat="43.8502308013021" lon="7.955822714449006"><ele>13.0</ele><time>2026-04-18T13:01:08Z</time></trkpt><trkpt lat="43.850284336561025" lon="7.955976924292613"><ele>20.5</ele><time>2026-04-18T13:01:09Z</time></trkpt><trkpt lat="43.850323314693824" lon="7.95613699550903"><ele>28.0</ele><time>2026-04-18T13:01:10Z</time></trkpt><trkpt lat="43.85035780342598" lon="7.9563022886008286"><ele>35.5</ele><time>2026-04-18T13:01:11Z</time></trkpt><trkpt lat="43.85038291164146" lon="7.956474464272517"><ele>43.0</ele><time>2026-04-18T13:01:12Z</time></trkpt><trkpt lat="43.85040203627437" lon="7.956650368903486"><ele>41.5</ele><time>2026-04-18T13:01:13Z</time></trkpt><trkpt lat="43.850417310934034" lon="7.956828252299127"><ele>40.0</ele><time>2026-04-18T13:01:14Z</time></trkpt><trkpt lat="43.85043926870301" lon="7.957005454095724"><ele>38.5</ele><time>2026-04-18T13:01:15Z</time></trkpt><trkpt lat="43.85045926066906" lon="7.957177463505908"><ele>37.0</ele><time>2026-04-18T13:01:16Z</time></trkpt><trkpt lat="43.85047503762786" lon="7.957350577614268"><ele>37.0</ele><time>2026-04-18T13:01:17Z</time></trkpt><trkpt lat="43.8504909093736" lon="7.95752613001557"><ele>37.0</ele><time>2026-04-18T13:01:18Z</time></trkpt><trkpt lat="43.85050276042862" lon="7.957705033560304"><ele>37.0</ele><time>2026-04-18T13:01:19Z</time></trkpt><trkpt lat="43.850518389841" lon="7.957885130102709"><ele>37.0</ele><time>2026-04-18T13:01:20Z</time></trkpt><trkpt lat="43.85053421130778" lon="7.9580597541003675"><ele>35.0</ele><time>2026-04-18T13:01:21Z</time></trkpt><trkpt lat="43.85054744250605" lon="7.958239105189128"><ele>33.0</ele><time>2026-04-18T13:01:22Z</time></trkpt><trkpt lat="43.85055620129008" lon="7.958414860359319"><ele>31.0</ele><time>2026-04-18T13:01:23Z</time></trkpt><trkpt lat="43.850571864387156" lon="7.958596282482562"><ele>29.0</ele><time>2026-04-18T13:01:24Z</time></trkpt><trkpt lat="43.85058994167359" lon="7.958781472565132"><ele>27.0</ele><time>2026-04-18T13:01:25Z</time></trkpt><trkpt lat="43.85061698242614" lon="7.958963504662319"><ele>25.0</ele><time>2026-04-18T13:01:26Z</time></trkpt><trkpt lat="43.850648225230294" lon="7.959145657178377"><ele>23.0</ele><time>2026-04-18T13:01:27Z</time></trkpt><trkpt lat="43.85068867803313" lon="7.959329821746268"><ele>21.0</ele><time>2026-04-18T13:01:28Z</time></trkpt><trkpt lat="43.85073047298153" lon="7.959508232758523"><ele>19.25</ele><time>2026-04-18T13:01:29Z</time></trkpt><trkpt lat="43.850778348168475" lon="7.959690311809755"><ele>17.5</ele><time>2026-04-18T13:01:30Z</time></trkpt><trkpt lat="43.85082486390565" lon="7.959871369654647"><ele>15.75</ele><time>2026-04-18T13:01:31Z</time></trkpt><trkpt lat="43.850880309612165" lon="7.9600518038141095"><ele>14.0</ele><time>2026-04-18T13:01:32Z</time></trkpt><trkpt lat="43.850938260495425" lon="7.960223324964654"><ele>17.75</ele><time>2026-04-18T13:01:33Z</time></trkpt><trkpt lat="43.85099849009308" lon="7.960381870920935"><ele>21.5</ele><time>2026-04-18T13:01:34Z</time></trkpt><trkpt lat="43.85106232967779" lon="7.9605316551594925"><ele>25.25</ele><time>2026-04-18T13:01:35Z</time></trkpt><trkpt lat="43.85112452756563" lon="7.960671025831382"><ele>29.0</ele><time>2026-04-18T13:01:36Z</time></trkpt><trkpt lat="43.851195387342685" lon="7.960809065236538"><ele>26.25</ele><time>2026-04-18T13:01:37Z</time></trkpt><trkpt lat="43.85126892361461" lon="7.9609488272405455"><ele>23.5</ele><time>2026-04-18T13:01:38Z</time></trkpt><trkpt lat="43.85132685305777" lon="7.961097737468882"><ele>20.75</ele><time>2026-04-18T13:01:39Z</time></trkpt><trkpt lat="43.85140093188706" lon="7.961235508238458"><ele>18.0</ele><time>2026-04-18T13:01:40Z</time></trkpt><trkpt lat="43.85148131751694" lon="7.961371949550517"><ele>18.0</ele><time>2026-04-18T13:01:41Z</time></trkpt><trkpt lat="43.85155813993029" lon="7.9615060308879855"><ele>18.0</ele><time>2026-04-18T13:01:42Z</time></trkpt><trkpt lat="43.851636778440174" lon="7.961638988792646"><ele>18.0</ele><time>2026-04-18T13:01:43Z</time></trkpt><trkpt lat="43.851709131547985" lon="7.961771738787342"><ele>18.0</ele><time>2026-04-18T13:01:44Z</time></trkpt><trkpt lat="43.85178866001916" lon="7.961903885011224"><ele>17.75</ele><time>2026-04-18T13:01:45Z</time></trkpt><trkpt lat="43.851867487926675" lon="7.962033342738905"><ele>17.5</ele><time>2026-04-18T13:01:46Z</time></trkpt><trkpt lat="43.85193909514369" lon="7.962162322850559"><ele>17.25</ele><time>2026-04-18T13:01:47Z</time></trkpt><trkpt lat="43.8520127471721" lon="7.962279489631742"><ele>17.0</ele><time>2026-04-18T13:01:48Z</time></trkpt><trkpt lat="43.852087135604" lon="7.962388583267509"><ele>17.0</ele><time>2026-04-18T13:01:49Z</time></trkpt><trkpt lat="43.852157530821906" lon="7.9624961734265165"><ele>17.0</ele><time>2026-04-18T13:01:50Z</time></trkpt><trkpt lat="43.85222174211705" lon="7.96258589721359"><ele>17.0</ele><time>2026-04-18T13:01:51Z</time></trkpt><trkpt lat="43.85228748617593" lon="7.962683647240571"><ele>17.0</ele><time>2026-04-18T13:01:52Z</time></trkpt><trkpt lat="43.85235503493523" lon="7.962768309984704"><ele>17.0</ele><time>2026-04-18T13:01:53Z</time></trkpt><trkpt lat="43.852425742248705" lon="7.9628148566980075"><ele>15.833333333333334</ele><time>2026-04-18T13:01:54Z</time></trkpt><trkpt lat="43.85250613948304" lon="7.962836155446713"><ele>14.666666666666668</ele><time>2026-04-18T13:01:55Z</time></trkpt><trkpt lat="43.852577195163676" lon="7.962854945915011"><ele>13.5</ele><time>2026-04-18T13:01:56Z</time></trkpt><trkpt lat="43.85264382828907" lon="7.962869672782634"><ele>12.333333333333334</ele><time>2026-04-18T13:01:57Z</time></trkpt><trkpt lat="43.85275865958792" lon="7.962900743693093"><ele>11.166666666666668</ele><time>2026-04-18T13:01:59Z</time></trkpt><trkpt lat="43.85282144749982" lon="7.962914105395216"><ele>10.0</ele><time>2026-04-18T13:02:00Z</time></trkpt><trkpt lat="43.8529330662746" lon="7.9629393798182315"><ele>10.0</ele><time>2026-04-18T13:02:02Z</time></trkpt><trkpt lat="43.85303824506598" lon="7.962963824301854"><ele>10.0</ele><time>2026-04-18T13:02:04Z</time></trkpt><trkpt lat="43.85315067179704" lon="7.9630185527926765"><ele>10.0</ele><time>2026-04-18T13:02:06Z</time></trkpt><trkpt lat="43.85325584484522" lon="7.963085247237985"><ele>10.0</ele><time>2026-04-18T13:02:08Z</time></trkpt><trkpt lat="43.85333062263568" lon="7.963213514850098"><ele>10.0</ele><time>2026-04-18T13:02:10Z</time></trkpt><trkpt lat="43.853353096567304" lon="7.963295846986878"><ele>10.0</ele><time>2026-04-18T13:02:11Z</time></trkpt><trkpt lat="43.8533685114716" lon="7.963384783625399"><ele>10.0</ele><time>2026-04-18T13:02:12Z</time></trkpt><trkpt lat="43.853382511817436" lon="7.963479464347547"><ele>10.0</ele><time>2026-04-18T13:02:13Z</time></trkpt><trkpt lat="43.853395958995776" lon="7.963569820030336"><ele>10.0</ele><time>2026-04-18T13:02:14Z</time></trkpt><trkpt lat="43.85341318388152" lon="7.963685637694014"><ele>10.0</ele><time>2026-04-18T13:02:16Z</time></trkpt><trkpt lat="43.85342355489258" lon="7.963776817790026"><ele>10.0</ele><time>2026-04-18T13:02:18Z</time></trkpt><trkpt lat="43.85341963861656" lon="7.963870791708703"><ele>10.0</ele><time>2026-04-18T13:02:21Z</time></trkpt><trkpt lat="43.85342873515053" lon="7.963960237760243"><ele>10.0</ele><time>2026-04-18T13:03:17.001Z</time></trkpt><trkpt lat="43.853439631913716" lon="7.964075870125411"><ele>10.0</ele><time>2026-04-18T13:03:19.001Z</time></trkpt><trkpt lat="43.85344811802476" lon="7.964164974390575"><ele>10.0</ele><time>2026-04-18T13:03:20Z</time></trkpt><trkpt lat="43.85345603189532" lon="7.964254943173077"><ele>10.0</ele><time>2026-04-18T13:03:21Z</time></trkpt><trkpt lat="43.85346661748129" lon="7.964385720094317"><ele>10.0</ele><time>2026-04-18T13:03:22Z</time></trkpt><trkpt lat="43.85347517834564" lon="7.964560432144786"><ele>10.75</ele><time>2026-04-18T13:03:23Z</time></trkpt><trkpt lat="43.85349188691904" lon="7.964732761315348"><ele>11.5</ele><time>2026-04-18T13:03:24Z</time></trkpt><trkpt lat="43.85352819272358" lon="7.9648764635322555"><ele>12.25</ele><time>2026-04-18T13:03:25Z</time></trkpt><trkpt lat="43.85355754294993" lon="7.965032271967626"><ele>13.0</ele><time>2026-04-18T13:03:26Z</time></trkpt><trkpt lat="43.85361808547671" lon="7.965167950720676"><ele>13.0</ele><time>2026-04-18T13:03:27Z</time></trkpt><trkpt lat="43.85370442968545" lon="7.965286897203146"><ele>13.0</ele><time>2026-04-18T13:03:28Z</time></trkpt><trkpt lat="43.85380152952435" lon="7.96538379462387"><ele>13.0</ele><time>2026-04-18T13:03:29Z</time></trkpt><trkpt lat="43.85389962563244" lon="7.965480489305027"><ele>13.0</ele><time>2026-04-18T13:03:30Z</time></trkpt><trkpt lat="43.85399306140667" lon="7.965567863718684"><ele>13.0</ele><time>2026-04-18T13:03:31Z</time></trkpt><trkpt lat="43.85408265785717" lon="7.965655130883255"><ele>13.0</ele><time>2026-04-18T13:03:32Z</time></trkpt><trkpt lat="43.854174055800684" lon="7.965728585935146"><ele>13.0</ele><time>2026-04-18T13:03:33Z</time></trkpt><trkpt lat="43.85426751840108" lon="7.965794479842516"><ele>13.0</ele><time>2026-04-18T13:03:34Z</time></trkpt><trkpt lat="43.85436922629919" lon="7.965873822419541"><ele>13.0</ele><time>2026-04-18T13:03:35Z</time></trkpt><trkpt lat="43.854475046962115" lon="7.96595119731601"><ele>12.0</ele><time>2026-04-18T13:03:36Z</time></trkpt><trkpt lat="43.85459425939754" lon="7.9660186088028535"><ele>11.0</ele><time>2026-04-18T13:03:37Z</time></trkpt><trkpt lat="43.85471415952554" lon="7.966090290539298"><ele>10.0</ele><time>2026-04-18T13:03:38Z</time></trkpt><trkpt lat="43.854843386689204" lon="7.966153181999992"><ele>9.0</ele><time>2026-04-18T13:03:39Z</time></trkpt><trkpt lat="43.85497831717067" lon="7.966205453265839"><ele>9.0</ele><time>2026-04-18T13:03:40Z</time></trkpt><trkpt lat="43.855112136968984" lon="7.966264125160079"><ele>9.0</ele><time>2026-04-18T13:03:41Z</time></trkpt><trkpt lat="43.85525560775659" lon="7.966317962607248"><ele>9.0</ele><time>2026-04-18T13:03:42Z</time></trkpt><trkpt lat="43.855406567831814" lon="7.966373878960502"><ele>9.0</ele><time>2026-04-18T13:03:43Z</time></trkpt><trkpt lat="43.85555637517488" lon="7.966426626677093"><ele>10.666666666666668</ele><time>2026-04-18T13:03:44Z</time></trkpt><trkpt lat="43.85569717228573" lon="7.966481204983934"><ele>12.333333333333334</ele><time>2026-04-18T13:03:45Z</time></trkpt><trkpt lat="43.855846556284746" lon="7.966532382156837"><ele>14.0</ele><time>2026-04-18T13:03:46Z</time></trkpt><trkpt lat="43.856003296530595" lon="7.966591492546305"><ele>16.0</ele><time>2026-04-18T13:03:47Z</time></trkpt><trkpt lat="43.85616799922896" lon="7.966644872730353"><ele>18.0</ele><time>2026-04-18T13:03:48Z</time></trkpt><trkpt lat="43.856337770948215" lon="7.966701976584442"><ele>20.0</ele><time>2026-04-18T13:03:49Z</time></trkpt><trkpt lat="43.8565098677319" lon="7.966763686400673"><ele>15.333333333333334</ele><time>2026-04-18T13:03:50Z</time></trkpt><trkpt lat="43.85667991469819" lon="7.966825030032332"><ele>10.666666666666668</ele><time>2026-04-18T13:03:51Z</time></trkpt><trkpt lat="43.856841957505004" lon="7.966878806862017"><ele>6.0</ele><time>2026-04-18T13:03:52Z</time></trkpt><trkpt lat="43.85700085863095" lon="7.966939556309017"><ele>6.0</ele><time>2026-04-18T13:03:53Z</time></trkpt><trkpt lat="43.85715791905652" lon="7.967001130037697"><ele>6.0</ele><time>2026-04-18T13:03:54Z</time></trkpt><trkpt lat="43.85731043871834" lon="7.967062740897919"><ele>6.0</ele><time>2026-04-18T13:03:55Z</time></trkpt><trkpt lat="43.857460799417346" lon="7.967127937265773"><ele>6.0</ele><time>2026-04-18T13:03:56Z</time></trkpt><trkpt lat="43.85760184670397" lon="7.967187032259503"><ele>6.0</ele><time>2026-04-18T13:03:57Z</time></trkpt><trkpt lat="43.857725804465474" lon="7.967237262275968"><ele>6.0</ele><time>2026-04-18T13:03:58Z</time></trkpt><trkpt lat="43.85783836671726" lon="7.96728186652603"><ele>6.0</ele><time>2026-04-18T13:03:59Z</time></trkpt><trkpt lat="43.85794286001981" lon="7.967328498943133"><ele>6.4</ele><time>2026-04-18T13:04:00Z</time></trkpt><trkpt lat="43.85805009732723" lon="7.967371436088904"><ele>6.8</ele><time>2026-04-18T13:04:01Z</time></trkpt><trkpt lat="43.85815337906839" lon="7.9674118559021405"><ele>7.200000000000001</ele><time>2026-04-18T13:04:02Z</time></trkpt><trkpt lat="43.85825235818973" lon="7.967450481938484"><ele>7.6000000000000005</ele><time>2026-04-18T13:04:03Z</time></trkpt><trkpt lat="43.858351714894404" lon="7.967485481090362"><ele>8.0</ele><time>2026-04-18T13:04:04Z</time></trkpt><trkpt lat="43.85845641176311" lon="7.967530087586374"><ele>8.0</ele><time>2026-04-18T13:04:05Z</time></trkpt><trkpt lat="43.85856029968613" lon="7.967580515779157"><ele>8.0</ele><time>2026-04-18T13:04:06Z</time></trkpt><trkpt lat="43.858664686867094" lon="7.967639440550637"><ele>8.0</ele><time>2026-04-18T13:04:07Z</time></trkpt><trkpt lat="43.85876868462004" lon="7.967696110183624"><ele>8.0</ele><time>2026-04-18T13:04:08Z</time></trkpt><trkpt lat="43.858878308907904" lon="7.967756473998562"><ele>8.0</ele><time>2026-04-18T13:04:09Z</time></trkpt><trkpt lat="43.85898825075609" lon="7.967813434540482"><ele>8.0</ele><time>2026-04-18T13:04:10Z</time></trkpt><trkpt lat="43.859102059726155" lon="7.967881955181217"><ele>8.0</ele><time>2026-04-18T13:04:11Z</time></trkpt><trkpt lat="43.859217434824075" lon="7.96796005263603"><ele>8.0</ele><time>2026-04-18T13:04:12Z</time></trkpt><trkpt lat="43.85933014571555" lon="7.968031859399349"><ele>8.0</ele><time>2026-04-18T13:04:13Z</time></trkpt><trkpt lat="43.85943396564542" lon="7.968107644988093"><ele>8.0</ele><time>2026-04-18T13:04:14Z</time></trkpt><trkpt lat="43.85953726994514" lon="7.968188720378228"><ele>8.0</ele><time>2026-04-18T13:04:15Z</time></trkpt><trkpt lat="43.85963979506976" lon="7.968279932218458"><ele>8.0</ele><time>2026-04-18T13:04:16Z</time></trkpt><trkpt lat="43.859737873369475" lon="7.968374548140289"><ele>8.0</ele><time>2026-04-18T13:04:17Z</time></trkpt><trkpt lat="43.85983167128025" lon="7.9684831343299996"><ele>8.0</ele><time>2026-04-18T13:04:18Z</time></trkpt><trkpt lat="43.85992329522726" lon="7.968592083003725"><ele>8.0</ele><time>2026-04-18T13:04:19Z</time></trkpt><trkpt lat="43.860012816449796" lon="7.968703904252974"><ele>8.0</ele><time>2026-04-18T13:04:20Z</time></trkpt><trkpt lat="43.86009882060742" lon="7.968815248263521"><ele>8.0</ele><time>2026-04-18T13:04:21Z</time></trkpt><trkpt lat="43.86018113925341" lon="7.968926856241241"><ele>8.0</ele><time>2026-04-18T13:04:22Z</time></trkpt><trkpt lat="43.86026072593763" lon="7.96904600149005"><ele>8.0</ele><time>2026-04-18T13:04:23Z</time></trkpt><trkpt lat="43.86033666473078" lon="7.969165916059145"><ele>8.0</ele><time>2026-04-18T13:04:24Z</time></trkpt><trkpt lat="43.86041653530645" lon="7.969283868571175"><ele>8.0</ele><time>2026-04-18T13:04:25Z</time></trkpt><trkpt lat="43.86049671840154" lon="7.969400323976433"><ele>8.0</ele><time>2026-04-18T13:04:26Z</time></trkpt><trkpt lat="43.860582432319006" lon="7.969517258164794"><ele>8.0</ele><time>2026-04-18T13:04:27Z</time></trkpt><trkpt lat="43.860662048276765" lon="7.969632686734421"><ele>8.0</ele><time>2026-04-18T13:04:28.001Z</time></trkpt><trkpt lat="43.86074264244661" lon="7.969751023914444"><ele>8.0</ele><time>2026-04-18T13:04:29.001Z</time></trkpt><trkpt lat="43.86080719831968" lon="7.969884507898636"><ele>8.0</ele><time>2026-04-18T13:04:30.001Z</time></trkpt><trkpt lat="43.86087541220469" lon="7.969995533493102"><ele>8.0</ele><time>2026-04-18T13:04:31.001Z</time></trkpt><trkpt lat="43.86093469190472" lon="7.9701122106748326"><ele>8.0</ele><time>2026-04-18T13:04:32.001Z</time></trkpt><trkpt lat="43.86099230460472" lon="7.97022562660616"><ele>8.0</ele><time>2026-04-18T13:04:33.001Z</time></trkpt><trkpt lat="43.861041432027704" lon="7.970350989902868"><ele>10.4</ele><time>2026-04-18T13:04:34.001Z</time></trkpt><trkpt lat="43.86109615000025" lon="7.970479569028166"><ele>12.8</ele><time>2026-04-18T13:04:35.001Z</time></trkpt><trkpt lat="43.8611508324181" lon="7.970612057108564"><ele>15.2</ele><time>2026-04-18T13:04:36.001Z</time></trkpt><trkpt lat="43.8612030063948" lon="7.970749855966356"><ele>17.6</ele><time>2026-04-18T13:04:37.001Z</time></trkpt><trkpt lat="43.861253241444416" lon="7.970880595406287"><ele>20.0</ele><time>2026-04-18T13:04:38.001Z</time></trkpt><trkpt lat="43.861299274129216" lon="7.971014230903684"><ele>20.0</ele><time>2026-04-18T13:04:39.001Z</time></trkpt><trkpt lat="43.861342684263036" lon="7.97114768082558"><ele>20.0</ele><time>2026-04-18T13:04:40.001Z</time></trkpt><trkpt lat="43.8613712403217" lon="7.9712937474312024"><ele>20.0</ele><time>2026-04-18T13:04:41.001Z</time></trkpt><trkpt lat="43.861395924155815" lon="7.971446706426216"><ele>20.0</ele><time>2026-04-18T13:04:42.001Z</time></trkpt><trkpt lat="43.861413116158474" lon="7.971600053222138"><ele>20.0</ele><time>2026-04-18T13:04:43.001Z</time></trkpt><trkpt lat="43.86144308782194" lon="7.97175195002221"><ele>20.0</ele><time>2026-04-18T13:04:44.001Z</time></trkpt><trkpt lat="43.861452890730355" lon="7.971910949822295"><ele>20.0</ele><time>2026-04-18T13:04:45.001Z</time></trkpt><trkpt lat="43.86145322100158" lon="7.972075404375036"><ele>20.0</ele><time>2026-04-18T13:04:46.001Z</time></trkpt><trkpt lat="43.861468725944775" lon="7.97223975732088"><ele>20.0</ele><time>2026-04-18T13:04:47.001Z</time></trkpt><trkpt lat="43.86147582176543" lon="7.972411673820394"><ele>19.75</ele><time>2026-04-18T13:04:48.001Z</time></trkpt><trkpt lat="43.8614834467102" lon="7.972587348573133"><ele>19.5</ele><time>2026-04-18T13:04:49.001Z</time></trkpt><trkpt lat="43.861503809564525" lon="7.972767630716957"><ele>19.25</ele><time>2026-04-18T13:04:50.001Z</time></trkpt><trkpt lat="43.86154658510054" lon="7.972950892223407"><ele>19.0</ele><time>2026-04-18T13:04:51.001Z</time></trkpt><trkpt lat="43.86160317413446" lon="7.973144298666925"><ele>19.0</ele><time>2026-04-18T13:04:52.001Z</time></trkpt><trkpt lat="43.86166605453215" lon="7.973329178696059"><ele>19.0</ele><time>2026-04-18T13:04:53.001Z</time></trkpt><trkpt lat="43.86173618579334" lon="7.9735228143492405"><ele>19.0</ele><time>2026-04-18T13:04:54.001Z</time></trkpt><trkpt lat="43.86179551298899" lon="7.973721664998547"><ele>21.333333333333332</ele><time>2026-04-18T13:04:55.001Z</time></trkpt><trkpt lat="43.861862394096384" lon="7.973920950121664"><ele>23.666666666666664</ele><time>2026-04-18T13:04:56.001Z</time></trkpt><trkpt lat="43.861945914976694" lon="7.974121734122995"><ele>26.0</ele><time>2026-04-18T13:04:57.001Z</time></trkpt><trkpt lat="43.86203861680806" lon="7.974289525367087"><ele>26.0</ele><time>2026-04-18T13:04:58.001Z</time></trkpt><trkpt lat="43.86212019003709" lon="7.974471058446006"><ele>26.0</ele><time>2026-04-18T13:04:59.001Z</time></trkpt><trkpt lat="43.86221455022574" lon="7.9746560058358344"><ele>26.0</ele><time>2026-04-18T13:05:00.001Z</time></trkpt><trkpt lat="43.86231367373245" lon="7.974835883105658"><ele>26.0</ele><time>2026-04-18T13:05:01.001Z</time></trkpt><trkpt lat="43.86242326588175" lon="7.975011763743365"><ele>26.0</ele><time>2026-04-18T13:05:02.001Z</time></trkpt><trkpt lat="43.862536852829024" lon="7.975186676891045"><ele>26.0</ele><time>2026-04-18T13:05:03.001Z</time></trkpt><trkpt lat="43.862645222974166" lon="7.975369002744379"><ele>30.666666666666664</ele><time>2026-04-18T13:05:04.001Z</time></trkpt><trkpt lat="43.86274789512567" lon="7.975541911247804"><ele>35.333333333333336</ele><time>2026-04-18T13:05:05.001Z</time></trkpt><trkpt lat="43.862840568739294" lon="7.975720257408989"><ele>40.0</ele><time>2026-04-18T13:05:06.001Z</time></trkpt><trkpt lat="43.862893522896854" lon="7.9759183711817085"><ele>40.0</ele><time>2026-04-18T13:05:07.001Z</time></trkpt><trkpt lat="43.86292005552408" lon="7.976127490978467"><ele>40.0</ele><time>2026-04-18T13:05:08.001Z</time></trkpt><trkpt lat="43.8629168616945" lon="7.976360277628941"><ele>40.0</ele><time>2026-04-18T13:05:09.001Z</time></trkpt><trkpt lat="43.862920991134075" lon="7.976602864380572"><ele>39.0</ele><time>2026-04-18T13:05:10.001Z</time></trkpt><trkpt lat="43.86294058664908" lon="7.976851216683192"><ele>38.0</ele><time>2026-04-18T13:05:11.001Z</time></trkpt><trkpt lat="43.86298066874067" lon="7.977125190133191"><ele>37.0</ele><time>2026-04-18T13:05:12.001Z</time></trkpt><trkpt lat="43.86302234755369" lon="7.97740928282031"><ele>35.66666666666667</ele><time>2026-04-18T13:05:13.001Z</time></trkpt><trkpt lat="43.86306497400655" lon="7.977698461290047"><ele>34.333333333333336</ele><time>2026-04-18T13:05:14.001Z</time></trkpt><trkpt lat="43.863101581538764" lon="7.977984610863793"><ele>33.0</ele><time>2026-04-18T13:05:15.001Z</time></trkpt><trkpt lat="43.86313607276434" lon="7.978271491949657"><ele>31.333333333333336</ele><time>2026-04-18T13:05:16.001Z</time></trkpt><trkpt lat="43.86316774463832" lon="7.978560763776376"><ele>29.666666666666668</ele><time>2026-04-18T13:05:17.001Z</time></trkpt><trkpt lat="43.863194160522234" lon="7.978848065402647"><ele>28.0</ele><time>2026-04-18T13:05:18.001Z</time></trkpt><trkpt lat="43.86323117117801" lon="7.979123837393978"><ele>24.333333333333336</ele><time>2026-04-18T13:05:19.001Z</time></trkpt><trkpt lat="43.863294051329035" lon="7.979385564994802"><ele>20.666666666666668</ele><time>2026-04-18T13:05:20.001Z</time></trkpt><trkpt lat="43.86337060493124" lon="7.97964008260369"><ele>17.0</ele><time>2026-04-18T13:05:21.001Z</time></trkpt><trkpt lat="43.863454166111815" lon="7.979899625376683"><ele>28.333333333333336</ele><time>2026-04-18T13:05:22.001Z</time></trkpt><trkpt lat="43.86353651437033" lon="7.980157144871467"><ele>39.666666666666664</ele><time>2026-04-18T13:05:23.001Z</time></trkpt><trkpt lat="43.863619467158266" lon="7.980416888856494"><ele>51.0</ele><time>2026-04-18T13:05:24.001Z</time></trkpt><trkpt lat="43.863700210631315" lon="7.980684348661041"><ele>47.333333333333336</ele><time>2026-04-18T13:05:25.001Z</time></trkpt><trkpt lat="43.86377641716505" lon="7.980963170915365"><ele>43.66666666666667</ele><time>2026-04-18T13:05:26Z</time></trkpt><trkpt lat="43.86384127488513" lon="7.981250771286158"><ele>40.0</ele><time>2026-04-18T13:05:27Z</time></trkpt><trkpt lat="43.86389732179481" lon="7.981543138916403"><ele>36.333333333333336</ele><time>2026-04-18T13:05:28Z</time></trkpt><trkpt lat="43.863941783153656" lon="7.981831475221543"><ele>32.666666666666664</ele><time>2026-04-18T13:05:29Z</time></trkpt><trkpt lat="43.863978488055835" lon="7.982103848930997"><ele>29.0</ele><time>2026-04-18T13:05:30Z</time></trkpt><trkpt lat="43.86401604155391" lon="7.982362187903501"><ele>25.0</ele><time>2026-04-18T13:05:31Z</time></trkpt><trkpt lat="43.8640668087446" lon="7.9826230417763995"><ele>21.0</ele><time>2026-04-18T13:05:32Z</time></trkpt><trkpt lat="43.86414478664194" lon="7.9828669057322115"><ele>17.0</ele><time>2026-04-18T13:05:33Z</time></trkpt><trkpt lat="43.864247660661064" lon="7.983086260460378"><ele>24.0</ele><time>2026-04-18T13:05:34Z</time></trkpt><trkpt lat="43.864358024272136" lon="7.98328692199757"><ele>31.0</ele><time>2026-04-18T13:05:35Z</time></trkpt><trkpt lat="43.86444666547962" lon="7.983482375620286"><ele>38.0</ele><time>2026-04-18T13:05:36Z</time></trkpt><trkpt lat="43.864509477209424" lon="7.983689374381931"><ele>38.33333333333333</ele><time>2026-04-18T13:05:37Z</time></trkpt><trkpt lat="43.86454528214578" lon="7.98388626721905"><ele>38.666666666666664</ele><time>2026-04-18T13:05:38Z</time></trkpt><trkpt lat="43.864552457278556" lon="7.984105591910369"><ele>39.0</ele><time>2026-04-18T13:05:39Z</time></trkpt><trkpt lat="43.864551234255536" lon="7.984359364217714"><ele>42.0</ele><time>2026-04-18T13:05:40Z</time></trkpt><trkpt lat="43.86456349426794" lon="7.984649311935338"><ele>45.0</ele><time>2026-04-18T13:05:41Z</time></trkpt><trkpt lat="43.864568948457766" lon="7.984941654031439"><ele>48.0</ele><time>2026-04-18T13:05:42Z</time></trkpt><trkpt lat="43.8645716540213" lon="7.985242257557653"><ele>49.0</ele><time>2026-04-18T13:05:43Z</time></trkpt><trkpt lat="43.864575964704386" lon="7.985555691250022"><ele>50.0</ele><time>2026-04-18T13:05:44Z</time></trkpt><trkpt lat="43.86458103973505" lon="7.9858656000535575"><ele>51.0</ele><time>2026-04-18T13:05:45Z</time></trkpt><trkpt lat="43.86458341999097" lon="7.986168612320855"><ele>51.0</ele><time>2026-04-18T13:05:46Z</time></trkpt><trkpt lat="43.864588732350924" lon="7.986468018363929"><ele>51.0</ele><time>2026-04-18T13:05:47Z</time></trkpt><trkpt lat="43.86459156088236" lon="7.986757344221785"><ele>51.0</ele><time>2026-04-18T13:05:48Z</time></trkpt><trkpt lat="43.86459876237988" lon="7.987049285922858"><ele>49.666666666666664</ele><time>2026-04-18T13:05:49Z</time></trkpt><trkpt lat="43.864604610138755" lon="7.987340587192919"><ele>48.33333333333333</ele><time>2026-04-18T13:05:50Z</time></trkpt><trkpt lat="43.864619570748225" lon="7.98764009203425"><ele>47.0</ele><time>2026-04-18T13:05:51Z</time></trkpt><trkpt lat="43.864649335492786" lon="7.987933618558853"><ele>44.33333333333333</ele><time>2026-04-18T13:05:52Z</time></trkpt><trkpt lat="43.86468271901526" lon="7.988222376709889"><ele>41.666666666666664</ele><time>2026-04-18T13:05:53Z</time></trkpt><trkpt lat="43.86470933818782" lon="7.988503360837346"><ele>39.0</ele><time>2026-04-18T13:05:54Z</time></trkpt><trkpt lat="43.864733281271675" lon="7.988772543226505"><ele>38.333333333333336</ele><time>2026-04-18T13:05:55Z</time></trkpt><trkpt lat="43.86476032205242" lon="7.9890277681332185"><ele>37.66666666666667</ele><time>2026-04-18T13:05:56Z</time></trkpt><trkpt lat="43.86478704805194" lon="7.989278408409008"><ele>37.0</ele><time>2026-04-18T13:05:57Z</time></trkpt><trkpt lat="43.86481198535418" lon="7.989524092106869"><ele>34.333333333333336</ele><time>2026-04-18T13:05:58Z</time></trkpt><trkpt lat="43.86484648725411" lon="7.989766190919165"><ele>31.666666666666664</ele><time>2026-04-18T13:05:59Z</time></trkpt><trkpt lat="43.86489046765013" lon="7.990016109652821"><ele>29.0</ele><time>2026-04-18T13:06:00Z</time></trkpt><trkpt lat="43.86492985134784" lon="7.990275337690887"><ele>26.333333333333332</ele><time>2026-04-18T13:06:01Z</time></trkpt><trkpt lat="43.864982799603865" lon="7.990533515917227"><ele>23.666666666666664</ele><time>2026-04-18T13:06:02Z</time></trkpt><trkpt lat="43.86502672428537" lon="7.9907968746103535"><ele>21.0</ele><time>2026-04-18T13:06:03Z</time></trkpt><trkpt lat="43.865067230598086" lon="7.9910641447202755"><ele>19.666666666666668</ele><time>2026-04-18T13:06:04Z</time></trkpt><trkpt lat="43.865108016998626" lon="7.991330661627757"><ele>18.333333333333336</ele><time>2026-04-18T13:06:05Z</time></trkpt><trkpt lat="43.865152639141286" lon="7.991589625801453"><ele>17.0</ele><time>2026-04-18T13:06:06Z</time></trkpt><trkpt lat="43.86520567894998" lon="7.991846398934887"><ele>23.333333333333336</ele><time>2026-04-18T13:06:07Z</time></trkpt><trkpt lat="43.86526813650395" lon="7.992095709742126"><ele>29.666666666666668</ele><time>2026-04-18T13:06:08Z</time></trkpt><trkpt lat="43.865342869599225" lon="7.992341764764441"><ele>36.0</ele><time>2026-04-18T13:06:09Z</time></trkpt><trkpt lat="43.865422576339455" lon="7.992580933208087"><ele>36.0</ele><time>2026-04-18T13:06:10Z</time></trkpt><trkpt lat="43.86551944221263" lon="7.99280384070287"><ele>36.0</ele><time>2026-04-18T13:06:11Z</time></trkpt><trkpt lat="43.86559822560024" lon="7.993017956246289"><ele>36.0</ele><time>2026-04-18T13:06:12Z</time></trkpt><trkpt lat="43.86567426199426" lon="7.993222746729969"><ele>31.666666666666668</ele><time>2026-04-18T13:06:13Z</time></trkpt><trkpt lat="43.86572071937609" lon="7.9934342839220855"><ele>27.333333333333336</ele><time>2026-04-18T13:06:14Z</time></trkpt><trkpt lat="43.86574091327306" lon="7.993649570848741"><ele>23.0</ele><time>2026-04-18T13:06:15Z</time></trkpt><trkpt lat="43.86575838307043" lon="7.993853039919124"><ele>23.0</ele><time>2026-04-18T13:06:16Z</time></trkpt><trkpt lat="43.865808659039004" lon="7.994053107486088"><ele>23.0</ele><time>2026-04-18T13:06:17Z</time></trkpt><trkpt lat="43.865889109987286" lon="7.994248550606185"><ele>23.0</ele><time>2026-04-18T13:06:18Z</time></trkpt><trkpt lat="43.86597282666513" lon="7.994437290841786"><ele>25.666666666666668</ele><time>2026-04-18T13:06:19Z</time></trkpt><trkpt lat="43.86605244212406" lon="7.994628996261449"><ele>28.333333333333336</ele><time>2026-04-18T13:06:20Z</time></trkpt><trkpt lat="43.86613457539669" lon="7.99481436416902"><ele>31.0</ele><time>2026-04-18T13:06:21Z</time></trkpt><trkpt lat="43.86621866443586" lon="7.9949824343513285"><ele>25.5</ele><time>2026-04-18T13:06:22Z</time></trkpt><trkpt lat="43.86631438073188" lon="7.9951309283858105"><ele>20.0</ele><time>2026-04-18T13:06:23Z</time></trkpt><trkpt lat="43.86642030271626" lon="7.995253390583569"><ele>14.5</ele><time>2026-04-18T13:06:24Z</time></trkpt><trkpt lat="43.866533286486984" lon="7.995352578461849"><ele>9.0</ele><time>2026-04-18T13:06:25Z</time></trkpt><trkpt lat="43.86665423637559" lon="7.995427129865596"><ele>9.0</ele><time>2026-04-18T13:06:26Z</time></trkpt><trkpt lat="43.86676620459702" lon="7.995503140049186"><ele>9.0</ele><time>2026-04-18T13:06:27Z</time></trkpt><trkpt lat="43.866857630527385" lon="7.99561872645018"><ele>9.0</ele><time>2026-04-18T13:06:28Z</time></trkpt><trkpt lat="43.866926230178755" lon="7.995766681401088"><ele>9.0</ele><time>2026-04-18T13:06:29Z</time></trkpt><trkpt lat="43.866983165140596" lon="7.99589599808057"><ele>10.833333333333334</ele><time>2026-04-18T13:06:30Z</time></trkpt><trkpt lat="43.86702567710882" lon="7.9960093591403405"><ele>12.666666666666668</ele><time>2026-04-18T13:06:31Z</time></trkpt><trkpt lat="43.867073757699096" lon="7.996104891990476"><ele>14.5</ele><time>2026-04-18T13:06:32Z</time></trkpt><trkpt lat="43.86711445906694" lon="7.996188978068781"><ele>16.333333333333336</ele><time>2026-04-18T13:06:33Z</time></trkpt><trkpt lat="43.86714610138747" lon="7.996270188969105"><ele>18.166666666666668</ele><time>2026-04-18T13:06:34Z</time></trkpt><trkpt lat="43.867209385168586" lon="7.996403262147193"><ele>20.0</ele><time>2026-04-18T13:06:36Z</time></trkpt><trkpt lat="43.86724360258948" lon="7.996482024631147"><ele>20.0</ele><time>2026-04-18T13:06:37Z</time></trkpt><trkpt lat="43.86727858523347" lon="7.996559639404411"><ele>20.0</ele><time>2026-04-18T13:06:38Z</time></trkpt><trkpt lat="43.867320627952616" lon="7.996653425813934"><ele>20.0</ele><time>2026-04-18T13:06:39Z</time></trkpt><trkpt lat="43.86736383225129" lon="7.996749969280723"><ele>20.0</ele><time>2026-04-18T13:06:40Z</time></trkpt><trkpt lat="43.867406239843625" lon="7.996844971608929"><ele>20.0</ele><time>2026-04-18T13:06:41Z</time></trkpt><trkpt lat="43.86745099095778" lon="7.996944933716818"><ele>20.0</ele><time>2026-04-18T13:06:42Z</time></trkpt><trkpt lat="43.867497543985" lon="7.997047683450005"><ele>19.666666666666668</ele><time>2026-04-18T13:06:43Z</time></trkpt><trkpt lat="43.867548432818566" lon="7.997146367892718"><ele>19.333333333333336</ele><time>2026-04-18T13:06:44Z</time></trkpt><trkpt lat="43.8675953507985" lon="7.997246022795916"><ele>19.0</ele><time>2026-04-18T13:06:45Z</time></trkpt><trkpt lat="43.86763041126618" lon="7.9973451857669815"><ele>18.666666666666668</ele><time>2026-04-18T13:06:46Z</time></trkpt><trkpt lat="43.86767077833663" lon="7.997440712716662"><ele>18.333333333333332</ele><time>2026-04-18T13:06:47Z</time></trkpt><trkpt lat="43.867716698599864" lon="7.997553942285255"><ele>18.0</ele><time>2026-04-18T13:06:49Z</time></trkpt><trkpt lat="43.86775736246488" lon="7.99763707426014"><ele>16.166666666666668</ele><time>2026-04-18T13:06:51Z</time></trkpt><trkpt lat="43.867810441483726" lon="7.997728174571923"><ele>14.333333333333334</ele><time>2026-04-18T13:06:54Z</time></trkpt><trkpt lat="43.86784978998782" lon="7.997834838243516"><ele>12.5</ele><time>2026-04-18T13:06:57Z</time></trkpt><trkpt lat="43.86789027494214" lon="7.9979033443218706"><ele>10.666666666666668</ele><time>2026-04-18T13:07:26.001Z</time></trkpt><trkpt lat="43.86792933836662" lon="7.997979327251834"><ele>8.833333333333334</ele><time>2026-04-18T13:07:28.001Z</time></trkpt><trkpt lat="43.86797882785282" lon="7.998083472797651"><ele>7.0</ele><time>2026-04-18T13:07:30.001Z</time></trkpt><trkpt lat="43.86800761643523" lon="7.998187215723909"><ele>7.000000000000001</ele><time>2026-04-18T13:07:32Z</time></trkpt><trkpt lat="43.86807856129473" lon="7.998308770161049"><ele>7.0</ele><time>2026-04-18T13:07:34Z</time></trkpt><trkpt lat="43.86811042097738" lon="7.998390617958358"><ele>7.0</ele><time>2026-04-18T13:07:35Z</time></trkpt><trkpt lat="43.86814562561199" lon="7.998480236362134"><ele>7.0</ele><time>2026-04-18T13:07:36Z</time></trkpt><trkpt lat="43.86818763250727" lon="7.998567806931128"><ele>7.000000000000001</ele><time>2026-04-18T13:07:37Z</time></trkpt><trkpt lat="43.868230219700195" lon="7.998660570030108"><ele>7.0</ele><time>2026-04-18T13:07:38Z</time></trkpt><trkpt lat="43.868269539651344" lon="7.998757865605024"><ele>6.428571428571429</ele><time>2026-04-18T13:07:39Z</time></trkpt><trkpt lat="43.868307538702354" lon="7.998850744721797"><ele>5.857142857142857</ele><time>2026-04-18T13:07:40Z</time></trkpt><trkpt lat="43.86834568995616" lon="7.9989413655747645"><ele>5.285714285714286</ele><time>2026-04-18T13:07:41Z</time></trkpt><trkpt lat="43.86838433652124" lon="7.999020814977328"><ele>4.714285714285714</ele><time>2026-04-18T13:07:42Z</time></trkpt><trkpt lat="43.86841983211524" lon="7.999100450662937"><ele>4.142857142857142</ele><time>2026-04-18T13:07:43Z</time></trkpt><trkpt lat="43.86845420087449" lon="7.999177185966796"><ele>3.571428571428571</ele><time>2026-04-18T13:07:44Z</time></trkpt><trkpt lat="43.868494695783184" lon="7.999272183792943"><ele>3.0</ele><time>2026-04-18T13:07:45Z</time></trkpt><trkpt lat="43.86853982900952" lon="7.999369397089846"><ele>3.0</ele><time>2026-04-18T13:07:46Z</time></trkpt><trkpt lat="43.868590331994746" lon="7.999468642623866"><ele>3.0</ele><time>2026-04-18T13:07:47Z</time></trkpt><trkpt lat="43.86863918981966" lon="7.999574465496149"><ele>3.0</ele><time>2026-04-18T13:07:48Z</time></trkpt><trkpt lat="43.86869096067472" lon="7.999687847447022"><ele>3.0</ele><time>2026-04-18T13:07:49Z</time></trkpt><trkpt lat="43.86874246946618" lon="7.999813398260179"><ele>3.0</ele><time>2026-04-18T13:07:50Z</time></trkpt><trkpt lat="43.86879808244589" lon="7.999942643107051"><ele>3.0</ele><time>2026-04-18T13:07:51Z</time></trkpt><trkpt lat="43.86885499833163" lon="8.000074574866407"><ele>3.0</ele><time>2026-04-18T13:07:52Z</time></trkpt><trkpt lat="43.868913921535515" lon="8.000203894273389"><ele>3.0</ele><time>2026-04-18T13:07:53Z</time></trkpt><trkpt lat="43.86898136543383" lon="8.000347325889415"><ele>3.0</ele><time>2026-04-18T13:07:54Z</time></trkpt><trkpt lat="43.86904529403244" lon="8.000484306838544"><ele>3.0</ele><time>2026-04-18T13:07:55Z</time></trkpt><trkpt lat="43.869104418625184" lon="8.000615955338388"><ele>3.0</ele><time>2026-04-18T13:07:56Z</time></trkpt><trkpt lat="43.86916529522767" lon="8.000750607667682"><ele>3.0</ele><time>2026-04-18T13:07:57Z</time></trkpt><trkpt lat="43.86922569171618" lon="8.000882800188963"><ele>3.0</ele><time>2026-04-18T13:07:58Z</time></trkpt><trkpt lat="43.86928664305717" lon="8.001013275278597"><ele>3.5999999999999996</ele><time>2026-04-18T13:07:59Z</time></trkpt><trkpt lat="43.86934489451208" lon="8.001143965665777"><ele>4.199999999999999</ele><time>2026-04-18T13:08:00Z</time></trkpt><trkpt lat="43.8694061021352" lon="8.001269233932327"><ele>4.8</ele><time>2026-04-18T13:08:01Z</time></trkpt><trkpt lat="43.86946548931774" lon="8.001393247237067"><ele>5.3999999999999995</ele><time>2026-04-18T13:08:02Z</time></trkpt><trkpt lat="43.86952282980029" lon="8.001515498767336"><ele>6.0</ele><time>2026-04-18T13:08:03Z</time></trkpt><trkpt lat="43.869575034440366" lon="8.00162819394016"><ele>5.8</ele><time>2026-04-18T13:08:04Z</time></trkpt><trkpt lat="43.869626772469644" lon="8.001737165379966"><ele>5.6</ele><time>2026-04-18T13:08:05Z</time></trkpt><trkpt lat="43.8696775729434" lon="8.001847892713092"><ele>5.4</ele><time>2026-04-18T13:08:06Z</time></trkpt><trkpt lat="43.869726945170605" lon="8.001955929938463"><ele>5.2</ele><time>2026-04-18T13:08:07Z</time></trkpt><trkpt lat="43.86977695321961" lon="8.002063562554758"><ele>5.0</ele><time>2026-04-18T13:08:08Z</time></trkpt><trkpt lat="43.86982694569077" lon="8.002163570809943"><ele>5.0</ele><time>2026-04-18T13:08:09Z</time></trkpt><trkpt lat="43.8698754656653" lon="8.002262471036662"><ele>5.0</ele><time>2026-04-18T13:08:10Z</time></trkpt><trkpt lat="43.86992202516056" lon="8.002357069166424"><ele>5.0</ele><time>2026-04-18T13:08:11Z</time></trkpt><trkpt lat="43.86997177167303" lon="8.002454730600261"><ele>5.0</ele><time>2026-04-18T13:08:12Z</time></trkpt><trkpt lat="43.87002537213419" lon="8.002549501594718"><ele>5.0</ele><time>2026-04-18T13:08:13Z</time></trkpt><trkpt lat="43.87008295327817" lon="8.002652065101454"><ele>5.0</ele><time>2026-04-18T13:08:14Z</time></trkpt><trkpt lat="43.87014427804068" lon="8.002758741688776"><ele>5.6</ele><time>2026-04-18T13:08:15Z</time></trkpt><trkpt lat="43.870195362681834" lon="8.002853602814435"><ele>6.2</ele><time>2026-04-18T13:08:16Z</time></trkpt><trkpt lat="43.87025932332534" lon="8.002971057424471"><ele>6.800000000000001</ele><time>2026-04-18T13:08:17Z</time></trkpt><trkpt lat="43.87032051468219" lon="8.003094166170834"><ele>7.4</ele><time>2026-04-18T13:08:18Z</time></trkpt><trkpt lat="43.87038250689796" lon="8.003221229143705"><ele>8.0</ele><time>2026-04-18T13:08:19Z</time></trkpt><trkpt lat="43.87044180048173" lon="8.003354744721344"><ele>9.25</ele><time>2026-04-18T13:08:20Z</time></trkpt><trkpt lat="43.87050777564053" lon="8.003489335324343"><ele>10.5</ele><time>2026-04-18T13:08:21Z</time></trkpt><trkpt lat="43.870576889223436" lon="8.003626572392179"><ele>11.75</ele><time>2026-04-18T13:08:22Z</time></trkpt><trkpt lat="43.87065270530201" lon="8.00375952688771"><ele>13.0</ele><time>2026-04-18T13:08:23Z</time></trkpt><trkpt lat="43.870727973399234" lon="8.003894515556706"><ele>13.0</ele><time>2026-04-18T13:08:24Z</time></trkpt><trkpt lat="43.87080812554429" lon="8.0040252926013"><ele>13.0</ele><time>2026-04-18T13:08:25Z</time></trkpt><trkpt lat="43.8708653092311" lon="8.004151025284704"><ele>13.0</ele><time>2026-04-18T13:08:26Z</time></trkpt><trkpt lat="43.87090860800416" lon="8.00428433439946"><ele>13.0</ele><time>2026-04-18T13:08:27Z</time></trkpt><trkpt lat="43.87092509760032" lon="8.004425226859588"><ele>13.0</ele><time>2026-04-18T13:08:28Z</time></trkpt><trkpt lat="43.87092276173872" lon="8.00456021680028"><ele>13.0</ele><time>2026-04-18T13:08:29Z</time></trkpt><trkpt lat="43.870895785165196" lon="8.004696983041285"><ele>13.0</ele><time>2026-04-18T13:08:30Z</time></trkpt><trkpt lat="43.87084640418587" lon="8.00483726192438"><ele>13.0</ele><time>2026-04-18T13:08:31Z</time></trkpt><trkpt lat="43.870793944653" lon="8.004999662084801"><ele>13.0</ele><time>2026-04-18T13:08:32Z</time></trkpt><trkpt lat="43.870731396556" lon="8.005144358574464"><ele>14.4</ele><time>2026-04-18T13:08:33Z</time></trkpt><trkpt lat="43.870674401193675" lon="8.00529042947764"><ele>15.8</ele><time>2026-04-18T13:08:34Z</time></trkpt><trkpt lat="43.87062564309163" lon="8.005419673117053"><ele>17.2</ele><time>2026-04-18T13:08:35Z</time></trkpt><trkpt lat="43.87057815788529" lon="8.005542672254673"><ele>18.6</ele><time>2026-04-18T13:08:36Z</time></trkpt><trkpt lat="43.87053109730128" lon="8.005664155979508"><ele>20.0</ele><time>2026-04-18T13:08:37Z</time></trkpt><trkpt lat="43.870484955542935" lon="8.005789028737986"><ele>21.4</ele><time>2026-04-18T13:08:38Z</time></trkpt><trkpt lat="43.87044304546575" lon="8.005910592948997"><ele>22.8</ele><time>2026-04-18T13:08:39Z</time></trkpt><trkpt lat="43.87040656287053" lon="8.006036160335494"><ele>24.200000000000003</ele><time>2026-04-18T13:08:40Z</time></trkpt><trkpt lat="43.87038303302283" lon="8.006165015412112"><ele>25.6</ele><time>2026-04-18T13:08:41Z</time></trkpt><trkpt lat="43.87037257801853" lon="8.006288255934942"><ele>27.0</ele><time>2026-04-18T13:08:42Z</time></trkpt><trkpt lat="43.87037745482074" lon="8.006407443013686"><ele>27.0</ele><time>2026-04-18T13:08:43Z</time></trkpt><trkpt lat="43.87039575458" lon="8.006530465237029"><ele>27.000000000000004</ele><time>2026-04-18T13:08:44Z</time></trkpt><trkpt lat="43.87043304716162" lon="8.006647338998375"><ele>27.000000000000004</ele><time>2026-04-18T13:08:45Z</time></trkpt><trkpt lat="43.87045545264597" lon="8.006775529795975"><ele>27.0</ele><time>2026-04-18T13:08:46Z</time></trkpt><trkpt lat="43.87052194772434" lon="8.006879203636213"><ele>27.0</ele><time>2026-04-18T13:08:47Z</time></trkpt><trkpt lat="43.87056912004744" lon="8.007002621579057"><ele>26.833333333333332</ele><time>2026-04-18T13:08:48Z</time></trkpt><trkpt lat="43.87063181867836" lon="8.007108105751884"><ele>26.666666666666664</ele><time>2026-04-18T13:08:49Z</time></trkpt><trkpt lat="43.87069512374553" lon="8.007201076522428"><ele>26.5</ele><time>2026-04-18T13:08:50Z</time></trkpt><trkpt lat="43.87074734256384" lon="8.00730413841514"><ele>26.333333333333332</ele><time>2026-04-18T13:08:51Z</time></trkpt><trkpt lat="43.870796817007275" lon="8.00739844797083"><ele>26.166666666666664</ele><time>2026-04-18T13:08:52Z</time></trkpt><trkpt lat="43.87084498233188" lon="8.00748839801395"><ele>26.0</ele><time>2026-04-18T13:08:53Z</time></trkpt><trkpt lat="43.87088648854846" lon="8.00757468650709"><ele>26.6</ele><time>2026-04-18T13:08:54Z</time></trkpt><trkpt lat="43.87092725689167" lon="8.007658424929529"><ele>27.200000000000003</ele><time>2026-04-18T13:08:55Z</time></trkpt><trkpt lat="43.87096755901362" lon="8.007740050421717"><ele>27.799999999999997</ele><time>2026-04-18T13:08:56Z</time></trkpt><trkpt lat="43.87100382196699" lon="8.007814368116104"><ele>28.4</ele><time>2026-04-18T13:08:57Z</time></trkpt><trkpt lat="43.871070823344915" lon="8.007961985249585"><ele>29.0</ele><time>2026-04-18T13:08:59Z</time></trkpt><trkpt lat="43.87113968284741" lon="8.008121910188414"><ele>28.999999999999996</ele><time>2026-04-18T13:09:01Z</time></trkpt><trkpt lat="43.87118105508425" lon="8.008219814630424"><ele>29.0</ele><time>2026-04-18T13:09:02Z</time></trkpt><trkpt lat="43.871221516487545" lon="8.008332210225205"><ele>29.0</ele><time>2026-04-18T13:09:03Z</time></trkpt><trkpt lat="43.87126605414463" lon="8.00843485893228"><ele>29.0</ele><time>2026-04-18T13:09:04Z</time></trkpt><trkpt lat="43.87131016371925" lon="8.008539906578779"><ele>28.999999999999996</ele><time>2026-04-18T13:09:05Z</time></trkpt><trkpt lat="43.871350135432834" lon="8.008644258571662"><ele>29.0</ele><time>2026-04-18T13:09:06Z</time></trkpt><trkpt lat="43.87139981219159" lon="8.008751106479851"><ele>26.599999999999998</ele><time>2026-04-18T13:09:07Z</time></trkpt><trkpt lat="43.87143794892355" lon="8.008853616541348"><ele>24.2</ele><time>2026-04-18T13:09:08Z</time></trkpt><trkpt lat="43.87148539999445" lon="8.00896978201932"><ele>21.799999999999997</ele><time>2026-04-18T13:09:09Z</time></trkpt><trkpt lat="43.87153163284093" lon="8.009091824391916"><ele>19.4</ele><time>2026-04-18T13:09:10Z</time></trkpt><trkpt lat="43.87158113712219" lon="8.009215645204366"><ele>17.0</ele><time>2026-04-18T13:09:11Z</time></trkpt><trkpt lat="43.87162626820387" lon="8.009335807190375"><ele>17.166666666666668</ele><time>2026-04-18T13:09:12Z</time></trkpt><trkpt lat="43.87167421920272" lon="8.00944931479426"><ele>17.333333333333336</ele><time>2026-04-18T13:09:13Z</time></trkpt><trkpt lat="43.87171841581833" lon="8.009554320829508"><ele>17.5</ele><time>2026-04-18T13:09:14Z</time></trkpt><trkpt lat="43.8717673909965" lon="8.009655285118171"><ele>17.666666666666668</ele><time>2026-04-18T13:09:15Z</time></trkpt><trkpt lat="43.871825970830976" lon="8.009749738248235"><ele>17.833333333333332</ele><time>2026-04-18T13:09:16.001Z</time></trkpt><trkpt lat="43.87189352309732" lon="8.009824562956316"><ele>18.0</ele><time>2026-04-18T13:09:17.001Z</time></trkpt><trkpt lat="43.87196956765933" lon="8.009878766435872"><ele>18.0</ele><time>2026-04-18T13:09:18.001Z</time></trkpt><trkpt lat="43.8720434216956" lon="8.00993459477067"><ele>18.0</ele><time>2026-04-18T13:09:19.001Z</time></trkpt><trkpt lat="43.87212563763099" lon="8.009998812258097"><ele>18.0</ele><time>2026-04-18T13:09:20.001Z</time></trkpt><trkpt lat="43.87219763826701" lon="8.010039929776282"><ele>18.0</ele><time>2026-04-18T13:09:21.001Z</time></trkpt><trkpt lat="43.87228023475718" lon="8.010093011932158"><ele>18.0</ele><time>2026-04-18T13:09:22.001Z</time></trkpt><trkpt lat="43.87234858338324" lon="8.01013707450059"><ele>18.0</ele><time>2026-04-18T13:09:23.001Z</time></trkpt><trkpt lat="43.87241274629171" lon="8.010169232672808"><ele>16.6</ele><time>2026-04-18T13:09:24.001Z</time></trkpt><trkpt lat="43.87246754659749" lon="8.010227490732367"><ele>15.200000000000001</ele><time>2026-04-18T13:09:25.001Z</time></trkpt><trkpt lat="43.87257505899573" lon="8.010288888969237"><ele>13.8</ele><time>2026-04-18T13:09:27.001Z</time></trkpt><trkpt lat="43.87263387128912" lon="8.010324161158701"><ele>12.4</ele><time>2026-04-18T13:09:28.001Z</time></trkpt><trkpt lat="43.87272727916697" lon="8.010386683376392"><ele>11.0</ele><time>2026-04-18T13:09:30.001Z</time></trkpt><trkpt lat="43.872846042919306" lon="8.010463415506262"><ele>11.0</ele><time>2026-04-18T13:09:32.001Z</time></trkpt><trkpt lat="43.87294912949445" lon="8.010540425507754"><ele>11.0</ele><time>2026-04-18T13:09:34.001Z</time></trkpt><trkpt lat="43.873017245201055" lon="8.010591589491447"><ele>11.0</ele><time>2026-04-18T13:09:35.001Z</time></trkpt><trkpt lat="43.87308477966731" lon="8.010675213241715"><ele>11.0</ele><time>2026-04-18T13:09:36.001Z</time></trkpt><trkpt lat="43.87313431248224" lon="8.010746293460825"><ele>11.0</ele><time>2026-04-18T13:09:37.001Z</time></trkpt><trkpt lat="43.87317183397866" lon="8.010837008436985"><ele>11.0</ele><time>2026-04-18T13:09:38Z</time></trkpt><trkpt lat="43.873196232096454" lon="8.010935814825629"><ele>10.5</ele><time>2026-04-18T13:09:39Z</time></trkpt><trkpt lat="43.87321315147865" lon="8.011029914190063"><ele>10.0</ele><time>2026-04-18T13:09:40Z</time></trkpt><trkpt lat="43.873232917526074" lon="8.011129314969066"><ele>9.5</ele><time>2026-04-18T13:09:41Z</time></trkpt><trkpt lat="43.87324953261654" lon="8.011217969011781"><ele>9.0</ele><time>2026-04-18T13:09:42Z</time></trkpt><trkpt lat="43.87328810142099" lon="8.01137164442541"><ele>8.5</ele><time>2026-04-18T13:09:44Z</time></trkpt><trkpt lat="43.87330970079471" lon="8.011454673637516"><ele>8.0</ele><time>2026-04-18T13:09:45Z</time></trkpt><trkpt lat="43.87334581099212" lon="8.011626356718137"><ele>8.857142857142858</ele><time>2026-04-18T13:09:47Z</time></trkpt><trkpt lat="43.8733697828632" lon="8.011723463598182"><ele>9.714285714285714</ele><time>2026-04-18T13:09:48Z</time></trkpt><trkpt lat="43.873394315085605" lon="8.011824949615747"><ele>10.571428571428571</ele><time>2026-04-18T13:09:49Z</time></trkpt><trkpt lat="43.87341721507874" lon="8.011930035745678"><ele>11.428571428571429</ele><time>2026-04-18T13:09:50Z</time></trkpt><trkpt lat="43.873431736155915" lon="8.01203365778402"><ele>12.285714285714285</ele><time>2026-04-18T13:09:51Z</time></trkpt><trkpt lat="43.87343060191233" lon="8.012132653214927"><ele>13.142857142857142</ele><time>2026-04-18T13:09:52Z</time></trkpt><trkpt lat="43.87343141362494" lon="8.012230534335876"><ele>14.0</ele><time>2026-04-18T13:09:53Z</time></trkpt><trkpt lat="43.873408006381226" lon="8.012328675664023"><ele>14.000000000000002</ele><time>2026-04-18T13:09:54Z</time></trkpt><trkpt lat="43.87336352470066" lon="8.0124018522012"><ele>14.0</ele><time>2026-04-18T13:09:55Z</time></trkpt><trkpt lat="43.87324839984393" lon="8.012454069459624"><ele>14.0</ele><time>2026-04-18T13:09:57Z</time></trkpt><trkpt lat="43.87315977630036" lon="8.012444048226985"><ele>14.0</ele><time>2026-04-18T13:09:58Z</time></trkpt><trkpt lat="43.87307810815069" lon="8.012437785035507"><ele>14.000000000000002</ele><time>2026-04-18T13:09:59Z</time></trkpt><trkpt lat="43.873000430111524" lon="8.012465572260673"><ele>14.0</ele><time>2026-04-18T13:10:00Z</time></trkpt><trkpt lat="43.87291083035862" lon="8.012490706349535"><ele>14.2</ele><time>2026-04-18T13:10:01Z</time></trkpt><trkpt lat="43.87281910215914" lon="8.012541851701679"><ele>14.399999999999999</ele><time>2026-04-18T13:10:02Z</time></trkpt><trkpt lat="43.87274467873429" lon="8.012615585469671"><ele>14.6</ele><time>2026-04-18T13:10:03Z</time></trkpt><trkpt lat="43.87267396294021" lon="8.012704767246326"><ele>14.8</ele><time>2026-04-18T13:10:04Z</time></trkpt><trkpt lat="43.87262043340599" lon="8.012815737026603"><ele>15.0</ele><time>2026-04-18T13:10:05Z</time></trkpt><trkpt lat="43.87258257404696" lon="8.012937963944433"><ele>15.0</ele><time>2026-04-18T13:10:06Z</time></trkpt><trkpt lat="43.872552793095196" lon="8.013065609361155"><ele>15.0</ele><time>2026-04-18T13:10:07Z</time></trkpt><trkpt lat="43.872528216403445" lon="8.013190408753662"><ele>15.0</ele><time>2026-04-18T13:10:08Z</time></trkpt><trkpt lat="43.87250253641887" lon="8.01331696626109"><ele>15.0</ele><time>2026-04-18T13:10:09Z</time></trkpt><trkpt lat="43.87247266888813" lon="8.013434103040177"><ele>15.0</ele><time>2026-04-18T13:10:10Z</time></trkpt><trkpt lat="43.872458184632606" lon="8.013534549109645"><ele>15.0</ele><time>2026-04-18T13:10:11Z</time></trkpt><trkpt lat="43.872444539595655" lon="8.013652525204975"><ele>16.0</ele><time>2026-04-18T13:10:12Z</time></trkpt><trkpt lat="43.87242769926173" lon="8.013764712885555"><ele>17.0</ele><time>2026-04-18T13:10:13Z</time></trkpt><trkpt lat="43.87241712343682" lon="8.013880897116461"><ele>18.0</ele><time>2026-04-18T13:10:14Z</time></trkpt><trkpt lat="43.87239175895334" lon="8.014006998025815"><ele>19.0</ele><time>2026-04-18T13:10:15Z</time></trkpt><trkpt lat="43.87239773020935" lon="8.014117902324305"><ele>20.0</ele><time>2026-04-18T13:10:16Z</time></trkpt><trkpt lat="43.872383399264336" lon="8.014235319691343"><ele>21.0</ele><time>2026-04-18T13:10:17Z</time></trkpt><trkpt lat="43.87236754982307" lon="8.014343431537208"><ele>21.333333333333332</ele><time>2026-04-18T13:10:18Z</time></trkpt><trkpt lat="43.87238644740731" lon="8.01444341256341"><ele>21.666666666666668</ele><time>2026-04-18T13:10:19Z</time></trkpt><trkpt lat="43.8723843850437" lon="8.014557246294963"><ele>22.0</ele><time>2026-04-18T13:10:20Z</time></trkpt><trkpt lat="43.87240119661605" lon="8.014659453991962"><ele>22.333333333333336</ele><time>2026-04-18T13:10:21Z</time></trkpt><trkpt lat="43.87242801932288" lon="8.014761402804266"><ele>22.666666666666668</ele><time>2026-04-18T13:10:22Z</time></trkpt><trkpt lat="43.87244777600949" lon="8.014867026007904"><ele>23.0</ele><time>2026-04-18T13:10:23Z</time></trkpt><trkpt lat="43.87246004354971" lon="8.014966137911127"><ele>22.666666666666668</ele><time>2026-04-18T13:10:24Z</time></trkpt><trkpt lat="43.87248382913001" lon="8.01505781934712"><ele>22.333333333333336</ele><time>2026-04-18T13:10:25Z</time></trkpt><trkpt lat="43.87249987457858" lon="8.015148831887585"><ele>22.0</ele><time>2026-04-18T13:10:26Z</time></trkpt><trkpt lat="43.872510270770725" lon="8.015240851975118"><ele>21.666666666666668</ele><time>2026-04-18T13:10:27Z</time></trkpt><trkpt lat="43.87253675692897" lon="8.015331695583956"><ele>21.333333333333332</ele><time>2026-04-18T13:10:28Z</time></trkpt><trkpt lat="43.87256977046991" lon="8.01541432962612"><ele>21.0</ele><time>2026-04-18T13:10:29Z</time></trkpt><trkpt lat="43.872637952399764" lon="8.015548262520536"><ele>28.5</ele><time>2026-04-18T13:10:31Z</time></trkpt><trkpt lat="43.872700018874255" lon="8.01566861141159"><ele>36.0</ele><time>2026-04-18T13:10:33Z</time></trkpt><trkpt lat="43.87277153191712" lon="8.015791796433716"><ele>43.5</ele><time>2026-04-18T13:10:35Z</time></trkpt><trkpt lat="43.87284779813233" lon="8.01591124886633"><ele>51.0</ele><time>2026-04-18T13:10:37Z</time></trkpt><trkpt lat="43.87293268801666" lon="8.016049538753267"><ele>51.0</ele><time>2026-04-18T13:10:39Z</time></trkpt><trkpt lat="43.87296380967989" lon="8.016126327292664"><ele>51.0</ele><time>2026-04-18T13:10:40Z</time></trkpt><trkpt lat="43.8730043656169" lon="8.016209939105591"><ele>51.0</ele><time>2026-04-18T13:10:41Z</time></trkpt><trkpt lat="43.87305015567092" lon="8.0162749162637"><ele>51.0</ele><time>2026-04-18T13:10:42Z</time></trkpt><trkpt lat="43.87310297546443" lon="8.016344999704936"><ele>51.0</ele><time>2026-04-18T13:10:43Z</time></trkpt><trkpt lat="43.87315083483982" lon="8.01642839795386"><ele>51.0</ele><time>2026-04-18T13:10:44Z</time></trkpt><trkpt lat="43.8732034282691" lon="8.016499109035435"><ele>51.0</ele><time>2026-04-18T13:10:45Z</time></trkpt><trkpt lat="43.87325873833051" lon="8.016574845267979"><ele>51.0</ele><time>2026-04-18T13:10:46Z</time></trkpt><trkpt lat="43.87332867971688" lon="8.016650400987139"><ele>51.0</ele><time>2026-04-18T13:10:47Z</time></trkpt><trkpt lat="43.87338535670024" lon="8.01672945493596"><ele>51.0</ele><time>2026-04-18T13:10:48Z</time></trkpt><trkpt lat="43.873453052318055" lon="8.016805775394971"><ele>51.0</ele><time>2026-04-18T13:10:49Z</time></trkpt><trkpt lat="43.873519208086826" lon="8.01687510225919"><ele>51.0</ele><time>2026-04-18T13:10:50Z</time></trkpt><trkpt lat="43.873574507158" lon="8.016946477893153"><ele>51.0</ele><time>2026-04-18T13:10:51Z</time></trkpt><trkpt lat="43.873618414506296" lon="8.017023575225508"><ele>50.57142857142857</ele><time>2026-04-18T13:10:52Z</time></trkpt><trkpt lat="43.87366464800356" lon="8.017096738092551"><ele>50.142857142857146</ele><time>2026-04-18T13:10:53Z</time></trkpt><trkpt lat="43.873714656099686" lon="8.017166660359788"><ele>49.71428571428571</ele><time>2026-04-18T13:10:54Z</time></trkpt><trkpt lat="43.87376214001037" lon="8.017234714654714"><ele>49.285714285714285</ele><time>2026-04-18T13:10:55Z</time></trkpt><trkpt lat="43.87381208292269" lon="8.017303969018702"><ele>48.857142857142854</ele><time>2026-04-18T13:10:56Z</time></trkpt><trkpt lat="43.87386596594843" lon="8.017370197235433"><ele>48.42857142857142</ele><time>2026-04-18T13:10:57Z</time></trkpt><trkpt lat="43.87391719549144" lon="8.01744004308846"><ele>48.0</ele><time>2026-04-18T13:10:58Z</time></trkpt><trkpt lat="43.87398057382297" lon="8.017523127508916"><ele>44.166666666666664</ele><time>2026-04-18T13:10:59Z</time></trkpt><trkpt lat="43.87403108210959" lon="8.017598756616321"><ele>40.333333333333336</ele><time>2026-04-18T13:11:00Z</time></trkpt><trkpt lat="43.874066665428195" lon="8.017682565908856"><ele>36.5</ele><time>2026-04-18T13:11:01Z</time></trkpt><trkpt lat="43.87409410486106" lon="8.017762408041165"><ele>32.66666666666667</ele><time>2026-04-18T13:11:02Z</time></trkpt><trkpt lat="43.87414690518819" lon="8.017897824056604"><ele>28.833333333333336</ele><time>2026-04-18T13:11:04Z</time></trkpt><trkpt lat="43.874207143841105" lon="8.018025956726165"><ele>25.0</ele><time>2026-04-18T13:11:06Z</time></trkpt><trkpt lat="43.87425285501559" lon="8.018093613941907"><ele>23.857142857142858</ele><time>2026-04-18T13:11:07Z</time></trkpt><trkpt lat="43.87430637783509" lon="8.01815776124536"><ele>22.714285714285715</ele><time>2026-04-18T13:11:08Z</time></trkpt><trkpt lat="43.874360401681045" lon="8.01823485679784"><ele>21.57142857142857</ele><time>2026-04-18T13:11:09Z</time></trkpt><trkpt lat="43.874420249342975" lon="8.018283097539559"><ele>20.42857142857143</ele><time>2026-04-18T13:11:10Z</time></trkpt><trkpt lat="43.87446418362371" lon="8.01834999636957"><ele>19.285714285714285</ele><time>2026-04-18T13:11:11Z</time></trkpt><trkpt lat="43.874521901727846" lon="8.018404162596187"><ele>18.142857142857142</ele><time>2026-04-18T13:11:12Z</time></trkpt><trkpt lat="43.8745779307235" lon="8.018449452186601"><ele>17.0</ele><time>2026-04-18T13:11:13Z</time></trkpt><trkpt lat="43.87464793981508" lon="8.018486910293264"><ele>17.0</ele><time>2026-04-18T13:11:14Z</time></trkpt><trkpt lat="43.874715738559665" lon="8.018497845793611"><ele>17.0</ele><time>2026-04-18T13:11:15Z</time></trkpt><trkpt lat="43.87478023298052" lon="8.018507408759296"><ele>17.0</ele><time>2026-04-18T13:11:16Z</time></trkpt><trkpt lat="43.87490425648837" lon="8.018525032995674"><ele>17.0</ele><time>2026-04-18T13:11:18Z</time></trkpt><trkpt lat="43.874969376149174" lon="8.018552165967579"><ele>17.0</ele><time>2026-04-18T13:11:19Z</time></trkpt><trkpt lat="43.875045303541995" lon="8.018565915819414"><ele>17.0</ele><time>2026-04-18T13:11:20Z</time></trkpt><trkpt lat="43.87511844736529" lon="8.018609455594236"><ele>16.4</ele><time>2026-04-18T13:11:21Z</time></trkpt><trkpt lat="43.875194824426075" lon="8.018656629155116"><ele>15.799999999999999</ele><time>2026-04-18T13:11:22Z</time></trkpt><trkpt lat="43.87526791567822" lon="8.018693778787954"><ele>15.2</ele><time>2026-04-18T13:11:23Z</time></trkpt><trkpt lat="43.875386497122385" lon="8.018760375501596"><ele>14.6</ele><time>2026-04-18T13:11:25Z</time></trkpt><trkpt lat="43.87544714410715" lon="8.018783802701904"><ele>14.0</ele><time>2026-04-18T13:11:26Z</time></trkpt><trkpt lat="43.875549855188886" lon="8.018853311758237"><ele>14.000000000000002</ele><time>2026-04-18T13:11:28Z</time></trkpt><trkpt lat="43.875649313650804" lon="8.018944598916013"><ele>14.0</ele><time>2026-04-18T13:11:30Z</time></trkpt><trkpt lat="43.87568453918036" lon="8.019019631732547"><ele>14.0</ele><time>2026-04-18T13:11:31Z</time></trkpt><trkpt lat="43.87574464726985" lon="8.019082655716561"><ele>14.0</ele><time>2026-04-18T13:11:33Z</time></trkpt><trkpt lat="43.8757976111678" lon="8.019159244991172"><ele>14.000000000000002</ele><time>2026-04-18T13:11:36.001Z</time></trkpt><trkpt lat="43.87583461861135" lon="8.019260688593459"><ele>14.0</ele><time>2026-04-18T13:11:39.001Z</time></trkpt><trkpt lat="43.87589758868493" lon="8.019323015185414"><ele>12.500000000000002</ele><time>2026-04-18T13:11:42.001Z</time></trkpt><trkpt lat="43.87596350127366" lon="8.019372113808656"><ele>11.0</ele><time>2026-04-18T13:11:43.999Z</time></trkpt><trkpt lat="43.87601808068268" lon="8.019415689714513"><ele>9.5</ele><time>2026-04-18T13:11:45.999Z</time></trkpt><trkpt lat="43.8760787151705" lon="8.019455287816685"><ele>8.0</ele><time>2026-04-18T13:11:47.999Z</time></trkpt><trkpt lat="43.87614425879254" lon="8.019462089452741"><ele>6.5</ele><time>2026-04-18T13:11:49.999Z</time></trkpt><trkpt lat="43.876226134007716" lon="8.01945692261695"><ele>5.0</ele><time>2026-04-18T13:11:51.999Z</time></trkpt><trkpt lat="43.87631742371597" lon="8.019408221392942"><ele>5.0</ele><time>2026-04-18T13:11:53.999Z</time></trkpt><trkpt lat="43.8764320005381" lon="8.01935046694639"><ele>5.0</ele><time>2026-04-18T13:11:55.999Z</time></trkpt><trkpt lat="43.87653579421988" lon="8.019286524686652"><ele>5.0</ele><time>2026-04-18T13:11:58Z</time></trkpt><trkpt lat="43.87663732124013" lon="8.019211919369997"><ele>5.0</ele><time>2026-04-18T13:12:00Z</time></trkpt><trkpt lat="43.87673455506602" lon="8.019125760318207"><ele>5.166666666666667</ele><time>2026-04-18T13:12:02Z</time></trkpt><trkpt lat="43.876794706028754" lon="8.019076318006391"><ele>5.333333333333334</ele><time>2026-04-18T13:12:04Z</time></trkpt><trkpt lat="43.876868849719" lon="8.01900169321488"><ele>5.5</ele><time>2026-04-18T13:12:08Z</time></trkpt><trkpt lat="43.876923163800605" lon="8.018952235546498"><ele>5.666666666666667</ele><time>2026-04-18T13:12:10Z</time></trkpt><trkpt lat="43.87699124633453" lon="8.018925168533896"><ele>5.833333333333333</ele><time>2026-04-18T13:12:12Z</time></trkpt><trkpt lat="43.877048888295015" lon="8.018857009531274"><ele>6.0</ele><time>2026-04-18T13:12:15Z</time></trkpt><trkpt lat="43.87714097427094" lon="8.018807968450329"><ele>6.0</ele><time>2026-04-18T13:12:24Z</time></trkpt><trkpt lat="43.87723102236384" lon="8.018727687260375"><ele>6.0</ele><time>2026-04-18T13:12:26Z</time></trkpt><trkpt lat="43.87733935307425" lon="8.01866861624042"><ele>6.0</ele><time>2026-04-18T13:12:28Z</time></trkpt><trkpt lat="43.87744986062991" lon="8.01861297650414"><ele>6.0</ele><time>2026-04-18T13:12:30Z</time></trkpt><trkpt lat="43.877570053873" lon="8.018601687558306"><ele>6.166666666666667</ele><time>2026-04-18T13:12:32Z</time></trkpt><trkpt lat="43.87767100417874" lon="8.018590654159349"><ele>6.333333333333334</ele><time>2026-04-18T13:12:34Z</time></trkpt><trkpt lat="43.87776222715786" lon="8.01858388266493"><ele>6.5</ele><time>2026-04-18T13:12:36Z</time></trkpt><trkpt lat="43.87783152451056" lon="8.018586064673816"><ele>6.666666666666667</ele><time>2026-04-18T13:12:38Z</time></trkpt><trkpt lat="43.87791269097614" lon="8.018581658733558"><ele>6.833333333333334</ele><time>2026-04-18T13:12:40Z</time></trkpt><trkpt lat="43.878010367383" lon="8.018565520812718"><ele>7.0</ele><time>2026-04-18T13:12:42Z</time></trkpt><trkpt lat="43.87810600537368" lon="8.018544113299356"><ele>7.000000000000001</ele><time>2026-04-18T13:12:44Z</time></trkpt><trkpt lat="43.878192076318484" lon="8.018540637952867"><ele>7.0</ele><time>2026-04-18T13:12:46Z</time></trkpt><trkpt lat="43.87826028770506" lon="8.018529196066803"><ele>7.0</ele><time>2026-04-18T13:12:48Z</time></trkpt><trkpt lat="43.878349983294946" lon="8.018536201764972"><ele>7.0</ele><time>2026-04-18T13:12:51Z</time></trkpt><trkpt lat="43.87845066108415" lon="8.018548819293887"><ele>7.000000000000001</ele><time>2026-04-18T13:12:53Z</time></trkpt><trkpt lat="43.87854878090017" lon="8.018573363837318"><ele>7.0</ele><time>2026-04-18T13:12:55Z</time></trkpt><trkpt lat="43.87864835157352" lon="8.018584969544092"><ele>7.3999999999999995</ele><time>2026-04-18T13:12:57Z</time></trkpt><trkpt lat="43.87875521079983" lon="8.018616695463"><ele>7.799999999999999</ele><time>2026-04-18T13:12:59Z</time></trkpt><trkpt lat="43.878880147225004" lon="8.018661236384492"><ele>8.2</ele><time>2026-04-18T13:13:01Z</time></trkpt><trkpt lat="43.878951374765876" lon="8.018700103821368"><ele>8.6</ele><time>2026-04-18T13:13:02Z</time></trkpt><trkpt lat="43.879024658493215" lon="8.018740518262517"><ele>9.0</ele><time>2026-04-18T13:13:03Z</time></trkpt><trkpt lat="43.879096353072335" lon="8.018784874572392"><ele>9.0</ele><time>2026-04-18T13:13:04Z</time></trkpt><trkpt lat="43.879157519911345" lon="8.018818714945633"><ele>9.0</ele><time>2026-04-18T13:13:05Z</time></trkpt><trkpt lat="43.87926930147065" lon="8.01888996449867"><ele>9.0</ele><time>2026-04-18T13:13:07Z</time></trkpt><trkpt lat="43.879330278923135" lon="8.01891887236452"><ele>9.0</ele><time>2026-04-18T13:13:08Z</time></trkpt><trkpt lat="43.87940280513667" lon="8.018931143113452"><ele>9.0</ele><time>2026-04-18T13:13:09Z</time></trkpt><trkpt lat="43.87948069094367" lon="8.018942406909956"><ele>9.0</ele><time>2026-04-18T13:13:10Z</time></trkpt><trkpt lat="43.879583575120584" lon="8.01898549046052"><ele>9.0</ele><time>2026-04-18T13:13:11Z</time></trkpt><trkpt lat="43.879681957345866" lon="8.01903489914275"><ele>9.0</ele><time>2026-04-18T13:13:12Z</time></trkpt><trkpt lat="43.87978738678348" lon="8.019086316162877"><ele>9.0</ele><time>2026-04-18T13:13:13Z</time></trkpt><trkpt lat="43.87988779210624" lon="8.019162260057648"><ele>9.0</ele><time>2026-04-18T13:13:14Z</time></trkpt><trkpt lat="43.8799980012188" lon="8.01921969413083"><ele>9.0</ele><time>2026-04-18T13:13:15Z</time></trkpt><trkpt lat="43.880103863036474" lon="8.019276864095874"><ele>11.25</ele><time>2026-04-18T13:13:16Z</time></trkpt><trkpt lat="43.88021226488173" lon="8.019337100220062"><ele>13.5</ele><time>2026-04-18T13:13:17Z</time></trkpt><trkpt lat="43.88032290561021" lon="8.019419192435354"><ele>15.75</ele><time>2026-04-18T13:13:18Z</time></trkpt><trkpt lat="43.88043178145275" lon="8.019513897513583"><ele>18.0</ele><time>2026-04-18T13:13:19Z</time></trkpt><trkpt lat="43.88053609005815" lon="8.019633676702526"><ele>18.0</ele><time>2026-04-18T13:13:20Z</time></trkpt><trkpt lat="43.880647790544494" lon="8.019756639855073"><ele>18.0</ele><time>2026-04-18T13:13:21Z</time></trkpt><trkpt lat="43.88074326730292" lon="8.019877913478595"><ele>18.0</ele><time>2026-04-18T13:13:22.001Z</time></trkpt><trkpt lat="43.88084420540441" lon="8.020004541279603"><ele>18.0</ele><time>2026-04-18T13:13:23.001Z</time></trkpt><trkpt lat="43.88093713723347" lon="8.020154225064342"><ele>19.666666666666668</ele><time>2026-04-18T13:13:24.001Z</time></trkpt><trkpt lat="43.88104772154974" lon="8.020290490783845"><ele>21.333333333333336</ele><time>2026-04-18T13:13:25.001Z</time></trkpt><trkpt lat="43.8811577970917" lon="8.020441092502105"><ele>23.0</ele><time>2026-04-18T13:13:26.001Z</time></trkpt><trkpt lat="43.881254066042914" lon="8.020597015995294"><ele>23.0</ele><time>2026-04-18T13:13:27.001Z</time></trkpt><trkpt lat="43.88134649709106" lon="8.020748259559545"><ele>23.0</ele><time>2026-04-18T13:13:28.001Z</time></trkpt><trkpt lat="43.881448501512814" lon="8.020923115995084"><ele>23.0</ele><time>2026-04-18T13:13:29.001Z</time></trkpt><trkpt lat="43.88156392505125" lon="8.021125253859335"><ele>22.666666666666668</ele><time>2026-04-18T13:13:30.001Z</time></trkpt><trkpt lat="43.881673577902475" lon="8.021335298532597"><ele>22.333333333333332</ele><time>2026-04-18T13:13:31.001Z</time></trkpt><trkpt lat="43.88176257155036" lon="8.02152697110659"><ele>22.0</ele><time>2026-04-18T13:13:32.001Z</time></trkpt><trkpt lat="43.88185045530741" lon="8.021717226663467"><ele>22.0</ele><time>2026-04-18T13:13:33.001Z</time></trkpt><trkpt lat="43.881926472133685" lon="8.021870876625087"><ele>22.0</ele><time>2026-04-18T13:13:34.001Z</time></trkpt><trkpt lat="43.88198164200533" lon="8.02201257572503"><ele>22.0</ele><time>2026-04-18T13:13:35.001Z</time></trkpt><trkpt lat="43.882023292753125" lon="8.022162492295513"><ele>22.0</ele><time>2026-04-18T13:13:36.001Z</time></trkpt><trkpt lat="43.88207473022864" lon="8.022312654755579"><ele>22.0</ele><time>2026-04-18T13:13:37.001Z</time></trkpt><trkpt lat="43.88211165993312" lon="8.022454362089873"><ele>22.0</ele><time>2026-04-18T13:13:38.001Z</time></trkpt><trkpt lat="43.882143617993265" lon="8.022591093258509"><ele>22.0</ele><time>2026-04-18T13:13:39.001Z</time></trkpt><trkpt lat="43.88218377310069" lon="8.022723307133004"><ele>22.0</ele><time>2026-04-18T13:13:40.001Z</time></trkpt><trkpt lat="43.882219657517375" lon="8.02286008138897"><ele>22.0</ele><time>2026-04-18T13:13:41.001Z</time></trkpt><trkpt lat="43.88226687326866" lon="8.023008509298512"><ele>21.5</ele><time>2026-04-18T13:13:42.001Z</time></trkpt><trkpt lat="43.88230645611155" lon="8.023149874011391"><ele>21.0</ele><time>2026-04-18T13:13:43.001Z</time></trkpt><trkpt lat="43.88234978688919" lon="8.023323075684333"><ele>20.5</ele><time>2026-04-18T13:13:44.001Z</time></trkpt><trkpt lat="43.88238625868161" lon="8.023496140382674"><ele>20.0</ele><time>2026-04-18T13:13:45.001Z</time></trkpt><trkpt lat="43.88242008153282" lon="8.023674925200556"><ele>19.0</ele><time>2026-04-18T13:13:46.001Z</time></trkpt><trkpt lat="43.88245973949465" lon="8.023847821799544"><ele>18.0</ele><time>2026-04-18T13:13:47.001Z</time></trkpt><trkpt lat="43.88249113491754" lon="8.0240231201016"><ele>17.0</ele><time>2026-04-18T13:13:48.001Z</time></trkpt><trkpt lat="43.88252252656002" lon="8.024182841069772"><ele>16.0</ele><time>2026-04-18T13:13:49.001Z</time></trkpt><trkpt lat="43.88256549775518" lon="8.024356194557479"><ele>18.75</ele><time>2026-04-18T13:13:49.999Z</time></trkpt><trkpt lat="43.882612930139814" lon="8.024523316204705"><ele>21.5</ele><time>2026-04-18T13:13:50.999Z</time></trkpt><trkpt lat="43.88265824167011" lon="8.024702152190377"><ele>24.25</ele><time>2026-04-18T13:13:51.999Z</time></trkpt><trkpt lat="43.88272354668214" lon="8.024868206561647"><ele>27.0</ele><time>2026-04-18T13:13:52.999Z</time></trkpt><trkpt lat="43.88278641211202" lon="8.02502821846985"><ele>27.0</ele><time>2026-04-18T13:13:53.999Z</time></trkpt><trkpt lat="43.882816675284545" lon="8.025198017023268"><ele>27.0</ele><time>2026-04-18T13:13:54.999Z</time></trkpt><trkpt lat="43.88289019606282" lon="8.02533779386762"><ele>27.0</ele><time>2026-04-18T13:13:55.999Z</time></trkpt><trkpt lat="43.882975708747715" lon="8.02547369368645"><ele>27.0</ele><time>2026-04-18T13:13:56.999Z</time></trkpt><trkpt lat="43.88304221743663" lon="8.025631359194907"><ele>27.0</ele><time>2026-04-18T13:13:57.999Z</time></trkpt><trkpt lat="43.88311174321459" lon="8.025779219138109"><ele>27.0</ele><time>2026-04-18T13:13:58.999Z</time></trkpt><trkpt lat="43.88319651482214" lon="8.025912714703972"><ele>27.0</ele><time>2026-04-18T13:13:59.999Z</time></trkpt><trkpt lat="43.883281853680735" lon="8.026039956088116"><ele>27.0</ele><time>2026-04-18T13:14:00.999Z</time></trkpt><trkpt lat="43.88336322982333" lon="8.026172003017974"><ele>25.75</ele><time>2026-04-18T13:14:01.999Z</time></trkpt><trkpt lat="43.88346572147302" lon="8.026297966754635"><ele>24.5</ele><time>2026-04-18T13:14:02.999Z</time></trkpt><trkpt lat="43.88357084303332" lon="8.026435650367056"><ele>23.25</ele><time>2026-04-18T13:14:03.999Z</time></trkpt><trkpt lat="43.88365608236561" lon="8.026551254035045"><ele>22.0</ele><time>2026-04-18T13:14:05Z</time></trkpt><trkpt lat="43.88375800394233" lon="8.026678708138473"><ele>22.0</ele><time>2026-04-18T13:14:06Z</time></trkpt><trkpt lat="43.88386189194392" lon="8.026789838662102"><ele>22.0</ele><time>2026-04-18T13:14:07Z</time></trkpt><trkpt lat="43.88396839245358" lon="8.026925328356404"><ele>22.0</ele><time>2026-04-18T13:14:08Z</time></trkpt><trkpt lat="43.884071284894794" lon="8.027055298969872"><ele>22.0</ele><time>2026-04-18T13:14:09Z</time></trkpt><trkpt lat="43.88416673825881" lon="8.027168854128277"><ele>22.5</ele><time>2026-04-18T13:14:10Z</time></trkpt><trkpt lat="43.88426858537714" lon="8.027285297097306"><ele>23.0</ele><time>2026-04-18T13:14:11Z</time></trkpt><trkpt lat="43.88436443806776" lon="8.027403482184244"><ele>23.5</ele><time>2026-04-18T13:14:12Z</time></trkpt><trkpt lat="43.88445415686121" lon="8.02753936419952"><ele>24.0</ele><time>2026-04-18T13:14:13Z</time></trkpt><trkpt lat="43.884540245614616" lon="8.027664976890554"><ele>24.0</ele><time>2026-04-18T13:14:14Z</time></trkpt><trkpt lat="43.88462247061944" lon="8.027799258719632"><ele>24.0</ele><time>2026-04-18T13:14:15Z</time></trkpt><trkpt lat="43.884699785606756" lon="8.027941726417739"><ele>24.0</ele><time>2026-04-18T13:14:16Z</time></trkpt><trkpt lat="43.884775422952" lon="8.028083326842951"><ele>24.0</ele><time>2026-04-18T13:14:17Z</time></trkpt><trkpt lat="43.88485189232964" lon="8.028226456846035"><ele>23.799999999999997</ele><time>2026-04-18T13:14:18Z</time></trkpt><trkpt lat="43.884918198866195" lon="8.028345590052771"><ele>23.599999999999998</ele><time>2026-04-18T13:14:19Z</time></trkpt><trkpt lat="43.88497489866584" lon="8.028473187656477"><ele>23.4</ele><time>2026-04-18T13:14:20Z</time></trkpt><trkpt lat="43.885035606042884" lon="8.028589166248075"><ele>23.2</ele><time>2026-04-18T13:14:21Z</time></trkpt><trkpt lat="43.885100150928956" lon="8.028693360338867"><ele>23.0</ele><time>2026-04-18T13:14:22Z</time></trkpt><trkpt lat="43.885153799063225" lon="8.028800193467644"><ele>23.0</ele><time>2026-04-18T13:14:23Z</time></trkpt><trkpt lat="43.885206732203514" lon="8.028903038788"><ele>23.0</ele><time>2026-04-18T13:14:24Z</time></trkpt><trkpt lat="43.885262360351206" lon="8.029013984342955"><ele>23.0</ele><time>2026-04-18T13:14:25Z</time></trkpt><trkpt lat="43.88531733824511" lon="8.029130961887436"><ele>23.0</ele><time>2026-04-18T13:14:26Z</time></trkpt><trkpt lat="43.88537105018439" lon="8.029244805748212"><ele>23.0</ele><time>2026-04-18T13:14:27Z</time></trkpt><trkpt lat="43.885428250582706" lon="8.029350022428696"><ele>21.666666666666668</ele><time>2026-04-18T13:14:28Z</time></trkpt><trkpt lat="43.88547824974652" lon="8.029453382246011"><ele>20.333333333333336</ele><time>2026-04-18T13:14:29Z</time></trkpt><trkpt lat="43.88552353099444" lon="8.029560727312367"><ele>19.0</ele><time>2026-04-18T13:14:30Z</time></trkpt><trkpt lat="43.885574310331926" lon="8.029663013120983"><ele>17.666666666666668</ele><time>2026-04-18T13:14:31Z</time></trkpt><trkpt lat="43.885622736060306" lon="8.029765480644567"><ele>16.333333333333332</ele><time>2026-04-18T13:14:32Z</time></trkpt><trkpt lat="43.88567471383771" lon="8.029868345172524"><ele>15.0</ele><time>2026-04-18T13:14:33Z</time></trkpt><trkpt lat="43.885723960165464" lon="8.029972081859789"><ele>15.4</ele><time>2026-04-18T13:14:34Z</time></trkpt><trkpt lat="43.88577484939358" lon="8.030076897515388"><ele>15.8</ele><time>2026-04-18T13:14:35Z</time></trkpt><trkpt lat="43.88582478470482" lon="8.030181809247564"><ele>16.2</ele><time>2026-04-18T13:14:36Z</time></trkpt><trkpt lat="43.88587587489612" lon="8.030284321438481"><ele>16.6</ele><time>2026-04-18T13:14:37Z</time></trkpt><trkpt lat="43.88592781299994" lon="8.030388356472045"><ele>17.0</ele><time>2026-04-18T13:14:38Z</time></trkpt><trkpt lat="43.8859783929392" lon="8.030502378652614"><ele>17.0</ele><time>2026-04-18T13:14:39Z</time></trkpt><trkpt lat="43.88603058318358" lon="8.030615288054689"><ele>17.0</ele><time>2026-04-18T13:14:40Z</time></trkpt><trkpt lat="43.8860864286902" lon="8.030722671181415"><ele>17.0</ele><time>2026-04-18T13:14:41Z</time></trkpt><trkpt lat="43.88614843455333" lon="8.030835837618874"><ele>17.0</ele><time>2026-04-18T13:14:42Z</time></trkpt><trkpt lat="43.88621206151651" lon="8.030959476936314"><ele>17.0</ele><time>2026-04-18T13:14:43Z</time></trkpt><trkpt lat="43.886284593602255" lon="8.031091071852522"><ele>15.0</ele><time>2026-04-18T13:14:44Z</time></trkpt><trkpt lat="43.886344058549135" lon="8.031223644110526"><ele>13.0</ele><time>2026-04-18T13:14:45Z</time></trkpt><trkpt lat="43.88640283021578" lon="8.031371854360449"><ele>11.0</ele><time>2026-04-18T13:14:46Z</time></trkpt><trkpt lat="43.88646544982273" lon="8.031521971040693"><ele>9.0</ele><time>2026-04-18T13:14:47Z</time></trkpt><trkpt lat="43.886526699043586" lon="8.031677665792689"><ele>8.5</ele><time>2026-04-18T13:14:48Z</time></trkpt><trkpt lat="43.88658373015669" lon="8.031837642850455"><ele>8.0</ele><time>2026-04-18T13:14:49Z</time></trkpt><trkpt lat="43.88663824091621" lon="8.03199412147997"><ele>7.5</ele><time>2026-04-18T13:14:50Z</time></trkpt><trkpt lat="43.88669262165159" lon="8.032152328809753"><ele>7.0</ele><time>2026-04-18T13:14:51Z</time></trkpt><trkpt lat="43.886741913264544" lon="8.03229420761066"><ele>7.5</ele><time>2026-04-18T13:14:52Z</time></trkpt><trkpt lat="43.88679572618602" lon="8.032465210987919"><ele>8.0</ele><time>2026-04-18T13:14:53Z</time></trkpt><trkpt lat="43.886843678964524" lon="8.032635040386712"><ele>8.5</ele><time>2026-04-18T13:14:54Z</time></trkpt><trkpt lat="43.88688591116735" lon="8.032817323721025"><ele>9.0</ele><time>2026-04-18T13:14:55Z</time></trkpt><trkpt lat="43.88692445201679" lon="8.032978388031724"><ele>9.0</ele><time>2026-04-18T13:14:56Z</time></trkpt><trkpt lat="43.88696996262622" lon="8.033148724339217"><ele>9.0</ele><time>2026-04-18T13:14:57Z</time></trkpt><trkpt lat="43.887010386931074" lon="8.033312752080235"><ele>9.0</ele><time>2026-04-18T13:14:58Z</time></trkpt><trkpt lat="43.88705638037122" lon="8.033470083742102"><ele>9.0</ele><time>2026-04-18T13:14:59Z</time></trkpt><trkpt lat="43.88710077370383" lon="8.033632935663261"><ele>9.25</ele><time>2026-04-18T13:15:00Z</time></trkpt><trkpt lat="43.88713711592065" lon="8.033793481881652"><ele>9.5</ele><time>2026-04-18T13:15:01Z</time></trkpt><trkpt lat="43.88717277183919" lon="8.033952618846158"><ele>9.75</ele><time>2026-04-18T13:15:02Z</time></trkpt><trkpt lat="43.887208326246636" lon="8.0341107699664"><ele>10.0</ele><time>2026-04-18T13:15:03Z</time></trkpt><trkpt lat="43.88724615403579" lon="8.034253790922795"><ele>9.5</ele><time>2026-04-18T13:15:04Z</time></trkpt><trkpt lat="43.887296877443134" lon="8.034407688359511"><ele>9.0</ele><time>2026-04-18T13:15:05Z</time></trkpt><trkpt lat="43.88733366135168" lon="8.034555867366157"><ele>8.5</ele><time>2026-04-18T13:15:06Z</time></trkpt><trkpt lat="43.88736971485189" lon="8.034702804924633"><ele>8.0</ele><time>2026-04-18T13:15:07Z</time></trkpt><trkpt lat="43.88740610791027" lon="8.034846386440096"><ele>8.0</ele><time>2026-04-18T13:15:08Z</time></trkpt><trkpt lat="43.88744295126671" lon="8.034984265723388"><ele>8.0</ele><time>2026-04-18T13:15:09Z</time></trkpt><trkpt lat="43.88748034280451" lon="8.035119949314907"><ele>8.0</ele><time>2026-04-18T13:15:10Z</time></trkpt><trkpt lat="43.88751851201626" lon="8.035266019691418"><ele>8.0</ele><time>2026-04-18T13:15:11Z</time></trkpt><trkpt lat="43.88755067400318" lon="8.03540396044953"><ele>8.0</ele><time>2026-04-18T13:15:12Z</time></trkpt><trkpt lat="43.887593915812865" lon="8.035540015059334"><ele>8.0</ele><time>2026-04-18T13:15:13Z</time></trkpt><trkpt lat="43.88762248339295" lon="8.035673346977505"><ele>8.0</ele><time>2026-04-18T13:15:14Z</time></trkpt><trkpt lat="43.88766577123574" lon="8.035815075324715"><ele>8.0</ele><time>2026-04-18T13:15:15Z</time></trkpt><trkpt lat="43.88770018192899" lon="8.03595559582333"><ele>8.0</ele><time>2026-04-18T13:15:16Z</time></trkpt><trkpt lat="43.88772992031687" lon="8.036100363365518"><ele>8.0</ele><time>2026-04-18T13:15:17Z</time></trkpt><trkpt lat="43.88776739962901" lon="8.036247678948829"><ele>7.6000000000000005</ele><time>2026-04-18T13:15:18Z</time></trkpt><trkpt lat="43.88781649834411" lon="8.036387848190962"><ele>7.200000000000001</ele><time>2026-04-18T13:15:19Z</time></trkpt><trkpt lat="43.88785973448433" lon="8.036540554782986"><ele>6.8</ele><time>2026-04-18T13:15:20Z</time></trkpt><trkpt lat="43.88789776039207" lon="8.036692029361065"><ele>6.4</ele><time>2026-04-18T13:15:21Z</time></trkpt><trkpt lat="43.8879366007014" lon="8.036824777175166"><ele>6.0</ele><time>2026-04-18T13:15:22Z</time></trkpt><trkpt lat="43.88796508907107" lon="8.036971320699271"><ele>6.0</ele><time>2026-04-18T13:15:23.001Z</time></trkpt><trkpt lat="43.88800140486843" lon="8.037119936604718"><ele>6.0</ele><time>2026-04-18T13:15:24.001Z</time></trkpt><trkpt lat="43.88803269235849" lon="8.037259726409966"><ele>6.0</ele><time>2026-04-18T13:15:25.001Z</time></trkpt><trkpt lat="43.88806172926172" lon="8.037398827165074"><ele>6.0</ele><time>2026-04-18T13:15:26.001Z</time></trkpt><trkpt lat="43.888092906345285" lon="8.037529913015291"><ele>6.0</ele><time>2026-04-18T13:15:27.001Z</time></trkpt><trkpt lat="43.888138528851236" lon="8.037649871159735"><ele>7.0</ele><time>2026-04-18T13:15:28.001Z</time></trkpt><trkpt lat="43.88814656474741" lon="8.037785381636194"><ele>8.0</ele><time>2026-04-18T13:15:29.001Z</time></trkpt><trkpt lat="43.88816514029859" lon="8.037903979843918"><ele>9.0</ele><time>2026-04-18T13:15:30.001Z</time></trkpt><trkpt lat="43.88818829484397" lon="8.038019550546815"><ele>10.0</ele><time>2026-04-18T13:15:31.001Z</time></trkpt><trkpt lat="43.888214409080554" lon="8.038168303954578"><ele>11.0</ele><time>2026-04-18T13:15:33.001Z</time></trkpt><trkpt lat="43.88823400143568" lon="8.038292458497747"><ele>11.166666666666666</ele><time>2026-04-18T13:15:35.001Z</time></trkpt><trkpt lat="43.888251454885776" lon="8.03838750404609"><ele>11.333333333333332</ele><time>2026-04-18T13:15:38.001Z</time></trkpt><trkpt lat="43.88826737855172" lon="8.038480632109486"><ele>11.5</ele><time>2026-04-18T13:15:40.001Z</time></trkpt><trkpt lat="43.888267469245584" lon="8.038573167559136"><ele>11.666666666666666</ele><time>2026-04-18T13:15:42.001Z</time></trkpt><trkpt lat="43.88827095773735" lon="8.038664780184615"><ele>11.833333333333334</ele><time>2026-04-18T13:15:44.001Z</time></trkpt><trkpt lat="43.88815670748171" lon="8.038722842550523"><ele>12.0</ele><time>2026-04-18T13:15:45.001Z</time></trkpt><trkpt lat="43.88809021517113" lon="8.038771492936243"><ele>12.0</ele><time>2026-04-18T13:15:46.001Z</time></trkpt><trkpt lat="43.888011883354224" lon="8.03880778411574"><ele>12.0</ele><time>2026-04-18T13:15:47.001Z</time></trkpt><trkpt lat="43.887925649358955" lon="8.038854754653874"><ele>12.0</ele><time>2026-04-18T13:15:48.001Z</time></trkpt><trkpt lat="43.88782682561924" lon="8.038917549235961"><ele>12.0</ele><time>2026-04-18T13:15:49.001Z</time></trkpt><trkpt lat="43.88772244653038" lon="8.038966712516343"><ele>12.0</ele><time>2026-04-18T13:15:50.001Z</time></trkpt><trkpt lat="43.88761961616309" lon="8.039014013407646"><ele>12.0</ele><time>2026-04-18T13:15:51.001Z</time></trkpt><trkpt lat="43.887515399607814" lon="8.039063018560368"><ele>12.0</ele><time>2026-04-18T13:15:52.001Z</time></trkpt><trkpt lat="43.887421051314504" lon="8.03911201674932"><ele>12.0</ele><time>2026-04-18T13:15:53.001Z</time></trkpt><trkpt lat="43.88733946985074" lon="8.039148259718653"><ele>12.0</ele><time>2026-04-18T13:15:54.001Z</time></trkpt><trkpt lat="43.88726173257717" lon="8.03917546411462"><ele>12.0</ele><time>2026-04-18T13:15:55.001Z</time></trkpt><trkpt lat="43.8871940801855" lon="8.039214933476256"><ele>11.6</ele><time>2026-04-18T13:15:55.999Z</time></trkpt><trkpt lat="43.88712905645025" lon="8.03927734727485"><ele>11.2</ele><time>2026-04-18T13:15:56.999Z</time></trkpt><trkpt lat="43.887058925909585" lon="8.039362292955204"><ele>10.8</ele><time>2026-04-18T13:15:58.999Z</time></trkpt><trkpt lat="43.88713379664014" lon="8.039609119768564"><ele>10.4</ele><time>2026-04-18T13:16:00.999Z</time></trkpt><trkpt lat="43.88715566199508" lon="8.03971000330664"><ele>10.0</ele><time>2026-04-18T13:16:01.999Z</time></trkpt><trkpt lat="43.88719622939735" lon="8.03980623608286"><ele>10.0</ele><time>2026-04-18T13:16:02.999Z</time></trkpt><trkpt lat="43.88723660350326" lon="8.039886695988947"><ele>10.0</ele><time>2026-04-18T13:16:03.999Z</time></trkpt><trkpt lat="43.887274311972256" lon="8.039973530365677"><ele>10.0</ele><time>2026-04-18T13:16:04.999Z</time></trkpt><trkpt lat="43.8873582342709" lon="8.040092531193348"><ele>10.0</ele><time>2026-04-18T13:16:06.999Z</time></trkpt><trkpt lat="43.887425695570265" lon="8.04014465217036"><ele>10.0</ele><time>2026-04-18T13:16:09Z</time></trkpt><trkpt lat="43.88751466991386" lon="8.040143322362942"><ele>10.0</ele><time>2026-04-18T13:16:11Z</time></trkpt><trkpt lat="43.88757801243436" lon="8.040134276369448"><ele>10.333333333333334</ele><time>2026-04-18T13:16:12Z</time></trkpt><trkpt lat="43.88764217490166" lon="8.04016421201556"><ele>10.666666666666668</ele><time>2026-04-18T13:16:13Z</time></trkpt><trkpt lat="43.887729412336846" lon="8.04024636427105"><ele>11.0</ele><time>2026-04-18T13:16:15Z</time></trkpt><trkpt lat="43.88778683121722" lon="8.040316942204234"><ele>11.333333333333334</ele><time>2026-04-18T13:16:18Z</time></trkpt><trkpt lat="43.88784502258531" lon="8.040399352812209"><ele>11.666666666666666</ele><time>2026-04-18T13:16:21Z</time></trkpt><trkpt lat="43.88787454217134" lon="8.040508959633847"><ele>12.0</ele><time>2026-04-18T13:16:23Z</time></trkpt><trkpt lat="43.88788482009263" lon="8.040645563849973"><ele>12.0</ele><time>2026-04-18T13:16:25Z</time></trkpt><trkpt lat="43.88789177154545" lon="8.040782760331044"><ele>12.0</ele><time>2026-04-18T13:16:27Z</time></trkpt><trkpt lat="43.88790611828366" lon="8.040902611564094"><ele>12.0</ele><time>2026-04-18T13:16:29Z</time></trkpt><trkpt lat="43.88791485494824" lon="8.041010539601526"><ele>12.0</ele><time>2026-04-18T13:16:31Z</time></trkpt><trkpt lat="43.88792706709562" lon="8.041101780527052"><ele>12.0</ele><time>2026-04-18T13:16:33Z</time></trkpt><trkpt lat="43.88795074288706" lon="8.041183887085943"><ele>12.0</ele><time>2026-04-18T13:16:35Z</time></trkpt><trkpt lat="43.88797813130353" lon="8.041264181825078"><ele>12.142857142857142</ele><time>2026-04-18T13:16:37Z</time></trkpt><trkpt lat="43.88796732758424" lon="8.041354020183261"><ele>12.285714285714285</ele><time>2026-04-18T13:16:39Z</time></trkpt><trkpt lat="43.88796894148024" lon="8.041451012799941"><ele>12.428571428571427</ele><time>2026-04-18T13:16:41Z</time></trkpt><trkpt lat="43.88795239241247" lon="8.041580566530444"><ele>12.571428571428571</ele><time>2026-04-18T13:16:44Z</time></trkpt><trkpt lat="43.887949308387334" lon="8.04167333878133"><ele>12.714285714285715</ele><time>2026-04-18T13:16:46Z</time></trkpt><trkpt lat="43.887983023533195" lon="8.041751767093242"><ele>12.857142857142856</ele><time>2026-04-18T13:16:53Z</time></trkpt><trkpt lat="43.88797994520996" lon="8.041869749117462"><ele>13.0</ele><time>2026-04-18T13:16:56Z</time></trkpt><trkpt lat="43.8880023828033" lon="8.041970024816818"><ele>12.999999999999998</ele><time>2026-04-18T13:16:59Z</time></trkpt><trkpt lat="43.88800390508419" lon="8.042069171761469"><ele>13.0</ele><time>2026-04-18T13:17:02Z</time></trkpt><trkpt lat="43.88799843391768" lon="8.042188938776642"><ele>13.0</ele><time>2026-04-18T13:17:06Z</time></trkpt><trkpt lat="43.88800841502728" lon="8.042298662584095"><ele>13.0</ele><time>2026-04-18T13:17:09Z</time></trkpt><trkpt lat="43.88800760074119" lon="8.042424787606818"><ele>12.999999999999998</ele><time>2026-04-18T13:17:12Z</time></trkpt><trkpt lat="43.8880046936119" lon="8.042525462691067"><ele>13.0</ele><time>2026-04-18T13:17:14Z</time></trkpt><trkpt lat="43.888006607709414" lon="8.042639040609613"><ele>12.999999999999998</ele><time>2026-04-18T13:17:16.001Z</time></trkpt><trkpt lat="43.888001045493056" lon="8.042751849393959"><ele>13.0</ele><time>2026-04-18T13:17:18.001Z</time></trkpt><trkpt lat="43.88800529038246" lon="8.042850423258239"><ele>13.0</ele><time>2026-04-18T13:17:20.001Z</time></trkpt><trkpt lat="43.88801220684828" lon="8.042946893427509"><ele>13.0</ele><time>2026-04-18T13:17:22.001Z</time></trkpt><trkpt lat="43.88800416427423" lon="8.04305382217565"><ele>12.999999999999998</ele><time>2026-04-18T13:17:24.001Z</time></trkpt><trkpt lat="43.8879931344842" lon="8.043174570571724"><ele>13.0</ele><time>2026-04-18T13:17:26.001Z</time></trkpt><trkpt lat="43.88799337143845" lon="8.043283356174147"><ele>13.2</ele><time>2026-04-18T13:17:28.001Z</time></trkpt><trkpt lat="43.88800228894857" lon="8.043437351139861"><ele>13.4</ele><time>2026-04-18T13:17:30.001Z</time></trkpt><trkpt lat="43.887989489136345" lon="8.043599543275551"><ele>13.599999999999998</ele><time>2026-04-18T13:17:32.001Z</time></trkpt><trkpt lat="43.88800119399968" lon="8.043761362589441"><ele>13.799999999999999</ele><time>2026-04-18T13:17:34.001Z</time></trkpt><trkpt lat="43.888002302356725" lon="8.043849209829954"><ele>14.0</ele><time>2026-04-18T13:17:35.001Z</time></trkpt><trkpt lat="43.88800340356792" lon="8.044009933384167"><ele>14.0</ele><time>2026-04-18T13:17:37.001Z</time></trkpt><trkpt lat="43.88800418872457" lon="8.044097462003474"><ele>13.999999999999998</ele><time>2026-04-18T13:17:38.001Z</time></trkpt><trkpt lat="43.888020769335064" lon="8.044237719590214"><ele>13.999999999999998</ele><time>2026-04-18T13:17:40.001Z</time></trkpt><trkpt lat="43.888018221618665" lon="8.044404912326236"><ele>14.0</ele><time>2026-04-18T13:17:42.001Z</time></trkpt><trkpt lat="43.88801435789283" lon="8.044567439768505"><ele>14.0</ele><time>2026-04-18T13:17:44.001Z</time></trkpt><trkpt lat="43.88801429168098" lon="8.044669401729655"><ele>14.000000000000002</ele><time>2026-04-18T13:17:46.001Z</time></trkpt><trkpt lat="43.88801433939251" lon="8.044761691795527"><ele>14.0</ele><time>2026-04-18T13:17:49.001Z</time></trkpt><trkpt lat="43.88801235240852" lon="8.044901159789502"><ele>14.0</ele><time>2026-04-18T13:17:52.001Z</time></trkpt><trkpt lat="43.888001129803975" lon="8.045029331749996"><ele>14.0</ele><time>2026-04-18T13:17:54.001Z</time></trkpt><trkpt lat="43.8879664221724" lon="8.045113938945413"><ele>14.000000000000002</ele><time>2026-04-18T13:17:55.001Z</time></trkpt><trkpt lat="43.88793651383201" lon="8.045230550149292"><ele>14.0</ele><time>2026-04-18T13:17:56.001Z</time></trkpt><trkpt lat="43.887909478693764" lon="8.04536082284297"><ele>13.799999999999999</ele><time>2026-04-18T13:17:57.001Z</time></trkpt><trkpt lat="43.88788314649961" lon="8.045490189923177"><ele>13.599999999999998</ele><time>2026-04-18T13:17:58.001Z</time></trkpt><trkpt lat="43.88786940038988" lon="8.045624605732403"><ele>13.4</ele><time>2026-04-18T13:17:59.001Z</time></trkpt><trkpt lat="43.88786139493497" lon="8.045755139215611"><ele>13.2</ele><time>2026-04-18T13:18:00.001Z</time></trkpt><trkpt lat="43.887863454953724" lon="8.045886409379928"><ele>13.0</ele><time>2026-04-18T13:18:01.001Z</time></trkpt><trkpt lat="43.88785960719001" lon="8.045996457128513"><ele>13.0</ele><time>2026-04-18T13:18:02Z</time></trkpt><trkpt lat="43.88785457357088" lon="8.04610545040342"><ele>13.0</ele><time>2026-04-18T13:18:03Z</time></trkpt><trkpt lat="43.887837294745374" lon="8.046191556960387"><ele>13.0</ele><time>2026-04-18T13:18:04Z</time></trkpt><trkpt lat="43.887831112941726" lon="8.046345134469188"><ele>13.0</ele><time>2026-04-18T13:18:06Z</time></trkpt><trkpt lat="43.8880081561502" lon="8.046446818521725"><ele>13.0</ele><time>2026-04-18T13:18:08Z</time></trkpt><trkpt lat="43.888091329057175" lon="8.046472739030222"><ele>12.999999999999998</ele><time>2026-04-18T13:18:09Z</time></trkpt><trkpt lat="43.8881685756607" lon="8.046484482349134"><ele>13.0</ele><time>2026-04-18T13:18:10Z</time></trkpt><trkpt lat="43.88824395324768" lon="8.046501832882644"><ele>13.0</ele><time>2026-04-18T13:18:11Z</time></trkpt><trkpt lat="43.888326995476795" lon="8.046559444730017"><ele>13.0</ele><time>2026-04-18T13:18:13Z</time></trkpt><trkpt lat="43.88833535583776" lon="8.04670367426873"><ele>12.999999999999998</ele><time>2026-04-18T13:18:15Z</time></trkpt><trkpt lat="43.88830692533554" lon="8.046824659293373"><ele>13.0</ele><time>2026-04-18T13:18:16Z</time></trkpt><trkpt lat="43.88829279624955" lon="8.046946867575215"><ele>13.0</ele><time>2026-04-18T13:18:17Z</time></trkpt><trkpt lat="43.88824684572903" lon="8.047084711656103"><ele>13.0</ele><time>2026-04-18T13:18:18Z</time></trkpt><trkpt lat="43.88822003018307" lon="8.047222954825763"><ele>13.0</ele><time>2026-04-18T13:18:19Z</time></trkpt><trkpt lat="43.888198089364025" lon="8.04736327090261"><ele>13.0</ele><time>2026-04-18T13:18:20Z</time></trkpt><trkpt lat="43.888182978928036" lon="8.047507447734068"><ele>13.0</ele><time>2026-04-18T13:18:21Z</time></trkpt><trkpt lat="43.88817388662494" lon="8.047626950310613"><ele>14.2</ele><time>2026-04-18T13:18:22Z</time></trkpt><trkpt lat="43.888156112589314" lon="8.0477607317616"><ele>15.4</ele><time>2026-04-18T13:18:23Z</time></trkpt><trkpt lat="43.8881441072152" lon="8.047891480637638"><ele>16.599999999999998</ele><time>2026-04-18T13:18:24Z</time></trkpt><trkpt lat="43.88814439267788" lon="8.048038235906528"><ele>17.8</ele><time>2026-04-18T13:18:25Z</time></trkpt><trkpt lat="43.88813204585283" lon="8.04817235402991"><ele>19.0</ele><time>2026-04-18T13:18:26Z</time></trkpt><trkpt lat="43.888136860857635" lon="8.048306966369896"><ele>21.0</ele><time>2026-04-18T13:18:27Z</time></trkpt><trkpt lat="43.8881368821379" lon="8.04845510370726"><ele>23.0</ele><time>2026-04-18T13:18:28Z</time></trkpt><trkpt lat="43.888132725955494" lon="8.048610986741098"><ele>25.0</ele><time>2026-04-18T13:18:29Z</time></trkpt><trkpt lat="43.888124235508336" lon="8.048770369285807"><ele>27.0</ele><time>2026-04-18T13:18:30Z</time></trkpt><trkpt lat="43.88812386610427" lon="8.048939589472504"><ele>27.0</ele><time>2026-04-18T13:18:31Z</time></trkpt><trkpt lat="43.8881086104739" lon="8.049120753599766"><ele>27.0</ele><time>2026-04-18T13:18:32Z</time></trkpt><trkpt lat="43.888109063252585" lon="8.049317862828234"><ele>27.0</ele><time>2026-04-18T13:18:33Z</time></trkpt><trkpt lat="43.88810811652994" lon="8.049522013087921"><ele>27.0</ele><time>2026-04-18T13:18:34Z</time></trkpt><trkpt lat="43.88808860595185" lon="8.049713080040437"><ele>28.25</ele><time>2026-04-18T13:18:35Z</time></trkpt><trkpt lat="43.88806023650646" lon="8.049894934302317"><ele>29.5</ele><time>2026-04-18T13:18:36Z</time></trkpt><trkpt lat="43.888007770675515" lon="8.050054764937356"><ele>30.75</ele><time>2026-04-18T13:18:37Z</time></trkpt><trkpt lat="43.887959918996955" lon="8.05022692668738"><ele>32.0</ele><time>2026-04-18T13:18:38Z</time></trkpt><trkpt lat="43.88793885210399" lon="8.050417759117945"><ele>34.25</ele><time>2026-04-18T13:18:39Z</time></trkpt><trkpt lat="43.887942176423785" lon="8.05061530543024"><ele>36.5</ele><time>2026-04-18T13:18:40Z</time></trkpt><trkpt lat="43.887958352816355" lon="8.050812138335552"><ele>38.75</ele><time>2026-04-18T13:18:41Z</time></trkpt><trkpt lat="43.887984049042096" lon="8.050993832796543"><ele>41.0</ele><time>2026-04-18T13:18:42Z</time></trkpt><trkpt lat="43.888014387688315" lon="8.051155125018424"><ele>42.0</ele><time>2026-04-18T13:18:43Z</time></trkpt><trkpt lat="43.88803231278618" lon="8.051314231146245"><ele>43.0</ele><time>2026-04-18T13:18:44Z</time></trkpt><trkpt lat="43.88804282409039" lon="8.051464632450614"><ele>44.0</ele><time>2026-04-18T13:18:45Z</time></trkpt><trkpt lat="43.88804009361383" lon="8.051608039325268"><ele>45.0</ele><time>2026-04-18T13:18:46Z</time></trkpt><trkpt lat="43.88803706394847" lon="8.051744703904532"><ele>46.0</ele><time>2026-04-18T13:18:47Z</time></trkpt><trkpt lat="43.88804559003275" lon="8.051859493951495"><ele>46.16666666666667</ele><time>2026-04-18T13:18:48Z</time></trkpt><trkpt lat="43.88803924044126" lon="8.051973035545743"><ele>46.333333333333336</ele><time>2026-04-18T13:18:49Z</time></trkpt><trkpt lat="43.88804126764034" lon="8.052083354219006"><ele>46.5</ele><time>2026-04-18T13:18:50Z</time></trkpt><trkpt lat="43.88803691370529" lon="8.05218202040982"><ele>46.666666666666664</ele><time>2026-04-18T13:18:51.001Z</time></trkpt><trkpt lat="43.88802070030335" lon="8.05228973181623"><ele>46.83333333333333</ele><time>2026-04-18T13:18:52.001Z</time></trkpt><trkpt lat="43.88801847669812" lon="8.052399678619532"><ele>47.0</ele><time>2026-04-18T13:18:53.001Z</time></trkpt><trkpt lat="43.888040067310406" lon="8.052505615724684"><ele>46.6</ele><time>2026-04-18T13:18:54.001Z</time></trkpt><trkpt lat="43.888047940900336" lon="8.052622447076745"><ele>46.2</ele><time>2026-04-18T13:18:55.001Z</time></trkpt><trkpt lat="43.88807489119878" lon="8.052734640322617"><ele>45.8</ele><time>2026-04-18T13:18:56.001Z</time></trkpt><trkpt lat="43.88807851956772" lon="8.052876142554437"><ele>45.4</ele><time>2026-04-18T13:18:57.001Z</time></trkpt><trkpt lat="43.88813233220617" lon="8.052982917395571"><ele>45.0</ele><time>2026-04-18T13:18:58.001Z</time></trkpt><trkpt lat="43.888192801796514" lon="8.053099856079516"><ele>45.0</ele><time>2026-04-18T13:18:59.001Z</time></trkpt><trkpt lat="43.8882479351234" lon="8.053206253743651"><ele>45.0</ele><time>2026-04-18T13:19:00.001Z</time></trkpt><trkpt lat="43.888293152907416" lon="8.053311227467004"><ele>45.0</ele><time>2026-04-18T13:19:01.001Z</time></trkpt><trkpt lat="43.88832342651473" lon="8.053420008583739"><ele>45.0</ele><time>2026-04-18T13:19:02.001Z</time></trkpt><trkpt lat="43.88834311305558" lon="8.053540443237162"><ele>45.0</ele><time>2026-04-18T13:19:03.001Z</time></trkpt><trkpt lat="43.88834396742034" lon="8.05367507610936"><ele>44.4</ele><time>2026-04-18T13:19:04.001Z</time></trkpt><trkpt lat="43.88833830612132" lon="8.053812140373541"><ele>43.8</ele><time>2026-04-18T13:19:05.001Z</time></trkpt><trkpt lat="43.88832946143921" lon="8.05395874516789"><ele>43.2</ele><time>2026-04-18T13:19:06.001Z</time></trkpt><trkpt lat="43.88832725328477" lon="8.054098867769168"><ele>42.6</ele><time>2026-04-18T13:19:07.001Z</time></trkpt><trkpt lat="43.88833796745504" lon="8.054228608478446"><ele>42.0</ele><time>2026-04-18T13:19:08.001Z</time></trkpt><trkpt lat="43.88837542246192" lon="8.054365651665826"><ele>46.0</ele><time>2026-04-18T13:19:09.001Z</time></trkpt><trkpt lat="43.88843391262722" lon="8.054496605922633"><ele>50.0</ele><time>2026-04-18T13:19:10.001Z</time></trkpt><trkpt lat="43.8884965892805" lon="8.054630980541726"><ele>54.0</ele><time>2026-04-18T13:19:11.001Z</time></trkpt><trkpt lat="43.88855833011585" lon="8.054761977912435"><ele>58.0</ele><time>2026-04-18T13:19:12.001Z</time></trkpt><trkpt lat="43.88860971389499" lon="8.05489518653287"><ele>62.0</ele><time>2026-04-18T13:19:13.001Z</time></trkpt><trkpt lat="43.88864281504761" lon="8.055036791565474"><ele>63.400000000000006</ele><time>2026-04-18T13:19:14.001Z</time></trkpt><trkpt lat="43.888653710373006" lon="8.055175401092363"><ele>64.80000000000001</ele><time>2026-04-18T13:19:15.001Z</time></trkpt><trkpt lat="43.88865968703295" lon="8.055318371820674"><ele>66.2</ele><time>2026-04-18T13:19:16.001Z</time></trkpt><trkpt lat="43.888671475595025" lon="8.05547297886674"><ele>67.60000000000001</ele><time>2026-04-18T13:19:17.001Z</time></trkpt><trkpt lat="43.88870898385973" lon="8.055606351738978"><ele>69.0</ele><time>2026-04-18T13:19:18.001Z</time></trkpt><trkpt lat="43.88878375926075" lon="8.055725684364024"><ele>66.5</ele><time>2026-04-18T13:19:19.001Z</time></trkpt><trkpt lat="43.888885175600834" lon="8.05580879318923"><ele>64.0</ele><time>2026-04-18T13:19:20.001Z</time></trkpt><trkpt lat="43.88899350694186" lon="8.05588463591985"><ele>61.5</ele><time>2026-04-18T13:19:21.001Z</time></trkpt><trkpt lat="43.88909920944282" lon="8.05595906504902"><ele>59.0</ele><time>2026-04-18T13:19:22.001Z</time></trkpt><trkpt lat="43.88919529186987" lon="8.056027109333526"><ele>63.66666666666667</ele><time>2026-04-18T13:19:23.001Z</time></trkpt><trkpt lat="43.88927808325668" lon="8.056085646610608"><ele>68.33333333333334</ele><time>2026-04-18T13:19:24.001Z</time></trkpt><trkpt lat="43.889339619128606" lon="8.056128742771323"><ele>73.0</ele><time>2026-04-18T13:19:25.001Z</time></trkpt><trkpt lat="43.88940224943827" lon="8.056172605351604"><ele>77.66666666666667</ele><time>2026-04-18T13:19:27.001Z</time></trkpt><trkpt lat="43.88947699634225" lon="8.056224953680642"><ele>82.33333333333333</ele><time>2026-04-18T13:19:29.001Z</time></trkpt><trkpt lat="43.88958922273791" lon="8.056323747749003"><ele>87.0</ele><time>2026-04-18T13:19:31.001Z</time></trkpt><trkpt lat="43.88964727895195" lon="8.056389934150843"><ele>87.0</ele><time>2026-04-18T13:19:32.001Z</time></trkpt><trkpt lat="43.88968826783881" lon="8.05648187683244"><ele>87.0</ele><time>2026-04-18T13:19:33.001Z</time></trkpt><trkpt lat="43.88972467740978" lon="8.056588640823515"><ele>87.0</ele><time>2026-04-18T13:19:34.001Z</time></trkpt><trkpt lat="43.88971199966098" lon="8.05670163273326"><ele>87.0</ele><time>2026-04-18T13:19:35.001Z</time></trkpt><trkpt lat="43.88967953946637" lon="8.056797614309568"><ele>87.0</ele><time>2026-04-18T13:19:36.001Z</time></trkpt><trkpt lat="43.889624481107575" lon="8.0568838246519"><ele>87.0</ele><time>2026-04-18T13:19:37.001Z</time></trkpt><trkpt lat="43.88957401064867" lon="8.056976152700814"><ele>84.16666666666667</ele><time>2026-04-18T13:19:38.001Z</time></trkpt><trkpt lat="43.88955699888784" lon="8.057062879766718"><ele>81.33333333333333</ele><time>2026-04-18T13:19:39.001Z</time></trkpt><trkpt lat="43.88957868867564" lon="8.057214372334274"><ele>78.5</ele><time>2026-04-18T13:19:41.001Z</time></trkpt><trkpt lat="43.88964294228605" lon="8.057302383659637"><ele>75.66666666666666</ele><time>2026-04-18T13:19:43.001Z</time></trkpt><trkpt lat="43.88970376440804" lon="8.05735802351814"><ele>72.83333333333333</ele><time>2026-04-18T13:19:45.001Z</time></trkpt><trkpt lat="43.889763282440285" lon="8.057411314641449"><ele>70.0</ele><time>2026-04-18T13:19:47.001Z</time></trkpt><trkpt lat="43.88985558882421" lon="8.057482558164947"><ele>69.2</ele><time>2026-04-18T13:19:49.001Z</time></trkpt><trkpt lat="43.88993166361468" lon="8.057578908668361"><ele>68.4</ele><time>2026-04-18T13:19:51.001Z</time></trkpt><trkpt lat="43.889970744370174" lon="8.057697427370604"><ele>67.6</ele><time>2026-04-18T13:19:53.001Z</time></trkpt><trkpt lat="43.88999044201318" lon="8.05783361582144"><ele>66.8</ele><time>2026-04-18T13:19:55.001Z</time></trkpt><trkpt lat="43.889988785874955" lon="8.057998235180266"><ele>66.0</ele><time>2026-04-18T13:19:57.001Z</time></trkpt><trkpt lat="43.88995364459054" lon="8.058158717770688"><ele>66.0</ele><time>2026-04-18T13:19:59.001Z</time></trkpt><trkpt lat="43.88992368379709" lon="8.058244333733699"><ele>66.0</ele><time>2026-04-18T13:20:00.001Z</time></trkpt><trkpt lat="43.8898805223797" lon="8.05833934490247"><ele>66.0</ele><time>2026-04-18T13:20:01.001Z</time></trkpt><trkpt lat="43.889818390446656" lon="8.058432116285939"><ele>66.0</ele><time>2026-04-18T13:20:02.001Z</time></trkpt><trkpt lat="43.88973399556357" lon="8.058503636708187"><ele>66.0</ele><time>2026-04-18T13:20:03.001Z</time></trkpt><trkpt lat="43.88964121954353" lon="8.058551628216373"><ele>66.0</ele><time>2026-04-18T13:20:04.001Z</time></trkpt><trkpt lat="43.88955616335914" lon="8.058603788258264"><ele>66.39999999999999</ele><time>2026-04-18T13:20:05.001Z</time></trkpt><trkpt lat="43.88948851167177" lon="8.058702533223098"><ele>66.8</ele><time>2026-04-18T13:20:06.001Z</time></trkpt><trkpt lat="43.88943181346929" lon="8.058823649677835"><ele>67.19999999999999</ele><time>2026-04-18T13:20:07.001Z</time></trkpt><trkpt lat="43.88938172709203" lon="8.058925515006987"><ele>67.6</ele><time>2026-04-18T13:20:08Z</time></trkpt><trkpt lat="43.889343408681206" lon="8.05902455565034"><ele>68.0</ele><time>2026-04-18T13:20:09Z</time></trkpt><trkpt lat="43.88932411009255" lon="8.059133242199444"><ele>71.75</ele><time>2026-04-18T13:20:10Z</time></trkpt><trkpt lat="43.88932627421839" lon="8.059250039533811"><ele>75.5</ele><time>2026-04-18T13:20:11Z</time></trkpt><trkpt lat="43.88933852152473" lon="8.059392622206913"><ele>79.25</ele><time>2026-04-18T13:20:12Z</time></trkpt><trkpt lat="43.889373912336524" lon="8.059581909363796"><ele>83.0</ele><time>2026-04-18T13:20:13Z</time></trkpt><trkpt lat="43.88941084375707" lon="8.059789071899246"><ele>87.33333333333334</ele><time>2026-04-18T13:20:14Z</time></trkpt><trkpt lat="43.8894322028855" lon="8.06002031720687"><ele>91.66666666666667</ele><time>2026-04-18T13:20:15Z</time></trkpt><trkpt lat="43.88941805320285" lon="8.060270283316514"><ele>96.0</ele><time>2026-04-18T13:20:16Z</time></trkpt><trkpt lat="43.88940664728032" lon="8.060480172200862"><ele>96.0</ele><time>2026-04-18T13:20:17Z</time></trkpt><trkpt lat="43.88941151395412" lon="8.060675301751656"><ele>96.0</ele><time>2026-04-18T13:20:18Z</time></trkpt><trkpt lat="43.88944950624768" lon="8.060855475396691"><ele>96.0</ele><time>2026-04-18T13:20:19Z</time></trkpt><trkpt lat="43.88951053278113" lon="8.06101150261125"><ele>96.0</ele><time>2026-04-18T13:20:20Z</time></trkpt><trkpt lat="43.88958197524275" lon="8.061145981076718"><ele>96.19999999999999</ele><time>2026-04-18T13:20:21Z</time></trkpt><trkpt lat="43.889650643352574" lon="8.061254039816642"><ele>96.39999999999999</ele><time>2026-04-18T13:20:22Z</time></trkpt><trkpt lat="43.889702017823424" lon="8.061366783408431"><ele>96.6</ele><time>2026-04-18T13:20:23Z</time></trkpt><trkpt lat="43.88974523097096" lon="8.061508749786306"><ele>96.8</ele><time>2026-04-18T13:20:24Z</time></trkpt><trkpt lat="43.88976963077477" lon="8.061674240059649"><ele>97.0</ele><time>2026-04-18T13:20:25Z</time></trkpt><trkpt lat="43.88976903685775" lon="8.06185803658718"><ele>96.25</ele><time>2026-04-18T13:20:26Z</time></trkpt><trkpt lat="43.889743637310474" lon="8.062049213951774"><ele>95.5</ele><time>2026-04-18T13:20:27Z</time></trkpt><trkpt lat="43.88969789783425" lon="8.0622340581827"><ele>94.75</ele><time>2026-04-18T13:20:28Z</time></trkpt><trkpt lat="43.88971825068459" lon="8.06240065687679"><ele>94.0</ele><time>2026-04-18T13:20:29Z</time></trkpt><trkpt lat="43.88976291443021" lon="8.06259373362634"><ele>94.0</ele><time>2026-04-18T13:20:30Z</time></trkpt><trkpt lat="43.88982563703174" lon="8.062799549225794"><ele>94.0</ele><time>2026-04-18T13:20:31Z</time></trkpt><trkpt lat="43.889866315341784" lon="8.063013755099576"><ele>94.0</ele><time>2026-04-18T13:20:32Z</time></trkpt><trkpt lat="43.88989497381063" lon="8.063237131562852"><ele>92.0</ele><time>2026-04-18T13:20:33Z</time></trkpt><trkpt lat="43.889936061127756" lon="8.063459369665503"><ele>90.0</ele><time>2026-04-18T13:20:34Z</time></trkpt><trkpt lat="43.889986816529415" lon="8.063680800571074"><ele>88.0</ele><time>2026-04-18T13:20:35Z</time></trkpt><trkpt lat="43.890050658871964" lon="8.063912329604559"><ele>100.0</ele><time>2026-04-18T13:20:36Z</time></trkpt><trkpt lat="43.89010985309199" lon="8.064148407739014"><ele>112.0</ele><time>2026-04-18T13:20:37Z</time></trkpt><trkpt lat="43.89017149368879" lon="8.064394801014885"><ele>124.0</ele><time>2026-04-18T13:20:38Z</time></trkpt><trkpt lat="43.89023175317488" lon="8.064634871534956"><ele>124.0</ele><time>2026-04-18T13:20:39Z</time></trkpt><trkpt lat="43.890274016973606" lon="8.064866944315268"><ele>124.0</ele><time>2026-04-18T13:20:40Z</time></trkpt><trkpt lat="43.89032693198108" lon="8.065111669835542"><ele>124.0</ele><time>2026-04-18T13:20:41Z</time></trkpt><trkpt lat="43.890390818249756" lon="8.065337683935859"><ele>121.25</ele><time>2026-04-18T13:20:42Z</time></trkpt><trkpt lat="43.89044606075885" lon="8.06553921317015"><ele>118.5</ele><time>2026-04-18T13:20:43Z</time></trkpt><trkpt lat="43.890497009708945" lon="8.065726426794377"><ele>115.75</ele><time>2026-04-18T13:20:44Z</time></trkpt><trkpt lat="43.89058429292112" lon="8.065872087305461"><ele>113.0</ele><time>2026-04-18T13:20:45Z</time></trkpt><trkpt lat="43.890680788678544" lon="8.066003696105966"><ele>111.25</ele><time>2026-04-18T13:20:46Z</time></trkpt><trkpt lat="43.890783451379164" lon="8.066087659136857"><ele>109.5</ele><time>2026-04-18T13:20:47Z</time></trkpt><trkpt lat="43.8908474781916" lon="8.066231125302538"><ele>107.75</ele><time>2026-04-18T13:20:48Z</time></trkpt><trkpt lat="43.89087396420456" lon="8.066404406656467"><ele>106.0</ele><time>2026-04-18T13:20:49Z</time></trkpt><trkpt lat="43.89086756096012" lon="8.066607077171712"><ele>104.0</ele><time>2026-04-18T13:20:50Z</time></trkpt><trkpt lat="43.890846304356394" lon="8.066820449459644"><ele>102.0</ele><time>2026-04-18T13:20:51Z</time></trkpt><trkpt lat="43.89083115550246" lon="8.067042359249939"><ele>100.0</ele><time>2026-04-18T13:20:52Z</time></trkpt><trkpt lat="43.89083028517875" lon="8.067269542831824"><ele>100.0</ele><time>2026-04-18T13:20:53Z</time></trkpt><trkpt lat="43.890842964253316" lon="8.067503399875907"><ele>100.0</ele><time>2026-04-18T13:20:54Z</time></trkpt><trkpt lat="43.890876079760226" lon="8.067738167682958"><ele>100.0</ele><time>2026-04-18T13:20:55Z</time></trkpt><trkpt lat="43.89093498974534" lon="8.067965741374946"><ele>114.0</ele><time>2026-04-18T13:20:56Z</time></trkpt><trkpt lat="43.89101421123555" lon="8.06820097821415"><ele>128.0</ele><time>2026-04-18T13:20:57Z</time></trkpt><trkpt lat="43.89110265394609" lon="8.068443324962438"><ele>142.0</ele><time>2026-04-18T13:20:58Z</time></trkpt><trkpt lat="43.891191396505995" lon="8.068684450344023"><ele>142.0</ele><time>2026-04-18T13:20:59Z</time></trkpt><trkpt lat="43.89127147100368" lon="8.068928140820995"><ele>142.0</ele><time>2026-04-18T13:21:00.001Z</time></trkpt><trkpt lat="43.89136536067782" lon="8.06916003473492"><ele>142.0</ele><time>2026-04-18T13:21:01.001Z</time></trkpt><trkpt lat="43.89145774403895" lon="8.069376323221354"><ele>137.0</ele><time>2026-04-18T13:21:02.001Z</time></trkpt><trkpt lat="43.89154358031714" lon="8.069592894291532"><ele>132.0</ele><time>2026-04-18T13:21:03.001Z</time></trkpt><trkpt lat="43.89163707225684" lon="8.069783506621077"><ele>127.0</ele><time>2026-04-18T13:21:04.001Z</time></trkpt><trkpt lat="43.89173701168788" lon="8.0699491783688"><ele>133.5</ele><time>2026-04-18T13:21:05.001Z</time></trkpt><trkpt lat="43.89183693592339" lon="8.070091875821994"><ele>140.0</ele><time>2026-04-18T13:21:06.001Z</time></trkpt><trkpt lat="43.89192466533633" lon="8.070226632588879"><ele>146.5</ele><time>2026-04-18T13:21:07.001Z</time></trkpt><trkpt lat="43.89200380183698" lon="8.070393474486162"><ele>153.0</ele><time>2026-04-18T13:21:08.001Z</time></trkpt><trkpt lat="43.892074163666265" lon="8.070572345840299"><ele>149.33333333333334</ele><time>2026-04-18T13:21:09.001Z</time></trkpt><trkpt lat="43.892142166658495" lon="8.070787930153474"><ele>145.66666666666669</ele><time>2026-04-18T13:21:10.001Z</time></trkpt><trkpt lat="43.892232591020985" lon="8.071013192805404"><ele>142.0</ele><time>2026-04-18T13:21:11.001Z</time></trkpt><trkpt lat="43.8923361840132" lon="8.071231449666202"><ele>142.0</ele><time>2026-04-18T13:21:12.001Z</time></trkpt><trkpt lat="43.892418765953934" lon="8.071452721592197"><ele>142.0</ele><time>2026-04-18T13:21:13.001Z</time></trkpt><trkpt lat="43.89249673224327" lon="8.071665705799475"><ele>142.0</ele><time>2026-04-18T13:21:14.001Z</time></trkpt><trkpt lat="43.89256802459904" lon="8.07187548503157"><ele>144.0</ele><time>2026-04-18T13:21:15.001Z</time></trkpt><trkpt lat="43.89263903944053" lon="8.072066714680888"><ele>146.0</ele><time>2026-04-18T13:21:16.001Z</time></trkpt><trkpt lat="43.892712160976636" lon="8.072258748810968"><ele>148.0</ele><time>2026-04-18T13:21:17.001Z</time></trkpt><trkpt lat="43.892791952657625" lon="8.072443823997975"><ele>148.0</ele><time>2026-04-18T13:21:18.001Z</time></trkpt><trkpt lat="43.892877556445605" lon="8.072618610825934"><ele>148.0</ele><time>2026-04-18T13:21:19.001Z</time></trkpt><trkpt lat="43.89297242122915" lon="8.072769299693089"><ele>148.0</ele><time>2026-04-18T13:21:20.001Z</time></trkpt><trkpt lat="43.893080527099066" lon="8.07289617874678"><ele>148.0</ele><time>2026-04-18T13:21:21.001Z</time></trkpt><trkpt lat="43.89318717931064" lon="8.073000228249692"><ele>148.0</ele><time>2026-04-18T13:21:22.001Z</time></trkpt><trkpt lat="43.89328313153337" lon="8.073102412062383"><ele>148.0</ele><time>2026-04-18T13:21:23.001Z</time></trkpt><trkpt lat="43.893385717368" lon="8.073213832125232"><ele>148.0</ele><time>2026-04-18T13:21:24.001Z</time></trkpt><trkpt lat="43.89349376078798" lon="8.073345672740084"><ele>148.0</ele><time>2026-04-18T13:21:25.001Z</time></trkpt><trkpt lat="43.89361781866088" lon="8.073492347627122"><ele>148.66666666666669</ele><time>2026-04-18T13:21:26.001Z</time></trkpt><trkpt lat="43.893754112613834" lon="8.0736634717706"><ele>149.33333333333334</ele><time>2026-04-18T13:21:27.001Z</time></trkpt><trkpt lat="43.89387659484739" lon="8.073837302269041"><ele>150.0</ele><time>2026-04-18T13:21:28.001Z</time></trkpt><trkpt lat="43.89399551088013" lon="8.073995005897423"><ele>144.0</ele><time>2026-04-18T13:21:29.001Z</time></trkpt><trkpt lat="43.894129062457445" lon="8.07414570114353"><ele>138.0</ele><time>2026-04-18T13:21:30.001Z</time></trkpt><trkpt lat="43.8942913301365" lon="8.074256016168986"><ele>132.0</ele><time>2026-04-18T13:21:31.001Z</time></trkpt><trkpt lat="43.89445507264157" lon="8.074350893265512"><ele>132.0</ele><time>2026-04-18T13:21:32.001Z</time></trkpt><trkpt lat="43.89461672764026" lon="8.074434957821564"><ele>132.0</ele><time>2026-04-18T13:21:33.001Z</time></trkpt><trkpt lat="43.89475687169094" lon="8.074519046271417"><ele>132.0</ele><time>2026-04-18T13:21:34.001Z</time></trkpt><trkpt lat="43.894886100112025" lon="8.074597051572258"><ele>132.0</ele><time>2026-04-18T13:21:35.001Z</time></trkpt><trkpt lat="43.89499822942161" lon="8.074680320249058"><ele>132.0</ele><time>2026-04-18T13:21:36.001Z</time></trkpt><trkpt lat="43.89508351087886" lon="8.074796905975653"><ele>132.0</ele><time>2026-04-18T13:21:37.001Z</time></trkpt><trkpt lat="43.895136011631735" lon="8.074949215489173"><ele>132.0</ele><time>2026-04-18T13:21:38.001Z</time></trkpt><trkpt lat="43.89515230144244" lon="8.075125013584014"><ele>128.0</ele><time>2026-04-18T13:21:39.001Z</time></trkpt><trkpt lat="43.89514210054544" lon="8.0753353650556"><ele>124.0</ele><time>2026-04-18T13:21:40.001Z</time></trkpt><trkpt lat="43.8951220897018" lon="8.075529184510286"><ele>120.0</ele><time>2026-04-18T13:21:41.001Z</time></trkpt><trkpt lat="43.89511689136361" lon="8.075706845930686"><ele>116.0</ele><time>2026-04-18T13:21:42.001Z</time></trkpt><trkpt lat="43.89514619360669" lon="8.075874988989934"><ele>115.25</ele><time>2026-04-18T13:21:43.001Z</time></trkpt><trkpt lat="43.89521675043089" lon="8.076032925035337"><ele>114.5</ele><time>2026-04-18T13:21:44.001Z</time></trkpt><trkpt lat="43.89530683503723" lon="8.076157392150987"><ele>113.75</ele><time>2026-04-18T13:21:45.001Z</time></trkpt><trkpt lat="43.895434313059056" lon="8.076220768157302"><ele>113.0</ele><time>2026-04-18T13:21:46.001Z</time></trkpt><trkpt lat="43.895574019540376" lon="8.076250090181729"><ele>113.0</ele><time>2026-04-18T13:21:47.001Z</time></trkpt><trkpt lat="43.895719272134656" lon="8.076304854441476"><ele>113.0</ele><time>2026-04-18T13:21:48.001Z</time></trkpt><trkpt lat="43.89584930590435" lon="8.076412902108911"><ele>113.0</ele><time>2026-04-18T13:21:49.001Z</time></trkpt><trkpt lat="43.895965069483346" lon="8.076537663171518"><ele>113.0</ele><time>2026-04-18T13:21:50.001Z</time></trkpt><trkpt lat="43.896078768995466" lon="8.076631324393922"><ele>108.0</ele><time>2026-04-18T13:21:51.001Z</time></trkpt><trkpt lat="43.89620440843679" lon="8.07666881547863"><ele>103.0</ele><time>2026-04-18T13:21:52.001Z</time></trkpt><trkpt lat="43.896333775957835" lon="8.076642046057009"><ele>98.0</ele><time>2026-04-18T13:21:53.001Z</time></trkpt><trkpt lat="43.89643562305528" lon="8.076546301640896"><ele>93.0</ele><time>2026-04-18T13:21:54.001Z</time></trkpt><trkpt lat="43.89652273182016" lon="8.076386781226075"><ele>93.0</ele><time>2026-04-18T13:21:55.001Z</time></trkpt><trkpt lat="43.896576320255704" lon="8.076195201283985"><ele>93.0</ele><time>2026-04-18T13:21:56.001Z</time></trkpt><trkpt lat="43.89660578779634" lon="8.075976757374203"><ele>93.0</ele><time>2026-04-18T13:21:57.001Z</time></trkpt><trkpt lat="43.89662588248396" lon="8.075746636414516"><ele>93.0</ele><time>2026-04-18T13:21:58.001Z</time></trkpt><trkpt lat="43.89662664629526" lon="8.07553874601433"><ele>93.0</ele><time>2026-04-18T13:21:59.001Z</time></trkpt><trkpt lat="43.89660155195026" lon="8.075338963763983"><ele>93.0</ele><time>2026-04-18T13:22:00.001Z</time></trkpt><trkpt lat="43.89658495999486" lon="8.075148457206634"><ele>93.0</ele><time>2026-04-18T13:22:01.001Z</time></trkpt><trkpt lat="43.89657954184111" lon="8.074976148746142"><ele>92.2</ele><time>2026-04-18T13:22:02.001Z</time></trkpt><trkpt lat="43.89659505997297" lon="8.074823527107537"><ele>91.4</ele><time>2026-04-18T13:22:03.001Z</time></trkpt><trkpt lat="43.8966462948693" lon="8.07470683656153"><ele>90.60000000000001</ele><time>2026-04-18T13:22:04.001Z</time></trkpt><trkpt lat="43.89673650803103" lon="8.074631428071646"><ele>89.80000000000001</ele><time>2026-04-18T13:22:05.001Z</time></trkpt><trkpt lat="43.896845614769326" lon="8.07460735083433"><ele>89.0</ele><time>2026-04-18T13:22:06.001Z</time></trkpt><trkpt lat="43.896960328324326" lon="8.074647631792208"><ele>89.0</ele><time>2026-04-18T13:22:07.001Z</time></trkpt><trkpt lat="43.89706267741679" lon="8.074771849606194"><ele>89.0</ele><time>2026-04-18T13:22:08.001Z</time></trkpt><trkpt lat="43.897194360360416" lon="8.074891202209994"><ele>89.0</ele><time>2026-04-18T13:22:09.001Z</time></trkpt><trkpt lat="43.89731410259818" lon="8.075035525903335"><ele>87.66666666666667</ele><time>2026-04-18T13:22:10.001Z</time></trkpt><trkpt lat="43.8974340991246" lon="8.075188563004637"><ele>86.33333333333333</ele><time>2026-04-18T13:22:11.001Z</time></trkpt><trkpt lat="43.897548365179986" lon="8.075358254941394"><ele>85.0</ele><time>2026-04-18T13:22:12.001Z</time></trkpt><trkpt lat="43.89765001232174" lon="8.075536212676619"><ele>80.33333333333333</ele><time>2026-04-18T13:22:13.001Z</time></trkpt><trkpt lat="43.89772991231454" lon="8.07571965068448"><ele>75.66666666666667</ele><time>2026-04-18T13:22:14Z</time></trkpt><trkpt lat="43.89779670243916" lon="8.075905364419395"><ele>71.0</ele><time>2026-04-18T13:22:15Z</time></trkpt><trkpt lat="43.89787531065647" lon="8.076084607480324"><ele>71.0</ele><time>2026-04-18T13:22:16Z</time></trkpt><trkpt lat="43.897961716898934" lon="8.076249813282903"><ele>71.0</ele><time>2026-04-18T13:22:17Z</time></trkpt><trkpt lat="43.89805673975878" lon="8.076399977210617"><ele>71.0</ele><time>2026-04-18T13:22:18Z</time></trkpt><trkpt lat="43.898153352103485" lon="8.076540524529635"><ele>71.0</ele><time>2026-04-18T13:22:19Z</time></trkpt><trkpt lat="43.89824288776743" lon="8.076664212602227"><ele>69.75</ele><time>2026-04-18T13:22:20Z</time></trkpt><trkpt lat="43.8983324676527" lon="8.076763933405758"><ele>68.5</ele><time>2026-04-18T13:22:21Z</time></trkpt><trkpt lat="43.898438870631296" lon="8.076817027451813"><ele>67.25</ele><time>2026-04-18T13:22:22Z</time></trkpt><trkpt lat="43.898555826035576" lon="8.076809607354022"><ele>66.0</ele><time>2026-04-18T13:22:23Z</time></trkpt><trkpt lat="43.89865818274156" lon="8.076739613273185"><ele>60.75</ele><time>2026-04-18T13:22:24Z</time></trkpt><trkpt lat="43.89873844524573" lon="8.076623071811742"><ele>55.5</ele><time>2026-04-18T13:22:25Z</time></trkpt><trkpt lat="43.89878606906876" lon="8.076464068725766"><ele>50.25</ele><time>2026-04-18T13:22:26Z</time></trkpt><trkpt lat="43.898802872095025" lon="8.076274081589956"><ele>45.0</ele><time>2026-04-18T13:22:27Z</time></trkpt><trkpt lat="43.89877923951066" lon="8.076064199269588"><ele>45.0</ele><time>2026-04-18T13:22:28Z</time></trkpt><trkpt lat="43.89874015448383" lon="8.075850743022338"><ele>45.0</ele><time>2026-04-18T13:22:29Z</time></trkpt><trkpt lat="43.89868531840118" lon="8.075640795181414"><ele>45.0</ele><time>2026-04-18T13:22:30Z</time></trkpt><trkpt lat="43.898631980846055" lon="8.075439433244668"><ele>47.25</ele><time>2026-04-18T13:22:31Z</time></trkpt><trkpt lat="43.898582552604054" lon="8.07525465222483"><ele>49.5</ele><time>2026-04-18T13:22:32Z</time></trkpt><trkpt lat="43.8985420343251" lon="8.075095387800856"><ele>51.75</ele><time>2026-04-18T13:22:33Z</time></trkpt><trkpt lat="43.89850362823132" lon="8.074946374378113"><ele>54.0</ele><time>2026-04-18T13:22:34Z</time></trkpt><trkpt lat="43.898486879839716" lon="8.074811829267583"><ele>57.333333333333336</ele><time>2026-04-18T13:22:35Z</time></trkpt><trkpt lat="43.89849696247815" lon="8.074704183351898"><ele>60.66666666666667</ele><time>2026-04-18T13:22:36Z</time></trkpt><trkpt lat="43.89854092410976" lon="8.074634226004953"><ele>64.0</ele><time>2026-04-18T13:22:37Z</time></trkpt><trkpt lat="43.89860380939972" lon="8.074609992789464"><ele>67.33333333333334</ele><time>2026-04-18T13:22:38Z</time></trkpt><trkpt lat="43.89867876937743" lon="8.074651507990314"><ele>70.66666666666667</ele><time>2026-04-18T13:22:39Z</time></trkpt><trkpt lat="43.89877187084341" lon="8.074739100533787"><ele>74.0</ele><time>2026-04-18T13:22:40Z</time></trkpt><trkpt lat="43.89886022926374" lon="8.074831221398826"><ele>69.0</ele><time>2026-04-18T13:22:41Z</time></trkpt><trkpt lat="43.898975210942176" lon="8.074941253840581"><ele>64.0</ele><time>2026-04-18T13:22:42Z</time></trkpt><trkpt lat="43.899104470297786" lon="8.075036614182885"><ele>59.0</ele><time>2026-04-18T13:22:43Z</time></trkpt><trkpt lat="43.899228602783175" lon="8.07511768271157"><ele>54.0</ele><time>2026-04-18T13:22:44Z</time></trkpt><trkpt lat="43.899360707462215" lon="8.075180884815229"><ele>53.25</ele><time>2026-04-18T13:22:45Z</time></trkpt><trkpt lat="43.89948733349207" lon="8.07524553005391"><ele>52.5</ele><time>2026-04-18T13:22:46Z</time></trkpt><trkpt lat="43.89960855334842" lon="8.075327372347422"><ele>51.75</ele><time>2026-04-18T13:22:47Z</time></trkpt><trkpt lat="43.899721096691344" lon="8.07543419730602"><ele>51.0</ele><time>2026-04-18T13:22:48Z</time></trkpt><trkpt lat="43.89982393069991" lon="8.075551218744865"><ele>51.0</ele><time>2026-04-18T13:22:49Z</time></trkpt><trkpt lat="43.89992049503206" lon="8.075656853280718"><ele>51.0</ele><time>2026-04-18T13:22:50Z</time></trkpt><trkpt lat="43.90002287756262" lon="8.075729674732958"><ele>51.0</ele><time>2026-04-18T13:22:51Z</time></trkpt><trkpt lat="43.900132558921385" lon="8.075744850283728"><ele>51.0</ele><time>2026-04-18T13:22:52Z</time></trkpt><trkpt lat="43.900249776551995" lon="8.075694406441311"><ele>47.5</ele><time>2026-04-18T13:22:53Z</time></trkpt><trkpt lat="43.900375149602844" lon="8.075608321564824"><ele>44.0</ele><time>2026-04-18T13:22:54Z</time></trkpt><trkpt lat="43.90049991450906" lon="8.075539619132172"><ele>40.5</ele><time>2026-04-18T13:22:55Z</time></trkpt><trkpt lat="43.90063535183487" lon="8.07549914354202"><ele>37.0</ele><time>2026-04-18T13:22:56Z</time></trkpt><trkpt lat="43.900770353678695" lon="8.07547464742082"><ele>37.0</ele><time>2026-04-18T13:22:57Z</time></trkpt><trkpt lat="43.90090263291197" lon="8.07545426957048"><ele>37.0</ele><time>2026-04-18T13:22:58Z</time></trkpt><trkpt lat="43.901026874397466" lon="8.075413781926589"><ele>37.0</ele><time>2026-04-18T13:22:59Z</time></trkpt><trkpt lat="43.901132337500684" lon="8.075331176157428"><ele>37.0</ele><time>2026-04-18T13:23:00Z</time></trkpt><trkpt lat="43.901214195591336" lon="8.075205220729416"><ele>35.800000000000004</ele><time>2026-04-18T13:23:01Z</time></trkpt><trkpt lat="43.901258063854826" lon="8.075052591055211"><ele>34.6</ele><time>2026-04-18T13:23:02Z</time></trkpt><trkpt lat="43.9012705306549" lon="8.074893844049422"><ele>33.400000000000006</ele><time>2026-04-18T13:23:03Z</time></trkpt><trkpt lat="43.901256879665596" lon="8.074746867797975"><ele>32.2</ele><time>2026-04-18T13:23:04Z</time></trkpt><trkpt lat="43.90125252482342" lon="8.074618202259867"><ele>31.0</ele><time>2026-04-18T13:23:05Z</time></trkpt><trkpt lat="43.90128268970899" lon="8.074504272848708"><ele>31.0</ele><time>2026-04-18T13:23:06Z</time></trkpt><trkpt lat="43.90135242289004" lon="8.07441380520926"><ele>31.0</ele><time>2026-04-18T13:23:07Z</time></trkpt><trkpt lat="43.9014464287104" lon="8.074391441233521"><ele>31.0</ele><time>2026-04-18T13:23:08Z</time></trkpt><trkpt lat="43.90154309164576" lon="8.0744192325302"><ele>31.0</ele><time>2026-04-18T13:23:09Z</time></trkpt><trkpt lat="43.901652402470134" lon="8.074473715943828"><ele>31.0</ele><time>2026-04-18T13:23:10Z</time></trkpt><trkpt lat="43.901772179033564" lon="8.074534329852126"><ele>32.5</ele><time>2026-04-18T13:23:11Z</time></trkpt><trkpt lat="43.90188271902044" lon="8.074615249814702"><ele>34.0</ele><time>2026-04-18T13:23:12Z</time></trkpt><trkpt lat="43.90197827406618" lon="8.074726720442511"><ele>35.5</ele><time>2026-04-18T13:23:13Z</time></trkpt><trkpt lat="43.902065301258716" lon="8.074853858809112"><ele>37.0</ele><time>2026-04-18T13:23:14Z</time></trkpt><trkpt lat="43.902172588906964" lon="8.074958572221103"><ele>33.0</ele><time>2026-04-18T13:23:15Z</time></trkpt><trkpt lat="43.90229328501365" lon="8.075033532029236"><ele>29.0</ele><time>2026-04-18T13:23:16Z</time></trkpt><trkpt lat="43.90241860677596" lon="8.075105557384825"><ele>25.0</ele><time>2026-04-18T13:23:17.001Z</time></trkpt><trkpt lat="43.902541859014576" lon="8.075174635605201"><ele>21.0</ele><time>2026-04-18T13:23:18.001Z</time></trkpt><trkpt lat="43.90266041357226" lon="8.075250697062966"><ele>19.75</ele><time>2026-04-18T13:23:19.001Z</time></trkpt><trkpt lat="43.90277653595016" lon="8.075322624843269"><ele>18.5</ele><time>2026-04-18T13:23:20.001Z</time></trkpt><trkpt lat="43.902886953307885" lon="8.075398365431347"><ele>17.25</ele><time>2026-04-18T13:23:21.001Z</time></trkpt><trkpt lat="43.902988428242814" lon="8.075480291984666"><ele>16.0</ele><time>2026-04-18T13:23:22.001Z</time></trkpt><trkpt lat="43.90307991208099" lon="8.075591158576024"><ele>16.0</ele><time>2026-04-18T13:23:23.001Z</time></trkpt><trkpt lat="43.90316565593814" lon="8.075725606155785"><ele>16.0</ele><time>2026-04-18T13:23:24.001Z</time></trkpt><trkpt lat="43.903232791161095" lon="8.075888327829936"><ele>16.0</ele><time>2026-04-18T13:23:25.001Z</time></trkpt><trkpt lat="43.903291696713715" lon="8.076064558834803"><ele>16.0</ele><time>2026-04-18T13:23:26.001Z</time></trkpt><trkpt lat="43.90334648463459" lon="8.076243317828904"><ele>15.0</ele><time>2026-04-18T13:23:27.001Z</time></trkpt><trkpt lat="43.903400391953625" lon="8.076413512390163"><ele>14.0</ele><time>2026-04-18T13:23:28.001Z</time></trkpt><trkpt lat="43.90345214309715" lon="8.076580481913854"><ele>13.0</ele><time>2026-04-18T13:23:29.001Z</time></trkpt><trkpt lat="43.90349898998557" lon="8.076742036781335"><ele>12.0</ele><time>2026-04-18T13:23:30.001Z</time></trkpt><trkpt lat="43.90354735384276" lon="8.076902119783192"><ele>10.75</ele><time>2026-04-18T13:23:31.001Z</time></trkpt><trkpt lat="43.90359851473816" lon="8.077054181634843"><ele>9.5</ele><time>2026-04-18T13:23:32.001Z</time></trkpt><trkpt lat="43.90365694620002" lon="8.077194298350042"><ele>8.25</ele><time>2026-04-18T13:23:33.001Z</time></trkpt><trkpt lat="43.90372238717794" lon="8.077326711164826"><ele>7.0</ele><time>2026-04-18T13:23:34.001Z</time></trkpt><trkpt lat="43.90380063368541" lon="8.077442661519447"><ele>6.75</ele><time>2026-04-18T13:23:35.001Z</time></trkpt><trkpt lat="43.90388834267956" lon="8.077549001696768"><ele>6.5</ele><time>2026-04-18T13:23:36.001Z</time></trkpt><trkpt lat="43.9039904102435" lon="8.07764600740042"><ele>6.25</ele><time>2026-04-18T13:23:37.001Z</time></trkpt><trkpt lat="43.90410077005372" lon="8.077734239874491"><ele>6.0</ele><time>2026-04-18T13:23:38.001Z</time></trkpt><trkpt lat="43.90421119640554" lon="8.077827923467394"><ele>6.25</ele><time>2026-04-18T13:23:39.001Z</time></trkpt><trkpt lat="43.9043257582518" lon="8.077922493358175"><ele>6.5</ele><time>2026-04-18T13:23:40.001Z</time></trkpt><trkpt lat="43.90443976043614" lon="8.078023829705234"><ele>6.75</ele><time>2026-04-18T13:23:41.001Z</time></trkpt><trkpt lat="43.90455187517238" lon="8.078128299274876"><ele>7.0</ele><time>2026-04-18T13:23:42.001Z</time></trkpt><trkpt lat="43.90466281003396" lon="8.078237213832896"><ele>7.0</ele><time>2026-04-18T13:23:43.001Z</time></trkpt><trkpt lat="43.904771330016715" lon="8.078350706200482"><ele>7.0</ele><time>2026-04-18T13:23:44.001Z</time></trkpt><trkpt lat="43.90488298013965" lon="8.078459801299305"><ele>7.0</ele><time>2026-04-18T13:23:45.001Z</time></trkpt><trkpt lat="43.90499071021131" lon="8.078570266302451"><ele>7.0</ele><time>2026-04-18T13:23:46.001Z</time></trkpt><trkpt lat="43.90510135305572" lon="8.078678444998266"><ele>7.25</ele><time>2026-04-18T13:23:47.001Z</time></trkpt><trkpt lat="43.90520618735983" lon="8.078784230966484"><ele>7.5</ele><time>2026-04-18T13:23:48.001Z</time></trkpt><trkpt lat="43.90530276734668" lon="8.078885469298761"><ele>7.75</ele><time>2026-04-18T13:23:49.001Z</time></trkpt><trkpt lat="43.90539723926758" lon="8.078981424469488"><ele>8.0</ele><time>2026-04-18T13:23:50.001Z</time></trkpt><trkpt lat="43.905497790578245" lon="8.079076772332304"><ele>7.75</ele><time>2026-04-18T13:23:51.001Z</time></trkpt><trkpt lat="43.9055990499853" lon="8.079172696153925"><ele>7.5</ele><time>2026-04-18T13:23:52.001Z</time></trkpt><trkpt lat="43.90570256801924" lon="8.079269132816316"><ele>7.25</ele><time>2026-04-18T13:23:53.001Z</time></trkpt><trkpt lat="43.905801413994936" lon="8.079372903746629"><ele>7.0</ele><time>2026-04-18T13:23:54.001Z</time></trkpt><trkpt lat="43.90590114360655" lon="8.079475091848638"><ele>7.0</ele><time>2026-04-18T13:23:55.001Z</time></trkpt><trkpt lat="43.906001496522535" lon="8.079576044183046"><ele>7.0</ele><time>2026-04-18T13:23:56.001Z</time></trkpt><trkpt lat="43.90610619259406" lon="8.079675613176446"><ele>7.0</ele><time>2026-04-18T13:23:57.001Z</time></trkpt><trkpt lat="43.90620802532258" lon="8.079772954399381"><ele>7.0</ele><time>2026-04-18T13:23:58.001Z</time></trkpt><trkpt lat="43.90630962395468" lon="8.079869776081932"><ele>6.8</ele><time>2026-04-18T13:23:59.001Z</time></trkpt><trkpt lat="43.90639810241711" lon="8.079980700572209"><ele>6.6</ele><time>2026-04-18T13:24:00.001Z</time></trkpt><trkpt lat="43.906487299908044" lon="8.08007397846664"><ele>6.3999999999999995</ele><time>2026-04-18T13:24:01.001Z</time></trkpt><trkpt lat="43.90657183199669" lon="8.080162780035463"><ele>6.199999999999999</ele><time>2026-04-18T13:24:02.001Z</time></trkpt><trkpt lat="43.90665162797979" lon="8.080244954400404"><ele>6.0</ele><time>2026-04-18T13:24:03.001Z</time></trkpt><trkpt lat="43.90672458685447" lon="8.08031959428396"><ele>6.333333333333333</ele><time>2026-04-18T13:24:04.001Z</time></trkpt><trkpt lat="43.90679414887595" lon="8.080387935659582"><ele>6.666666666666666</ele><time>2026-04-18T13:24:05.001Z</time></trkpt><trkpt lat="43.90685880515007" lon="8.080453807649883"><ele>7.0</ele><time>2026-04-18T13:24:06.001Z</time></trkpt><trkpt lat="43.90692011725468" lon="8.080515852185993"><ele>7.333333333333333</ele><time>2026-04-18T13:24:07.001Z</time></trkpt><trkpt lat="43.90697231883778" lon="8.080570380753935"><ele>7.666666666666666</ele><time>2026-04-18T13:24:08.001Z</time></trkpt><trkpt lat="43.90704318064252" lon="8.080645795918754"><ele>8.0</ele><time>2026-04-18T13:24:10.001Z</time></trkpt><trkpt lat="43.90709840946395" lon="8.080693856157176"><ele>7.999999999999999</ele><time>2026-04-18T13:24:12.001Z</time></trkpt><trkpt lat="43.90715649225045" lon="8.08074754932099"><ele>8.0</ele><time>2026-04-18T13:24:15.001Z</time></trkpt><trkpt lat="43.90721757888513" lon="8.080792692130611"><ele>8.0</ele><time>2026-04-18T13:24:23Z</time></trkpt><trkpt lat="43.90731182934409" lon="8.080890241299858"><ele>8.0</ele><time>2026-04-18T13:24:25Z</time></trkpt><trkpt lat="43.90736001550539" lon="8.08096838945673"><ele>7.999999999999999</ele><time>2026-04-18T13:24:26Z</time></trkpt><trkpt lat="43.90743369657285" lon="8.081022287809184"><ele>8.0</ele><time>2026-04-18T13:24:27Z</time></trkpt><trkpt lat="43.907505038661064" lon="8.081121821132884"><ele>7.75</ele><time>2026-04-18T13:24:28Z</time></trkpt><trkpt lat="43.907588537629685" lon="8.081210079580721"><ele>7.5</ele><time>2026-04-18T13:24:29Z</time></trkpt><trkpt lat="43.90768052448358" lon="8.08130964968737"><ele>7.25</ele><time>2026-04-18T13:24:30Z</time></trkpt><trkpt lat="43.907783674375615" lon="8.081404989120644"><ele>7.0</ele><time>2026-04-18T13:24:31Z</time></trkpt><trkpt lat="43.90789583395555" lon="8.081521481323357"><ele>7.0</ele><time>2026-04-18T13:24:32Z</time></trkpt><trkpt lat="43.90800521457658" lon="8.081637141768255"><ele>7.0</ele><time>2026-04-18T13:24:33Z</time></trkpt><trkpt lat="43.90811124363133" lon="8.081767663046245"><ele>7.0</ele><time>2026-04-18T13:24:34Z</time></trkpt><trkpt lat="43.90820143100989" lon="8.08189058476764"><ele>7.0</ele><time>2026-04-18T13:24:35Z</time></trkpt><trkpt lat="43.9082894147345" lon="8.082008951568673"><ele>7.0</ele><time>2026-04-18T13:24:36Z</time></trkpt><trkpt lat="43.90838212160462" lon="8.082126233765342"><ele>7.0</ele><time>2026-04-18T13:24:37Z</time></trkpt><trkpt lat="43.908466719237005" lon="8.08224209220127"><ele>7.0</ele><time>2026-04-18T13:24:38Z</time></trkpt><trkpt lat="43.90854296925971" lon="8.082352296131386"><ele>7.0</ele><time>2026-04-18T13:24:39Z</time></trkpt><trkpt lat="43.90861358671675" lon="8.082472913607287"><ele>7.3999999999999995</ele><time>2026-04-18T13:24:40Z</time></trkpt><trkpt lat="43.90868531313985" lon="8.082608795895228"><ele>7.799999999999999</ele><time>2026-04-18T13:24:41Z</time></trkpt><trkpt lat="43.908756373337845" lon="8.082735610301484"><ele>8.2</ele><time>2026-04-18T13:24:42Z</time></trkpt><trkpt lat="43.90882322587376" lon="8.082854065266398"><ele>8.6</ele><time>2026-04-18T13:24:43Z</time></trkpt><trkpt lat="43.90888513810578" lon="8.082959522739959"><ele>9.0</ele><time>2026-04-18T13:24:44Z</time></trkpt><trkpt lat="43.90893328736222" lon="8.08304105104383"><ele>9.0</ele><time>2026-04-18T13:24:45Z</time></trkpt><trkpt lat="43.90899046149254" lon="8.083142473656537"><ele>9.0</ele><time>2026-04-18T13:24:46Z</time></trkpt><trkpt lat="43.9090421450027" lon="8.083232597437517"><ele>9.0</ele><time>2026-04-18T13:24:47Z</time></trkpt><trkpt lat="43.9090842027513" lon="8.083317213228282"><ele>9.0</ele><time>2026-04-18T13:24:48Z</time></trkpt><trkpt lat="43.90913509135635" lon="8.083401259591227"><ele>9.0</ele><time>2026-04-18T13:24:49Z</time></trkpt><trkpt lat="43.909187955671385" lon="8.083497352175156"><ele>9.0</ele><time>2026-04-18T13:24:50Z</time></trkpt><trkpt lat="43.909249903404366" lon="8.083594318886787"><ele>9.0</ele><time>2026-04-18T13:24:51Z</time></trkpt><trkpt lat="43.90931026380651" lon="8.0836959129747"><ele>9.0</ele><time>2026-04-18T13:24:52Z</time></trkpt><trkpt lat="43.909373435958074" lon="8.083799751723918"><ele>9.0</ele><time>2026-04-18T13:24:53Z</time></trkpt><trkpt lat="43.90943759631436" lon="8.08390654401196"><ele>9.0</ele><time>2026-04-18T13:24:54Z</time></trkpt><trkpt lat="43.90949789479811" lon="8.084012988887796"><ele>9.0</ele><time>2026-04-18T13:24:55Z</time></trkpt><trkpt lat="43.90955863168102" lon="8.084110797648757"><ele>8.666666666666666</ele><time>2026-04-18T13:24:56Z</time></trkpt><trkpt lat="43.90959303092817" lon="8.084190379571526"><ele>8.333333333333334</ele><time>2026-04-18T13:24:57Z</time></trkpt><trkpt lat="43.90966511399879" lon="8.084293328722817"><ele>8.0</ele><time>2026-04-18T13:24:59Z</time></trkpt><trkpt lat="43.90969549447695" lon="8.084370962485519"><ele>7.666666666666667</ele><time>2026-04-18T13:25:04Z</time></trkpt><trkpt lat="43.9097356892944" lon="8.084442644414533"><ele>7.333333333333334</ele><time>2026-04-18T13:25:16.001Z</time></trkpt><trkpt lat="43.909843200189265" lon="8.084334700376088"><ele>7.0</ele><time>2026-04-18T13:25:18.001Z</time></trkpt><trkpt lat="43.90992204717636" lon="8.084249821839482"><ele>7.000000000000001</ele><time>2026-04-18T13:25:20.001Z</time></trkpt><trkpt lat="43.909994784237746" lon="8.084172938391314"><ele>7.0</ele><time>2026-04-18T13:25:22.001Z</time></trkpt><trkpt lat="43.91006741157107" lon="8.084095230810195"><ele>7.0</ele><time>2026-04-18T13:25:24.001Z</time></trkpt><trkpt lat="43.9101257194728" lon="8.084032868009967"><ele>7.0</ele><time>2026-04-18T13:25:26.001Z</time></trkpt><trkpt lat="43.910192138536395" lon="8.083981986823046"><ele>7.000000000000001</ele><time>2026-04-18T13:25:30.001Z</time></trkpt><trkpt lat="43.91024510937958" lon="8.083903305262393"><ele>7.0</ele><time>2026-04-18T13:25:56.001Z</time></trkpt><trkpt lat="43.91032587865899" lon="8.083836438309081"><ele>7.333333333333334</ele><time>2026-04-18T13:25:58.001Z</time></trkpt><trkpt lat="43.91039290966114" lon="8.083718505199306"><ele>7.666666666666667</ele><time>2026-04-18T13:26:00.001Z</time></trkpt><trkpt lat="43.91045975491684" lon="8.08366843217924"><ele>8.0</ele><time>2026-04-18T13:26:01.001Z</time></trkpt><trkpt lat="43.91052283237947" lon="8.083617285093895"><ele>8.333333333333334</ele><time>2026-04-18T13:26:02.001Z</time></trkpt><trkpt lat="43.9105688542599" lon="8.083551037805996"><ele>8.666666666666666</ele><time>2026-04-18T13:26:03.001Z</time></trkpt><trkpt lat="43.91066479733932" lon="8.083461797404988"><ele>9.0</ele><time>2026-04-18T13:26:05.001Z</time></trkpt><trkpt lat="43.91074670595967" lon="8.083370806616154"><ele>9.0</ele><time>2026-04-18T13:26:07.001Z</time></trkpt><trkpt lat="43.91078966621325" lon="8.083306873027984"><ele>9.0</ele><time>2026-04-18T13:26:10.001Z</time></trkpt><trkpt lat="43.91084616996175" lon="8.083254169389788"><ele>9.0</ele><time>2026-04-18T13:26:13.001Z</time></trkpt><trkpt lat="43.910908626569714" lon="8.083192080880588"><ele>9.0</ele><time>2026-04-18T13:26:18.001Z</time></trkpt><trkpt lat="43.91095528640156" lon="8.083128431233046"><ele>9.0</ele><time>2026-04-18T13:26:20.001Z</time></trkpt><trkpt lat="43.91103078093693" lon="8.08305694855642"><ele>9.0</ele><time>2026-04-18T13:26:22.001Z</time></trkpt><trkpt lat="43.911134535988296" lon="8.082970689541286"><ele>8.6</ele><time>2026-04-18T13:26:24.001Z</time></trkpt><trkpt lat="43.91123294388433" lon="8.082836743379913"><ele>8.2</ele><time>2026-04-18T13:26:26Z</time></trkpt><trkpt lat="43.91129080477127" lon="8.082773730700202"><ele>7.799999999999999</ele><time>2026-04-18T13:26:27Z</time></trkpt><trkpt lat="43.91135484786706" lon="8.082704234633301"><ele>7.3999999999999995</ele><time>2026-04-18T13:26:28Z</time></trkpt><trkpt lat="43.91144555531144" lon="8.082605803758414"><ele>7.0</ele><time>2026-04-18T13:26:29Z</time></trkpt><trkpt lat="43.91151460830975" lon="8.082530871158221"><ele>7.000000000000001</ele><time>2026-04-18T13:26:30Z</time></trkpt><trkpt lat="43.911591025129994" lon="8.082447947759633"><ele>7.0</ele><time>2026-04-18T13:26:31Z</time></trkpt><trkpt lat="43.91167045616051" lon="8.082361753505008"><ele>7.0</ele><time>2026-04-18T13:26:32Z</time></trkpt><trkpt lat="43.911733171220156" lon="8.082293698484094"><ele>7.0</ele><time>2026-04-18T13:26:33Z</time></trkpt><trkpt lat="43.911795205288215" lon="8.082225968468483"><ele>7.000000000000001</ele><time>2026-04-18T13:26:34Z</time></trkpt><trkpt lat="43.911848633901776" lon="8.082166118832427"><ele>7.0</ele><time>2026-04-18T13:26:35Z</time></trkpt><trkpt lat="43.91190898824896" lon="8.082098511104194"><ele>6.6</ele><time>2026-04-18T13:26:37Z</time></trkpt><trkpt lat="43.912011561606995" lon="8.082290790510175"><ele>6.199999999999999</ele><time>2026-04-18T13:26:40Z</time></trkpt><trkpt lat="43.91205037066297" lon="8.082365825823866"><ele>5.8</ele><time>2026-04-18T13:26:41Z</time></trkpt><trkpt lat="43.912092661699795" lon="8.082448347776952"><ele>5.4</ele><time>2026-04-18T13:26:42Z</time></trkpt><trkpt lat="43.9121287538122" lon="8.082547989671829"><ele>5.0</ele><time>2026-04-18T13:26:43Z</time></trkpt><trkpt lat="43.91215869881481" lon="8.082658331285387"><ele>5.0</ele><time>2026-04-18T13:26:44Z</time></trkpt><trkpt lat="43.912189558305364" lon="8.082766169753823"><ele>5.0</ele><time>2026-04-18T13:26:45Z</time></trkpt><trkpt lat="43.912227492389995" lon="8.082848326548064"><ele>5.0</ele><time>2026-04-18T13:26:46Z</time></trkpt><trkpt lat="43.91230027838904" lon="8.082976186779735"><ele>5.0</ele><time>2026-04-18T13:26:48Z</time></trkpt><trkpt lat="43.9123551253852" lon="8.083065947409938"><ele>5.0</ele><time>2026-04-18T13:26:50Z</time></trkpt><trkpt lat="43.91239467516733" lon="8.08315033615429"><ele>5.0</ele><time>2026-04-18T13:27:15.001Z</time></trkpt><trkpt lat="43.912499119090604" lon="8.083109877932266"><ele>5.0</ele><time>2026-04-18T13:27:17.001Z</time></trkpt><trkpt lat="43.91256419917084" lon="8.083014290655557"><ele>5.0</ele><time>2026-04-18T13:27:18.001Z</time></trkpt><trkpt lat="43.91266283216065" lon="8.082878442650275"><ele>5.0</ele><time>2026-04-18T13:27:20.001Z</time></trkpt><trkpt lat="43.91273982660591" lon="8.082779094285113"><ele>5.0</ele><time>2026-04-18T13:27:21.001Z</time></trkpt><trkpt lat="43.91281986374743" lon="8.082666330636073"><ele>5.0</ele><time>2026-04-18T13:27:22.001Z</time></trkpt><trkpt lat="43.91289643065197" lon="8.082561944780174"><ele>5.0</ele><time>2026-04-18T13:27:23.001Z</time></trkpt><trkpt lat="43.91296889312536" lon="8.082474377996686"><ele>5.0</ele><time>2026-04-18T13:27:24.001Z</time></trkpt><trkpt lat="43.91305171018172" lon="8.082413948429291"><ele>5.0</ele><time>2026-04-18T13:27:25.001Z</time></trkpt><trkpt lat="43.91314108305525" lon="8.082373007366568"><ele>5.0</ele><time>2026-04-18T13:27:26.001Z</time></trkpt><trkpt lat="43.91323235703639" lon="8.08234540485337"><ele>5.0</ele><time>2026-04-18T13:27:27.001Z</time></trkpt><trkpt lat="43.913343886948624" lon="8.082301654189614"><ele>5.0</ele><time>2026-04-18T13:27:28.001Z</time></trkpt><trkpt lat="43.91345807115523" lon="8.082236545497635"><ele>5.0</ele><time>2026-04-18T13:27:29.001Z</time></trkpt><trkpt lat="43.91357078880151" lon="8.08219047554628"><ele>5.0</ele><time>2026-04-18T13:27:30.001Z</time></trkpt><trkpt lat="43.91368757240592" lon="8.082148101327318"><ele>5.25</ele><time>2026-04-18T13:27:31.001Z</time></trkpt><trkpt lat="43.91381754495186" lon="8.082120250522745"><ele>5.5</ele><time>2026-04-18T13:27:32.001Z</time></trkpt><trkpt lat="43.9139376868962" lon="8.082063106978575"><ele>5.75</ele><time>2026-04-18T13:27:33.001Z</time></trkpt><trkpt lat="43.914063215178146" lon="8.081977568098107"><ele>6.0</ele><time>2026-04-18T13:27:34.001Z</time></trkpt><trkpt lat="43.91418144859147" lon="8.081884086579949"><ele>6.5</ele><time>2026-04-18T13:27:35.001Z</time></trkpt><trkpt lat="43.914316234317674" lon="8.081780620821863"><ele>7.0</ele><time>2026-04-18T13:27:36.001Z</time></trkpt><trkpt lat="43.91444237692832" lon="8.081699143877527"><ele>7.5</ele><time>2026-04-18T13:27:37.001Z</time></trkpt><trkpt lat="43.91457350957358" lon="8.081606072172908"><ele>8.0</ele><time>2026-04-18T13:27:38.001Z</time></trkpt><trkpt lat="43.91470989763322" lon="8.081509327043733"><ele>8.0</ele><time>2026-04-18T13:27:39.001Z</time></trkpt><trkpt lat="43.91484019985792" lon="8.081417460366895"><ele>8.0</ele><time>2026-04-18T13:27:40.001Z</time></trkpt><trkpt lat="43.91497635378364" lon="8.081322227842382"><ele>8.0</ele><time>2026-04-18T13:27:41.001Z</time></trkpt><trkpt lat="43.91510914350286" lon="8.08122786096965"><ele>8.0</ele><time>2026-04-18T13:27:42.001Z</time></trkpt><trkpt lat="43.91524603184251" lon="8.081117245035903"><ele>8.25</ele><time>2026-04-18T13:27:43.001Z</time></trkpt><trkpt lat="43.91537751010441" lon="8.08104268866412"><ele>8.5</ele><time>2026-04-18T13:27:44.001Z</time></trkpt><trkpt lat="43.91551464668056" lon="8.080950067215468"><ele>8.75</ele><time>2026-04-18T13:27:45.001Z</time></trkpt><trkpt lat="43.915630914310974" lon="8.080869346633223"><ele>9.0</ele><time>2026-04-18T13:27:46.001Z</time></trkpt><trkpt lat="43.91575574490928" lon="8.080779083645853"><ele>9.25</ele><time>2026-04-18T13:27:47.001Z</time></trkpt><trkpt lat="43.915883979991236" lon="8.080694178652267"><ele>9.5</ele><time>2026-04-18T13:27:48.001Z</time></trkpt><trkpt lat="43.91601165375473" lon="8.080617417438068"><ele>9.75</ele><time>2026-04-18T13:27:49.001Z</time></trkpt><trkpt lat="43.916140547618596" lon="8.08052497361383"><ele>10.0</ele><time>2026-04-18T13:27:50.001Z</time></trkpt><trkpt lat="43.916267695783716" lon="8.080427364461272"><ele>10.0</ele><time>2026-04-18T13:27:51.001Z</time></trkpt><trkpt lat="43.916376728678664" lon="8.080311223908888"><ele>10.0</ele><time>2026-04-18T13:27:52.001Z</time></trkpt><trkpt lat="43.91649259005698" lon="8.080174314515006"><ele>10.0</ele><time>2026-04-18T13:27:53.001Z</time></trkpt><trkpt lat="43.91659534376041" lon="8.080042859362463"><ele>10.0</ele><time>2026-04-18T13:27:54.001Z</time></trkpt><trkpt lat="43.916708235803796" lon="8.079945058497334"><ele>11.0</ele><time>2026-04-18T13:27:55.001Z</time></trkpt><trkpt lat="43.91680676445737" lon="8.079829701175681"><ele>12.0</ele><time>2026-04-18T13:27:56.001Z</time></trkpt><trkpt lat="43.9169128790034" lon="8.079752199152153"><ele>13.0</ele><time>2026-04-18T13:27:57.001Z</time></trkpt><trkpt lat="43.91701494703329" lon="8.079690832253132"><ele>14.0</ele><time>2026-04-18T13:27:58.001Z</time></trkpt><trkpt lat="43.91711352926483" lon="8.079628179327946"><ele>14.0</ele><time>2026-04-18T13:27:59.001Z</time></trkpt><trkpt lat="43.91721496210309" lon="8.079548568975952"><ele>14.0</ele><time>2026-04-18T13:28:00.001Z</time></trkpt><trkpt lat="43.91732669433093" lon="8.079448201715035"><ele>14.0</ele><time>2026-04-18T13:28:01.001Z</time></trkpt><trkpt lat="43.91743033696341" lon="8.079332195440424"><ele>14.0</ele><time>2026-04-18T13:28:02.001Z</time></trkpt><trkpt lat="43.917528063462" lon="8.079187856150112"><ele>14.5</ele><time>2026-04-18T13:28:03.001Z</time></trkpt><trkpt lat="43.91762977059713" lon="8.079039789620841"><ele>15.0</ele><time>2026-04-18T13:28:04.001Z</time></trkpt><trkpt lat="43.917738316252844" lon="8.078899558478936"><ele>15.5</ele><time>2026-04-18T13:28:05.001Z</time></trkpt><trkpt lat="43.91785639069356" lon="8.078766649550094"><ele>16.0</ele><time>2026-04-18T13:28:06.001Z</time></trkpt><trkpt lat="43.9179835014292" lon="8.078642790504228"><ele>16.0</ele><time>2026-04-18T13:28:07.001Z</time></trkpt><trkpt lat="43.91810856394103" lon="8.078524412252474"><ele>16.0</ele><time>2026-04-18T13:28:08.001Z</time></trkpt><trkpt lat="43.91823109644706" lon="8.078419966488806"><ele>16.0</ele><time>2026-04-18T13:28:09.001Z</time></trkpt><trkpt lat="43.91833516126148" lon="8.078345908377246"><ele>16.0</ele><time>2026-04-18T13:28:10.001Z</time></trkpt><trkpt lat="43.91842971793803" lon="8.078285655176483"><ele>16.2</ele><time>2026-04-18T13:28:11.001Z</time></trkpt><trkpt lat="43.918518173494846" lon="8.07822931780992"><ele>16.400000000000002</ele><time>2026-04-18T13:28:12.001Z</time></trkpt><trkpt lat="43.91861356626804" lon="8.078171332773168"><ele>16.6</ele><time>2026-04-18T13:28:13.001Z</time></trkpt><trkpt lat="43.91872394438253" lon="8.078118507369346"><ele>16.8</ele><time>2026-04-18T13:28:14.001Z</time></trkpt><trkpt lat="43.91884175068858" lon="8.078063099738463"><ele>17.0</ele><time>2026-04-18T13:28:15.001Z</time></trkpt><trkpt lat="43.9189782167339" lon="8.078029268905624"><ele>17.0</ele><time>2026-04-18T13:28:16.001Z</time></trkpt><trkpt lat="43.91911494104129" lon="8.07795779855967"><ele>17.0</ele><time>2026-04-18T13:28:17.001Z</time></trkpt><trkpt lat="43.919253771870245" lon="8.07788199041058"><ele>17.0</ele><time>2026-04-18T13:28:18.001Z</time></trkpt><trkpt lat="43.91939606433237" lon="8.077812019902103"><ele>17.0</ele><time>2026-04-18T13:28:19.001Z</time></trkpt><trkpt lat="43.919531439557645" lon="8.077710337912787"><ele>17.0</ele><time>2026-04-18T13:28:20.001Z</time></trkpt><trkpt lat="43.91967559816587" lon="8.077617322153094"><ele>17.0</ele><time>2026-04-18T13:28:21.001Z</time></trkpt><trkpt lat="43.91981462347426" lon="8.077524817374773"><ele>17.0</ele><time>2026-04-18T13:28:22.001Z</time></trkpt><trkpt lat="43.91996497526705" lon="8.077411659618367"><ele>18.0</ele><time>2026-04-18T13:28:23.001Z</time></trkpt><trkpt lat="43.92011519255076" lon="8.07731610157256"><ele>19.0</ele><time>2026-04-18T13:28:24.001Z</time></trkpt><trkpt lat="43.920263600621894" lon="8.077220048535517"><ele>20.0</ele><time>2026-04-18T13:28:25.001Z</time></trkpt><trkpt lat="43.920413496962475" lon="8.07712645176923"><ele>20.0</ele><time>2026-04-18T13:28:26.001Z</time></trkpt><trkpt lat="43.92056211747533" lon="8.077024740959027"><ele>20.0</ele><time>2026-04-18T13:28:27.001Z</time></trkpt><trkpt lat="43.92071388513932" lon="8.076921222395812"><ele>20.0</ele><time>2026-04-18T13:28:28.001Z</time></trkpt><trkpt lat="43.92086413820925" lon="8.076824191178746"><ele>20.5</ele><time>2026-04-18T13:28:29.001Z</time></trkpt><trkpt lat="43.921011288584744" lon="8.076725923044412"><ele>21.0</ele><time>2026-04-18T13:28:30.001Z</time></trkpt><trkpt lat="43.921140891816876" lon="8.076643921105118"><ele>21.5</ele><time>2026-04-18T13:28:31.001Z</time></trkpt><trkpt lat="43.92125276019984" lon="8.076572448098776"><ele>22.0</ele><time>2026-04-18T13:28:32Z</time></trkpt><trkpt lat="43.921353746933676" lon="8.076493887004208"><ele>22.0</ele><time>2026-04-18T13:28:33Z</time></trkpt><trkpt lat="43.92145615303542" lon="8.076428362781204"><ele>22.0</ele><time>2026-04-18T13:28:34Z</time></trkpt><trkpt lat="43.92157557878234" lon="8.076367848297666"><ele>22.0</ele><time>2026-04-18T13:28:35Z</time></trkpt><trkpt lat="43.921692924130255" lon="8.076299873851433"><ele>22.0</ele><time>2026-04-18T13:28:36Z</time></trkpt><trkpt lat="43.92181159222964" lon="8.076238299367336"><ele>23.0</ele><time>2026-04-18T13:28:37Z</time></trkpt><trkpt lat="43.921929525101326" lon="8.076190679308084"><ele>24.0</ele><time>2026-04-18T13:28:38Z</time></trkpt><trkpt lat="43.922056830906406" lon="8.076139427874123"><ele>25.0</ele><time>2026-04-18T13:28:39Z</time></trkpt><trkpt lat="43.92218083397422" lon="8.076080725718992"><ele>26.0</ele><time>2026-04-18T13:28:40Z</time></trkpt><trkpt lat="43.922285708275005" lon="8.075988471905692"><ele>26.0</ele><time>2026-04-18T13:28:41Z</time></trkpt><trkpt lat="43.922381825320876" lon="8.075883630809338"><ele>26.0</ele><time>2026-04-18T13:28:42Z</time></trkpt><trkpt lat="43.92247533659233" lon="8.075791490970557"><ele>26.0</ele><time>2026-04-18T13:28:43Z</time></trkpt><trkpt lat="43.92257899474103" lon="8.075720969420566"><ele>26.0</ele><time>2026-04-18T13:28:44Z</time></trkpt><trkpt lat="43.92268581495646" lon="8.075682014211175"><ele>25.75</ele><time>2026-04-18T13:28:45Z</time></trkpt><trkpt lat="43.92280951266065" lon="8.07562418945729"><ele>25.5</ele><time>2026-04-18T13:28:46Z</time></trkpt><trkpt lat="43.92293974943851" lon="8.075580738681559"><ele>25.25</ele><time>2026-04-18T13:28:47Z</time></trkpt><trkpt lat="43.923076128991525" lon="8.075540152222619"><ele>25.0</ele><time>2026-04-18T13:28:48Z</time></trkpt><trkpt lat="43.92319874736646" lon="8.075507572089329"><ele>25.0</ele><time>2026-04-18T13:28:49Z</time></trkpt><trkpt lat="43.92331414254496" lon="8.075470013470333"><ele>25.0</ele><time>2026-04-18T13:28:50Z</time></trkpt><trkpt lat="43.9234191026531" lon="8.075410678109117"><ele>25.0</ele><time>2026-04-18T13:28:51Z</time></trkpt><trkpt lat="43.92352410800664" lon="8.075324488427405"><ele>25.0</ele><time>2026-04-18T13:28:52Z</time></trkpt><trkpt lat="43.92362557838239" lon="8.075244976296009"><ele>25.5</ele><time>2026-04-18T13:28:53Z</time></trkpt><trkpt lat="43.9237256035013" lon="8.07516638353707"><ele>26.0</ele><time>2026-04-18T13:28:54Z</time></trkpt><trkpt lat="43.923823122383716" lon="8.075086445195383"><ele>26.5</ele><time>2026-04-18T13:28:55Z</time></trkpt><trkpt lat="43.9239215895042" lon="8.075015171344807"><ele>27.0</ele><time>2026-04-18T13:28:56Z</time></trkpt><trkpt lat="43.92402515157584" lon="8.074919370704846"><ele>27.0</ele><time>2026-04-18T13:28:57Z</time></trkpt><trkpt lat="43.92410550935571" lon="8.074805487600134"><ele>27.0</ele><time>2026-04-18T13:28:58Z</time></trkpt><trkpt lat="43.92417635137309" lon="8.074676826423907"><ele>27.0</ele><time>2026-04-18T13:28:59Z</time></trkpt><trkpt lat="43.92423552081695" lon="8.074528427836961"><ele>27.0</ele><time>2026-04-18T13:29:00Z</time></trkpt><trkpt lat="43.92429606246705" lon="8.074356007638738"><ele>27.5</ele><time>2026-04-18T13:29:01Z</time></trkpt><trkpt lat="43.924365918580534" lon="8.074167323446442"><ele>28.0</ele><time>2026-04-18T13:29:02Z</time></trkpt><trkpt lat="43.92442366241579" lon="8.074018248598877"><ele>28.5</ele><time>2026-04-18T13:29:03Z</time></trkpt><trkpt lat="43.92446006973101" lon="8.073828168206743"><ele>29.0</ele><time>2026-04-18T13:29:04Z</time></trkpt><trkpt lat="43.9245034723671" lon="8.073646155825523"><ele>29.25</ele><time>2026-04-18T13:29:05Z</time></trkpt><trkpt lat="43.924544584141394" lon="8.0734655431489"><ele>29.5</ele><time>2026-04-18T13:29:06Z</time></trkpt><trkpt lat="43.92459072425252" lon="8.07329034153709"><ele>29.75</ele><time>2026-04-18T13:29:07Z</time></trkpt><trkpt lat="43.9246472088824" lon="8.073124345513426"><ele>30.0</ele><time>2026-04-18T13:29:08Z</time></trkpt><trkpt lat="43.9247203227192" lon="8.072958507905273"><ele>30.25</ele><time>2026-04-18T13:29:09Z</time></trkpt><trkpt lat="43.92480349382115" lon="8.072789340221108"><ele>30.5</ele><time>2026-04-18T13:29:10Z</time></trkpt><trkpt lat="43.924906619166485" lon="8.072632118711901"><ele>30.75</ele><time>2026-04-18T13:29:11Z</time></trkpt><trkpt lat="43.92502442806258" lon="8.072519110454925"><ele>31.0</ele><time>2026-04-18T13:29:12Z</time></trkpt><trkpt lat="43.92514715450135" lon="8.072379943310743"><ele>31.666666666666668</ele><time>2026-04-18T13:29:13Z</time></trkpt><trkpt lat="43.92527432414045" lon="8.072251571557832"><ele>32.333333333333336</ele><time>2026-04-18T13:29:14.001Z</time></trkpt><trkpt lat="43.92541045519395" lon="8.072148532899291"><ele>33.0</ele><time>2026-04-18T13:29:15.001Z</time></trkpt><trkpt lat="43.925535423677175" lon="8.072061619107753"><ele>33.0</ele><time>2026-04-18T13:29:16.001Z</time></trkpt><trkpt lat="43.92565642549578" lon="8.071986391585154"><ele>33.0</ele><time>2026-04-18T13:29:17.001Z</time></trkpt><trkpt lat="43.925788762757094" lon="8.07190550654678"><ele>33.0</ele><time>2026-04-18T13:29:18.001Z</time></trkpt><trkpt lat="43.92592811019242" lon="8.071872882102475"><ele>33.0</ele><time>2026-04-18T13:29:19.001Z</time></trkpt><trkpt lat="43.926071285433416" lon="8.071840207357495"><ele>33.25</ele><time>2026-04-18T13:29:20.001Z</time></trkpt><trkpt lat="43.92621487091314" lon="8.07184381933604"><ele>33.5</ele><time>2026-04-18T13:29:21.001Z</time></trkpt><trkpt lat="43.92635150341228" lon="8.07184646377854"><ele>33.75</ele><time>2026-04-18T13:29:22.001Z</time></trkpt><trkpt lat="43.92649154155644" lon="8.071866311347149"><ele>34.0</ele><time>2026-04-18T13:29:23.001Z</time></trkpt><trkpt lat="43.92661691095945" lon="8.071870986506246"><ele>35.25</ele><time>2026-04-18T13:29:24.001Z</time></trkpt><trkpt lat="43.92674420691679" lon="8.071828636784993"><ele>36.5</ele><time>2026-04-18T13:29:25.001Z</time></trkpt><trkpt lat="43.92687063931291" lon="8.071764796217076"><ele>37.75</ele><time>2026-04-18T13:29:26.001Z</time></trkpt><trkpt lat="43.92699308187614" lon="8.071700073778459"><ele>39.0</ele><time>2026-04-18T13:29:27.001Z</time></trkpt><trkpt lat="43.92711054875542" lon="8.071651482458872"><ele>39.0</ele><time>2026-04-18T13:29:28.001Z</time></trkpt><trkpt lat="43.92723659540792" lon="8.071635280813585"><ele>39.0</ele><time>2026-04-18T13:29:29.001Z</time></trkpt><trkpt lat="43.927369366342" lon="8.071626079004195"><ele>39.0</ele><time>2026-04-18T13:29:30.001Z</time></trkpt><trkpt lat="43.92750223124086" lon="8.071571665836652"><ele>39.0</ele><time>2026-04-18T13:29:31.001Z</time></trkpt><trkpt lat="43.927630920013335" lon="8.07150694530538"><ele>39.5</ele><time>2026-04-18T13:29:32.001Z</time></trkpt><trkpt lat="43.92774110069014" lon="8.071420207669114"><ele>40.0</ele><time>2026-04-18T13:29:33.001Z</time></trkpt><trkpt lat="43.927824626960145" lon="8.071299206257228"><ele>40.5</ele><time>2026-04-18T13:29:34.001Z</time></trkpt><trkpt lat="43.92790700558582" lon="8.071157444148195"><ele>41.0</ele><time>2026-04-18T13:29:35.001Z</time></trkpt><trkpt lat="43.92799767027721" lon="8.071016291872025"><ele>41.0</ele><time>2026-04-18T13:29:36.001Z</time></trkpt><trkpt lat="43.92808954598226" lon="8.070884024356161"><ele>41.0</ele><time>2026-04-18T13:29:37.001Z</time></trkpt><trkpt lat="43.92819945441337" lon="8.070779092598602"><ele>41.0</ele><time>2026-04-18T13:29:38.001Z</time></trkpt><trkpt lat="43.928300088609554" lon="8.07068608179604"><ele>41.0</ele><time>2026-04-18T13:29:39.001Z</time></trkpt><trkpt lat="43.92840248564116" lon="8.070610243948423"><ele>41.75</ele><time>2026-04-18T13:29:40.001Z</time></trkpt><trkpt lat="43.92851801279315" lon="8.070556267684367"><ele>42.5</ele><time>2026-04-18T13:29:41.001Z</time></trkpt><trkpt lat="43.92864286841473" lon="8.070497693234966"><ele>43.25</ele><time>2026-04-18T13:29:42.001Z</time></trkpt><trkpt lat="43.928758419420284" lon="8.070422888313818"><ele>44.0</ele><time>2026-04-18T13:29:43.001Z</time></trkpt><trkpt lat="43.92887142989886" lon="8.070377394510963"><ele>44.0</ele><time>2026-04-18T13:29:44.001Z</time></trkpt><trkpt lat="43.928975228631124" lon="8.070331676953087"><ele>44.0</ele><time>2026-04-18T13:29:45.001Z</time></trkpt><trkpt lat="43.92905383786284" lon="8.07028469822413"><ele>44.0</ele><time>2026-04-18T13:29:46.001Z</time></trkpt><trkpt lat="43.92914481015079" lon="8.070244043488533"><ele>44.0</ele><time>2026-04-18T13:29:47.001Z</time></trkpt><trkpt lat="43.92925175200618" lon="8.070182081232907"><ele>44.0</ele><time>2026-04-18T13:29:48.001Z</time></trkpt><trkpt lat="43.92935477884502" lon="8.070131332123683"><ele>44.25</ele><time>2026-04-18T13:29:49.001Z</time></trkpt><trkpt lat="43.929457729146655" lon="8.070074128920547"><ele>44.5</ele><time>2026-04-18T13:29:50.001Z</time></trkpt><trkpt lat="43.9295582024857" lon="8.069962131326221"><ele>44.75</ele><time>2026-04-18T13:29:51.001Z</time></trkpt><trkpt lat="43.92966535488452" lon="8.069885101620333"><ele>45.0</ele><time>2026-04-18T13:29:52.001Z</time></trkpt><trkpt lat="43.92976596194319" lon="8.069800521665993"><ele>45.0</ele><time>2026-04-18T13:29:53.001Z</time></trkpt><trkpt lat="43.92986939340832" lon="8.069718194456211"><ele>45.0</ele><time>2026-04-18T13:29:54.001Z</time></trkpt><trkpt lat="43.92998199014281" lon="8.069622138199962"><ele>45.0</ele><time>2026-04-18T13:29:55.001Z</time></trkpt><trkpt lat="43.93006145161568" lon="8.06954789353542"><ele>45.0</ele><time>2026-04-18T13:29:56.001Z</time></trkpt><trkpt lat="43.93014954394554" lon="8.06947454911073"><ele>46.4</ele><time>2026-04-18T13:29:57.001Z</time></trkpt><trkpt lat="43.93023980146489" lon="8.069422588497323"><ele>47.8</ele><time>2026-04-18T13:29:58.001Z</time></trkpt><trkpt lat="43.93029810940826" lon="8.069387199392002"><ele>49.2</ele><time>2026-04-18T13:29:59.001Z</time></trkpt><trkpt lat="43.930376363625925" lon="8.069327824978345"><ele>50.6</ele><time>2026-04-18T13:30:01.001Z</time></trkpt><trkpt lat="43.93038704547372" lon="8.069502179467598"><ele>52.0</ele><time>2026-04-18T13:30:05.001Z</time></trkpt><trkpt lat="43.93036199489237" lon="8.069617647868041"><ele>51.99999999999999</ele><time>2026-04-18T13:30:06.001Z</time></trkpt><trkpt lat="43.93033867870867" lon="8.069728234431539"><ele>52.0</ele><time>2026-04-18T13:30:07.001Z</time></trkpt><trkpt lat="43.93031175717205" lon="8.069835247063795"><ele>52.0</ele><time>2026-04-18T13:30:08.001Z</time></trkpt><trkpt lat="43.930278976278814" lon="8.06994299699233"><ele>52.0</ele><time>2026-04-18T13:30:09.001Z</time></trkpt><trkpt lat="43.9302355952288" lon="8.070058428038504"><ele>51.99999999999999</ele><time>2026-04-18T13:30:10.001Z</time></trkpt><trkpt lat="43.93016916848193" lon="8.070128978817577"><ele>52.0</ele><time>2026-04-18T13:30:11.001Z</time></trkpt><trkpt lat="43.930083125566874" lon="8.070190147438288"><ele>52.0</ele><time>2026-04-18T13:30:12.001Z</time></trkpt><trkpt lat="43.929981609269575" lon="8.07024353154678"><ele>52.0</ele><time>2026-04-18T13:30:13.001Z</time></trkpt><trkpt lat="43.92988897132339" lon="8.07032537351901"><ele>52.0</ele><time>2026-04-18T13:30:14.001Z</time></trkpt><trkpt lat="43.929786847341596" lon="8.070382274233545"><ele>52.0</ele><time>2026-04-18T13:30:15.001Z</time></trkpt><trkpt lat="43.92970198146876" lon="8.070437741559843"><ele>52.0</ele><time>2026-04-18T13:30:16.001Z</time></trkpt><trkpt lat="43.929638198448934" lon="8.070489620228875"><ele>51.99999999999999</ele><time>2026-04-18T13:30:17.001Z</time></trkpt><trkpt lat="43.929587808345076" lon="8.070565022838036"><ele>52.0</ele><time>2026-04-18T13:30:18.001Z</time></trkpt><trkpt lat="43.929556924980425" lon="8.07066791680405"><ele>52.0</ele><time>2026-04-18T13:30:19.001Z</time></trkpt><trkpt lat="43.929535565804656" lon="8.070795650940815"><ele>52.0</ele><time>2026-04-18T13:30:20.001Z</time></trkpt><trkpt lat="43.929516379643275" lon="8.070918980678645"><ele>51.99999999999999</ele><time>2026-04-18T13:30:21.001Z</time></trkpt><trkpt lat="43.92949593372154" lon="8.07104211697498"><ele>52.0</ele><time>2026-04-18T13:30:22.001Z</time></trkpt><trkpt lat="43.92946863854013" lon="8.071154810352684"><ele>54.6</ele><time>2026-04-18T13:30:23.001Z</time></trkpt><trkpt lat="43.929441141490045" lon="8.07127781953729"><ele>57.2</ele><time>2026-04-18T13:30:24.001Z</time></trkpt><trkpt lat="43.929426402302965" lon="8.071415943382698"><ele>59.8</ele><time>2026-04-18T13:30:25.001Z</time></trkpt><trkpt lat="43.92942177319731" lon="8.071566040765546"><ele>62.4</ele><time>2026-04-18T13:30:26.001Z</time></trkpt><trkpt lat="43.92943597951938" lon="8.071720196862502"><ele>65.0</ele><time>2026-04-18T13:30:27.001Z</time></trkpt><trkpt lat="43.92943182601979" lon="8.071864144808517"><ele>66.5</ele><time>2026-04-18T13:30:28.001Z</time></trkpt><trkpt lat="43.929436639608284" lon="8.07198694248027"><ele>68.0</ele><time>2026-04-18T13:30:29.001Z</time></trkpt><trkpt lat="43.929438432741144" lon="8.072094600172136"><ele>69.5</ele><time>2026-04-18T13:30:30.001Z</time></trkpt><trkpt lat="43.929380173339716" lon="8.072164889303016"><ele>71.0</ele><time>2026-04-18T13:30:31.001Z</time></trkpt><trkpt lat="43.92933731023232" lon="8.072229761241868"><ele>72.5</ele><time>2026-04-18T13:30:32.001Z</time></trkpt><trkpt lat="43.929342188674276" lon="8.072351691448043"><ele>74.0</ele><time>2026-04-18T13:30:34.001Z</time></trkpt><trkpt lat="43.92941962185224" lon="8.072390342080427"><ele>74.0</ele><time>2026-04-18T13:30:36.001Z</time></trkpt><trkpt lat="43.92954327447797" lon="8.072297005779102"><ele>74.0</ele><time>2026-04-18T13:30:38Z</time></trkpt><trkpt lat="43.92958913900362" lon="8.07220949254723"><ele>74.0</ele><time>2026-04-18T13:30:39Z</time></trkpt><trkpt lat="43.92961668288323" lon="8.072089726357925"><ele>74.0</ele><time>2026-04-18T13:30:40Z</time></trkpt><trkpt lat="43.92962682239701" lon="8.071953357708074"><ele>74.0</ele><time>2026-04-18T13:30:41Z</time></trkpt><trkpt lat="43.92965302423413" lon="8.071807967249581"><ele>74.0</ele><time>2026-04-18T13:30:42Z</time></trkpt><trkpt lat="43.929691107334364" lon="8.071674722486721"><ele>74.0</ele><time>2026-04-18T13:30:43Z</time></trkpt><trkpt lat="43.92973234841957" lon="8.071527367839138"><ele>74.0</ele><time>2026-04-18T13:30:44Z</time></trkpt><trkpt lat="43.929770747318464" lon="8.071394453460474"><ele>74.0</ele><time>2026-04-18T13:30:45Z</time></trkpt><trkpt lat="43.92980776260551" lon="8.071289670979999"><ele>74.0</ele><time>2026-04-18T13:30:46Z</time></trkpt><trkpt lat="43.929887875917366" lon="8.071191938523466"><ele>74.0</ele><time>2026-04-18T13:30:48Z</time></trkpt><trkpt lat="43.92992895116119" lon="8.071265467533609"><ele>74.0</ele><time>2026-04-18T13:30:50Z</time></trkpt><trkpt lat="43.92990561807672" lon="8.071385354141766"><ele>74.0</ele><time>2026-04-18T13:30:52Z</time></trkpt><trkpt lat="43.92988539668638" lon="8.071492690371498"><ele>74.0</ele><time>2026-04-18T13:30:53Z</time></trkpt><trkpt lat="43.929856988968545" lon="8.071600486352072"><ele>74.0</ele><time>2026-04-18T13:30:54Z</time></trkpt><trkpt lat="43.92983432643558" lon="8.071725254410167"><ele>74.0</ele><time>2026-04-18T13:30:55Z</time></trkpt><trkpt lat="43.92982870827812" lon="8.071860592251586"><ele>74.0</ele><time>2026-04-18T13:30:56Z</time></trkpt><trkpt lat="43.929850781638464" lon="8.071996221672379"><ele>74.0</ele><time>2026-04-18T13:30:57Z</time></trkpt><trkpt lat="43.92988996662611" lon="8.07213958887654"><ele>74.0</ele><time>2026-04-18T13:30:58Z</time></trkpt><trkpt lat="43.929909756267975" lon="8.072294823153495"><ele>74.0</ele><time>2026-04-18T13:30:59Z</time></trkpt><trkpt lat="43.92994116391933" lon="8.072440480050618"><ele>74.0</ele><time>2026-04-18T13:31:00Z</time></trkpt><trkpt lat="43.92996271993158" lon="8.072568771623551"><ele>74.66666666666667</ele><time>2026-04-18T13:31:01Z</time></trkpt><trkpt lat="43.929978972389755" lon="8.07268489175924"><ele>75.33333333333334</ele><time>2026-04-18T13:31:02Z</time></trkpt><trkpt lat="43.929957101194155" lon="8.072798466633516"><ele>76.0</ele><time>2026-04-18T13:31:03Z</time></trkpt><trkpt lat="43.92991036061046" lon="8.072881794485706"><ele>76.66666666666667</ele><time>2026-04-18T13:31:04Z</time></trkpt><trkpt lat="43.92984196554702" lon="8.072933986537501"><ele>77.33333333333333</ele><time>2026-04-18T13:31:05Z</time></trkpt><trkpt lat="43.92975854061393" lon="8.073010533122876"><ele>78.0</ele><time>2026-04-18T13:31:07Z</time></trkpt><trkpt lat="43.929796196004" lon="8.073126060607915"><ele>78.0</ele><time>2026-04-18T13:31:09Z</time></trkpt><trkpt lat="43.92985889052344" lon="8.07315012912073"><ele>78.0</ele><time>2026-04-18T13:31:10Z</time></trkpt><trkpt lat="43.9299436788581" lon="8.073132879262166"><ele>78.0</ele><time>2026-04-18T13:31:11Z</time></trkpt><trkpt lat="43.930028936575646" lon="8.073112233288962"><ele>78.0</ele><time>2026-04-18T13:31:12Z</time></trkpt><trkpt lat="43.9301160307677" lon="8.073097494852396"><ele>78.0</ele><time>2026-04-18T13:31:13Z</time></trkpt><trkpt lat="43.9302030763808" lon="8.073083038352337"><ele>78.0</ele><time>2026-04-18T13:31:14Z</time></trkpt><trkpt lat="43.930274906510384" lon="8.07306444498651"><ele>79.5</ele><time>2026-04-18T13:31:15Z</time></trkpt><trkpt lat="43.930335729671235" lon="8.073023560709563"><ele>81.0</ele><time>2026-04-18T13:31:16Z</time></trkpt><trkpt lat="43.93037351585583" lon="8.072938027438273"><ele>82.5</ele><time>2026-04-18T13:31:17Z</time></trkpt><trkpt lat="43.93040161717547" lon="8.072830257142233"><ele>84.0</ele><time>2026-04-18T13:31:18Z</time></trkpt><trkpt lat="43.93041066979327" lon="8.07269877343144"><ele>85.5</ele><time>2026-04-18T13:31:19Z</time></trkpt><trkpt lat="43.930420634650844" lon="8.072562602705643"><ele>87.0</ele><time>2026-04-18T13:31:20Z</time></trkpt><trkpt lat="43.93043464672532" lon="8.072424766244259"><ele>87.0</ele><time>2026-04-18T13:31:21Z</time></trkpt><trkpt lat="43.93045145092783" lon="8.072297583361145"><ele>87.0</ele><time>2026-04-18T13:31:22Z</time></trkpt><trkpt lat="43.93047184057292" lon="8.072199539986014"><ele>87.0</ele><time>2026-04-18T13:31:23Z</time></trkpt><trkpt lat="43.93050044676463" lon="8.072107170244678"><ele>87.0</ele><time>2026-04-18T13:31:24Z</time></trkpt><trkpt lat="43.930531195073485" lon="8.072023066283936"><ele>87.0</ele><time>2026-04-18T13:31:25Z</time></trkpt><trkpt lat="43.93058786603744" lon="8.07196577870318"><ele>87.0</ele><time>2026-04-18T13:31:26Z</time></trkpt><trkpt lat="43.930652261647865" lon="8.071940868573442"><ele>87.0</ele><time>2026-04-18T13:31:27Z</time></trkpt><trkpt lat="43.93077318918467" lon="8.071946437444806"><ele>87.0</ele><time>2026-04-18T13:31:29Z</time></trkpt><trkpt lat="43.93085685352771" lon="8.071973755061252"><ele>87.0</ele><time>2026-04-18T13:31:30Z</time></trkpt><trkpt lat="43.93095263451151" lon="8.072002314728545"><ele>87.0</ele><time>2026-04-18T13:31:31Z</time></trkpt><trkpt lat="43.93105615660235" lon="8.072016122611283"><ele>87.0</ele><time>2026-04-18T13:31:32Z</time></trkpt><trkpt lat="43.93117252078951" lon="8.072038141407342"><ele>87.0</ele><time>2026-04-18T13:31:33Z</time></trkpt><trkpt lat="43.93129406936257" lon="8.072064091164608"><ele>87.0</ele><time>2026-04-18T13:31:34Z</time></trkpt><trkpt lat="43.931409056337294" lon="8.072085294210439"><ele>87.0</ele><time>2026-04-18T13:31:35Z</time></trkpt><trkpt lat="43.931528520026006" lon="8.072110215750094"><ele>87.0</ele><time>2026-04-18T13:31:36Z</time></trkpt><trkpt lat="43.93164347631489" lon="8.072131139828096"><ele>87.0</ele><time>2026-04-18T13:31:37Z</time></trkpt><trkpt lat="43.93174745201974" lon="8.072159731459635"><ele>87.33333333333333</ele><time>2026-04-18T13:31:38Z</time></trkpt><trkpt lat="43.93183683233131" lon="8.072192391550951"><ele>87.66666666666667</ele><time>2026-04-18T13:31:39Z</time></trkpt><trkpt lat="43.931910355600934" lon="8.072231209075994"><ele>88.0</ele><time>2026-04-18T13:31:40Z</time></trkpt><trkpt lat="43.931994572143815" lon="8.07233442842305"><ele>88.33333333333334</ele><time>2026-04-18T13:31:42Z</time></trkpt><trkpt lat="43.93201577681083" lon="8.072436225930804"><ele>88.66666666666667</ele><time>2026-04-18T13:31:44.001Z</time></trkpt><trkpt lat="43.93196441791774" lon="8.0725122439775"><ele>89.0</ele><time>2026-04-18T13:31:46.001Z</time></trkpt><trkpt lat="43.931872465116754" lon="8.072426860171351"><ele>89.0</ele><time>2026-04-18T13:31:47.001Z</time></trkpt><trkpt lat="43.93183435318688" lon="8.072340613520243"><ele>89.0</ele><time>2026-04-18T13:31:48.001Z</time></trkpt><trkpt lat="43.931767111932885" lon="8.072260716045724"><ele>89.0</ele><time>2026-04-18T13:31:49.001Z</time></trkpt><trkpt lat="43.93168840246896" lon="8.07222975389145"><ele>89.0</ele><time>2026-04-18T13:31:50.001Z</time></trkpt><trkpt lat="43.93161918808533" lon="8.072223882659019"><ele>89.0</ele><time>2026-04-18T13:31:51.001Z</time></trkpt><trkpt lat="43.93154027522595" lon="8.07224841411634"><ele>89.0</ele><time>2026-04-18T13:31:52.001Z</time></trkpt><trkpt lat="43.93146287415728" lon="8.072307214561876"><ele>88.6</ele><time>2026-04-18T13:31:53.001Z</time></trkpt><trkpt lat="43.93139618644324" lon="8.072388594478916"><ele>88.2</ele><time>2026-04-18T13:31:54.001Z</time></trkpt><trkpt lat="43.931331813334275" lon="8.072495577256053"><ele>87.8</ele><time>2026-04-18T13:31:55.001Z</time></trkpt><trkpt lat="43.93126066427303" lon="8.07260075045692"><ele>87.39999999999999</ele><time>2026-04-18T13:31:56.001Z</time></trkpt><trkpt lat="43.93118592472142" lon="8.072704865890936"><ele>87.0</ele><time>2026-04-18T13:31:57.001Z</time></trkpt><trkpt lat="43.93111902553142" lon="8.072797963901868"><ele>90.19999999999999</ele><time>2026-04-18T13:31:58.001Z</time></trkpt><trkpt lat="43.93107627304871" lon="8.072886115706101"><ele>93.4</ele><time>2026-04-18T13:31:59.001Z</time></trkpt><trkpt lat="43.93104566271279" lon="8.072974817538343"><ele>96.6</ele><time>2026-04-18T13:32:00.001Z</time></trkpt><trkpt lat="43.93107646365369" lon="8.073151508620233"><ele>99.80000000000001</ele><time>2026-04-18T13:32:02.001Z</time></trkpt><trkpt lat="43.93113487796181" lon="8.073249703431513"><ele>103.0</ele><time>2026-04-18T13:32:03.001Z</time></trkpt><trkpt lat="43.931191979174876" lon="8.073365465780414"><ele>105.80000000000001</ele><time>2026-04-18T13:32:04.001Z</time></trkpt><trkpt lat="43.93123903435502" lon="8.073496044753183"><ele>108.6</ele><time>2026-04-18T13:32:05.001Z</time></trkpt><trkpt lat="43.93127652090643" lon="8.073627230853392"><ele>111.39999999999999</ele><time>2026-04-18T13:32:06.001Z</time></trkpt><trkpt lat="43.93128977327268" lon="8.073762898022913"><ele>114.19999999999999</ele><time>2026-04-18T13:32:07.001Z</time></trkpt><trkpt lat="43.931275765429916" lon="8.073894393477818"><ele>117.0</ele><time>2026-04-18T13:32:08.001Z</time></trkpt><trkpt lat="43.93121306083891" lon="8.073988408352914"><ele>117.0</ele><time>2026-04-18T13:32:09.001Z</time></trkpt><trkpt lat="43.93112592046768" lon="8.074071473989159"><ele>117.0</ele><time>2026-04-18T13:32:10.001Z</time></trkpt><trkpt lat="43.93102563510103" lon="8.074130590208076"><ele>117.0</ele><time>2026-04-18T13:32:11.001Z</time></trkpt><trkpt lat="43.93091441602433" lon="8.074187356374496"><ele>117.0</ele><time>2026-04-18T13:32:12.001Z</time></trkpt><trkpt lat="43.93080022179913" lon="8.074249879235278"><ele>115.6</ele><time>2026-04-18T13:32:13.001Z</time></trkpt><trkpt lat="43.930698558075434" lon="8.074310765453315"><ele>114.19999999999999</ele><time>2026-04-18T13:32:14.001Z</time></trkpt><trkpt lat="43.93060579235043" lon="8.074370028498784"><ele>112.8</ele><time>2026-04-18T13:32:15.001Z</time></trkpt><trkpt lat="43.93053703903102" lon="8.074422497280034"><ele>111.4</ele><time>2026-04-18T13:32:16.001Z</time></trkpt><trkpt lat="43.93049632247188" lon="8.074496822580368"><ele>110.0</ele><time>2026-04-18T13:32:17.001Z</time></trkpt><trkpt lat="43.930520187967275" lon="8.074644163943091"><ele>110.0</ele><time>2026-04-18T13:32:19.001Z</time></trkpt><trkpt lat="43.93056171914091" lon="8.074725058140471"><ele>110.0</ele><time>2026-04-18T13:32:21.001Z</time></trkpt><trkpt lat="43.93067311623471" lon="8.074630551683288"><ele>110.0</ele><time>2026-04-18T13:32:22.001Z</time></trkpt><trkpt lat="43.93074440713343" lon="8.074584893364216"><ele>110.0</ele><time>2026-04-18T13:32:23.001Z</time></trkpt><trkpt lat="43.9308193216541" lon="8.074535623118296"><ele>110.0</ele><time>2026-04-18T13:32:24.001Z</time></trkpt><trkpt lat="43.93090761323296" lon="8.074510366929308"><ele>113.2</ele><time>2026-04-18T13:32:25.001Z</time></trkpt><trkpt lat="43.93101759474527" lon="8.07449571993089"><ele>116.4</ele><time>2026-04-18T13:32:26.001Z</time></trkpt><trkpt lat="43.93112681567002" lon="8.074482726844506"><ele>119.6</ele><time>2026-04-18T13:32:27.001Z</time></trkpt><trkpt lat="43.93122787838021" lon="8.074470704251507"><ele>122.8</ele><time>2026-04-18T13:32:28.001Z</time></trkpt><trkpt lat="43.931326206104245" lon="8.074439970653216"><ele>126.0</ele><time>2026-04-18T13:32:29.001Z</time></trkpt><trkpt lat="43.93141008613112" lon="8.074433264514322"><ele>126.0</ele><time>2026-04-18T13:32:30.001Z</time></trkpt><trkpt lat="43.93149113872969" lon="8.074429355905474"><ele>126.0</ele><time>2026-04-18T13:32:31.001Z</time></trkpt><trkpt lat="43.93155683503729" lon="8.07436016892932"><ele>126.0</ele><time>2026-04-18T13:32:32.001Z</time></trkpt><trkpt lat="43.93162008715457" lon="8.074260840934912"><ele>126.0</ele><time>2026-04-18T13:32:33.001Z</time></trkpt><trkpt lat="43.931665386311195" lon="8.074133125965485"><ele>126.0</ele><time>2026-04-18T13:32:34.001Z</time></trkpt><trkpt lat="43.93173020035943" lon="8.074018822111976"><ele>125.0</ele><time>2026-04-18T13:32:35.001Z</time></trkpt><trkpt lat="43.93178964813008" lon="8.073894574500514"><ele>124.0</ele><time>2026-04-18T13:32:36.001Z</time></trkpt><trkpt lat="43.93183905269678" lon="8.073793668134858"><ele>123.0</ele><time>2026-04-18T13:32:37.001Z</time></trkpt><trkpt lat="43.9318834763179" lon="8.073713822211305"><ele>122.0</ele><time>2026-04-18T13:32:38.001Z</time></trkpt><trkpt lat="43.931975150939024" lon="8.073671731908666"><ele>121.0</ele><time>2026-04-18T13:32:40.001Z</time></trkpt><trkpt lat="43.932053479456634" lon="8.073690634461553"><ele>120.0</ele><time>2026-04-18T13:32:42.001Z</time></trkpt><trkpt lat="43.93214007080915" lon="8.073774537589774"><ele>120.0</ele><time>2026-04-18T13:32:45Z</time></trkpt><trkpt lat="43.93219523672833" lon="8.073840777415343"><ele>120.0</ele><time>2026-04-18T13:32:46Z</time></trkpt><trkpt lat="43.93226342520715" lon="8.073920006557152"><ele>120.0</ele><time>2026-04-18T13:32:47Z</time></trkpt><trkpt lat="43.93233130330618" lon="8.073977949449354"><ele>120.0</ele><time>2026-04-18T13:32:48Z</time></trkpt><trkpt lat="43.93241574954957" lon="8.074037017452422"><ele>120.0</ele><time>2026-04-18T13:32:49Z</time></trkpt><trkpt lat="43.93250677594991" lon="8.074114156563448"><ele>120.0</ele><time>2026-04-18T13:32:50Z</time></trkpt><trkpt lat="43.9325987809361" lon="8.074159590384058"><ele>121.8</ele><time>2026-04-18T13:32:51Z</time></trkpt><trkpt lat="43.9326976346991" lon="8.074196363861125"><ele>123.6</ele><time>2026-04-18T13:32:52Z</time></trkpt><trkpt lat="43.9328013187423" lon="8.07421210148907"><ele>125.4</ele><time>2026-04-18T13:32:53Z</time></trkpt><trkpt lat="43.93291018999575" lon="8.074161597296326"><ele>127.2</ele><time>2026-04-18T13:32:54Z</time></trkpt><trkpt lat="43.93299521813578" lon="8.074071041262883"><ele>129.0</ele><time>2026-04-18T13:32:55Z</time></trkpt><trkpt lat="43.93308601642531" lon="8.074010039211558"><ele>129.0</ele><time>2026-04-18T13:32:56Z</time></trkpt><trkpt lat="43.93317114476252" lon="8.0738993126046"><ele>129.0</ele><time>2026-04-18T13:32:57Z</time></trkpt><trkpt lat="43.93321535211973" lon="8.073761767492936"><ele>129.0</ele><time>2026-04-18T13:32:58Z</time></trkpt><trkpt lat="43.933272597600094" lon="8.073657941079322"><ele>129.0</ele><time>2026-04-18T13:32:59Z</time></trkpt><trkpt lat="43.93331305449231" lon="8.073576147843005"><ele>129.0</ele><time>2026-04-18T13:33:00Z</time></trkpt><trkpt lat="43.93338544166643" lon="8.073548758076948"><ele>129.0</ele><time>2026-04-18T13:33:02Z</time></trkpt><trkpt lat="43.93342117295735" lon="8.073672573927091"><ele>129.0</ele><time>2026-04-18T13:33:04Z</time></trkpt><trkpt lat="43.93338442742828" lon="8.073766444713069"><ele>129.0</ele><time>2026-04-18T13:33:05Z</time></trkpt><trkpt lat="43.93332045451749" lon="8.073856109077916"><ele>129.0</ele><time>2026-04-18T13:33:06Z</time></trkpt><trkpt lat="43.93325436284945" lon="8.073960121381637"><ele>129.0</ele><time>2026-04-18T13:33:07Z</time></trkpt><trkpt lat="43.933181993691164" lon="8.074079171273441"><ele>134.25</ele><time>2026-04-18T13:33:08Z</time></trkpt><trkpt lat="43.93310576368789" lon="8.07419315492012"><ele>139.5</ele><time>2026-04-18T13:33:09Z</time></trkpt><trkpt lat="43.93301912274703" lon="8.07427788469584"><ele>144.75</ele><time>2026-04-18T13:33:10Z</time></trkpt><trkpt lat="43.9329055373768" lon="8.074351046092302"><ele>150.0</ele><time>2026-04-18T13:33:11Z</time></trkpt><trkpt lat="43.93278122194132" lon="8.074408159120736"><ele>150.0</ele><time>2026-04-18T13:33:12Z</time></trkpt><trkpt lat="43.932659219959156" lon="8.074457934365372"><ele>150.0</ele><time>2026-04-18T13:33:13Z</time></trkpt><trkpt lat="43.93255098681369" lon="8.07450354814818"><ele>150.0</ele><time>2026-04-18T13:33:14Z</time></trkpt><trkpt lat="43.93245082036107" lon="8.074558797860727"><ele>150.0</ele><time>2026-04-18T13:33:15Z</time></trkpt><trkpt lat="43.93236782080049" lon="8.074637505190577"><ele>150.0</ele><time>2026-04-18T13:33:16Z</time></trkpt><trkpt lat="43.932297656257276" lon="8.074743734555884"><ele>150.25</ele><time>2026-04-18T13:33:17Z</time></trkpt><trkpt lat="43.93223312950449" lon="8.074878618935852"><ele>150.5</ele><time>2026-04-18T13:33:18Z</time></trkpt><trkpt lat="43.932175213531785" lon="8.075024229013003"><ele>150.75</ele><time>2026-04-18T13:33:19Z</time></trkpt><trkpt lat="43.932114967891515" lon="8.075167854369825"><ele>151.0</ele><time>2026-04-18T13:33:20Z</time></trkpt><trkpt lat="43.93205200803008" lon="8.0753043146975"><ele>151.0</ele><time>2026-04-18T13:33:21Z</time></trkpt><trkpt lat="43.931989238575575" lon="8.075435678285375"><ele>151.0</ele><time>2026-04-18T13:33:22Z</time></trkpt><trkpt lat="43.93191266927307" lon="8.075549258237306"><ele>151.0</ele><time>2026-04-18T13:33:23Z</time></trkpt><trkpt lat="43.93182575082206" lon="8.075632851629399"><ele>151.0</ele><time>2026-04-18T13:33:24Z</time></trkpt><trkpt lat="43.93173935643991" lon="8.075709350985177"><ele>151.0</ele><time>2026-04-18T13:33:25Z</time></trkpt><trkpt lat="43.93164989571584" lon="8.075790047573125"><ele>151.4</ele><time>2026-04-18T13:33:26Z</time></trkpt><trkpt lat="43.9315599501893" lon="8.075851244623946"><ele>151.8</ele><time>2026-04-18T13:33:27Z</time></trkpt><trkpt lat="43.93147341148806" lon="8.075898107298984"><ele>152.20000000000002</ele><time>2026-04-18T13:33:28Z</time></trkpt><trkpt lat="43.931392278854695" lon="8.075929112684893"><ele>152.6</ele><time>2026-04-18T13:33:29Z</time></trkpt><trkpt lat="43.931317807309085" lon="8.075943237045456"><ele>153.0</ele><time>2026-04-18T13:33:30Z</time></trkpt><trkpt lat="43.931211762282025" lon="8.07599599281907"><ele>153.0</ele><time>2026-04-18T13:33:32Z</time></trkpt><trkpt lat="43.931135857610236" lon="8.076027443635391"><ele>153.0</ele><time>2026-04-18T13:33:34Z</time></trkpt><trkpt lat="43.931192845586516" lon="8.076068093545238"><ele>153.0</ele><time>2026-04-18T13:33:37Z</time></trkpt></trkseg></trk></gpx>